<?xml version='1.0' encoding='UTF-8'?><gpx version="1.1" creator="JPX - https://github.com/jenetics/jpx" xmlns="http://www.topografix.com/GPX/1/1"><trk><trkseg><trkpt lat="37.31126664429197" lon="13.576788245604344"><ele>261.0</ele><time>2026-03-25T08:25:24Z</time></trkpt><trkpt lat="37.31121092055349" lon="13.576734727364627"><ele>261.0</ele><time>2026-03-25T08:25:28Z</time></trkpt><trkpt lat="37.31114037983627" lon="13.576759608268945"><ele>261.0</ele><time>2026-03-25T08:25:31.001Z</time></trkpt><trkpt lat="37.311089105017636" lon="13.576666479433426"><ele>261.0</ele><time>2026-03-25T08:25:34.001Z</time></trkpt><trkpt lat="37.31104432085702" lon="13.576579113888682"><ele>261.0</ele><time>2026-03-25T08:25:37.001Z</time></trkpt><trkpt lat="37.311005572315956" lon="13.57648917399167"><ele>261.0</ele><time>2026-03-25T08:25:40.001Z</time></trkpt><trkpt lat="37.310935323442536" lon="13.57642947409414"><ele>261.0</ele><time>2026-03-25T08:25:43.001Z</time></trkpt><trkpt lat="37.310855007942514" lon="13.576476826142722"><ele>261.0</ele><time>2026-03-25T08:25:47.001Z</time></trkpt><trkpt lat="37.31080589354711" lon="13.576585946709233"><ele>261.0</ele><time>2026-03-25T08:25:49.001Z</time></trkpt><trkpt lat="37.31075485753455" lon="13.576719615545521"><ele>261.0</ele><time>2026-03-25T08:25:51.001Z</time></trkpt><trkpt lat="37.310722854948224" lon="13.576805117699037"><ele>261.0</ele><time>2026-03-25T08:25:52.001Z</time></trkpt><trkpt lat="37.31064305658103" lon="13.576853176213213"><ele>257.0</ele><time>2026-03-25T08:25:53.001Z</time></trkpt><trkpt lat="37.3105714520565" lon="13.576978973016423"><ele>253.00000000000003</ele><time>2026-03-25T08:25:55.001Z</time></trkpt><trkpt lat="37.31050473433895" lon="13.577093284697002"><ele>249.00000000000003</ele><time>2026-03-25T08:25:57.001Z</time></trkpt><trkpt lat="37.310448643363785" lon="13.577200033187452"><ele>245.0</ele><time>2026-03-25T08:25:59.001Z</time></trkpt><trkpt lat="37.3104136911181" lon="13.577271091108729"><ele>241.0</ele><time>2026-03-25T08:26:00.001Z</time></trkpt><trkpt lat="37.31037712703449" lon="13.577349405874036"><ele>240.99999999999997</ele><time>2026-03-25T08:26:01.001Z</time></trkpt><trkpt lat="37.3103307815069" lon="13.577454157757318"><ele>241.0</ele><time>2026-03-25T08:26:02.001Z</time></trkpt><trkpt lat="37.310284424491726" lon="13.577567630425916"><ele>241.0</ele><time>2026-03-25T08:26:03.001Z</time></trkpt><trkpt lat="37.31026642160354" lon="13.577664453208406"><ele>241.0</ele><time>2026-03-25T08:26:04.001Z</time></trkpt><trkpt lat="37.31022725644845" lon="13.577739533049254"><ele>240.99999999999997</ele><time>2026-03-25T08:26:05.001Z</time></trkpt><trkpt lat="37.31020668039788" lon="13.577823370293805"><ele>241.0</ele><time>2026-03-25T08:26:06.001Z</time></trkpt><trkpt lat="37.31018283010796" lon="13.577941683204942"><ele>240.33333333333331</ele><time>2026-03-25T08:26:08.001Z</time></trkpt><trkpt lat="37.31018464234811" lon="13.57803336157181"><ele>239.66666666666666</ele><time>2026-03-25T08:26:18.001Z</time></trkpt><trkpt lat="37.31018177898244" lon="13.57815602729886"><ele>239.0</ele><time>2026-03-25T08:26:20.002Z</time></trkpt><trkpt lat="37.310226931153586" lon="13.578282109160178"><ele>238.33333333333331</ele><time>2026-03-25T08:26:22.002Z</time></trkpt><trkpt lat="37.31026149830174" lon="13.578384898647512"><ele>237.66666666666666</ele><time>2026-03-25T08:26:24.002Z</time></trkpt><trkpt lat="37.31026081990937" lon="13.578474521292225"><ele>237.0</ele><time>2026-03-25T08:26:26.002Z</time></trkpt><trkpt lat="37.31032947532457" lon="13.57856697231021"><ele>237.0</ele><time>2026-03-25T08:26:28.002Z</time></trkpt><trkpt lat="37.31038539912324" lon="13.578670844840662"><ele>237.0</ele><time>2026-03-25T08:26:30.002Z</time></trkpt><trkpt lat="37.31038158785497" lon="13.578753529804565"><ele>237.0</ele><time>2026-03-25T08:26:31.002Z</time></trkpt><trkpt lat="37.31043682202257" lon="13.578871941944954"><ele>237.0</ele><time>2026-03-25T08:26:33.002Z</time></trkpt><trkpt lat="37.31047221205556" lon="13.578951928317927"><ele>237.0</ele><time>2026-03-25T08:26:35.001Z</time></trkpt><trkpt lat="37.310535958335876" lon="13.579072436016245"><ele>236.16666666666666</ele><time>2026-03-25T08:26:38.001Z</time></trkpt><trkpt lat="37.3105732127397" lon="13.57914903925199"><ele>235.33333333333331</ele><time>2026-03-25T08:26:41.001Z</time></trkpt><trkpt lat="37.31061093791838" lon="13.579224263588644"><ele>234.5</ele><time>2026-03-25T08:26:45.001Z</time></trkpt><trkpt lat="37.3106191507305" lon="13.579320648018768"><ele>233.66666666666666</ele><time>2026-03-25T08:26:53Z</time></trkpt><trkpt lat="37.31058325368436" lon="13.579433876278094"><ele>232.83333333333331</ele><time>2026-03-25T08:26:55Z</time></trkpt><trkpt lat="37.31058161065463" lon="13.579519914935565"><ele>232.0</ele><time>2026-03-25T08:26:56Z</time></trkpt><trkpt lat="37.31056442492515" lon="13.57960596206025"><ele>231.0</ele><time>2026-03-25T08:26:57Z</time></trkpt><trkpt lat="37.31054044188559" lon="13.57970641772433"><ele>230.0</ele><time>2026-03-25T08:26:58Z</time></trkpt><trkpt lat="37.310510129664294" lon="13.579827071772382"><ele>229.0</ele><time>2026-03-25T08:26:59Z</time></trkpt><trkpt lat="37.310479955680336" lon="13.57994944137738"><ele>228.0</ele><time>2026-03-25T08:27:00Z</time></trkpt><trkpt lat="37.31043269827667" lon="13.580060152067112"><ele>227.0</ele><time>2026-03-25T08:27:01Z</time></trkpt><trkpt lat="37.31040279038962" lon="13.580178186180651"><ele>227.00000000000003</ele><time>2026-03-25T08:27:02Z</time></trkpt><trkpt lat="37.31037722224858" lon="13.580280806776901"><ele>227.0</ele><time>2026-03-25T08:27:03Z</time></trkpt><trkpt lat="37.31036632556204" lon="13.580381766372115"><ele>227.0</ele><time>2026-03-25T08:27:04Z</time></trkpt><trkpt lat="37.31033695127394" lon="13.580470262769877"><ele>227.0</ele><time>2026-03-25T08:27:05Z</time></trkpt><trkpt lat="37.31028338813219" lon="13.580564119897222"><ele>227.00000000000003</ele><time>2026-03-25T08:27:07Z</time></trkpt><trkpt lat="37.31026279585414" lon="13.580661234570153"><ele>227.0</ele><time>2026-03-25T08:28:36Z</time></trkpt><trkpt lat="37.31023977574238" lon="13.580764603078718"><ele>227.8</ele><time>2026-03-25T08:28:37Z</time></trkpt><trkpt lat="37.310258531652345" lon="13.580868117310821"><ele>228.6</ele><time>2026-03-25T08:28:38Z</time></trkpt><trkpt lat="37.310233353902056" lon="13.580970653818282"><ele>229.40000000000003</ele><time>2026-03-25T08:28:39Z</time></trkpt><trkpt lat="37.310207545145964" lon="13.581082683989884"><ele>230.20000000000002</ele><time>2026-03-25T08:28:40Z</time></trkpt><trkpt lat="37.31017703669436" lon="13.58120218299876"><ele>231.0</ele><time>2026-03-25T08:28:41Z</time></trkpt><trkpt lat="37.31014649303832" lon="13.581319375905316"><ele>233.0</ele><time>2026-03-25T08:28:42Z</time></trkpt><trkpt lat="37.310112484777214" lon="13.581436218004875"><ele>235.00000000000003</ele><time>2026-03-25T08:28:43Z</time></trkpt><trkpt lat="37.31006318979729" lon="13.581550487178177"><ele>237.00000000000003</ele><time>2026-03-25T08:28:44Z</time></trkpt><trkpt lat="37.31002940723429" lon="13.581676300258696"><ele>239.0</ele><time>2026-03-25T08:28:45Z</time></trkpt><trkpt lat="37.30999647870806" lon="13.58180315037555"><ele>241.0</ele><time>2026-03-25T08:28:46Z</time></trkpt><trkpt lat="37.30997898921253" lon="13.581937087846239"><ele>243.20000000000002</ele><time>2026-03-25T08:28:47Z</time></trkpt><trkpt lat="37.30994008680403" lon="13.582061255725375"><ele>245.40000000000003</ele><time>2026-03-25T08:28:48Z</time></trkpt><trkpt lat="37.309905123476256" lon="13.582172112197666"><ele>247.6</ele><time>2026-03-25T08:28:49Z</time></trkpt><trkpt lat="37.3098688964811" lon="13.58229679391792"><ele>249.8</ele><time>2026-03-25T08:28:50Z</time></trkpt><trkpt lat="37.30982322098469" lon="13.582424712607688"><ele>252.0</ele><time>2026-03-25T08:28:51Z</time></trkpt><trkpt lat="37.30975335705606" lon="13.582549551777596"><ele>246.75</ele><time>2026-03-25T08:28:52Z</time></trkpt><trkpt lat="37.3096866667315" lon="13.582686804695296"><ele>241.5</ele><time>2026-03-25T08:28:53Z</time></trkpt><trkpt lat="37.30963684615584" lon="13.582849785961686"><ele>236.25</ele><time>2026-03-25T08:28:54Z</time></trkpt><trkpt lat="37.30959734030038" lon="13.583022165438004"><ele>231.0</ele><time>2026-03-25T08:28:55Z</time></trkpt><trkpt lat="37.30956047437635" lon="13.583198853049005"><ele>231.0</ele><time>2026-03-25T08:28:56Z</time></trkpt><trkpt lat="37.30950454674937" lon="13.583368399026828"><ele>231.0</ele><time>2026-03-25T08:28:57Z</time></trkpt><trkpt lat="37.309473024332476" lon="13.583544349648358"><ele>231.0</ele><time>2026-03-25T08:28:58Z</time></trkpt><trkpt lat="37.30946268163793" lon="13.583720298255146"><ele>231.0</ele><time>2026-03-25T08:28:59Z</time></trkpt><trkpt lat="37.30944104691134" lon="13.58389288169246"><ele>232.25</ele><time>2026-03-25T08:29:00Z</time></trkpt><trkpt lat="37.309419184262794" lon="13.584064257040106"><ele>233.5</ele><time>2026-03-25T08:29:01Z</time></trkpt><trkpt lat="37.30937971199107" lon="13.584227289473361"><ele>234.75</ele><time>2026-03-25T08:29:02Z</time></trkpt><trkpt lat="37.309357228504574" lon="13.584384834848507"><ele>236.0</ele><time>2026-03-25T08:29:03Z</time></trkpt><trkpt lat="37.30933789511731" lon="13.584531916950086"><ele>237.0</ele><time>2026-03-25T08:29:04Z</time></trkpt><trkpt lat="37.309320406848485" lon="13.584664961998516"><ele>238.00000000000003</ele><time>2026-03-25T08:29:05Z</time></trkpt><trkpt lat="37.30930367846123" lon="13.584782109494958"><ele>239.00000000000003</ele><time>2026-03-25T08:29:06Z</time></trkpt><trkpt lat="37.30928116685364" lon="13.584886281422033"><ele>240.0</ele><time>2026-03-25T08:29:07Z</time></trkpt><trkpt lat="37.309270151952866" lon="13.585003897859226"><ele>241.0</ele><time>2026-03-25T08:29:08Z</time></trkpt><trkpt lat="37.30922222148628" lon="13.585125994770548"><ele>241.0</ele><time>2026-03-25T08:29:09Z</time></trkpt><trkpt lat="37.30917495032351" lon="13.585251225719494"><ele>241.00000000000003</ele><time>2026-03-25T08:29:10Z</time></trkpt><trkpt lat="37.309129436345714" lon="13.585369396169698"><ele>241.00000000000003</ele><time>2026-03-25T08:29:11Z</time></trkpt><trkpt lat="37.30908824757348" lon="13.585469568081603"><ele>241.0</ele><time>2026-03-25T08:29:12Z</time></trkpt><trkpt lat="37.309039752436206" lon="13.585552742810762"><ele>241.0</ele><time>2026-03-25T08:29:13Z</time></trkpt><trkpt lat="37.30899022865245" lon="13.585615115930901"><ele>241.8</ele><time>2026-03-25T08:29:14Z</time></trkpt><trkpt lat="37.30893626692205" lon="13.585666481745587"><ele>242.60000000000002</ele><time>2026-03-25T08:29:15Z</time></trkpt><trkpt lat="37.30895053174429" lon="13.585787883519151"><ele>243.4</ele><time>2026-03-25T08:29:17Z</time></trkpt><trkpt lat="37.308784652478806" lon="13.585743977258886"><ele>244.2</ele><time>2026-03-25T08:29:18Z</time></trkpt><trkpt lat="37.308709592355534" lon="13.585785850745411"><ele>245.0</ele><time>2026-03-25T08:29:20Z</time></trkpt><trkpt lat="37.30860662115719" lon="13.585872028231691"><ele>243.66666666666669</ele><time>2026-03-25T08:29:22Z</time></trkpt><trkpt lat="37.3085601014052" lon="13.585971399936543"><ele>242.33333333333331</ele><time>2026-03-25T08:29:23Z</time></trkpt><trkpt lat="37.308453430438355" lon="13.586232780264575"><ele>241.0</ele><time>2026-03-25T08:29:25Z</time></trkpt><trkpt lat="37.308396828630855" lon="13.58637295897504"><ele>241.0</ele><time>2026-03-25T08:29:26Z</time></trkpt><trkpt lat="37.30833122696945" lon="13.586535875277898"><ele>241.0</ele><time>2026-03-25T08:29:27Z</time></trkpt><trkpt lat="37.30826074839131" lon="13.586711651943489"><ele>241.0</ele><time>2026-03-25T08:29:28Z</time></trkpt><trkpt lat="37.30818633779284" lon="13.586897235331566"><ele>245.66666666666666</ele><time>2026-03-25T08:29:29Z</time></trkpt><trkpt lat="37.30812435332523" lon="13.587092193622093"><ele>250.33333333333331</ele><time>2026-03-25T08:29:30Z</time></trkpt><trkpt lat="37.3080512430215" lon="13.587268221415211"><ele>255.0</ele><time>2026-03-25T08:29:31Z</time></trkpt><trkpt lat="37.30798185880244" lon="13.587427134701105"><ele>249.5</ele><time>2026-03-25T08:29:32Z</time></trkpt><trkpt lat="37.30791651424646" lon="13.587576279363724"><ele>244.0</ele><time>2026-03-25T08:29:33Z</time></trkpt><trkpt lat="37.30785168651823" lon="13.587733963059195"><ele>238.5</ele><time>2026-03-25T08:29:34Z</time></trkpt><trkpt lat="37.307781852382114" lon="13.587922383217819"><ele>233.0</ele><time>2026-03-25T08:29:35Z</time></trkpt><trkpt lat="37.307700948455306" lon="13.588133327238534"><ele>233.0</ele><time>2026-03-25T08:29:36Z</time></trkpt><trkpt lat="37.30761180180856" lon="13.588343110443594"><ele>233.0</ele><time>2026-03-25T08:29:37Z</time></trkpt><trkpt lat="37.30752404101924" lon="13.58853312460758"><ele>233.0</ele><time>2026-03-25T08:29:38Z</time></trkpt><trkpt lat="37.307442488684686" lon="13.588704743710718"><ele>232.0</ele><time>2026-03-25T08:29:39Z</time></trkpt><trkpt lat="37.307368985014804" lon="13.588865176046319"><ele>231.0</ele><time>2026-03-25T08:29:40Z</time></trkpt><trkpt lat="37.307303455402334" lon="13.589017265742449"><ele>230.0</ele><time>2026-03-25T08:29:41Z</time></trkpt><trkpt lat="37.307246377920706" lon="13.589157640690333"><ele>229.0</ele><time>2026-03-25T08:29:42Z</time></trkpt><trkpt lat="37.307189325465565" lon="13.589285636571166"><ele>229.0</ele><time>2026-03-25T08:29:43Z</time></trkpt><trkpt lat="37.307124874931645" lon="13.589397061540607"><ele>228.99999999999997</ele><time>2026-03-25T08:29:44Z</time></trkpt><trkpt lat="37.307044548160974" lon="13.589478491121325"><ele>228.99999999999997</ele><time>2026-03-25T08:29:45Z</time></trkpt><trkpt lat="37.306947254631034" lon="13.589526120858132"><ele>229.0</ele><time>2026-03-25T08:29:46Z</time></trkpt><trkpt lat="37.30683741516352" lon="13.589550590509361"><ele>229.0</ele><time>2026-03-25T08:29:47Z</time></trkpt><trkpt lat="37.30671734652405" lon="13.589561535367277"><ele>228.5</ele><time>2026-03-25T08:29:48Z</time></trkpt><trkpt lat="37.30659707273634" lon="13.589574845769466"><ele>228.0</ele><time>2026-03-25T08:29:49Z</time></trkpt><trkpt lat="37.30648172549112" lon="13.589603587548678"><ele>227.5</ele><time>2026-03-25T08:29:50Z</time></trkpt><trkpt lat="37.30637520593236" lon="13.589643345094272"><ele>227.0</ele><time>2026-03-25T08:29:51Z</time></trkpt><trkpt lat="37.30627969639139" lon="13.589700147719457"><ele>227.0</ele><time>2026-03-25T08:29:52Z</time></trkpt><trkpt lat="37.30619796162539" lon="13.589782636668172"><ele>227.0</ele><time>2026-03-25T08:29:53Z</time></trkpt><trkpt lat="37.30613240844368" lon="13.589892651253518"><ele>227.0</ele><time>2026-03-25T08:29:54Z</time></trkpt><trkpt lat="37.30605087549314" lon="13.590005753068233"><ele>227.0</ele><time>2026-03-25T08:29:55Z</time></trkpt><trkpt lat="37.305983634340365" lon="13.590125002244028"><ele>227.0</ele><time>2026-03-25T08:29:56Z</time></trkpt><trkpt lat="37.3059301170036" lon="13.590243646610558"><ele>227.0</ele><time>2026-03-25T08:29:57Z</time></trkpt><trkpt lat="37.30585843320867" lon="13.590335047783011"><ele>227.0</ele><time>2026-03-25T08:29:58Z</time></trkpt><trkpt lat="37.30578636933214" lon="13.590416684400688"><ele>227.0</ele><time>2026-03-25T08:29:59Z</time></trkpt><trkpt lat="37.305703709971844" lon="13.590471548695527"><ele>227.0</ele><time>2026-03-25T08:30:00Z</time></trkpt><trkpt lat="37.30563112528918" lon="13.590542287777257"><ele>226.0</ele><time>2026-03-25T08:30:01Z</time></trkpt><trkpt lat="37.30555610038485" lon="13.590615405029862"><ele>225.0</ele><time>2026-03-25T08:30:02Z</time></trkpt><trkpt lat="37.30548215071836" lon="13.590690346752984"><ele>224.0</ele><time>2026-03-25T08:30:03Z</time></trkpt><trkpt lat="37.305409348507716" lon="13.590775564446545"><ele>223.0</ele><time>2026-03-25T08:30:04Z</time></trkpt><trkpt lat="37.30534307165677" lon="13.590872017156196"><ele>222.0</ele><time>2026-03-25T08:30:05Z</time></trkpt><trkpt lat="37.30529539542165" lon="13.590990000477843"><ele>222.0</ele><time>2026-03-25T08:30:06Z</time></trkpt><trkpt lat="37.30526736989978" lon="13.591123870433698"><ele>222.0</ele><time>2026-03-25T08:30:07Z</time></trkpt><trkpt lat="37.30524387421281" lon="13.591259318298047"><ele>222.0</ele><time>2026-03-25T08:30:08Z</time></trkpt><trkpt lat="37.30522426532897" lon="13.591395506468823"><ele>222.0</ele><time>2026-03-25T08:30:09Z</time></trkpt><trkpt lat="37.30520704144318" lon="13.59152358231792"><ele>222.0</ele><time>2026-03-25T08:30:10Z</time></trkpt><trkpt lat="37.3051891478542" lon="13.59165663809372"><ele>222.0</ele><time>2026-03-25T08:30:11Z</time></trkpt><trkpt lat="37.30518253385318" lon="13.591791140758284"><ele>222.0</ele><time>2026-03-25T08:30:12Z</time></trkpt><trkpt lat="37.305154960746044" lon="13.591924996059356"><ele>222.0</ele><time>2026-03-25T08:30:13Z</time></trkpt><trkpt lat="37.30511882267395" lon="13.592051542899343"><ele>222.0</ele><time>2026-03-25T08:30:14Z</time></trkpt><trkpt lat="37.30507127974112" lon="13.59216538578794"><ele>222.0</ele><time>2026-03-25T08:30:15Z</time></trkpt><trkpt lat="37.30500676524452" lon="13.592258263352512"><ele>221.39999999999998</ele><time>2026-03-25T08:30:16Z</time></trkpt><trkpt lat="37.30492821386165" lon="13.592331264620624"><ele>220.79999999999998</ele><time>2026-03-25T08:30:17Z</time></trkpt><trkpt lat="37.30483612547372" lon="13.592404026176327"><ele>220.2</ele><time>2026-03-25T08:30:18Z</time></trkpt><trkpt lat="37.304742321590346" lon="13.592463194579139"><ele>219.6</ele><time>2026-03-25T08:30:19Z</time></trkpt><trkpt lat="37.304650089935265" lon="13.592514540772827"><ele>219.0</ele><time>2026-03-25T08:30:20Z</time></trkpt><trkpt lat="37.304563939935946" lon="13.592571105914447"><ele>217.2</ele><time>2026-03-25T08:30:21Z</time></trkpt><trkpt lat="37.30449013237237" lon="13.59264740401086"><ele>215.39999999999998</ele><time>2026-03-25T08:30:22Z</time></trkpt><trkpt lat="37.304426885723906" lon="13.592733163796886"><ele>213.6</ele><time>2026-03-25T08:30:23Z</time></trkpt><trkpt lat="37.30436796309591" lon="13.592821083885298"><ele>211.8</ele><time>2026-03-25T08:30:24Z</time></trkpt><trkpt lat="37.30430088814583" lon="13.592896405900031"><ele>210.0</ele><time>2026-03-25T08:30:25Z</time></trkpt><trkpt lat="37.30421982413035" lon="13.592943103499978"><ele>210.0</ele><time>2026-03-25T08:30:26Z</time></trkpt><trkpt lat="37.304133933690686" lon="13.592961501031088"><ele>210.0</ele><time>2026-03-25T08:30:27Z</time></trkpt><trkpt lat="37.30404208035522" lon="13.592958880013523"><ele>210.0</ele><time>2026-03-25T08:30:28Z</time></trkpt><trkpt lat="37.303945221581635" lon="13.59295166050835"><ele>210.0</ele><time>2026-03-25T08:30:29Z</time></trkpt><trkpt lat="37.30385312973269" lon="13.59296589429394"><ele>210.0</ele><time>2026-03-25T08:30:30Z</time></trkpt><trkpt lat="37.30377029490032" lon="13.593006293189788"><ele>206.4</ele><time>2026-03-25T08:30:31Z</time></trkpt><trkpt lat="37.30369492764444" lon="13.593074810164927"><ele>202.8</ele><time>2026-03-25T08:30:32Z</time></trkpt><trkpt lat="37.30363838691498" lon="13.593175909106863"><ele>199.2</ele><time>2026-03-25T08:30:33Z</time></trkpt><trkpt lat="37.303592767431375" lon="13.59329732138477"><ele>195.6</ele><time>2026-03-25T08:30:34Z</time></trkpt><trkpt lat="37.30355062733532" lon="13.593429892176934"><ele>192.0</ele><time>2026-03-25T08:30:35Z</time></trkpt><trkpt lat="37.30349927648174" lon="13.593553726380224"><ele>192.0</ele><time>2026-03-25T08:30:36Z</time></trkpt><trkpt lat="37.30343876937925" lon="13.593659309634702"><ele>192.0</ele><time>2026-03-25T08:30:37Z</time></trkpt><trkpt lat="37.30337080797885" lon="13.593746995594387"><ele>192.0</ele><time>2026-03-25T08:30:38Z</time></trkpt><trkpt lat="37.30329655756877" lon="13.593818573471983"><ele>192.0</ele><time>2026-03-25T08:30:39Z</time></trkpt><trkpt lat="37.303222371995744" lon="13.593886234758813"><ele>192.0</ele><time>2026-03-25T08:30:40Z</time></trkpt><trkpt lat="37.30315126661622" lon="13.593951240259395"><ele>191.0</ele><time>2026-03-25T08:30:41Z</time></trkpt><trkpt lat="37.30308548398841" lon="13.59401284840206"><ele>190.0</ele><time>2026-03-25T08:30:42Z</time></trkpt><trkpt lat="37.30300979649398" lon="13.594062414117063"><ele>189.0</ele><time>2026-03-25T08:30:43Z</time></trkpt><trkpt lat="37.302945054548296" lon="13.594123205896642"><ele>188.0</ele><time>2026-03-25T08:30:44Z</time></trkpt><trkpt lat="37.302881154103105" lon="13.594183207521443"><ele>187.0</ele><time>2026-03-25T08:30:45Z</time></trkpt><trkpt lat="37.30282328025673" lon="13.594240941502436"><ele>186.0</ele><time>2026-03-25T08:30:46Z</time></trkpt><trkpt lat="37.3027841172688" lon="13.594307911463918"><ele>186.0</ele><time>2026-03-25T08:30:47Z</time></trkpt><trkpt lat="37.30268390589457" lon="13.594366765432186"><ele>186.0</ele><time>2026-03-25T08:30:49Z</time></trkpt><trkpt lat="37.30260522983837" lon="13.594438285550398"><ele>186.0</ele><time>2026-03-25T08:30:51Z</time></trkpt><trkpt lat="37.30255232088705" lon="13.594490406221478"><ele>186.0</ele><time>2026-03-25T08:30:53Z</time></trkpt><trkpt lat="37.30249633711548" lon="13.594565304781886"><ele>186.0</ele><time>2026-03-25T08:31:19Z</time></trkpt><trkpt lat="37.30243989942927" lon="13.59462366928077"><ele>186.0</ele><time>2026-03-25T08:31:20Z</time></trkpt><trkpt lat="37.30237089167889" lon="13.5946948817227"><ele>186.60000000000002</ele><time>2026-03-25T08:31:21Z</time></trkpt><trkpt lat="37.30229101448714" lon="13.594776450368455"><ele>187.2</ele><time>2026-03-25T08:31:22Z</time></trkpt><trkpt lat="37.3022071166778" lon="13.594857708603557"><ele>187.8</ele><time>2026-03-25T08:31:23Z</time></trkpt><trkpt lat="37.30211917794771" lon="13.594943633142194"><ele>188.39999999999998</ele><time>2026-03-25T08:31:24Z</time></trkpt><trkpt lat="37.302017073537954" lon="13.595017547450526"><ele>189.0</ele><time>2026-03-25T08:31:25Z</time></trkpt><trkpt lat="37.30192010480724" lon="13.595110356123138"><ele>186.75</ele><time>2026-03-25T08:31:26Z</time></trkpt><trkpt lat="37.301822491658406" lon="13.595203781599409"><ele>184.5</ele><time>2026-03-25T08:31:27Z</time></trkpt><trkpt lat="37.30173635035355" lon="13.595319430960439"><ele>182.25</ele><time>2026-03-25T08:31:28Z</time></trkpt><trkpt lat="37.30163764332201" lon="13.595416086685104"><ele>180.0</ele><time>2026-03-25T08:31:29Z</time></trkpt><trkpt lat="37.301532908445765" lon="13.59551642283007"><ele>179.75</ele><time>2026-03-25T08:31:30Z</time></trkpt><trkpt lat="37.301426268438306" lon="13.595613565170133"><ele>179.5</ele><time>2026-03-25T08:31:31Z</time></trkpt><trkpt lat="37.30130198925369" lon="13.595680948760625"><ele>179.25</ele><time>2026-03-25T08:31:32Z</time></trkpt><trkpt lat="37.3011873093024" lon="13.59576347288305"><ele>179.0</ele><time>2026-03-25T08:31:33Z</time></trkpt><trkpt lat="37.301070262581504" lon="13.595843375621227"><ele>177.33333333333331</ele><time>2026-03-25T08:31:34Z</time></trkpt><trkpt lat="37.3009530891982" lon="13.595914234850044"><ele>175.66666666666666</ele><time>2026-03-25T08:31:35Z</time></trkpt><trkpt lat="37.300840427123" lon="13.595996369742359"><ele>174.0</ele><time>2026-03-25T08:31:36Z</time></trkpt><trkpt lat="37.30059445916573" lon="13.596077572794204"><ele>173.79999999999998</ele><time>2026-03-25T08:31:38Z</time></trkpt><trkpt lat="37.300480777625594" lon="13.596115239919525"><ele>173.6</ele><time>2026-03-25T08:31:39Z</time></trkpt><trkpt lat="37.30037248798916" lon="13.596150729931633"><ele>173.4</ele><time>2026-03-25T08:31:40Z</time></trkpt><trkpt lat="37.30027058038493" lon="13.59618406109031"><ele>173.2</ele><time>2026-03-25T08:31:41Z</time></trkpt><trkpt lat="37.30017569194751" lon="13.596211135843564"><ele>173.0</ele><time>2026-03-25T08:31:42Z</time></trkpt><trkpt lat="37.30008212555702" lon="13.596236125924985"><ele>172.4</ele><time>2026-03-25T08:31:43Z</time></trkpt><trkpt lat="37.299997945546394" lon="13.596253885455841"><ele>171.8</ele><time>2026-03-25T08:31:44Z</time></trkpt><trkpt lat="37.299918607807385" lon="13.596268351523499"><ele>171.2</ele><time>2026-03-25T08:31:45Z</time></trkpt><trkpt lat="37.29984696627228" lon="13.59627984177385"><ele>170.6</ele><time>2026-03-25T08:31:46Z</time></trkpt><trkpt lat="37.299732145011916" lon="13.596292787879136"><ele>170.0</ele><time>2026-03-25T08:31:48Z</time></trkpt><trkpt lat="37.299722779054974" lon="13.596547006895936"><ele>168.4</ele><time>2026-03-25T08:31:50Z</time></trkpt><trkpt lat="37.29972146263597" lon="13.596648174426555"><ele>166.8</ele><time>2026-03-25T08:31:51Z</time></trkpt><trkpt lat="37.29972832240907" lon="13.596742656002942"><ele>165.2</ele><time>2026-03-25T08:31:52Z</time></trkpt><trkpt lat="37.2996141428884" lon="13.596813528915026"><ele>163.6</ele><time>2026-03-25T08:31:53Z</time></trkpt><trkpt lat="37.29958551995297" lon="13.596890127312905"><ele>162.0</ele><time>2026-03-25T08:31:54Z</time></trkpt><trkpt lat="37.299514860279395" lon="13.596989994052953"><ele>162.2</ele><time>2026-03-25T08:31:56Z</time></trkpt><trkpt lat="37.2994553679538" lon="13.597074183610246"><ele>162.39999999999998</ele><time>2026-03-25T08:31:58Z</time></trkpt><trkpt lat="37.29939900087174" lon="13.597155221920506"><ele>162.60000000000002</ele><time>2026-03-25T08:32:00Z</time></trkpt><trkpt lat="37.29934086006111" lon="13.597258763657017"><ele>162.8</ele><time>2026-03-25T08:32:02Z</time></trkpt><trkpt lat="37.29926520275821" lon="13.597350866368734"><ele>163.0</ele><time>2026-03-25T08:32:04Z</time></trkpt><trkpt lat="37.299211446053526" lon="13.597469418942168"><ele>163.0</ele><time>2026-03-25T08:32:06Z</time></trkpt><trkpt lat="37.299137283623125" lon="13.597573879176679"><ele>163.0</ele><time>2026-03-25T08:32:08Z</time></trkpt><trkpt lat="37.29903850421871" lon="13.597654696369236"><ele>163.0</ele><time>2026-03-25T08:32:10Z</time></trkpt><trkpt lat="37.29894238909449" lon="13.597723315726816"><ele>163.0</ele><time>2026-03-25T08:32:12Z</time></trkpt><trkpt lat="37.29882892860529" lon="13.597761438042399"><ele>161.75</ele><time>2026-03-25T08:32:14Z</time></trkpt><trkpt lat="37.29873585354938" lon="13.597785565580677"><ele>160.5</ele><time>2026-03-25T08:32:15Z</time></trkpt><trkpt lat="37.298598217849204" lon="13.597821244433538"><ele>159.25</ele><time>2026-03-25T08:32:16Z</time></trkpt><trkpt lat="37.29845947154018" lon="13.597858380470024"><ele>158.0</ele><time>2026-03-25T08:32:17Z</time></trkpt><trkpt lat="37.29830889522429" lon="13.597899892097105"><ele>158.33333333333331</ele><time>2026-03-25T08:32:18Z</time></trkpt><trkpt lat="37.298156524658744" lon="13.597944933078113"><ele>158.66666666666666</ele><time>2026-03-25T08:32:19Z</time></trkpt><trkpt lat="37.2980070269091" lon="13.597992734061203"><ele>159.0</ele><time>2026-03-25T08:32:20Z</time></trkpt><trkpt lat="37.297867599997744" lon="13.598039591137844"><ele>159.0</ele><time>2026-03-25T08:32:21Z</time></trkpt><trkpt lat="37.297736813736776" lon="13.598086892105092"><ele>159.0</ele><time>2026-03-25T08:32:22Z</time></trkpt><trkpt lat="37.29760398851123" lon="13.59814054993299"><ele>159.0</ele><time>2026-03-25T08:32:23Z</time></trkpt><trkpt lat="37.297470132445994" lon="13.59820355767185"><ele>159.0</ele><time>2026-03-25T08:32:24Z</time></trkpt><trkpt lat="37.297341217362266" lon="13.598278167925912"><ele>154.66666666666666</ele><time>2026-03-25T08:32:25Z</time></trkpt><trkpt lat="37.29719540090075" lon="13.598373138851459"><ele>150.33333333333331</ele><time>2026-03-25T08:32:26Z</time></trkpt><trkpt lat="37.2970313856712" lon="13.598506306885294"><ele>146.0</ele><time>2026-03-25T08:32:27Z</time></trkpt><trkpt lat="37.296860952923154" lon="13.59865100530022"><ele>148.33333333333331</ele><time>2026-03-25T08:32:28Z</time></trkpt><trkpt lat="37.296691807107514" lon="13.59879451776585"><ele>150.66666666666666</ele><time>2026-03-25T08:32:29Z</time></trkpt><trkpt lat="37.296534468669215" lon="13.59892636487071"><ele>153.0</ele><time>2026-03-25T08:32:30Z</time></trkpt><trkpt lat="37.29638256365703" lon="13.599054672571793"><ele>148.33333333333334</ele><time>2026-03-25T08:32:31Z</time></trkpt><trkpt lat="37.29623826576344" lon="13.599176804133652"><ele>143.66666666666669</ele><time>2026-03-25T08:32:32Z</time></trkpt><trkpt lat="37.29609900130973" lon="13.599294675472988"><ele>139.0</ele><time>2026-03-25T08:32:33Z</time></trkpt><trkpt lat="37.29596057957997" lon="13.599411833546215"><ele>141.33333333333334</ele><time>2026-03-25T08:32:34Z</time></trkpt><trkpt lat="37.29583529154959" lon="13.599543194031448"><ele>143.66666666666666</ele><time>2026-03-25T08:32:35Z</time></trkpt><trkpt lat="37.29570228597012" lon="13.599654115168374"><ele>146.0</ele><time>2026-03-25T08:32:36Z</time></trkpt><trkpt lat="37.29556900996323" lon="13.599768312614966"><ele>142.5</ele><time>2026-03-25T08:32:37Z</time></trkpt><trkpt lat="37.29544233040876" lon="13.599878483688098"><ele>139.0</ele><time>2026-03-25T08:32:38Z</time></trkpt><trkpt lat="37.29531081414858" lon="13.599964959995805"><ele>135.5</ele><time>2026-03-25T08:32:39Z</time></trkpt><trkpt lat="37.29519169463413" lon="13.600064973127644"><ele>132.0</ele><time>2026-03-25T08:32:40Z</time></trkpt><trkpt lat="37.29507670531555" lon="13.600172680070015"><ele>132.0</ele><time>2026-03-25T08:32:41Z</time></trkpt><trkpt lat="37.294934967441534" lon="13.600250282897912"><ele>132.0</ele><time>2026-03-25T08:32:42Z</time></trkpt><trkpt lat="37.29479291049232" lon="13.60030572906532"><ele>132.0</ele><time>2026-03-25T08:32:43Z</time></trkpt><trkpt lat="37.29464780155644" lon="13.600342361123152"><ele>131.33333333333334</ele><time>2026-03-25T08:32:44Z</time></trkpt><trkpt lat="37.29449311350271" lon="13.600339172626164"><ele>130.66666666666669</ele><time>2026-03-25T08:32:45Z</time></trkpt><trkpt lat="37.29433697621455" lon="13.600333442662574"><ele>130.0</ele><time>2026-03-25T08:32:46Z</time></trkpt><trkpt lat="37.29417278557759" lon="13.600325971844915"><ele>128.0</ele><time>2026-03-25T08:32:47Z</time></trkpt><trkpt lat="37.29400656706882" lon="13.600316056241777"><ele>126.0</ele><time>2026-03-25T08:32:48Z</time></trkpt><trkpt lat="37.293849670314756" lon="13.600307315883681"><ele>124.0</ele><time>2026-03-25T08:32:49Z</time></trkpt><trkpt lat="37.29369895661647" lon="13.600299339721468"><ele>122.66666666666667</ele><time>2026-03-25T08:32:50Z</time></trkpt><trkpt lat="37.29354832888077" lon="13.600291190490207"><ele>121.33333333333334</ele><time>2026-03-25T08:32:51Z</time></trkpt><trkpt lat="37.293394810707234" lon="13.600282096129297"><ele>120.0</ele><time>2026-03-25T08:32:52Z</time></trkpt><trkpt lat="37.29323558621802" lon="13.600270847207083"><ele>117.66666666666666</ele><time>2026-03-25T08:32:53Z</time></trkpt><trkpt lat="37.29307718703829" lon="13.600261268980681"><ele>115.33333333333333</ele><time>2026-03-25T08:32:54Z</time></trkpt><trkpt lat="37.29292295788447" lon="13.600252876065689"><ele>113.0</ele><time>2026-03-25T08:32:55Z</time></trkpt><trkpt lat="37.29275978880598" lon="13.600243996652075"><ele>113.0</ele><time>2026-03-25T08:32:56Z</time></trkpt><trkpt lat="37.292593331334245" lon="13.60023493829047"><ele>113.0</ele><time>2026-03-25T08:32:57Z</time></trkpt><trkpt lat="37.29242589956096" lon="13.600224870904116"><ele>113.0</ele><time>2026-03-25T08:32:58Z</time></trkpt><trkpt lat="37.2922560158416" lon="13.600235047463832"><ele>111.66666666666666</ele><time>2026-03-25T08:32:59Z</time></trkpt><trkpt lat="37.29208474794443" lon="13.60020409583061"><ele>110.33333333333334</ele><time>2026-03-25T08:33:00Z</time></trkpt><trkpt lat="37.2919113810396" lon="13.600194069331923"><ele>109.0</ele><time>2026-03-25T08:33:01Z</time></trkpt><trkpt lat="37.29173927564093" lon="13.600184612984076"><ele>109.0</ele><time>2026-03-25T08:33:02Z</time></trkpt><trkpt lat="37.29157199070676" lon="13.600175421503256"><ele>109.0</ele><time>2026-03-25T08:33:03Z</time></trkpt><trkpt lat="37.291408475107296" lon="13.600167297617709"><ele>109.0</ele><time>2026-03-25T08:33:04Z</time></trkpt><trkpt lat="37.29124928253677" lon="13.600159623380627"><ele>109.5</ele><time>2026-03-25T08:33:05Z</time></trkpt><trkpt lat="37.29110014945926" lon="13.600151622285368"><ele>110.0</ele><time>2026-03-25T08:33:06Z</time></trkpt><trkpt lat="37.29096103231981" lon="13.600143831417492"><ele>110.5</ele><time>2026-03-25T08:33:07Z</time></trkpt><trkpt lat="37.290832278529216" lon="13.600136748907616"><ele>111.0</ele><time>2026-03-25T08:33:08Z</time></trkpt><trkpt lat="37.290714315381436" lon="13.600131479837996"><ele>111.0</ele><time>2026-03-25T08:33:09Z</time></trkpt><trkpt lat="37.29060574488898" lon="13.600146914443528"><ele>111.0</ele><time>2026-03-25T08:33:10Z</time></trkpt><trkpt lat="37.2904967760795" lon="13.600142049040628"><ele>111.0</ele><time>2026-03-25T08:33:11Z</time></trkpt><trkpt lat="37.290390179417976" lon="13.600117001629878"><ele>111.0</ele><time>2026-03-25T08:33:12Z</time></trkpt><trkpt lat="37.29028574215109" lon="13.600118691197927"><ele>111.0</ele><time>2026-03-25T08:33:13Z</time></trkpt><trkpt lat="37.29018826921305" lon="13.60014079419132"><ele>110.8</ele><time>2026-03-25T08:33:14Z</time></trkpt><trkpt lat="37.290100090753995" lon="13.600189644745294"><ele>110.6</ele><time>2026-03-25T08:33:15Z</time></trkpt><trkpt lat="37.290021610621736" lon="13.600268958823234"><ele>110.4</ele><time>2026-03-25T08:33:16Z</time></trkpt><trkpt lat="37.2899581964146" lon="13.600358513977392"><ele>110.2</ele><time>2026-03-25T08:33:17Z</time></trkpt><trkpt lat="37.28991949846411" lon="13.600465251353857"><ele>110.0</ele><time>2026-03-25T08:33:18Z</time></trkpt><trkpt lat="37.28987696939832" lon="13.600568434664925"><ele>110.0</ele><time>2026-03-25T08:33:19Z</time></trkpt><trkpt lat="37.289852102098045" lon="13.600682017666472"><ele>110.0</ele><time>2026-03-25T08:33:20Z</time></trkpt><trkpt lat="37.28984056652281" lon="13.600802011300862"><ele>110.0</ele><time>2026-03-25T08:33:21Z</time></trkpt><trkpt lat="37.28983860206192" lon="13.60092846564041"><ele>110.0</ele><time>2026-03-25T08:33:22Z</time></trkpt><trkpt lat="37.28984833662715" lon="13.601060942469687"><ele>110.0</ele><time>2026-03-25T08:33:23Z</time></trkpt><trkpt lat="37.289872061198864" lon="13.601193774202493"><ele>105.75</ele><time>2026-03-25T08:33:24Z</time></trkpt><trkpt lat="37.28991261797263" lon="13.601323810628319"><ele>101.5</ele><time>2026-03-25T08:33:25Z</time></trkpt><trkpt lat="37.28999072594361" lon="13.601439565924107"><ele>97.25</ele><time>2026-03-25T08:33:26Z</time></trkpt><trkpt lat="37.29008951391917" lon="13.601533565532634"><ele>93.0</ele><time>2026-03-25T08:33:27Z</time></trkpt><trkpt lat="37.29020620463225" lon="13.601613534911218"><ele>93.0</ele><time>2026-03-25T08:33:28Z</time></trkpt><trkpt lat="37.29033104353597" lon="13.601691925815853"><ele>93.0</ele><time>2026-03-25T08:33:29Z</time></trkpt><trkpt lat="37.290457439550366" lon="13.601775512799415"><ele>93.0</ele><time>2026-03-25T08:33:30Z</time></trkpt><trkpt lat="37.290587434046294" lon="13.601862308226465"><ele>93.0</ele><time>2026-03-25T08:33:31Z</time></trkpt><trkpt lat="37.29071967665674" lon="13.601949523514932"><ele>90.25</ele><time>2026-03-25T08:33:32Z</time></trkpt><trkpt lat="37.29084867457752" lon="13.602031973478798"><ele>87.5</ele><time>2026-03-25T08:33:33Z</time></trkpt><trkpt lat="37.29097489336518" lon="13.60211507613169"><ele>84.75</ele><time>2026-03-25T08:33:34Z</time></trkpt><trkpt lat="37.2911115847793" lon="13.602191320204975"><ele>82.0</ele><time>2026-03-25T08:33:35Z</time></trkpt><trkpt lat="37.29125576800195" lon="13.602261210054824"><ele>82.0</ele><time>2026-03-25T08:33:36Z</time></trkpt><trkpt lat="37.29139780853067" lon="13.602326892257468"><ele>82.0</ele><time>2026-03-25T08:33:37Z</time></trkpt><trkpt lat="37.29153423027777" lon="13.602386869245313"><ele>82.0</ele><time>2026-03-25T08:33:38Z</time></trkpt><trkpt lat="37.29166928061213" lon="13.602441678924516"><ele>82.0</ele><time>2026-03-25T08:33:39Z</time></trkpt><trkpt lat="37.291801545891715" lon="13.602489294782046"><ele>84.25</ele><time>2026-03-25T08:33:40Z</time></trkpt><trkpt lat="37.29193019354341" lon="13.602528211545398"><ele>86.5</ele><time>2026-03-25T08:33:41Z</time></trkpt><trkpt lat="37.29204968030728" lon="13.602560704728235"><ele>88.75</ele><time>2026-03-25T08:33:42Z</time></trkpt><trkpt lat="37.292159643695484" lon="13.602591475311625"><ele>91.0</ele><time>2026-03-25T08:33:43Z</time></trkpt><trkpt lat="37.29226041764577" lon="13.602620068044342"><ele>90.66666666666666</ele><time>2026-03-25T08:33:44Z</time></trkpt><trkpt lat="37.292353851539836" lon="13.602654708470123"><ele>90.33333333333333</ele><time>2026-03-25T08:33:45Z</time></trkpt><trkpt lat="37.292427477059306" lon="13.60270212177587"><ele>90.0</ele><time>2026-03-25T08:33:46Z</time></trkpt><trkpt lat="37.29248133610341" lon="13.602771929838418"><ele>89.66666666666667</ele><time>2026-03-25T08:33:47Z</time></trkpt><trkpt lat="37.29250844114157" lon="13.602871341774534"><ele>89.33333333333334</ele><time>2026-03-25T08:33:48Z</time></trkpt><trkpt lat="37.29249377552366" lon="13.602975226896444"><ele>89.0</ele><time>2026-03-25T08:33:49Z</time></trkpt><trkpt lat="37.29243329319652" lon="13.60306474997064"><ele>89.0</ele><time>2026-03-25T08:33:50Z</time></trkpt><trkpt lat="37.29235018626768" lon="13.603113350402284"><ele>89.0</ele><time>2026-03-25T08:33:51Z</time></trkpt><trkpt lat="37.29225892026869" lon="13.603075126292328"><ele>89.0</ele><time>2026-03-25T08:33:52Z</time></trkpt><trkpt lat="37.29218429631057" lon="13.60301292548564"><ele>89.0</ele><time>2026-03-25T08:33:53Z</time></trkpt><trkpt lat="37.29209530702854" lon="13.602925860152306"><ele>89.0</ele><time>2026-03-25T08:33:54Z</time></trkpt><trkpt lat="37.29199392761057" lon="13.602861656991411"><ele>89.4</ele><time>2026-03-25T08:33:55Z</time></trkpt><trkpt lat="37.291903769362044" lon="13.602771165347468"><ele>89.80000000000001</ele><time>2026-03-25T08:33:56Z</time></trkpt><trkpt lat="37.291797789856595" lon="13.602710569082172"><ele>90.19999999999999</ele><time>2026-03-25T08:33:57Z</time></trkpt><trkpt lat="37.29169429923152" lon="13.602666564756868"><ele>90.6</ele><time>2026-03-25T08:33:58Z</time></trkpt><trkpt lat="37.29159722037787" lon="13.602632235312633"><ele>91.0</ele><time>2026-03-25T08:33:59Z</time></trkpt><trkpt lat="37.29150075703108" lon="13.602601392377194"><ele>89.19999999999999</ele><time>2026-03-25T08:34:00Z</time></trkpt><trkpt lat="37.2913972962302" lon="13.602575767858198"><ele>87.39999999999999</ele><time>2026-03-25T08:34:01Z</time></trkpt><trkpt lat="37.291289206840325" lon="13.602559367761964"><ele>85.6</ele><time>2026-03-25T08:34:02Z</time></trkpt><trkpt lat="37.291181577975756" lon="13.602552011700228"><ele>83.8</ele><time>2026-03-25T08:34:03Z</time></trkpt><trkpt lat="37.29106878081689" lon="13.602549251239326"><ele>82.0</ele><time>2026-03-25T08:34:04Z</time></trkpt><trkpt lat="37.29095755629473" lon="13.602550821965565"><ele>82.0</ele><time>2026-03-25T08:34:05Z</time></trkpt><trkpt lat="37.29085838997117" lon="13.60255323538208"><ele>82.0</ele><time>2026-03-25T08:34:06Z</time></trkpt><trkpt lat="37.290761466529744" lon="13.602555536501418"><ele>82.0</ele><time>2026-03-25T08:34:07Z</time></trkpt><trkpt lat="37.29065803686535" lon="13.602555536499189"><ele>82.0</ele><time>2026-03-25T08:34:08Z</time></trkpt><trkpt lat="37.29054631906483" lon="13.60255230655699"><ele>82.0</ele><time>2026-03-25T08:34:09Z</time></trkpt><trkpt lat="37.290432191877414" lon="13.602531720076913"><ele>79.0</ele><time>2026-03-25T08:34:10Z</time></trkpt><trkpt lat="37.2903139998907" lon="13.602505095900536"><ele>76.0</ele><time>2026-03-25T08:34:11Z</time></trkpt><trkpt lat="37.29019408065805" lon="13.602467167893863"><ele>73.0</ele><time>2026-03-25T08:34:12Z</time></trkpt><trkpt lat="37.2900767319952" lon="13.602421211302937"><ele>70.0</ele><time>2026-03-25T08:34:13Z</time></trkpt><trkpt lat="37.28996643932965" lon="13.602375673792356"><ele>70.0</ele><time>2026-03-25T08:34:14Z</time></trkpt><trkpt lat="37.28986005543019" lon="13.60233377480933"><ele>70.0</ele><time>2026-03-25T08:34:15Z</time></trkpt><trkpt lat="37.289744951269796" lon="13.602298366100806"><ele>70.0</ele><time>2026-03-25T08:34:16Z</time></trkpt><trkpt lat="37.28961796189996" lon="13.602279111402304"><ele>70.0</ele><time>2026-03-25T08:34:17Z</time></trkpt><trkpt lat="37.28947938342305" lon="13.602289158659643"><ele>68.25</ele><time>2026-03-25T08:34:18Z</time></trkpt><trkpt lat="37.289325961821106" lon="13.602323502472569"><ele>66.5</ele><time>2026-03-25T08:34:19Z</time></trkpt><trkpt lat="37.289190478470154" lon="13.602349256751241"><ele>64.75</ele><time>2026-03-25T08:34:20Z</time></trkpt><trkpt lat="37.28906814996525" lon="13.602375241336649"><ele>63.0</ele><time>2026-03-25T08:34:21Z</time></trkpt><trkpt lat="37.28894980451424" lon="13.60239856076601"><ele>61.75</ele><time>2026-03-25T08:34:22Z</time></trkpt><trkpt lat="37.28881850192775" lon="13.602425947674776"><ele>60.5</ele><time>2026-03-25T08:34:23Z</time></trkpt><trkpt lat="37.28869315545285" lon="13.60245321162313"><ele>59.25</ele><time>2026-03-25T08:34:24Z</time></trkpt><trkpt lat="37.288571347807874" lon="13.602470984340263"><ele>58.0</ele><time>2026-03-25T08:34:25Z</time></trkpt><trkpt lat="37.28844195853859" lon="13.602460965637086"><ele>58.0</ele><time>2026-03-25T08:34:26Z</time></trkpt><trkpt lat="37.28831149928985" lon="13.602425549741058"><ele>58.0</ele><time>2026-03-25T08:34:27Z</time></trkpt><trkpt lat="37.28818215499098" lon="13.602339232617071"><ele>58.0</ele><time>2026-03-25T08:34:28Z</time></trkpt><trkpt lat="37.28802357838475" lon="13.602214022949498"><ele>57.666666666666664</ele><time>2026-03-25T08:34:29Z</time></trkpt><trkpt lat="37.28785539150465" lon="13.602082646022177"><ele>57.33333333333333</ele><time>2026-03-25T08:34:30Z</time></trkpt><trkpt lat="37.28766648908684" lon="13.601935087363646"><ele>57.0</ele><time>2026-03-25T08:34:31Z</time></trkpt><trkpt lat="37.287465127076736" lon="13.601776679233298"><ele>57.0</ele><time>2026-03-25T08:34:32Z</time></trkpt><trkpt lat="37.28727723024746" lon="13.601628515380067"><ele>57.0</ele><time>2026-03-25T08:34:33Z</time></trkpt><trkpt lat="37.286926846453895" lon="13.601372571912284"><ele>55.33333333333333</ele><time>2026-03-25T08:34:35Z</time></trkpt><trkpt lat="37.28675892223964" lon="13.601240383753346"><ele>53.666666666666664</ele><time>2026-03-25T08:34:36Z</time></trkpt><trkpt lat="37.286596492558104" lon="13.601113094944193"><ele>52.0</ele><time>2026-03-25T08:34:37Z</time></trkpt><trkpt lat="37.28644956464157" lon="13.600975636876477"><ele>48.666666666666664</ele><time>2026-03-25T08:34:38Z</time></trkpt><trkpt lat="37.286302204745176" lon="13.60085978912355"><ele>45.33333333333333</ele><time>2026-03-25T08:34:39Z</time></trkpt><trkpt lat="37.28616500915837" lon="13.600751932230745"><ele>42.0</ele><time>2026-03-25T08:34:40Z</time></trkpt><trkpt lat="37.28603384601683" lon="13.60064881780099"><ele>42.0</ele><time>2026-03-25T08:34:41Z</time></trkpt><trkpt lat="37.28590871114503" lon="13.600550668897952"><ele>42.0</ele><time>2026-03-25T08:34:42Z</time></trkpt><trkpt lat="37.28579522248471" lon="13.600461654695621"><ele>42.0</ele><time>2026-03-25T08:34:43Z</time></trkpt><trkpt lat="37.28569145349833" lon="13.600379263595139"><ele>42.0</ele><time>2026-03-25T08:34:44Z</time></trkpt><trkpt lat="37.285588524215584" lon="13.600316664646714"><ele>41.2</ele><time>2026-03-25T08:34:45Z</time></trkpt><trkpt lat="37.285504113892195" lon="13.60023575033138"><ele>40.400000000000006</ele><time>2026-03-25T08:34:46Z</time></trkpt><trkpt lat="37.285431418083604" lon="13.600146114370462"><ele>39.599999999999994</ele><time>2026-03-25T08:34:47Z</time></trkpt><trkpt lat="37.28537278307768" lon="13.600050785721763"><ele>38.8</ele><time>2026-03-25T08:34:48Z</time></trkpt><trkpt lat="37.28530939676525" lon="13.599974451746066"><ele>38.0</ele><time>2026-03-25T08:34:49Z</time></trkpt><trkpt lat="37.28523156999263" lon="13.599928426923066"><ele>38.0</ele><time>2026-03-25T08:34:50Z</time></trkpt><trkpt lat="37.28515166787348" lon="13.599920594000135"><ele>38.0</ele><time>2026-03-25T08:34:51Z</time></trkpt><trkpt lat="37.28508338269638" lon="13.599942102716021"><ele>38.0</ele><time>2026-03-25T08:34:52Z</time></trkpt><trkpt lat="37.2849868139549" lon="13.600059176339444"><ele>38.0</ele><time>2026-03-25T08:34:53.999Z</time></trkpt><trkpt lat="37.28495081197638" lon="13.600148786535751"><ele>38.0</ele><time>2026-03-25T08:34:54.999Z</time></trkpt><trkpt lat="37.284911664244696" lon="13.600253778400246"><ele>38.0</ele><time>2026-03-25T08:34:55.999Z</time></trkpt><trkpt lat="37.28486926094899" lon="13.60035903640954"><ele>38.0</ele><time>2026-03-25T08:34:56.999Z</time></trkpt><trkpt lat="37.28483029233879" lon="13.60044554575862"><ele>38.0</ele><time>2026-03-25T08:34:57.999Z</time></trkpt><trkpt lat="37.284773199714586" lon="13.600549037115474"><ele>38.0</ele><time>2026-03-25T08:34:58.999Z</time></trkpt><trkpt lat="37.28470156832134" lon="13.60069307777791"><ele>38.0</ele><time>2026-03-25T08:34:59.999Z</time></trkpt><trkpt lat="37.28462163066829" lon="13.600833525454481"><ele>37.75</ele><time>2026-03-25T08:35:00.999Z</time></trkpt><trkpt lat="37.28453598475095" lon="13.600972490769495"><ele>37.5</ele><time>2026-03-25T08:35:01.999Z</time></trkpt><trkpt lat="37.28446169937595" lon="13.601092433496493"><ele>37.25</ele><time>2026-03-25T08:35:02.999Z</time></trkpt><trkpt lat="37.28439315226763" lon="13.601201664673297"><ele>37.0</ele><time>2026-03-25T08:35:03.999Z</time></trkpt><trkpt lat="37.284331241114735" lon="13.601300601819041"><ele>37.8</ele><time>2026-03-25T08:35:04.999Z</time></trkpt><trkpt lat="37.28428158583318" lon="13.601385772687454"><ele>38.6</ele><time>2026-03-25T08:35:06Z</time></trkpt><trkpt lat="37.28423546276429" lon="13.60146382280798"><ele>39.4</ele><time>2026-03-25T08:35:07Z</time></trkpt><trkpt lat="37.28418614374715" lon="13.601552261524622"><ele>40.199999999999996</ele><time>2026-03-25T08:35:08Z</time></trkpt><trkpt lat="37.28413135293855" lon="13.601648000283516"><ele>41.0</ele><time>2026-03-25T08:35:09Z</time></trkpt><trkpt lat="37.284063777489486" lon="13.601757313678812"><ele>41.0</ele><time>2026-03-25T08:35:10Z</time></trkpt><trkpt lat="37.28398839755031" lon="13.601876790977107"><ele>41.0</ele><time>2026-03-25T08:35:11Z</time></trkpt><trkpt lat="37.28390591051537" lon="13.602007550866812"><ele>41.0</ele><time>2026-03-25T08:35:12Z</time></trkpt><trkpt lat="37.283819426329686" lon="13.602140144574944"><ele>41.0</ele><time>2026-03-25T08:35:13Z</time></trkpt><trkpt lat="37.283733899967615" lon="13.602271484741125"><ele>42.199999999999996</ele><time>2026-03-25T08:35:14Z</time></trkpt><trkpt lat="37.28365624820128" lon="13.602393018167275"><ele>43.4</ele><time>2026-03-25T08:35:15Z</time></trkpt><trkpt lat="37.28358364669714" lon="13.602503603595709"><ele>44.6</ele><time>2026-03-25T08:35:16Z</time></trkpt><trkpt lat="37.2835201804179" lon="13.602598509303371"><ele>45.8</ele><time>2026-03-25T08:35:17Z</time></trkpt><trkpt lat="37.28346202556593" lon="13.602687646674585"><ele>47.0</ele><time>2026-03-25T08:35:18Z</time></trkpt><trkpt lat="37.28339698642856" lon="13.602788906650295"><ele>47.400000000000006</ele><time>2026-03-25T08:35:19Z</time></trkpt><trkpt lat="37.28333230518188" lon="13.602895608293526"><ele>47.800000000000004</ele><time>2026-03-25T08:35:20Z</time></trkpt><trkpt lat="37.283266557773466" lon="13.602998911346196"><ele>48.2</ele><time>2026-03-25T08:35:21Z</time></trkpt><trkpt lat="37.28320907720139" lon="13.603090982630253"><ele>48.6</ele><time>2026-03-25T08:35:22Z</time></trkpt><trkpt lat="37.2831476614731" lon="13.603190546851106"><ele>49.0</ele><time>2026-03-25T08:35:23Z</time></trkpt><trkpt lat="37.283087317863874" lon="13.60329335663162"><ele>49.6</ele><time>2026-03-25T08:35:24Z</time></trkpt><trkpt lat="37.28302888335329" lon="13.603397891085896"><ele>50.2</ele><time>2026-03-25T08:35:25Z</time></trkpt><trkpt lat="37.282972322957264" lon="13.60350326554389"><ele>50.800000000000004</ele><time>2026-03-25T08:35:26Z</time></trkpt><trkpt lat="37.28292432518095" lon="13.603613780283109"><ele>51.400000000000006</ele><time>2026-03-25T08:35:27Z</time></trkpt><trkpt lat="37.28288608756786" lon="13.603725165678869"><ele>52.0</ele><time>2026-03-25T08:35:28Z</time></trkpt><trkpt lat="37.282859310468226" lon="13.60384208103923"><ele>52.400000000000006</ele><time>2026-03-25T08:35:29Z</time></trkpt><trkpt lat="37.28284250823992" lon="13.603966446168988"><ele>52.800000000000004</ele><time>2026-03-25T08:35:30Z</time></trkpt><trkpt lat="37.28283031418909" lon="13.604089793632"><ele>53.2</ele><time>2026-03-25T08:35:31Z</time></trkpt><trkpt lat="37.282818538837645" lon="13.604210950136538"><ele>53.6</ele><time>2026-03-25T08:35:32Z</time></trkpt><trkpt lat="37.28280792036957" lon="13.604333871857264"><ele>54.0</ele><time>2026-03-25T08:35:33Z</time></trkpt><trkpt lat="37.28279745266223" lon="13.60446088792561"><ele>54.6</ele><time>2026-03-25T08:35:34Z</time></trkpt><trkpt lat="37.2827870995032" lon="13.604589812189849"><ele>55.2</ele><time>2026-03-25T08:35:35Z</time></trkpt><trkpt lat="37.282778128951264" lon="13.604721585881574"><ele>55.800000000000004</ele><time>2026-03-25T08:35:36Z</time></trkpt><trkpt lat="37.282766145933735" lon="13.60485480390119"><ele>56.400000000000006</ele><time>2026-03-25T08:35:37Z</time></trkpt><trkpt lat="37.282754928532896" lon="13.604983846155815"><ele>57.0</ele><time>2026-03-25T08:35:38Z</time></trkpt><trkpt lat="37.28274295606506" lon="13.605119993687286"><ele>57.0</ele><time>2026-03-25T08:35:39Z</time></trkpt><trkpt lat="37.28272826085729" lon="13.60527642459169"><ele>57.0</ele><time>2026-03-25T08:35:40Z</time></trkpt><trkpt lat="37.28268534701438" lon="13.60547255370746"><ele>57.0</ele><time>2026-03-25T08:35:41Z</time></trkpt><trkpt lat="37.28263758269165" lon="13.605645164645585"><ele>57.0</ele><time>2026-03-25T08:35:42Z</time></trkpt><trkpt lat="37.282596503046584" lon="13.605791398664925"><ele>58.0</ele><time>2026-03-25T08:35:43Z</time></trkpt><trkpt lat="37.28255653179593" lon="13.605920438180197"><ele>59.0</ele><time>2026-03-25T08:35:44Z</time></trkpt><trkpt lat="37.282513453423775" lon="13.606031802557265"><ele>60.0</ele><time>2026-03-25T08:35:45Z</time></trkpt><trkpt lat="37.28245967278981" lon="13.606136627167057"><ele>61.0</ele><time>2026-03-25T08:35:46Z</time></trkpt><trkpt lat="37.2823925361978" lon="13.606235670120887"><ele>62.0</ele><time>2026-03-25T08:35:47Z</time></trkpt><trkpt lat="37.282313121778955" lon="13.606322543612023"><ele>64.33333333333334</ele><time>2026-03-25T08:35:48Z</time></trkpt><trkpt lat="37.282215710178825" lon="13.606426934511735"><ele>66.66666666666667</ele><time>2026-03-25T08:35:49Z</time></trkpt><trkpt lat="37.282089394945565" lon="13.606545621293549"><ele>69.0</ele><time>2026-03-25T08:35:50Z</time></trkpt><trkpt lat="37.28194310948208" lon="13.606659513159899"><ele>69.0</ele><time>2026-03-25T08:35:51Z</time></trkpt><trkpt lat="37.281806537112736" lon="13.606768192788712"><ele>69.0</ele><time>2026-03-25T08:35:52Z</time></trkpt><trkpt lat="37.28168862773308" lon="13.606871973158935"><ele>69.0</ele><time>2026-03-25T08:35:53Z</time></trkpt><trkpt lat="37.281574078953284" lon="13.606977092226291"><ele>69.0</ele><time>2026-03-25T08:35:54Z</time></trkpt><trkpt lat="37.2814671654027" lon="13.607074933841794"><ele>70.25</ele><time>2026-03-25T08:35:55Z</time></trkpt><trkpt lat="37.28136212636357" lon="13.60716866679948"><ele>71.5</ele><time>2026-03-25T08:35:56Z</time></trkpt><trkpt lat="37.281260562283016" lon="13.607253241039434"><ele>72.75</ele><time>2026-03-25T08:35:57Z</time></trkpt><trkpt lat="37.281151044854234" lon="13.607326745393637"><ele>74.0</ele><time>2026-03-25T08:35:58Z</time></trkpt><trkpt lat="37.28103431914327" lon="13.607387723001965"><ele>74.0</ele><time>2026-03-25T08:35:59Z</time></trkpt><trkpt lat="37.280908284323274" lon="13.607414552728171"><ele>74.0</ele><time>2026-03-25T08:36:00Z</time></trkpt><trkpt lat="37.28078717399434" lon="13.607453892909323"><ele>74.0</ele><time>2026-03-25T08:36:01Z</time></trkpt><trkpt lat="37.28067032830772" lon="13.607491484416153"><ele>74.0</ele><time>2026-03-25T08:36:02Z</time></trkpt><trkpt lat="37.28055939773304" lon="13.607547531794946"><ele>74.66666666666667</ele><time>2026-03-25T08:36:03Z</time></trkpt><trkpt lat="37.280446373758615" lon="13.607562374481153"><ele>75.33333333333334</ele><time>2026-03-25T08:36:04Z</time></trkpt><trkpt lat="37.28034945142964" lon="13.607592985100029"><ele>76.0</ele><time>2026-03-25T08:36:05Z</time></trkpt><trkpt lat="37.28026535361501" lon="13.607619545403102"><ele>76.66666666666667</ele><time>2026-03-25T08:36:06Z</time></trkpt><trkpt lat="37.280197627467864" lon="13.607640935098958"><ele>77.33333333333333</ele><time>2026-03-25T08:36:07Z</time></trkpt><trkpt lat="37.28013476006013" lon="13.60766079024652"><ele>78.0</ele><time>2026-03-25T08:36:08Z</time></trkpt><trkpt lat="37.280072599468724" lon="13.607680245932809"><ele>78.0</ele><time>2026-03-25T08:36:09Z</time></trkpt><trkpt lat="37.2800072733738" lon="13.607705047748508"><ele>78.0</ele><time>2026-03-25T08:36:10Z</time></trkpt><trkpt lat="37.27992395150306" lon="13.607740885761302"><ele>78.0</ele><time>2026-03-25T08:36:11Z</time></trkpt><trkpt lat="37.279847486739506" lon="13.607779401733719"><ele>78.0</ele><time>2026-03-25T08:36:12Z</time></trkpt><trkpt lat="37.27978301780989" lon="13.607813991263457"><ele>78.0</ele><time>2026-03-25T08:36:13Z</time></trkpt><trkpt lat="37.27969275159558" lon="13.607869447878203"><ele>78.0</ele><time>2026-03-25T08:36:15Z</time></trkpt><trkpt lat="37.279622203524745" lon="13.607915501001187"><ele>77.5</ele><time>2026-03-25T08:36:18Z</time></trkpt><trkpt lat="37.27952271205513" lon="13.607924148819635"><ele>77.0</ele><time>2026-03-25T08:36:19Z</time></trkpt><trkpt lat="37.27948302445269" lon="13.608091929160258"><ele>76.5</ele><time>2026-03-25T08:36:20Z</time></trkpt><trkpt lat="37.27939212694941" lon="13.608196520553442"><ele>76.0</ele><time>2026-03-25T08:36:21Z</time></trkpt><trkpt lat="37.27929405234881" lon="13.608314328907698"><ele>76.0</ele><time>2026-03-25T08:36:22Z</time></trkpt><trkpt lat="37.27919108279135" lon="13.6084385693475"><ele>76.0</ele><time>2026-03-25T08:36:23Z</time></trkpt><trkpt lat="37.27908226578103" lon="13.608569475966107"><ele>76.0</ele><time>2026-03-25T08:36:24Z</time></trkpt><trkpt lat="37.27897022440566" lon="13.608704439923567"><ele>76.0</ele><time>2026-03-25T08:36:25Z</time></trkpt><trkpt lat="37.27885814339658" lon="13.608838023151428"><ele>76.0</ele><time>2026-03-25T08:36:26Z</time></trkpt><trkpt lat="37.2787487777827" lon="13.608968873223626"><ele>76.0</ele><time>2026-03-25T08:36:27Z</time></trkpt><trkpt lat="37.27864489305923" lon="13.609100995801157"><ele>76.0</ele><time>2026-03-25T08:36:28Z</time></trkpt><trkpt lat="37.2785440135939" lon="13.609229407476953"><ele>76.0</ele><time>2026-03-25T08:36:29Z</time></trkpt><trkpt lat="37.278441511825015" lon="13.6093586340329"><ele>76.0</ele><time>2026-03-25T08:36:30Z</time></trkpt><trkpt lat="37.27834090248526" lon="13.60948621003293"><ele>76.0</ele><time>2026-03-25T08:36:31Z</time></trkpt><trkpt lat="37.27824190198992" lon="13.609609334724324"><ele>76.0</ele><time>2026-03-25T08:36:32Z</time></trkpt><trkpt lat="37.278146414096895" lon="13.609727371917693"><ele>76.0</ele><time>2026-03-25T08:36:33Z</time></trkpt><trkpt lat="37.27805385413565" lon="13.60984270402604"><ele>76.0</ele><time>2026-03-25T08:36:34Z</time></trkpt><trkpt lat="37.27796671985772" lon="13.609955718927747"><ele>76.0</ele><time>2026-03-25T08:36:35Z</time></trkpt><trkpt lat="37.277885636426475" lon="13.610060404392941"><ele>76.0</ele><time>2026-03-25T08:36:36Z</time></trkpt><trkpt lat="37.2778097081803" lon="13.610155472455107"><ele>76.0</ele><time>2026-03-25T08:36:37Z</time></trkpt><trkpt lat="37.277740150871175" lon="13.610241976340683"><ele>76.0</ele><time>2026-03-25T08:36:38Z</time></trkpt><trkpt lat="37.27767596103238" lon="13.610319714778655"><ele>75.8</ele><time>2026-03-25T08:36:39Z</time></trkpt><trkpt lat="37.27761797653374" lon="13.610391313658617"><ele>75.6</ele><time>2026-03-25T08:36:40Z</time></trkpt><trkpt lat="37.277555408657264" lon="13.610439645870757"><ele>75.4</ele><time>2026-03-25T08:36:41Z</time></trkpt><trkpt lat="37.277479329375005" lon="13.610527274205827"><ele>75.2</ele><time>2026-03-25T08:36:43Z</time></trkpt><trkpt lat="37.277430481073175" lon="13.610582598380384"><ele>75.0</ele><time>2026-03-25T08:36:49Z</time></trkpt><trkpt lat="37.27742247120807" lon="13.610864794001726"><ele>75.0</ele><time>2026-03-25T08:36:53Z</time></trkpt><trkpt lat="37.27745787263441" lon="13.61093221501047"><ele>75.0</ele><time>2026-03-25T08:36:55Z</time></trkpt><trkpt lat="37.27741322167526" lon="13.610848007751683"><ele>75.0</ele><time>2026-03-25T08:39:50Z</time></trkpt><trkpt lat="37.2773681188626" lon="13.610766156550111"><ele>75.0</ele><time>2026-03-25T08:39:53Z</time></trkpt><trkpt lat="37.27728942018074" lon="13.610777640618684"><ele>75.0</ele><time>2026-03-25T08:40:03Z</time></trkpt><trkpt lat="37.27722488166011" lon="13.6108054585702"><ele>75.0</ele><time>2026-03-25T08:40:05Z</time></trkpt><trkpt lat="37.27716217949263" lon="13.610872810591504"><ele>74.5</ele><time>2026-03-25T08:40:07Z</time></trkpt><trkpt lat="37.277098833162384" lon="13.61094015408755"><ele>74.0</ele><time>2026-03-25T08:40:08Z</time></trkpt><trkpt lat="37.27703133373606" lon="13.611010440069816"><ele>73.5</ele><time>2026-03-25T08:40:09Z</time></trkpt><trkpt lat="37.27696304487801" lon="13.61108154791657"><ele>73.0</ele><time>2026-03-25T08:40:10Z</time></trkpt><trkpt lat="37.276903825318996" lon="13.611141656677404"><ele>72.5</ele><time>2026-03-25T08:40:11Z</time></trkpt><trkpt lat="37.27685139697541" lon="13.611194745075125"><ele>72.0</ele><time>2026-03-25T08:40:12Z</time></trkpt><trkpt lat="37.27676542015051" lon="13.611279405211052"><ele>72.0</ele><time>2026-03-25T08:40:14Z</time></trkpt><trkpt lat="37.27669948610279" lon="13.611342995852832"><ele>72.0</ele><time>2026-03-25T08:40:16Z</time></trkpt><trkpt lat="37.276632014394664" lon="13.611408067017512"><ele>72.0</ele><time>2026-03-25T08:40:18Z</time></trkpt><trkpt lat="37.27655639744179" lon="13.611485427121778"><ele>72.0</ele><time>2026-03-25T08:40:20Z</time></trkpt><trkpt lat="37.276487336012906" lon="13.611554297500712"><ele>72.0</ele><time>2026-03-25T08:40:22Z</time></trkpt><trkpt lat="37.27640602002428" lon="13.611661569722504"><ele>71.25</ele><time>2026-03-25T08:40:24Z</time></trkpt><trkpt lat="37.27630182460654" lon="13.611738516615445"><ele>70.5</ele><time>2026-03-25T08:40:26Z</time></trkpt><trkpt lat="37.27622302308826" lon="13.611843013423183"><ele>69.75</ele><time>2026-03-25T08:40:28Z</time></trkpt><trkpt lat="37.276134767756076" lon="13.611932395614181"><ele>69.0</ele><time>2026-03-25T08:40:30Z</time></trkpt><trkpt lat="37.27603740532944" lon="13.61200431089546"><ele>69.0</ele><time>2026-03-25T08:40:32Z</time></trkpt><trkpt lat="37.275951626507435" lon="13.61208818401"><ele>69.0</ele><time>2026-03-25T08:40:34Z</time></trkpt><trkpt lat="37.275864339876925" lon="13.612172914168235"><ele>69.0</ele><time>2026-03-25T08:40:36Z</time></trkpt><trkpt lat="37.27577147527725" lon="13.6122642776037"><ele>69.0</ele><time>2026-03-25T08:40:38Z</time></trkpt><trkpt lat="37.275719512922095" lon="13.612316594565435"><ele>69.0</ele><time>2026-03-25T08:40:39Z</time></trkpt><trkpt lat="37.275659780227656" lon="13.612376734879302"><ele>68.8</ele><time>2026-03-25T08:40:40Z</time></trkpt><trkpt lat="37.27556844312016" lon="13.612468695232858"><ele>68.60000000000001</ele><time>2026-03-25T08:40:41Z</time></trkpt><trkpt lat="37.275485400594654" lon="13.612552304455074"><ele>68.4</ele><time>2026-03-25T08:40:42Z</time></trkpt><trkpt lat="37.275413365401825" lon="13.612624831633218"><ele>68.2</ele><time>2026-03-25T08:40:43Z</time></trkpt><trkpt lat="37.275338024543906" lon="13.61269848983071"><ele>68.0</ele><time>2026-03-25T08:40:44Z</time></trkpt><trkpt lat="37.27526693227174" lon="13.612770513921907"><ele>67.6</ele><time>2026-03-25T08:40:45Z</time></trkpt><trkpt lat="37.27520072132158" lon="13.612837217729048"><ele>67.19999999999999</ele><time>2026-03-25T08:40:46Z</time></trkpt><trkpt lat="37.27514053344686" lon="13.612900251606035"><ele>66.8</ele><time>2026-03-25T08:40:47Z</time></trkpt><trkpt lat="37.2750812222328" lon="13.612961806893319"><ele>66.39999999999999</ele><time>2026-03-25T08:40:48Z</time></trkpt><trkpt lat="37.27500933764682" lon="13.613039571046604"><ele>66.0</ele><time>2026-03-25T08:40:49Z</time></trkpt><trkpt lat="37.27492054254817" lon="13.613141597547214"><ele>66.0</ele><time>2026-03-25T08:40:50Z</time></trkpt><trkpt lat="37.274823062802874" lon="13.61325835450535"><ele>66.0</ele><time>2026-03-25T08:40:51.001Z</time></trkpt><trkpt lat="37.274709407838166" lon="13.613397996750358"><ele>66.0</ele><time>2026-03-25T08:40:52.001Z</time></trkpt><trkpt lat="37.274610804121416" lon="13.61352080404929"><ele>66.0</ele><time>2026-03-25T08:40:53.001Z</time></trkpt><trkpt lat="37.27453663276364" lon="13.613613487917124"><ele>65.6</ele><time>2026-03-25T08:40:54.001Z</time></trkpt><trkpt lat="37.27447137239398" lon="13.61369503796386"><ele>65.19999999999999</ele><time>2026-03-25T08:40:55.001Z</time></trkpt><trkpt lat="37.27441263029542" lon="13.613767895869026"><ele>64.80000000000001</ele><time>2026-03-25T08:40:56.001Z</time></trkpt><trkpt lat="37.27434242872863" lon="13.613852211183774"><ele>64.4</ele><time>2026-03-25T08:40:58.001Z</time></trkpt><trkpt lat="37.27428786912536" lon="13.613915173217817"><ele>64.0</ele><time>2026-03-25T08:40:59.001Z</time></trkpt><trkpt lat="37.27420992194097" lon="13.614022920508914"><ele>64.0</ele><time>2026-03-25T08:41:00.001Z</time></trkpt><trkpt lat="37.274127880451296" lon="13.614142435288727"><ele>64.0</ele><time>2026-03-25T08:41:01.001Z</time></trkpt><trkpt lat="37.27405918062375" lon="13.614234538524048"><ele>64.0</ele><time>2026-03-25T08:41:02.001Z</time></trkpt><trkpt lat="37.27399526054723" lon="13.614314693251275"><ele>64.0</ele><time>2026-03-25T08:41:03.001Z</time></trkpt><trkpt lat="37.27393531667278" lon="13.614386173032917"><ele>64.0</ele><time>2026-03-25T08:41:04.001Z</time></trkpt><trkpt lat="37.2738732920177" lon="13.614464118786856"><ele>64.16666666666666</ele><time>2026-03-25T08:41:05.001Z</time></trkpt><trkpt lat="37.27381430700765" lon="13.614537576733847"><ele>64.33333333333333</ele><time>2026-03-25T08:41:06.001Z</time></trkpt><trkpt lat="37.27375215275258" lon="13.614580920409681"><ele>64.5</ele><time>2026-03-25T08:41:07.001Z</time></trkpt><trkpt lat="37.2737085617612" lon="13.614659298371295"><ele>64.66666666666667</ele><time>2026-03-25T08:41:08.001Z</time></trkpt><trkpt lat="37.273636149357365" lon="13.614719567363576"><ele>64.83333333333334</ele><time>2026-03-25T08:41:09.001Z</time></trkpt><trkpt lat="37.27357071606899" lon="13.614797775063941"><ele>65.0</ele><time>2026-03-25T08:41:10.001Z</time></trkpt><trkpt lat="37.27350722215935" lon="13.61487476467497"><ele>65.0</ele><time>2026-03-25T08:41:11Z</time></trkpt><trkpt lat="37.273447117418684" lon="13.614947133783934"><ele>65.0</ele><time>2026-03-25T08:41:12Z</time></trkpt><trkpt lat="37.27338901258662" lon="13.615014671386046"><ele>65.0</ele><time>2026-03-25T08:41:13Z</time></trkpt><trkpt lat="37.273331301751824" lon="13.61508170846151"><ele>65.0</ele><time>2026-03-25T08:41:14Z</time></trkpt><trkpt lat="37.273270029038365" lon="13.615154457532888"><ele>65.0</ele><time>2026-03-25T08:41:15Z</time></trkpt><trkpt lat="37.2732061556025" lon="13.615229691513514"><ele>65.0</ele><time>2026-03-25T08:41:16Z</time></trkpt><trkpt lat="37.273140709422016" lon="13.615306779125772"><ele>64.4</ele><time>2026-03-25T08:41:17Z</time></trkpt><trkpt lat="37.27307513620745" lon="13.615383822738561"><ele>63.8</ele><time>2026-03-25T08:41:18Z</time></trkpt><trkpt lat="37.27301097898303" lon="13.615459274684056"><ele>63.2</ele><time>2026-03-25T08:41:19Z</time></trkpt><trkpt lat="37.272947606657375" lon="13.615537387932529"><ele>62.6</ele><time>2026-03-25T08:41:20Z</time></trkpt><trkpt lat="37.2728821601555" lon="13.615617185713273"><ele>62.0</ele><time>2026-03-25T08:41:21Z</time></trkpt><trkpt lat="37.272835815297874" lon="13.615720905814536"><ele>62.00000000000001</ele><time>2026-03-25T08:41:22Z</time></trkpt><trkpt lat="37.272768952080284" lon="13.615805162026513"><ele>62.0</ele><time>2026-03-25T08:41:23Z</time></trkpt><trkpt lat="37.2727033107423" lon="13.615886876313745"><ele>62.0</ele><time>2026-03-25T08:41:24Z</time></trkpt><trkpt lat="37.27264046079838" lon="13.61597079028492"><ele>62.0</ele><time>2026-03-25T08:41:25Z</time></trkpt><trkpt lat="37.27258444878747" lon="13.616051767125148"><ele>62.00000000000001</ele><time>2026-03-25T08:41:26Z</time></trkpt><trkpt lat="37.272536682623226" lon="13.616132463987196"><ele>62.0</ele><time>2026-03-25T08:41:27Z</time></trkpt><trkpt lat="37.27249510552573" lon="13.616210652577015"><ele>62.16666666666667</ele><time>2026-03-25T08:41:28Z</time></trkpt><trkpt lat="37.2724612584538" lon="13.616279768938641"><ele>62.333333333333336</ele><time>2026-03-25T08:41:29Z</time></trkpt><trkpt lat="37.27241161231101" lon="13.61640711233706"><ele>62.5</ele><time>2026-03-25T08:41:31Z</time></trkpt><trkpt lat="37.2723767098043" lon="13.616512682018472"><ele>62.66666666666667</ele><time>2026-03-25T08:41:33Z</time></trkpt><trkpt lat="37.272319276952736" lon="13.616631321242508"><ele>62.833333333333336</ele><time>2026-03-25T08:41:35Z</time></trkpt><trkpt lat="37.27229368144833" lon="13.61671107923414"><ele>63.0</ele><time>2026-03-25T08:41:36Z</time></trkpt><trkpt lat="37.2722687096349" lon="13.616788891526996"><ele>63.0</ele><time>2026-03-25T08:41:37Z</time></trkpt><trkpt lat="37.27224355573004" lon="13.616876219181325"><ele>63.0</ele><time>2026-03-25T08:41:38Z</time></trkpt><trkpt lat="37.27222860396704" lon="13.616974383925848"><ele>63.0</ele><time>2026-03-25T08:41:39Z</time></trkpt><trkpt lat="37.27219859534252" lon="13.617072036217941"><ele>63.0</ele><time>2026-03-25T08:41:40Z</time></trkpt><trkpt lat="37.272168092181225" lon="13.617174057257039"><ele>63.0</ele><time>2026-03-25T08:41:41Z</time></trkpt><trkpt lat="37.27213687692196" lon="13.6172747070256"><ele>63.0</ele><time>2026-03-25T08:41:42Z</time></trkpt><trkpt lat="37.272107061239915" lon="13.617366431214132"><ele>63.166666666666664</ele><time>2026-03-25T08:41:43Z</time></trkpt><trkpt lat="37.27208104211416" lon="13.617453460308427"><ele>63.33333333333333</ele><time>2026-03-25T08:41:44Z</time></trkpt><trkpt lat="37.272055501211035" lon="13.61754201912214"><ele>63.5</ele><time>2026-03-25T08:41:45Z</time></trkpt><trkpt lat="37.27202835308486" lon="13.617629695599149"><ele>63.666666666666664</ele><time>2026-03-25T08:41:46Z</time></trkpt><trkpt lat="37.27199971855852" lon="13.617718675812045"><ele>63.83333333333333</ele><time>2026-03-25T08:41:47Z</time></trkpt><trkpt lat="37.271971919106385" lon="13.617806457765383"><ele>64.0</ele><time>2026-03-25T08:41:48Z</time></trkpt><trkpt lat="37.27194478498741" lon="13.61789530628339"><ele>63.99999999999999</ele><time>2026-03-25T08:41:49Z</time></trkpt><trkpt lat="37.271918853164074" lon="13.61798263493555"><ele>64.0</ele><time>2026-03-25T08:41:50Z</time></trkpt><trkpt lat="37.27189372060774" lon="13.618068175901977"><ele>64.0</ele><time>2026-03-25T08:41:51Z</time></trkpt><trkpt lat="37.27186854534298" lon="13.618154644500084"><ele>64.0</ele><time>2026-03-25T08:41:52Z</time></trkpt><trkpt lat="37.271826441514726" lon="13.618235565725053"><ele>63.99999999999999</ele><time>2026-03-25T08:41:53Z</time></trkpt><trkpt lat="37.271798658174305" lon="13.618325192417585"><ele>64.0</ele><time>2026-03-25T08:41:54Z</time></trkpt><trkpt lat="37.2717693194757" lon="13.618419836033535"><ele>63.99999999999999</ele><time>2026-03-25T08:41:55Z</time></trkpt><trkpt lat="37.27173854558832" lon="13.618518237477854"><ele>64.0</ele><time>2026-03-25T08:41:56Z</time></trkpt><trkpt lat="37.271707159730326" lon="13.618618650897707"><ele>64.0</ele><time>2026-03-25T08:41:57Z</time></trkpt><trkpt lat="37.27169089300679" lon="13.618725177646724"><ele>64.0</ele><time>2026-03-25T08:41:58Z</time></trkpt><trkpt lat="37.27165893094927" lon="13.618822247645445"><ele>63.99999999999999</ele><time>2026-03-25T08:41:59Z</time></trkpt><trkpt lat="37.27162765982962" lon="13.61891537787003"><ele>64.0</ele><time>2026-03-25T08:42:00Z</time></trkpt><trkpt lat="37.27159487814907" lon="13.619005227422607"><ele>64.16666666666666</ele><time>2026-03-25T08:42:01Z</time></trkpt><trkpt lat="37.27156169289875" lon="13.619091776223918"><ele>64.33333333333333</ele><time>2026-03-25T08:42:02Z</time></trkpt><trkpt lat="37.27152825672734" lon="13.619181044758314"><ele>64.5</ele><time>2026-03-25T08:42:03Z</time></trkpt><trkpt lat="37.27149848184263" lon="13.619272000030518"><ele>64.66666666666667</ele><time>2026-03-25T08:42:04Z</time></trkpt><trkpt lat="37.27147124511365" lon="13.61936202760965"><ele>64.83333333333334</ele><time>2026-03-25T08:42:05Z</time></trkpt><trkpt lat="37.27144212491582" lon="13.619459005076278"><ele>65.0</ele><time>2026-03-25T08:42:06Z</time></trkpt><trkpt lat="37.271412229902275" lon="13.619560290384157"><ele>65.33333333333334</ele><time>2026-03-25T08:42:07Z</time></trkpt><trkpt lat="37.2713834069026" lon="13.61965844297209"><ele>65.66666666666667</ele><time>2026-03-25T08:42:08Z</time></trkpt><trkpt lat="37.27135473964683" lon="13.619753344587567"><ele>66.0</ele><time>2026-03-25T08:42:09Z</time></trkpt><trkpt lat="37.27132535493959" lon="13.619844857891684"><ele>66.33333333333333</ele><time>2026-03-25T08:42:10Z</time></trkpt><trkpt lat="37.2712960771417" lon="13.619932759426845"><ele>66.66666666666666</ele><time>2026-03-25T08:42:11Z</time></trkpt><trkpt lat="37.27126777923619" lon="13.620021862768121"><ele>67.0</ele><time>2026-03-25T08:42:12Z</time></trkpt><trkpt lat="37.27124020531312" lon="13.620110624040224"><ele>67.0</ele><time>2026-03-25T08:42:13Z</time></trkpt><trkpt lat="37.27121412290775" lon="13.620199444759887"><ele>67.0</ele><time>2026-03-25T08:42:14Z</time></trkpt><trkpt lat="37.271188946267536" lon="13.620287045177554"><ele>67.0</ele><time>2026-03-25T08:42:15Z</time></trkpt><trkpt lat="37.2711638124871" lon="13.620374184081202"><ele>67.0</ele><time>2026-03-25T08:42:16Z</time></trkpt><trkpt lat="37.27113646743638" lon="13.620464470318518"><ele>67.0</ele><time>2026-03-25T08:42:17Z</time></trkpt><trkpt lat="37.27110859176707" lon="13.620553491507454"><ele>67.0</ele><time>2026-03-25T08:42:18Z</time></trkpt><trkpt lat="37.27107973029727" lon="13.620649750273051"><ele>67.0</ele><time>2026-03-25T08:42:19Z</time></trkpt><trkpt lat="37.27104928020415" lon="13.620753356622739"><ele>67.0</ele><time>2026-03-25T08:42:20Z</time></trkpt><trkpt lat="37.27101663139195" lon="13.620860496282384"><ele>67.0</ele><time>2026-03-25T08:42:21Z</time></trkpt><trkpt lat="37.27098353798938" lon="13.620971355067597"><ele>67.0</ele><time>2026-03-25T08:42:22Z</time></trkpt><trkpt lat="37.270950577606214" lon="13.621087173657347"><ele>67.0</ele><time>2026-03-25T08:42:23Z</time></trkpt><trkpt lat="37.27090065380598" lon="13.621193290794482"><ele>67.0</ele><time>2026-03-25T08:42:24Z</time></trkpt><trkpt lat="37.270866180444536" lon="13.621307773844547"><ele>67.0</ele><time>2026-03-25T08:42:25.001Z</time></trkpt><trkpt lat="37.270832131191206" lon="13.621420849281977"><ele>67.0</ele><time>2026-03-25T08:42:26.001Z</time></trkpt><trkpt lat="37.2707993780041" lon="13.62153279073965"><ele>67.0</ele><time>2026-03-25T08:42:27.001Z</time></trkpt><trkpt lat="37.270782219482065" lon="13.621648872723679"><ele>67.0</ele><time>2026-03-25T08:42:28.001Z</time></trkpt><trkpt lat="37.270747933765165" lon="13.621753950358332"><ele>67.0</ele><time>2026-03-25T08:42:29.001Z</time></trkpt><trkpt lat="37.270716250892335" lon="13.621860021350711"><ele>67.0</ele><time>2026-03-25T08:42:30.001Z</time></trkpt><trkpt lat="37.2706875689622" lon="13.621969207085575"><ele>67.0</ele><time>2026-03-25T08:42:31.001Z</time></trkpt><trkpt lat="37.27064592579574" lon="13.622074134133822"><ele>67.0</ele><time>2026-03-25T08:42:32.001Z</time></trkpt><trkpt lat="37.270639847884325" lon="13.622194587646534"><ele>67.0</ele><time>2026-03-25T08:42:33.001Z</time></trkpt><trkpt lat="37.27061640158152" lon="13.622304994412229"><ele>67.0</ele><time>2026-03-25T08:42:34.001Z</time></trkpt><trkpt lat="37.27057953573684" lon="13.62241032305289"><ele>67.0</ele><time>2026-03-25T08:42:35.001Z</time></trkpt><trkpt lat="37.27057846893336" lon="13.622529159611211"><ele>67.0</ele><time>2026-03-25T08:42:36.001Z</time></trkpt><trkpt lat="37.27056480268011" lon="13.62264108433013"><ele>67.0</ele><time>2026-03-25T08:42:37.001Z</time></trkpt><trkpt lat="37.270553442547175" lon="13.622754329963936"><ele>67.0</ele><time>2026-03-25T08:42:38.001Z</time></trkpt><trkpt lat="37.270543969229095" lon="13.622865820157628"><ele>67.6</ele><time>2026-03-25T08:42:39.001Z</time></trkpt><trkpt lat="37.27053567097707" lon="13.622977746429642"><ele>68.2</ele><time>2026-03-25T08:42:40.001Z</time></trkpt><trkpt lat="37.27052850771439" lon="13.623091179238997"><ele>68.8</ele><time>2026-03-25T08:42:41.001Z</time></trkpt><trkpt lat="37.270525708854436" lon="13.62321363186787"><ele>69.4</ele><time>2026-03-25T08:42:42.001Z</time></trkpt><trkpt lat="37.27052442094079" lon="13.623340249691989"><ele>70.0</ele><time>2026-03-25T08:42:43.001Z</time></trkpt><trkpt lat="37.270525568769024" lon="13.623467344214363"><ele>70.0</ele><time>2026-03-25T08:42:44.001Z</time></trkpt><trkpt lat="37.270529608560956" lon="13.623593562941927"><ele>70.0</ele><time>2026-03-25T08:42:45.001Z</time></trkpt><trkpt lat="37.27053679278301" lon="13.623721278522153"><ele>70.0</ele><time>2026-03-25T08:42:46.001Z</time></trkpt><trkpt lat="37.27054646977237" lon="13.62384934333413"><ele>70.0</ele><time>2026-03-25T08:42:47.001Z</time></trkpt><trkpt lat="37.27055409466659" lon="13.623978783725528"><ele>70.0</ele><time>2026-03-25T08:42:48.001Z</time></trkpt><trkpt lat="37.270570239368276" lon="13.62410628892271"><ele>70.0</ele><time>2026-03-25T08:42:49.001Z</time></trkpt><trkpt lat="37.270593218664054" lon="13.624245634477587"><ele>70.0</ele><time>2026-03-25T08:42:50.001Z</time></trkpt><trkpt lat="37.27061323762619" lon="13.62438183175722"><ele>70.0</ele><time>2026-03-25T08:42:51.001Z</time></trkpt><trkpt lat="37.270638515878986" lon="13.624513864937315"><ele>70.0</ele><time>2026-03-25T08:42:52.001Z</time></trkpt><trkpt lat="37.270667225305004" lon="13.624646623334545"><ele>70.0</ele><time>2026-03-25T08:42:53.001Z</time></trkpt><trkpt lat="37.27069915451029" lon="13.624777426205263"><ele>70.0</ele><time>2026-03-25T08:42:54.001Z</time></trkpt><trkpt lat="37.27073289795531" lon="13.624908399959065"><ele>70.0</ele><time>2026-03-25T08:42:55.001Z</time></trkpt><trkpt lat="37.270771003543146" lon="13.625038823177677"><ele>70.0</ele><time>2026-03-25T08:42:56.001Z</time></trkpt><trkpt lat="37.27081345314724" lon="13.625170702287752"><ele>70.0</ele><time>2026-03-25T08:42:57.001Z</time></trkpt><trkpt lat="37.27085542161224" lon="13.62530037601626"><ele>70.0</ele><time>2026-03-25T08:42:58.001Z</time></trkpt><trkpt lat="37.27089635943702" lon="13.625428209627616"><ele>69.6</ele><time>2026-03-25T08:42:59.001Z</time></trkpt><trkpt lat="37.27093648031324" lon="13.625555103865281"><ele>69.2</ele><time>2026-03-25T08:43:00.001Z</time></trkpt><trkpt lat="37.2709787095507" lon="13.625681218239022"><ele>68.8</ele><time>2026-03-25T08:43:01.001Z</time></trkpt><trkpt lat="37.27102181924784" lon="13.625807898525593"><ele>68.4</ele><time>2026-03-25T08:43:02.001Z</time></trkpt><trkpt lat="37.271067000510264" lon="13.6259326077491"><ele>68.0</ele><time>2026-03-25T08:43:03.001Z</time></trkpt><trkpt lat="37.27111288802039" lon="13.626058516956892"><ele>67.4</ele><time>2026-03-25T08:43:04.001Z</time></trkpt><trkpt lat="37.27115786630406" lon="13.626184975755171"><ele>66.8</ele><time>2026-03-25T08:43:05.001Z</time></trkpt><trkpt lat="37.271202105415085" lon="13.626314329063408"><ele>66.2</ele><time>2026-03-25T08:43:06.001Z</time></trkpt><trkpt lat="37.27124368304602" lon="13.626444912666756"><ele>65.6</ele><time>2026-03-25T08:43:07.001Z</time></trkpt><trkpt lat="37.271285474312755" lon="13.626579723306646"><ele>65.0</ele><time>2026-03-25T08:43:08.001Z</time></trkpt><trkpt lat="37.27133125031479" lon="13.626724861974205"><ele>65.0</ele><time>2026-03-25T08:43:09.001Z</time></trkpt><trkpt lat="37.27137826716476" lon="13.62686909165522"><ele>65.0</ele><time>2026-03-25T08:43:10.001Z</time></trkpt><trkpt lat="37.271424731872" lon="13.62701219292877"><ele>65.0</ele><time>2026-03-25T08:43:11.001Z</time></trkpt><trkpt lat="37.27147102104636" lon="13.627148420083671"><ele>65.0</ele><time>2026-03-25T08:43:12.001Z</time></trkpt><trkpt lat="37.27151838481471" lon="13.627284424269005"><ele>65.75</ele><time>2026-03-25T08:43:13.001Z</time></trkpt><trkpt lat="37.27156619137682" lon="13.627418971671782"><ele>66.5</ele><time>2026-03-25T08:43:14.001Z</time></trkpt><trkpt lat="37.27161531875157" lon="13.6275510034488"><ele>67.25</ele><time>2026-03-25T08:43:15.001Z</time></trkpt><trkpt lat="37.27166196522848" lon="13.627681401402294"><ele>68.0</ele><time>2026-03-25T08:43:16.001Z</time></trkpt><trkpt lat="37.271707376498746" lon="13.62781311964856"><ele>68.0</ele><time>2026-03-25T08:43:17Z</time></trkpt><trkpt lat="37.27175612473074" lon="13.627951029717938"><ele>68.0</ele><time>2026-03-25T08:43:18Z</time></trkpt><trkpt lat="37.271805555692914" lon="13.628092682472811"><ele>68.0</ele><time>2026-03-25T08:43:19Z</time></trkpt><trkpt lat="37.271852057706624" lon="13.628232620800368"><ele>68.0</ele><time>2026-03-25T08:43:20Z</time></trkpt><trkpt lat="37.27190048807058" lon="13.628374673332344"><ele>68.0</ele><time>2026-03-25T08:43:21Z</time></trkpt><trkpt lat="37.27194758247009" lon="13.628520471250495"><ele>68.0</ele><time>2026-03-25T08:43:22Z</time></trkpt><trkpt lat="37.27199699882332" lon="13.628665311630918"><ele>68.0</ele><time>2026-03-25T08:43:23Z</time></trkpt><trkpt lat="37.27204609051724" lon="13.62881077804944"><ele>68.0</ele><time>2026-03-25T08:43:24Z</time></trkpt><trkpt lat="37.272091150899556" lon="13.628956771333616"><ele>68.25</ele><time>2026-03-25T08:43:25Z</time></trkpt><trkpt lat="37.272131759785374" lon="13.62910688906725"><ele>68.5</ele><time>2026-03-25T08:43:26Z</time></trkpt><trkpt lat="37.27216699583085" lon="13.629257154698573"><ele>68.75</ele><time>2026-03-25T08:43:27Z</time></trkpt><trkpt lat="37.272196458311676" lon="13.629401160043683"><ele>69.0</ele><time>2026-03-25T08:43:28Z</time></trkpt><trkpt lat="37.272219352050435" lon="13.629539520739575"><ele>69.25</ele><time>2026-03-25T08:43:29Z</time></trkpt><trkpt lat="37.27223570084175" lon="13.62968271250047"><ele>69.5</ele><time>2026-03-25T08:43:30Z</time></trkpt><trkpt lat="37.27224104286108" lon="13.62982611292163"><ele>69.75</ele><time>2026-03-25T08:43:31Z</time></trkpt><trkpt lat="37.272240472526306" lon="13.629974417763226"><ele>70.0</ele><time>2026-03-25T08:43:32Z</time></trkpt><trkpt lat="37.2722387373134" lon="13.630128706297922"><ele>70.0</ele><time>2026-03-25T08:43:33Z</time></trkpt><trkpt lat="37.27222366513863" lon="13.630278638233097"><ele>70.0</ele><time>2026-03-25T08:43:34Z</time></trkpt><trkpt lat="37.27219162104356" lon="13.63043305092319"><ele>70.0</ele><time>2026-03-25T08:43:35Z</time></trkpt><trkpt lat="37.27216283921502" lon="13.630590353225474"><ele>70.0</ele><time>2026-03-25T08:43:36Z</time></trkpt><trkpt lat="37.27213145901086" lon="13.630748679647779"><ele>70.0</ele><time>2026-03-25T08:43:37Z</time></trkpt><trkpt lat="37.27209631800028" lon="13.630907020022294"><ele>70.0</ele><time>2026-03-25T08:43:38Z</time></trkpt><trkpt lat="37.272060667601586" lon="13.631067829797757"><ele>70.0</ele><time>2026-03-25T08:43:39Z</time></trkpt><trkpt lat="37.2720233756431" lon="13.631231614137484"><ele>70.0</ele><time>2026-03-25T08:43:40Z</time></trkpt><trkpt lat="37.271987115511386" lon="13.631396139231116"><ele>70.0</ele><time>2026-03-25T08:43:41Z</time></trkpt><trkpt lat="37.27195154827656" lon="13.631559917256508"><ele>70.0</ele><time>2026-03-25T08:43:42Z</time></trkpt><trkpt lat="37.27191796386446" lon="13.631725251511634"><ele>70.0</ele><time>2026-03-25T08:43:43Z</time></trkpt><trkpt lat="37.27188226363777" lon="13.631893184060996"><ele>70.0</ele><time>2026-03-25T08:43:44Z</time></trkpt><trkpt lat="37.27184699997022" lon="13.632061003664866"><ele>70.5</ele><time>2026-03-25T08:43:45Z</time></trkpt><trkpt lat="37.27181064467254" lon="13.632227178587188"><ele>71.0</ele><time>2026-03-25T08:43:46Z</time></trkpt><trkpt lat="37.27177406100845" lon="13.632395169407646"><ele>71.5</ele><time>2026-03-25T08:43:47Z</time></trkpt><trkpt lat="37.27173945020332" lon="13.63256417214245"><ele>72.0</ele><time>2026-03-25T08:43:48Z</time></trkpt><trkpt lat="37.271706297930535" lon="13.632733991047166"><ele>72.66666666666667</ele><time>2026-03-25T08:43:49Z</time></trkpt><trkpt lat="37.271670188126514" lon="13.632915356439074"><ele>73.33333333333334</ele><time>2026-03-25T08:43:50Z</time></trkpt><trkpt lat="37.27163678550054" lon="13.63313585365919"><ele>74.0</ele><time>2026-03-25T08:43:51Z</time></trkpt><trkpt lat="37.271616145114436" lon="13.633380529773277"><ele>74.0</ele><time>2026-03-25T08:43:52Z</time></trkpt><trkpt lat="37.27160614151228" lon="13.63363890854802"><ele>74.0</ele><time>2026-03-25T08:43:53Z</time></trkpt><trkpt lat="37.27160470997897" lon="13.633901931120525"><ele>74.0</ele><time>2026-03-25T08:43:54Z</time></trkpt><trkpt lat="37.27160939085653" lon="13.63417291509628"><ele>74.0</ele><time>2026-03-25T08:43:55Z</time></trkpt><trkpt lat="37.27162816422132" lon="13.634450276977702"><ele>74.0</ele><time>2026-03-25T08:43:56Z</time></trkpt><trkpt lat="37.27165928239872" lon="13.634729295043101"><ele>74.0</ele><time>2026-03-25T08:43:57Z</time></trkpt><trkpt lat="37.27169594751731" lon="13.635011962537773"><ele>71.5</ele><time>2026-03-25T08:43:58Z</time></trkpt><trkpt lat="37.27172879831298" lon="13.63529490038231"><ele>69.0</ele><time>2026-03-25T08:43:59Z</time></trkpt><trkpt lat="37.27175673405499" lon="13.635577729065782"><ele>68.0</ele><time>2026-03-25T08:44:00Z</time></trkpt><trkpt lat="37.27178261833811" lon="13.635853809975936"><ele>67.0</ele><time>2026-03-25T08:44:01Z</time></trkpt><trkpt lat="37.2718072763424" lon="13.636111923150226"><ele>66.0</ele><time>2026-03-25T08:44:02Z</time></trkpt><trkpt lat="37.27181515001237" lon="13.636372337706751"><ele>64.66666666666667</ele><time>2026-03-25T08:44:03Z</time></trkpt><trkpt lat="37.27179948193393" lon="13.636644028469956"><ele>63.333333333333336</ele><time>2026-03-25T08:44:04Z</time></trkpt><trkpt lat="37.27176500213636" lon="13.636911825317252"><ele>62.0</ele><time>2026-03-25T08:44:05Z</time></trkpt><trkpt lat="37.2717108271814" lon="13.637173167029825"><ele>61.66666666666667</ele><time>2026-03-25T08:44:06Z</time></trkpt><trkpt lat="37.27163823868519" lon="13.637429514313892"><ele>61.33333333333333</ele><time>2026-03-25T08:44:07Z</time></trkpt><trkpt lat="37.271548988383294" lon="13.637678979865033"><ele>61.0</ele><time>2026-03-25T08:44:08Z</time></trkpt><trkpt lat="37.27144521126275" lon="13.637924768143803"><ele>60.0</ele><time>2026-03-25T08:44:09Z</time></trkpt><trkpt lat="37.271322563406045" lon="13.638162374945354"><ele>59.0</ele><time>2026-03-25T08:44:10Z</time></trkpt><trkpt lat="37.27117881110354" lon="13.638380924766631"><ele>59.0</ele><time>2026-03-25T08:44:11Z</time></trkpt><trkpt lat="37.271019300942" lon="13.638590846977692"><ele>59.0</ele><time>2026-03-25T08:44:12Z</time></trkpt><trkpt lat="37.27083588200225" lon="13.63877168637102"><ele>58.0</ele><time>2026-03-25T08:44:13Z</time></trkpt><trkpt lat="37.27065027465779" lon="13.638951754476912"><ele>57.0</ele><time>2026-03-25T08:44:14Z</time></trkpt><trkpt lat="37.270469104251845" lon="13.63913904689882"><ele>56.5</ele><time>2026-03-25T08:44:15Z</time></trkpt><trkpt lat="37.270279050736995" lon="13.6393090488994"><ele>56.0</ele><time>2026-03-25T08:44:16Z</time></trkpt><trkpt lat="37.27009589389217" lon="13.639478509078003"><ele>55.66666666666667</ele><time>2026-03-25T08:44:17Z</time></trkpt><trkpt lat="37.2699288312662" lon="13.639643174182325"><ele>55.33333333333333</ele><time>2026-03-25T08:44:18Z</time></trkpt><trkpt lat="37.26977593846166" lon="13.639809604322771"><ele>55.0</ele><time>2026-03-25T08:44:19Z</time></trkpt><trkpt lat="37.26963499367002" lon="13.639996681982815"><ele>54.0</ele><time>2026-03-25T08:44:20Z</time></trkpt><trkpt lat="37.26950679785264" lon="13.640216408992046"><ele>53.0</ele><time>2026-03-25T08:44:21Z</time></trkpt><trkpt lat="37.269389912817815" lon="13.640465709661383"><ele>52.0</ele><time>2026-03-25T08:44:22Z</time></trkpt><trkpt lat="37.2692858112535" lon="13.640735534367185"><ele>50.0</ele><time>2026-03-25T08:44:23Z</time></trkpt><trkpt lat="37.26918432446845" lon="13.641012385762577"><ele>48.0</ele><time>2026-03-25T08:44:24Z</time></trkpt><trkpt lat="37.26908618229726" lon="13.641290373278444"><ele>46.5</ele><time>2026-03-25T08:44:25Z</time></trkpt><trkpt lat="37.26899096532616" lon="13.641559155098136"><ele>45.0</ele><time>2026-03-25T08:44:26Z</time></trkpt><trkpt lat="37.26889861262205" lon="13.641810965802016"><ele>44.333333333333336</ele><time>2026-03-25T08:44:27Z</time></trkpt><trkpt lat="37.26881014911146" lon="13.642055447296693"><ele>43.66666666666667</ele><time>2026-03-25T08:44:28Z</time></trkpt><trkpt lat="37.26872514921622" lon="13.642290288254776"><ele>43.0</ele><time>2026-03-25T08:44:29Z</time></trkpt><trkpt lat="37.268644643719185" lon="13.642514839458642"><ele>43.0</ele><time>2026-03-25T08:44:30.001Z</time></trkpt><trkpt lat="37.26856696538324" lon="13.642732108793291"><ele>43.0</ele><time>2026-03-25T08:44:31.001Z</time></trkpt><trkpt lat="37.268493042269775" lon="13.6429425792672"><ele>43.0</ele><time>2026-03-25T08:44:32.001Z</time></trkpt><trkpt lat="37.268418695037646" lon="13.643149370331797"><ele>43.66666666666667</ele><time>2026-03-25T08:44:33.001Z</time></trkpt><trkpt lat="37.26834342220101" lon="13.643354247713939"><ele>44.333333333333336</ele><time>2026-03-25T08:44:34.001Z</time></trkpt><trkpt lat="37.268264426294465" lon="13.643557917278665"><ele>45.0</ele><time>2026-03-25T08:44:35.001Z</time></trkpt><trkpt lat="37.26817710715988" lon="13.643756194928589"><ele>45.333333333333336</ele><time>2026-03-25T08:44:36.001Z</time></trkpt><trkpt lat="37.26807619947117" lon="13.643940417007688"><ele>45.66666666666667</ele><time>2026-03-25T08:44:37.001Z</time></trkpt><trkpt lat="37.26796200893569" lon="13.644105583125715"><ele>46.0</ele><time>2026-03-25T08:44:38.001Z</time></trkpt><trkpt lat="37.26783672787669" lon="13.644252146513324"><ele>46.0</ele><time>2026-03-25T08:44:39.001Z</time></trkpt><trkpt lat="37.2677001094559" lon="13.644377988147953"><ele>46.0</ele><time>2026-03-25T08:44:40.001Z</time></trkpt><trkpt lat="37.26756027337436" lon="13.644490215360559"><ele>46.0</ele><time>2026-03-25T08:44:41.001Z</time></trkpt><trkpt lat="37.26740746520641" lon="13.644586068285712"><ele>48.333333333333336</ele><time>2026-03-25T08:44:42.001Z</time></trkpt><trkpt lat="37.26724547151592" lon="13.644664816650241"><ele>50.66666666666667</ele><time>2026-03-25T08:44:43.001Z</time></trkpt><trkpt lat="37.26707469280658" lon="13.644726413949515"><ele>53.0</ele><time>2026-03-25T08:44:44.001Z</time></trkpt><trkpt lat="37.266907319304885" lon="13.6447725635733"><ele>53.0</ele><time>2026-03-25T08:44:45.001Z</time></trkpt><trkpt lat="37.26674031248923" lon="13.644807427931502"><ele>53.0</ele><time>2026-03-25T08:44:46.001Z</time></trkpt><trkpt lat="37.26658066775005" lon="13.644848131478087"><ele>53.0</ele><time>2026-03-25T08:44:47.001Z</time></trkpt><trkpt lat="37.266422110595634" lon="13.644892580245571"><ele>55.0</ele><time>2026-03-25T08:44:48.001Z</time></trkpt><trkpt lat="37.26626548038366" lon="13.644938390266693"><ele>57.0</ele><time>2026-03-25T08:44:49.001Z</time></trkpt><trkpt lat="37.266106476653654" lon="13.644980599678805"><ele>59.0</ele><time>2026-03-25T08:44:50.001Z</time></trkpt><trkpt lat="37.265949630008286" lon="13.64502384490879"><ele>59.0</ele><time>2026-03-25T08:44:51.001Z</time></trkpt><trkpt lat="37.26579606575737" lon="13.645078058667558"><ele>59.0</ele><time>2026-03-25T08:44:52.001Z</time></trkpt><trkpt lat="37.2656433007995" lon="13.64514841411244"><ele>59.0</ele><time>2026-03-25T08:44:53.001Z</time></trkpt><trkpt lat="37.26549530668608" lon="13.6452376667591"><ele>60.66666666666667</ele><time>2026-03-25T08:44:54.001Z</time></trkpt><trkpt lat="37.265350815505755" lon="13.645338924992153"><ele>62.33333333333333</ele><time>2026-03-25T08:44:55.001Z</time></trkpt><trkpt lat="37.265213898277295" lon="13.645450676351976"><ele>64.0</ele><time>2026-03-25T08:44:56.001Z</time></trkpt><trkpt lat="37.26508408482004" lon="13.645576276032138"><ele>64.0</ele><time>2026-03-25T08:44:57.001Z</time></trkpt><trkpt lat="37.26496235670004" lon="13.645718298156943"><ele>64.0</ele><time>2026-03-25T08:44:58.001Z</time></trkpt><trkpt lat="37.264853285725955" lon="13.645867413004758"><ele>64.0</ele><time>2026-03-25T08:44:59.001Z</time></trkpt><trkpt lat="37.26475188939307" lon="13.64602071938622"><ele>65.66666666666666</ele><time>2026-03-25T08:45:00.001Z</time></trkpt><trkpt lat="37.26465192789106" lon="13.646178030684638"><ele>67.33333333333333</ele><time>2026-03-25T08:45:01.001Z</time></trkpt><trkpt lat="37.2645514824675" lon="13.646333280233877"><ele>69.0</ele><time>2026-03-25T08:45:02.001Z</time></trkpt><trkpt lat="37.264451906699286" lon="13.646486585651363"><ele>69.0</ele><time>2026-03-25T08:45:03.001Z</time></trkpt><trkpt lat="37.26435158682981" lon="13.646639133388655"><ele>69.0</ele><time>2026-03-25T08:45:04.001Z</time></trkpt><trkpt lat="37.26425224882059" lon="13.64679473169279"><ele>69.0</ele><time>2026-03-25T08:45:05.001Z</time></trkpt><trkpt lat="37.264152834890886" lon="13.64695466281937"><ele>71.66666666666667</ele><time>2026-03-25T08:45:06.001Z</time></trkpt><trkpt lat="37.26405553204718" lon="13.647110894108968"><ele>74.33333333333334</ele><time>2026-03-25T08:45:07.001Z</time></trkpt><trkpt lat="37.26395781902667" lon="13.647262812150046"><ele>77.0</ele><time>2026-03-25T08:45:08.001Z</time></trkpt><trkpt lat="37.263862098481866" lon="13.64741417832058"><ele>77.0</ele><time>2026-03-25T08:45:09.001Z</time></trkpt><trkpt lat="37.2637692381514" lon="13.647568200537403"><ele>77.0</ele><time>2026-03-25T08:45:10.001Z</time></trkpt><trkpt lat="37.263683347094414" lon="13.647727194995676"><ele>77.0</ele><time>2026-03-25T08:45:11.001Z</time></trkpt><trkpt lat="37.263601665016786" lon="13.647904454122195"><ele>78.0</ele><time>2026-03-25T08:45:12.001Z</time></trkpt><trkpt lat="37.26352532096004" lon="13.648094580732675"><ele>79.0</ele><time>2026-03-25T08:45:13.001Z</time></trkpt><trkpt lat="37.26345487161221" lon="13.648269259765218"><ele>80.0</ele><time>2026-03-25T08:45:14.001Z</time></trkpt><trkpt lat="37.26338179606191" lon="13.648457974857562"><ele>80.66666666666667</ele><time>2026-03-25T08:45:15.001Z</time></trkpt><trkpt lat="37.263306303783395" lon="13.648653323431631"><ele>81.33333333333333</ele><time>2026-03-25T08:45:16.001Z</time></trkpt><trkpt lat="37.2632277804225" lon="13.648848006000598"><ele>82.0</ele><time>2026-03-25T08:45:17.001Z</time></trkpt><trkpt lat="37.26314563233275" lon="13.649063874912025"><ele>81.66666666666666</ele><time>2026-03-25T08:45:18.001Z</time></trkpt><trkpt lat="37.26306145179271" lon="13.649304181303103"><ele>81.33333333333333</ele><time>2026-03-25T08:45:19.001Z</time></trkpt><trkpt lat="37.26296960768639" lon="13.649555028020808"><ele>81.0</ele><time>2026-03-25T08:45:20.001Z</time></trkpt><trkpt lat="37.262860314825964" lon="13.649819712791658"><ele>81.0</ele><time>2026-03-25T08:45:21.001Z</time></trkpt><trkpt lat="37.26274185451586" lon="13.650088328369261"><ele>81.0</ele><time>2026-03-25T08:45:22.001Z</time></trkpt><trkpt lat="37.26262622943774" lon="13.65035268471596"><ele>82.0</ele><time>2026-03-25T08:45:23Z</time></trkpt><trkpt lat="37.26251185843426" lon="13.650623246262425"><ele>83.0</ele><time>2026-03-25T08:45:24Z</time></trkpt><trkpt lat="37.262399682647484" lon="13.650900807433057"><ele>82.5</ele><time>2026-03-25T08:45:25Z</time></trkpt><trkpt lat="37.262287284197996" lon="13.651182256998492"><ele>82.0</ele><time>2026-03-25T08:45:26Z</time></trkpt><trkpt lat="37.26217814723205" lon="13.651460828104746"><ele>82.0</ele><time>2026-03-25T08:45:27Z</time></trkpt><trkpt lat="37.262070222614376" lon="13.65173407027353"><ele>82.0</ele><time>2026-03-25T08:45:28Z</time></trkpt><trkpt lat="37.26196469662899" lon="13.652002884351312"><ele>82.0</ele><time>2026-03-25T08:45:29Z</time></trkpt><trkpt lat="37.2618597322759" lon="13.652268646277149"><ele>82.0</ele><time>2026-03-25T08:45:30Z</time></trkpt><trkpt lat="37.261755071466816" lon="13.652531426065627"><ele>82.5</ele><time>2026-03-25T08:45:31Z</time></trkpt><trkpt lat="37.26165262390303" lon="13.65278995620416"><ele>83.0</ele><time>2026-03-25T08:45:32Z</time></trkpt><trkpt lat="37.261551279727435" lon="13.653047257840303"><ele>83.0</ele><time>2026-03-25T08:45:33Z</time></trkpt><trkpt lat="37.26145061886787" lon="13.653303028384434"><ele>83.0</ele><time>2026-03-25T08:45:34Z</time></trkpt><trkpt lat="37.26135128639677" lon="13.653556921062409"><ele>82.0</ele><time>2026-03-25T08:45:35Z</time></trkpt><trkpt lat="37.261251660568504" lon="13.653808264463768"><ele>81.0</ele><time>2026-03-25T08:45:36Z</time></trkpt><trkpt lat="37.26115302909095" lon="13.654055526863234"><ele>80.0</ele><time>2026-03-25T08:45:37Z</time></trkpt><trkpt lat="37.26105256939139" lon="13.654305970793745"><ele>80.5</ele><time>2026-03-25T08:45:38Z</time></trkpt><trkpt lat="37.260952946732665" lon="13.654558279674891"><ele>81.0</ele><time>2026-03-25T08:45:39Z</time></trkpt><trkpt lat="37.260852247700115" lon="13.654811637670353"><ele>81.0</ele><time>2026-03-25T08:45:40Z</time></trkpt><trkpt lat="37.26075124158341" lon="13.655069529861228"><ele>81.0</ele><time>2026-03-25T08:45:41Z</time></trkpt><trkpt lat="37.26064649944206" lon="13.655326887081445"><ele>78.0</ele><time>2026-03-25T08:45:42Z</time></trkpt><trkpt lat="37.26053796827644" lon="13.65558393615024"><ele>75.0</ele><time>2026-03-25T08:45:43Z</time></trkpt><trkpt lat="37.26042294035771" lon="13.655840106076667"><ele>75.0</ele><time>2026-03-25T08:45:44Z</time></trkpt><trkpt lat="37.26029560782828" lon="13.656087473555333"><ele>75.0</ele><time>2026-03-25T08:45:45Z</time></trkpt><trkpt lat="37.260156094748616" lon="13.656325258545499"><ele>76.5</ele><time>2026-03-25T08:45:46Z</time></trkpt><trkpt lat="37.26000401955839" lon="13.6565474220302"><ele>78.0</ele><time>2026-03-25T08:45:47Z</time></trkpt><trkpt lat="37.259838459030846" lon="13.656754876426035"><ele>77.5</ele><time>2026-03-25T08:45:48Z</time></trkpt><trkpt lat="37.2596616448275" lon="13.656952343524527"><ele>77.0</ele><time>2026-03-25T08:45:49Z</time></trkpt><trkpt lat="37.259478433345855" lon="13.657144438156577"><ele>77.0</ele><time>2026-03-25T08:45:50Z</time></trkpt><trkpt lat="37.259293563894005" lon="13.65733770685194"><ele>77.0</ele><time>2026-03-25T08:45:51Z</time></trkpt><trkpt lat="37.25910925188851" lon="13.65753532100094"><ele>75.5</ele><time>2026-03-25T08:45:52Z</time></trkpt><trkpt lat="37.25892537844222" lon="13.65773657236317"><ele>74.0</ele><time>2026-03-25T08:45:53Z</time></trkpt><trkpt lat="37.25873908583184" lon="13.65793676933612"><ele>74.0</ele><time>2026-03-25T08:45:54Z</time></trkpt><trkpt lat="37.25855380850976" lon="13.658131980866381"><ele>74.0</ele><time>2026-03-25T08:45:55Z</time></trkpt><trkpt lat="37.258372689969306" lon="13.658330286773293"><ele>74.0</ele><time>2026-03-25T08:45:56Z</time></trkpt><trkpt lat="37.2581973917434" lon="13.658534241596268"><ele>74.0</ele><time>2026-03-25T08:45:57Z</time></trkpt><trkpt lat="37.25803276497327" lon="13.658745819288372"><ele>72.5</ele><time>2026-03-25T08:45:58Z</time></trkpt><trkpt lat="37.257878551299214" lon="13.658967532059744"><ele>71.0</ele><time>2026-03-25T08:45:59Z</time></trkpt><trkpt lat="37.257747855090344" lon="13.659214728913469"><ele>71.5</ele><time>2026-03-25T08:46:00Z</time></trkpt><trkpt lat="37.25763056832811" lon="13.65947585333945"><ele>72.0</ele><time>2026-03-25T08:46:01Z</time></trkpt><trkpt lat="37.257525008049356" lon="13.659748680240488"><ele>72.0</ele><time>2026-03-25T08:46:02Z</time></trkpt><trkpt lat="37.25742447355" lon="13.660024789176873"><ele>72.0</ele><time>2026-03-25T08:46:03Z</time></trkpt><trkpt lat="37.25732242575803" lon="13.660302865369955"><ele>69.5</ele><time>2026-03-25T08:46:04Z</time></trkpt><trkpt lat="37.25721934400458" lon="13.660575359289336"><ele>67.0</ele><time>2026-03-25T08:46:05Z</time></trkpt><trkpt lat="37.257115467450305" lon="13.6608443448881"><ele>67.0</ele><time>2026-03-25T08:46:06Z</time></trkpt><trkpt lat="37.25701254878509" lon="13.661114101846984"><ele>67.0</ele><time>2026-03-25T08:46:07Z</time></trkpt><trkpt lat="37.256911581772286" lon="13.66138290725329"><ele>67.5</ele><time>2026-03-25T08:46:08Z</time></trkpt><trkpt lat="37.256810186573624" lon="13.661649380968475"><ele>68.0</ele><time>2026-03-25T08:46:09Z</time></trkpt><trkpt lat="37.25670772170981" lon="13.66191492962206"><ele>69.0</ele><time>2026-03-25T08:46:10Z</time></trkpt><trkpt lat="37.256605136017654" lon="13.662176529333044"><ele>70.0</ele><time>2026-03-25T08:46:11Z</time></trkpt><trkpt lat="37.25650286379031" lon="13.662433588943216"><ele>69.0</ele><time>2026-03-25T08:46:12Z</time></trkpt><trkpt lat="37.256397530861406" lon="13.662688746265147"><ele>68.0</ele><time>2026-03-25T08:46:13Z</time></trkpt><trkpt lat="37.256281164342724" lon="13.662938935472331"><ele>68.0</ele><time>2026-03-25T08:46:14Z</time></trkpt><trkpt lat="37.25613133889213" lon="13.663159672625241"><ele>68.0</ele><time>2026-03-25T08:46:15Z</time></trkpt><trkpt lat="37.25599215068982" lon="13.663394947706287"><ele>68.0</ele><time>2026-03-25T08:46:16Z</time></trkpt><trkpt lat="37.255824854447134" lon="13.663595173552894"><ele>68.0</ele><time>2026-03-25T08:46:17Z</time></trkpt><trkpt lat="37.25563885548681" lon="13.663777651701036"><ele>66.0</ele><time>2026-03-25T08:46:18Z</time></trkpt><trkpt lat="37.25543840707065" lon="13.663945406801895"><ele>64.0</ele><time>2026-03-25T08:46:19Z</time></trkpt><trkpt lat="37.255227649546" lon="13.66409393961735"><ele>64.0</ele><time>2026-03-25T08:46:20Z</time></trkpt><trkpt lat="37.25500908562484" lon="13.664214179169972"><ele>64.0</ele><time>2026-03-25T08:46:21Z</time></trkpt><trkpt lat="37.254793771834755" lon="13.664302852500066"><ele>64.0</ele><time>2026-03-25T08:46:22Z</time></trkpt><trkpt lat="37.25456259950339" lon="13.664380672165374"><ele>64.0</ele><time>2026-03-25T08:46:23Z</time></trkpt><trkpt lat="37.25432321715697" lon="13.664456220896916"><ele>64.0</ele><time>2026-03-25T08:46:24Z</time></trkpt><trkpt lat="37.25408217809654" lon="13.664531122329096"><ele>64.0</ele><time>2026-03-25T08:46:25.001Z</time></trkpt><trkpt lat="37.25384129750708" lon="13.664599302165355"><ele>63.0</ele><time>2026-03-25T08:46:26.001Z</time></trkpt><trkpt lat="37.25360396123311" lon="13.664666849968242"><ele>62.0</ele><time>2026-03-25T08:46:27.001Z</time></trkpt><trkpt lat="37.25336508866084" lon="13.664738171567576"><ele>62.0</ele><time>2026-03-25T08:46:28.001Z</time></trkpt><trkpt lat="37.25312843197695" lon="13.664807871921669"><ele>62.0</ele><time>2026-03-25T08:46:29.001Z</time></trkpt><trkpt lat="37.25289161492521" lon="13.664877794035984"><ele>61.0</ele><time>2026-03-25T08:46:30.001Z</time></trkpt><trkpt lat="37.252651691560544" lon="13.664946903152213"><ele>60.0</ele><time>2026-03-25T08:46:31.001Z</time></trkpt><trkpt lat="37.25241562850242" lon="13.66501915494684"><ele>57.5</ele><time>2026-03-25T08:46:32.001Z</time></trkpt><trkpt lat="37.25218206988236" lon="13.665090945645046"><ele>55.0</ele><time>2026-03-25T08:46:33.001Z</time></trkpt><trkpt lat="37.251950095698646" lon="13.665161109562089"><ele>55.0</ele><time>2026-03-25T08:46:34.001Z</time></trkpt><trkpt lat="37.251719981260315" lon="13.665229658441564"><ele>55.0</ele><time>2026-03-25T08:46:35.001Z</time></trkpt><trkpt lat="37.251494542057515" lon="13.665294981659011"><ele>56.33333333333333</ele><time>2026-03-25T08:46:36.001Z</time></trkpt><trkpt lat="37.251276246870276" lon="13.665360932905784"><ele>57.66666666666667</ele><time>2026-03-25T08:46:37.001Z</time></trkpt><trkpt lat="37.25106100011852" lon="13.665431210988707"><ele>59.0</ele><time>2026-03-25T08:46:38.001Z</time></trkpt><trkpt lat="37.250849741429356" lon="13.665512763899393"><ele>59.0</ele><time>2026-03-25T08:46:39.001Z</time></trkpt><trkpt lat="37.25064551997379" lon="13.665612200066812"><ele>59.0</ele><time>2026-03-25T08:46:40.001Z</time></trkpt><trkpt lat="37.25045259726877" lon="13.665728905699597"><ele>59.0</ele><time>2026-03-25T08:46:41.001Z</time></trkpt><trkpt lat="37.25026913053429" lon="13.665862010210637"><ele>59.0</ele><time>2026-03-25T08:46:42.001Z</time></trkpt><trkpt lat="37.25008853768505" lon="13.666000775176034"><ele>59.0</ele><time>2026-03-25T08:46:43.001Z</time></trkpt><trkpt lat="37.24990887411263" lon="13.666140048077539"><ele>59.0</ele><time>2026-03-25T08:46:44.001Z</time></trkpt><trkpt lat="37.24972869555103" lon="13.66627645826839"><ele>59.333333333333336</ele><time>2026-03-25T08:46:45.001Z</time></trkpt><trkpt lat="37.249550979809285" lon="13.666409705883682"><ele>59.66666666666667</ele><time>2026-03-25T08:46:46.001Z</time></trkpt><trkpt lat="37.249374878176326" lon="13.666541153958416"><ele>60.0</ele><time>2026-03-25T08:46:47.001Z</time></trkpt><trkpt lat="37.249199658697684" lon="13.66667236503701"><ele>60.0</ele><time>2026-03-25T08:46:48.001Z</time></trkpt><trkpt lat="37.24902702909698" lon="13.666801682056404"><ele>60.0</ele><time>2026-03-25T08:46:49.001Z</time></trkpt><trkpt lat="37.24885597856761" lon="13.666930541131817"><ele>60.0</ele><time>2026-03-25T08:46:50.001Z</time></trkpt><trkpt lat="37.24868688972779" lon="13.66705724642957"><ele>60.33333333333333</ele><time>2026-03-25T08:46:51.001Z</time></trkpt><trkpt lat="37.248518513103065" lon="13.667184137019932"><ele>60.666666666666664</ele><time>2026-03-25T08:46:52.001Z</time></trkpt><trkpt lat="37.24835024587779" lon="13.667309305294063"><ele>61.0</ele><time>2026-03-25T08:46:53.001Z</time></trkpt><trkpt lat="37.248182864862045" lon="13.667434186578026"><ele>61.0</ele><time>2026-03-25T08:46:54.001Z</time></trkpt><trkpt lat="37.24801656583378" lon="13.667559519154315"><ele>61.0</ele><time>2026-03-25T08:46:55.001Z</time></trkpt><trkpt lat="37.24785176109409" lon="13.667683195960663"><ele>61.0</ele><time>2026-03-25T08:46:56.001Z</time></trkpt><trkpt lat="37.24768590161726" lon="13.667805538009555"><ele>61.0</ele><time>2026-03-25T08:46:57.001Z</time></trkpt><trkpt lat="37.24751856712136" lon="13.667928541242484"><ele>61.0</ele><time>2026-03-25T08:46:58.001Z</time></trkpt><trkpt lat="37.247347240500496" lon="13.668054727720543"><ele>61.0</ele><time>2026-03-25T08:46:59.001Z</time></trkpt><trkpt lat="37.247178215254586" lon="13.668182105277573"><ele>60.666666666666664</ele><time>2026-03-25T08:47:00.001Z</time></trkpt><trkpt lat="37.247008836357466" lon="13.668313476458271"><ele>60.33333333333333</ele><time>2026-03-25T08:47:01.001Z</time></trkpt><trkpt lat="37.24684274639629" lon="13.6684445174566"><ele>60.0</ele><time>2026-03-25T08:47:02.001Z</time></trkpt><trkpt lat="37.24668290006293" lon="13.668571466476557"><ele>60.0</ele><time>2026-03-25T08:47:03.001Z</time></trkpt><trkpt lat="37.246529109607515" lon="13.668697589409518"><ele>60.0</ele><time>2026-03-25T08:47:04.001Z</time></trkpt><trkpt lat="37.24637829944648" lon="13.668823984810766"><ele>60.0</ele><time>2026-03-25T08:47:05.001Z</time></trkpt><trkpt lat="37.24623041628821" lon="13.668950872528388"><ele>60.0</ele><time>2026-03-25T08:47:06.001Z</time></trkpt><trkpt lat="37.24608101205485" lon="13.669083538908678"><ele>60.0</ele><time>2026-03-25T08:47:07.001Z</time></trkpt><trkpt lat="37.24592391089298" lon="13.669223245409858"><ele>60.0</ele><time>2026-03-25T08:47:08.001Z</time></trkpt><trkpt lat="37.245763951096826" lon="13.669369924541336"><ele>59.66666666666667</ele><time>2026-03-25T08:47:09.001Z</time></trkpt><trkpt lat="37.24560428765747" lon="13.66951837874896"><ele>59.333333333333336</ele><time>2026-03-25T08:47:10.001Z</time></trkpt><trkpt lat="37.2454462447663" lon="13.669662721311607"><ele>59.0</ele><time>2026-03-25T08:47:11.001Z</time></trkpt><trkpt lat="37.2452900195853" lon="13.669808537889137"><ele>59.0</ele><time>2026-03-25T08:47:12.001Z</time></trkpt><trkpt lat="37.24513624006853" lon="13.669956486077211"><ele>59.0</ele><time>2026-03-25T08:47:13.001Z</time></trkpt><trkpt lat="37.244986822926926" lon="13.670107084456049"><ele>59.0</ele><time>2026-03-25T08:47:14.001Z</time></trkpt><trkpt lat="37.244842039300345" lon="13.6702625893385"><ele>58.333333333333336</ele><time>2026-03-25T08:47:15.001Z</time></trkpt><trkpt lat="37.24470153309513" lon="13.670424423221549"><ele>57.66666666666667</ele><time>2026-03-25T08:47:16.001Z</time></trkpt><trkpt lat="37.2445646029342" lon="13.670589101293846"><ele>57.0</ele><time>2026-03-25T08:47:17.001Z</time></trkpt><trkpt lat="37.24443294341468" lon="13.670749224893902"><ele>57.0</ele><time>2026-03-25T08:47:18.001Z</time></trkpt><trkpt lat="37.244307412227855" lon="13.670898485980858"><ele>57.0</ele><time>2026-03-25T08:47:19.001Z</time></trkpt><trkpt lat="37.244188896933096" lon="13.671039912507505"><ele>57.0</ele><time>2026-03-25T08:47:20.001Z</time></trkpt><trkpt lat="37.24407738459126" lon="13.671173195414047"><ele>57.25</ele><time>2026-03-25T08:47:21.001Z</time></trkpt><trkpt lat="37.243974523510886" lon="13.671297905491052"><ele>57.5</ele><time>2026-03-25T08:47:22.001Z</time></trkpt><trkpt lat="37.24388135784424" lon="13.671417093367763"><ele>57.75</ele><time>2026-03-25T08:47:23.001Z</time></trkpt><trkpt lat="37.24379638300164" lon="13.67152917872192"><ele>58.0</ele><time>2026-03-25T08:47:24.001Z</time></trkpt><trkpt lat="37.24371509017263" lon="13.671630143000087"><ele>58.0</ele><time>2026-03-25T08:47:25.001Z</time></trkpt><trkpt lat="37.24363276757377" lon="13.671728169093557"><ele>58.0</ele><time>2026-03-25T08:47:26.001Z</time></trkpt><trkpt lat="37.2435469006228" lon="13.671828606654556"><ele>58.0</ele><time>2026-03-25T08:47:27Z</time></trkpt><trkpt lat="37.24346263842928" lon="13.671924959929852"><ele>58.0</ele><time>2026-03-25T08:47:28Z</time></trkpt><trkpt lat="37.24338208336042" lon="13.672011238404876"><ele>57.99999999999999</ele><time>2026-03-25T08:47:28.999Z</time></trkpt><trkpt lat="37.243303484654746" lon="13.6720916256705"><ele>58.0</ele><time>2026-03-25T08:47:29.999Z</time></trkpt><trkpt lat="37.24323588835824" lon="13.672160424190222"><ele>58.0</ele><time>2026-03-25T08:47:30.999Z</time></trkpt><trkpt lat="37.24317260025312" lon="13.672222994731921"><ele>58.0</ele><time>2026-03-25T08:47:31.999Z</time></trkpt><trkpt lat="37.24311149392563" lon="13.672256777896848"><ele>57.99999999999999</ele><time>2026-03-25T08:47:32.999Z</time></trkpt><trkpt lat="37.24305385153787" lon="13.672333057904607"><ele>58.0</ele><time>2026-03-25T08:47:34.999Z</time></trkpt><trkpt lat="37.24319108941951" lon="13.672533559806856"><ele>58.5</ele><time>2026-03-25T08:47:35.999Z</time></trkpt><trkpt lat="37.24328044552881" lon="13.672622650743984"><ele>59.0</ele><time>2026-03-25T08:47:36.999Z</time></trkpt><trkpt lat="37.24337406740554" lon="13.672737461310392"><ele>59.5</ele><time>2026-03-25T08:47:37.999Z</time></trkpt><trkpt lat="37.24347141515209" lon="13.672879586307747"><ele>60.0</ele><time>2026-03-25T08:47:38.999Z</time></trkpt><trkpt lat="37.243580467838484" lon="13.673036245858786"><ele>60.0</ele><time>2026-03-25T08:47:39.999Z</time></trkpt><trkpt lat="37.243691331562516" lon="13.673192728181444"><ele>60.0</ele><time>2026-03-25T08:47:40.999Z</time></trkpt><trkpt lat="37.24381007372039" lon="13.67336005725761"><ele>60.0</ele><time>2026-03-25T08:47:41.999Z</time></trkpt><trkpt lat="37.243931043700826" lon="13.673532294984282"><ele>62.0</ele><time>2026-03-25T08:47:42.999Z</time></trkpt><trkpt lat="37.24405351257875" lon="13.673711317679576"><ele>64.0</ele><time>2026-03-25T08:47:43.999Z</time></trkpt><trkpt lat="37.244179166921434" lon="13.673896885424975"><ele>66.0</ele><time>2026-03-25T08:47:44.999Z</time></trkpt><trkpt lat="37.2443067033234" lon="13.674081820029606"><ele>66.0</ele><time>2026-03-25T08:47:45.999Z</time></trkpt><trkpt lat="37.24443597852842" lon="13.674263066068342"><ele>66.0</ele><time>2026-03-25T08:47:46.999Z</time></trkpt><trkpt lat="37.24456816036704" lon="13.674450176944362"><ele>66.0</ele><time>2026-03-25T08:47:47.999Z</time></trkpt><trkpt lat="37.244698812765" lon="13.674641316690703"><ele>67.0</ele><time>2026-03-25T08:47:48.999Z</time></trkpt><trkpt lat="37.244831018983874" lon="13.67483222128823"><ele>68.0</ele><time>2026-03-25T08:47:49.999Z</time></trkpt><trkpt lat="37.24496692961634" lon="13.67502330805316"><ele>69.0</ele><time>2026-03-25T08:47:50.999Z</time></trkpt><trkpt lat="37.245102415218476" lon="13.67521761257676"><ele>69.66666666666667</ele><time>2026-03-25T08:47:51.999Z</time></trkpt><trkpt lat="37.24523853181104" lon="13.675417041439811"><ele>70.33333333333334</ele><time>2026-03-25T08:47:52.999Z</time></trkpt><trkpt lat="37.24537661452648" lon="13.675620029961358"><ele>71.0</ele><time>2026-03-25T08:47:53.999Z</time></trkpt><trkpt lat="37.245515028415085" lon="13.675820711118249"><ele>71.0</ele><time>2026-03-25T08:47:54.999Z</time></trkpt><trkpt lat="37.24565470654678" lon="13.676022441284836"><ele>71.0</ele><time>2026-03-25T08:47:55.999Z</time></trkpt><trkpt lat="37.24579523613784" lon="13.67622508897333"><ele>71.0</ele><time>2026-03-25T08:47:56.999Z</time></trkpt><trkpt lat="37.245939241461954" lon="13.67642928946322"><ele>71.0</ele><time>2026-03-25T08:47:57.999Z</time></trkpt><trkpt lat="37.246082989027755" lon="13.67663308446511"><ele>71.0</ele><time>2026-03-25T08:47:58.999Z</time></trkpt><trkpt lat="37.24622791358301" lon="13.676839289312476"><ele>71.0</ele><time>2026-03-25T08:47:59.999Z</time></trkpt><trkpt lat="37.24637186764226" lon="13.677047556486459"><ele>71.33333333333334</ele><time>2026-03-25T08:48:00.999Z</time></trkpt><trkpt lat="37.24651720188746" lon="13.677258716917764"><ele>71.66666666666667</ele><time>2026-03-25T08:48:01.999Z</time></trkpt><trkpt lat="37.246662995527515" lon="13.677471281746586"><ele>72.0</ele><time>2026-03-25T08:48:02.999Z</time></trkpt><trkpt lat="37.24681103638409" lon="13.677683460512696"><ele>73.0</ele><time>2026-03-25T08:48:03.999Z</time></trkpt><trkpt lat="37.246961579612226" lon="13.677894059093132"><ele>74.0</ele><time>2026-03-25T08:48:04.999Z</time></trkpt><trkpt lat="37.24711191971984" lon="13.67810682617467"><ele>74.0</ele><time>2026-03-25T08:48:05.999Z</time></trkpt><trkpt lat="37.24726196062384" lon="13.67832352148749"><ele>74.0</ele><time>2026-03-25T08:48:06.999Z</time></trkpt><trkpt lat="37.247412120466926" lon="13.678540009773558"><ele>75.5</ele><time>2026-03-25T08:48:07.999Z</time></trkpt><trkpt lat="37.24756269489616" lon="13.678756767137227"><ele>77.0</ele><time>2026-03-25T08:48:08.999Z</time></trkpt><trkpt lat="37.24771248294769" lon="13.678972347908681"><ele>77.0</ele><time>2026-03-25T08:48:09.999Z</time></trkpt><trkpt lat="37.24786269393042" lon="13.679188822164464"><ele>77.0</ele><time>2026-03-25T08:48:10.999Z</time></trkpt><trkpt lat="37.24801200090499" lon="13.679403169744106"><ele>77.66666666666667</ele><time>2026-03-25T08:48:11.999Z</time></trkpt><trkpt lat="37.2481566400215" lon="13.679612951292986"><ele>78.33333333333333</ele><time>2026-03-25T08:48:12.999Z</time></trkpt><trkpt lat="37.248297406773126" lon="13.679822190874475"><ele>79.0</ele><time>2026-03-25T08:48:13.999Z</time></trkpt><trkpt lat="37.248432482025784" lon="13.680039519395972"><ele>79.66666666666666</ele><time>2026-03-25T08:48:14.999Z</time></trkpt><trkpt lat="37.248551338850234" lon="13.680276321697306"><ele>80.33333333333333</ele><time>2026-03-25T08:48:15.999Z</time></trkpt><trkpt lat="37.24864396519009" lon="13.680531354726794"><ele>81.0</ele><time>2026-03-25T08:48:16.999Z</time></trkpt><trkpt lat="37.24871019361413" lon="13.680801110532187"><ele>81.0</ele><time>2026-03-25T08:48:17.999Z</time></trkpt><trkpt lat="37.24875091751848" lon="13.681081237404609"><ele>81.0</ele><time>2026-03-25T08:48:18.999Z</time></trkpt><trkpt lat="37.24876557994217" lon="13.681365525159205"><ele>82.5</ele><time>2026-03-25T08:48:19.999Z</time></trkpt><trkpt lat="37.248755390090146" lon="13.681653513223992"><ele>84.0</ele><time>2026-03-25T08:48:20.999Z</time></trkpt><trkpt lat="37.248718053752185" lon="13.6819400627181"><ele>86.0</ele><time>2026-03-25T08:48:21.999Z</time></trkpt><trkpt lat="37.24865367827707" lon="13.682218518458669"><ele>88.0</ele><time>2026-03-25T08:48:22.999Z</time></trkpt><trkpt lat="37.24856810875797" lon="13.682488843620561"><ele>88.0</ele><time>2026-03-25T08:48:23.999Z</time></trkpt><trkpt lat="37.24846009238883" lon="13.682753191931077"><ele>88.0</ele><time>2026-03-25T08:48:24.999Z</time></trkpt><trkpt lat="37.24835315885736" lon="13.68302449908911"><ele>88.5</ele><time>2026-03-25T08:48:25.999Z</time></trkpt><trkpt lat="37.24825873790278" lon="13.683298508861007"><ele>89.0</ele><time>2026-03-25T08:48:26.999Z</time></trkpt><trkpt lat="37.2481841745397" lon="13.6835775392434"><ele>87.0</ele><time>2026-03-25T08:48:27.999Z</time></trkpt><trkpt lat="37.24812053049823" lon="13.683863014379197"><ele>85.0</ele><time>2026-03-25T08:48:28.999Z</time></trkpt><trkpt lat="37.24806371517196" lon="13.684149863348573"><ele>85.5</ele><time>2026-03-25T08:48:29.999Z</time></trkpt><trkpt lat="37.24801445905352" lon="13.684438325433868"><ele>86.0</ele><time>2026-03-25T08:48:30.999Z</time></trkpt><trkpt lat="37.247975033088615" lon="13.684725810879169"><ele>86.0</ele><time>2026-03-25T08:48:31.999Z</time></trkpt><trkpt lat="37.247943573592714" lon="13.685013732113681"><ele>86.0</ele><time>2026-03-25T08:48:32.999Z</time></trkpt><trkpt lat="37.247927284060495" lon="13.685299590415834"><ele>87.0</ele><time>2026-03-25T08:48:33.999Z</time></trkpt><trkpt lat="37.247924748427934" lon="13.685587635358814"><ele>88.0</ele><time>2026-03-25T08:48:34.999Z</time></trkpt><trkpt lat="37.247938219343986" lon="13.685879480467326"><ele>88.0</ele><time>2026-03-25T08:48:35.999Z</time></trkpt><trkpt lat="37.24796675784529" lon="13.686175626816134"><ele>88.0</ele><time>2026-03-25T08:48:36.999Z</time></trkpt><trkpt lat="37.24801072447921" lon="13.686475277870992"><ele>88.0</ele><time>2026-03-25T08:48:37.999Z</time></trkpt><trkpt lat="37.248068369583464" lon="13.686772819829292"><ele>88.0</ele><time>2026-03-25T08:48:38.999Z</time></trkpt><trkpt lat="37.24814209209666" lon="13.687069519425037"><ele>91.0</ele><time>2026-03-25T08:48:39.999Z</time></trkpt><trkpt lat="37.24822633918143" lon="13.687361538068718"><ele>94.0</ele><time>2026-03-25T08:48:40.999Z</time></trkpt><trkpt lat="37.248319180026535" lon="13.687650565290124"><ele>95.0</ele><time>2026-03-25T08:48:41.999Z</time></trkpt><trkpt lat="37.248412554609864" lon="13.687941372770464"><ele>96.0</ele><time>2026-03-25T08:48:43Z</time></trkpt><trkpt lat="37.24850321292879" lon="13.688230940402903"><ele>96.0</ele><time>2026-03-25T08:48:44Z</time></trkpt><trkpt lat="37.248592231469026" lon="13.68851885015005"><ele>96.0</ele><time>2026-03-25T08:48:45Z</time></trkpt><trkpt lat="37.24868126949797" lon="13.688808780515151"><ele>96.0</ele><time>2026-03-25T08:48:46Z</time></trkpt><trkpt lat="37.24876891797104" lon="13.689094069252906"><ele>96.0</ele><time>2026-03-25T08:48:47Z</time></trkpt><trkpt lat="37.24885753418687" lon="13.689377752459679"><ele>96.0</ele><time>2026-03-25T08:48:48Z</time></trkpt><trkpt lat="37.24894658827691" lon="13.68966046307358"><ele>96.0</ele><time>2026-03-25T08:48:49Z</time></trkpt><trkpt lat="37.249034570471856" lon="13.689944522332302"><ele>99.5</ele><time>2026-03-25T08:48:50Z</time></trkpt><trkpt lat="37.2491228721853" lon="13.69022677428459"><ele>103.0</ele><time>2026-03-25T08:48:51Z</time></trkpt><trkpt lat="37.249210349573424" lon="13.690509243970286"><ele>103.5</ele><time>2026-03-25T08:48:52Z</time></trkpt><trkpt lat="37.249296732329036" lon="13.690788683236221"><ele>104.0</ele><time>2026-03-25T08:48:53Z</time></trkpt><trkpt lat="37.24938221400591" lon="13.691066700946399"><ele>104.0</ele><time>2026-03-25T08:48:54Z</time></trkpt><trkpt lat="37.24946624142566" lon="13.691342097020582"><ele>104.0</ele><time>2026-03-25T08:48:55Z</time></trkpt><trkpt lat="37.24954738799854" lon="13.691612175389915"><ele>104.0</ele><time>2026-03-25T08:48:56Z</time></trkpt><trkpt lat="37.24962222754665" lon="13.691863663162978"><ele>104.0</ele><time>2026-03-25T08:48:57Z</time></trkpt><trkpt lat="37.24969465923671" lon="13.692104560625634"><ele>104.0</ele><time>2026-03-25T08:48:58Z</time></trkpt><trkpt lat="37.24976840392326" lon="13.692345545814858"><ele>106.0</ele><time>2026-03-25T08:48:59Z</time></trkpt><trkpt lat="37.249841799546786" lon="13.692585695711985"><ele>108.0</ele><time>2026-03-25T08:49:00Z</time></trkpt><trkpt lat="37.249919696314" lon="13.692826645644535"><ele>110.0</ele><time>2026-03-25T08:49:01Z</time></trkpt><trkpt lat="37.25001212283069" lon="13.69306267869752"><ele>110.0</ele><time>2026-03-25T08:49:02Z</time></trkpt><trkpt lat="37.250122379236714" lon="13.69329283840947"><ele>110.0</ele><time>2026-03-25T08:49:03Z</time></trkpt><trkpt lat="37.25024790798504" lon="13.69352050013738"><ele>110.0</ele><time>2026-03-25T08:49:04Z</time></trkpt><trkpt lat="37.25037939968305" lon="13.693746140014843"><ele>109.5</ele><time>2026-03-25T08:49:05Z</time></trkpt><trkpt lat="37.25051882359998" lon="13.693978500974529"><ele>109.0</ele><time>2026-03-25T08:49:06Z</time></trkpt><trkpt lat="37.25065521855005" lon="13.694215585442633"><ele>113.5</ele><time>2026-03-25T08:49:07Z</time></trkpt><trkpt lat="37.25078995197563" lon="13.694447623293566"><ele>118.0</ele><time>2026-03-25T08:49:08Z</time></trkpt><trkpt lat="37.25092817679026" lon="13.694683079856148"><ele>118.0</ele><time>2026-03-25T08:49:09Z</time></trkpt><trkpt lat="37.251066670888264" lon="13.694915585016082"><ele>118.0</ele><time>2026-03-25T08:49:10Z</time></trkpt><trkpt lat="37.25120017811599" lon="13.695141530412602"><ele>118.33333333333334</ele><time>2026-03-25T08:49:11Z</time></trkpt><trkpt lat="37.25131888463774" lon="13.695374403544767"><ele>118.66666666666666</ele><time>2026-03-25T08:49:12Z</time></trkpt><trkpt lat="37.251413622189546" lon="13.695619657683688"><ele>119.0</ele><time>2026-03-25T08:49:13Z</time></trkpt><trkpt lat="37.251481943900664" lon="13.695880032172742"><ele>123.66666666666666</ele><time>2026-03-25T08:49:14Z</time></trkpt><trkpt lat="37.251522795664" lon="13.696151983822732"><ele>128.33333333333334</ele><time>2026-03-25T08:49:15Z</time></trkpt><trkpt lat="37.25154410537811" lon="13.696425475143062"><ele>133.0</ele><time>2026-03-25T08:49:16Z</time></trkpt><trkpt lat="37.25156325718672" lon="13.696707391645173"><ele>133.0</ele><time>2026-03-25T08:49:17Z</time></trkpt><trkpt lat="37.251595034400566" lon="13.696982903300542"><ele>133.0</ele><time>2026-03-25T08:49:18Z</time></trkpt><trkpt lat="37.25164019677031" lon="13.697246643916245"><ele>133.0</ele><time>2026-03-25T08:49:19Z</time></trkpt><trkpt lat="37.251703430919605" lon="13.69748864310167"><ele>133.0</ele><time>2026-03-25T08:49:20Z</time></trkpt><trkpt lat="37.25179604708656" lon="13.697718581773193"><ele>133.0</ele><time>2026-03-25T08:49:21Z</time></trkpt><trkpt lat="37.251913007170565" lon="13.697939774847848"><ele>133.0</ele><time>2026-03-25T08:49:22Z</time></trkpt><trkpt lat="37.25205614330254" lon="13.698146654663754"><ele>136.0</ele><time>2026-03-25T08:49:23Z</time></trkpt><trkpt lat="37.25222462597835" lon="13.698339709897354"><ele>139.0</ele><time>2026-03-25T08:49:24Z</time></trkpt><trkpt lat="37.25239840544337" lon="13.698527863641186"><ele>135.0</ele><time>2026-03-25T08:49:25Z</time></trkpt><trkpt lat="37.252564974440155" lon="13.698711388324252"><ele>131.0</ele><time>2026-03-25T08:49:26Z</time></trkpt><trkpt lat="37.25272267324712" lon="13.698896793091874"><ele>127.0</ele><time>2026-03-25T08:49:27Z</time></trkpt><trkpt lat="37.2528680600194" lon="13.69906786992429"><ele>127.0</ele><time>2026-03-25T08:49:28Z</time></trkpt><trkpt lat="37.253005061659" lon="13.699231070674328"><ele>127.0</ele><time>2026-03-25T08:49:29Z</time></trkpt><trkpt lat="37.25313296093788" lon="13.699410656331361"><ele>127.0</ele><time>2026-03-25T08:49:30Z</time></trkpt><trkpt lat="37.25324022869741" lon="13.69961986014569"><ele>128.66666666666669</ele><time>2026-03-25T08:49:31Z</time></trkpt><trkpt lat="37.25332312675608" lon="13.699849418598992"><ele>130.33333333333334</ele><time>2026-03-25T08:49:32Z</time></trkpt><trkpt lat="37.253381007247306" lon="13.700093271033582"><ele>132.0</ele><time>2026-03-25T08:49:33Z</time></trkpt><trkpt lat="37.25341248206389" lon="13.700349177396403"><ele>132.0</ele><time>2026-03-25T08:49:34Z</time></trkpt><trkpt lat="37.25341402601467" lon="13.700606273340592"><ele>132.0</ele><time>2026-03-25T08:49:34.999Z</time></trkpt><trkpt lat="37.2533940670619" lon="13.700873144333663"><ele>132.0</ele><time>2026-03-25T08:49:35.999Z</time></trkpt><trkpt lat="37.25336481789164" lon="13.70114811018853"><ele>132.0</ele><time>2026-03-25T08:49:36.999Z</time></trkpt><trkpt lat="37.2533346427131" lon="13.701428244285264"><ele>132.0</ele><time>2026-03-25T08:49:37.999Z</time></trkpt><trkpt lat="37.253308929591704" lon="13.70171132922277"><ele>130.5</ele><time>2026-03-25T08:49:38.999Z</time></trkpt><trkpt lat="37.25328881464418" lon="13.701993489898182"><ele>129.0</ele><time>2026-03-25T08:49:39.999Z</time></trkpt><trkpt lat="37.25326527701062" lon="13.702273862415849"><ele>129.0</ele><time>2026-03-25T08:49:40.999Z</time></trkpt><trkpt lat="37.25323506824719" lon="13.702549168426339"><ele>129.0</ele><time>2026-03-25T08:49:41.999Z</time></trkpt><trkpt lat="37.25319100082346" lon="13.70282167525442"><ele>129.0</ele><time>2026-03-25T08:49:42.999Z</time></trkpt><trkpt lat="37.25313607811051" lon="13.70309026345939"><ele>128.33333333333334</ele><time>2026-03-25T08:49:43.999Z</time></trkpt><trkpt lat="37.25307219163989" lon="13.703355627138434"><ele>127.66666666666667</ele><time>2026-03-25T08:49:44.999Z</time></trkpt><trkpt lat="37.253012222839956" lon="13.703622465076734"><ele>127.0</ele><time>2026-03-25T08:49:45.999Z</time></trkpt><trkpt lat="37.25295808254017" lon="13.703884556738469"><ele>128.0</ele><time>2026-03-25T08:49:46.999Z</time></trkpt><trkpt lat="37.25290522435354" lon="13.70414399544862"><ele>129.0</ele><time>2026-03-25T08:49:47.999Z</time></trkpt><trkpt lat="37.25285325493541" lon="13.704393816689599"><ele>130.0</ele><time>2026-03-25T08:49:48.999Z</time></trkpt><trkpt lat="37.252802729204454" lon="13.704631114278852"><ele>130.0</ele><time>2026-03-25T08:49:49.999Z</time></trkpt><trkpt lat="37.2527553469256" lon="13.70485133878739"><ele>130.0</ele><time>2026-03-25T08:49:50.999Z</time></trkpt><trkpt lat="37.252713584020846" lon="13.705065035500061"><ele>130.0</ele><time>2026-03-25T08:49:51.999Z</time></trkpt><trkpt lat="37.25268356065961" lon="13.705278346091191"><ele>130.33333333333334</ele><time>2026-03-25T08:49:52.999Z</time></trkpt><trkpt lat="37.25267499845375" lon="13.705490955244972"><ele>130.66666666666666</ele><time>2026-03-25T08:49:53.999Z</time></trkpt><trkpt lat="37.252691782795665" lon="13.705706330737911"><ele>131.0</ele><time>2026-03-25T08:49:54.999Z</time></trkpt><trkpt lat="37.25273208861462" lon="13.705922344955535"><ele>131.0</ele><time>2026-03-25T08:49:55.999Z</time></trkpt><trkpt lat="37.252793828362385" lon="13.706133750164101"><ele>131.0</ele><time>2026-03-25T08:49:56.999Z</time></trkpt><trkpt lat="37.252870594786025" lon="13.706345635800188"><ele>131.0</ele><time>2026-03-25T08:49:57.999Z</time></trkpt><trkpt lat="37.252970511194796" lon="13.70654546920528"><ele>131.0</ele><time>2026-03-25T08:49:58.999Z</time></trkpt><trkpt lat="37.25309741212981" lon="13.706727360292096"><ele>131.0</ele><time>2026-03-25T08:49:59.999Z</time></trkpt><trkpt lat="37.253242824399834" lon="13.706888570826681"><ele>131.0</ele><time>2026-03-25T08:50:00.999Z</time></trkpt><trkpt lat="37.25340614006854" lon="13.70702857666066"><ele>131.66666666666666</ele><time>2026-03-25T08:50:01.999Z</time></trkpt><trkpt lat="37.253584863774066" lon="13.707133699182586"><ele>132.33333333333334</ele><time>2026-03-25T08:50:02.999Z</time></trkpt><trkpt lat="37.25376610729943" lon="13.707219937283163"><ele>133.0</ele><time>2026-03-25T08:50:03.999Z</time></trkpt><trkpt lat="37.253944079853106" lon="13.707314952489"><ele>134.33333333333334</ele><time>2026-03-25T08:50:04.999Z</time></trkpt><trkpt lat="37.25409994891579" lon="13.707449609569391"><ele>135.66666666666666</ele><time>2026-03-25T08:50:05.999Z</time></trkpt><trkpt lat="37.254237229840825" lon="13.707619163879778"><ele>137.0</ele><time>2026-03-25T08:50:06.999Z</time></trkpt><trkpt lat="37.25434835262389" lon="13.707829719328538"><ele>137.0</ele><time>2026-03-25T08:50:08Z</time></trkpt><trkpt lat="37.25443848742806" lon="13.70806174067444"><ele>137.0</ele><time>2026-03-25T08:50:09Z</time></trkpt><trkpt lat="37.25451680076078" lon="13.708311370528532"><ele>137.0</ele><time>2026-03-25T08:50:10Z</time></trkpt><trkpt lat="37.25458919145435" lon="13.708563580953589"><ele>137.0</ele><time>2026-03-25T08:50:11Z</time></trkpt><trkpt lat="37.254634378581706" lon="13.708827394494602"><ele>137.0</ele><time>2026-03-25T08:50:12Z</time></trkpt><trkpt lat="37.25465256031566" lon="13.70910333702782"><ele>137.0</ele><time>2026-03-25T08:50:13Z</time></trkpt><trkpt lat="37.254656519276324" lon="13.70939024060564"><ele>137.5</ele><time>2026-03-25T08:50:14Z</time></trkpt><trkpt lat="37.25466213740501" lon="13.709686948454676"><ele>138.0</ele><time>2026-03-25T08:50:15Z</time></trkpt><trkpt lat="37.25467678121288" lon="13.709981071336914"><ele>139.0</ele><time>2026-03-25T08:50:16Z</time></trkpt><trkpt lat="37.254690648527244" lon="13.710275512223873"><ele>140.0</ele><time>2026-03-25T08:50:17Z</time></trkpt><trkpt lat="37.25470015362114" lon="13.710567666098552"><ele>140.0</ele><time>2026-03-25T08:50:18Z</time></trkpt><trkpt lat="37.25470799959652" lon="13.710860147751976"><ele>140.0</ele><time>2026-03-25T08:50:19Z</time></trkpt><trkpt lat="37.25471809264893" lon="13.711150323367807"><ele>141.0</ele><time>2026-03-25T08:50:20Z</time></trkpt><trkpt lat="37.25473049986555" lon="13.71143769718457"><ele>142.0</ele><time>2026-03-25T08:50:21Z</time></trkpt><trkpt lat="37.254743650834165" lon="13.71172183567541"><ele>146.5</ele><time>2026-03-25T08:50:22Z</time></trkpt><trkpt lat="37.254757431186285" lon="13.712004644922231"><ele>151.0</ele><time>2026-03-25T08:50:23Z</time></trkpt><trkpt lat="37.25477158959681" lon="13.712285512764584"><ele>151.0</ele><time>2026-03-25T08:50:24Z</time></trkpt><trkpt lat="37.25478433642463" lon="13.712563881094148"><ele>151.0</ele><time>2026-03-25T08:50:25Z</time></trkpt><trkpt lat="37.25479387346288" lon="13.7128399031403"><ele>151.0</ele><time>2026-03-25T08:50:26Z</time></trkpt><trkpt lat="37.254801468038295" lon="13.713118105345814"><ele>157.0</ele><time>2026-03-25T08:50:27Z</time></trkpt><trkpt lat="37.25480584371989" lon="13.713396064792688"><ele>163.0</ele><time>2026-03-25T08:50:28Z</time></trkpt><trkpt lat="37.2547989770008" lon="13.71367310155276"><ele>169.0</ele><time>2026-03-25T08:50:29Z</time></trkpt><trkpt lat="37.25477528262019" lon="13.713948950061086"><ele>169.0</ele><time>2026-03-25T08:50:30Z</time></trkpt><trkpt lat="37.25473926723698" lon="13.71421831612884"><ele>169.0</ele><time>2026-03-25T08:50:31Z</time></trkpt><trkpt lat="37.25469641466062" lon="13.714477008336445"><ele>169.0</ele><time>2026-03-25T08:50:32Z</time></trkpt><trkpt lat="37.254650674805475" lon="13.71470997147415"><ele>166.66666666666669</ele><time>2026-03-25T08:50:33Z</time></trkpt><trkpt lat="37.254614810075786" lon="13.714914392050899"><ele>164.33333333333334</ele><time>2026-03-25T08:50:34Z</time></trkpt><trkpt lat="37.2546083461979" lon="13.715101378921453"><ele>162.0</ele><time>2026-03-25T08:50:35Z</time></trkpt><trkpt lat="37.25464593212358" lon="13.715277704170663"><ele>162.0</ele><time>2026-03-25T08:50:36Z</time></trkpt><trkpt lat="37.25472967596398" lon="13.715443985191104"><ele>162.0</ele><time>2026-03-25T08:50:37Z</time></trkpt><trkpt lat="37.25485265832587" lon="13.71557872482187"><ele>162.0</ele><time>2026-03-25T08:50:38Z</time></trkpt><trkpt lat="37.25501153802293" lon="13.715677221249429"><ele>164.66666666666666</ele><time>2026-03-25T08:50:39Z</time></trkpt><trkpt lat="37.25519243393262" lon="13.715756901863193"><ele>167.33333333333331</ele><time>2026-03-25T08:50:40Z</time></trkpt><trkpt lat="37.25537229360934" lon="13.715843188937283"><ele>170.0</ele><time>2026-03-25T08:50:41Z</time></trkpt><trkpt lat="37.25554974769176" lon="13.71593734252572"><ele>174.0</ele><time>2026-03-25T08:50:42Z</time></trkpt><trkpt lat="37.255722890408194" lon="13.716026796977044"><ele>178.0</ele><time>2026-03-25T08:50:43Z</time></trkpt><trkpt lat="37.255898078422824" lon="13.716117052983373"><ele>182.0</ele><time>2026-03-25T08:50:44Z</time></trkpt><trkpt lat="37.256072736932225" lon="13.716206036451924"><ele>174.33333333333331</ele><time>2026-03-25T08:50:45Z</time></trkpt><trkpt lat="37.256253868656394" lon="13.716290314797824"><ele>166.66666666666666</ele><time>2026-03-25T08:50:46Z</time></trkpt><trkpt lat="37.25643834035609" lon="13.716358897479347"><ele>159.0</ele><time>2026-03-25T08:50:47Z</time></trkpt><trkpt lat="37.256623140988296" lon="13.716413613151285"><ele>159.0</ele><time>2026-03-25T08:50:48Z</time></trkpt><trkpt lat="37.25680915312124" lon="13.7164637304184"><ele>159.0</ele><time>2026-03-25T08:50:49Z</time></trkpt><trkpt lat="37.25699405642926" lon="13.716515153248489"><ele>159.0</ele><time>2026-03-25T08:50:50Z</time></trkpt><trkpt lat="37.25717556015217" lon="13.716570264942376"><ele>163.0</ele><time>2026-03-25T08:50:51Z</time></trkpt><trkpt lat="37.257350779341046" lon="13.716637733098379"><ele>167.0</ele><time>2026-03-25T08:50:52Z</time></trkpt><trkpt lat="37.257515137687754" lon="13.716731739604501"><ele>171.0</ele><time>2026-03-25T08:50:53Z</time></trkpt><trkpt lat="37.2576726080667" lon="13.716850276231396"><ele>164.66666666666666</ele><time>2026-03-25T08:50:54Z</time></trkpt><trkpt lat="37.25782671122985" lon="13.716981687245509"><ele>158.33333333333331</ele><time>2026-03-25T08:50:55Z</time></trkpt><trkpt lat="37.257973637594" lon="13.71712976659152"><ele>152.0</ele><time>2026-03-25T08:50:56Z</time></trkpt><trkpt lat="37.258108879681714" lon="13.717296962163395"><ele>155.0</ele><time>2026-03-25T08:50:57Z</time></trkpt><trkpt lat="37.25822818668519" lon="13.71748318343881"><ele>158.0</ele><time>2026-03-25T08:50:58Z</time></trkpt><trkpt lat="37.258338212183176" lon="13.717693950687966"><ele>161.0</ele><time>2026-03-25T08:50:59Z</time></trkpt><trkpt lat="37.258446880131025" lon="13.717911327977248"><ele>161.0</ele><time>2026-03-25T08:51:00Z</time></trkpt><trkpt lat="37.258557807038194" lon="13.718136116731408"><ele>161.0</ele><time>2026-03-25T08:51:01Z</time></trkpt><trkpt lat="37.25866918026342" lon="13.718365268475274"><ele>161.0</ele><time>2026-03-25T08:51:02Z</time></trkpt><trkpt lat="37.25877758813798" lon="13.718595197030227"><ele>163.66666666666666</ele><time>2026-03-25T08:51:03Z</time></trkpt><trkpt lat="37.25887417873042" lon="13.718826161109593"><ele>166.33333333333334</ele><time>2026-03-25T08:51:04Z</time></trkpt><trkpt lat="37.2589689064809" lon="13.719051590585005"><ele>169.0</ele><time>2026-03-25T08:51:05Z</time></trkpt><trkpt lat="37.259070446630695" lon="13.719259098279853"><ele>168.0</ele><time>2026-03-25T08:51:06Z</time></trkpt><trkpt lat="37.25919831288783" lon="13.71943727754223"><ele>167.0</ele><time>2026-03-25T08:51:07Z</time></trkpt><trkpt lat="37.25935650194876" lon="13.719580489345308"><ele>166.0</ele><time>2026-03-25T08:51:08Z</time></trkpt><trkpt lat="37.25953526051449" lon="13.719695813633802"><ele>166.0</ele><time>2026-03-25T08:51:09Z</time></trkpt><trkpt lat="37.25972974296056" lon="13.719783822243434"><ele>166.0</ele><time>2026-03-25T08:51:10Z</time></trkpt><trkpt lat="37.259933789815335" lon="13.71985280581602"><ele>166.0</ele><time>2026-03-25T08:51:11Z</time></trkpt><trkpt lat="37.26013954054029" lon="13.719923373284228"><ele>169.33333333333334</ele><time>2026-03-25T08:51:12Z</time></trkpt><trkpt lat="37.260341931968114" lon="13.720000089847304"><ele>172.66666666666666</ele><time>2026-03-25T08:51:13Z</time></trkpt><trkpt lat="37.26054244339839" lon="13.720077728427908"><ele>176.0</ele><time>2026-03-25T08:51:14Z</time></trkpt><trkpt lat="37.26074213592919" lon="13.720154039666268"><ele>174.33333333333331</ele><time>2026-03-25T08:51:15Z</time></trkpt><trkpt lat="37.26094170954735" lon="13.720227353143882"><ele>172.66666666666666</ele><time>2026-03-25T08:51:16Z</time></trkpt><trkpt lat="37.26113993159993" lon="13.720302600689681"><ele>171.0</ele><time>2026-03-25T08:51:17Z</time></trkpt><trkpt lat="37.26133154646954" lon="13.720395153196447"><ele>177.0</ele><time>2026-03-25T08:51:18Z</time></trkpt><trkpt lat="37.26151430689639" lon="13.720511818001523"><ele>183.0</ele><time>2026-03-25T08:51:19Z</time></trkpt><trkpt lat="37.26168630456819" lon="13.720653821446346"><ele>189.0</ele><time>2026-03-25T08:51:20Z</time></trkpt><trkpt lat="37.26184489132399" lon="13.72082574837579"><ele>189.0</ele><time>2026-03-25T08:51:21Z</time></trkpt><trkpt lat="37.261994618639854" lon="13.721025912378888"><ele>189.0</ele><time>2026-03-25T08:51:22Z</time></trkpt><trkpt lat="37.26213886505119" lon="13.721244597299558"><ele>189.0</ele><time>2026-03-25T08:51:23Z</time></trkpt><trkpt lat="37.262285543235144" lon="13.721464684820324"><ele>189.66666666666666</ele><time>2026-03-25T08:51:24Z</time></trkpt><trkpt lat="37.26243275327649" lon="13.721680008715968"><ele>190.33333333333331</ele><time>2026-03-25T08:51:25Z</time></trkpt><trkpt lat="37.26257998244867" lon="13.721891415929846"><ele>191.0</ele><time>2026-03-25T08:51:26Z</time></trkpt><trkpt lat="37.26272685904397" lon="13.72209901654055"><ele>191.0</ele><time>2026-03-25T08:51:27Z</time></trkpt><trkpt lat="37.2628683387101" lon="13.722303479887467"><ele>191.0</ele><time>2026-03-25T08:51:28Z</time></trkpt><trkpt lat="37.26300123658252" lon="13.722502906567025"><ele>191.0</ele><time>2026-03-25T08:51:29Z</time></trkpt><trkpt lat="37.26312840525404" lon="13.72269684996939"><ele>194.66666666666666</ele><time>2026-03-25T08:51:30Z</time></trkpt><trkpt lat="37.263251478734894" lon="13.722884538437457"><ele>198.33333333333331</ele><time>2026-03-25T08:51:31Z</time></trkpt><trkpt lat="37.263369776792835" lon="13.7230630060698"><ele>202.0</ele><time>2026-03-25T08:51:32Z</time></trkpt><trkpt lat="37.26348483058831" lon="13.723233828012681"><ele>202.0</ele><time>2026-03-25T08:51:33Z</time></trkpt><trkpt lat="37.26359823682872" lon="13.723403804554263"><ele>202.0</ele><time>2026-03-25T08:51:34Z</time></trkpt><trkpt lat="37.2637135255314" lon="13.723572327283922"><ele>202.0</ele><time>2026-03-25T08:51:35Z</time></trkpt><trkpt lat="37.26383048361521" lon="13.723740607210836"><ele>201.66666666666666</ele><time>2026-03-25T08:51:36Z</time></trkpt><trkpt lat="37.263945651874934" lon="13.723910084491713"><ele>201.33333333333331</ele><time>2026-03-25T08:51:37Z</time></trkpt><trkpt lat="37.264061898274" lon="13.724085598847411"><ele>201.0</ele><time>2026-03-25T08:51:38Z</time></trkpt><trkpt lat="37.26417953583126" lon="13.724259225852478"><ele>206.66666666666669</ele><time>2026-03-25T08:51:39Z</time></trkpt><trkpt lat="37.2642972648783" lon="13.724431637297036"><ele>212.33333333333334</ele><time>2026-03-25T08:51:40Z</time></trkpt><trkpt lat="37.264415419073714" lon="13.724602565261323"><ele>218.0</ele><time>2026-03-25T08:51:40.999Z</time></trkpt><trkpt lat="37.264531112654325" lon="13.72477233184118"><ele>218.0</ele><time>2026-03-25T08:51:41.999Z</time></trkpt><trkpt lat="37.26464817309192" lon="13.724947653310245"><ele>218.0</ele><time>2026-03-25T08:51:42.999Z</time></trkpt><trkpt lat="37.26477102280766" lon="13.725121017496557"><ele>218.0</ele><time>2026-03-25T08:51:43.999Z</time></trkpt><trkpt lat="37.26489805451958" lon="13.725288428149264"><ele>221.0</ele><time>2026-03-25T08:51:44.999Z</time></trkpt><trkpt lat="37.26503400398463" lon="13.725443944158457"><ele>224.0</ele><time>2026-03-25T08:51:45.999Z</time></trkpt><trkpt lat="37.26518408790334" lon="13.725589288520254"><ele>227.0</ele><time>2026-03-25T08:51:46.999Z</time></trkpt><trkpt lat="37.26534257901073" lon="13.725729408694004"><ele>227.0</ele><time>2026-03-25T08:51:47.999Z</time></trkpt><trkpt lat="37.26550815636451" lon="13.725862003849088"><ele>227.0</ele><time>2026-03-25T08:51:48.999Z</time></trkpt><trkpt lat="37.2656779484875" lon="13.725990345158458"><ele>227.0</ele><time>2026-03-25T08:51:49.999Z</time></trkpt><trkpt lat="37.26584515002079" lon="13.726124027656358"><ele>231.0</ele><time>2026-03-25T08:51:50.999Z</time></trkpt><trkpt lat="37.26600944799359" lon="13.726261926199072"><ele>235.0</ele><time>2026-03-25T08:51:51.999Z</time></trkpt><trkpt lat="37.266167815138644" lon="13.726401796997164"><ele>239.0</ele><time>2026-03-25T08:51:52.999Z</time></trkpt><trkpt lat="37.26631804149967" lon="13.72655305534971"><ele>241.66666666666669</ele><time>2026-03-25T08:51:53.999Z</time></trkpt><trkpt lat="37.26645859487416" lon="13.726719816412672"><ele>244.33333333333331</ele><time>2026-03-25T08:51:54.999Z</time></trkpt><trkpt lat="37.26658576752495" lon="13.726903396181148"><ele>247.0</ele><time>2026-03-25T08:51:55.999Z</time></trkpt><trkpt lat="37.266700322348974" lon="13.727108535606277"><ele>247.0</ele><time>2026-03-25T08:51:56.999Z</time></trkpt><trkpt lat="37.26680896043359" lon="13.7273285794144"><ele>247.0</ele><time>2026-03-25T08:51:57.999Z</time></trkpt><trkpt lat="37.26691502349212" lon="13.72756138885042"><ele>247.0</ele><time>2026-03-25T08:51:58.999Z</time></trkpt><trkpt lat="37.26702098618797" lon="13.727799082075645"><ele>248.66666666666666</ele><time>2026-03-25T08:51:59.999Z</time></trkpt><trkpt lat="37.267128177605365" lon="13.728041930505361"><ele>250.33333333333331</ele><time>2026-03-25T08:52:00.999Z</time></trkpt><trkpt lat="37.26723640256183" lon="13.728285861189228"><ele>252.0</ele><time>2026-03-25T08:52:01.999Z</time></trkpt><trkpt lat="37.267347211758064" lon="13.72852473337789"><ele>252.0</ele><time>2026-03-25T08:52:02.999Z</time></trkpt><trkpt lat="37.26745453721376" lon="13.728765534305634"><ele>252.0</ele><time>2026-03-25T08:52:03.999Z</time></trkpt><trkpt lat="37.26755883110388" lon="13.72899843449563"><ele>252.0</ele><time>2026-03-25T08:52:04.999Z</time></trkpt><trkpt lat="37.26766438493778" lon="13.729228670262236"><ele>252.0</ele><time>2026-03-25T08:52:05.999Z</time></trkpt><trkpt lat="37.26777006012236" lon="13.729462147046421"><ele>252.0</ele><time>2026-03-25T08:52:06.999Z</time></trkpt><trkpt lat="37.26787313987965" lon="13.72969667735007"><ele>252.0</ele><time>2026-03-25T08:52:07.999Z</time></trkpt><trkpt lat="37.26797850995669" lon="13.729930605468848"><ele>252.0</ele><time>2026-03-25T08:52:08.999Z</time></trkpt><trkpt lat="37.26808071237748" lon="13.730162632480015"><ele>252.0</ele><time>2026-03-25T08:52:09.999Z</time></trkpt><trkpt lat="37.26817963007298" lon="13.730389588652704"><ele>252.0</ele><time>2026-03-25T08:52:10.999Z</time></trkpt><trkpt lat="37.26827552869904" lon="13.730609454565785"><ele>252.0</ele><time>2026-03-25T08:52:12Z</time></trkpt><trkpt lat="37.26837334592653" lon="13.73082702119555"><ele>252.0</ele><time>2026-03-25T08:52:13Z</time></trkpt><trkpt lat="37.26848023408858" lon="13.73104054847397"><ele>252.0</ele><time>2026-03-25T08:52:14Z</time></trkpt><trkpt lat="37.26860219349111" lon="13.731242528272873"><ele>252.66666666666669</ele><time>2026-03-25T08:52:15Z</time></trkpt><trkpt lat="37.268738433609116" lon="13.731439905899922"><ele>253.33333333333334</ele><time>2026-03-25T08:52:16Z</time></trkpt><trkpt lat="37.268891270212" lon="13.731619702374209"><ele>254.0</ele><time>2026-03-25T08:52:17Z</time></trkpt><trkpt lat="37.269055491310446" lon="13.731787513388422"><ele>252.33333333333334</ele><time>2026-03-25T08:52:18Z</time></trkpt><trkpt lat="37.26923082316633" lon="13.73194422288839"><ele>250.66666666666669</ele><time>2026-03-25T08:52:19Z</time></trkpt><trkpt lat="37.26941626689752" lon="13.732090092329559"><ele>249.0</ele><time>2026-03-25T08:52:20Z</time></trkpt><trkpt lat="37.26961157760993" lon="13.732219825227883"><ele>249.0</ele><time>2026-03-25T08:52:21Z</time></trkpt><trkpt lat="37.26981296821392" lon="13.732336286617652"><ele>249.0</ele><time>2026-03-25T08:52:22Z</time></trkpt><trkpt lat="37.270017105423385" lon="13.732457737482084"><ele>249.0</ele><time>2026-03-25T08:52:23Z</time></trkpt><trkpt lat="37.270226263806926" lon="13.732570932277733"><ele>249.0</ele><time>2026-03-25T08:52:24Z</time></trkpt><trkpt lat="37.27043572160804" lon="13.732688913302342"><ele>249.0</ele><time>2026-03-25T08:52:25Z</time></trkpt><trkpt lat="37.27064750627231" lon="13.732811697199525"><ele>247.5</ele><time>2026-03-25T08:52:26Z</time></trkpt><trkpt lat="37.270860369286886" lon="13.732933199445295"><ele>246.0</ele><time>2026-03-25T08:52:27Z</time></trkpt><trkpt lat="37.271073159128704" lon="13.733053140608865"><ele>246.0</ele><time>2026-03-25T08:52:28Z</time></trkpt><trkpt lat="37.2712867238462" lon="13.733174338691382"><ele>246.0</ele><time>2026-03-25T08:52:29Z</time></trkpt><trkpt lat="37.271502176459805" lon="13.733296731919298"><ele>247.0</ele><time>2026-03-25T08:52:30Z</time></trkpt><trkpt lat="37.271719936605884" lon="13.733418574668375"><ele>248.0</ele><time>2026-03-25T08:52:31Z</time></trkpt><trkpt lat="37.27193930006984" lon="13.733545003682641"><ele>248.0</ele><time>2026-03-25T08:52:32Z</time></trkpt><trkpt lat="37.27215738802831" lon="13.73367860555551"><ele>248.0</ele><time>2026-03-25T08:52:33Z</time></trkpt><trkpt lat="37.272370491594565" lon="13.7338160232696"><ele>248.5</ele><time>2026-03-25T08:52:34Z</time></trkpt><trkpt lat="37.272580913420704" lon="13.733957296026093"><ele>249.0</ele><time>2026-03-25T08:52:35Z</time></trkpt><trkpt lat="37.272786166975074" lon="13.734098729253867"><ele>249.0</ele><time>2026-03-25T08:52:36Z</time></trkpt><trkpt lat="37.27298682034387" lon="13.734235727782455"><ele>249.0</ele><time>2026-03-25T08:52:37Z</time></trkpt><trkpt lat="37.27318277444168" lon="13.734368591668524"><ele>248.66666666666669</ele><time>2026-03-25T08:52:38Z</time></trkpt><trkpt lat="37.27337157566092" lon="13.734497355611655"><ele>248.33333333333334</ele><time>2026-03-25T08:52:39Z</time></trkpt><trkpt lat="37.27354600080252" lon="13.734621156100355"><ele>248.0</ele><time>2026-03-25T08:52:40Z</time></trkpt><trkpt lat="37.273723420131425" lon="13.734760876797443"><ele>248.0</ele><time>2026-03-25T08:52:41Z</time></trkpt><trkpt lat="37.2738918433156" lon="13.734918611018601"><ele>248.0</ele><time>2026-03-25T08:52:42Z</time></trkpt><trkpt lat="37.27405658386299" lon="13.735091393007748"><ele>248.0</ele><time>2026-03-25T08:52:43Z</time></trkpt><trkpt lat="37.27422775893176" lon="13.735281406915893"><ele>251.0</ele><time>2026-03-25T08:52:44Z</time></trkpt><trkpt lat="37.27440440169828" lon="13.735477964697145"><ele>254.0</ele><time>2026-03-25T08:52:45Z</time></trkpt><trkpt lat="37.27458292588038" lon="13.735678912620877"><ele>254.0</ele><time>2026-03-25T08:52:46Z</time></trkpt><trkpt lat="37.27476587843949" lon="13.735883070545343"><ele>254.0</ele><time>2026-03-25T08:52:47Z</time></trkpt><trkpt lat="37.27495200954826" lon="13.736085936294307"><ele>256.0</ele><time>2026-03-25T08:52:48Z</time></trkpt><trkpt lat="37.275139603740904" lon="13.736293352185669"><ele>258.0</ele><time>2026-03-25T08:52:49Z</time></trkpt><trkpt lat="37.275325521384545" lon="13.736501234989007"><ele>258.0</ele><time>2026-03-25T08:52:50Z</time></trkpt><trkpt lat="37.275512582134596" lon="13.736710800335224"><ele>258.0</ele><time>2026-03-25T08:52:51Z</time></trkpt><trkpt lat="37.2756984677764" lon="13.736921016763944"><ele>261.5</ele><time>2026-03-25T08:52:52Z</time></trkpt><trkpt lat="37.27588389195205" lon="13.737129884030114"><ele>265.0</ele><time>2026-03-25T08:52:53Z</time></trkpt><trkpt lat="37.27606704914476" lon="13.73733756021361"><ele>265.0</ele><time>2026-03-25T08:52:54Z</time></trkpt><trkpt lat="37.27624883904569" lon="13.737548282736828"><ele>265.0</ele><time>2026-03-25T08:52:55Z</time></trkpt><trkpt lat="37.276427739364735" lon="13.737768716967784"><ele>267.5</ele><time>2026-03-25T08:52:56Z</time></trkpt><trkpt lat="37.2766003845312" lon="13.737997612228897"><ele>270.0</ele><time>2026-03-25T08:52:57Z</time></trkpt><trkpt lat="37.276767202277085" lon="13.738233299699672"><ele>270.0</ele><time>2026-03-25T08:52:58Z</time></trkpt><trkpt lat="37.27693439793382" lon="13.738472368549644"><ele>270.0</ele><time>2026-03-25T08:52:59Z</time></trkpt><trkpt lat="37.277104956611026" lon="13.738710215460847"><ele>273.5</ele><time>2026-03-25T08:53:00Z</time></trkpt><trkpt lat="37.27727357567203" lon="13.738945901673853"><ele>277.0</ele><time>2026-03-25T08:53:01Z</time></trkpt><trkpt lat="37.27744118737481" lon="13.739180809372986"><ele>280.5</ele><time>2026-03-25T08:53:02Z</time></trkpt><trkpt lat="37.27760638054085" lon="13.739413562368195"><ele>284.0</ele><time>2026-03-25T08:53:03Z</time></trkpt><trkpt lat="37.277769950372736" lon="13.739643803668665"><ele>284.0</ele><time>2026-03-25T08:53:04Z</time></trkpt><trkpt lat="37.277932480702496" lon="13.73987253045994"><ele>284.0</ele><time>2026-03-25T08:53:05Z</time></trkpt><trkpt lat="37.27808946834526" lon="13.74010239846568"><ele>288.5</ele><time>2026-03-25T08:53:06Z</time></trkpt><trkpt lat="37.27823780402927" lon="13.740337019573438"><ele>293.0</ele><time>2026-03-25T08:53:07Z</time></trkpt><trkpt lat="37.27837289839217" lon="13.74058404492044"><ele>293.0</ele><time>2026-03-25T08:53:08Z</time></trkpt><trkpt lat="37.278486690407256" lon="13.7408444348629"><ele>293.0</ele><time>2026-03-25T08:53:09Z</time></trkpt><trkpt lat="37.27858623843775" lon="13.741123159898825"><ele>295.0</ele><time>2026-03-25T08:53:10Z</time></trkpt><trkpt lat="37.27867551005607" lon="13.74141865257082"><ele>297.0</ele><time>2026-03-25T08:53:11Z</time></trkpt><trkpt lat="37.27876106818411" lon="13.741724096672495"><ele>296.5</ele><time>2026-03-25T08:53:12Z</time></trkpt><trkpt lat="37.2788462393563" lon="13.74202889214728"><ele>296.0</ele><time>2026-03-25T08:53:13Z</time></trkpt><trkpt lat="37.278932829332255" lon="13.742331652992762"><ele>295.0</ele><time>2026-03-25T08:53:14Z</time></trkpt><trkpt lat="37.27901890442586" lon="13.7426298917056"><ele>294.0</ele><time>2026-03-25T08:53:15Z</time></trkpt><trkpt lat="37.27910414066873" lon="13.742926075795866"><ele>294.0</ele><time>2026-03-25T08:53:16Z</time></trkpt><trkpt lat="37.27918718357797" lon="13.743220733634068"><ele>294.0</ele><time>2026-03-25T08:53:17Z</time></trkpt><trkpt lat="37.27926771412388" lon="13.743517536792158"><ele>290.0</ele><time>2026-03-25T08:53:18Z</time></trkpt><trkpt lat="37.279348609342186" lon="13.74381227982807"><ele>286.0</ele><time>2026-03-25T08:53:19Z</time></trkpt><trkpt lat="37.279430005497794" lon="13.744106633350711"><ele>282.0</ele><time>2026-03-25T08:53:20Z</time></trkpt><trkpt lat="37.279510892420156" lon="13.744398867538372"><ele>278.0</ele><time>2026-03-25T08:53:21Z</time></trkpt><trkpt lat="37.27959274927708" lon="13.744691180119853"><ele>278.0</ele><time>2026-03-25T08:53:22Z</time></trkpt><trkpt lat="37.279673358475875" lon="13.744981685302264"><ele>278.0</ele><time>2026-03-25T08:53:23Z</time></trkpt><trkpt lat="37.279750701474576" lon="13.745270835327961"><ele>281.0</ele><time>2026-03-25T08:53:24Z</time></trkpt><trkpt lat="37.279825745313595" lon="13.745552712308072"><ele>284.0</ele><time>2026-03-25T08:53:25Z</time></trkpt><trkpt lat="37.27989681759383" lon="13.745816988179993"><ele>282.0</ele><time>2026-03-25T08:53:26Z</time></trkpt><trkpt lat="37.279966509412" lon="13.746064606044465"><ele>280.0</ele><time>2026-03-25T08:53:27Z</time></trkpt><trkpt lat="37.28003225709851" lon="13.746304439305183"><ele>278.0</ele><time>2026-03-25T08:53:28Z</time></trkpt><trkpt lat="37.28010087979384" lon="13.746536697524002"><ele>278.0</ele><time>2026-03-25T08:53:29Z</time></trkpt><trkpt lat="37.28018102686961" lon="13.74677206252816"><ele>278.0</ele><time>2026-03-25T08:53:30Z</time></trkpt><trkpt lat="37.280283469442935" lon="13.747010614443424"><ele>278.0</ele><time>2026-03-25T08:53:31Z</time></trkpt><trkpt lat="37.28040510627606" lon="13.74724631941547"><ele>279.0</ele><time>2026-03-25T08:53:32Z</time></trkpt><trkpt lat="37.28054623558128" lon="13.747473774144032"><ele>280.0</ele><time>2026-03-25T08:53:33Z</time></trkpt><trkpt lat="37.280701658669955" lon="13.747699882096704"><ele>275.0</ele><time>2026-03-25T08:53:34Z</time></trkpt><trkpt lat="37.28086431041718" lon="13.747924434929256"><ele>270.0</ele><time>2026-03-25T08:53:35Z</time></trkpt><trkpt lat="37.28103050234612" lon="13.748155214904045"><ele>270.0</ele><time>2026-03-25T08:53:36Z</time></trkpt><trkpt lat="37.281192808279194" lon="13.74838915726117"><ele>270.0</ele><time>2026-03-25T08:53:37Z</time></trkpt><trkpt lat="37.281353558779834" lon="13.748622320911691"><ele>272.5</ele><time>2026-03-25T08:53:38Z</time></trkpt><trkpt lat="37.28151322635075" lon="13.748856964481892"><ele>275.0</ele><time>2026-03-25T08:53:39Z</time></trkpt><trkpt lat="37.281674566064076" lon="13.74908851442333"><ele>275.0</ele><time>2026-03-25T08:53:40Z</time></trkpt><trkpt lat="37.28183388889395" lon="13.74931371732293"><ele>275.0</ele><time>2026-03-25T08:53:41Z</time></trkpt><trkpt lat="37.28199237038548" lon="13.74953822965906"><ele>275.5</ele><time>2026-03-25T08:53:42Z</time></trkpt><trkpt lat="37.28214943341303" lon="13.749761011795101"><ele>276.0</ele><time>2026-03-25T08:53:43Z</time></trkpt><trkpt lat="37.28230242719865" lon="13.749978343546065"><ele>278.0</ele><time>2026-03-25T08:53:44Z</time></trkpt><trkpt lat="37.282445672595145" lon="13.750192561261425"><ele>280.0</ele><time>2026-03-25T08:53:45Z</time></trkpt><trkpt lat="37.282571896781796" lon="13.750407374551102"><ele>282.0</ele><time>2026-03-25T08:53:46Z</time></trkpt><trkpt lat="37.28267319899652" lon="13.75063581590263"><ele>282.0</ele><time>2026-03-25T08:53:46.999Z</time></trkpt><trkpt lat="37.28274382863014" lon="13.750875217625952"><ele>282.0</ele><time>2026-03-25T08:53:47.999Z</time></trkpt><trkpt lat="37.282787255832154" lon="13.7511291426961"><ele>282.0</ele><time>2026-03-25T08:53:48.999Z</time></trkpt><trkpt lat="37.28280986196757" lon="13.751395539566891"><ele>283.6666666666667</ele><time>2026-03-25T08:53:49.999Z</time></trkpt><trkpt lat="37.28282201247372" lon="13.751669045959506"><ele>285.33333333333337</ele><time>2026-03-25T08:53:50.999Z</time></trkpt><trkpt lat="37.28283399149625" lon="13.751944060655472"><ele>287.0</ele><time>2026-03-25T08:53:51.999Z</time></trkpt><trkpt lat="37.282849229133724" lon="13.752211175094443"><ele>287.6666666666667</ele><time>2026-03-25T08:53:52.999Z</time></trkpt><trkpt lat="37.28287401259228" lon="13.752472812944383"><ele>288.3333333333333</ele><time>2026-03-25T08:53:53.999Z</time></trkpt><trkpt lat="37.282918404527734" lon="13.752726975606855"><ele>289.0</ele><time>2026-03-25T08:53:54.999Z</time></trkpt><trkpt lat="37.28298623682429" lon="13.752976445982004"><ele>289.66666666666663</ele><time>2026-03-25T08:53:55.999Z</time></trkpt><trkpt lat="37.283076774604105" lon="13.753216030237779"><ele>290.3333333333333</ele><time>2026-03-25T08:53:56.999Z</time></trkpt><trkpt lat="37.283174623323795" lon="13.753451352177924"><ele>291.0</ele><time>2026-03-25T08:53:57.999Z</time></trkpt><trkpt lat="37.28327581611001" lon="13.753688796501532"><ele>293.0</ele><time>2026-03-25T08:53:58.999Z</time></trkpt><trkpt lat="37.283376009413274" lon="13.753928534585349"><ele>295.0</ele><time>2026-03-25T08:53:59.999Z</time></trkpt><trkpt lat="37.28347532481923" lon="13.754167514391877"><ele>297.0</ele><time>2026-03-25T08:54:00.999Z</time></trkpt><trkpt lat="37.28357253382721" lon="13.754407016471408"><ele>297.0</ele><time>2026-03-25T08:54:01.999Z</time></trkpt><trkpt lat="37.283669340147306" lon="13.75464445128244"><ele>297.0</ele><time>2026-03-25T08:54:02.999Z</time></trkpt><trkpt lat="37.28376502913485" lon="13.754880206668116"><ele>297.0</ele><time>2026-03-25T08:54:03.999Z</time></trkpt><trkpt lat="37.28386336782326" lon="13.75511166964746"><ele>298.6666666666667</ele><time>2026-03-25T08:54:04.999Z</time></trkpt><trkpt lat="37.28396779145716" lon="13.755332749378937"><ele>300.33333333333337</ele><time>2026-03-25T08:54:05.999Z</time></trkpt><trkpt lat="37.28404932646196" lon="13.755562122240823"><ele>302.0</ele><time>2026-03-25T08:54:06.999Z</time></trkpt><trkpt lat="37.28423417644004" lon="13.755710295897464"><ele>302.0</ele><time>2026-03-25T08:54:07.999Z</time></trkpt><trkpt lat="37.284391325140916" lon="13.755864010543297"><ele>302.0</ele><time>2026-03-25T08:54:08.999Z</time></trkpt><trkpt lat="37.28455070995815" lon="13.756014765772472"><ele>302.0</ele><time>2026-03-25T08:54:09.999Z</time></trkpt><trkpt lat="37.28471613290868" lon="13.756153486664628"><ele>302.33333333333337</ele><time>2026-03-25T08:54:10.999Z</time></trkpt><trkpt lat="37.28488134224043" lon="13.756305198390343"><ele>302.6666666666667</ele><time>2026-03-25T08:54:11.999Z</time></trkpt><trkpt lat="37.28505401452775" lon="13.75646822758559"><ele>303.0</ele><time>2026-03-25T08:54:12.999Z</time></trkpt><trkpt lat="37.285225071583724" lon="13.756630221936515"><ele>303.0</ele><time>2026-03-25T08:54:13.999Z</time></trkpt><trkpt lat="37.28539535585868" lon="13.756790224590373"><ele>303.0</ele><time>2026-03-25T08:54:14.999Z</time></trkpt><trkpt lat="37.28556454792211" lon="13.756947351109671"><ele>303.0</ele><time>2026-03-25T08:54:16Z</time></trkpt><trkpt lat="37.28573477436255" lon="13.757106880746779"><ele>305.3333333333333</ele><time>2026-03-25T08:54:17Z</time></trkpt><trkpt lat="37.28590640774126" lon="13.757273146169998"><ele>307.66666666666663</ele><time>2026-03-25T08:54:18Z</time></trkpt><trkpt lat="37.28607172364849" lon="13.757447923953874"><ele>310.0</ele><time>2026-03-25T08:54:19Z</time></trkpt><trkpt lat="37.2862299838806" lon="13.75763666477314"><ele>310.66666666666663</ele><time>2026-03-25T08:54:20Z</time></trkpt><trkpt lat="37.286378799192626" lon="13.75783402416395"><ele>311.3333333333333</ele><time>2026-03-25T08:54:21Z</time></trkpt><trkpt lat="37.28652013649637" lon="13.758038741406091"><ele>312.0</ele><time>2026-03-25T08:54:22Z</time></trkpt><trkpt lat="37.286661879162715" lon="13.758241787478692"><ele>312.0</ele><time>2026-03-25T08:54:23Z</time></trkpt><trkpt lat="37.28680409082988" lon="13.758438975554036"><ele>312.0</ele><time>2026-03-25T08:54:24Z</time></trkpt><trkpt lat="37.28694647943484" lon="13.75863060891273"><ele>312.0</ele><time>2026-03-25T08:54:25Z</time></trkpt><trkpt lat="37.28708881996018" lon="13.758819489424422"><ele>314.0</ele><time>2026-03-25T08:54:26Z</time></trkpt><trkpt lat="37.2872359220386" lon="13.758997980085997"><ele>316.0</ele><time>2026-03-25T08:54:27Z</time></trkpt><trkpt lat="37.287396294471094" lon="13.759164221364188"><ele>318.0</ele><time>2026-03-25T08:54:28Z</time></trkpt><trkpt lat="37.28756663288918" lon="13.759319305048923"><ele>320.6666666666667</ele><time>2026-03-25T08:54:29Z</time></trkpt><trkpt lat="37.28774759739132" lon="13.759459526745124"><ele>323.33333333333337</ele><time>2026-03-25T08:54:30Z</time></trkpt><trkpt lat="37.287935339254304" lon="13.759575582182865"><ele>326.0</ele><time>2026-03-25T08:54:31Z</time></trkpt><trkpt lat="37.28812875506573" lon="13.759674101655284"><ele>326.0</ele><time>2026-03-25T08:54:32Z</time></trkpt><trkpt lat="37.28832506868311" lon="13.75975890106598"><ele>326.0</ele><time>2026-03-25T08:54:33Z</time></trkpt><trkpt lat="37.28852082409186" lon="13.759844956818695"><ele>326.0</ele><time>2026-03-25T08:54:34Z</time></trkpt><trkpt lat="37.28871268558754" lon="13.75994316826118"><ele>326.0</ele><time>2026-03-25T08:54:35Z</time></trkpt><trkpt lat="37.28890113979232" lon="13.760054980191406"><ele>326.0</ele><time>2026-03-25T08:54:36Z</time></trkpt><trkpt lat="37.2890827925472" lon="13.760185791047876"><ele>326.0</ele><time>2026-03-25T08:54:37Z</time></trkpt><trkpt lat="37.28925548847986" lon="13.760332351800923"><ele>326.6666666666667</ele><time>2026-03-25T08:54:38Z</time></trkpt><trkpt lat="37.28942614977228" lon="13.760477220648827"><ele>327.3333333333333</ele><time>2026-03-25T08:54:39Z</time></trkpt><trkpt lat="37.28959651764811" lon="13.760618151323724"><ele>328.0</ele><time>2026-03-25T08:54:40Z</time></trkpt><trkpt lat="37.289767997948765" lon="13.76075606652096"><ele>328.0</ele><time>2026-03-25T08:54:41Z</time></trkpt><trkpt lat="37.289932435984085" lon="13.760901403814817"><ele>328.0</ele><time>2026-03-25T08:54:42Z</time></trkpt><trkpt lat="37.29009053713594" lon="13.761060617446711"><ele>328.0</ele><time>2026-03-25T08:54:43Z</time></trkpt><trkpt lat="37.29023735322772" lon="13.761237106232073"><ele>328.66666666666663</ele><time>2026-03-25T08:54:44Z</time></trkpt><trkpt lat="37.29037297011767" lon="13.761427625532287"><ele>329.3333333333333</ele><time>2026-03-25T08:54:45Z</time></trkpt><trkpt lat="37.29050003255305" lon="13.761632794123273"><ele>330.0</ele><time>2026-03-25T08:54:46Z</time></trkpt><trkpt lat="37.29061620728093" lon="13.761846982719758"><ele>331.6666666666667</ele><time>2026-03-25T08:54:47Z</time></trkpt><trkpt lat="37.29072507752406" lon="13.762070076274863"><ele>333.33333333333337</ele><time>2026-03-25T08:54:48Z</time></trkpt><trkpt lat="37.290833352403574" lon="13.762293979602278"><ele>335.0</ele><time>2026-03-25T08:54:49Z</time></trkpt><trkpt lat="37.29093880593854" lon="13.762513625187031"><ele>334.33333333333337</ele><time>2026-03-25T08:54:50Z</time></trkpt><trkpt lat="37.2910426355394" lon="13.762726267112805"><ele>333.6666666666667</ele><time>2026-03-25T08:54:51Z</time></trkpt><trkpt lat="37.2911395084987" lon="13.762925425119187"><ele>333.0</ele><time>2026-03-25T08:54:52Z</time></trkpt><trkpt lat="37.291243035703786" lon="13.763122881445005"><ele>333.0</ele><time>2026-03-25T08:54:53Z</time></trkpt><trkpt lat="37.29136292784783" lon="13.763314336286658"><ele>333.0</ele><time>2026-03-25T08:54:54Z</time></trkpt><trkpt lat="37.291497727265146" lon="13.76349291373168"><ele>333.0</ele><time>2026-03-25T08:54:55Z</time></trkpt><trkpt lat="37.29164110621117" lon="13.763666701922615"><ele>330.6666666666667</ele><time>2026-03-25T08:54:56Z</time></trkpt><trkpt lat="37.29178762466193" lon="13.763839830084976"><ele>328.33333333333337</ele><time>2026-03-25T08:54:57Z</time></trkpt><trkpt lat="37.2919346290146" lon="13.764015970415116"><ele>326.0</ele><time>2026-03-25T08:54:58Z</time></trkpt><trkpt lat="37.292083757748806" lon="13.764195796232801"><ele>325.33333333333337</ele><time>2026-03-25T08:54:59Z</time></trkpt><trkpt lat="37.29223784016843" lon="13.76437971263968"><ele>324.6666666666667</ele><time>2026-03-25T08:55:00Z</time></trkpt><trkpt lat="37.292391951287165" lon="13.764564739722"><ele>324.0</ele><time>2026-03-25T08:55:01Z</time></trkpt><trkpt lat="37.292546257226896" lon="13.764751188117641"><ele>325.3333333333333</ele><time>2026-03-25T08:55:02Z</time></trkpt><trkpt lat="37.29270242128456" lon="13.76493700023217"><ele>326.66666666666663</ele><time>2026-03-25T08:55:03Z</time></trkpt><trkpt lat="37.2928582504241" lon="13.765122210662929"><ele>328.0</ele><time>2026-03-25T08:55:04Z</time></trkpt><trkpt lat="37.29301324222328" lon="13.765307535555921"><ele>329.66666666666663</ele><time>2026-03-25T08:55:05Z</time></trkpt><trkpt lat="37.29316822909659" lon="13.765491447980557"><ele>331.3333333333333</ele><time>2026-03-25T08:55:06Z</time></trkpt><trkpt lat="37.29332030451006" lon="13.765676487480551"><ele>333.0</ele><time>2026-03-25T08:55:07Z</time></trkpt><trkpt lat="37.29347040805723" lon="13.765857498194213"><ele>334.0</ele><time>2026-03-25T08:55:08Z</time></trkpt><trkpt lat="37.293622944248334" lon="13.766030238385174"><ele>335.0</ele><time>2026-03-25T08:55:09Z</time></trkpt><trkpt lat="37.29378383747897" lon="13.766181642991707"><ele>336.0</ele><time>2026-03-25T08:55:10Z</time></trkpt><trkpt lat="37.29395622014297" lon="13.766304283399654"><ele>337.3333333333333</ele><time>2026-03-25T08:55:11Z</time></trkpt><trkpt lat="37.29413583184839" lon="13.766401966578824"><ele>338.66666666666663</ele><time>2026-03-25T08:55:12Z</time></trkpt><trkpt lat="37.29431897379639" lon="13.766488334931356"><ele>340.0</ele><time>2026-03-25T08:55:13Z</time></trkpt><trkpt lat="37.294504035878326" lon="13.76656811646271"><ele>340.0</ele><time>2026-03-25T08:55:14Z</time></trkpt><trkpt lat="37.294689396958844" lon="13.766646518340481"><ele>340.0</ele><time>2026-03-25T08:55:15Z</time></trkpt><trkpt lat="37.29487207635506" lon="13.76672803453357"><ele>340.0</ele><time>2026-03-25T08:55:16Z</time></trkpt><trkpt lat="37.2950507321754" lon="13.766808132278916"><ele>342.0</ele><time>2026-03-25T08:55:17Z</time></trkpt><trkpt lat="37.29522503613392" lon="13.766895588762715"><ele>344.0</ele><time>2026-03-25T08:55:18Z</time></trkpt><trkpt lat="37.29539329811905" lon="13.767003466243706"><ele>346.0</ele><time>2026-03-25T08:55:19Z</time></trkpt><trkpt lat="37.29554670992136" lon="13.76712968441434"><ele>347.0</ele><time>2026-03-25T08:55:20Z</time></trkpt><trkpt lat="37.29567791117659" lon="13.767267550625409"><ele>348.0</ele><time>2026-03-25T08:55:21Z</time></trkpt><trkpt lat="37.29580966918027" lon="13.767419190728168"><ele>349.0</ele><time>2026-03-25T08:55:22Z</time></trkpt><trkpt lat="37.29592371021641" lon="13.767583572459714"><ele>350.66666666666663</ele><time>2026-03-25T08:55:23Z</time></trkpt><trkpt lat="37.29602110542454" lon="13.767761003527262"><ele>352.3333333333333</ele><time>2026-03-25T08:55:24Z</time></trkpt><trkpt lat="37.296100596118144" lon="13.76795002103947"><ele>354.0</ele><time>2026-03-25T08:55:25Z</time></trkpt><trkpt lat="37.29617183406031" lon="13.768149272761116"><ele>354.0</ele><time>2026-03-25T08:55:26Z</time></trkpt><trkpt lat="37.29622296943377" lon="13.76836186879226"><ele>354.0</ele><time>2026-03-25T08:55:27Z</time></trkpt><trkpt lat="37.296259889115355" lon="13.768583955907609"><ele>354.0</ele><time>2026-03-25T08:55:28Z</time></trkpt><trkpt lat="37.29628318116829" lon="13.76881783014809"><ele>355.3333333333333</ele><time>2026-03-25T08:55:29Z</time></trkpt><trkpt lat="37.2962704237784" lon="13.769059761150656"><ele>356.66666666666663</ele><time>2026-03-25T08:55:30Z</time></trkpt><trkpt lat="37.296279298571854" lon="13.769305317209783"><ele>358.0</ele><time>2026-03-25T08:55:31Z</time></trkpt><trkpt lat="37.296265577215266" lon="13.769559629070164"><ele>358.0</ele><time>2026-03-25T08:55:32Z</time></trkpt><trkpt lat="37.29625467852105" lon="13.769819081297754"><ele>358.0</ele><time>2026-03-25T08:55:33Z</time></trkpt><trkpt lat="37.29624808799437" lon="13.770081117447962"><ele>358.0</ele><time>2026-03-25T08:55:34Z</time></trkpt><trkpt lat="37.29624673877718" lon="13.770349450190855"><ele>357.66666666666663</ele><time>2026-03-25T08:55:35Z</time></trkpt><trkpt lat="37.29625570935996" lon="13.770614813814344"><ele>357.3333333333333</ele><time>2026-03-25T08:55:36Z</time></trkpt><trkpt lat="37.29627304189507" lon="13.770873171430589"><ele>357.0</ele><time>2026-03-25T08:55:37Z</time></trkpt><trkpt lat="37.29629687308625" lon="13.771124133392648"><ele>356.3333333333333</ele><time>2026-03-25T08:55:38Z</time></trkpt><trkpt lat="37.29631907566818" lon="13.771370013174021"><ele>355.66666666666663</ele><time>2026-03-25T08:55:39Z</time></trkpt><trkpt lat="37.29634270590623" lon="13.771617287583672"><ele>355.0</ele><time>2026-03-25T08:55:40Z</time></trkpt><trkpt lat="37.29636654440171" lon="13.771864982870508"><ele>355.0</ele><time>2026-03-25T08:55:41Z</time></trkpt><trkpt lat="37.296387723601505" lon="13.772110860516937"><ele>355.0</ele><time>2026-03-25T08:55:42Z</time></trkpt><trkpt lat="37.29640770905954" lon="13.772354301642928"><ele>355.0</ele><time>2026-03-25T08:55:43.001Z</time></trkpt><trkpt lat="37.29642940298588" lon="13.772598134769078"><ele>357.3333333333333</ele><time>2026-03-25T08:55:44.001Z</time></trkpt><trkpt lat="37.2964529040097" lon="13.772843929567856"><ele>359.6666666666667</ele><time>2026-03-25T08:55:45.001Z</time></trkpt><trkpt lat="37.29647613670996" lon="13.77308962816391"><ele>362.0</ele><time>2026-03-25T08:55:46.001Z</time></trkpt><trkpt lat="37.29649977612327" lon="13.773333155740834"><ele>361.6666666666667</ele><time>2026-03-25T08:55:47.001Z</time></trkpt><trkpt lat="37.29652181885253" lon="13.773573238259322"><ele>361.3333333333333</ele><time>2026-03-25T08:55:48.001Z</time></trkpt><trkpt lat="37.29654280965488" lon="13.7738091614228"><ele>361.0</ele><time>2026-03-25T08:55:49.001Z</time></trkpt><trkpt lat="37.29656719257215" lon="13.774044036348746"><ele>361.0</ele><time>2026-03-25T08:55:50.001Z</time></trkpt><trkpt lat="37.296601869746766" lon="13.77427505757019"><ele>361.0</ele><time>2026-03-25T08:55:51.001Z</time></trkpt><trkpt lat="37.296656512786086" lon="13.774498177100345"><ele>361.0</ele><time>2026-03-25T08:55:52.001Z</time></trkpt><trkpt lat="37.2967221694508" lon="13.774716706087018"><ele>361.0</ele><time>2026-03-25T08:55:52.999Z</time></trkpt><trkpt lat="37.29679317022592" lon="13.774933697427228"><ele>361.0</ele><time>2026-03-25T08:55:53.999Z</time></trkpt><trkpt lat="37.2968726536196" lon="13.775148166914596"><ele>361.0</ele><time>2026-03-25T08:55:54.999Z</time></trkpt><trkpt lat="37.29694323593983" lon="13.775360972144775"><ele>361.66666666666663</ele><time>2026-03-25T08:55:55.999Z</time></trkpt><trkpt lat="37.297014587678554" lon="13.775575933292732"><ele>362.3333333333333</ele><time>2026-03-25T08:55:56.999Z</time></trkpt><trkpt lat="37.29708463377793" lon="13.775790261570354"><ele>363.0</ele><time>2026-03-25T08:55:58Z</time></trkpt><trkpt lat="37.297151185269655" lon="13.776008347617143"><ele>364.0</ele><time>2026-03-25T08:55:59Z</time></trkpt><trkpt lat="37.29721077219923" lon="13.776228006457485"><ele>365.0</ele><time>2026-03-25T08:56:00Z</time></trkpt><trkpt lat="37.297259394374635" lon="13.776448154020107"><ele>366.0</ele><time>2026-03-25T08:56:01Z</time></trkpt><trkpt lat="37.29729943966414" lon="13.776668691216793"><ele>370.0</ele><time>2026-03-25T08:56:02Z</time></trkpt><trkpt lat="37.297332979635684" lon="13.776893651556207"><ele>374.0</ele><time>2026-03-25T08:56:03Z</time></trkpt><trkpt lat="37.29736107248784" lon="13.777119946963559"><ele>378.0</ele><time>2026-03-25T08:56:04Z</time></trkpt><trkpt lat="37.29738437443502" lon="13.777349583964684"><ele>378.0</ele><time>2026-03-25T08:56:05Z</time></trkpt><trkpt lat="37.29740355962418" lon="13.777579830316116"><ele>378.0</ele><time>2026-03-25T08:56:06Z</time></trkpt><trkpt lat="37.297417851088824" lon="13.777807262893994"><ele>378.0</ele><time>2026-03-25T08:56:07Z</time></trkpt><trkpt lat="37.2974282023978" lon="13.778033410132158"><ele>380.0</ele><time>2026-03-25T08:56:08Z</time></trkpt><trkpt lat="37.29743611820485" lon="13.778248278198067"><ele>382.0</ele><time>2026-03-25T08:56:09Z</time></trkpt><trkpt lat="37.29742060864965" lon="13.778449572417383"><ele>384.0</ele><time>2026-03-25T08:56:10Z</time></trkpt><trkpt lat="37.29742248784951" lon="13.77865441524626"><ele>387.33333333333337</ele><time>2026-03-25T08:56:11Z</time></trkpt><trkpt lat="37.29738432852046" lon="13.77885950835858"><ele>390.6666666666667</ele><time>2026-03-25T08:56:12Z</time></trkpt><trkpt lat="37.297339554539484" lon="13.779051377874623"><ele>394.0</ele><time>2026-03-25T08:56:13Z</time></trkpt><trkpt lat="37.297283061629315" lon="13.779239447163704"><ele>391.0</ele><time>2026-03-25T08:56:14Z</time></trkpt><trkpt lat="37.297211380747996" lon="13.779422007832359"><ele>388.0</ele><time>2026-03-25T08:56:15Z</time></trkpt><trkpt lat="37.29712658815159" lon="13.779602002628037"><ele>385.0</ele><time>2026-03-25T08:56:16Z</time></trkpt><trkpt lat="37.297026898750126" lon="13.779774834799555"><ele>385.0</ele><time>2026-03-25T08:56:17Z</time></trkpt><trkpt lat="37.29691507000143" lon="13.779937683836279"><ele>385.0</ele><time>2026-03-25T08:56:18Z</time></trkpt><trkpt lat="37.296786238430286" lon="13.780076240246222"><ele>385.0</ele><time>2026-03-25T08:56:19Z</time></trkpt><trkpt lat="37.29667817111451" lon="13.780212888302989"><ele>384.6666666666667</ele><time>2026-03-25T08:56:20Z</time></trkpt><trkpt lat="37.296570838721046" lon="13.780348607066458"><ele>384.33333333333337</ele><time>2026-03-25T08:56:21Z</time></trkpt><trkpt lat="37.29646042638296" lon="13.780488349686292"><ele>384.0</ele><time>2026-03-25T08:56:22Z</time></trkpt><trkpt lat="37.29635956432937" lon="13.780617561823417"><ele>384.0</ele><time>2026-03-25T08:56:23Z</time></trkpt><trkpt lat="37.29627762917875" lon="13.78074692653075"><ele>384.0</ele><time>2026-03-25T08:56:24Z</time></trkpt><trkpt lat="37.29619279117364" lon="13.780847142502914"><ele>384.0</ele><time>2026-03-25T08:56:25Z</time></trkpt><trkpt lat="37.29610991858418" lon="13.780939913572775"><ele>384.0</ele><time>2026-03-25T08:56:26Z</time></trkpt><trkpt lat="37.296022764583554" lon="13.78103705864398"><ele>386.6</ele><time>2026-03-25T08:56:27Z</time></trkpt><trkpt lat="37.29594193774408" lon="13.781129114979212"><ele>389.2</ele><time>2026-03-25T08:56:28Z</time></trkpt><trkpt lat="37.29587025759326" lon="13.78120879977693"><ele>391.8</ele><time>2026-03-25T08:56:29Z</time></trkpt><trkpt lat="37.29580420011613" lon="13.781276140721772"><ele>394.40000000000003</ele><time>2026-03-25T08:56:30Z</time></trkpt><trkpt lat="37.29574455039854" lon="13.781335199347057"><ele>397.0</ele><time>2026-03-25T08:56:31Z</time></trkpt><trkpt lat="37.295675284029706" lon="13.78144407663789"><ele>397.0</ele><time>2026-03-25T08:56:33Z</time></trkpt><trkpt lat="37.295783002458506" lon="13.78161465249271"><ele>397.0</ele><time>2026-03-25T08:56:36Z</time></trkpt><trkpt lat="37.29585537034427" lon="13.781631223326977"><ele>397.0</ele><time>2026-03-25T08:56:37Z</time></trkpt><trkpt lat="37.2959278346782" lon="13.781631676353975"><ele>397.0</ele><time>2026-03-25T08:56:38Z</time></trkpt><trkpt lat="37.29599847858501" lon="13.781626608157106"><ele>397.0</ele><time>2026-03-25T08:56:39Z</time></trkpt><trkpt lat="37.296065838996384" lon="13.781631381163107"><ele>397.0</ele><time>2026-03-25T08:56:40Z</time></trkpt><trkpt lat="37.29613002979727" lon="13.781624438310748"><ele>397.0</ele><time>2026-03-25T08:56:41Z</time></trkpt><trkpt lat="37.29619254190777" lon="13.781607850134014"><ele>397.0</ele><time>2026-03-25T08:56:42Z</time></trkpt><trkpt lat="37.2962651137638" lon="13.781589276533442"><ele>397.0</ele><time>2026-03-25T08:56:43Z</time></trkpt><trkpt lat="37.29634553633741" lon="13.781578158702565"><ele>397.0</ele><time>2026-03-25T08:56:44Z</time></trkpt><trkpt lat="37.29642678423604" lon="13.781568012850633"><ele>397.0</ele><time>2026-03-25T08:56:45Z</time></trkpt><trkpt lat="37.296503784071035" lon="13.781555284869679"><ele>397.0</ele><time>2026-03-25T08:56:46Z</time></trkpt><trkpt lat="37.29656924144435" lon="13.781541188339203"><ele>399.6</ele><time>2026-03-25T08:56:47Z</time></trkpt><trkpt lat="37.2966831850188" lon="13.781517712579445"><ele>402.20000000000005</ele><time>2026-03-25T08:56:49Z</time></trkpt><trkpt lat="37.29681373399685" lon="13.781492147038215"><ele>404.8</ele><time>2026-03-25T08:56:51Z</time></trkpt><trkpt lat="37.29688088438694" lon="13.781488786469204"><ele>407.4</ele><time>2026-03-25T08:56:52Z</time></trkpt><trkpt lat="37.29695971652352" lon="13.781500810013172"><ele>410.0</ele><time>2026-03-25T08:56:53Z</time></trkpt><trkpt lat="37.297033870549754" lon="13.781526614932147"><ele>409.99999999999994</ele><time>2026-03-25T08:56:54Z</time></trkpt><trkpt lat="37.29709841244605" lon="13.78155973359318"><ele>410.0</ele><time>2026-03-25T08:56:55Z</time></trkpt><trkpt lat="37.297145997216816" lon="13.781613026306328"><ele>410.0</ele><time>2026-03-25T08:56:56Z</time></trkpt><trkpt lat="37.29719225348014" lon="13.781680376270195"><ele>410.0</ele><time>2026-03-25T08:56:57Z</time></trkpt><trkpt lat="37.297239392807654" lon="13.781766385774283"><ele>409.99999999999994</ele><time>2026-03-25T08:56:58Z</time></trkpt><trkpt lat="37.29728653536626" lon="13.781857574643503"><ele>410.0</ele><time>2026-03-25T08:56:59Z</time></trkpt><trkpt lat="37.29737746729966" lon="13.782030401791044"><ele>414.6</ele><time>2026-03-25T08:57:01Z</time></trkpt><trkpt lat="37.29741933270589" lon="13.78211827203194"><ele>419.2</ele><time>2026-03-25T08:57:02Z</time></trkpt><trkpt lat="37.29745734299604" lon="13.78221262758916"><ele>423.79999999999995</ele><time>2026-03-25T08:57:03Z</time></trkpt><trkpt lat="37.29748431766409" lon="13.782312719101883"><ele>428.4</ele><time>2026-03-25T08:57:04Z</time></trkpt><trkpt lat="37.29750110604742" lon="13.782421190847923"><ele>433.0</ele><time>2026-03-25T08:57:05Z</time></trkpt><trkpt lat="37.29751456152104" lon="13.782566103158105"><ele>434.59999999999997</ele><time>2026-03-25T08:57:06Z</time></trkpt><trkpt lat="37.29751535192857" lon="13.782712688536085"><ele>436.19999999999993</ele><time>2026-03-25T08:57:07Z</time></trkpt><trkpt lat="37.297515801737234" lon="13.782854705578794"><ele>437.8</ele><time>2026-03-25T08:57:08Z</time></trkpt><trkpt lat="37.297513945319594" lon="13.782982070650437"><ele>439.4</ele><time>2026-03-25T08:57:09Z</time></trkpt><trkpt lat="37.29751253439003" lon="13.783099343534118"><ele>441.0</ele><time>2026-03-25T08:57:10Z</time></trkpt><trkpt lat="37.29749211895678" lon="13.783217935876394"><ele>441.0</ele><time>2026-03-25T08:57:11Z</time></trkpt><trkpt lat="37.29751192346554" lon="13.783340428750714"><ele>441.0</ele><time>2026-03-25T08:57:12Z</time></trkpt><trkpt lat="37.29752105357761" lon="13.783466448978606"><ele>441.0</ele><time>2026-03-25T08:57:13Z</time></trkpt><trkpt lat="37.29753110214686" lon="13.78360241113336"><ele>441.0</ele><time>2026-03-25T08:57:14Z</time></trkpt><trkpt lat="37.29754432971374" lon="13.783753376201588"><ele>441.0</ele><time>2026-03-25T08:57:15Z</time></trkpt><trkpt lat="37.29755983162001" lon="13.78389801445333"><ele>443.5</ele><time>2026-03-25T08:57:16Z</time></trkpt><trkpt lat="37.29757656697385" lon="13.784051402755777"><ele>446.0</ele><time>2026-03-25T08:57:17Z</time></trkpt><trkpt lat="37.297595027349445" lon="13.784202510112575"><ele>448.5</ele><time>2026-03-25T08:57:18Z</time></trkpt><trkpt lat="37.297613489951594" lon="13.7843521299578"><ele>451.0</ele><time>2026-03-25T08:57:19Z</time></trkpt><trkpt lat="37.297629161199076" lon="13.78449706051115"><ele>455.0</ele><time>2026-03-25T08:57:20.001Z</time></trkpt><trkpt lat="37.29764218453012" lon="13.78463631018184"><ele>459.0</ele><time>2026-03-25T08:57:21.001Z</time></trkpt><trkpt lat="37.29764679460857" lon="13.784776140509281"><ele>463.0</ele><time>2026-03-25T08:57:22.001Z</time></trkpt><trkpt lat="37.297637547338184" lon="13.784920282132264"><ele>467.0</ele><time>2026-03-25T08:57:23.001Z</time></trkpt><trkpt lat="37.29761318715823" lon="13.785069029477077"><ele>470.5</ele><time>2026-03-25T08:57:24.001Z</time></trkpt><trkpt lat="37.29756576362098" lon="13.785205454747217"><ele>474.0</ele><time>2026-03-25T08:57:25.001Z</time></trkpt><trkpt lat="37.29753471415915" lon="13.785348735176566"><ele>477.5</ele><time>2026-03-25T08:57:26.001Z</time></trkpt><trkpt lat="37.29750786481615" lon="13.785498212021917"><ele>481.0</ele><time>2026-03-25T08:57:27.001Z</time></trkpt><trkpt lat="37.29748047899802" lon="13.785654647344934"><ele>481.0</ele><time>2026-03-25T08:57:28.001Z</time></trkpt><trkpt lat="37.29745639173947" lon="13.78581517730042"><ele>481.0</ele><time>2026-03-25T08:57:29.001Z</time></trkpt><trkpt lat="37.297434683371904" lon="13.785977937574929"><ele>481.0</ele><time>2026-03-25T08:57:30.001Z</time></trkpt><trkpt lat="37.297415268541236" lon="13.786132790979718"><ele>481.0</ele><time>2026-03-25T08:57:31.001Z</time></trkpt><trkpt lat="37.29739742293558" lon="13.786276559207181"><ele>483.1666666666667</ele><time>2026-03-25T08:57:32.001Z</time></trkpt><trkpt lat="37.29739316583951" lon="13.786404683128497"><ele>485.33333333333337</ele><time>2026-03-25T08:57:33.001Z</time></trkpt><trkpt lat="37.29736569479156" lon="13.78651734408766"><ele>487.5</ele><time>2026-03-25T08:57:34.001Z</time></trkpt><trkpt lat="37.297341193530315" lon="13.786619461715194"><ele>489.66666666666663</ele><time>2026-03-25T08:57:35.001Z</time></trkpt><trkpt lat="37.29731757569188" lon="13.78671858742954"><ele>491.8333333333333</ele><time>2026-03-25T08:57:36.001Z</time></trkpt><trkpt lat="37.29729818885703" lon="13.786811461672793"><ele>494.0</ele><time>2026-03-25T08:57:37.001Z</time></trkpt><trkpt lat="37.29726407009615" lon="13.786893568362688"><ele>494.2</ele><time>2026-03-25T08:57:38.001Z</time></trkpt><trkpt lat="37.29724307176729" lon="13.787014657677487"><ele>494.4</ele><time>2026-03-25T08:57:40.001Z</time></trkpt><trkpt lat="37.29727647603785" lon="13.787127139942578"><ele>494.6</ele><time>2026-03-25T08:57:42.001Z</time></trkpt><trkpt lat="37.297323467622654" lon="13.787184825548582"><ele>494.8</ele><time>2026-03-25T08:57:44.001Z</time></trkpt><trkpt lat="37.29743394213718" lon="13.787025572894109"><ele>495.0</ele><time>2026-03-25T08:57:49.001Z</time></trkpt><trkpt lat="37.297448618225516" lon="13.786940919835976"><ele>494.75</ele><time>2026-03-25T08:57:50.001Z</time></trkpt><trkpt lat="37.29747492135162" lon="13.786832633171164"><ele>494.5</ele><time>2026-03-25T08:57:51.001Z</time></trkpt><trkpt lat="37.29751126555239" lon="13.78669624376873"><ele>494.25</ele><time>2026-03-25T08:57:52.001Z</time></trkpt><trkpt lat="37.29755382423355" lon="13.78655140039175"><ele>494.0</ele><time>2026-03-25T08:57:53.001Z</time></trkpt><trkpt lat="37.29759509417202" lon="13.786399857150148"><ele>494.0</ele><time>2026-03-25T08:57:54.001Z</time></trkpt><trkpt lat="37.297635396666706" lon="13.786245492190364"><ele>494.0</ele><time>2026-03-25T08:57:55.001Z</time></trkpt><trkpt lat="37.297676699261565" lon="13.78609668168562"><ele>494.0</ele><time>2026-03-25T08:57:56.001Z</time></trkpt><trkpt lat="37.297720726514605" lon="13.785959453631921"><ele>494.0</ele><time>2026-03-25T08:57:57.001Z</time></trkpt><trkpt lat="37.29776760472894" lon="13.785828408738741"><ele>491.4</ele><time>2026-03-25T08:57:57.999Z</time></trkpt><trkpt lat="37.29781503148573" lon="13.785708145413466"><ele>488.79999999999995</ele><time>2026-03-25T08:57:58.999Z</time></trkpt><trkpt lat="37.29786227929236" lon="13.785594348888765"><ele>486.20000000000005</ele><time>2026-03-25T08:57:59.999Z</time></trkpt><trkpt lat="37.297918930226736" lon="13.785483936383413"><ele>483.6</ele><time>2026-03-25T08:58:00.999Z</time></trkpt><trkpt lat="37.29798800959311" lon="13.785365616595788"><ele>481.0</ele><time>2026-03-25T08:58:01.999Z</time></trkpt><trkpt lat="37.29806455892333" lon="13.78523718384086"><ele>481.25</ele><time>2026-03-25T08:58:03Z</time></trkpt><trkpt lat="37.298147799138626" lon="13.785099418368686"><ele>481.5</ele><time>2026-03-25T08:58:04Z</time></trkpt><trkpt lat="37.298231743995906" lon="13.784959812140462"><ele>481.75</ele><time>2026-03-25T08:58:05Z</time></trkpt><trkpt lat="37.298313809240156" lon="13.784820732719368"><ele>482.0</ele><time>2026-03-25T08:58:06Z</time></trkpt><trkpt lat="37.29839547491719" lon="13.78468069722658"><ele>482.0</ele><time>2026-03-25T08:58:07Z</time></trkpt><trkpt lat="37.29848552929032" lon="13.784553422836783"><ele>482.0</ele><time>2026-03-25T08:58:08Z</time></trkpt><trkpt lat="37.298562633060186" lon="13.784420228278975"><ele>482.0</ele><time>2026-03-25T08:58:09Z</time></trkpt><trkpt lat="37.29861646144754" lon="13.784264563912455"><ele>482.0</ele><time>2026-03-25T08:58:10Z</time></trkpt><trkpt lat="37.29867262325962" lon="13.78410967561153"><ele>478.0</ele><time>2026-03-25T08:58:11Z</time></trkpt><trkpt lat="37.29872651822147" lon="13.783940506214758"><ele>474.0</ele><time>2026-03-25T08:58:12Z</time></trkpt><trkpt lat="37.298782232045404" lon="13.783770245971798"><ele>470.0</ele><time>2026-03-25T08:58:13Z</time></trkpt><trkpt lat="37.29883564398835" lon="13.783606209565312"><ele>466.0</ele><time>2026-03-25T08:58:14Z</time></trkpt><trkpt lat="37.29887012934496" lon="13.783438915326162"><ele>467.25</ele><time>2026-03-25T08:58:15Z</time></trkpt><trkpt lat="37.29890735156991" lon="13.783268278364272"><ele>468.5</ele><time>2026-03-25T08:58:16Z</time></trkpt><trkpt lat="37.29899836135839" lon="13.783125750383103"><ele>469.75</ele><time>2026-03-25T08:58:17Z</time></trkpt><trkpt lat="37.299054336461005" lon="13.782964401408858"><ele>471.0</ele><time>2026-03-25T08:58:18Z</time></trkpt><trkpt lat="37.29910835760438" lon="13.782800364289487"><ele>468.5</ele><time>2026-03-25T08:58:19Z</time></trkpt><trkpt lat="37.29915889465232" lon="13.782639703199113"><ele>466.0</ele><time>2026-03-25T08:58:20Z</time></trkpt><trkpt lat="37.29921075827015" lon="13.78248241910048"><ele>463.5</ele><time>2026-03-25T08:58:21Z</time></trkpt><trkpt lat="37.29926388866149" lon="13.782322662428204"><ele>461.0</ele><time>2026-03-25T08:58:22Z</time></trkpt><trkpt lat="37.29931634617137" lon="13.78216065080492"><ele>461.0</ele><time>2026-03-25T08:58:23Z</time></trkpt><trkpt lat="37.2993674014197" lon="13.782001241651734"><ele>461.0</ele><time>2026-03-25T08:58:24Z</time></trkpt><trkpt lat="37.29941704510493" lon="13.781854638902733"><ele>461.0</ele><time>2026-03-25T08:58:25Z</time></trkpt><trkpt lat="37.29946387749154" lon="13.78171514684776"><ele>461.0</ele><time>2026-03-25T08:58:26Z</time></trkpt><trkpt lat="37.29950758048192" lon="13.781588602289755"><ele>459.99999999999994</ele><time>2026-03-25T08:58:27Z</time></trkpt><trkpt lat="37.29955018850317" lon="13.781468359690479"><ele>459.0</ele><time>2026-03-25T08:58:28Z</time></trkpt><trkpt lat="37.29959242173706" lon="13.781364284437585"><ele>458.0</ele><time>2026-03-25T08:58:29Z</time></trkpt><trkpt lat="37.29965107988943" lon="13.781284569184901"><ele>457.0</ele><time>2026-03-25T08:58:30Z</time></trkpt><trkpt lat="37.29972716490119" lon="13.781245020721942"><ele>455.99999999999994</ele><time>2026-03-25T08:58:31Z</time></trkpt><trkpt lat="37.29980671219962" lon="13.781260432203805"><ele>455.0</ele><time>2026-03-25T08:58:32Z</time></trkpt><trkpt lat="37.29987942580527" lon="13.781324935760548"><ele>455.0</ele><time>2026-03-25T08:58:33Z</time></trkpt><trkpt lat="37.29995519262667" lon="13.781435220193504"><ele>455.0</ele><time>2026-03-25T08:58:34Z</time></trkpt><trkpt lat="37.300040894631834" lon="13.781569287607237"><ele>455.0</ele><time>2026-03-25T08:58:35Z</time></trkpt><trkpt lat="37.30013115227381" lon="13.781708984958993"><ele>455.0</ele><time>2026-03-25T08:58:36Z</time></trkpt><trkpt lat="37.30022914050235" lon="13.781847433088133"><ele>452.5</ele><time>2026-03-25T08:58:37Z</time></trkpt><trkpt lat="37.30032581763629" lon="13.781988383750404"><ele>450.0</ele><time>2026-03-25T08:58:38Z</time></trkpt><trkpt lat="37.300419545795606" lon="13.782127419458018"><ele>447.5</ele><time>2026-03-25T08:58:39Z</time></trkpt><trkpt lat="37.300511545362184" lon="13.782268436388241"><ele>445.0</ele><time>2026-03-25T08:58:40Z</time></trkpt><trkpt lat="37.30060838871002" lon="13.782413830140761"><ele>445.0</ele><time>2026-03-25T08:58:41Z</time></trkpt><trkpt lat="37.30070555873715" lon="13.782556975412616"><ele>445.0</ele><time>2026-03-25T08:58:42Z</time></trkpt><trkpt lat="37.300798590697624" lon="13.782694477280586"><ele>445.0</ele><time>2026-03-25T08:58:43Z</time></trkpt><trkpt lat="37.30088867290943" lon="13.782831011051487"><ele>445.0</ele><time>2026-03-25T08:58:44Z</time></trkpt><trkpt lat="37.3009809157591" lon="13.782967993901106"><ele>447.0</ele><time>2026-03-25T08:58:45Z</time></trkpt><trkpt lat="37.30106548987124" lon="13.783103558841741"><ele>449.0</ele><time>2026-03-25T08:58:46Z</time></trkpt><trkpt lat="37.30114408332444" lon="13.78323119135794"><ele>451.0</ele><time>2026-03-25T08:58:47Z</time></trkpt><trkpt lat="37.30122178347198" lon="13.783348860300968"><ele>453.0</ele><time>2026-03-25T08:58:48Z</time></trkpt><trkpt lat="37.30129571504313" lon="13.783459548769297"><ele>451.5</ele><time>2026-03-25T08:58:49Z</time></trkpt><trkpt lat="37.30136345037819" lon="13.78356236061932"><ele>450.0</ele><time>2026-03-25T08:58:50Z</time></trkpt><trkpt lat="37.30142511872446" lon="13.783655987883673"><ele>448.5</ele><time>2026-03-25T08:58:51Z</time></trkpt><trkpt lat="37.30148149215238" lon="13.783736610642292"><ele>447.0</ele><time>2026-03-25T08:58:52Z</time></trkpt><trkpt lat="37.301540405960644" lon="13.783790004867564"><ele>445.5</ele><time>2026-03-25T08:58:53Z</time></trkpt><trkpt lat="37.30160477044948" lon="13.783797789772711"><ele>444.0</ele><time>2026-03-25T08:58:54Z</time></trkpt><trkpt lat="37.301658285760446" lon="13.783756073356807"><ele>444.0</ele><time>2026-03-25T08:58:55Z</time></trkpt><trkpt lat="37.301691867291375" lon="13.783668503545362"><ele>444.0</ele><time>2026-03-25T08:58:56Z</time></trkpt><trkpt lat="37.30167607541724" lon="13.783556184729145"><ele>444.0</ele><time>2026-03-25T08:58:57Z</time></trkpt><trkpt lat="37.301618302086176" lon="13.78345767863593"><ele>444.0</ele><time>2026-03-25T08:58:58Z</time></trkpt><trkpt lat="37.30154087278123" lon="13.78334618890093"><ele>444.0</ele><time>2026-03-25T08:58:59Z</time></trkpt><trkpt lat="37.30146525276315" lon="13.783222401108508"><ele>444.25</ele><time>2026-03-25T08:59:00Z</time></trkpt><trkpt lat="37.30141424437448" lon="13.783086095111166"><ele>444.5</ele><time>2026-03-25T08:59:01Z</time></trkpt><trkpt lat="37.30138185106846" lon="13.782945719824765"><ele>444.75</ele><time>2026-03-25T08:59:02Z</time></trkpt><trkpt lat="37.301375655543886" lon="13.78278939916519"><ele>445.0</ele><time>2026-03-25T08:59:03Z</time></trkpt><trkpt lat="37.3013972468579" lon="13.782627051996945"><ele>445.0</ele><time>2026-03-25T08:59:04Z</time></trkpt><trkpt lat="37.301421804457036" lon="13.782452333148118"><ele>445.0</ele><time>2026-03-25T08:59:05Z</time></trkpt><trkpt lat="37.3014174416716" lon="13.782273790148203"><ele>445.0</ele><time>2026-03-25T08:59:06Z</time></trkpt><trkpt lat="37.301396853052346" lon="13.782091726708927"><ele>445.0</ele><time>2026-03-25T08:59:07Z</time></trkpt><trkpt lat="37.30137434281595" lon="13.781917101513413"><ele>443.25</ele><time>2026-03-25T08:59:08Z</time></trkpt><trkpt lat="37.30134412431577" lon="13.781747108099452"><ele>441.5</ele><time>2026-03-25T08:59:09Z</time></trkpt><trkpt lat="37.30131801794417" lon="13.781584222380415"><ele>439.75</ele><time>2026-03-25T08:59:10Z</time></trkpt><trkpt lat="37.30129612434977" lon="13.781424263763506"><ele>438.0</ele><time>2026-03-25T08:59:11Z</time></trkpt><trkpt lat="37.301267566727354" lon="13.78127415954841"><ele>438.0</ele><time>2026-03-25T08:59:12Z</time></trkpt><trkpt lat="37.30121507162442" lon="13.781125812761136"><ele>438.0</ele><time>2026-03-25T08:59:13Z</time></trkpt><trkpt lat="37.30113001731092" lon="13.780979954264941"><ele>438.0</ele><time>2026-03-25T08:59:14Z</time></trkpt><trkpt lat="37.30101805548484" lon="13.780838503385526"><ele>438.0</ele><time>2026-03-25T08:59:15Z</time></trkpt><trkpt lat="37.30091579466077" lon="13.780700077071327"><ele>435.0</ele><time>2026-03-25T08:59:16Z</time></trkpt><trkpt lat="37.30083324949212" lon="13.780557953207083"><ele>432.0</ele><time>2026-03-25T08:59:17Z</time></trkpt><trkpt lat="37.30074541513796" lon="13.780434628183126"><ele>429.0</ele><time>2026-03-25T08:59:18Z</time></trkpt><trkpt lat="37.30066244369783" lon="13.7803195703115"><ele>426.0</ele><time>2026-03-25T08:59:19Z</time></trkpt><trkpt lat="37.300599019493944" lon="13.78022730920256"><ele>427.5</ele><time>2026-03-25T08:59:20Z</time></trkpt><trkpt lat="37.30054013649685" lon="13.780162156301289"><ele>429.0</ele><time>2026-03-25T08:59:21Z</time></trkpt><trkpt lat="37.300530006179976" lon="13.780080448140188"><ele>430.5</ele><time>2026-03-25T08:59:22.001Z</time></trkpt><trkpt lat="37.30056067342564" lon="13.78000302105452"><ele>432.0</ele><time>2026-03-25T08:59:23.001Z</time></trkpt><trkpt lat="37.30062700982792" lon="13.779973207236013"><ele>433.5</ele><time>2026-03-25T08:59:24.001Z</time></trkpt><trkpt lat="37.300718223948124" lon="13.780015838281505"><ele>435.0</ele><time>2026-03-25T08:59:25.001Z</time></trkpt><trkpt lat="37.300807421692014" lon="13.780087103342831"><ele>432.75</ele><time>2026-03-25T08:59:26.001Z</time></trkpt><trkpt lat="37.30091282180311" lon="13.780177676707234"><ele>430.5</ele><time>2026-03-25T08:59:27.001Z</time></trkpt><trkpt lat="37.30102748614245" lon="13.780258771667967"><ele>428.25</ele><time>2026-03-25T08:59:28.001Z</time></trkpt><trkpt lat="37.301154632847705" lon="13.780343101789924"><ele>426.0</ele><time>2026-03-25T08:59:29.001Z</time></trkpt><trkpt lat="37.30127932340301" lon="13.780434324183812"><ele>426.0</ele><time>2026-03-25T08:59:30.001Z</time></trkpt><trkpt lat="37.301399491782654" lon="13.780529997353607"><ele>426.0</ele><time>2026-03-25T08:59:31.001Z</time></trkpt><trkpt lat="37.301520657027915" lon="13.780624234214043"><ele>426.0</ele><time>2026-03-25T08:59:32.001Z</time></trkpt><trkpt lat="37.30164186545791" lon="13.780715612311846"><ele>426.0</ele><time>2026-03-25T08:59:33.001Z</time></trkpt><trkpt lat="37.30176384369752" lon="13.780805569323842"><ele>425.0</ele><time>2026-03-25T08:59:34.001Z</time></trkpt><trkpt lat="37.301876995407774" lon="13.780894921058232"><ele>424.0</ele><time>2026-03-25T08:59:35.001Z</time></trkpt><trkpt lat="37.30197387928123" lon="13.780991679158827"><ele>423.0</ele><time>2026-03-25T08:59:36.001Z</time></trkpt><trkpt lat="37.30206238874011" lon="13.781108311052511"><ele>422.0</ele><time>2026-03-25T08:59:37.001Z</time></trkpt><trkpt lat="37.30213547100349" lon="13.781237291117362"><ele>422.0</ele><time>2026-03-25T08:59:38.001Z</time></trkpt><trkpt lat="37.302200424781084" lon="13.781376344932877"><ele>422.0</ele><time>2026-03-25T08:59:39.001Z</time></trkpt><trkpt lat="37.30226292775641" lon="13.781517250102763"><ele>422.0</ele><time>2026-03-25T08:59:40.001Z</time></trkpt><trkpt lat="37.30232550332399" lon="13.781658591712127"><ele>422.0</ele><time>2026-03-25T08:59:41.001Z</time></trkpt><trkpt lat="37.30238143163239" lon="13.781795171756375"><ele>419.6</ele><time>2026-03-25T08:59:42.001Z</time></trkpt><trkpt lat="37.302430578011" lon="13.781924132020578"><ele>417.20000000000005</ele><time>2026-03-25T08:59:43.001Z</time></trkpt><trkpt lat="37.30247386774878" lon="13.782037612368711"><ele>414.8</ele><time>2026-03-25T08:59:44.001Z</time></trkpt><trkpt lat="37.302527818941535" lon="13.78212771162763"><ele>412.4</ele><time>2026-03-25T08:59:45.001Z</time></trkpt><trkpt lat="37.30260092219735" lon="13.782184848336243"><ele>410.0</ele><time>2026-03-25T08:59:46.001Z</time></trkpt><trkpt lat="37.302686841051745" lon="13.782210740259343"><ele>410.0</ele><time>2026-03-25T08:59:47.001Z</time></trkpt><trkpt lat="37.3027969127122" lon="13.782212234907222"><ele>410.0</ele><time>2026-03-25T08:59:48.001Z</time></trkpt><trkpt lat="37.302909744818045" lon="13.782214339856061"><ele>410.0</ele><time>2026-03-25T08:59:49.001Z</time></trkpt><trkpt lat="37.30301089566372" lon="13.782232504026913"><ele>410.0</ele><time>2026-03-25T08:59:50.001Z</time></trkpt><trkpt lat="37.30310654925498" lon="13.78227017940059"><ele>410.0</ele><time>2026-03-25T08:59:51.001Z</time></trkpt><trkpt lat="37.30319166985021" lon="13.782340017048673"><ele>408.2</ele><time>2026-03-25T08:59:52.001Z</time></trkpt><trkpt lat="37.303266658798954" lon="13.782450425910506"><ele>406.4</ele><time>2026-03-25T08:59:53.001Z</time></trkpt><trkpt lat="37.30332765795631" lon="13.78256826597159"><ele>404.6</ele><time>2026-03-25T08:59:54.001Z</time></trkpt><trkpt lat="37.30338126475518" lon="13.782675018901802"><ele>402.8</ele><time>2026-03-25T08:59:55.001Z</time></trkpt><trkpt lat="37.30341625629893" lon="13.78276652931873"><ele>401.0</ele><time>2026-03-25T08:59:56.001Z</time></trkpt><trkpt lat="37.30340453085894" lon="13.782859559448719"><ele>400.99999999999994</ele><time>2026-03-25T08:59:57.001Z</time></trkpt><trkpt lat="37.30335693744889" lon="13.782959426296511"><ele>401.0</ele><time>2026-03-25T08:59:58.001Z</time></trkpt><trkpt lat="37.303297586292615" lon="13.78305344950792"><ele>401.0</ele><time>2026-03-25T08:59:59.001Z</time></trkpt><trkpt lat="37.30326982532636" lon="13.783141184797932"><ele>401.0</ele><time>2026-03-25T09:00:00.001Z</time></trkpt><trkpt lat="37.30327903176233" lon="13.783250110377214"><ele>400.99999999999994</ele><time>2026-03-25T09:00:01.001Z</time></trkpt><trkpt lat="37.303335150819954" lon="13.783337079054196"><ele>401.0</ele><time>2026-03-25T09:00:02.001Z</time></trkpt><trkpt lat="37.30343287709774" lon="13.783393112348097"><ele>401.0</ele><time>2026-03-25T09:00:03.001Z</time></trkpt><trkpt lat="37.30355116944341" lon="13.78343222106029"><ele>401.0</ele><time>2026-03-25T09:00:03.999Z</time></trkpt><trkpt lat="37.303674591196305" lon="13.783463957779297"><ele>401.0</ele><time>2026-03-25T09:00:04.999Z</time></trkpt><trkpt lat="37.30379912186439" lon="13.78350346424116"><ele>401.0</ele><time>2026-03-25T09:00:05.999Z</time></trkpt><trkpt lat="37.30392702187778" lon="13.783539909358424"><ele>398.5</ele><time>2026-03-25T09:00:06.999Z</time></trkpt><trkpt lat="37.304053720411275" lon="13.783578728987324"><ele>396.0</ele><time>2026-03-25T09:00:07.999Z</time></trkpt><trkpt lat="37.30417280399372" lon="13.783614070256565"><ele>393.5</ele><time>2026-03-25T09:00:08.999Z</time></trkpt><trkpt lat="37.30428265737525" lon="13.783658076426878"><ele>391.0</ele><time>2026-03-25T09:00:09.999Z</time></trkpt><trkpt lat="37.304375804468975" lon="13.783726796686771"><ele>391.0</ele><time>2026-03-25T09:00:10.999Z</time></trkpt><trkpt lat="37.30445775421957" lon="13.783819538951363"><ele>391.0</ele><time>2026-03-25T09:00:11.999Z</time></trkpt><trkpt lat="37.30452221685449" lon="13.783915181308766"><ele>391.0</ele><time>2026-03-25T09:00:12.999Z</time></trkpt><trkpt lat="37.30455809710648" lon="13.784025542553854"><ele>391.0</ele><time>2026-03-25T09:00:13.999Z</time></trkpt><trkpt lat="37.3045461390184" lon="13.784162189961675"><ele>391.0</ele><time>2026-03-25T09:00:14.999Z</time></trkpt><trkpt lat="37.304552417872564" lon="13.784316237176139"><ele>390.6</ele><time>2026-03-25T09:00:15.999Z</time></trkpt><trkpt lat="37.30453364222076" lon="13.784442612892438"><ele>390.20000000000005</ele><time>2026-03-25T09:00:16.999Z</time></trkpt><trkpt lat="37.30449941977662" lon="13.784536718203075"><ele>389.79999999999995</ele><time>2026-03-25T09:00:17.999Z</time></trkpt><trkpt lat="37.30444162051849" lon="13.784605384620795"><ele>389.4</ele><time>2026-03-25T09:00:19Z</time></trkpt><trkpt lat="37.304344552714575" lon="13.784638980929639"><ele>389.0</ele><time>2026-03-25T09:00:20Z</time></trkpt><trkpt lat="37.30426794620991" lon="13.784701821096888"><ele>388.99999999999994</ele><time>2026-03-25T09:00:21Z</time></trkpt><trkpt lat="37.304194908867665" lon="13.784738679894632"><ele>389.0</ele><time>2026-03-25T09:00:22Z</time></trkpt><trkpt lat="37.304133292940854" lon="13.784776656377705"><ele>389.0</ele><time>2026-03-25T09:00:23Z</time></trkpt><trkpt lat="37.30404072652718" lon="13.784849262969374"><ele>389.0</ele><time>2026-03-25T09:00:25Z</time></trkpt><trkpt lat="37.3040492213973" lon="13.784976300435313"><ele>388.99999999999994</ele><time>2026-03-25T09:00:27Z</time></trkpt><trkpt lat="37.30407607408175" lon="13.785056737841542"><ele>389.0</ele><time>2026-03-25T09:00:29Z</time></trkpt><trkpt lat="37.304121228004256" lon="13.78511908611188"><ele>389.0</ele><time>2026-03-25T09:00:31Z</time></trkpt><trkpt lat="37.30419219224734" lon="13.785149949133656"><ele>389.0</ele><time>2026-03-25T09:00:33Z</time></trkpt><trkpt lat="37.30428642356764" lon="13.785157131669061"><ele>389.0</ele><time>2026-03-25T09:00:35Z</time></trkpt><trkpt lat="37.30441991355746" lon="13.785194700751457"><ele>389.0</ele><time>2026-03-25T09:00:37Z</time></trkpt><trkpt lat="37.30449852500605" lon="13.785213465449038"><ele>389.0</ele><time>2026-03-25T09:00:38Z</time></trkpt><trkpt lat="37.30458663061604" lon="13.785228777093613"><ele>387.6</ele><time>2026-03-25T09:00:39Z</time></trkpt><trkpt lat="37.304682387088455" lon="13.785242968660269"><ele>386.2</ele><time>2026-03-25T09:00:40Z</time></trkpt><trkpt lat="37.304782267510504" lon="13.78524712692214"><ele>384.8</ele><time>2026-03-25T09:00:41Z</time></trkpt><trkpt lat="37.30487589362095" lon="13.785235185381126"><ele>383.40000000000003</ele><time>2026-03-25T09:00:42Z</time></trkpt><trkpt lat="37.30495665378464" lon="13.78521175730495"><ele>382.0</ele><time>2026-03-25T09:00:43Z</time></trkpt><trkpt lat="37.30510122220693" lon="13.785235064802588"><ele>382.0</ele><time>2026-03-25T09:00:45Z</time></trkpt><trkpt lat="37.30515805829348" lon="13.78531059350473"><ele>382.0</ele><time>2026-03-25T09:00:46Z</time></trkpt><trkpt lat="37.30520215258314" lon="13.785426263586562"><ele>382.0</ele><time>2026-03-25T09:00:47Z</time></trkpt><trkpt lat="37.30526253451475" lon="13.785529116484097"><ele>382.0</ele><time>2026-03-25T09:00:48Z</time></trkpt><trkpt lat="37.30536699575774" lon="13.78558426919373"><ele>382.0</ele><time>2026-03-25T09:00:49Z</time></trkpt><trkpt lat="37.30549154552605" lon="13.785590675909454"><ele>380.0</ele><time>2026-03-25T09:00:50Z</time></trkpt><trkpt lat="37.30564527041444" lon="13.785575468953956"><ele>378.0</ele><time>2026-03-25T09:00:51Z</time></trkpt><trkpt lat="37.305790737247506" lon="13.785567087700144"><ele>376.0</ele><time>2026-03-25T09:00:52Z</time></trkpt><trkpt lat="37.30592051157605" lon="13.785570932147026"><ele>374.0</ele><time>2026-03-25T09:00:53Z</time></trkpt><trkpt lat="37.30604779377511" lon="13.785589958992702"><ele>374.0</ele><time>2026-03-25T09:00:54Z</time></trkpt><trkpt lat="37.30616825740649" lon="13.785648342166725"><ele>374.0</ele><time>2026-03-25T09:00:55Z</time></trkpt><trkpt lat="37.30627549800293" lon="13.7857396837634"><ele>374.0</ele><time>2026-03-25T09:00:56Z</time></trkpt><trkpt lat="37.30636316835326" lon="13.785864654172755"><ele>374.0</ele><time>2026-03-25T09:00:57Z</time></trkpt><trkpt lat="37.30643470557822" lon="13.786024752859797"><ele>372.0</ele><time>2026-03-25T09:00:58Z</time></trkpt><trkpt lat="37.30650318658316" lon="13.78619180502262"><ele>370.0</ele><time>2026-03-25T09:00:59Z</time></trkpt><trkpt lat="37.306568066025754" lon="13.786344616572539"><ele>368.0</ele><time>2026-03-25T09:01:00Z</time></trkpt><trkpt lat="37.306633122948746" lon="13.786480378902844"><ele>366.0</ele><time>2026-03-25T09:01:01Z</time></trkpt><trkpt lat="37.30670441563081" lon="13.786593705331974"><ele>366.0</ele><time>2026-03-25T09:01:02Z</time></trkpt><trkpt lat="37.306795525704985" lon="13.786688349661793"><ele>366.0</ele><time>2026-03-25T09:01:03Z</time></trkpt><trkpt lat="37.30691559102887" lon="13.786754391818572"><ele>366.0</ele><time>2026-03-25T09:01:04Z</time></trkpt><trkpt lat="37.3070597620007" lon="13.786786103756716"><ele>366.0</ele><time>2026-03-25T09:01:05Z</time></trkpt><trkpt lat="37.30722549711193" lon="13.786808726075428"><ele>364.75</ele><time>2026-03-25T09:01:06Z</time></trkpt><trkpt lat="37.30738772930866" lon="13.786838155688892"><ele>363.5</ele><time>2026-03-25T09:01:07Z</time></trkpt><trkpt lat="37.30752611398238" lon="13.786873287901887"><ele>362.25</ele><time>2026-03-25T09:01:08Z</time></trkpt><trkpt lat="37.30763875457976" lon="13.7869285958796"><ele>361.0</ele><time>2026-03-25T09:01:09Z</time></trkpt><trkpt lat="37.307734460474585" lon="13.787010156614205"><ele>361.0</ele><time>2026-03-25T09:01:10Z</time></trkpt><trkpt lat="37.30781736309776" lon="13.787090946151544"><ele>361.0</ele><time>2026-03-25T09:01:11Z</time></trkpt><trkpt lat="37.30789449782756" lon="13.787166209680624"><ele>361.0</ele><time>2026-03-25T09:01:12Z</time></trkpt><trkpt lat="37.30803762687684" lon="13.787310231856901"><ele>361.0</ele><time>2026-03-25T09:01:14.001Z</time></trkpt><trkpt lat="37.30811592559672" lon="13.787384003210008"><ele>360.4</ele><time>2026-03-25T09:01:15.001Z</time></trkpt><trkpt lat="37.30819783857726" lon="13.787464178790499"><ele>359.8</ele><time>2026-03-25T09:01:16.001Z</time></trkpt><trkpt lat="37.30827221886013" lon="13.787548136919082"><ele>359.2</ele><time>2026-03-25T09:01:17.001Z</time></trkpt><trkpt lat="37.30832641800285" lon="13.787622880287541"><ele>358.59999999999997</ele><time>2026-03-25T09:01:18.001Z</time></trkpt><trkpt lat="37.30836291977477" lon="13.787688096617535"><ele>358.0</ele><time>2026-03-25T09:01:19.001Z</time></trkpt><trkpt lat="37.3083880463147" lon="13.787850560675382"><ele>358.0</ele><time>2026-03-25T09:01:21.001Z</time></trkpt><trkpt lat="37.30840248157558" lon="13.787937720686893"><ele>358.0</ele><time>2026-03-25T09:01:22.001Z</time></trkpt><trkpt lat="37.308424296102636" lon="13.788022843935408"><ele>358.0</ele><time>2026-03-25T09:01:23.001Z</time></trkpt><trkpt lat="37.30845122587672" lon="13.78810681720806"><ele>358.0</ele><time>2026-03-25T09:01:24.001Z</time></trkpt><trkpt lat="37.30849093184595" lon="13.78820829296761"><ele>358.0</ele><time>2026-03-25T09:01:25.001Z</time></trkpt><trkpt lat="37.308555533028986" lon="13.78830415330562"><ele>358.0</ele><time>2026-03-25T09:01:26.001Z</time></trkpt><trkpt lat="37.30863343923975" lon="13.78839474840607"><ele>358.0</ele><time>2026-03-25T09:01:27.001Z</time></trkpt><trkpt lat="37.308721542335256" lon="13.788487967064478"><ele>358.0</ele><time>2026-03-25T09:01:28.001Z</time></trkpt><trkpt lat="37.30881954574645" lon="13.788582717009028"><ele>358.0</ele><time>2026-03-25T09:01:29.001Z</time></trkpt><trkpt lat="37.30892739599857" lon="13.788683525002636"><ele>358.0</ele><time>2026-03-25T09:01:30.001Z</time></trkpt><trkpt lat="37.30903874886232" lon="13.788794129564083"><ele>357.25</ele><time>2026-03-25T09:01:31.001Z</time></trkpt><trkpt lat="37.30915550021522" lon="13.78890898034034"><ele>356.5</ele><time>2026-03-25T09:01:32.001Z</time></trkpt><trkpt lat="37.30926169216245" lon="13.789040235377236"><ele>355.75</ele><time>2026-03-25T09:01:33.001Z</time></trkpt><trkpt lat="37.30938777317528" lon="13.789142057417589"><ele>355.0</ele><time>2026-03-25T09:01:34.001Z</time></trkpt><trkpt lat="37.309496573881226" lon="13.78925355863863"><ele>354.5</ele><time>2026-03-25T09:01:35.001Z</time></trkpt><trkpt lat="37.30960551087447" lon="13.789361737690193"><ele>354.0</ele><time>2026-03-25T09:01:36.001Z</time></trkpt><trkpt lat="37.30972060238236" lon="13.789477954352849"><ele>353.5</ele><time>2026-03-25T09:01:37.001Z</time></trkpt><trkpt lat="37.30983071994445" lon="13.789591321809963"><ele>353.0</ele><time>2026-03-25T09:01:38.001Z</time></trkpt><trkpt lat="37.309940024663824" lon="13.789699739923217"><ele>353.0</ele><time>2026-03-25T09:01:39.001Z</time></trkpt><trkpt lat="37.310046795743354" lon="13.789808712843087"><ele>353.0</ele><time>2026-03-25T09:01:40.001Z</time></trkpt><trkpt lat="37.31014740515042" lon="13.789913375197917"><ele>353.0</ele><time>2026-03-25T09:01:41.001Z</time></trkpt><trkpt lat="37.31024591368473" lon="13.790011516317016"><ele>353.0</ele><time>2026-03-25T09:01:42.001Z</time></trkpt><trkpt lat="37.31034265937263" lon="13.790114569089233"><ele>355.0</ele><time>2026-03-25T09:01:43.001Z</time></trkpt><trkpt lat="37.31043159555262" lon="13.790223107883943"><ele>357.0</ele><time>2026-03-25T09:01:44.001Z</time></trkpt><trkpt lat="37.310520540758965" lon="13.790349041245085"><ele>359.0</ele><time>2026-03-25T09:01:45.001Z</time></trkpt><trkpt lat="37.31060026738187" lon="13.790491954122372"><ele>361.0</ele><time>2026-03-25T09:01:46.001Z</time></trkpt><trkpt lat="37.31067418996854" lon="13.790649380602753"><ele>356.66666666666663</ele><time>2026-03-25T09:01:47.001Z</time></trkpt><trkpt lat="37.31075025714121" lon="13.790815506849468"><ele>352.3333333333333</ele><time>2026-03-25T09:01:48.001Z</time></trkpt><trkpt lat="37.31083045437515" lon="13.790993727679394"><ele>348.0</ele><time>2026-03-25T09:01:49.001Z</time></trkpt><trkpt lat="37.310910995386784" lon="13.791172959312995"><ele>348.0</ele><time>2026-03-25T09:01:50.001Z</time></trkpt><trkpt lat="37.310992388759836" lon="13.791354072670774"><ele>348.0</ele><time>2026-03-25T09:01:51.001Z</time></trkpt><trkpt lat="37.311075598316314" lon="13.791526053832802"><ele>348.0</ele><time>2026-03-25T09:01:52.001Z</time></trkpt><trkpt lat="37.31116380813676" lon="13.791699042981584"><ele>348.6666666666667</ele><time>2026-03-25T09:01:53.001Z</time></trkpt><trkpt lat="37.311245932005974" lon="13.791887989749718"><ele>349.33333333333337</ele><time>2026-03-25T09:01:54.001Z</time></trkpt><trkpt lat="37.31134435157848" lon="13.792066273857072"><ele>350.0</ele><time>2026-03-25T09:01:55.001Z</time></trkpt><trkpt lat="37.311455367879596" lon="13.792226540627615"><ele>347.33333333333337</ele><time>2026-03-25T09:01:56.001Z</time></trkpt><trkpt lat="37.31155167975039" lon="13.792400650877903"><ele>344.6666666666667</ele><time>2026-03-25T09:01:57.001Z</time></trkpt><trkpt lat="37.31164823576744" lon="13.792573501905323"><ele>342.0</ele><time>2026-03-25T09:01:58.001Z</time></trkpt><trkpt lat="37.31174615352249" lon="13.792744227344327"><ele>342.0</ele><time>2026-03-25T09:01:59.001Z</time></trkpt><trkpt lat="37.311844441427" lon="13.792917022731569"><ele>342.0</ele><time>2026-03-25T09:02:00.001Z</time></trkpt><trkpt lat="37.311941773826376" lon="13.793090482131674"><ele>342.0</ele><time>2026-03-25T09:02:01.001Z</time></trkpt><trkpt lat="37.31203150467547" lon="13.79325761615565"><ele>342.0</ele><time>2026-03-25T09:02:02.001Z</time></trkpt><trkpt lat="37.31210549053181" lon="13.793422692952918"><ele>342.0</ele><time>2026-03-25T09:02:03.001Z</time></trkpt><trkpt lat="37.31216467218212" lon="13.793599058694353"><ele>342.0</ele><time>2026-03-25T09:02:04.001Z</time></trkpt><trkpt lat="37.312204833188694" lon="13.79378202230168"><ele>342.25</ele><time>2026-03-25T09:02:05.001Z</time></trkpt><trkpt lat="37.31222854873599" lon="13.793964873508449"><ele>342.5</ele><time>2026-03-25T09:02:06.001Z</time></trkpt><trkpt lat="37.312241948595975" lon="13.794146857060225"><ele>342.75</ele><time>2026-03-25T09:02:07.001Z</time></trkpt><trkpt lat="37.31224246750802" lon="13.794318447565178"><ele>343.0</ele><time>2026-03-25T09:02:08.001Z</time></trkpt><trkpt lat="37.31222615124196" lon="13.794495637241102"><ele>343.0</ele><time>2026-03-25T09:02:09.001Z</time></trkpt><trkpt lat="37.3121947776268" lon="13.794681776094766"><ele>343.0</ele><time>2026-03-25T09:02:09.999Z</time></trkpt><trkpt lat="37.312158573444854" lon="13.79486414652143"><ele>343.0</ele><time>2026-03-25T09:02:10.999Z</time></trkpt><trkpt lat="37.31212304507873" lon="13.795033862416377"><ele>343.0</ele><time>2026-03-25T09:02:11.999Z</time></trkpt><trkpt lat="37.312072398922865" lon="13.79518571035035"><ele>342.4</ele><time>2026-03-25T09:02:12.999Z</time></trkpt><trkpt lat="37.312039261067056" lon="13.795330191411635"><ele>341.79999999999995</ele><time>2026-03-25T09:02:13.999Z</time></trkpt><trkpt lat="37.31201181719451" lon="13.795469153108298"><ele>341.2</ele><time>2026-03-25T09:02:14.999Z</time></trkpt><trkpt lat="37.31199342289491" lon="13.795597515821552"><ele>340.6</ele><time>2026-03-25T09:02:15.999Z</time></trkpt><trkpt lat="37.311999913360545" lon="13.79572283796969"><ele>340.0</ele><time>2026-03-25T09:02:16.999Z</time></trkpt><trkpt lat="37.31199964992073" lon="13.795856647696564"><ele>340.0</ele><time>2026-03-25T09:02:17.999Z</time></trkpt><trkpt lat="37.312015161891814" lon="13.795997106295314"><ele>340.0</ele><time>2026-03-25T09:02:18.999Z</time></trkpt><trkpt lat="37.312040553505234" lon="13.79613182266101"><ele>340.0</ele><time>2026-03-25T09:02:19.999Z</time></trkpt><trkpt lat="37.31207938797079" lon="13.796250365789149"><ele>340.0</ele><time>2026-03-25T09:02:20.999Z</time></trkpt><trkpt lat="37.31211506321099" lon="13.796361334586022"><ele>340.0</ele><time>2026-03-25T09:02:21.999Z</time></trkpt><trkpt lat="37.31217276657498" lon="13.796463102355418"><ele>339.0</ele><time>2026-03-25T09:02:22.999Z</time></trkpt><trkpt lat="37.312239055752435" lon="13.79657401848838"><ele>338.0</ele><time>2026-03-25T09:02:23.999Z</time></trkpt><trkpt lat="37.31231541743169" lon="13.796685668847594"><ele>337.0</ele><time>2026-03-25T09:02:25Z</time></trkpt><trkpt lat="37.31240611210567" lon="13.796789565420172"><ele>336.0</ele><time>2026-03-25T09:02:26Z</time></trkpt><trkpt lat="37.31248590839132" lon="13.796910238676812"><ele>336.0</ele><time>2026-03-25T09:02:27Z</time></trkpt><trkpt lat="37.31257052678612" lon="13.797036022557153"><ele>336.0</ele><time>2026-03-25T09:02:28Z</time></trkpt><trkpt lat="37.31266102716437" lon="13.797165630237133"><ele>336.0</ele><time>2026-03-25T09:02:29Z</time></trkpt><trkpt lat="37.31274996631874" lon="13.797291819504649"><ele>336.0</ele><time>2026-03-25T09:02:30Z</time></trkpt><trkpt lat="37.31283461856822" lon="13.797414619312757"><ele>336.0</ele><time>2026-03-25T09:02:31Z</time></trkpt><trkpt lat="37.312908687602935" lon="13.79753403230101"><ele>336.0</ele><time>2026-03-25T09:02:32Z</time></trkpt><trkpt lat="37.31296915553727" lon="13.797647694717938"><ele>336.0</ele><time>2026-03-25T09:02:33Z</time></trkpt><trkpt lat="37.31301684906466" lon="13.797768430859184"><ele>336.0</ele><time>2026-03-25T09:02:34Z</time></trkpt><trkpt lat="37.31305257704367" lon="13.797905794648688"><ele>336.5</ele><time>2026-03-25T09:02:35Z</time></trkpt><trkpt lat="37.31306788553966" lon="13.798059363919078"><ele>337.0</ele><time>2026-03-25T09:02:36Z</time></trkpt><trkpt lat="37.31306392603613" lon="13.798219296725682"><ele>337.5</ele><time>2026-03-25T09:02:37Z</time></trkpt><trkpt lat="37.313041125729484" lon="13.79838161126127"><ele>338.0</ele><time>2026-03-25T09:02:38Z</time></trkpt><trkpt lat="37.31298590145543" lon="13.798544356915624"><ele>337.0</ele><time>2026-03-25T09:02:39Z</time></trkpt><trkpt lat="37.31294009415427" lon="13.798705938448593"><ele>336.0</ele><time>2026-03-25T09:02:40Z</time></trkpt><trkpt lat="37.312896188691035" lon="13.798859066412515"><ele>335.0</ele><time>2026-03-25T09:02:41Z</time></trkpt><trkpt lat="37.31285520245942" lon="13.799001714028446"><ele>334.0</ele><time>2026-03-25T09:02:42Z</time></trkpt><trkpt lat="37.31281763833768" lon="13.799132451318233"><ele>334.0</ele><time>2026-03-25T09:02:43Z</time></trkpt><trkpt lat="37.312783191256315" lon="13.799252340221248"><ele>334.0</ele><time>2026-03-25T09:02:44Z</time></trkpt><trkpt lat="37.31275001390235" lon="13.799371202929008"><ele>334.0</ele><time>2026-03-25T09:02:45Z</time></trkpt><trkpt lat="37.31271459499606" lon="13.799500650040388"><ele>334.0</ele><time>2026-03-25T09:02:46Z</time></trkpt><trkpt lat="37.31268142078754" lon="13.799620543592226"><ele>334.0</ele><time>2026-03-25T09:02:47Z</time></trkpt><trkpt lat="37.312655787805184" lon="13.799709252013782"><ele>333.66666666666663</ele><time>2026-03-25T09:02:48Z</time></trkpt><trkpt lat="37.31262831288217" lon="13.799804334872412"><ele>333.3333333333333</ele><time>2026-03-25T09:02:50Z</time></trkpt><trkpt lat="37.31259752287143" lon="13.799910890318484"><ele>333.0</ele><time>2026-03-25T09:02:52Z</time></trkpt><trkpt lat="37.31256182589459" lon="13.800032464141918"><ele>332.6666666666667</ele><time>2026-03-25T09:02:54Z</time></trkpt><trkpt lat="37.31253369482286" lon="13.800126044253192"><ele>332.33333333333337</ele><time>2026-03-25T09:02:56Z</time></trkpt><trkpt lat="37.31249930801842" lon="13.800230262239179"><ele>332.0</ele><time>2026-03-25T09:02:58Z</time></trkpt><trkpt lat="37.31244764276154" lon="13.800390305334712"><ele>331.4285714285714</ele><time>2026-03-25T09:03:00Z</time></trkpt><trkpt lat="37.3124198989795" lon="13.800479694865198"><ele>330.8571428571429</ele><time>2026-03-25T09:03:01Z</time></trkpt><trkpt lat="37.31239158667191" lon="13.800573693927563"><ele>330.2857142857143</ele><time>2026-03-25T09:03:02Z</time></trkpt><trkpt lat="37.31237586126573" lon="13.80065704851975"><ele>329.71428571428567</ele><time>2026-03-25T09:03:03Z</time></trkpt><trkpt lat="37.312347741447155" lon="13.80073195051776"><ele>329.1428571428571</ele><time>2026-03-25T09:03:04Z</time></trkpt><trkpt lat="37.31232403122333" lon="13.800811850182797"><ele>328.57142857142856</ele><time>2026-03-25T09:03:05Z</time></trkpt><trkpt lat="37.3123094821691" lon="13.800892251674638"><ele>328.0</ele><time>2026-03-25T09:03:06Z</time></trkpt><trkpt lat="37.31227804936908" lon="13.800962480186518"><ele>327.16666666666663</ele><time>2026-03-25T09:03:07Z</time></trkpt><trkpt lat="37.31225287116979" lon="13.801050206672233"><ele>326.3333333333333</ele><time>2026-03-25T09:03:08Z</time></trkpt><trkpt lat="37.312224037486125" lon="13.801150658440623"><ele>325.5</ele><time>2026-03-25T09:03:09Z</time></trkpt><trkpt lat="37.312192703751876" lon="13.801259820037425"><ele>324.6666666666667</ele><time>2026-03-25T09:03:10Z</time></trkpt><trkpt lat="37.31215962602447" lon="13.801372025568911"><ele>323.83333333333337</ele><time>2026-03-25T09:03:11Z</time></trkpt><trkpt lat="37.31212991772534" lon="13.801471220942654"><ele>323.0</ele><time>2026-03-25T09:03:12Z</time></trkpt><trkpt lat="37.31211816560179" lon="13.801565522093448"><ele>323.83333333333337</ele><time>2026-03-25T09:03:13Z</time></trkpt><trkpt lat="37.3120873584399" lon="13.801657350021001"><ele>324.6666666666667</ele><time>2026-03-25T09:03:14.001Z</time></trkpt><trkpt lat="37.31205213595932" lon="13.801747642780326"><ele>325.5</ele><time>2026-03-25T09:03:15.001Z</time></trkpt><trkpt lat="37.31202024219754" lon="13.801827542050537"><ele>326.3333333333333</ele><time>2026-03-25T09:03:16.001Z</time></trkpt><trkpt lat="37.31197028644914" lon="13.801952901473793"><ele>327.16666666666663</ele><time>2026-03-25T09:03:18.001Z</time></trkpt><trkpt lat="37.3119188382564" lon="13.802037897680043"><ele>328.0</ele><time>2026-03-25T09:03:20.001Z</time></trkpt><trkpt lat="37.31187482663843" lon="13.802121793890864"><ele>328.0</ele><time>2026-03-25T09:03:22.001Z</time></trkpt><trkpt lat="37.31182703064763" lon="13.80218676264528"><ele>328.0</ele><time>2026-03-25T09:03:24.001Z</time></trkpt><trkpt lat="37.31176932575888" lon="13.80226935923692"><ele>328.0</ele><time>2026-03-25T09:03:26.001Z</time></trkpt><trkpt lat="37.31171364740276" lon="13.802339235478888"><ele>328.0</ele><time>2026-03-25T09:03:28.001Z</time></trkpt><trkpt lat="37.31166583359518" lon="13.802392944794562"><ele>328.0</ele><time>2026-03-25T09:03:30.001Z</time></trkpt><trkpt lat="37.31158455996733" lon="13.802474709908418"><ele>328.0</ele><time>2026-03-25T09:03:32.001Z</time></trkpt><trkpt lat="37.31148221292496" lon="13.80257243080748"><ele>328.0</ele><time>2026-03-25T09:03:34.001Z</time></trkpt><trkpt lat="37.31141904008387" lon="13.802630290514452"><ele>328.0</ele><time>2026-03-25T09:03:35.001Z</time></trkpt><trkpt lat="37.311352635093535" lon="13.80269111048054"><ele>328.0</ele><time>2026-03-25T09:03:36.001Z</time></trkpt><trkpt lat="37.31128527588544" lon="13.802752804475645"><ele>328.0</ele><time>2026-03-25T09:03:37.001Z</time></trkpt><trkpt lat="37.311205817341325" lon="13.80282828933727"><ele>328.0</ele><time>2026-03-25T09:03:38.001Z</time></trkpt><trkpt lat="37.31110601335366" lon="13.802924862919191"><ele>328.0</ele><time>2026-03-25T09:03:39.001Z</time></trkpt><trkpt lat="37.31100367571264" lon="13.803041520540292"><ele>328.0</ele><time>2026-03-25T09:03:40.001Z</time></trkpt><trkpt lat="37.31091056774982" lon="13.803165629042264"><ele>328.0</ele><time>2026-03-25T09:03:41.001Z</time></trkpt><trkpt lat="37.31083021945441" lon="13.803295087579926"><ele>328.0</ele><time>2026-03-25T09:03:42.001Z</time></trkpt><trkpt lat="37.31075734297312" lon="13.803443791611171"><ele>327.75</ele><time>2026-03-25T09:03:43.001Z</time></trkpt><trkpt lat="37.31069748790666" lon="13.803607186617029"><ele>327.5</ele><time>2026-03-25T09:03:44.001Z</time></trkpt><trkpt lat="37.31064214855433" lon="13.803779698997722"><ele>327.25</ele><time>2026-03-25T09:03:45.001Z</time></trkpt><trkpt lat="37.310587125756726" lon="13.80395919593123"><ele>327.0</ele><time>2026-03-25T09:03:46.001Z</time></trkpt><trkpt lat="37.310530201447044" lon="13.804144895976874"><ele>327.75</ele><time>2026-03-25T09:03:47.001Z</time></trkpt><trkpt lat="37.31047161553234" lon="13.804325806386446"><ele>328.5</ele><time>2026-03-25T09:03:48.001Z</time></trkpt><trkpt lat="37.31041555054523" lon="13.804498980811687"><ele>329.25</ele><time>2026-03-25T09:03:49.001Z</time></trkpt><trkpt lat="37.310366726965775" lon="13.804659271822098"><ele>330.0</ele><time>2026-03-25T09:03:50.001Z</time></trkpt><trkpt lat="37.310339428327715" lon="13.804804955715863"><ele>330.0</ele><time>2026-03-25T09:03:51.001Z</time></trkpt><trkpt lat="37.31030436310691" lon="13.804917306909134"><ele>330.0</ele><time>2026-03-25T09:03:52.001Z</time></trkpt><trkpt lat="37.31027501376842" lon="13.805001775630009"><ele>330.0</ele><time>2026-03-25T09:03:53.001Z</time></trkpt><trkpt lat="37.31023019409567" lon="13.805099139323213"><ele>330.0</ele><time>2026-03-25T09:03:55.001Z</time></trkpt><trkpt lat="37.31021143171247" lon="13.805194391785927"><ele>330.0</ele><time>2026-03-25T09:07:17.001Z</time></trkpt><trkpt lat="37.31015430248474" lon="13.805355254386837"><ele>330.0</ele><time>2026-03-25T09:07:19.001Z</time></trkpt><trkpt lat="37.31012136749281" lon="13.805464450364534"><ele>330.0</ele><time>2026-03-25T09:07:20.001Z</time></trkpt><trkpt lat="37.31007925771609" lon="13.805604015885258"><ele>330.0</ele><time>2026-03-25T09:07:21.001Z</time></trkpt><trkpt lat="37.3100337586153" lon="13.805754814586978"><ele>330.0</ele><time>2026-03-25T09:07:22.001Z</time></trkpt><trkpt lat="37.309985704299415" lon="13.805910264795378"><ele>329.75</ele><time>2026-03-25T09:07:23.001Z</time></trkpt><trkpt lat="37.30993555274281" lon="13.806070617547725"><ele>329.5</ele><time>2026-03-25T09:07:24.001Z</time></trkpt><trkpt lat="37.30988491966109" lon="13.806232509931604"><ele>329.25</ele><time>2026-03-25T09:07:25.001Z</time></trkpt><trkpt lat="37.309846564641546" lon="13.806400126282547"><ele>329.0</ele><time>2026-03-25T09:07:26.001Z</time></trkpt><trkpt lat="37.309796627913634" lon="13.806559105032294"><ele>329.0</ele><time>2026-03-25T09:07:27.001Z</time></trkpt><trkpt lat="37.309750518813196" lon="13.806711095124966"><ele>329.0</ele><time>2026-03-25T09:07:28.001Z</time></trkpt><trkpt lat="37.30970374457799" lon="13.806859332728413"><ele>329.0</ele><time>2026-03-25T09:07:29.001Z</time></trkpt><trkpt lat="37.309658586596576" lon="13.806999698731925"><ele>329.0</ele><time>2026-03-25T09:07:30.001Z</time></trkpt><trkpt lat="37.30961841254741" lon="13.80713495072793"><ele>330.25</ele><time>2026-03-25T09:07:31.001Z</time></trkpt><trkpt lat="37.3095833689896" lon="13.8072664493985"><ele>331.5</ele><time>2026-03-25T09:07:32.001Z</time></trkpt><trkpt lat="37.30954381092433" lon="13.807404308165914"><ele>332.75</ele><time>2026-03-25T09:07:33.001Z</time></trkpt><trkpt lat="37.309537077003945" lon="13.807565145885444"><ele>334.0</ele><time>2026-03-25T09:07:34.001Z</time></trkpt><trkpt lat="37.309552189057534" lon="13.807730972583204"><ele>334.25</ele><time>2026-03-25T09:07:35.001Z</time></trkpt><trkpt lat="37.30958076351554" lon="13.807898022285311"><ele>334.5</ele><time>2026-03-25T09:07:36.001Z</time></trkpt><trkpt lat="37.30961507398362" lon="13.808066346977142"><ele>334.75</ele><time>2026-03-25T09:07:37.001Z</time></trkpt><trkpt lat="37.30964701187617" lon="13.808218532169665"><ele>335.0</ele><time>2026-03-25T09:07:38.001Z</time></trkpt><trkpt lat="37.30968840700833" lon="13.808350396006995"><ele>335.0</ele><time>2026-03-25T09:07:39.001Z</time></trkpt><trkpt lat="37.30970726918399" lon="13.80847885028332"><ele>335.0</ele><time>2026-03-25T09:07:40.001Z</time></trkpt><trkpt lat="37.309713261844635" lon="13.808593861592565"><ele>335.0</ele><time>2026-03-25T09:07:41.002Z</time></trkpt><trkpt lat="37.30970284373609" lon="13.808705553047224"><ele>335.0</ele><time>2026-03-25T09:07:42.002Z</time></trkpt><trkpt lat="37.309671681854425" lon="13.808815462692962"><ele>335.0</ele><time>2026-03-25T09:07:43.002Z</time></trkpt><trkpt lat="37.309620619907044" lon="13.808924298314379"><ele>334.75</ele><time>2026-03-25T09:07:44.002Z</time></trkpt><trkpt lat="37.30955692640323" lon="13.809037301876584"><ele>334.5</ele><time>2026-03-25T09:07:45.002Z</time></trkpt><trkpt lat="37.309486627018266" lon="13.80916026386129"><ele>334.25</ele><time>2026-03-25T09:07:46.002Z</time></trkpt><trkpt lat="37.30940826460017" lon="13.80928187916323"><ele>334.0</ele><time>2026-03-25T09:07:47.002Z</time></trkpt><trkpt lat="37.309318558090744" lon="13.809394403831622"><ele>333.5</ele><time>2026-03-25T09:07:48.002Z</time></trkpt><trkpt lat="37.30921440348671" lon="13.809495167751445"><ele>333.0</ele><time>2026-03-25T09:07:49.002Z</time></trkpt><trkpt lat="37.30910136830626" lon="13.809586257220385"><ele>332.5</ele><time>2026-03-25T09:07:50.002Z</time></trkpt><trkpt lat="37.30897134350617" lon="13.809640466658285"><ele>332.0</ele><time>2026-03-25T09:07:51.002Z</time></trkpt><trkpt lat="37.30883990989841" lon="13.809693006146022"><ele>332.0</ele><time>2026-03-25T09:07:52.002Z</time></trkpt><trkpt lat="37.3086956558803" lon="13.809746473228953"><ele>332.0</ele><time>2026-03-25T09:07:53.002Z</time></trkpt><trkpt lat="37.308552847813196" lon="13.80980144634898"><ele>332.0</ele><time>2026-03-25T09:07:54.002Z</time></trkpt><trkpt lat="37.308412540294036" lon="13.809855613120366"><ele>332.0</ele><time>2026-03-25T09:07:55.002Z</time></trkpt><trkpt lat="37.308277488639696" lon="13.809907750834057"><ele>332.0</ele><time>2026-03-25T09:07:56.002Z</time></trkpt><trkpt lat="37.308149782102845" lon="13.809954942636471"><ele>332.0</ele><time>2026-03-25T09:07:57.002Z</time></trkpt><trkpt lat="37.30802595601336" lon="13.809995399520028"><ele>332.0</ele><time>2026-03-25T09:07:58.002Z</time></trkpt><trkpt lat="37.30790962955578" lon="13.810027877929835"><ele>332.0</ele><time>2026-03-25T09:07:59.002Z</time></trkpt><trkpt lat="37.30779550558067" lon="13.810049763199094"><ele>332.20000000000005</ele><time>2026-03-25T09:08:00.002Z</time></trkpt><trkpt lat="37.30768159115273" lon="13.810059374544496"><ele>332.4</ele><time>2026-03-25T09:08:01.002Z</time></trkpt><trkpt lat="37.3075709703411" lon="13.810066659996327"><ele>332.6</ele><time>2026-03-25T09:08:02.002Z</time></trkpt><trkpt lat="37.30747189758374" lon="13.810084907901347"><ele>332.79999999999995</ele><time>2026-03-25T09:08:03.002Z</time></trkpt><trkpt lat="37.30737944849233" lon="13.810120522579364"><ele>333.0</ele><time>2026-03-25T09:08:04.002Z</time></trkpt><trkpt lat="37.30730115943432" lon="13.810173667878326"><ele>332.59999999999997</ele><time>2026-03-25T09:08:05.002Z</time></trkpt><trkpt lat="37.307228342781144" lon="13.81023324332843"><ele>332.2</ele><time>2026-03-25T09:08:06.002Z</time></trkpt><trkpt lat="37.307153245312236" lon="13.81030330185881"><ele>331.8</ele><time>2026-03-25T09:08:07.002Z</time></trkpt><trkpt lat="37.30707413947746" lon="13.810378473283407"><ele>331.4</ele><time>2026-03-25T09:08:08.002Z</time></trkpt><trkpt lat="37.306991771205595" lon="13.810456744930613"><ele>331.0</ele><time>2026-03-25T09:08:09.002Z</time></trkpt><trkpt lat="37.30690639666995" lon="13.810541383856815"><ele>331.0</ele><time>2026-03-25T09:08:10.002Z</time></trkpt><trkpt lat="37.306826842489656" lon="13.810621736763393"><ele>331.0</ele><time>2026-03-25T09:08:11.002Z</time></trkpt><trkpt lat="37.306762743729884" lon="13.810710658122964"><ele>331.0</ele><time>2026-03-25T09:08:12.002Z</time></trkpt><trkpt lat="37.3066949686817" lon="13.810773982117"><ele>331.0</ele><time>2026-03-25T09:08:13.002Z</time></trkpt><trkpt lat="37.3065809974924" lon="13.81088816574026"><ele>331.0</ele><time>2026-03-25T09:08:15.002Z</time></trkpt><trkpt lat="37.30651481714339" lon="13.810975882806865"><ele>331.20000000000005</ele><time>2026-03-25T09:08:17.002Z</time></trkpt><trkpt lat="37.30646669147008" lon="13.811060235000271"><ele>331.40000000000003</ele><time>2026-03-25T09:08:24.002Z</time></trkpt><trkpt lat="37.30661733453091" lon="13.811155725567561"><ele>331.6</ele><time>2026-03-25T09:08:26.002Z</time></trkpt><trkpt lat="37.306704820421515" lon="13.81117431153053"><ele>331.8</ele><time>2026-03-25T09:08:27.002Z</time></trkpt><trkpt lat="37.3067975346126" lon="13.81120947857921"><ele>332.0</ele><time>2026-03-25T09:08:28.001Z</time></trkpt><trkpt lat="37.306903460555944" lon="13.811246409114055"><ele>332.0</ele><time>2026-03-25T09:08:29.001Z</time></trkpt><trkpt lat="37.30701570450214" lon="13.811284387240487"><ele>332.0</ele><time>2026-03-25T09:08:30.001Z</time></trkpt><trkpt lat="37.30714102845879" lon="13.811331223471395"><ele>332.0</ele><time>2026-03-25T09:08:31.001Z</time></trkpt><trkpt lat="37.30727516636949" lon="13.811378418313673"><ele>332.0</ele><time>2026-03-25T09:08:32.001Z</time></trkpt><trkpt lat="37.3074239902472" lon="13.811429280326808"><ele>331.33333333333337</ele><time>2026-03-25T09:08:33.001Z</time></trkpt><trkpt lat="37.30758407138719" lon="13.811486232485148"><ele>330.6666666666667</ele><time>2026-03-25T09:08:34.001Z</time></trkpt><trkpt lat="37.307754890109344" lon="13.811548148517181"><ele>330.0</ele><time>2026-03-25T09:08:35.001Z</time></trkpt><trkpt lat="37.30793422215536" lon="13.811613279206865"><ele>330.0</ele><time>2026-03-25T09:08:36.001Z</time></trkpt><trkpt lat="37.308113543920825" lon="13.811677237142428"><ele>330.0</ele><time>2026-03-25T09:08:37.001Z</time></trkpt><trkpt lat="37.308301271925565" lon="13.811742532101219"><ele>330.0</ele><time>2026-03-25T09:08:38.001Z</time></trkpt><trkpt lat="37.308492278635924" lon="13.811808591953769"><ele>329.6666666666667</ele><time>2026-03-25T09:08:39.001Z</time></trkpt><trkpt lat="37.3086817487837" lon="13.811876012418983"><ele>329.33333333333337</ele><time>2026-03-25T09:08:40.001Z</time></trkpt><trkpt lat="37.30886595318272" lon="13.81194283003302"><ele>329.0</ele><time>2026-03-25T09:08:41.001Z</time></trkpt><trkpt lat="37.30903772629484" lon="13.812004545981647"><ele>328.6666666666667</ele><time>2026-03-25T09:08:42.001Z</time></trkpt><trkpt lat="37.309204215487874" lon="13.812065358505823"><ele>328.3333333333333</ele><time>2026-03-25T09:08:43.001Z</time></trkpt><trkpt lat="37.30936569685216" lon="13.812124965055487"><ele>328.0</ele><time>2026-03-25T09:08:44.001Z</time></trkpt><trkpt lat="37.30952473376715" lon="13.81218427192753"><ele>328.0</ele><time>2026-03-25T09:08:45.001Z</time></trkpt><trkpt lat="37.309679641485914" lon="13.8122412780433"><ele>328.0</ele><time>2026-03-25T09:08:46.001Z</time></trkpt><trkpt lat="37.30983308037238" lon="13.81229799128124"><ele>328.0</ele><time>2026-03-25T09:08:47.001Z</time></trkpt><trkpt lat="37.309986035914754" lon="13.812353850205804"><ele>328.3333333333333</ele><time>2026-03-25T09:08:48.001Z</time></trkpt><trkpt lat="37.31013945473399" lon="13.812409593006373"><ele>328.6666666666667</ele><time>2026-03-25T09:08:49.001Z</time></trkpt><trkpt lat="37.31029293842496" lon="13.812464768729086"><ele>329.0</ele><time>2026-03-25T09:08:50.001Z</time></trkpt><trkpt lat="37.31044629949654" lon="13.812519243561635"><ele>328.0</ele><time>2026-03-25T09:08:51.001Z</time></trkpt><trkpt lat="37.31060326439726" lon="13.812569409512625"><ele>327.0</ele><time>2026-03-25T09:08:52.001Z</time></trkpt><trkpt lat="37.31076332124074" lon="13.812622241615411"><ele>326.0</ele><time>2026-03-25T09:08:53.001Z</time></trkpt><trkpt lat="37.31092805802115" lon="13.812680629478589"><ele>327.0</ele><time>2026-03-25T09:08:54.001Z</time></trkpt><trkpt lat="37.311094675168476" lon="13.812741016175732"><ele>328.0</ele><time>2026-03-25T09:08:55.001Z</time></trkpt><trkpt lat="37.31126346195771" lon="13.812804484424948"><ele>329.0</ele><time>2026-03-25T09:08:56.001Z</time></trkpt><trkpt lat="37.31143447470869" lon="13.81286777698693"><ele>329.0</ele><time>2026-03-25T09:08:57.001Z</time></trkpt><trkpt lat="37.31160635502004" lon="13.812932145475719"><ele>329.0</ele><time>2026-03-25T09:08:58.001Z</time></trkpt><trkpt lat="37.311779417002434" lon="13.813000574438526"><ele>329.0</ele><time>2026-03-25T09:08:59.001Z</time></trkpt><trkpt lat="37.31195288450532" lon="13.813081912365249"><ele>329.0</ele><time>2026-03-25T09:09:00.001Z</time></trkpt><trkpt lat="37.312127656296745" lon="13.813180329715376"><ele>329.0</ele><time>2026-03-25T09:09:01.001Z</time></trkpt><trkpt lat="37.31230668009343" lon="13.813286534096813"><ele>329.0</ele><time>2026-03-25T09:09:02.001Z</time></trkpt><trkpt lat="37.312487100711564" lon="13.8133961527096"><ele>327.33333333333337</ele><time>2026-03-25T09:09:03.001Z</time></trkpt><trkpt lat="37.3126704134835" lon="13.813505188238475"><ele>325.6666666666667</ele><time>2026-03-25T09:09:04.001Z</time></trkpt><trkpt lat="37.3128534892982" lon="13.813613896067798"><ele>324.0</ele><time>2026-03-25T09:09:05.001Z</time></trkpt><trkpt lat="37.31304710674905" lon="13.813729436002525"><ele>324.5</ele><time>2026-03-25T09:09:06.001Z</time></trkpt><trkpt lat="37.31326004242749" lon="13.813843450022802"><ele>325.0</ele><time>2026-03-25T09:09:07.001Z</time></trkpt><trkpt lat="37.313468709396794" lon="13.813979465396464"><ele>325.0</ele><time>2026-03-25T09:09:08.001Z</time></trkpt><trkpt lat="37.3136895819324" lon="13.814112072676744"><ele>325.0</ele><time>2026-03-25T09:09:09.001Z</time></trkpt><trkpt lat="37.31391783042619" lon="13.814249108338254"><ele>326.0</ele><time>2026-03-25T09:09:10.001Z</time></trkpt><trkpt lat="37.314152598754426" lon="13.814390058353517"><ele>327.0</ele><time>2026-03-25T09:09:11.001Z</time></trkpt><trkpt lat="37.31439490580423" lon="13.814517148715879"><ele>327.0</ele><time>2026-03-25T09:09:12.001Z</time></trkpt><trkpt lat="37.314625305310706" lon="13.814660840897998"><ele>327.0</ele><time>2026-03-25T09:09:13.001Z</time></trkpt><trkpt lat="37.314855305975094" lon="13.814800198591538"><ele>326.0</ele><time>2026-03-25T09:09:14.001Z</time></trkpt><trkpt lat="37.31508295997581" lon="13.814935565275238"><ele>325.0</ele><time>2026-03-25T09:09:15.001Z</time></trkpt><trkpt lat="37.315307148704846" lon="13.81507052460811"><ele>326.5</ele><time>2026-03-25T09:09:16.001Z</time></trkpt><trkpt lat="37.315526516064885" lon="13.81520541775111"><ele>328.0</ele><time>2026-03-25T09:09:17.001Z</time></trkpt><trkpt lat="37.31574049600452" lon="13.8153371419086"><ele>328.0</ele><time>2026-03-25T09:09:18.001Z</time></trkpt><trkpt lat="37.31595541735597" lon="13.815463517225702"><ele>328.0</ele><time>2026-03-25T09:09:19.001Z</time></trkpt><trkpt lat="37.316166755999454" lon="13.815585949461187"><ele>328.0</ele><time>2026-03-25T09:09:20.001Z</time></trkpt><trkpt lat="37.31637428385672" lon="13.815711287912496"><ele>328.0</ele><time>2026-03-25T09:09:21.001Z</time></trkpt><trkpt lat="37.31658158177786" lon="13.815837680573908"><ele>329.0</ele><time>2026-03-25T09:09:22.001Z</time></trkpt><trkpt lat="37.31678563468106" lon="13.8159633552543"><ele>330.0</ele><time>2026-03-25T09:09:23.001Z</time></trkpt><trkpt lat="37.31699021955236" lon="13.816088219964511"><ele>333.5</ele><time>2026-03-25T09:09:24.001Z</time></trkpt><trkpt lat="37.31719361680654" lon="13.816211988258695"><ele>337.0</ele><time>2026-03-25T09:09:25.001Z</time></trkpt><trkpt lat="37.317396259880155" lon="13.816336101603916"><ele>337.0</ele><time>2026-03-25T09:09:26.001Z</time></trkpt><trkpt lat="37.317595642724925" lon="13.81645754177802"><ele>337.0</ele><time>2026-03-25T09:09:27.001Z</time></trkpt><trkpt lat="37.31779428222627" lon="13.81657696505206"><ele>337.0</ele><time>2026-03-25T09:09:28.001Z</time></trkpt><trkpt lat="37.31799086711991" lon="13.816693610938836"><ele>337.3333333333333</ele><time>2026-03-25T09:09:29.001Z</time></trkpt><trkpt lat="37.31818528873589" lon="13.816809079878253"><ele>337.6666666666667</ele><time>2026-03-25T09:09:30.001Z</time></trkpt><trkpt lat="37.31837928564432" lon="13.816923938276787"><ele>338.0</ele><time>2026-03-25T09:09:31.001Z</time></trkpt><trkpt lat="37.318572099739" lon="13.817037522668553"><ele>338.0</ele><time>2026-03-25T09:09:32.001Z</time></trkpt><trkpt lat="37.3187623976906" lon="13.8171502497105"><ele>338.0</ele><time>2026-03-25T09:09:33.002Z</time></trkpt><trkpt lat="37.31894816725022" lon="13.81726053544668"><ele>338.0</ele><time>2026-03-25T09:09:34.002Z</time></trkpt><trkpt lat="37.31912906577857" lon="13.817366726753113"><ele>337.6666666666667</ele><time>2026-03-25T09:09:35.002Z</time></trkpt><trkpt lat="37.319304460705766" lon="13.817470541829843"><ele>337.3333333333333</ele><time>2026-03-25T09:09:36.002Z</time></trkpt><trkpt lat="37.31947338337316" lon="13.817572888653919"><ele>337.0</ele><time>2026-03-25T09:09:37.002Z</time></trkpt><trkpt lat="37.319636908106375" lon="13.817672446627036"><ele>340.0</ele><time>2026-03-25T09:09:38.002Z</time></trkpt><trkpt lat="37.31979413451824" lon="13.817778782191452"><ele>343.0</ele><time>2026-03-25T09:09:39.002Z</time></trkpt><trkpt lat="37.31994958220003" lon="13.817900850480747"><ele>346.0</ele><time>2026-03-25T09:09:40.002Z</time></trkpt><trkpt lat="37.320096710642545" lon="13.818037677525842"><ele>346.0</ele><time>2026-03-25T09:09:41.002Z</time></trkpt><trkpt lat="37.32023260718926" lon="13.818189518774721"><ele>346.0</ele><time>2026-03-25T09:09:42.002Z</time></trkpt><trkpt lat="37.320353329080824" lon="13.818358201080954"><ele>346.0</ele><time>2026-03-25T09:09:43.002Z</time></trkpt><trkpt lat="37.32046126599181" lon="13.81854804669234"><ele>345.0</ele><time>2026-03-25T09:09:44.002Z</time></trkpt><trkpt lat="37.32055786264089" lon="13.818761910930654"><ele>344.0</ele><time>2026-03-25T09:09:45.002Z</time></trkpt><trkpt lat="37.32065164543412" lon="13.818988645086938"><ele>343.0</ele><time>2026-03-25T09:09:46.002Z</time></trkpt><trkpt lat="37.32073807297802" lon="13.819246032123447"><ele>347.0</ele><time>2026-03-25T09:09:47.002Z</time></trkpt><trkpt lat="37.32082667977355" lon="13.81950652204605"><ele>351.0</ele><time>2026-03-25T09:09:48.002Z</time></trkpt><trkpt lat="37.32091699261005" lon="13.819768877693631"><ele>351.0</ele><time>2026-03-25T09:09:49.002Z</time></trkpt><trkpt lat="37.32100936194421" lon="13.820028809214818"><ele>351.0</ele><time>2026-03-25T09:09:50.002Z</time></trkpt><trkpt lat="37.32109987028926" lon="13.82029100696186"><ele>353.0</ele><time>2026-03-25T09:09:51.002Z</time></trkpt><trkpt lat="37.321190796669" lon="13.820555067183166"><ele>355.0</ele><time>2026-03-25T09:09:52.002Z</time></trkpt><trkpt lat="37.321284355312166" lon="13.820817873598966"><ele>357.0</ele><time>2026-03-25T09:09:53.002Z</time></trkpt><trkpt lat="37.321376880358955" lon="13.821080894267395"><ele>359.0</ele><time>2026-03-25T09:09:54.002Z</time></trkpt><trkpt lat="37.32146796276608" lon="13.821343515032275"><ele>356.6666666666667</ele><time>2026-03-25T09:09:55.002Z</time></trkpt><trkpt lat="37.32155684533935" lon="13.82160389784743"><ele>354.3333333333333</ele><time>2026-03-25T09:09:56.002Z</time></trkpt><trkpt lat="37.32164443542968" lon="13.821862824544938"><ele>352.0</ele><time>2026-03-25T09:09:57.002Z</time></trkpt><trkpt lat="37.321730284543115" lon="13.822118633195574"><ele>352.0</ele><time>2026-03-25T09:09:58.002Z</time></trkpt><trkpt lat="37.321812986558825" lon="13.822373381748518"><ele>352.0</ele><time>2026-03-25T09:09:59.002Z</time></trkpt><trkpt lat="37.321891673702815" lon="13.822630642122261"><ele>352.0</ele><time>2026-03-25T09:10:00.002Z</time></trkpt><trkpt lat="37.32196241539415" lon="13.82288976483785"><ele>354.0</ele><time>2026-03-25T09:10:01.002Z</time></trkpt><trkpt lat="37.32202525235792" lon="13.823145944208333"><ele>356.0</ele><time>2026-03-25T09:10:02.002Z</time></trkpt><trkpt lat="37.3220778684337" lon="13.823389457138038"><ele>358.0</ele><time>2026-03-25T09:10:03.002Z</time></trkpt><trkpt lat="37.32211734489079" lon="13.823622531634086"><ele>359.0</ele><time>2026-03-25T09:10:04.002Z</time></trkpt><trkpt lat="37.32214681556794" lon="13.82384927946352"><ele>360.0</ele><time>2026-03-25T09:10:05.002Z</time></trkpt><trkpt lat="37.322164327396145" lon="13.824063445144246"><ele>361.0</ele><time>2026-03-25T09:10:06.002Z</time></trkpt><trkpt lat="37.32217852297359" lon="13.824257074368846"><ele>361.25</ele><time>2026-03-25T09:10:07.002Z</time></trkpt><trkpt lat="37.32219853149204" lon="13.82443536228125"><ele>361.5</ele><time>2026-03-25T09:10:08.002Z</time></trkpt><trkpt lat="37.322233921941425" lon="13.824608618409927"><ele>361.75</ele><time>2026-03-25T09:10:09.002Z</time></trkpt><trkpt lat="37.32230074619212" lon="13.824782860515333"><ele>362.0</ele><time>2026-03-25T09:10:10.002Z</time></trkpt><trkpt lat="37.32239847291212" lon="13.82493215707363"><ele>360.0</ele><time>2026-03-25T09:10:11.002Z</time></trkpt><trkpt lat="37.322514609009495" lon="13.825065698399056"><ele>358.0</ele><time>2026-03-25T09:10:12.002Z</time></trkpt><trkpt lat="37.322627600423544" lon="13.82521201972178"><ele>356.0</ele><time>2026-03-25T09:10:13.002Z</time></trkpt><trkpt lat="37.322718485443254" lon="13.825377956134963"><ele>356.0</ele><time>2026-03-25T09:10:14.002Z</time></trkpt><trkpt lat="37.322786882579095" lon="13.825559151698858"><ele>356.0</ele><time>2026-03-25T09:10:15.002Z</time></trkpt><trkpt lat="37.32283204325101" lon="13.8257479612579"><ele>356.0</ele><time>2026-03-25T09:10:16.002Z</time></trkpt><trkpt lat="37.3228480371509" lon="13.825941261294691"><ele>355.6666666666667</ele><time>2026-03-25T09:10:17.002Z</time></trkpt><trkpt lat="37.322836640701574" lon="13.826137217660731"><ele>355.3333333333333</ele><time>2026-03-25T09:10:18.002Z</time></trkpt><trkpt lat="37.322800625092476" lon="13.826327655635097"><ele>355.0</ele><time>2026-03-25T09:10:19.002Z</time></trkpt><trkpt lat="37.322736364183385" lon="13.826514129509412"><ele>355.0</ele><time>2026-03-25T09:10:20.002Z</time></trkpt><trkpt lat="37.32265201855913" lon="13.826694122597448"><ele>355.0</ele><time>2026-03-25T09:10:21.002Z</time></trkpt><trkpt lat="37.32257213455591" lon="13.826863597072025"><ele>355.0</ele><time>2026-03-25T09:10:22.002Z</time></trkpt><trkpt lat="37.32250548024642" lon="13.827034023052631"><ele>354.75</ele><time>2026-03-25T09:10:23.002Z</time></trkpt><trkpt lat="37.32245447571291" lon="13.827208328072539"><ele>354.5</ele><time>2026-03-25T09:10:24.002Z</time></trkpt><trkpt lat="37.3224225757948" lon="13.827389475239078"><ele>354.25</ele><time>2026-03-25T09:10:25.002Z</time></trkpt><trkpt lat="37.32241386587794" lon="13.8275797665951"><ele>354.0</ele><time>2026-03-25T09:10:26.002Z</time></trkpt><trkpt lat="37.32243018712116" lon="13.827773375825762"><ele>355.0</ele><time>2026-03-25T09:10:27.002Z</time></trkpt><trkpt lat="37.3224740076094" lon="13.827983838781378"><ele>356.0</ele><time>2026-03-25T09:10:28.002Z</time></trkpt><trkpt lat="37.32252311760399" lon="13.828207383010351"><ele>357.0</ele><time>2026-03-25T09:10:29.002Z</time></trkpt><trkpt lat="37.3225703611235" lon="13.828438024896222"><ele>359.3333333333333</ele><time>2026-03-25T09:10:30.002Z</time></trkpt><trkpt lat="37.32261613764068" lon="13.828674119099626"><ele>361.66666666666663</ele><time>2026-03-25T09:10:31.002Z</time></trkpt><trkpt lat="37.32266176905074" lon="13.828912397672491"><ele>364.0</ele><time>2026-03-25T09:10:32.002Z</time></trkpt><trkpt lat="37.3227082290097" lon="13.829147987219876"><ele>365.66666666666663</ele><time>2026-03-25T09:10:33.002Z</time></trkpt><trkpt lat="37.32275488582221" lon="13.829375404118526"><ele>367.3333333333333</ele><time>2026-03-25T09:10:34.001Z</time></trkpt><trkpt lat="37.322803881758816" lon="13.829594173315526"><ele>369.0</ele><time>2026-03-25T09:10:35.001Z</time></trkpt><trkpt lat="37.322865211582645" lon="13.829803383187324"><ele>369.0</ele><time>2026-03-25T09:10:36.001Z</time></trkpt><trkpt lat="37.322952668657386" lon="13.830006504731765"><ele>369.0</ele><time>2026-03-25T09:10:37.001Z</time></trkpt><trkpt lat="37.323060740280404" lon="13.83020744206019"><ele>369.0</ele><time>2026-03-25T09:10:38.001Z</time></trkpt><trkpt lat="37.323180576772096" lon="13.830401109762937"><ele>368.6666666666667</ele><time>2026-03-25T09:10:39.001Z</time></trkpt><trkpt lat="37.3233133605001" lon="13.830596791487887"><ele>368.33333333333337</ele><time>2026-03-25T09:10:40.001Z</time></trkpt><trkpt lat="37.323441631134195" lon="13.830792018140269"><ele>368.0</ele><time>2026-03-25T09:10:41.001Z</time></trkpt><trkpt lat="37.32356812609047" lon="13.830992701541467"><ele>368.0</ele><time>2026-03-25T09:10:42.001Z</time></trkpt><trkpt lat="37.32369304992286" lon="13.831195019638931"><ele>368.0</ele><time>2026-03-25T09:10:43.001Z</time></trkpt><trkpt lat="37.32381300041267" lon="13.831391464108153"><ele>368.0</ele><time>2026-03-25T09:10:44.001Z</time></trkpt><trkpt lat="37.323929000848786" lon="13.831580862591215"><ele>367.33333333333337</ele><time>2026-03-25T09:10:45.001Z</time></trkpt><trkpt lat="37.32404350700432" lon="13.83176189994038"><ele>366.6666666666667</ele><time>2026-03-25T09:10:46.001Z</time></trkpt><trkpt lat="37.32415480970056" lon="13.831938645623344"><ele>366.0</ele><time>2026-03-25T09:10:47.001Z</time></trkpt><trkpt lat="37.324259812183605" lon="13.83211373319874"><ele>366.0</ele><time>2026-03-25T09:10:48.001Z</time></trkpt><trkpt lat="37.32436518748397" lon="13.832285570291932"><ele>366.0</ele><time>2026-03-25T09:10:49.001Z</time></trkpt><trkpt lat="37.32447336440202" lon="13.832450857941868"><ele>366.0</ele><time>2026-03-25T09:10:50.001Z</time></trkpt><trkpt lat="37.32458552036239" lon="13.832603058568953"><ele>370.6666666666667</ele><time>2026-03-25T09:10:51.001Z</time></trkpt><trkpt lat="37.324712798739995" lon="13.832737420745522"><ele>375.33333333333337</ele><time>2026-03-25T09:10:52.001Z</time></trkpt><trkpt lat="37.32485633577246" lon="13.832848651558518"><ele>380.0</ele><time>2026-03-25T09:10:53.001Z</time></trkpt><trkpt lat="37.325011717459006" lon="13.832936811632925"><ele>380.0</ele><time>2026-03-25T09:10:54.001Z</time></trkpt><trkpt lat="37.32517641715515" lon="13.833004859643722"><ele>380.0</ele><time>2026-03-25T09:10:55.001Z</time></trkpt><trkpt lat="37.32535201041384" lon="13.83304699408755"><ele>380.0</ele><time>2026-03-25T09:10:56.001Z</time></trkpt><trkpt lat="37.32553763236807" lon="13.833066788014397"><ele>375.33333333333337</ele><time>2026-03-25T09:10:57.001Z</time></trkpt><trkpt lat="37.32573725407701" lon="13.833080912463785"><ele>370.6666666666667</ele><time>2026-03-25T09:10:58.001Z</time></trkpt><trkpt lat="37.325941065275586" lon="13.833100023194003"><ele>366.0</ele><time>2026-03-25T09:10:59.001Z</time></trkpt><trkpt lat="37.32614542149673" lon="13.83312140977744"><ele>366.0</ele><time>2026-03-25T09:11:00.001Z</time></trkpt><trkpt lat="37.326346200121726" lon="13.833142822073878"><ele>366.0</ele><time>2026-03-25T09:11:01.001Z</time></trkpt><trkpt lat="37.32654198870758" lon="13.833163178897463"><ele>366.0</ele><time>2026-03-25T09:11:02.001Z</time></trkpt><trkpt lat="37.326723981949804" lon="13.833182540010664"><ele>365.3333333333333</ele><time>2026-03-25T09:11:03.001Z</time></trkpt><trkpt lat="37.32688386999614" lon="13.833211359863542"><ele>364.66666666666663</ele><time>2026-03-25T09:11:04.001Z</time></trkpt><trkpt lat="37.32703546881659" lon="13.833264522565388"><ele>364.0</ele><time>2026-03-25T09:11:05.001Z</time></trkpt><trkpt lat="37.32718100652509" lon="13.833353885735026"><ele>362.0</ele><time>2026-03-25T09:11:06.001Z</time></trkpt><trkpt lat="37.32730338444406" lon="13.833485156681233"><ele>360.0</ele><time>2026-03-25T09:11:07.001Z</time></trkpt><trkpt lat="37.327402428983085" lon="13.83364059552575"><ele>358.0</ele><time>2026-03-25T09:11:08.001Z</time></trkpt><trkpt lat="37.32747490003905" lon="13.833830196955457"><ele>358.0</ele><time>2026-03-25T09:11:09.001Z</time></trkpt><trkpt lat="37.32754082194786" lon="13.834043430501142"><ele>358.0</ele><time>2026-03-25T09:11:10.001Z</time></trkpt><trkpt lat="37.327613431936285" lon="13.834271789754522"><ele>358.0</ele><time>2026-03-25T09:11:11.001Z</time></trkpt><trkpt lat="37.327681170778426" lon="13.834483618721041"><ele>358.66666666666663</ele><time>2026-03-25T09:11:12.001Z</time></trkpt><trkpt lat="37.32774813441177" lon="13.834693722295475"><ele>359.3333333333333</ele><time>2026-03-25T09:11:13.001Z</time></trkpt><trkpt lat="37.327814917684414" lon="13.834898306091599"><ele>360.0</ele><time>2026-03-25T09:11:14.001Z</time></trkpt><trkpt lat="37.32787879018564" lon="13.835096696365843"><ele>361.0</ele><time>2026-03-25T09:11:15.001Z</time></trkpt><trkpt lat="37.327940040314914" lon="13.835291878805782"><ele>362.0</ele><time>2026-03-25T09:11:16.001Z</time></trkpt><trkpt lat="37.328002481796126" lon="13.835488603994298"><ele>363.0</ele><time>2026-03-25T09:11:17.001Z</time></trkpt><trkpt lat="37.328065646200265" lon="13.835682479748106"><ele>361.0</ele><time>2026-03-25T09:11:18.001Z</time></trkpt><trkpt lat="37.328128848710776" lon="13.835872271672516"><ele>359.0</ele><time>2026-03-25T09:11:19.001Z</time></trkpt><trkpt lat="37.32818987411132" lon="13.83605439311927"><ele>357.0</ele><time>2026-03-25T09:11:20.001Z</time></trkpt><trkpt lat="37.32825113078725" lon="13.836231246329435"><ele>357.0</ele><time>2026-03-25T09:11:21.001Z</time></trkpt><trkpt lat="37.32831959129228" lon="13.836400797831928"><ele>357.0</ele><time>2026-03-25T09:11:22.001Z</time></trkpt><trkpt lat="37.32839727523579" lon="13.83656410271465"><ele>357.0</ele><time>2026-03-25T09:11:23.001Z</time></trkpt><trkpt lat="37.32848273261701" lon="13.836723469839946"><ele>359.0</ele><time>2026-03-25T09:11:24.001Z</time></trkpt><trkpt lat="37.32857893949318" lon="13.836874133002695"><ele>361.0</ele><time>2026-03-25T09:11:25.001Z</time></trkpt><trkpt lat="37.328687204921614" lon="13.83701643463724"><ele>363.0</ele><time>2026-03-25T09:11:26.001Z</time></trkpt><trkpt lat="37.32880052492332" lon="13.837141032781084"><ele>361.6666666666667</ele><time>2026-03-25T09:11:27.001Z</time></trkpt><trkpt lat="37.32892071828619" lon="13.837253214207218"><ele>360.33333333333337</ele><time>2026-03-25T09:11:28.001Z</time></trkpt><trkpt lat="37.32905848095473" lon="13.837366135568079"><ele>359.0</ele><time>2026-03-25T09:11:29.001Z</time></trkpt><trkpt lat="37.329209114535914" lon="13.83748699317004"><ele>359.0</ele><time>2026-03-25T09:11:30.001Z</time></trkpt><trkpt lat="37.32936676472864" lon="13.837611352528727"><ele>359.0</ele><time>2026-03-25T09:11:31.001Z</time></trkpt><trkpt lat="37.32952306104939" lon="13.837733293190881"><ele>359.0</ele><time>2026-03-25T09:11:32.001Z</time></trkpt><trkpt lat="37.32968002336124" lon="13.837857121488835"><ele>359.6666666666667</ele><time>2026-03-25T09:11:33.001Z</time></trkpt><trkpt lat="37.32983471401364" lon="13.837981024654532"><ele>360.3333333333333</ele><time>2026-03-25T09:11:34.001Z</time></trkpt><trkpt lat="37.32997919899899" lon="13.838104529656588"><ele>361.0</ele><time>2026-03-25T09:11:35.001Z</time></trkpt><trkpt lat="37.33011589551495" lon="13.838220183063"><ele>361.0</ele><time>2026-03-25T09:11:36.001Z</time></trkpt><trkpt lat="37.33024075386815" lon="13.83832108600772"><ele>361.0</ele><time>2026-03-25T09:11:37.001Z</time></trkpt><trkpt lat="37.330359809714736" lon="13.838413840328597"><ele>361.0</ele><time>2026-03-25T09:11:38.001Z</time></trkpt><trkpt lat="37.33047252807888" lon="13.838489883539276"><ele>361.0</ele><time>2026-03-25T09:11:39.001Z</time></trkpt><trkpt lat="37.33059093052812" lon="13.838553558267533"><ele>363.0</ele><time>2026-03-25T09:11:40.001Z</time></trkpt><trkpt lat="37.33072262228167" lon="13.838593217056403"><ele>365.0</ele><time>2026-03-25T09:11:41.001Z</time></trkpt><trkpt lat="37.33086163888425" lon="13.838608758839749"><ele>367.0</ele><time>2026-03-25T09:11:42.001Z</time></trkpt><trkpt lat="37.33101274692753" lon="13.838593272265642"><ele>369.0</ele><time>2026-03-25T09:11:43.001Z</time></trkpt><trkpt lat="37.33117511267114" lon="13.838558365816635"><ele>369.0</ele><time>2026-03-25T09:11:44.001Z</time></trkpt><trkpt lat="37.331346523347456" lon="13.838513957001327"><ele>369.0</ele><time>2026-03-25T09:11:45.001Z</time></trkpt><trkpt lat="37.331527404028144" lon="13.838466207272708"><ele>369.0</ele><time>2026-03-25T09:11:46.001Z</time></trkpt><trkpt lat="37.331709507112116" lon="13.838416965367275"><ele>367.6666666666667</ele><time>2026-03-25T09:11:47.001Z</time></trkpt><trkpt lat="37.33190045228195" lon="13.838365516318003"><ele>366.33333333333337</ele><time>2026-03-25T09:11:48.001Z</time></trkpt><trkpt lat="37.332094319201" lon="13.838316113987466"><ele>365.0</ele><time>2026-03-25T09:11:49.001Z</time></trkpt><trkpt lat="37.33227952388718" lon="13.838269259093963"><ele>365.0</ele><time>2026-03-25T09:11:50.001Z</time></trkpt><trkpt lat="37.33245228910532" lon="13.838226247455747"><ele>365.0</ele><time>2026-03-25T09:11:51.001Z</time></trkpt><trkpt lat="37.33262358840621" lon="13.838189484203237"><ele>365.0</ele><time>2026-03-25T09:11:52.001Z</time></trkpt><trkpt lat="37.33279422160672" lon="13.838158201494048"><ele>365.0</ele><time>2026-03-25T09:11:53.001Z</time></trkpt><trkpt lat="37.33296106386404" lon="13.838171731482214"><ele>365.0</ele><time>2026-03-25T09:11:54.001Z</time></trkpt><trkpt lat="37.33313120665776" lon="13.838209979358757"><ele>365.0</ele><time>2026-03-25T09:11:55.001Z</time></trkpt><trkpt lat="37.33330845559304" lon="13.83828880212188"><ele>365.33333333333337</ele><time>2026-03-25T09:11:56.001Z</time></trkpt><trkpt lat="37.33348960976868" lon="13.838387353675657"><ele>365.6666666666667</ele><time>2026-03-25T09:11:57.001Z</time></trkpt><trkpt lat="37.33367575057974" lon="13.838497059298158"><ele>366.0</ele><time>2026-03-25T09:11:58.001Z</time></trkpt><trkpt lat="37.33386593739301" lon="13.838603608183437"><ele>369.0</ele><time>2026-03-25T09:11:59.001Z</time></trkpt><trkpt lat="37.33405961902807" lon="13.838706607473194"><ele>372.0</ele><time>2026-03-25T09:12:00.001Z</time></trkpt><trkpt lat="37.33424836777417" lon="13.838812416949473"><ele>375.0</ele><time>2026-03-25T09:12:01.001Z</time></trkpt><trkpt lat="37.334427901508114" lon="13.83892323847197"><ele>375.0</ele><time>2026-03-25T09:12:02.001Z</time></trkpt><trkpt lat="37.33459296760219" lon="13.839045113271407"><ele>375.0</ele><time>2026-03-25T09:12:03.002Z</time></trkpt><trkpt lat="37.3347356837332" lon="13.839185761725778"><ele>375.0</ele><time>2026-03-25T09:12:04.002Z</time></trkpt><trkpt lat="37.3348590452264" lon="13.83934063663465"><ele>374.6666666666667</ele><time>2026-03-25T09:12:05.002Z</time></trkpt><trkpt lat="37.33497529854402" lon="13.839487998160529"><ele>374.33333333333337</ele><time>2026-03-25T09:12:06.002Z</time></trkpt><trkpt lat="37.33510365816152" lon="13.839606099667817"><ele>374.0</ele><time>2026-03-25T09:12:07.002Z</time></trkpt><trkpt lat="37.335250376167934" lon="13.8396943211311"><ele>374.0</ele><time>2026-03-25T09:12:08.002Z</time></trkpt><trkpt lat="37.33540859089815" lon="13.839746892063646"><ele>374.0</ele><time>2026-03-25T09:12:09.002Z</time></trkpt><trkpt lat="37.335574171767725" lon="13.83978175548562"><ele>374.0</ele><time>2026-03-25T09:12:10.002Z</time></trkpt><trkpt lat="37.33574061782574" lon="13.839806916567095"><ele>372.6666666666667</ele><time>2026-03-25T09:12:11.002Z</time></trkpt><trkpt lat="37.33589835061659" lon="13.839806492016816"><ele>371.3333333333333</ele><time>2026-03-25T09:12:12.002Z</time></trkpt><trkpt lat="37.33604888873722" lon="13.839774278135774"><ele>370.0</ele><time>2026-03-25T09:12:13.002Z</time></trkpt><trkpt lat="37.33618799976824" lon="13.83968995025617"><ele>370.0</ele><time>2026-03-25T09:12:14.002Z</time></trkpt><trkpt lat="37.33631652693526" lon="13.839563333109634"><ele>370.0</ele><time>2026-03-25T09:12:15.002Z</time></trkpt><trkpt lat="37.33643314074614" lon="13.839421216633584"><ele>370.0</ele><time>2026-03-25T09:12:16.002Z</time></trkpt><trkpt lat="37.336552160061224" lon="13.839300562147956"><ele>371.0</ele><time>2026-03-25T09:12:17.002Z</time></trkpt><trkpt lat="37.33668480006385" lon="13.839216904897858"><ele>372.0</ele><time>2026-03-25T09:12:18.002Z</time></trkpt><trkpt lat="37.336831377258804" lon="13.839173897614295"><ele>373.0</ele><time>2026-03-25T09:12:19.002Z</time></trkpt><trkpt lat="37.33698502810313" lon="13.83918754733663"><ele>373.0</ele><time>2026-03-25T09:12:20.002Z</time></trkpt><trkpt lat="37.337144206927036" lon="13.839219426015799"><ele>373.0</ele><time>2026-03-25T09:12:21.002Z</time></trkpt><trkpt lat="37.33728528049929" lon="13.839248881556461"><ele>373.0</ele><time>2026-03-25T09:12:22.002Z</time></trkpt><trkpt lat="37.33740630945326" lon="13.839267391118561"><ele>373.0</ele><time>2026-03-25T09:12:23.002Z</time></trkpt><trkpt lat="37.33751513801778" lon="13.839283970744967"><ele>375.2</ele><time>2026-03-25T09:12:24.002Z</time></trkpt><trkpt lat="37.33761309582289" lon="13.839300678510542"><ele>377.4</ele><time>2026-03-25T09:12:25.002Z</time></trkpt><trkpt lat="37.337715415272754" lon="13.8393200888185"><ele>379.59999999999997</ele><time>2026-03-25T09:12:26.002Z</time></trkpt><trkpt lat="37.337822708354196" lon="13.83934137201787"><ele>381.79999999999995</ele><time>2026-03-25T09:12:27.002Z</time></trkpt><trkpt lat="37.3379317921071" lon="13.839361025328257"><ele>384.0</ele><time>2026-03-25T09:12:28.002Z</time></trkpt><trkpt lat="37.338040014985225" lon="13.839378488436804"><ele>384.4</ele><time>2026-03-25T09:12:29.002Z</time></trkpt><trkpt lat="37.33814704215239" lon="13.83939636333363"><ele>384.79999999999995</ele><time>2026-03-25T09:12:30.002Z</time></trkpt><trkpt lat="37.33825230316653" lon="13.839415653837102"><ele>385.20000000000005</ele><time>2026-03-25T09:12:31.002Z</time></trkpt><trkpt lat="37.33835538817729" lon="13.839435070862713"><ele>385.6</ele><time>2026-03-25T09:12:32.002Z</time></trkpt><trkpt lat="37.338457081744366" lon="13.839452575662312"><ele>386.0</ele><time>2026-03-25T09:12:33.002Z</time></trkpt><trkpt lat="37.338556233373524" lon="13.839468339813857"><ele>386.0</ele><time>2026-03-25T09:12:34.002Z</time></trkpt><trkpt lat="37.33865143182803" lon="13.839485221482148"><ele>386.0</ele><time>2026-03-25T09:12:35.002Z</time></trkpt><trkpt lat="37.33874328209161" lon="13.839501165981751"><ele>386.0</ele><time>2026-03-25T09:12:36.002Z</time></trkpt><trkpt lat="37.33883110194465" lon="13.839516171474267"><ele>386.0</ele><time>2026-03-25T09:12:37.002Z</time></trkpt><trkpt lat="37.33892261278312" lon="13.839530493581528"><ele>386.0</ele><time>2026-03-25T09:12:38.002Z</time></trkpt><trkpt lat="37.33901658109217" lon="13.83954494433742"><ele>386.6</ele><time>2026-03-25T09:12:39Z</time></trkpt><trkpt lat="37.33911060911352" lon="13.839563584427935"><ele>387.20000000000005</ele><time>2026-03-25T09:12:40Z</time></trkpt><trkpt lat="37.339205746454034" lon="13.839583725933316"><ele>387.79999999999995</ele><time>2026-03-25T09:12:41Z</time></trkpt><trkpt lat="37.3393035984914" lon="13.839602586774761"><ele>388.4</ele><time>2026-03-25T09:12:42Z</time></trkpt><trkpt lat="37.33940613625113" lon="13.839620267869641"><ele>389.0</ele><time>2026-03-25T09:12:43Z</time></trkpt><trkpt lat="37.33951186639086" lon="13.83964414663667"><ele>389.0</ele><time>2026-03-25T09:12:44Z</time></trkpt><trkpt lat="37.33962140811196" lon="13.839681138504824"><ele>389.0</ele><time>2026-03-25T09:12:45Z</time></trkpt><trkpt lat="37.33973573242388" lon="13.839723104106522"><ele>389.0</ele><time>2026-03-25T09:12:46Z</time></trkpt><trkpt lat="37.33985415523114" lon="13.839767527039177"><ele>389.0</ele><time>2026-03-25T09:12:47Z</time></trkpt><trkpt lat="37.33996857961158" lon="13.839815720196851"><ele>388.5</ele><time>2026-03-25T09:12:48Z</time></trkpt><trkpt lat="37.34007785477051" lon="13.839872301308128"><ele>388.0</ele><time>2026-03-25T09:12:49Z</time></trkpt><trkpt lat="37.34018285743631" lon="13.83993216701445"><ele>387.5</ele><time>2026-03-25T09:12:50Z</time></trkpt><trkpt lat="37.34029087556294" lon="13.839991586814303"><ele>387.0</ele><time>2026-03-25T09:12:51Z</time></trkpt><trkpt lat="37.34040247396425" lon="13.840050154256868"><ele>387.0</ele><time>2026-03-25T09:12:52Z</time></trkpt><trkpt lat="37.34051253989597" lon="13.84010550912687"><ele>387.0</ele><time>2026-03-25T09:12:53Z</time></trkpt><trkpt lat="37.34061619209462" lon="13.840158853800993"><ele>387.0</ele><time>2026-03-25T09:12:54Z</time></trkpt><trkpt lat="37.34071816116155" lon="13.840214881099396"><ele>387.0</ele><time>2026-03-25T09:12:55Z</time></trkpt><trkpt lat="37.340821452935344" lon="13.840272430950751"><ele>386.75</ele><time>2026-03-25T09:12:56Z</time></trkpt><trkpt lat="37.34092706795513" lon="13.840328904319794"><ele>386.5</ele><time>2026-03-25T09:12:57Z</time></trkpt><trkpt lat="37.34103252496146" lon="13.840385791992661"><ele>386.25</ele><time>2026-03-25T09:12:58Z</time></trkpt><trkpt lat="37.34113841822624" lon="13.84044285313937"><ele>386.0</ele><time>2026-03-25T09:12:59Z</time></trkpt><trkpt lat="37.34125127609467" lon="13.8405010251343"><ele>386.0</ele><time>2026-03-25T09:13:00Z</time></trkpt><trkpt lat="37.34137129390066" lon="13.840562349647021"><ele>386.0</ele><time>2026-03-25T09:13:01Z</time></trkpt><trkpt lat="37.34149742289303" lon="13.84062932327909"><ele>386.0</ele><time>2026-03-25T09:13:02.001Z</time></trkpt><trkpt lat="37.34162603513841" lon="13.840695747119955"><ele>386.0</ele><time>2026-03-25T09:13:03.001Z</time></trkpt><trkpt lat="37.34175213284275" lon="13.840762147638621"><ele>385.25</ele><time>2026-03-25T09:13:04.001Z</time></trkpt><trkpt lat="37.341875342918016" lon="13.840829447659244"><ele>384.5</ele><time>2026-03-25T09:13:05.001Z</time></trkpt><trkpt lat="37.34199639783746" lon="13.840897132940304"><ele>383.75</ele><time>2026-03-25T09:13:06.001Z</time></trkpt><trkpt lat="37.34211258890138" lon="13.840962505552715"><ele>383.0</ele><time>2026-03-25T09:13:07.001Z</time></trkpt><trkpt lat="37.34223045029054" lon="13.841032439864108"><ele>382.25</ele><time>2026-03-25T09:13:08.001Z</time></trkpt><trkpt lat="37.34234182769299" lon="13.841113250022087"><ele>381.5</ele><time>2026-03-25T09:13:09.001Z</time></trkpt><trkpt lat="37.3424469382904" lon="13.841209984801235"><ele>380.75</ele><time>2026-03-25T09:13:10.001Z</time></trkpt><trkpt lat="37.34254415474622" lon="13.841327886213932"><ele>380.0</ele><time>2026-03-25T09:13:11.001Z</time></trkpt><trkpt lat="37.34262818276735" lon="13.841464996855631"><ele>380.0</ele><time>2026-03-25T09:13:12.001Z</time></trkpt><trkpt lat="37.34270329764682" lon="13.841621581046192"><ele>380.0</ele><time>2026-03-25T09:13:13.001Z</time></trkpt><trkpt lat="37.34276301149625" lon="13.841791430006477"><ele>380.0</ele><time>2026-03-25T09:13:14.001Z</time></trkpt><trkpt lat="37.34278716013047" lon="13.841975410342526"><ele>380.0</ele><time>2026-03-25T09:13:15.001Z</time></trkpt><trkpt lat="37.34283228094402" lon="13.842160287581198"><ele>380.75</ele><time>2026-03-25T09:13:16.001Z</time></trkpt><trkpt lat="37.34285838984597" lon="13.842351511038478"><ele>381.5</ele><time>2026-03-25T09:13:17.001Z</time></trkpt><trkpt lat="37.34288883208608" lon="13.842533606637689"><ele>382.25</ele><time>2026-03-25T09:13:18.001Z</time></trkpt><trkpt lat="37.34291583363645" lon="13.842697797993313"><ele>383.0</ele><time>2026-03-25T09:13:19.001Z</time></trkpt><trkpt lat="37.34294269611917" lon="13.842852701382569"><ele>383.75</ele><time>2026-03-25T09:13:20.001Z</time></trkpt><trkpt lat="37.34298670070709" lon="13.843006201402794"><ele>384.5</ele><time>2026-03-25T09:13:21.001Z</time></trkpt><trkpt lat="37.34306492723868" lon="13.843146016206264"><ele>385.25</ele><time>2026-03-25T09:13:22.001Z</time></trkpt><trkpt lat="37.34315988062145" lon="13.843270461706156"><ele>386.0</ele><time>2026-03-25T09:13:23.001Z</time></trkpt><trkpt lat="37.34326878376973" lon="13.843379082087198"><ele>386.75</ele><time>2026-03-25T09:13:24.001Z</time></trkpt><trkpt lat="37.34338258101821" lon="13.8434795327741"><ele>387.5</ele><time>2026-03-25T09:13:25.001Z</time></trkpt><trkpt lat="37.34348951921501" lon="13.843568821981716"><ele>388.25</ele><time>2026-03-25T09:13:26.001Z</time></trkpt><trkpt lat="37.34358974547862" lon="13.843643387094613"><ele>389.0</ele><time>2026-03-25T09:13:27.001Z</time></trkpt><trkpt lat="37.343698602053955" lon="13.843699988877665"><ele>389.0</ele><time>2026-03-25T09:13:28.001Z</time></trkpt><trkpt lat="37.34381592719037" lon="13.843720937252138"><ele>389.0</ele><time>2026-03-25T09:13:29.001Z</time></trkpt><trkpt lat="37.34393625171119" lon="13.843706369296854"><ele>389.0</ele><time>2026-03-25T09:13:30.001Z</time></trkpt><trkpt lat="37.344058084498805" lon="13.843660103590263"><ele>389.0</ele><time>2026-03-25T09:13:31.001Z</time></trkpt><trkpt lat="37.344175547040045" lon="13.843602039692483"><ele>389.25</ele><time>2026-03-25T09:13:32.001Z</time></trkpt><trkpt lat="37.3442884010051" lon="13.843546723269936"><ele>389.5</ele><time>2026-03-25T09:13:33.001Z</time></trkpt><trkpt lat="37.34439542097817" lon="13.843496474689566"><ele>389.75</ele><time>2026-03-25T09:13:34Z</time></trkpt><trkpt lat="37.34450780888385" lon="13.843441248499383"><ele>390.0</ele><time>2026-03-25T09:13:35Z</time></trkpt><trkpt lat="37.34462695690022" lon="13.843386778246145"><ele>391.0</ele><time>2026-03-25T09:13:36Z</time></trkpt><trkpt lat="37.344751615576605" lon="13.843327942654625"><ele>392.0</ele><time>2026-03-25T09:13:37Z</time></trkpt><trkpt lat="37.34487828513245" lon="13.843267749071584"><ele>393.0</ele><time>2026-03-25T09:13:38Z</time></trkpt><trkpt lat="37.345007818979184" lon="13.843208713222255"><ele>394.0</ele><time>2026-03-25T09:13:39Z</time></trkpt><trkpt lat="37.34514114828768" lon="13.843149046387367"><ele>394.0</ele><time>2026-03-25T09:13:40Z</time></trkpt><trkpt lat="37.345273463437195" lon="13.843084345968796"><ele>394.0</ele><time>2026-03-25T09:13:41Z</time></trkpt><trkpt lat="37.34540521815472" lon="13.84301961025807"><ele>394.0</ele><time>2026-03-25T09:13:42Z</time></trkpt><trkpt lat="37.345537720304456" lon="13.842958248301498"><ele>394.0</ele><time>2026-03-25T09:13:43Z</time></trkpt><trkpt lat="37.345668339398536" lon="13.842896188523815"><ele>394.75</ele><time>2026-03-25T09:13:44Z</time></trkpt><trkpt lat="37.34579855885649" lon="13.842835545241295"><ele>395.5</ele><time>2026-03-25T09:13:45Z</time></trkpt><trkpt lat="37.345927990462236" lon="13.842775720648705"><ele>396.25</ele><time>2026-03-25T09:13:46Z</time></trkpt><trkpt lat="37.346053005529896" lon="13.84271510378769"><ele>397.0</ele><time>2026-03-25T09:13:47Z</time></trkpt><trkpt lat="37.34617427838359" lon="13.842656797347656"><ele>399.25</ele><time>2026-03-25T09:13:48Z</time></trkpt><trkpt lat="37.34628984048604" lon="13.842602262089317"><ele>401.5</ele><time>2026-03-25T09:13:49Z</time></trkpt><trkpt lat="37.34640676518594" lon="13.842548171719027"><ele>403.75</ele><time>2026-03-25T09:13:50Z</time></trkpt><trkpt lat="37.34652452822494" lon="13.842495089900398"><ele>406.0</ele><time>2026-03-25T09:13:51Z</time></trkpt><trkpt lat="37.34664374436664" lon="13.842440662812932"><ele>407.0</ele><time>2026-03-25T09:13:52Z</time></trkpt><trkpt lat="37.3467619976051" lon="13.842382763197454"><ele>408.0</ele><time>2026-03-25T09:13:53Z</time></trkpt><trkpt lat="37.34688091277691" lon="13.842323909420674"><ele>409.0</ele><time>2026-03-25T09:13:54Z</time></trkpt><trkpt lat="37.347123653829094" lon="13.84222369239299"><ele>409.0</ele><time>2026-03-25T09:13:56Z</time></trkpt><trkpt lat="37.34724818030349" lon="13.84220485879244"><ele>409.0</ele><time>2026-03-25T09:13:57Z</time></trkpt><trkpt lat="37.34737029347431" lon="13.842228589448304"><ele>409.0</ele><time>2026-03-25T09:13:58Z</time></trkpt><trkpt lat="37.347488164301666" lon="13.842289300189037"><ele>409.0</ele><time>2026-03-25T09:13:59Z</time></trkpt><trkpt lat="37.34758452606481" lon="13.842399941327297"><ele>409.0</ele><time>2026-03-25T09:14:00Z</time></trkpt><trkpt lat="37.34769678163073" lon="13.842499407097929"><ele>409.0</ele><time>2026-03-25T09:14:01Z</time></trkpt><trkpt lat="37.34780550225094" lon="13.842621681281871"><ele>409.0</ele><time>2026-03-25T09:14:02Z</time></trkpt><trkpt lat="37.347913016346986" lon="13.842733682679485"><ele>409.0</ele><time>2026-03-25T09:14:03Z</time></trkpt><trkpt lat="37.34800312822468" lon="13.842833703251307"><ele>409.75</ele><time>2026-03-25T09:14:04Z</time></trkpt><trkpt lat="37.34809275270798" lon="13.842928284519912"><ele>410.5</ele><time>2026-03-25T09:14:05Z</time></trkpt><trkpt lat="37.34818929407859" lon="13.843016639863963"><ele>411.25</ele><time>2026-03-25T09:14:06Z</time></trkpt><trkpt lat="37.34829490253307" lon="13.843091390297086"><ele>412.0</ele><time>2026-03-25T09:14:07Z</time></trkpt><trkpt lat="37.3484086518031" lon="13.843147094306639"><ele>412.0</ele><time>2026-03-25T09:14:08Z</time></trkpt><trkpt lat="37.34852699850693" lon="13.843184737210526"><ele>412.0</ele><time>2026-03-25T09:14:09Z</time></trkpt><trkpt lat="37.34865379340272" lon="13.843199956702932"><ele>412.0</ele><time>2026-03-25T09:14:10Z</time></trkpt><trkpt lat="37.34878050058767" lon="13.843204236677929"><ele>412.0</ele><time>2026-03-25T09:14:11Z</time></trkpt><trkpt lat="37.34890742259228" lon="13.843203548368702"><ele>413.20000000000005</ele><time>2026-03-25T09:14:12Z</time></trkpt><trkpt lat="37.3490214267166" lon="13.843205063249664"><ele>414.4</ele><time>2026-03-25T09:14:13Z</time></trkpt><trkpt lat="37.34912523691704" lon="13.843205426436544"><ele>415.6</ele><time>2026-03-25T09:14:14Z</time></trkpt><trkpt lat="37.3492224051502" lon="13.843205480557202"><ele>416.79999999999995</ele><time>2026-03-25T09:14:15Z</time></trkpt><trkpt lat="37.34930730973294" lon="13.843198952083169"><ele>418.0</ele><time>2026-03-25T09:14:16Z</time></trkpt><trkpt lat="37.3493834642448" lon="13.84318131964584"><ele>418.00000000000006</ele><time>2026-03-25T09:14:17Z</time></trkpt><trkpt lat="37.3494907596924" lon="13.843131835223161"><ele>418.0</ele><time>2026-03-25T09:14:19.001Z</time></trkpt><trkpt lat="37.349555863896015" lon="13.843084362405289"><ele>418.0</ele><time>2026-03-25T09:14:21.001Z</time></trkpt><trkpt lat="37.3496145927057" lon="13.843042986378746"><ele>418.0</ele><time>2026-03-25T09:14:23.001Z</time></trkpt><trkpt lat="37.34967789848136" lon="13.84299485024592"><ele>418.00000000000006</ele><time>2026-03-25T09:14:25.001Z</time></trkpt><trkpt lat="37.349783034393504" lon="13.842929175092635"><ele>418.0</ele><time>2026-03-25T09:14:27.001Z</time></trkpt><trkpt lat="37.34989495282908" lon="13.842920089807004"><ele>417.83333333333337</ele><time>2026-03-25T09:14:29.001Z</time></trkpt><trkpt lat="37.34996167184259" lon="13.843044517076608"><ele>417.6666666666667</ele><time>2026-03-25T09:14:31.001Z</time></trkpt><trkpt lat="37.34999499977999" lon="13.843128262384981"><ele>417.5</ele><time>2026-03-25T09:14:32.001Z</time></trkpt><trkpt lat="37.35003119110124" lon="13.843201992323626"><ele>417.33333333333337</ele><time>2026-03-25T09:14:33.001Z</time></trkpt><trkpt lat="37.35006387338401" lon="13.84328288065691"><ele>417.1666666666667</ele><time>2026-03-25T09:14:34.001Z</time></trkpt><trkpt lat="37.350095742506554" lon="13.843384495391806"><ele>417.0</ele><time>2026-03-25T09:14:35.001Z</time></trkpt><trkpt lat="37.35011711533744" lon="13.843497048482288"><ele>417.0</ele><time>2026-03-25T09:14:36.001Z</time></trkpt><trkpt lat="37.35011745562128" lon="13.843606399725878"><ele>417.0</ele><time>2026-03-25T09:14:37.001Z</time></trkpt><trkpt lat="37.35010002627855" lon="13.843716239351098"><ele>417.0</ele><time>2026-03-25T09:14:38.001Z</time></trkpt><trkpt lat="37.350096055873266" lon="13.843833741915395"><ele>417.0</ele><time>2026-03-25T09:14:39.001Z</time></trkpt><trkpt lat="37.35011242009257" lon="13.843961492490918"><ele>417.0</ele><time>2026-03-25T09:14:40.001Z</time></trkpt><trkpt lat="37.350150694582666" lon="13.844080489176825"><ele>417.0</ele><time>2026-03-25T09:14:41.001Z</time></trkpt><trkpt lat="37.35020183598616" lon="13.844206158810819"><ele>417.0</ele><time>2026-03-25T09:14:42.001Z</time></trkpt><trkpt lat="37.35026240208467" lon="13.844337886297856"><ele>417.0</ele><time>2026-03-25T09:14:43.001Z</time></trkpt><trkpt lat="37.350327756506275" lon="13.844482210112657"><ele>417.0</ele><time>2026-03-25T09:14:44.001Z</time></trkpt><trkpt lat="37.350393403706164" lon="13.844637731915446"><ele>417.0</ele><time>2026-03-25T09:14:44.998Z</time></trkpt><trkpt lat="37.350459273227386" lon="13.844793536652102"><ele>417.0</ele><time>2026-03-25T09:14:45.998Z</time></trkpt><trkpt lat="37.35051972299842" lon="13.844941298484292"><ele>417.0</ele><time>2026-03-25T09:14:46.998Z</time></trkpt><trkpt lat="37.35058117523291" lon="13.845092886640778"><ele>417.0</ele><time>2026-03-25T09:14:47.998Z</time></trkpt><trkpt lat="37.35063698449637" lon="13.845230016020452"><ele>417.0</ele><time>2026-03-25T09:14:48.998Z</time></trkpt><trkpt lat="37.350695222238386" lon="13.845353100054934"><ele>417.0</ele><time>2026-03-25T09:14:49.998Z</time></trkpt><trkpt lat="37.35076741600057" lon="13.845465699231676"><ele>417.0</ele><time>2026-03-25T09:14:50.998Z</time></trkpt><trkpt lat="37.35085904319294" lon="13.84556251520679"><ele>417.0</ele><time>2026-03-25T09:14:51.998Z</time></trkpt><trkpt lat="37.35110137672372" lon="13.845708564751265"><ele>417.0</ele><time>2026-03-25T09:14:53.998Z</time></trkpt><trkpt lat="37.351240105648394" lon="13.845783111389508"><ele>417.0</ele><time>2026-03-25T09:14:54.998Z</time></trkpt><trkpt lat="37.351381624929395" lon="13.845868142291026"><ele>417.0</ele><time>2026-03-25T09:14:55.998Z</time></trkpt><trkpt lat="37.351532104080036" lon="13.845958975852724"><ele>418.66666666666663</ele><time>2026-03-25T09:14:56.998Z</time></trkpt><trkpt lat="37.35168742389556" lon="13.846053827509046"><ele>420.3333333333333</ele><time>2026-03-25T09:14:57.998Z</time></trkpt><trkpt lat="37.35182201018637" lon="13.846139411689943"><ele>422.0</ele><time>2026-03-25T09:14:58.999Z</time></trkpt><trkpt lat="37.351947448541274" lon="13.846220877607559"><ele>422.0</ele><time>2026-03-25T09:14:59.999Z</time></trkpt><trkpt lat="37.35207499216957" lon="13.846306156814322"><ele>422.0</ele><time>2026-03-25T09:15:00.999Z</time></trkpt><trkpt lat="37.35219977805118" lon="13.846403533022016"><ele>422.0</ele><time>2026-03-25T09:15:01.999Z</time></trkpt><trkpt lat="37.35232213361245" lon="13.846511636325594"><ele>422.0</ele><time>2026-03-25T09:15:02.999Z</time></trkpt><trkpt lat="37.352445631356375" lon="13.84662147375316"><ele>423.0</ele><time>2026-03-25T09:15:03.999Z</time></trkpt><trkpt lat="37.35257209948816" lon="13.84672719822391"><ele>424.0</ele><time>2026-03-25T09:15:04.999Z</time></trkpt><trkpt lat="37.35269202420769" lon="13.846838299704572"><ele>425.0</ele><time>2026-03-25T09:15:05.999Z</time></trkpt><trkpt lat="37.35280129304956" lon="13.84696030336366"><ele>426.0</ele><time>2026-03-25T09:15:06.999Z</time></trkpt><trkpt lat="37.3528997032857" lon="13.847091237961225"><ele>426.25</ele><time>2026-03-25T09:15:07.999Z</time></trkpt><trkpt lat="37.352984189820454" lon="13.847229228978371"><ele>426.5</ele><time>2026-03-25T09:15:08.999Z</time></trkpt><trkpt lat="37.35305136827021" lon="13.847358376480875"><ele>426.75</ele><time>2026-03-25T09:15:09.999Z</time></trkpt><trkpt lat="37.35310825853105" lon="13.84747974884561"><ele>427.0</ele><time>2026-03-25T09:15:10.999Z</time></trkpt><trkpt lat="37.353157443594775" lon="13.847595166429082"><ele>428.0</ele><time>2026-03-25T09:15:11.999Z</time></trkpt><trkpt lat="37.35320450872101" lon="13.847719204115984"><ele>429.0</ele><time>2026-03-25T09:15:12.999Z</time></trkpt><trkpt lat="37.353254284936334" lon="13.847848598134776"><ele>430.0</ele><time>2026-03-25T09:15:13.999Z</time></trkpt><trkpt lat="37.35331035232067" lon="13.847979247563075"><ele>431.0</ele><time>2026-03-25T09:15:14.999Z</time></trkpt><trkpt lat="37.353367858436265" lon="13.848113955434622"><ele>431.0</ele><time>2026-03-25T09:15:15.999Z</time></trkpt><trkpt lat="37.35342703035673" lon="13.848258671514918"><ele>431.0</ele><time>2026-03-25T09:15:16.999Z</time></trkpt><trkpt lat="37.35348807580218" lon="13.848414575734902"><ele>431.0</ele><time>2026-03-25T09:15:17.999Z</time></trkpt><trkpt lat="37.35355230065047" lon="13.848573917387046"><ele>431.0</ele><time>2026-03-25T09:15:18.999Z</time></trkpt><trkpt lat="37.35361550469431" lon="13.848736175644412"><ele>431.0</ele><time>2026-03-25T09:15:19.999Z</time></trkpt><trkpt lat="37.353665922252794" lon="13.848907000578674"><ele>431.0</ele><time>2026-03-25T09:15:20.999Z</time></trkpt><trkpt lat="37.35369980216263" lon="13.84908063027202"><ele>431.0</ele><time>2026-03-25T09:15:21.999Z</time></trkpt><trkpt lat="37.353708580202905" lon="13.849255875897278"><ele>431.0</ele><time>2026-03-25T09:15:22.999Z</time></trkpt><trkpt lat="37.353694643650634" lon="13.849432911160607"><ele>431.5</ele><time>2026-03-25T09:15:23.999Z</time></trkpt><trkpt lat="37.35365800829028" lon="13.849605317757172"><ele>432.0</ele><time>2026-03-25T09:15:24.999Z</time></trkpt><trkpt lat="37.35360328156513" lon="13.849768004550413"><ele>432.5</ele><time>2026-03-25T09:15:25.999Z</time></trkpt><trkpt lat="37.353521205415994" lon="13.849913748825706"><ele>433.0</ele><time>2026-03-25T09:15:26.999Z</time></trkpt><trkpt lat="37.353436833890136" lon="13.850048802287967"><ele>434.0</ele><time>2026-03-25T09:15:27.999Z</time></trkpt><trkpt lat="37.353370536542656" lon="13.850190188845234"><ele>435.0</ele><time>2026-03-25T09:15:28.999Z</time></trkpt><trkpt lat="37.35332692675779" lon="13.850345944005799"><ele>436.0</ele><time>2026-03-25T09:15:29.999Z</time></trkpt><trkpt lat="37.353302899251524" lon="13.850513279065858"><ele>437.0</ele><time>2026-03-25T09:15:30.999Z</time></trkpt><trkpt lat="37.35328955288332" lon="13.850688060471642"><ele>437.0</ele><time>2026-03-25T09:15:31.999Z</time></trkpt><trkpt lat="37.35327613794131" lon="13.850861882850593"><ele>437.0</ele><time>2026-03-25T09:15:32.999Z</time></trkpt><trkpt lat="37.3532767223804" lon="13.851031362672792"><ele>437.0</ele><time>2026-03-25T09:15:33.999Z</time></trkpt><trkpt lat="37.3533025508086" lon="13.851182939637098"><ele>437.0</ele><time>2026-03-25T09:15:35Z</time></trkpt><trkpt lat="37.3533471950214" lon="13.851303201054337"><ele>437.3333333333333</ele><time>2026-03-25T09:15:36Z</time></trkpt><trkpt lat="37.35339737627264" lon="13.85139785861017"><ele>437.66666666666663</ele><time>2026-03-25T09:15:37Z</time></trkpt><trkpt lat="37.353445631615266" lon="13.851476343930829"><ele>438.0</ele><time>2026-03-25T09:15:38Z</time></trkpt><trkpt lat="37.353487459549356" lon="13.851542659001572"><ele>438.33333333333337</ele><time>2026-03-25T09:15:39Z</time></trkpt><trkpt lat="37.35353925899713" lon="13.851629561825254"><ele>438.6666666666667</ele><time>2026-03-25T09:15:41Z</time></trkpt><trkpt lat="37.353599043394325" lon="13.851666779533014"><ele>439.0</ele><time>2026-03-25T09:15:47Z</time></trkpt><trkpt lat="37.353608912160674" lon="13.851798813697817"><ele>439.6666666666667</ele><time>2026-03-25T09:15:49Z</time></trkpt><trkpt lat="37.35365932138085" lon="13.851936214376387"><ele>440.33333333333337</ele><time>2026-03-25T09:15:51Z</time></trkpt><trkpt lat="37.3536865834733" lon="13.852032541707663"><ele>441.0</ele><time>2026-03-25T09:15:53Z</time></trkpt><trkpt lat="37.35371666496281" lon="13.85210549380323"><ele>441.66666666666663</ele><time>2026-03-25T09:16:28Z</time></trkpt><trkpt lat="37.35377546024704" lon="13.852144223631708"><ele>442.3333333333333</ele><time>2026-03-25T09:16:29Z</time></trkpt><trkpt lat="37.353805912946655" lon="13.852216873126197"><ele>443.0</ele><time>2026-03-25T09:16:30Z</time></trkpt><trkpt lat="37.35384862733474" lon="13.852304519157542"><ele>443.0</ele><time>2026-03-25T09:16:32Z</time></trkpt><trkpt lat="37.35389196922819" lon="13.852363701276273"><ele>447.0</ele><time>2026-03-25T09:16:35Z</time></trkpt></trkseg><trkseg><trkpt lat="37.35397758216557" lon="13.852232458302531"><ele>447.0</ele><time>2026-03-25T09:29:33.002Z</time></trkpt><trkpt lat="37.353920496320754" lon="13.852270506987841"><ele>447.0</ele><time>2026-03-25T09:30:18Z</time></trkpt><trkpt lat="37.35388858185108" lon="13.852396774533753"><ele>447.0</ele><time>2026-03-25T09:30:22Z</time></trkpt><trkpt lat="37.35392002926792" lon="13.85246564752856"><ele>447.0</ele><time>2026-03-25T09:30:23Z</time></trkpt><trkpt lat="37.353975734094035" lon="13.852555880043422"><ele>447.0</ele><time>2026-03-25T09:30:25Z</time></trkpt><trkpt lat="37.3540138645468" lon="13.85265643023211"><ele>447.0</ele><time>2026-03-25T09:30:29Z</time></trkpt><trkpt lat="37.35406126098098" lon="13.852751094502928"><ele>447.6666666666667</ele><time>2026-03-25T09:30:32Z</time></trkpt><trkpt lat="37.354091155710115" lon="13.85283361750124"><ele>448.33333333333337</ele><time>2026-03-25T09:30:35Z</time></trkpt><trkpt lat="37.35412749940992" lon="13.852904201273889"><ele>449.0</ele><time>2026-03-25T09:30:37Z</time></trkpt><trkpt lat="37.354232806241114" lon="13.85290036645462"><ele>449.6666666666667</ele><time>2026-03-25T09:30:39Z</time></trkpt><trkpt lat="37.354302994029695" lon="13.852846082730457"><ele>450.33333333333337</ele><time>2026-03-25T09:30:40Z</time></trkpt><trkpt lat="37.35437897076954" lon="13.852791889284568"><ele>451.0</ele><time>2026-03-25T09:30:41Z</time></trkpt><trkpt lat="37.35445071039627" lon="13.852743854856945"><ele>451.00000000000006</ele><time>2026-03-25T09:30:42Z</time></trkpt><trkpt lat="37.3545118463457" lon="13.852700868105922"><ele>451.0</ele><time>2026-03-25T09:30:43Z</time></trkpt><trkpt lat="37.354571181161596" lon="13.852670038622248"><ele>451.0</ele><time>2026-03-25T09:30:44Z</time></trkpt><trkpt lat="37.35467712839597" lon="13.85259707269706"><ele>451.0</ele><time>2026-03-25T09:30:46Z</time></trkpt><trkpt lat="37.35473603411985" lon="13.852555130078603"><ele>451.00000000000006</ele><time>2026-03-25T09:30:47Z</time></trkpt><trkpt lat="37.354795825010804" lon="13.85250747261228"><ele>451.0</ele><time>2026-03-25T09:30:48Z</time></trkpt><trkpt lat="37.354858441823616" lon="13.852470683148082"><ele>450.83333333333337</ele><time>2026-03-25T09:30:49Z</time></trkpt><trkpt lat="37.35491470580045" lon="13.852427907047435"><ele>450.6666666666667</ele><time>2026-03-25T09:30:50Z</time></trkpt><trkpt lat="37.354974114099576" lon="13.852379542598381"><ele>450.5</ele><time>2026-03-25T09:30:51Z</time></trkpt><trkpt lat="37.35503268887898" lon="13.85233098411528"><ele>450.33333333333337</ele><time>2026-03-25T09:30:52Z</time></trkpt><trkpt lat="37.35513969352782" lon="13.852258753659902"><ele>450.1666666666667</ele><time>2026-03-25T09:30:54Z</time></trkpt><trkpt lat="37.35523848439493" lon="13.852186028835645"><ele>450.0</ele><time>2026-03-25T09:30:56Z</time></trkpt><trkpt lat="37.355325013578025" lon="13.852106137254701"><ele>450.0</ele><time>2026-03-25T09:30:58Z</time></trkpt><trkpt lat="37.35543755386038" lon="13.852044163546386"><ele>450.0</ele><time>2026-03-25T09:31:00Z</time></trkpt><trkpt lat="37.35549401472233" lon="13.852008851699233"><ele>450.0</ele><time>2026-03-25T09:31:01Z</time></trkpt><trkpt lat="37.35555593000611" lon="13.851972379104822"><ele>450.0</ele><time>2026-03-25T09:31:02Z</time></trkpt><trkpt lat="37.355623732076126" lon="13.85193879168221"><ele>450.0</ele><time>2026-03-25T09:31:03Z</time></trkpt><trkpt lat="37.3556899390352" lon="13.85188555701308"><ele>450.0</ele><time>2026-03-25T09:31:04Z</time></trkpt><trkpt lat="37.35575301640403" lon="13.851855165262265"><ele>450.4</ele><time>2026-03-25T09:31:05Z</time></trkpt><trkpt lat="37.355845687465184" lon="13.851817287755077"><ele>450.8</ele><time>2026-03-25T09:31:07Z</time></trkpt><trkpt lat="37.35595027633206" lon="13.851774473977082"><ele>451.20000000000005</ele><time>2026-03-25T09:31:09Z</time></trkpt><trkpt lat="37.35604479949593" lon="13.851728772881584"><ele>451.6</ele><time>2026-03-25T09:31:11Z</time></trkpt><trkpt lat="37.356146983017084" lon="13.85168287176991"><ele>452.0</ele><time>2026-03-25T09:31:13Z</time></trkpt><trkpt lat="37.35622414391121" lon="13.85164297723806"><ele>451.99999999999994</ele><time>2026-03-25T09:31:15Z</time></trkpt><trkpt lat="37.35630502570045" lon="13.851612237214917"><ele>452.0</ele><time>2026-03-25T09:31:17Z</time></trkpt><trkpt lat="37.35637715588294" lon="13.85158174428196"><ele>452.0</ele><time>2026-03-25T09:31:19Z</time></trkpt><trkpt lat="37.35644479018617" lon="13.851560445009456"><ele>452.0</ele><time>2026-03-25T09:31:20.999Z</time></trkpt><trkpt lat="37.35652588561966" lon="13.851524380386575"><ele>451.99999999999994</ele><time>2026-03-25T09:31:22.999Z</time></trkpt><trkpt lat="37.35660452289882" lon="13.851481767308734"><ele>452.0</ele><time>2026-03-25T09:31:24.999Z</time></trkpt><trkpt lat="37.35668084515097" lon="13.851432142876288"><ele>451.8333333333333</ele><time>2026-03-25T09:31:27.999Z</time></trkpt><trkpt lat="37.35675160183856" lon="13.851386585727491"><ele>451.66666666666663</ele><time>2026-03-25T09:31:30.999Z</time></trkpt><trkpt lat="37.356820690620815" lon="13.85137626363101"><ele>451.5</ele><time>2026-03-25T09:31:32.999Z</time></trkpt><trkpt lat="37.356890309251376" lon="13.851344699936119"><ele>451.33333333333337</ele><time>2026-03-25T09:31:34.999Z</time></trkpt><trkpt lat="37.356964615655684" lon="13.851310716937617"><ele>451.1666666666667</ele><time>2026-03-25T09:31:36.999Z</time></trkpt><trkpt lat="37.35703671194779" lon="13.851277747353649"><ele>451.0</ele><time>2026-03-25T09:31:38.999Z</time></trkpt><trkpt lat="37.3571040480238" lon="13.851246954600468"><ele>451.00000000000006</ele><time>2026-03-25T09:31:41.999Z</time></trkpt><trkpt lat="37.357179689528486" lon="13.851194476550788"><ele>451.0</ele><time>2026-03-25T09:31:44.999Z</time></trkpt><trkpt lat="37.35727033379982" lon="13.851151136879002"><ele>451.0</ele><time>2026-03-25T09:31:47.999Z</time></trkpt><trkpt lat="37.35733838858825" lon="13.851142344232974"><ele>451.0</ele><time>2026-03-25T09:31:49.999Z</time></trkpt><trkpt lat="37.35739222231018" lon="13.851093616642583"><ele>451.00000000000006</ele><time>2026-03-25T09:32:28Z</time></trkpt><trkpt lat="37.35746988148563" lon="13.851075188237584"><ele>451.0</ele><time>2026-03-25T09:32:32Z</time></trkpt><trkpt lat="37.35753434556684" lon="13.851044866011705"><ele>451.0</ele><time>2026-03-25T09:32:33Z</time></trkpt><trkpt lat="37.35760286198743" lon="13.851012826577028"><ele>451.0</ele><time>2026-03-25T09:32:34Z</time></trkpt><trkpt lat="37.357717102480805" lon="13.85095927656188"><ele>451.0</ele><time>2026-03-25T09:32:36Z</time></trkpt><trkpt lat="37.35782611594912" lon="13.85090817917309"><ele>451.0</ele><time>2026-03-25T09:32:38Z</time></trkpt><trkpt lat="37.35793128697589" lon="13.85085616997522"><ele>451.0</ele><time>2026-03-25T09:32:40Z</time></trkpt><trkpt lat="37.3580238932989" lon="13.85076623938327"><ele>450.20000000000005</ele><time>2026-03-25T09:32:42Z</time></trkpt><trkpt lat="37.358137230983615" lon="13.850699353557584"><ele>449.40000000000003</ele><time>2026-03-25T09:32:44Z</time></trkpt><trkpt lat="37.3582713739808" lon="13.85066655730426"><ele>448.6</ele><time>2026-03-25T09:32:46Z</time></trkpt><trkpt lat="37.35834461970728" lon="13.850680390348934"><ele>447.8</ele><time>2026-03-25T09:32:47Z</time></trkpt><trkpt lat="37.35841927596271" lon="13.850712895400047"><ele>447.0</ele><time>2026-03-25T09:32:48Z</time></trkpt><trkpt lat="37.35850373280484" lon="13.850738795751873"><ele>447.0</ele><time>2026-03-25T09:32:49Z</time></trkpt><trkpt lat="37.35858744537658" lon="13.850762646272551"><ele>447.0</ele><time>2026-03-25T09:32:50Z</time></trkpt><trkpt lat="37.35866804557667" lon="13.850789826971424"><ele>447.0</ele><time>2026-03-25T09:32:51Z</time></trkpt><trkpt lat="37.358746143058234" lon="13.850810767032636"><ele>447.0</ele><time>2026-03-25T09:32:52Z</time></trkpt><trkpt lat="37.35881957021017" lon="13.850835563192792"><ele>447.0</ele><time>2026-03-25T09:32:53Z</time></trkpt><trkpt lat="37.358887874011124" lon="13.850852020844616"><ele>447.0</ele><time>2026-03-25T09:32:54Z</time></trkpt><trkpt lat="37.358952867156994" lon="13.85087977310138"><ele>447.5</ele><time>2026-03-25T09:32:55Z</time></trkpt><trkpt lat="37.35901963770558" lon="13.850892684797161"><ele>448.0</ele><time>2026-03-25T09:32:56Z</time></trkpt><trkpt lat="37.359124269215656" lon="13.850932346335888"><ele>448.5</ele><time>2026-03-25T09:32:58Z</time></trkpt><trkpt lat="37.3591942562046" lon="13.850965547432402"><ele>449.0</ele><time>2026-03-25T09:33:04Z</time></trkpt><trkpt lat="37.35927007820878" lon="13.85103372057039"><ele>449.5</ele><time>2026-03-25T09:33:06Z</time></trkpt><trkpt lat="37.359319862450974" lon="13.851093194316936"><ele>450.0</ele><time>2026-03-25T09:33:07Z</time></trkpt><trkpt lat="37.359364090619316" lon="13.851165886942049"><ele>451.0</ele><time>2026-03-25T09:33:08Z</time></trkpt><trkpt lat="37.35941273318911" lon="13.851244233624685"><ele>452.0</ele><time>2026-03-25T09:33:09Z</time></trkpt><trkpt lat="37.35946194253991" lon="13.851320645452532"><ele>453.0</ele><time>2026-03-25T09:33:10Z</time></trkpt><trkpt lat="37.35950098814666" lon="13.8514124764717"><ele>454.0</ele><time>2026-03-25T09:33:11Z</time></trkpt><trkpt lat="37.3595580957765" lon="13.85150059008627"><ele>455.0</ele><time>2026-03-25T09:33:12Z</time></trkpt><trkpt lat="37.35961923161607" lon="13.851593260758051"><ele>456.0</ele><time>2026-03-25T09:33:13Z</time></trkpt><trkpt lat="37.359696678685815" lon="13.851678928193923"><ele>456.20000000000005</ele><time>2026-03-25T09:33:14Z</time></trkpt><trkpt lat="37.35976149244819" lon="13.851775817783576"><ele>456.40000000000003</ele><time>2026-03-25T09:33:15Z</time></trkpt><trkpt lat="37.359827495217196" lon="13.85187591230732"><ele>456.6</ele><time>2026-03-25T09:33:16Z</time></trkpt><trkpt lat="37.35989068676283" lon="13.851977153997248"><ele>456.8</ele><time>2026-03-25T09:33:17Z</time></trkpt><trkpt lat="37.35994978073832" lon="13.852082638436748"><ele>457.0</ele><time>2026-03-25T09:33:18Z</time></trkpt><trkpt lat="37.36001560930594" lon="13.852185184527007"><ele>458.25</ele><time>2026-03-25T09:33:19Z</time></trkpt><trkpt lat="37.36008921603624" lon="13.852284757806236"><ele>459.5</ele><time>2026-03-25T09:33:20Z</time></trkpt><trkpt lat="37.36016766616119" lon="13.852383887367344"><ele>460.75</ele><time>2026-03-25T09:33:21Z</time></trkpt><trkpt lat="37.36024952477805" lon="13.852490241300305"><ele>462.0</ele><time>2026-03-25T09:33:22Z</time></trkpt><trkpt lat="37.36033372281836" lon="13.85259717386454"><ele>462.25</ele><time>2026-03-25T09:33:23Z</time></trkpt><trkpt lat="37.36043412630863" lon="13.852694622669375"><ele>462.5</ele><time>2026-03-25T09:33:24Z</time></trkpt><trkpt lat="37.36051417072421" lon="13.852819040475742"><ele>462.75</ele><time>2026-03-25T09:33:25Z</time></trkpt><trkpt lat="37.360602559861455" lon="13.852924773413172"><ele>463.0</ele><time>2026-03-25T09:33:25.998Z</time></trkpt><trkpt lat="37.360688131573056" lon="13.853027177391724"><ele>463.0</ele><time>2026-03-25T09:33:26.998Z</time></trkpt><trkpt lat="37.36078070163171" lon="13.853115267617536"><ele>462.99999999999994</ele><time>2026-03-25T09:33:27.998Z</time></trkpt><trkpt lat="37.360861234999206" lon="13.853211392141226"><ele>462.99999999999994</ele><time>2026-03-25T09:33:28.998Z</time></trkpt><trkpt lat="37.36093781538558" lon="13.853306970065882"><ele>463.0</ele><time>2026-03-25T09:33:29.998Z</time></trkpt><trkpt lat="37.361016872577224" lon="13.853400288489805"><ele>463.0</ele><time>2026-03-25T09:33:30.998Z</time></trkpt><trkpt lat="37.36109445933302" lon="13.85350168639839"><ele>463.0</ele><time>2026-03-25T09:33:31.998Z</time></trkpt><trkpt lat="37.361174364748784" lon="13.853602500954599"><ele>462.99999999999994</ele><time>2026-03-25T09:33:32.998Z</time></trkpt><trkpt lat="37.361254804235855" lon="13.853702982902943"><ele>462.99999999999994</ele><time>2026-03-25T09:33:33.998Z</time></trkpt><trkpt lat="37.36133492502064" lon="13.853801638580288"><ele>463.0</ele><time>2026-03-25T09:33:34.998Z</time></trkpt><trkpt lat="37.361411242314205" lon="13.853894822747007"><ele>463.0</ele><time>2026-03-25T09:33:35.998Z</time></trkpt><trkpt lat="37.36148751590632" lon="13.853987150653863"><ele>463.0</ele><time>2026-03-25T09:33:36.998Z</time></trkpt><trkpt lat="37.36155992228299" lon="13.854087919169025"><ele>462.99999999999994</ele><time>2026-03-25T09:33:37.998Z</time></trkpt><trkpt lat="37.361638195044385" lon="13.854182269148133"><ele>462.99999999999994</ele><time>2026-03-25T09:33:38.998Z</time></trkpt><trkpt lat="37.36171467052977" lon="13.854264019496455"><ele>463.0</ele><time>2026-03-25T09:33:39.998Z</time></trkpt><trkpt lat="37.3617866596992" lon="13.854331419438717"><ele>463.0</ele><time>2026-03-25T09:33:40.998Z</time></trkpt><trkpt lat="37.36184726785958" lon="13.854384518736909"><ele>463.00000000000006</ele><time>2026-03-25T09:33:41.998Z</time></trkpt><trkpt lat="37.36194935995864" lon="13.854446788335311"><ele>463.0</ele><time>2026-03-25T09:33:43.998Z</time></trkpt><trkpt lat="37.362011739968366" lon="13.854477111171818"><ele>463.0</ele><time>2026-03-25T09:33:47.998Z</time></trkpt><trkpt lat="37.362092158002056" lon="13.854517710283385"><ele>463.0</ele><time>2026-03-25T09:33:50.999Z</time></trkpt><trkpt lat="37.362159805249384" lon="13.854553550435918"><ele>463.00000000000006</ele><time>2026-03-25T09:33:52.999Z</time></trkpt><trkpt lat="37.36224182346477" lon="13.854598858773402"><ele>463.0</ele><time>2026-03-25T09:33:54.999Z</time></trkpt><trkpt lat="37.36230281030782" lon="13.854683739977734"><ele>463.4</ele><time>2026-03-25T09:33:56.999Z</time></trkpt><trkpt lat="37.362316963193855" lon="13.854874492114496"><ele>463.79999999999995</ele><time>2026-03-25T09:33:58.999Z</time></trkpt><trkpt lat="37.362331925216836" lon="13.854954260860582"><ele>464.2</ele><time>2026-03-25T09:33:59.999Z</time></trkpt><trkpt lat="37.362354442513855" lon="13.855050764099751"><ele>464.6</ele><time>2026-03-25T09:34:00.999Z</time></trkpt><trkpt lat="37.36234743385248" lon="13.855146821759924"><ele>465.0</ele><time>2026-03-25T09:34:01.999Z</time></trkpt><trkpt lat="37.36235987343267" lon="13.855273851808969"><ele>465.3333333333333</ele><time>2026-03-25T09:34:03.999Z</time></trkpt><trkpt lat="37.362406756291975" lon="13.855360766695556"><ele>465.66666666666663</ele><time>2026-03-25T09:34:05.999Z</time></trkpt><trkpt lat="37.36242031494212" lon="13.855449644263544"><ele>466.0</ele><time>2026-03-25T09:34:07.999Z</time></trkpt><trkpt lat="37.36242687664579" lon="13.855545431336585"><ele>466.3333333333333</ele><time>2026-03-25T09:34:11.999Z</time></trkpt><trkpt lat="37.36243441563889" lon="13.855654293077697"><ele>466.66666666666663</ele><time>2026-03-25T09:34:14.999Z</time></trkpt><trkpt lat="37.36243995241654" lon="13.855744797113497"><ele>467.0</ele><time>2026-03-25T09:34:16.999Z</time></trkpt><trkpt lat="37.36244576358953" lon="13.85586829174847"><ele>466.8</ele><time>2026-03-25T09:34:18.999Z</time></trkpt><trkpt lat="37.36242399661924" lon="13.855955219796481"><ele>466.6</ele><time>2026-03-25T09:34:21.999Z</time></trkpt><trkpt lat="37.36243401842671" lon="13.85606925854604"><ele>466.40000000000003</ele><time>2026-03-25T09:34:24.999Z</time></trkpt><trkpt lat="37.36244580518164" lon="13.856196074429612"><ele>466.20000000000005</ele><time>2026-03-25T09:34:26.999Z</time></trkpt><trkpt lat="37.36246026499908" lon="13.856350322631272"><ele>466.0</ele><time>2026-03-25T09:34:28.999Z</time></trkpt><trkpt lat="37.36247119724268" lon="13.856466941010515"><ele>466.0</ele><time>2026-03-25T09:34:29.999Z</time></trkpt><trkpt lat="37.36248432597805" lon="13.85660699135999"><ele>466.0</ele><time>2026-03-25T09:34:30.999Z</time></trkpt><trkpt lat="37.36249790169315" lon="13.85675481798741"><ele>466.0</ele><time>2026-03-25T09:34:31.999Z</time></trkpt><trkpt lat="37.36250936658948" lon="13.856879350826153"><ele>466.0</ele><time>2026-03-25T09:34:32.999Z</time></trkpt><trkpt lat="37.36251929547186" lon="13.8569871991439"><ele>466.0</ele><time>2026-03-25T09:34:33.999Z</time></trkpt><trkpt lat="37.362528680726854" lon="13.857089143232114"><ele>466.00000000000006</ele><time>2026-03-25T09:34:34.999Z</time></trkpt><trkpt lat="37.3625381697596" lon="13.857192214107823"><ele>466.0</ele><time>2026-03-25T09:34:35.999Z</time></trkpt><trkpt lat="37.36254754139409" lon="13.857294009934263"><ele>466.0</ele><time>2026-03-25T09:34:36.999Z</time></trkpt><trkpt lat="37.36255684300199" lon="13.857395045028069"><ele>466.0</ele><time>2026-03-25T09:34:37.999Z</time></trkpt><trkpt lat="37.36256561122829" lon="13.8574902909558"><ele>466.00000000000006</ele><time>2026-03-25T09:34:38.999Z</time></trkpt><trkpt lat="37.3625884397029" lon="13.857576802491591"><ele>466.0</ele><time>2026-03-25T09:34:39.999Z</time></trkpt><trkpt lat="37.36259828293045" lon="13.857663905857649"><ele>466.20000000000005</ele><time>2026-03-25T09:34:40.999Z</time></trkpt><trkpt lat="37.36260466566687" lon="13.857746598734161"><ele>466.40000000000003</ele><time>2026-03-25T09:34:41.999Z</time></trkpt><trkpt lat="37.362610718257116" lon="13.857825448085396"><ele>466.6</ele><time>2026-03-25T09:34:43Z</time></trkpt><trkpt lat="37.36262483503111" lon="13.857978228801622"><ele>466.8</ele><time>2026-03-25T09:34:45Z</time></trkpt><trkpt lat="37.36262556229264" lon="13.858129769581017"><ele>467.0</ele><time>2026-03-25T09:34:47Z</time></trkpt><trkpt lat="37.362639753133436" lon="13.85828201966522"><ele>466.99999999999994</ele><time>2026-03-25T09:34:49Z</time></trkpt><trkpt lat="37.36265458396319" lon="13.858441055500196"><ele>467.0</ele><time>2026-03-25T09:34:51Z</time></trkpt><trkpt lat="37.362662475768076" lon="13.858525681921074"><ele>467.0</ele><time>2026-03-25T09:34:52Z</time></trkpt><trkpt lat="37.36267047978862" lon="13.858611511680277"><ele>467.0</ele><time>2026-03-25T09:34:53Z</time></trkpt><trkpt lat="37.36267856903008" lon="13.858698255280439"><ele>466.99999999999994</ele><time>2026-03-25T09:34:54Z</time></trkpt><trkpt lat="37.36268669200604" lon="13.858785360634275"><ele>467.0</ele><time>2026-03-25T09:34:55Z</time></trkpt><trkpt lat="37.36269483208095" lon="13.858872649262578"><ele>467.16666666666663</ele><time>2026-03-25T09:34:56Z</time></trkpt><trkpt lat="37.36270309616203" lon="13.858961267796191"><ele>467.3333333333333</ele><time>2026-03-25T09:34:57Z</time></trkpt><trkpt lat="37.3627111677772" lon="13.859047821812329"><ele>467.5</ele><time>2026-03-25T09:34:58Z</time></trkpt><trkpt lat="37.36271879830338" lon="13.859129644827298"><ele>467.66666666666663</ele><time>2026-03-25T09:34:59Z</time></trkpt><trkpt lat="37.36273242867119" lon="13.85927624385413"><ele>467.8333333333333</ele><time>2026-03-25T09:35:01Z</time></trkpt><trkpt lat="37.36274566839598" lon="13.859418457211335"><ele>468.0</ele><time>2026-03-25T09:35:03Z</time></trkpt><trkpt lat="37.36275327939135" lon="13.859500209748976"><ele>468.0</ele><time>2026-03-25T09:35:04Z</time></trkpt><trkpt lat="37.36276130415951" lon="13.859583211940624"><ele>467.99999999999994</ele><time>2026-03-25T09:35:05Z</time></trkpt><trkpt lat="37.36277416745877" lon="13.859716892533665"><ele>467.99999999999994</ele><time>2026-03-25T09:35:07Z</time></trkpt><trkpt lat="37.36278330681523" lon="13.859811872432614"><ele>468.0</ele><time>2026-03-25T09:35:09Z</time></trkpt><trkpt lat="37.362794197987" lon="13.859925057376566"><ele>468.0</ele><time>2026-03-25T09:35:11Z</time></trkpt><trkpt lat="37.36280959208301" lon="13.860075426236564"><ele>468.1666666666667</ele><time>2026-03-25T09:35:13Z</time></trkpt><trkpt lat="37.3628280060686" lon="13.860236595993332"><ele>468.33333333333337</ele><time>2026-03-25T09:35:15Z</time></trkpt><trkpt lat="37.36283829132195" lon="13.860326499100486"><ele>468.5</ele><time>2026-03-25T09:35:16Z</time></trkpt><trkpt lat="37.36285153624525" lon="13.86042185914885"><ele>468.6666666666667</ele><time>2026-03-25T09:35:17Z</time></trkpt><trkpt lat="37.362864422605874" lon="13.860520877311519"><ele>468.83333333333337</ele><time>2026-03-25T09:35:18Z</time></trkpt><trkpt lat="37.362892744587434" lon="13.860618716311201"><ele>469.0</ele><time>2026-03-25T09:35:19Z</time></trkpt><trkpt lat="37.36288844366052" lon="13.860724279063023"><ele>469.00000000000006</ele><time>2026-03-25T09:35:20Z</time></trkpt><trkpt lat="37.36289876157463" lon="13.860826768091963"><ele>469.0</ele><time>2026-03-25T09:35:21Z</time></trkpt><trkpt lat="37.36290930824057" lon="13.860931787284256"><ele>469.0</ele><time>2026-03-25T09:35:22Z</time></trkpt><trkpt lat="37.36292002016073" lon="13.861038452038107"><ele>469.0</ele><time>2026-03-25T09:35:23Z</time></trkpt><trkpt lat="37.36293163575824" lon="13.861145890371882"><ele>469.00000000000006</ele><time>2026-03-25T09:35:24Z</time></trkpt><trkpt lat="37.36294363183572" lon="13.861255437521423"><ele>469.0</ele><time>2026-03-25T09:35:25Z</time></trkpt><trkpt lat="37.36295552568738" lon="13.861362083353828"><ele>469.00000000000006</ele><time>2026-03-25T09:35:26Z</time></trkpt><trkpt lat="37.362968516474865" lon="13.861469895069895"><ele>469.0</ele><time>2026-03-25T09:35:27Z</time></trkpt><trkpt lat="37.36300027990406" lon="13.861567498634507"><ele>469.0</ele><time>2026-03-25T09:35:28Z</time></trkpt><trkpt lat="37.3630194034195" lon="13.861671241089219"><ele>469.0</ele><time>2026-03-25T09:35:29Z</time></trkpt><trkpt lat="37.36304238363178" lon="13.86176563275413"><ele>469.00000000000006</ele><time>2026-03-25T09:35:30Z</time></trkpt><trkpt lat="37.363063451794766" lon="13.861850766508185"><ele>469.0</ele><time>2026-03-25T09:35:31Z</time></trkpt><trkpt lat="37.36308550908897" lon="13.861926484997525"><ele>469.1666666666667</ele><time>2026-03-25T09:35:31.998Z</time></trkpt><trkpt lat="37.36310685346068" lon="13.862069548784637"><ele>469.33333333333337</ele><time>2026-03-25T09:35:33.998Z</time></trkpt><trkpt lat="37.36312731856999" lon="13.862144767909863"><ele>469.5</ele><time>2026-03-25T09:35:34.998Z</time></trkpt><trkpt lat="37.36314893713476" lon="13.86222424444137"><ele>469.66666666666663</ele><time>2026-03-25T09:35:35.998Z</time></trkpt><trkpt lat="37.36317033564513" lon="13.86230291383675"><ele>469.8333333333333</ele><time>2026-03-25T09:35:36.998Z</time></trkpt><trkpt lat="37.36320634314528" lon="13.86243529169112"><ele>470.0</ele><time>2026-03-25T09:35:38.998Z</time></trkpt><trkpt lat="37.36325417838705" lon="13.862556178711076"><ele>469.8333333333333</ele><time>2026-03-25T09:35:40.998Z</time></trkpt><trkpt lat="37.36326247624053" lon="13.86263758896586"><ele>469.66666666666663</ele><time>2026-03-25T09:35:41.998Z</time></trkpt><trkpt lat="37.36328514297984" lon="13.86272368496194"><ele>469.5</ele><time>2026-03-25T09:35:42.998Z</time></trkpt><trkpt lat="37.363304573836324" lon="13.862818819137017"><ele>469.33333333333337</ele><time>2026-03-25T09:35:43.998Z</time></trkpt><trkpt lat="37.36331822786692" lon="13.862920554376688"><ele>469.1666666666667</ele><time>2026-03-25T09:35:44.998Z</time></trkpt><trkpt lat="37.36332688907554" lon="13.863029161026903"><ele>469.0</ele><time>2026-03-25T09:35:45.998Z</time></trkpt><trkpt lat="37.363337397136775" lon="13.863146747771463"><ele>469.0</ele><time>2026-03-25T09:35:46.998Z</time></trkpt><trkpt lat="37.36334897008843" lon="13.86326601593355"><ele>469.0</ele><time>2026-03-25T09:35:47.998Z</time></trkpt><trkpt lat="37.363360754068424" lon="13.863386103824855"><ele>469.0</ele><time>2026-03-25T09:35:48.998Z</time></trkpt><trkpt lat="37.363354849490165" lon="13.863507155270204"><ele>469.0</ele><time>2026-03-25T09:35:49.999Z</time></trkpt><trkpt lat="37.36337919179163" lon="13.863622536303337"><ele>469.0</ele><time>2026-03-25T09:35:50.999Z</time></trkpt><trkpt lat="37.36337016358167" lon="13.863739932608222"><ele>469.1666666666667</ele><time>2026-03-25T09:35:51.999Z</time></trkpt><trkpt lat="37.36339107637759" lon="13.863850595274208"><ele>469.33333333333337</ele><time>2026-03-25T09:35:52.999Z</time></trkpt><trkpt lat="37.36339655118963" lon="13.863959428193573"><ele>469.5</ele><time>2026-03-25T09:35:53.999Z</time></trkpt><trkpt lat="37.36337865824379" lon="13.864063014268746"><ele>469.66666666666663</ele><time>2026-03-25T09:35:54.999Z</time></trkpt><trkpt lat="37.36338750430553" lon="13.864171878580382"><ele>469.8333333333333</ele><time>2026-03-25T09:35:55.999Z</time></trkpt><trkpt lat="37.3633725141532" lon="13.864294365507781"><ele>470.0</ele><time>2026-03-25T09:35:56.999Z</time></trkpt><trkpt lat="37.36335681601986" lon="13.864421929261516"><ele>470.8</ele><time>2026-03-25T09:35:57.999Z</time></trkpt><trkpt lat="37.3633446193951" lon="13.864545413510404"><ele>471.6</ele><time>2026-03-25T09:35:58.999Z</time></trkpt><trkpt lat="37.36333225076135" lon="13.864660507233177"><ele>472.4</ele><time>2026-03-25T09:35:59.999Z</time></trkpt><trkpt lat="37.36331873606074" lon="13.864768864147367"><ele>473.2</ele><time>2026-03-25T09:36:00.999Z</time></trkpt><trkpt lat="37.36331280562381" lon="13.864876399974232"><ele>474.0</ele><time>2026-03-25T09:36:01.999Z</time></trkpt><trkpt lat="37.36330890467506" lon="13.864988074390107"><ele>474.0</ele><time>2026-03-25T09:36:02.999Z</time></trkpt><trkpt lat="37.363300004939994" lon="13.865109543587035"><ele>474.0</ele><time>2026-03-25T09:36:03.999Z</time></trkpt><trkpt lat="37.36328511244525" lon="13.865249382312774"><ele>474.0</ele><time>2026-03-25T09:36:04.999Z</time></trkpt><trkpt lat="37.36327396343344" lon="13.865395231929313"><ele>474.0</ele><time>2026-03-25T09:36:05.999Z</time></trkpt><trkpt lat="37.36326513752178" lon="13.86552923223529"><ele>474.0</ele><time>2026-03-25T09:36:06.999Z</time></trkpt><trkpt lat="37.363265858603256" lon="13.865659092299804"><ele>473.25</ele><time>2026-03-25T09:36:07.999Z</time></trkpt><trkpt lat="37.363296671228525" lon="13.86578544843075"><ele>472.5</ele><time>2026-03-25T09:36:08.999Z</time></trkpt><trkpt lat="37.36336451933366" lon="13.865894338497949"><ele>471.75</ele><time>2026-03-25T09:36:09.999Z</time></trkpt><trkpt lat="37.363462292086425" lon="13.865970199018665"><ele>471.0</ele><time>2026-03-25T09:36:10.999Z</time></trkpt><trkpt lat="37.36358305862584" lon="13.866017972633546"><ele>470.0</ele><time>2026-03-25T09:36:11.999Z</time></trkpt><trkpt lat="37.36371595658391" lon="13.866062138205965"><ele>469.0</ele><time>2026-03-25T09:36:12.999Z</time></trkpt><trkpt lat="37.36384703910539" lon="13.866112129396763"><ele>468.0</ele><time>2026-03-25T09:36:13.999Z</time></trkpt><trkpt lat="37.363987519303805" lon="13.86617023957272"><ele>467.0</ele><time>2026-03-25T09:36:14.999Z</time></trkpt><trkpt lat="37.36413889265513" lon="13.86622735015672"><ele>463.3333333333333</ele><time>2026-03-25T09:36:15.999Z</time></trkpt><trkpt lat="37.36429750052166" lon="13.86629187238736"><ele>459.66666666666663</ele><time>2026-03-25T09:36:16.999Z</time></trkpt><trkpt lat="37.364461193680256" lon="13.866362679093465"><ele>456.0</ele><time>2026-03-25T09:36:17.999Z</time></trkpt><trkpt lat="37.36461750250987" lon="13.866419873154271"><ele>456.0</ele><time>2026-03-25T09:36:18.999Z</time></trkpt><trkpt lat="37.36476816008946" lon="13.866479357525478"><ele>456.0</ele><time>2026-03-25T09:36:19.999Z</time></trkpt><trkpt lat="37.36490663985748" lon="13.866537808915874"><ele>456.0</ele><time>2026-03-25T09:36:20.999Z</time></trkpt><trkpt lat="37.36503566166831" lon="13.866595811229729"><ele>456.0</ele><time>2026-03-25T09:36:21.999Z</time></trkpt><trkpt lat="37.365150787016894" lon="13.866665956217085"><ele>456.0</ele><time>2026-03-25T09:36:22.999Z</time></trkpt><trkpt lat="37.365244592573774" lon="13.866762413960931"><ele>456.0</ele><time>2026-03-25T09:36:23.999Z</time></trkpt><trkpt lat="37.36531082217631" lon="13.866887905773224"><ele>456.0</ele><time>2026-03-25T09:36:24.999Z</time></trkpt><trkpt lat="37.36534805805048" lon="13.86704333884898"><ele>456.0</ele><time>2026-03-25T09:36:25.999Z</time></trkpt><trkpt lat="37.36536012976306" lon="13.867221418011637"><ele>452.66666666666663</ele><time>2026-03-25T09:36:26.999Z</time></trkpt><trkpt lat="37.36534164134945" lon="13.867430410984003"><ele>449.3333333333333</ele><time>2026-03-25T09:36:27.999Z</time></trkpt><trkpt lat="37.36530564479944" lon="13.867670065261438"><ele>446.0</ele><time>2026-03-25T09:36:28.999Z</time></trkpt><trkpt lat="37.36527239277699" lon="13.867927870105724"><ele>444.66666666666663</ele><time>2026-03-25T09:36:29.999Z</time></trkpt><trkpt lat="37.36524061674487" lon="13.86819286665991"><ele>443.33333333333337</ele><time>2026-03-25T09:36:30.999Z</time></trkpt><trkpt lat="37.365208549989845" lon="13.868467698317337"><ele>442.0</ele><time>2026-03-25T09:36:31.999Z</time></trkpt><trkpt lat="37.36517670848872" lon="13.868748837876156"><ele>441.0</ele><time>2026-03-25T09:36:32.999Z</time></trkpt><trkpt lat="37.365141799257174" lon="13.86903470654932"><ele>440.0</ele><time>2026-03-25T09:36:33.999Z</time></trkpt><trkpt lat="37.365107252873806" lon="13.869324486386775"><ele>439.0</ele><time>2026-03-25T09:36:34.999Z</time></trkpt><trkpt lat="37.3650730463526" lon="13.86961504439763"><ele>438.0</ele><time>2026-03-25T09:36:35.999Z</time></trkpt><trkpt lat="37.36503606354712" lon="13.869906881140603"><ele>436.5</ele><time>2026-03-25T09:36:36.999Z</time></trkpt><trkpt lat="37.36499838896149" lon="13.87019661156166"><ele>435.0</ele><time>2026-03-25T09:36:38Z</time></trkpt><trkpt lat="37.364962391162265" lon="13.87048745610238"><ele>435.0</ele><time>2026-03-25T09:36:39Z</time></trkpt><trkpt lat="37.36492811611098" lon="13.870776158622045"><ele>435.0</ele><time>2026-03-25T09:36:40Z</time></trkpt><trkpt lat="37.36489394208256" lon="13.871060119327735"><ele>434.5</ele><time>2026-03-25T09:36:41Z</time></trkpt><trkpt lat="37.36485643504686" lon="13.871342626810074"><ele>434.0</ele><time>2026-03-25T09:36:42Z</time></trkpt><trkpt lat="37.364813437535744" lon="13.871621205912923"><ele>434.3333333333333</ele><time>2026-03-25T09:36:43Z</time></trkpt><trkpt lat="37.36476199526387" lon="13.87189518563825"><ele>434.66666666666663</ele><time>2026-03-25T09:36:44Z</time></trkpt><trkpt lat="37.36470343668415" lon="13.872161127976339"><ele>435.0</ele><time>2026-03-25T09:36:45Z</time></trkpt><trkpt lat="37.36463695760419" lon="13.872416944162113"><ele>434.0</ele><time>2026-03-25T09:36:46Z</time></trkpt><trkpt lat="37.364567687386185" lon="13.872659979453042"><ele>433.0</ele><time>2026-03-25T09:36:47Z</time></trkpt><trkpt lat="37.36449778138484" lon="13.872887165269386"><ele>432.0</ele><time>2026-03-25T09:36:48Z</time></trkpt><trkpt lat="37.364407816525116" lon="13.87308735541672"><ele>432.0</ele><time>2026-03-25T09:36:49Z</time></trkpt><trkpt lat="37.36432332442457" lon="13.873276199108657"><ele>432.0</ele><time>2026-03-25T09:36:50Z</time></trkpt><trkpt lat="37.364257738162465" lon="13.873467603509695"><ele>432.0</ele><time>2026-03-25T09:36:51Z</time></trkpt><trkpt lat="37.364198393885445" lon="13.87366488466554"><ele>432.0</ele><time>2026-03-25T09:36:52Z</time></trkpt><trkpt lat="37.364171839017274" lon="13.873899395120073"><ele>432.0</ele><time>2026-03-25T09:36:53Z</time></trkpt><trkpt lat="37.36414503475129" lon="13.874158810743078"><ele>432.0</ele><time>2026-03-25T09:36:54Z</time></trkpt><trkpt lat="37.36413219017189" lon="13.874436657780384"><ele>432.5</ele><time>2026-03-25T09:36:55Z</time></trkpt><trkpt lat="37.364134564704194" lon="13.874731959413785"><ele>433.0</ele><time>2026-03-25T09:36:56Z</time></trkpt><trkpt lat="37.364116201095996" lon="13.875036124591313"><ele>434.0</ele><time>2026-03-25T09:36:57Z</time></trkpt><trkpt lat="37.36409826836306" lon="13.875346399301856"><ele>435.0</ele><time>2026-03-25T09:36:58Z</time></trkpt><trkpt lat="37.36408211574386" lon="13.875659449298523"><ele>436.5</ele><time>2026-03-25T09:36:59Z</time></trkpt><trkpt lat="37.36404949762709" lon="13.875971159089765"><ele>438.0</ele><time>2026-03-25T09:37:00Z</time></trkpt><trkpt lat="37.364032922054676" lon="13.876285280053816"><ele>438.0</ele><time>2026-03-25T09:37:01Z</time></trkpt><trkpt lat="37.36403395165739" lon="13.876599291401869"><ele>438.0</ele><time>2026-03-25T09:37:02Z</time></trkpt><trkpt lat="37.364018308674396" lon="13.87690689413199"><ele>437.5</ele><time>2026-03-25T09:37:03Z</time></trkpt><trkpt lat="37.364003075949256" lon="13.87721047177601"><ele>437.0</ele><time>2026-03-25T09:37:04Z</time></trkpt><trkpt lat="37.363986199070574" lon="13.877502979426174"><ele>437.66666666666663</ele><time>2026-03-25T09:37:05Z</time></trkpt><trkpt lat="37.36396480492847" lon="13.877783284520811"><ele>438.33333333333337</ele><time>2026-03-25T09:37:06Z</time></trkpt><trkpt lat="37.363933430102804" lon="13.878044075597593"><ele>439.0</ele><time>2026-03-25T09:37:07Z</time></trkpt><trkpt lat="37.36386201099459" lon="13.878289040066218"><ele>436.33333333333337</ele><time>2026-03-25T09:37:08Z</time></trkpt><trkpt lat="37.363799186529825" lon="13.878541797035444"><ele>433.66666666666663</ele><time>2026-03-25T09:37:09Z</time></trkpt><trkpt lat="37.3637132963796" lon="13.878774361760854"><ele>431.0</ele><time>2026-03-25T09:37:10Z</time></trkpt><trkpt lat="37.363640749384" lon="13.878999375028778"><ele>431.0</ele><time>2026-03-25T09:37:11Z</time></trkpt><trkpt lat="37.36358708697816" lon="13.879223201004352"><ele>431.0</ele><time>2026-03-25T09:37:12Z</time></trkpt><trkpt lat="37.36355762552653" lon="13.879460374233684"><ele>431.0</ele><time>2026-03-25T09:37:13Z</time></trkpt><trkpt lat="37.363555103047794" lon="13.879706235706342"><ele>431.0</ele><time>2026-03-25T09:37:14Z</time></trkpt><trkpt lat="37.363580894918094" lon="13.879957093880495"><ele>431.0</ele><time>2026-03-25T09:37:15Z</time></trkpt><trkpt lat="37.36363729714746" lon="13.880215429514015"><ele>431.0</ele><time>2026-03-25T09:37:16Z</time></trkpt><trkpt lat="37.36371580143537" lon="13.880480910468266"><ele>430.0</ele><time>2026-03-25T09:37:17Z</time></trkpt><trkpt lat="37.36379851331855" lon="13.880750754976038"><ele>429.0</ele><time>2026-03-25T09:37:18Z</time></trkpt><trkpt lat="37.36387752774382" lon="13.8810219790944"><ele>429.0</ele><time>2026-03-25T09:37:19Z</time></trkpt><trkpt lat="37.36395403674602" lon="13.881292116959864"><ele>429.0</ele><time>2026-03-25T09:37:20Z</time></trkpt><trkpt lat="37.36402728518144" lon="13.881562594191788"><ele>427.5</ele><time>2026-03-25T09:37:21Z</time></trkpt><trkpt lat="37.36409200128" lon="13.881836692106926"><ele>426.0</ele><time>2026-03-25T09:37:22Z</time></trkpt><trkpt lat="37.36414795350764" lon="13.882114419765339"><ele>426.0</ele><time>2026-03-25T09:37:23Z</time></trkpt><trkpt lat="37.36419825559739" lon="13.882394290844347"><ele>426.0</ele><time>2026-03-25T09:37:24Z</time></trkpt><trkpt lat="37.36424731406482" lon="13.882672386517129"><ele>425.66666666666663</ele><time>2026-03-25T09:37:25Z</time></trkpt><trkpt lat="37.36429570160757" lon="13.88294909450759"><ele>425.3333333333333</ele><time>2026-03-25T09:37:26Z</time></trkpt><trkpt lat="37.364344039637" lon="13.883224153804491"><ele>425.0</ele><time>2026-03-25T09:37:27Z</time></trkpt><trkpt lat="37.36439215389234" lon="13.883497307173542"><ele>425.66666666666663</ele><time>2026-03-25T09:37:28Z</time></trkpt><trkpt lat="37.3644389967577" lon="13.883768891204342"><ele>426.33333333333337</ele><time>2026-03-25T09:37:29Z</time></trkpt><trkpt lat="37.36448500827736" lon="13.884035050361316"><ele>427.0</ele><time>2026-03-25T09:37:30Z</time></trkpt><trkpt lat="37.36452719048267" lon="13.884294705921866"><ele>427.0</ele><time>2026-03-25T09:37:31Z</time></trkpt><trkpt lat="37.36456581816374" lon="13.88454704435899"><ele>427.0</ele><time>2026-03-25T09:37:32Z</time></trkpt><trkpt lat="37.36460081052804" lon="13.884781670279871"><ele>427.0</ele><time>2026-03-25T09:37:33Z</time></trkpt><trkpt lat="37.36462478821996" lon="13.885010584922359"><ele>427.0</ele><time>2026-03-25T09:37:34Z</time></trkpt><trkpt lat="37.364624683287445" lon="13.885246363135257"><ele>427.0</ele><time>2026-03-25T09:37:35Z</time></trkpt><trkpt lat="37.364598998780245" lon="13.885489354522557"><ele>427.0</ele><time>2026-03-25T09:37:36Z</time></trkpt><trkpt lat="37.36452737839626" lon="13.88572532762123"><ele>426.6666666666667</ele><time>2026-03-25T09:37:37Z</time></trkpt><trkpt lat="37.36444980377328" lon="13.885961048931724"><ele>426.33333333333337</ele><time>2026-03-25T09:37:37.998Z</time></trkpt><trkpt lat="37.36438747558783" lon="13.886201173237975"><ele>426.0</ele><time>2026-03-25T09:37:38.998Z</time></trkpt><trkpt lat="37.36437077369912" lon="13.886453410249768"><ele>426.0</ele><time>2026-03-25T09:37:39.998Z</time></trkpt><trkpt lat="37.36439445606494" lon="13.886726704354635"><ele>426.0</ele><time>2026-03-25T09:37:40.998Z</time></trkpt><trkpt lat="37.364439715452214" lon="13.887010312624822"><ele>426.0</ele><time>2026-03-25T09:37:41.998Z</time></trkpt><trkpt lat="37.36447203310166" lon="13.887299185012433"><ele>424.5</ele><time>2026-03-25T09:37:42.998Z</time></trkpt><trkpt lat="37.36447070648174" lon="13.887588775101024"><ele>423.0</ele><time>2026-03-25T09:37:43.998Z</time></trkpt><trkpt lat="37.364445645591275" lon="13.887876554257883"><ele>422.0</ele><time>2026-03-25T09:37:44.998Z</time></trkpt><trkpt lat="37.36441343265149" lon="13.88816000412216"><ele>421.0</ele><time>2026-03-25T09:37:45.998Z</time></trkpt><trkpt lat="37.36439730178786" lon="13.888439746179746"><ele>420.0</ele><time>2026-03-25T09:37:46.998Z</time></trkpt><trkpt lat="37.36440952575715" lon="13.888720258791988"><ele>419.0</ele><time>2026-03-25T09:37:47.998Z</time></trkpt><trkpt lat="37.3644561340896" lon="13.889002491220275"><ele>416.5</ele><time>2026-03-25T09:37:48.999Z</time></trkpt><trkpt lat="37.36453467176332" lon="13.889283824245721"><ele>414.0</ele><time>2026-03-25T09:37:49.999Z</time></trkpt><trkpt lat="37.36462531548967" lon="13.889561628485888"><ele>413.66666666666663</ele><time>2026-03-25T09:37:50.999Z</time></trkpt><trkpt lat="37.364713666392824" lon="13.88983172458099"><ele>413.3333333333333</ele><time>2026-03-25T09:37:51.999Z</time></trkpt><trkpt lat="37.364790761401196" lon="13.890085375334097"><ele>413.0</ele><time>2026-03-25T09:37:52.999Z</time></trkpt><trkpt lat="37.364861051889406" lon="13.890324434511777"><ele>413.0</ele><time>2026-03-25T09:37:53.999Z</time></trkpt><trkpt lat="37.36493013478383" lon="13.89055230489958"><ele>413.0</ele><time>2026-03-25T09:37:54.999Z</time></trkpt><trkpt lat="37.364987868235666" lon="13.89077206281208"><ele>413.0</ele><time>2026-03-25T09:37:55.999Z</time></trkpt><trkpt lat="37.36501046450968" lon="13.890989744023997"><ele>412.66666666666663</ele><time>2026-03-25T09:37:56.999Z</time></trkpt><trkpt lat="37.36498503819629" lon="13.891201957655811"><ele>412.33333333333337</ele><time>2026-03-25T09:37:57.999Z</time></trkpt><trkpt lat="37.36492324582294" lon="13.891422753396267"><ele>412.0</ele><time>2026-03-25T09:37:58.999Z</time></trkpt><trkpt lat="37.36484822969923" lon="13.891658478542414"><ele>412.0</ele><time>2026-03-25T09:37:59.999Z</time></trkpt><trkpt lat="37.36477421754492" lon="13.891911643642217"><ele>412.0</ele><time>2026-03-25T09:38:00.999Z</time></trkpt><trkpt lat="37.36470399393175" lon="13.892173370268035"><ele>412.0</ele><time>2026-03-25T09:38:01.999Z</time></trkpt><trkpt lat="37.36463297787454" lon="13.892432536561092"><ele>411.33333333333337</ele><time>2026-03-25T09:38:02.999Z</time></trkpt><trkpt lat="37.36455415899111" lon="13.892670261924431"><ele>410.66666666666663</ele><time>2026-03-25T09:38:03.999Z</time></trkpt><trkpt lat="37.36444798713947" lon="13.892878941754908"><ele>410.0</ele><time>2026-03-25T09:38:04.999Z</time></trkpt><trkpt lat="37.364302707722125" lon="13.89305869803675"><ele>410.0</ele><time>2026-03-25T09:38:05.999Z</time></trkpt><trkpt lat="37.36412838505295" lon="13.893217473456483"><ele>410.0</ele><time>2026-03-25T09:38:06.999Z</time></trkpt><trkpt lat="37.36394029949722" lon="13.893374713697064"><ele>410.0</ele><time>2026-03-25T09:38:07.999Z</time></trkpt><trkpt lat="37.36375017957047" lon="13.893544002114023"><ele>412.0</ele><time>2026-03-25T09:38:08.999Z</time></trkpt><trkpt lat="37.36356235759594" lon="13.89372239965121"><ele>414.0</ele><time>2026-03-25T09:38:09.999Z</time></trkpt><trkpt lat="37.36337355406116" lon="13.89389997037439"><ele>414.0</ele><time>2026-03-25T09:38:10.999Z</time></trkpt><trkpt lat="37.36318531183165" lon="13.894070559103533"><ele>414.0</ele><time>2026-03-25T09:38:11.999Z</time></trkpt><trkpt lat="37.36300382256669" lon="13.894232124001638"><ele>414.66666666666663</ele><time>2026-03-25T09:38:12.999Z</time></trkpt><trkpt lat="37.36283249077414" lon="13.894387491680469"><ele>415.3333333333333</ele><time>2026-03-25T09:38:13.999Z</time></trkpt><trkpt lat="37.36267616196411" lon="13.894550060897052"><ele>416.0</ele><time>2026-03-25T09:38:14.999Z</time></trkpt><trkpt lat="37.36253656881646" lon="13.89474305324031"><ele>416.0</ele><time>2026-03-25T09:38:15.999Z</time></trkpt><trkpt lat="37.36240435684317" lon="13.894966032282202"><ele>416.0</ele><time>2026-03-25T09:38:16.999Z</time></trkpt><trkpt lat="37.3622834626911" lon="13.895195174047227"><ele>416.0</ele><time>2026-03-25T09:38:17.999Z</time></trkpt><trkpt lat="37.362183459380454" lon="13.895441735039427"><ele>409.5</ele><time>2026-03-25T09:38:18.999Z</time></trkpt><trkpt lat="37.36210503001666" lon="13.89570966308401"><ele>403.0</ele><time>2026-03-25T09:38:19.999Z</time></trkpt><trkpt lat="37.362046641433" lon="13.895987621975758"><ele>403.0</ele><time>2026-03-25T09:38:20.999Z</time></trkpt><trkpt lat="37.36199874618104" lon="13.896264668212016"><ele>403.0</ele><time>2026-03-25T09:38:21.999Z</time></trkpt><trkpt lat="37.36195420110829" lon="13.896526464016825"><ele>403.0</ele><time>2026-03-25T09:38:23Z</time></trkpt><trkpt lat="37.361912034780154" lon="13.896770582007889"><ele>404.33333333333337</ele><time>2026-03-25T09:38:24Z</time></trkpt><trkpt lat="37.36188625354515" lon="13.897006034193929"><ele>405.66666666666663</ele><time>2026-03-25T09:38:25Z</time></trkpt><trkpt lat="37.36188587383346" lon="13.897248836717601"><ele>407.0</ele><time>2026-03-25T09:38:26Z</time></trkpt><trkpt lat="37.36190273878478" lon="13.897503728249406"><ele>405.3333333333333</ele><time>2026-03-25T09:38:27Z</time></trkpt><trkpt lat="37.36193684670263" lon="13.897764160685709"><ele>403.66666666666663</ele><time>2026-03-25T09:38:28Z</time></trkpt><trkpt lat="37.361996155223174" lon="13.898024628386283"><ele>402.0</ele><time>2026-03-25T09:38:29Z</time></trkpt><trkpt lat="37.362080823315985" lon="13.898283763694158"><ele>404.0</ele><time>2026-03-25T09:38:30Z</time></trkpt><trkpt lat="37.36217410265542" lon="13.898541305333344"><ele>406.0</ele><time>2026-03-25T09:38:31Z</time></trkpt><trkpt lat="37.36226268713049" lon="13.89879864721647"><ele>408.0</ele><time>2026-03-25T09:38:32Z</time></trkpt><trkpt lat="37.362344511886505" lon="13.899048002408145"><ele>405.66666666666663</ele><time>2026-03-25T09:38:33Z</time></trkpt><trkpt lat="37.36242155355332" lon="13.899279973463013"><ele>403.3333333333333</ele><time>2026-03-25T09:38:34Z</time></trkpt><trkpt lat="37.36250216286145" lon="13.8995074234571"><ele>401.0</ele><time>2026-03-25T09:38:35Z</time></trkpt><trkpt lat="37.362595255270804" lon="13.89972612994323"><ele>401.0</ele><time>2026-03-25T09:38:36Z</time></trkpt><trkpt lat="37.362703152046514" lon="13.899935305276891"><ele>401.0</ele><time>2026-03-25T09:38:37Z</time></trkpt><trkpt lat="37.36281132894841" lon="13.900138199934352"><ele>401.0</ele><time>2026-03-25T09:38:38Z</time></trkpt><trkpt lat="37.36290118911661" lon="13.900333666294125"><ele>399.3333333333333</ele><time>2026-03-25T09:38:39Z</time></trkpt><trkpt lat="37.36295958101661" lon="13.900535508913249"><ele>397.66666666666663</ele><time>2026-03-25T09:38:40Z</time></trkpt><trkpt lat="37.36298550334462" lon="13.90075706970906"><ele>396.0</ele><time>2026-03-25T09:38:41Z</time></trkpt><trkpt lat="37.362972662369664" lon="13.900993728820064"><ele>396.0</ele><time>2026-03-25T09:38:42Z</time></trkpt><trkpt lat="37.362938147409615" lon="13.901241772615386"><ele>396.0</ele><time>2026-03-25T09:38:43Z</time></trkpt><trkpt lat="37.362906293153635" lon="13.90149929707039"><ele>396.0</ele><time>2026-03-25T09:38:44Z</time></trkpt><trkpt lat="37.362891696538625" lon="13.901738328227442"><ele>395.66666666666663</ele><time>2026-03-25T09:38:45Z</time></trkpt><trkpt lat="37.36289928356168" lon="13.901962220238097"><ele>395.3333333333333</ele><time>2026-03-25T09:38:46Z</time></trkpt><trkpt lat="37.36294413227232" lon="13.902188522421444"><ele>395.0</ele><time>2026-03-25T09:38:47Z</time></trkpt><trkpt lat="37.363024990013706" lon="13.902414766883448"><ele>400.3333333333333</ele><time>2026-03-25T09:38:48Z</time></trkpt><trkpt lat="37.363114860803186" lon="13.902634437243362"><ele>405.66666666666663</ele><time>2026-03-25T09:38:49Z</time></trkpt><trkpt lat="37.36318881542269" lon="13.902842151492765"><ele>411.0</ele><time>2026-03-25T09:38:50Z</time></trkpt><trkpt lat="37.36323311739414" lon="13.903050568015898"><ele>411.0</ele><time>2026-03-25T09:38:51Z</time></trkpt><trkpt lat="37.36324244193851" lon="13.903269258970296"><ele>411.0</ele><time>2026-03-25T09:38:52Z</time></trkpt><trkpt lat="37.363217977639486" lon="13.903486213234945"><ele>411.0</ele><time>2026-03-25T09:38:53Z</time></trkpt><trkpt lat="37.363158189236046" lon="13.903696373287046"><ele>411.33333333333337</ele><time>2026-03-25T09:38:54Z</time></trkpt><trkpt lat="37.363064135970745" lon="13.903894334455309"><ele>411.6666666666667</ele><time>2026-03-25T09:38:55Z</time></trkpt><trkpt lat="37.3629446282282" lon="13.904079172522469"><ele>412.0</ele><time>2026-03-25T09:38:56Z</time></trkpt><trkpt lat="37.36283165829385" lon="13.90427413770153"><ele>407.6666666666667</ele><time>2026-03-25T09:38:57Z</time></trkpt><trkpt lat="37.36275513979943" lon="13.904473995275474"><ele>403.33333333333337</ele><time>2026-03-25T09:38:58Z</time></trkpt><trkpt lat="37.36271044994322" lon="13.904685787337803"><ele>399.0</ele><time>2026-03-25T09:38:59Z</time></trkpt><trkpt lat="37.362687324457426" lon="13.90491305990292"><ele>396.66666666666663</ele><time>2026-03-25T09:39:00Z</time></trkpt><trkpt lat="37.362696448680694" lon="13.90515136418126"><ele>394.3333333333333</ele><time>2026-03-25T09:39:01Z</time></trkpt><trkpt lat="37.36274258391256" lon="13.905404857970762"><ele>392.0</ele><time>2026-03-25T09:39:02Z</time></trkpt><trkpt lat="37.362814945750124" lon="13.905667959545339"><ele>389.0</ele><time>2026-03-25T09:39:03Z</time></trkpt><trkpt lat="37.362889340776874" lon="13.905938921471124"><ele>386.0</ele><time>2026-03-25T09:39:04Z</time></trkpt><trkpt lat="37.36295629488861" lon="13.906210661285352"><ele>386.0</ele><time>2026-03-25T09:39:05Z</time></trkpt><trkpt lat="37.3630198445972" lon="13.906470443073982"><ele>386.0</ele><time>2026-03-25T09:39:06Z</time></trkpt><trkpt lat="37.36308091555736" lon="13.906721127686302"><ele>386.0</ele><time>2026-03-25T09:39:07Z</time></trkpt><trkpt lat="37.363141377981414" lon="13.906967357217653"><ele>387.3333333333333</ele><time>2026-03-25T09:39:08Z</time></trkpt><trkpt lat="37.363197197091374" lon="13.907208456967439"><ele>388.66666666666663</ele><time>2026-03-25T09:39:09Z</time></trkpt><trkpt lat="37.36325585434093" lon="13.907441348218168"><ele>390.0</ele><time>2026-03-25T09:39:10Z</time></trkpt><trkpt lat="37.36333092522507" lon="13.907672330677174"><ele>390.0</ele><time>2026-03-25T09:39:11Z</time></trkpt><trkpt lat="37.363438402263824" lon="13.9079024604307"><ele>390.0</ele><time>2026-03-25T09:39:12Z</time></trkpt><trkpt lat="37.36356629526779" lon="13.908111669586715"><ele>390.0</ele><time>2026-03-25T09:39:13Z</time></trkpt><trkpt lat="37.36371567901974" lon="13.90828444261137"><ele>387.6666666666667</ele><time>2026-03-25T09:39:14Z</time></trkpt><trkpt lat="37.3638877995482" lon="13.90841702516417"><ele>385.33333333333337</ele><time>2026-03-25T09:39:15Z</time></trkpt><trkpt lat="37.364074226640525" lon="13.908513118915769"><ele>383.0</ele><time>2026-03-25T09:39:16Z</time></trkpt><trkpt lat="37.36426980197489" lon="13.908577477620481"><ele>383.0</ele><time>2026-03-25T09:39:17Z</time></trkpt><trkpt lat="37.364475495429716" lon="13.908607221473714"><ele>383.0</ele><time>2026-03-25T09:39:18Z</time></trkpt><trkpt lat="37.364688301318346" lon="13.908605242747958"><ele>383.0</ele><time>2026-03-25T09:39:19Z</time></trkpt><trkpt lat="37.364894370281526" lon="13.90859132436048"><ele>382.6666666666667</ele><time>2026-03-25T09:39:20Z</time></trkpt><trkpt lat="37.365085627027185" lon="13.908599190463656"><ele>382.3333333333333</ele><time>2026-03-25T09:39:21Z</time></trkpt><trkpt lat="37.36525979367886" lon="13.90865439346041"><ele>382.0</ele><time>2026-03-25T09:39:22Z</time></trkpt><trkpt lat="37.365423476249084" lon="13.90876506571568"><ele>382.0</ele><time>2026-03-25T09:39:23Z</time></trkpt><trkpt lat="37.36557240646744" lon="13.90891800199794"><ele>382.0</ele><time>2026-03-25T09:39:24Z</time></trkpt><trkpt lat="37.365699127261664" lon="13.909093083203834"><ele>382.0</ele><time>2026-03-25T09:39:25Z</time></trkpt><trkpt lat="37.365786023920606" lon="13.909311108422997"><ele>382.0</ele><time>2026-03-25T09:39:26.001Z</time></trkpt><trkpt lat="37.365840481374754" lon="13.909550308844969"><ele>382.0</ele><time>2026-03-25T09:39:27.001Z</time></trkpt><trkpt lat="37.36585028433081" lon="13.909805743155669"><ele>382.0</ele><time>2026-03-25T09:39:28.001Z</time></trkpt><trkpt lat="37.365796315836164" lon="13.910038613928448"><ele>381.3333333333333</ele><time>2026-03-25T09:39:29.001Z</time></trkpt><trkpt lat="37.36572360851282" lon="13.910252476849056"><ele>380.6666666666667</ele><time>2026-03-25T09:39:30.001Z</time></trkpt><trkpt lat="37.365650301206735" lon="13.910495207493502"><ele>380.0</ele><time>2026-03-25T09:39:31.001Z</time></trkpt><trkpt lat="37.3655507867525" lon="13.910743562940338"><ele>378.33333333333337</ele><time>2026-03-25T09:39:32.001Z</time></trkpt><trkpt lat="37.36546158564001" lon="13.910994816750092"><ele>376.6666666666667</ele><time>2026-03-25T09:39:33.001Z</time></trkpt><trkpt lat="37.365374551067056" lon="13.911250650151402"><ele>375.0</ele><time>2026-03-25T09:39:34.001Z</time></trkpt><trkpt lat="37.365285929375666" lon="13.911508821693847"><ele>372.5</ele><time>2026-03-25T09:39:35.001Z</time></trkpt><trkpt lat="37.3651921231213" lon="13.91176940476612"><ele>370.0</ele><time>2026-03-25T09:39:36.001Z</time></trkpt><trkpt lat="37.36509568028208" lon="13.912039000031685"><ele>370.0</ele><time>2026-03-25T09:39:37.001Z</time></trkpt><trkpt lat="37.36499873363914" lon="13.912311692101234"><ele>370.0</ele><time>2026-03-25T09:39:38.001Z</time></trkpt><trkpt lat="37.36490309770915" lon="13.912585140004863"><ele>367.5</ele><time>2026-03-25T09:39:39.001Z</time></trkpt><trkpt lat="37.36480883433095" lon="13.912854322428512"><ele>365.0</ele><time>2026-03-25T09:39:40.001Z</time></trkpt><trkpt lat="37.36470232018101" lon="13.913102053135356"><ele>364.33333333333337</ele><time>2026-03-25T09:39:41.001Z</time></trkpt><trkpt lat="37.364628551505554" lon="13.913355166039302"><ele>363.6666666666667</ele><time>2026-03-25T09:39:42.001Z</time></trkpt><trkpt lat="37.3645445644724" lon="13.913580797007361"><ele>363.0</ele><time>2026-03-25T09:39:43.001Z</time></trkpt><trkpt lat="37.36445455112099" lon="13.913807787347466"><ele>365.3333333333333</ele><time>2026-03-25T09:39:43.999Z</time></trkpt><trkpt lat="37.364346620709654" lon="13.914022430213228"><ele>367.66666666666663</ele><time>2026-03-25T09:39:44.999Z</time></trkpt><trkpt lat="37.364206568239474" lon="13.914218861394332"><ele>370.0</ele><time>2026-03-25T09:39:45.999Z</time></trkpt><trkpt lat="37.364038893670326" lon="13.914380057296341"><ele>373.0</ele><time>2026-03-25T09:39:46.999Z</time></trkpt><trkpt lat="37.36384710687322" lon="13.914512413742111"><ele>376.0</ele><time>2026-03-25T09:39:47.999Z</time></trkpt><trkpt lat="37.363644018042336" lon="13.914613089183424"><ele>379.0</ele><time>2026-03-25T09:39:48.999Z</time></trkpt><trkpt lat="37.363432513663795" lon="13.914668425025134"><ele>379.0</ele><time>2026-03-25T09:39:49.999Z</time></trkpt><trkpt lat="37.363215795040226" lon="13.914650358808716"><ele>379.0</ele><time>2026-03-25T09:39:50.999Z</time></trkpt><trkpt lat="37.36299093072634" lon="13.914626872015495"><ele>379.0</ele><time>2026-03-25T09:39:51.999Z</time></trkpt><trkpt lat="37.362760745582996" lon="13.914621072054903"><ele>381.5</ele><time>2026-03-25T09:39:52.999Z</time></trkpt><trkpt lat="37.36252794529853" lon="13.914611170096453"><ele>384.0</ele><time>2026-03-25T09:39:53.999Z</time></trkpt><trkpt lat="37.362285982875555" lon="13.91463481914314"><ele>387.0</ele><time>2026-03-25T09:39:54.999Z</time></trkpt><trkpt lat="37.36203712872641" lon="13.914670995194893"><ele>390.0</ele><time>2026-03-25T09:39:55.999Z</time></trkpt><trkpt lat="37.36179406547126" lon="13.914764804391577"><ele>390.0</ele><time>2026-03-25T09:39:56.999Z</time></trkpt><trkpt lat="37.36155967087133" lon="13.914905807507795"><ele>390.0</ele><time>2026-03-25T09:39:57.999Z</time></trkpt><trkpt lat="37.361319676915265" lon="13.915042805948012"><ele>394.0</ele><time>2026-03-25T09:39:58.999Z</time></trkpt><trkpt lat="37.36108114493983" lon="13.915179932397647"><ele>398.0</ele><time>2026-03-25T09:39:59.999Z</time></trkpt><trkpt lat="37.360856172961924" lon="13.915304667688826"><ele>398.0</ele><time>2026-03-25T09:40:00.999Z</time></trkpt><trkpt lat="37.36063966802949" lon="13.91542192367283"><ele>398.0</ele><time>2026-03-25T09:40:01.999Z</time></trkpt><trkpt lat="37.3604339464597" lon="13.915538198425056"><ele>399.66666666666663</ele><time>2026-03-25T09:40:02.999Z</time></trkpt><trkpt lat="37.36023913740968" lon="13.915666879532932"><ele>401.33333333333337</ele><time>2026-03-25T09:40:03.999Z</time></trkpt><trkpt lat="37.360039259845266" lon="13.915806790338923"><ele>403.0</ele><time>2026-03-25T09:40:04.999Z</time></trkpt><trkpt lat="37.35983961599429" lon="13.91596110343976"><ele>403.5</ele><time>2026-03-25T09:40:05.999Z</time></trkpt><trkpt lat="37.359648245724436" lon="13.916116942221967"><ele>404.0</ele><time>2026-03-25T09:40:06.999Z</time></trkpt><trkpt lat="37.359550794786145" lon="13.916407238317976"><ele>404.0</ele><time>2026-03-25T09:40:08Z</time></trkpt><trkpt lat="37.35941014393023" lon="13.916574402622128"><ele>404.0</ele><time>2026-03-25T09:40:09Z</time></trkpt><trkpt lat="37.35928488644478" lon="13.916723994656907"><ele>404.0</ele><time>2026-03-25T09:40:10Z</time></trkpt><trkpt lat="37.35916868563725" lon="13.9168745206893"><ele>408.66666666666663</ele><time>2026-03-25T09:40:11Z</time></trkpt><trkpt lat="37.359067459890085" lon="13.91702835763306"><ele>413.33333333333337</ele><time>2026-03-25T09:40:12Z</time></trkpt><trkpt lat="37.358976455241006" lon="13.91718232150374"><ele>418.0</ele><time>2026-03-25T09:40:13Z</time></trkpt><trkpt lat="37.35888832585233" lon="13.917344282814032"><ele>417.5</ele><time>2026-03-25T09:40:14Z</time></trkpt><trkpt lat="37.35881002851996" lon="13.91750671718514"><ele>417.0</ele><time>2026-03-25T09:40:15Z</time></trkpt><trkpt lat="37.35874043390077" lon="13.91766000677723"><ele>416.5</ele><time>2026-03-25T09:40:16Z</time></trkpt><trkpt lat="37.35866954044213" lon="13.91782162831726"><ele>416.0</ele><time>2026-03-25T09:40:17Z</time></trkpt><trkpt lat="37.35858914941795" lon="13.918016179915332"><ele>416.0</ele><time>2026-03-25T09:40:18Z</time></trkpt><trkpt lat="37.35848942057296" lon="13.918214153068648"><ele>416.0</ele><time>2026-03-25T09:40:19Z</time></trkpt><trkpt lat="37.35837675260385" lon="13.918418188027955"><ele>416.0</ele><time>2026-03-25T09:40:20Z</time></trkpt><trkpt lat="37.358268914868574" lon="13.918626356010803"><ele>419.3333333333333</ele><time>2026-03-25T09:40:21Z</time></trkpt><trkpt lat="37.35816982983056" lon="13.918829715677527"><ele>422.66666666666663</ele><time>2026-03-25T09:40:22Z</time></trkpt><trkpt lat="37.35807999841794" lon="13.91901756156387"><ele>426.0</ele><time>2026-03-25T09:40:23Z</time></trkpt><trkpt lat="37.35799372108559" lon="13.919195821536109"><ele>426.25</ele><time>2026-03-25T09:40:24Z</time></trkpt><trkpt lat="37.35791117331634" lon="13.919366373122163"><ele>426.5</ele><time>2026-03-25T09:40:25Z</time></trkpt><trkpt lat="37.35783747386333" lon="13.919529901168538"><ele>426.75</ele><time>2026-03-25T09:40:26Z</time></trkpt><trkpt lat="37.35777383407764" lon="13.91968754622628"><ele>427.0</ele><time>2026-03-25T09:40:27Z</time></trkpt><trkpt lat="37.35771972934854" lon="13.919846902318023"><ele>427.0</ele><time>2026-03-25T09:40:28Z</time></trkpt><trkpt lat="37.35767665892035" lon="13.920014063203958"><ele>427.0</ele><time>2026-03-25T09:40:29Z</time></trkpt><trkpt lat="37.35761591865621" lon="13.920365692360063"><ele>427.0</ele><time>2026-03-25T09:40:31Z</time></trkpt><trkpt lat="37.35758700536779" lon="13.92054670415003"><ele>426.75</ele><time>2026-03-25T09:40:32Z</time></trkpt><trkpt lat="37.35755826968982" lon="13.92072718859663"><ele>426.5</ele><time>2026-03-25T09:40:33Z</time></trkpt><trkpt lat="37.3575292423871" lon="13.920907642758337"><ele>426.25</ele><time>2026-03-25T09:40:34Z</time></trkpt><trkpt lat="37.3575001837519" lon="13.92108743680427"><ele>426.0</ele><time>2026-03-25T09:40:35Z</time></trkpt><trkpt lat="37.35746917201989" lon="13.921268683366021"><ele>426.0</ele><time>2026-03-25T09:40:36Z</time></trkpt><trkpt lat="37.35743985556319" lon="13.921447003441855"><ele>426.0</ele><time>2026-03-25T09:40:37Z</time></trkpt><trkpt lat="37.357409729054154" lon="13.921623329149625"><ele>426.0</ele><time>2026-03-25T09:40:38Z</time></trkpt><trkpt lat="37.35738223690158" lon="13.921799046275686"><ele>426.0</ele><time>2026-03-25T09:40:39Z</time></trkpt><trkpt lat="37.35735391036658" lon="13.921971186450653"><ele>427.5</ele><time>2026-03-25T09:40:40Z</time></trkpt><trkpt lat="37.35732473956863" lon="13.922137094613438"><ele>429.0</ele><time>2026-03-25T09:40:41Z</time></trkpt><trkpt lat="37.35729764192601" lon="13.92229803177481"><ele>430.5</ele><time>2026-03-25T09:40:42Z</time></trkpt><trkpt lat="37.357270929309344" lon="13.92245168681003"><ele>432.0</ele><time>2026-03-25T09:40:43Z</time></trkpt><trkpt lat="37.35724484398755" lon="13.922599087122627"><ele>432.40000000000003</ele><time>2026-03-25T09:40:44Z</time></trkpt><trkpt lat="37.35721827243053" lon="13.922739236821803"><ele>432.80000000000007</ele><time>2026-03-25T09:40:45Z</time></trkpt><trkpt lat="37.3571919751237" lon="13.922866812458938"><ele>433.2</ele><time>2026-03-25T09:40:46Z</time></trkpt><trkpt lat="37.35716894936982" lon="13.92297964673616"><ele>433.6</ele><time>2026-03-25T09:40:47Z</time></trkpt><trkpt lat="37.35714539938669" lon="13.92308323581088"><ele>434.0</ele><time>2026-03-25T09:40:48Z</time></trkpt><trkpt lat="37.35712070297582" lon="13.923178460302472"><ele>432.66666666666663</ele><time>2026-03-25T09:40:49Z</time></trkpt><trkpt lat="37.35709285381551" lon="13.923271099744053"><ele>431.3333333333333</ele><time>2026-03-25T09:40:50Z</time></trkpt><trkpt lat="37.35706354520822" lon="13.923353295984061"><ele>430.0</ele><time>2026-03-25T09:40:51Z</time></trkpt><trkpt lat="37.35703749542704" lon="13.923428088337614"><ele>428.66666666666663</ele><time>2026-03-25T09:40:52Z</time></trkpt><trkpt lat="37.35700161247537" lon="13.923532794544897"><ele>427.3333333333333</ele><time>2026-03-25T09:40:54Z</time></trkpt><trkpt lat="37.35697515951969" lon="13.923608157159997"><ele>426.0</ele><time>2026-03-25T09:40:56Z</time></trkpt><trkpt lat="37.35697473361603" lon="13.923711725521866"><ele>426.0</ele><time>2026-03-25T09:40:58.001Z</time></trkpt><trkpt lat="37.357007225236444" lon="13.923862245490566"><ele>426.0</ele><time>2026-03-25T09:41:00.001Z</time></trkpt><trkpt lat="37.356978262151635" lon="13.923999252000353"><ele>426.0</ele><time>2026-03-25T09:41:02.001Z</time></trkpt><trkpt lat="37.35696989925708" lon="13.924130880791594"><ele>426.0</ele><time>2026-03-25T09:41:04.001Z</time></trkpt><trkpt lat="37.35696946132969" lon="13.924266115002428"><ele>426.0</ele><time>2026-03-25T09:41:06.001Z</time></trkpt><trkpt lat="37.356974595284846" lon="13.924382367405595"><ele>426.6</ele><time>2026-03-25T09:41:08.001Z</time></trkpt><trkpt lat="37.356984549281876" lon="13.924502169174694"><ele>427.20000000000005</ele><time>2026-03-25T09:41:10.001Z</time></trkpt><trkpt lat="37.35699545119487" lon="13.924726578487796"><ele>427.79999999999995</ele><time>2026-03-25T09:41:13.001Z</time></trkpt><trkpt lat="37.35700502377493" lon="13.924815660294822"><ele>428.4</ele><time>2026-03-25T09:41:14.001Z</time></trkpt><trkpt lat="37.35701445881584" lon="13.924902890422974"><ele>429.0</ele><time>2026-03-25T09:41:15.001Z</time></trkpt><trkpt lat="37.35701826411428" lon="13.92499466859001"><ele>429.1666666666667</ele><time>2026-03-25T09:41:16.001Z</time></trkpt><trkpt lat="37.35703120577061" lon="13.92507497337668"><ele>429.33333333333337</ele><time>2026-03-25T09:41:17.001Z</time></trkpt><trkpt lat="37.35705618174296" lon="13.92523480312914"><ele>429.5</ele><time>2026-03-25T09:41:19.001Z</time></trkpt><trkpt lat="37.35708123136509" lon="13.925316783801408"><ele>429.6666666666667</ele><time>2026-03-25T09:41:20.001Z</time></trkpt><trkpt lat="37.35710251309287" lon="13.925401344264282"><ele>429.83333333333337</ele><time>2026-03-25T09:41:21.001Z</time></trkpt><trkpt lat="37.35711211087028" lon="13.925488955044985"><ele>430.0</ele><time>2026-03-25T09:41:22.001Z</time></trkpt><trkpt lat="37.35712159130547" lon="13.92558179153057"><ele>430.0</ele><time>2026-03-25T09:41:23.001Z</time></trkpt><trkpt lat="37.35713256695443" lon="13.925670382529528"><ele>430.0</ele><time>2026-03-25T09:41:24.001Z</time></trkpt><trkpt lat="37.35714505430558" lon="13.925757512296352"><ele>430.0</ele><time>2026-03-25T09:41:25.001Z</time></trkpt><trkpt lat="37.35717087784808" lon="13.925842280849766"><ele>430.0</ele><time>2026-03-25T09:41:26.001Z</time></trkpt><trkpt lat="37.35720452125271" lon="13.92599411405293"><ele>430.0</ele><time>2026-03-25T09:41:28.001Z</time></trkpt><trkpt lat="37.35722301362701" lon="13.926143631734718"><ele>430.6</ele><time>2026-03-25T09:41:30.001Z</time></trkpt><trkpt lat="37.357241406032536" lon="13.926256521560497"><ele>431.2</ele><time>2026-03-25T09:41:32.001Z</time></trkpt><trkpt lat="37.35726743161449" lon="13.926418906954261"><ele>431.79999999999995</ele><time>2026-03-25T09:41:34.001Z</time></trkpt><trkpt lat="37.357282501406594" lon="13.926509560025874"><ele>432.4</ele><time>2026-03-25T09:41:35.001Z</time></trkpt><trkpt lat="37.35729583081716" lon="13.92659088693518"><ele>433.0</ele><time>2026-03-25T09:41:36.001Z</time></trkpt><trkpt lat="37.35731205961357" lon="13.926723050777987"><ele>433.1666666666667</ele><time>2026-03-25T09:41:38.001Z</time></trkpt><trkpt lat="37.35732476127271" lon="13.926811996083611"><ele>433.33333333333337</ele><time>2026-03-25T09:41:40.001Z</time></trkpt><trkpt lat="37.357330351597334" lon="13.926934143250278"><ele>433.5</ele><time>2026-03-25T09:41:44.001Z</time></trkpt><trkpt lat="37.35736055997145" lon="13.927085391097531"><ele>433.66666666666663</ele><time>2026-03-25T09:41:46.001Z</time></trkpt><trkpt lat="37.35737918257358" lon="13.927168882769145"><ele>433.8333333333333</ele><time>2026-03-25T09:41:47.001Z</time></trkpt><trkpt lat="37.35739485113498" lon="13.927252225589465"><ele>434.0</ele><time>2026-03-25T09:41:48.001Z</time></trkpt><trkpt lat="37.357411882773924" lon="13.927393217842388"><ele>433.99999999999994</ele><time>2026-03-25T09:41:50Z</time></trkpt><trkpt lat="37.35743180786064" lon="13.927497269228086"><ele>434.0</ele><time>2026-03-25T09:41:52Z</time></trkpt><trkpt lat="37.35744523328349" lon="13.927597457705211"><ele>434.0</ele><time>2026-03-25T09:41:54Z</time></trkpt><trkpt lat="37.35745331933103" lon="13.927678055968661"><ele>434.0</ele><time>2026-03-25T09:41:56Z</time></trkpt><trkpt lat="37.35747385888709" lon="13.927794608000713"><ele>433.99999999999994</ele><time>2026-03-25T09:42:00Z</time></trkpt><trkpt lat="37.357500468558" lon="13.927916893810819"><ele>434.0</ele><time>2026-03-25T09:42:02Z</time></trkpt><trkpt lat="37.35750724330714" lon="13.927998796720168"><ele>433.57142857142856</ele><time>2026-03-25T09:42:03Z</time></trkpt><trkpt lat="37.35752746883964" lon="13.928125881075585"><ele>433.1428571428571</ele><time>2026-03-25T09:42:05Z</time></trkpt><trkpt lat="37.35754284522439" lon="13.928203265256712"><ele>432.7142857142857</ele><time>2026-03-25T09:42:09Z</time></trkpt><trkpt lat="37.35761169192348" lon="13.928218426521802"><ele>432.2857142857143</ele><time>2026-03-25T09:42:12Z</time></trkpt><trkpt lat="37.357672106553714" lon="13.928261310892678"><ele>431.85714285714283</ele><time>2026-03-25T09:42:14Z</time></trkpt><trkpt lat="37.35769794994115" lon="13.928341795803414"><ele>431.42857142857144</ele><time>2026-03-25T09:42:17Z</time></trkpt><trkpt lat="37.35771126784859" lon="13.928421041075167"><ele>431.0</ele><time>2026-03-25T09:42:30Z</time></trkpt><trkpt lat="37.35774674691428" lon="13.928543934108614"><ele>431.0</ele><time>2026-03-25T09:42:33Z</time></trkpt><trkpt lat="37.35778761237963" lon="13.928665134277896"><ele>431.0</ele><time>2026-03-25T09:42:35Z</time></trkpt><trkpt lat="37.357826463108296" lon="13.928779691547023"><ele>431.0</ele><time>2026-03-25T09:42:37Z</time></trkpt><trkpt lat="37.357865865890155" lon="13.928889607253288"><ele>431.0</ele><time>2026-03-25T09:42:39Z</time></trkpt><trkpt lat="37.3579016026264" lon="13.92899076434427"><ele>431.0</ele><time>2026-03-25T09:42:41Z</time></trkpt><trkpt lat="37.357926975148516" lon="13.929100434894094"><ele>431.0</ele><time>2026-03-25T09:42:43Z</time></trkpt><trkpt lat="37.357981474521054" lon="13.929230505547324"><ele>431.0</ele><time>2026-03-25T09:42:45.001Z</time></trkpt><trkpt lat="37.358026593461275" lon="13.929339431285758"><ele>431.0</ele><time>2026-03-25T09:42:47.001Z</time></trkpt><trkpt lat="37.35807893019099" lon="13.929415797863816"><ele>431.0</ele><time>2026-03-25T09:42:49.001Z</time></trkpt><trkpt lat="37.35815690497428" lon="13.929473316871421"><ele>431.0</ele><time>2026-03-25T09:42:51.001Z</time></trkpt><trkpt lat="37.35824359758967" lon="13.929573512349522"><ele>430.99999999999994</ele><time>2026-03-25T09:42:53.001Z</time></trkpt><trkpt lat="37.35831846318787" lon="13.929658693102208"><ele>431.0</ele><time>2026-03-25T09:42:55.001Z</time></trkpt><trkpt lat="37.35838029296218" lon="13.929730658516482"><ele>431.0</ele><time>2026-03-25T09:42:57.001Z</time></trkpt><trkpt lat="37.358432773536094" lon="13.929793266243962"><ele>431.0</ele><time>2026-03-25T09:42:59.001Z</time></trkpt><trkpt lat="37.35847812112827" lon="13.929854607812828"><ele>430.99999999999994</ele><time>2026-03-25T09:43:01.001Z</time></trkpt><trkpt lat="37.358521638570465" lon="13.92993469643331"><ele>431.0</ele><time>2026-03-25T09:43:07.001Z</time></trkpt><trkpt lat="37.358603735553395" lon="13.929988270913652"><ele>431.0</ele><time>2026-03-25T09:43:09.001Z</time></trkpt><trkpt lat="37.35870766544548" lon="13.9300492433687"><ele>431.0</ele><time>2026-03-25T09:43:11.001Z</time></trkpt><trkpt lat="37.358805109935844" lon="13.930126477313058"><ele>431.0</ele><time>2026-03-25T09:43:13.001Z</time></trkpt><trkpt lat="37.35890202203454" lon="13.930195971737819"><ele>431.0</ele><time>2026-03-25T09:43:15.001Z</time></trkpt><trkpt lat="37.358998868213085" lon="13.930266193878733"><ele>431.20000000000005</ele><time>2026-03-25T09:43:17.001Z</time></trkpt><trkpt lat="37.35908723568526" lon="13.930335701346781"><ele>431.40000000000003</ele><time>2026-03-25T09:43:19.001Z</time></trkpt><trkpt lat="37.35917215865799" lon="13.930404321113038"><ele>431.6</ele><time>2026-03-25T09:43:21.001Z</time></trkpt><trkpt lat="37.35925398048521" lon="13.930465943830699"><ele>431.8</ele><time>2026-03-25T09:43:23.001Z</time></trkpt><trkpt lat="37.35935804573186" lon="13.930478221046167"><ele>432.0</ele><time>2026-03-25T09:43:25.001Z</time></trkpt><trkpt lat="37.359460728394346" lon="13.930605069658661"><ele>432.0</ele><time>2026-03-25T09:43:27.001Z</time></trkpt><trkpt lat="37.3595224158991" lon="13.930662145368972"><ele>432.00000000000006</ele><time>2026-03-25T09:43:28.001Z</time></trkpt><trkpt lat="37.35959270399399" lon="13.930735529722197"><ele>432.00000000000006</ele><time>2026-03-25T09:43:29.001Z</time></trkpt><trkpt lat="37.35966326511404" lon="13.930814635584602"><ele>432.0</ele><time>2026-03-25T09:43:30.001Z</time></trkpt><trkpt lat="37.359735334486345" lon="13.930897892508476"><ele>432.0</ele><time>2026-03-25T09:43:31.001Z</time></trkpt><trkpt lat="37.359806247901375" lon="13.930989844551936"><ele>432.40000000000003</ele><time>2026-03-25T09:43:32.001Z</time></trkpt><trkpt lat="37.3598778108636" lon="13.931082022430981"><ele>432.80000000000007</ele><time>2026-03-25T09:43:33.001Z</time></trkpt><trkpt lat="37.35994601158409" lon="13.931176342049092"><ele>433.2</ele><time>2026-03-25T09:43:34.001Z</time></trkpt><trkpt lat="37.360011137945534" lon="13.931274404356985"><ele>433.6</ele><time>2026-03-25T09:43:35.001Z</time></trkpt><trkpt lat="37.36007220269574" lon="13.931378544448908"><ele>434.0</ele><time>2026-03-25T09:43:36.001Z</time></trkpt><trkpt lat="37.360138794339434" lon="13.931492955764053"><ele>434.0</ele><time>2026-03-25T09:43:37.001Z</time></trkpt><trkpt lat="37.36021386777251" lon="13.931622327562202"><ele>434.0</ele><time>2026-03-25T09:43:38.001Z</time></trkpt><trkpt lat="37.36029187998092" lon="13.931767462302172"><ele>434.0</ele><time>2026-03-25T09:43:39.001Z</time></trkpt><trkpt lat="37.36037749708501" lon="13.931929681468688"><ele>434.0</ele><time>2026-03-25T09:43:40.001Z</time></trkpt><trkpt lat="37.36047236180991" lon="13.932106807712811"><ele>434.0</ele><time>2026-03-25T09:43:41.001Z</time></trkpt><trkpt lat="37.360567034048564" lon="13.932282477808121"><ele>434.0</ele><time>2026-03-25T09:43:42.001Z</time></trkpt><trkpt lat="37.360665327591235" lon="13.932467292546672"><ele>434.0</ele><time>2026-03-25T09:43:43.001Z</time></trkpt><trkpt lat="37.36076425909714" lon="13.932654113488914"><ele>434.0</ele><time>2026-03-25T09:43:44.002Z</time></trkpt><trkpt lat="37.360861096708184" lon="13.932838376692576"><ele>434.0</ele><time>2026-03-25T09:43:45.002Z</time></trkpt><trkpt lat="37.36095455566325" lon="13.933020025444675"><ele>434.0</ele><time>2026-03-25T09:43:46.002Z</time></trkpt><trkpt lat="37.36104617425612" lon="13.933196691663811"><ele>434.0</ele><time>2026-03-25T09:43:47.002Z</time></trkpt><trkpt lat="37.3611419323581" lon="13.933372233184933"><ele>434.0</ele><time>2026-03-25T09:43:48.002Z</time></trkpt><trkpt lat="37.36123501406334" lon="13.933546419214677"><ele>434.0</ele><time>2026-03-25T09:43:49.002Z</time></trkpt><trkpt lat="37.3613272833699" lon="13.933716809221915"><ele>432.66666666666663</ele><time>2026-03-25T09:43:50.002Z</time></trkpt><trkpt lat="37.361414961564485" lon="13.933881927265714"><ele>431.33333333333337</ele><time>2026-03-25T09:43:51.002Z</time></trkpt><trkpt lat="37.36150028642284" lon="13.934043892475897"><ele>430.0</ele><time>2026-03-25T09:43:52.002Z</time></trkpt><trkpt lat="37.361583999821036" lon="13.934204084406797"><ele>432.33333333333337</ele><time>2026-03-25T09:43:53.002Z</time></trkpt><trkpt lat="37.36167229078364" lon="13.934363591916599"><ele>434.66666666666663</ele><time>2026-03-25T09:43:54.002Z</time></trkpt><trkpt lat="37.36177303528875" lon="13.934519022954479"><ele>437.0</ele><time>2026-03-25T09:43:55.002Z</time></trkpt><trkpt lat="37.3618893700807" lon="13.934669303128377"><ele>437.0</ele><time>2026-03-25T09:43:56Z</time></trkpt><trkpt lat="37.36201205662487" lon="13.934818730646292"><ele>437.0</ele><time>2026-03-25T09:43:57Z</time></trkpt><trkpt lat="37.36213961604765" lon="13.934957857647541"><ele>437.0</ele><time>2026-03-25T09:43:58Z</time></trkpt><trkpt lat="37.36226230818757" lon="13.935085819355265"><ele>439.3333333333333</ele><time>2026-03-25T09:43:59Z</time></trkpt><trkpt lat="37.36238457741295" lon="13.935213355117794"><ele>441.66666666666663</ele><time>2026-03-25T09:44:00Z</time></trkpt><trkpt lat="37.36251033553804" lon="13.935333124191406"><ele>444.0</ele><time>2026-03-25T09:44:01Z</time></trkpt><trkpt lat="37.36264129117214" lon="13.93544822040559"><ele>444.0</ele><time>2026-03-25T09:44:02Z</time></trkpt><trkpt lat="37.362773848110024" lon="13.935561918444355"><ele>444.0</ele><time>2026-03-25T09:44:03Z</time></trkpt><trkpt lat="37.36291170549859" lon="13.935675299234758"><ele>444.0</ele><time>2026-03-25T09:44:04Z</time></trkpt><trkpt lat="37.36305785554461" lon="13.935796600497804"><ele>447.66666666666663</ele><time>2026-03-25T09:44:05Z</time></trkpt><trkpt lat="37.36320674811421" lon="13.935919925318554"><ele>451.3333333333333</ele><time>2026-03-25T09:44:06Z</time></trkpt><trkpt lat="37.363354493810775" lon="13.936047845629476"><ele>455.0</ele><time>2026-03-25T09:44:07Z</time></trkpt><trkpt lat="37.36349921424067" lon="13.936176946027398"><ele>455.0</ele><time>2026-03-25T09:44:08Z</time></trkpt><trkpt lat="37.36363446724455" lon="13.936314946482847"><ele>455.0</ele><time>2026-03-25T09:44:09Z</time></trkpt><trkpt lat="37.363769616554684" lon="13.936453928256249"><ele>455.0</ele><time>2026-03-25T09:44:10Z</time></trkpt><trkpt lat="37.36389536927918" lon="13.936600283772519"><ele>454.66666666666663</ele><time>2026-03-25T09:44:11Z</time></trkpt><trkpt lat="37.364017887061216" lon="13.936742337386791"><ele>454.33333333333337</ele><time>2026-03-25T09:44:12Z</time></trkpt><trkpt lat="37.36413090435771" lon="13.936879575946767"><ele>454.0</ele><time>2026-03-25T09:44:13Z</time></trkpt><trkpt lat="37.36423657291386" lon="13.937033181647813"><ele>454.0</ele><time>2026-03-25T09:44:14Z</time></trkpt><trkpt lat="37.3643328464897" lon="13.937207939460468"><ele>454.0</ele><time>2026-03-25T09:44:15Z</time></trkpt><trkpt lat="37.36442171760744" lon="13.937398835378282"><ele>454.0</ele><time>2026-03-25T09:44:16Z</time></trkpt><trkpt lat="37.36450435060564" lon="13.937602304065738"><ele>454.6666666666667</ele><time>2026-03-25T09:44:17Z</time></trkpt><trkpt lat="37.364586071219605" lon="13.937811861650959"><ele>455.33333333333337</ele><time>2026-03-25T09:44:18Z</time></trkpt><trkpt lat="37.36466103424324" lon="13.93800709712156"><ele>456.0</ele><time>2026-03-25T09:44:19Z</time></trkpt><trkpt lat="37.36472867066346" lon="13.938184599693905"><ele>454.33333333333337</ele><time>2026-03-25T09:44:20Z</time></trkpt><trkpt lat="37.36479668513921" lon="13.938347574640144"><ele>452.6666666666667</ele><time>2026-03-25T09:44:21Z</time></trkpt><trkpt lat="37.36488214272821" lon="13.938497154936245"><ele>451.0</ele><time>2026-03-25T09:44:22Z</time></trkpt><trkpt lat="37.364990182726466" lon="13.93864068859192"><ele>448.33333333333337</ele><time>2026-03-25T09:44:23Z</time></trkpt><trkpt lat="37.365121309600944" lon="13.938773756379964"><ele>445.66666666666663</ele><time>2026-03-25T09:44:24Z</time></trkpt><trkpt lat="37.365272947375736" lon="13.938904010697915"><ele>443.0</ele><time>2026-03-25T09:44:25Z</time></trkpt><trkpt lat="37.36542971542434" lon="13.939037749453517"><ele>442.3333333333333</ele><time>2026-03-25T09:44:26Z</time></trkpt><trkpt lat="37.36558190045311" lon="13.93918226897191"><ele>441.66666666666663</ele><time>2026-03-25T09:44:27Z</time></trkpt><trkpt lat="37.365726322679556" lon="13.939339012445759"><ele>441.0</ele><time>2026-03-25T09:44:28Z</time></trkpt><trkpt lat="37.36585462456901" lon="13.93951415552957"><ele>441.0</ele><time>2026-03-25T09:44:29Z</time></trkpt><trkpt lat="37.36597330232543" lon="13.93970599629612"><ele>441.0</ele><time>2026-03-25T09:44:30Z</time></trkpt><trkpt lat="37.36609195266969" lon="13.939907258535753"><ele>441.0</ele><time>2026-03-25T09:44:31Z</time></trkpt><trkpt lat="37.36621456525315" lon="13.940104378423344"><ele>442.33333333333337</ele><time>2026-03-25T09:44:32Z</time></trkpt><trkpt lat="37.366332962934514" lon="13.940294148281964"><ele>443.6666666666667</ele><time>2026-03-25T09:44:33Z</time></trkpt><trkpt lat="37.366446465037534" lon="13.940477884104856"><ele>445.0</ele><time>2026-03-25T09:44:34Z</time></trkpt><trkpt lat="37.366552708891014" lon="13.940654692196421"><ele>445.0</ele><time>2026-03-25T09:44:35Z</time></trkpt><trkpt lat="37.36665290353802" lon="13.940825647544536"><ele>445.0</ele><time>2026-03-25T09:44:36Z</time></trkpt><trkpt lat="37.366752814095136" lon="13.940995319359613"><ele>445.0</ele><time>2026-03-25T09:44:37Z</time></trkpt><trkpt lat="37.36685318296108" lon="13.941162497514423"><ele>443.33333333333337</ele><time>2026-03-25T09:44:38.001Z</time></trkpt><trkpt lat="37.36695213114136" lon="13.94132764599284"><ele>441.66666666666663</ele><time>2026-03-25T09:44:39.001Z</time></trkpt><trkpt lat="37.36704579462703" lon="13.941493973738508"><ele>440.0</ele><time>2026-03-25T09:44:40.001Z</time></trkpt><trkpt lat="37.367124619262306" lon="13.941670872992775"><ele>439.3333333333333</ele><time>2026-03-25T09:44:41.001Z</time></trkpt><trkpt lat="37.36718525212878" lon="13.94185940410505"><ele>438.66666666666663</ele><time>2026-03-25T09:44:42.001Z</time></trkpt><trkpt lat="37.367235602990704" lon="13.9420426200033"><ele>438.0</ele><time>2026-03-25T09:44:43.001Z</time></trkpt><trkpt lat="37.367276966669536" lon="13.942228390400603"><ele>439.25</ele><time>2026-03-25T09:44:44.001Z</time></trkpt><trkpt lat="37.36730768528886" lon="13.942413760414375"><ele>440.5</ele><time>2026-03-25T09:44:45.001Z</time></trkpt><trkpt lat="37.36732977450024" lon="13.942594876035775"><ele>441.75</ele><time>2026-03-25T09:44:46.001Z</time></trkpt><trkpt lat="37.36733672820402" lon="13.942784016407316"><ele>443.0</ele><time>2026-03-25T09:44:47.001Z</time></trkpt><trkpt lat="37.36732461675349" lon="13.942975784173624"><ele>443.3333333333333</ele><time>2026-03-25T09:44:48.001Z</time></trkpt><trkpt lat="37.367302446741924" lon="13.943178063381014"><ele>443.66666666666663</ele><time>2026-03-25T09:44:49.001Z</time></trkpt><trkpt lat="37.367277958330405" lon="13.94338683595297"><ele>444.0</ele><time>2026-03-25T09:44:50.001Z</time></trkpt><trkpt lat="37.36725507768461" lon="13.943598917079386"><ele>445.33333333333337</ele><time>2026-03-25T09:44:51.001Z</time></trkpt><trkpt lat="37.36721469988937" lon="13.943806434477246"><ele>446.6666666666667</ele><time>2026-03-25T09:44:52.001Z</time></trkpt><trkpt lat="37.36721443741629" lon="13.944014648079435"><ele>448.0</ele><time>2026-03-25T09:44:53.001Z</time></trkpt><trkpt lat="37.367195960387754" lon="13.944203765580305"><ele>448.25</ele><time>2026-03-25T09:44:54.001Z</time></trkpt><trkpt lat="37.367188933991905" lon="13.944380584545"><ele>448.5</ele><time>2026-03-25T09:44:55.001Z</time></trkpt><trkpt lat="37.36720249534499" lon="13.944542235017563"><ele>448.75</ele><time>2026-03-25T09:44:56.001Z</time></trkpt><trkpt lat="37.36723504624271" lon="13.94469627863373"><ele>449.0</ele><time>2026-03-25T09:44:57.001Z</time></trkpt><trkpt lat="37.36728358200427" lon="13.944845223356305"><ele>449.0</ele><time>2026-03-25T09:44:58.001Z</time></trkpt><trkpt lat="37.36734839002963" lon="13.944994747226152"><ele>449.0</ele><time>2026-03-25T09:44:59.001Z</time></trkpt><trkpt lat="37.36742145106806" lon="13.945148839954992"><ele>449.0</ele><time>2026-03-25T09:45:00.001Z</time></trkpt><trkpt lat="37.367497771681656" lon="13.945304098618875"><ele>449.0</ele><time>2026-03-25T09:45:01.001Z</time></trkpt><trkpt lat="37.36757486544752" lon="13.94545955101611"><ele>447.25</ele><time>2026-03-25T09:45:02.001Z</time></trkpt><trkpt lat="37.36765743732148" lon="13.945612577277162"><ele>445.5</ele><time>2026-03-25T09:45:03.001Z</time></trkpt><trkpt lat="37.36775397882447" lon="13.945754500207181"><ele>443.75</ele><time>2026-03-25T09:45:04.001Z</time></trkpt><trkpt lat="37.36785898489716" lon="13.94589014120749"><ele>442.0</ele><time>2026-03-25T09:45:05.001Z</time></trkpt><trkpt lat="37.36796777516224" lon="13.946026980622634"><ele>443.33333333333337</ele><time>2026-03-25T09:45:06.001Z</time></trkpt><trkpt lat="37.36807924517119" lon="13.946160083935526"><ele>444.66666666666663</ele><time>2026-03-25T09:45:07.001Z</time></trkpt><trkpt lat="37.36818795905343" lon="13.946298322628653"><ele>446.0</ele><time>2026-03-25T09:45:08.001Z</time></trkpt><trkpt lat="37.368292868227385" lon="13.946439705792576"><ele>446.0</ele><time>2026-03-25T09:45:09.001Z</time></trkpt><trkpt lat="37.36839926742318" lon="13.94658111109893"><ele>446.0</ele><time>2026-03-25T09:45:10.001Z</time></trkpt><trkpt lat="37.36850801909226" lon="13.946720433795283"><ele>446.0</ele><time>2026-03-25T09:45:11.001Z</time></trkpt><trkpt lat="37.368625887875076" lon="13.946864707367872"><ele>447.0</ele><time>2026-03-25T09:45:12.001Z</time></trkpt><trkpt lat="37.3687474005698" lon="13.947015968257537"><ele>448.0</ele><time>2026-03-25T09:45:13.001Z</time></trkpt><trkpt lat="37.36887863017776" lon="13.947169437278326"><ele>449.0</ele><time>2026-03-25T09:45:14.001Z</time></trkpt><trkpt lat="37.36902249160095" lon="13.947324212612997"><ele>449.0</ele><time>2026-03-25T09:45:15.001Z</time></trkpt><trkpt lat="37.36917039733917" lon="13.947476537668626"><ele>449.0</ele><time>2026-03-25T09:45:16.001Z</time></trkpt><trkpt lat="37.369316280270034" lon="13.94762828554186"><ele>449.0</ele><time>2026-03-25T09:45:17.001Z</time></trkpt><trkpt lat="37.369455414687785" lon="13.947776042655473"><ele>449.3333333333333</ele><time>2026-03-25T09:45:18.001Z</time></trkpt><trkpt lat="37.369583766594786" lon="13.947913298972527"><ele>449.66666666666663</ele><time>2026-03-25T09:45:19.001Z</time></trkpt><trkpt lat="37.36970678530518" lon="13.948042689821913"><ele>450.0</ele><time>2026-03-25T09:45:20.001Z</time></trkpt><trkpt lat="37.36983321082302" lon="13.948159877721416"><ele>451.33333333333337</ele><time>2026-03-25T09:45:21.001Z</time></trkpt><trkpt lat="37.369960079070474" lon="13.948264811281742"><ele>452.6666666666667</ele><time>2026-03-25T09:45:22.001Z</time></trkpt><trkpt lat="37.370088394291784" lon="13.948364398242882"><ele>454.0</ele><time>2026-03-25T09:45:23.001Z</time></trkpt><trkpt lat="37.37021924855568" lon="13.948461743605758"><ele>454.0</ele><time>2026-03-25T09:45:24.001Z</time></trkpt><trkpt lat="37.370354472629" lon="13.948557671774976"><ele>454.0</ele><time>2026-03-25T09:45:25.001Z</time></trkpt><trkpt lat="37.37049841369804" lon="13.948647323783465"><ele>454.0</ele><time>2026-03-25T09:45:26.001Z</time></trkpt><trkpt lat="37.370653567369004" lon="13.948729811342481"><ele>450.33333333333337</ele><time>2026-03-25T09:45:27.001Z</time></trkpt><trkpt lat="37.37081456831364" lon="13.94880842011051"><ele>446.66666666666663</ele><time>2026-03-25T09:45:28.001Z</time></trkpt><trkpt lat="37.37097881862813" lon="13.948892377332294"><ele>443.0</ele><time>2026-03-25T09:45:29.001Z</time></trkpt><trkpt lat="37.37114471591205" lon="13.948980906639443"><ele>443.0</ele><time>2026-03-25T09:45:30.001Z</time></trkpt><trkpt lat="37.37131543308306" lon="13.949072082859605"><ele>443.0</ele><time>2026-03-25T09:45:31.001Z</time></trkpt><trkpt lat="37.371489396018596" lon="13.94916469664549"><ele>443.0</ele><time>2026-03-25T09:45:32.001Z</time></trkpt><trkpt lat="37.3716617691898" lon="13.949256174182583"><ele>442.0</ele><time>2026-03-25T09:45:33.001Z</time></trkpt><trkpt lat="37.371836566345394" lon="13.949346931195748"><ele>441.0</ele><time>2026-03-25T09:45:34.001Z</time></trkpt><trkpt lat="37.37201290299713" lon="13.949437225395995"><ele>440.0</ele><time>2026-03-25T09:45:35.001Z</time></trkpt><trkpt lat="37.37218557433771" lon="13.949527775217625"><ele>439.0</ele><time>2026-03-25T09:45:36.001Z</time></trkpt><trkpt lat="37.372351929257626" lon="13.949615385985634"><ele>438.0</ele><time>2026-03-25T09:45:37.001Z</time></trkpt><trkpt lat="37.37251110722507" lon="13.949704030193839"><ele>437.0</ele><time>2026-03-25T09:45:38.001Z</time></trkpt><trkpt lat="37.3726701137007" lon="13.949805873209908"><ele>437.0</ele><time>2026-03-25T09:45:39.002Z</time></trkpt><trkpt lat="37.37282782216407" lon="13.949923284163255"><ele>437.0</ele><time>2026-03-25T09:45:40.002Z</time></trkpt><trkpt lat="37.37298511823143" lon="13.950052644551121"><ele>437.0</ele><time>2026-03-25T09:45:41.002Z</time></trkpt><trkpt lat="37.373142366564174" lon="13.950188343190748"><ele>435.3333333333333</ele><time>2026-03-25T09:45:42.002Z</time></trkpt><trkpt lat="37.373301559128684" lon="13.950329936834159"><ele>433.66666666666663</ele><time>2026-03-25T09:45:43.002Z</time></trkpt><trkpt lat="37.37346227035611" lon="13.950475050712694"><ele>432.0</ele><time>2026-03-25T09:45:44.002Z</time></trkpt><trkpt lat="37.37362233648624" lon="13.950621968399604"><ele>432.0</ele><time>2026-03-25T09:45:45.002Z</time></trkpt><trkpt lat="37.37378513548677" lon="13.950769334612792"><ele>432.0</ele><time>2026-03-25T09:45:46.002Z</time></trkpt><trkpt lat="37.37395035444811" lon="13.950916088059264"><ele>432.0</ele><time>2026-03-25T09:45:47.002Z</time></trkpt><trkpt lat="37.37411139853467" lon="13.95106090074215"><ele>430.66666666666663</ele><time>2026-03-25T09:45:48.002Z</time></trkpt><trkpt lat="37.37426748120486" lon="13.951201811285738"><ele>429.3333333333333</ele><time>2026-03-25T09:45:49.002Z</time></trkpt><trkpt lat="37.374414734227166" lon="13.951339055786105"><ele>428.0</ele><time>2026-03-25T09:45:50.002Z</time></trkpt><trkpt lat="37.37455719619562" lon="13.951471737989534"><ele>426.3333333333333</ele><time>2026-03-25T09:45:51.002Z</time></trkpt><trkpt lat="37.37469984640517" lon="13.951596849291084"><ele>424.66666666666663</ele><time>2026-03-25T09:45:52.002Z</time></trkpt><trkpt lat="37.3748418325837" lon="13.951718771343135"><ele>423.0</ele><time>2026-03-25T09:45:53.002Z</time></trkpt><trkpt lat="37.37498108897257" lon="13.95183852749857"><ele>423.0</ele><time>2026-03-25T09:45:54.002Z</time></trkpt><trkpt lat="37.375113112772944" lon="13.951952438747025"><ele>423.0</ele><time>2026-03-25T09:45:55.002Z</time></trkpt><trkpt lat="37.37523857422002" lon="13.952060641140333"><ele>423.0</ele><time>2026-03-25T09:45:56.002Z</time></trkpt><trkpt lat="37.375361903433486" lon="13.952163907802719"><ele>423.0</ele><time>2026-03-25T09:45:57.002Z</time></trkpt><trkpt lat="37.375496950585735" lon="13.952264647783828"><ele>423.0</ele><time>2026-03-25T09:45:58.002Z</time></trkpt><trkpt lat="37.37564483635358" lon="13.952356067082093"><ele>423.0</ele><time>2026-03-25T09:45:59.002Z</time></trkpt><trkpt lat="37.37579435316825" lon="13.952450687782752"><ele>423.66666666666663</ele><time>2026-03-25T09:46:00.002Z</time></trkpt><trkpt lat="37.375943000517566" lon="13.952538990392386"><ele>424.3333333333333</ele><time>2026-03-25T09:46:01.002Z</time></trkpt><trkpt lat="37.37608701425197" lon="13.952626203384725"><ele>425.0</ele><time>2026-03-25T09:46:02Z</time></trkpt><trkpt lat="37.37622782217921" lon="13.952713332875021"><ele>425.66666666666663</ele><time>2026-03-25T09:46:03Z</time></trkpt><trkpt lat="37.376369323390264" lon="13.952797076160028"><ele>426.33333333333337</ele><time>2026-03-25T09:46:04Z</time></trkpt><trkpt lat="37.37650944085628" lon="13.952877839347671"><ele>427.0</ele><time>2026-03-25T09:46:05Z</time></trkpt><trkpt lat="37.37665084062656" lon="13.952958563796702"><ele>427.0</ele><time>2026-03-25T09:46:06Z</time></trkpt><trkpt lat="37.37679570074717" lon="13.953043599637063"><ele>427.0</ele><time>2026-03-25T09:46:07Z</time></trkpt><trkpt lat="37.376946022394314" lon="13.953131041379821"><ele>427.0</ele><time>2026-03-25T09:46:08Z</time></trkpt><trkpt lat="37.37709911035714" lon="13.953223088389887"><ele>427.33333333333337</ele><time>2026-03-25T09:46:09Z</time></trkpt><trkpt lat="37.37726154896782" lon="13.953317352632759"><ele>427.66666666666663</ele><time>2026-03-25T09:46:10Z</time></trkpt><trkpt lat="37.37742489916738" lon="13.953412880574302"><ele>428.0</ele><time>2026-03-25T09:46:11Z</time></trkpt><trkpt lat="37.37759170963797" lon="13.953504043216606"><ele>429.3333333333333</ele><time>2026-03-25T09:46:12Z</time></trkpt><trkpt lat="37.377763059891045" lon="13.953589860465058"><ele>430.66666666666663</ele><time>2026-03-25T09:46:13Z</time></trkpt><trkpt lat="37.377931266523376" lon="13.953672682567273"><ele>432.0</ele><time>2026-03-25T09:46:14Z</time></trkpt><trkpt lat="37.37810252240275" lon="13.953751076768453"><ele>432.33333333333337</ele><time>2026-03-25T09:46:15Z</time></trkpt><trkpt lat="37.37827378939338" lon="13.953827974769123"><ele>432.6666666666667</ele><time>2026-03-25T09:46:16Z</time></trkpt><trkpt lat="37.37844582694845" lon="13.953905707521224"><ele>433.0</ele><time>2026-03-25T09:46:17Z</time></trkpt><trkpt lat="37.378615324828694" lon="13.953984205733649"><ele>433.0</ele><time>2026-03-25T09:46:18Z</time></trkpt><trkpt lat="37.378781832770436" lon="13.954059574982008"><ele>433.0</ele><time>2026-03-25T09:46:19Z</time></trkpt><trkpt lat="37.37894709545539" lon="13.954134628689694"><ele>433.0</ele><time>2026-03-25T09:46:20Z</time></trkpt><trkpt lat="37.37910625379193" lon="13.954215283863581"><ele>434.0</ele><time>2026-03-25T09:46:21Z</time></trkpt><trkpt lat="37.379250986152115" lon="13.95430100499839"><ele>435.0</ele><time>2026-03-25T09:46:22Z</time></trkpt><trkpt lat="37.37938878933105" lon="13.954388595233244"><ele>436.0</ele><time>2026-03-25T09:46:23Z</time></trkpt><trkpt lat="37.37953599024279" lon="13.954463438448398"><ele>436.0</ele><time>2026-03-25T09:46:24Z</time></trkpt><trkpt lat="37.379697078771216" lon="13.954512906928624"><ele>436.0</ele><time>2026-03-25T09:46:25Z</time></trkpt><trkpt lat="37.37986770608506" lon="13.954548244005096"><ele>436.0</ele><time>2026-03-25T09:46:26Z</time></trkpt><trkpt lat="37.38003816459324" lon="13.954573612184268"><ele>436.0</ele><time>2026-03-25T09:46:27Z</time></trkpt><trkpt lat="37.38020723018048" lon="13.954584111939493"><ele>436.0</ele><time>2026-03-25T09:46:28Z</time></trkpt><trkpt lat="37.380381558139405" lon="13.954570645425472"><ele>436.0</ele><time>2026-03-25T09:46:29Z</time></trkpt><trkpt lat="37.38056191650415" lon="13.954544007691934"><ele>437.33333333333337</ele><time>2026-03-25T09:46:30Z</time></trkpt><trkpt lat="37.380750084148836" lon="13.954515819874691"><ele>438.66666666666663</ele><time>2026-03-25T09:46:31Z</time></trkpt><trkpt lat="37.38093923478128" lon="13.954491201808544"><ele>440.0</ele><time>2026-03-25T09:46:32Z</time></trkpt><trkpt lat="37.38111139738017" lon="13.95447540913849"><ele>440.0</ele><time>2026-03-25T09:46:33Z</time></trkpt><trkpt lat="37.3812692388259" lon="13.954471588052758"><ele>440.0</ele><time>2026-03-25T09:46:34Z</time></trkpt><trkpt lat="37.38141331385986" lon="13.954458697869127"><ele>440.0</ele><time>2026-03-25T09:46:35Z</time></trkpt><trkpt lat="37.38155385678313" lon="13.95441425046498"><ele>440.0</ele><time>2026-03-25T09:46:36Z</time></trkpt><trkpt lat="37.38168950749391" lon="13.954334291415133"><ele>440.0</ele><time>2026-03-25T09:46:37Z</time></trkpt><trkpt lat="37.38181645992842" lon="13.95421631385566"><ele>440.0</ele><time>2026-03-25T09:46:38Z</time></trkpt><trkpt lat="37.381940089359674" lon="13.954081211968798"><ele>440.0</ele><time>2026-03-25T09:46:39Z</time></trkpt><trkpt lat="37.38205476586015" lon="13.95395572804592"><ele>440.0</ele><time>2026-03-25T09:46:40Z</time></trkpt><trkpt lat="37.382166907618455" lon="13.953848855264361"><ele>440.0</ele><time>2026-03-25T09:46:41Z</time></trkpt><trkpt lat="37.38228762603905" lon="13.95375644596196"><ele>440.0</ele><time>2026-03-25T09:46:42Z</time></trkpt><trkpt lat="37.38240842869947" lon="13.953692037650375"><ele>440.0</ele><time>2026-03-25T09:46:43Z</time></trkpt><trkpt lat="37.38253747321183" lon="13.953649078812916"><ele>439.75</ele><time>2026-03-25T09:46:44Z</time></trkpt><trkpt lat="37.3826804637348" lon="13.95362405598979"><ele>439.5</ele><time>2026-03-25T09:46:45Z</time></trkpt><trkpt lat="37.382824401439144" lon="13.95361823564113"><ele>439.25</ele><time>2026-03-25T09:46:46.001Z</time></trkpt><trkpt lat="37.38296781545149" lon="13.953628237103569"><ele>439.0</ele><time>2026-03-25T09:46:47.001Z</time></trkpt><trkpt lat="37.38310517654191" lon="13.953643053383795"><ele>437.0</ele><time>2026-03-25T09:46:48.001Z</time></trkpt><trkpt lat="37.38324141236569" lon="13.95365611546933"><ele>435.0</ele><time>2026-03-25T09:46:49.001Z</time></trkpt><trkpt lat="37.383377333191056" lon="13.95367092129028"><ele>433.0</ele><time>2026-03-25T09:46:50.001Z</time></trkpt><trkpt lat="37.383510919905156" lon="13.953695246161544"><ele>431.0</ele><time>2026-03-25T09:46:51.001Z</time></trkpt><trkpt lat="37.38364123295545" lon="13.953726994354835"><ele>431.0</ele><time>2026-03-25T09:46:52.001Z</time></trkpt><trkpt lat="37.3837676068641" lon="13.9537610549991"><ele>431.0</ele><time>2026-03-25T09:46:53.001Z</time></trkpt><trkpt lat="37.38389073627744" lon="13.953794222664989"><ele>431.0</ele><time>2026-03-25T09:46:54.001Z</time></trkpt><trkpt lat="37.38401349489284" lon="13.953829514319132"><ele>431.0</ele><time>2026-03-25T09:46:55.001Z</time></trkpt><trkpt lat="37.38414021308574" lon="13.953868097064"><ele>430.75</ele><time>2026-03-25T09:46:56.001Z</time></trkpt><trkpt lat="37.38427290616247" lon="13.953903820180065"><ele>430.5</ele><time>2026-03-25T09:46:57.001Z</time></trkpt><trkpt lat="37.38441158621357" lon="13.953943540441818"><ele>430.25</ele><time>2026-03-25T09:46:58.001Z</time></trkpt><trkpt lat="37.384555143876625" lon="13.953985654770827"><ele>430.0</ele><time>2026-03-25T09:46:59.001Z</time></trkpt><trkpt lat="37.38470124332652" lon="13.954029207240866"><ele>429.0</ele><time>2026-03-25T09:47:00.001Z</time></trkpt><trkpt lat="37.38484262072685" lon="13.954074247025599"><ele>428.0</ele><time>2026-03-25T09:47:01.001Z</time></trkpt><trkpt lat="37.38497322275119" lon="13.954134010829737"><ele>427.0</ele><time>2026-03-25T09:47:02.001Z</time></trkpt><trkpt lat="37.38509733442228" lon="13.954230784034763"><ele>426.0</ele><time>2026-03-25T09:47:03.001Z</time></trkpt><trkpt lat="37.38521667425071" lon="13.954354228359774"><ele>426.0</ele><time>2026-03-25T09:47:04.001Z</time></trkpt><trkpt lat="37.385333969581666" lon="13.954486512058658"><ele>426.0</ele><time>2026-03-25T09:47:05.001Z</time></trkpt><trkpt lat="37.38545514292693" lon="13.954619401105912"><ele>426.0</ele><time>2026-03-25T09:47:06.001Z</time></trkpt><trkpt lat="37.385584967503384" lon="13.954742216064966"><ele>427.33333333333337</ele><time>2026-03-25T09:47:07.001Z</time></trkpt><trkpt lat="37.38572775753035" lon="13.95486381396092"><ele>428.6666666666667</ele><time>2026-03-25T09:47:08.001Z</time></trkpt><trkpt lat="37.38587592996165" lon="13.95498465259928"><ele>430.0</ele><time>2026-03-25T09:47:09.001Z</time></trkpt><trkpt lat="37.386020183800774" lon="13.955102481828375"><ele>426.6666666666667</ele><time>2026-03-25T09:47:10.001Z</time></trkpt><trkpt lat="37.386153488833656" lon="13.955214316928695"><ele>423.33333333333337</ele><time>2026-03-25T09:47:11.001Z</time></trkpt><trkpt lat="37.3862849542455" lon="13.955312147750044"><ele>420.0</ele><time>2026-03-25T09:47:12.001Z</time></trkpt><trkpt lat="37.38643203271286" lon="13.955390093288488"><ele>419.66666666666663</ele><time>2026-03-25T09:47:13.001Z</time></trkpt><trkpt lat="37.38659715796033" lon="13.955446257839547"><ele>419.3333333333333</ele><time>2026-03-25T09:47:14.001Z</time></trkpt><trkpt lat="37.38677388462999" lon="13.955479931365076"><ele>419.0</ele><time>2026-03-25T09:47:15.001Z</time></trkpt><trkpt lat="37.38695361354076" lon="13.955503727525095"><ele>419.0</ele><time>2026-03-25T09:47:16.001Z</time></trkpt><trkpt lat="37.38713697091333" lon="13.955528852683111"><ele>419.0</ele><time>2026-03-25T09:47:17.001Z</time></trkpt><trkpt lat="37.38732000453222" lon="13.955556648586684"><ele>419.0</ele><time>2026-03-25T09:47:18.001Z</time></trkpt><trkpt lat="37.38750012104332" lon="13.95558489574994"><ele>419.0</ele><time>2026-03-25T09:47:19.001Z</time></trkpt><trkpt lat="37.387677961171626" lon="13.95561420381961"><ele>419.0</ele><time>2026-03-25T09:47:20.001Z</time></trkpt><trkpt lat="37.38785086382815" lon="13.955641029437235"><ele>419.0</ele><time>2026-03-25T09:47:21.001Z</time></trkpt><trkpt lat="37.38801096006099" lon="13.955666377372761"><ele>419.66666666666663</ele><time>2026-03-25T09:47:22.001Z</time></trkpt><trkpt lat="37.388160210882674" lon="13.955697452496164"><ele>420.33333333333337</ele><time>2026-03-25T09:47:23.001Z</time></trkpt><trkpt lat="37.38830401588742" lon="13.955749706277178"><ele>421.0</ele><time>2026-03-25T09:47:24.001Z</time></trkpt><trkpt lat="37.3884388040228" lon="13.955842101788685"><ele>419.6666666666667</ele><time>2026-03-25T09:47:25.001Z</time></trkpt><trkpt lat="37.38856038601425" lon="13.955974591037906"><ele>418.33333333333337</ele><time>2026-03-25T09:47:26.001Z</time></trkpt><trkpt lat="37.388677862434875" lon="13.956131677565095"><ele>417.0</ele><time>2026-03-25T09:47:27.001Z</time></trkpt><trkpt lat="37.38880449199448" lon="13.95629514072479"><ele>417.0</ele><time>2026-03-25T09:47:28.001Z</time></trkpt><trkpt lat="37.38893726828536" lon="13.956455372640407"><ele>417.0</ele><time>2026-03-25T09:47:29.001Z</time></trkpt><trkpt lat="37.38906941597814" lon="13.956606565606812"><ele>417.0</ele><time>2026-03-25T09:47:30.001Z</time></trkpt><trkpt lat="37.38919758110978" lon="13.956732940017526"><ele>417.0</ele><time>2026-03-25T09:47:31.001Z</time></trkpt><trkpt lat="37.38933044210393" lon="13.956826459012268"><ele>417.0</ele><time>2026-03-25T09:47:32.001Z</time></trkpt><trkpt lat="37.38948240288563" lon="13.956886939408342"><ele>417.0</ele><time>2026-03-25T09:47:33.001Z</time></trkpt><trkpt lat="37.38964539311331" lon="13.956934557485187"><ele>418.33333333333337</ele><time>2026-03-25T09:47:34.001Z</time></trkpt><trkpt lat="37.38980299604546" lon="13.956981485820249"><ele>419.6666666666667</ele><time>2026-03-25T09:47:35.001Z</time></trkpt><trkpt lat="37.389951760657866" lon="13.957039207912242"><ele>421.0</ele><time>2026-03-25T09:47:36.001Z</time></trkpt><trkpt lat="37.390083494040745" lon="13.957107203996712"><ele>421.0</ele><time>2026-03-25T09:47:37.001Z</time></trkpt><trkpt lat="37.39020114665979" lon="13.957207762113526"><ele>421.0</ele><time>2026-03-25T09:47:38.001Z</time></trkpt><trkpt lat="37.39027885356594" lon="13.95736260351091"><ele>421.0</ele><time>2026-03-25T09:47:39.001Z</time></trkpt><trkpt lat="37.39037510870484" lon="13.95751586824856"><ele>421.0</ele><time>2026-03-25T09:47:40.001Z</time></trkpt><trkpt lat="37.390465374209256" lon="13.957688880347998"><ele>422.5</ele><time>2026-03-25T09:47:41.001Z</time></trkpt><trkpt lat="37.3905608866435" lon="13.957856470093297"><ele>424.0</ele><time>2026-03-25T09:47:42.001Z</time></trkpt><trkpt lat="37.39064954749229" lon="13.958005100793565"><ele>425.5</ele><time>2026-03-25T09:47:43.001Z</time></trkpt><trkpt lat="37.39073445972176" lon="13.958129325975362"><ele>427.0</ele><time>2026-03-25T09:47:44.001Z</time></trkpt><trkpt lat="37.390846060053754" lon="13.958223574839218"><ele>427.0</ele><time>2026-03-25T09:47:45.002Z</time></trkpt><trkpt lat="37.390978144316506" lon="13.958292831037273"><ele>427.0</ele><time>2026-03-25T09:47:46.002Z</time></trkpt><trkpt lat="37.39111704931805" lon="13.95835743046534"><ele>427.0</ele><time>2026-03-25T09:47:47.002Z</time></trkpt><trkpt lat="37.39125886684752" lon="13.958429382112524"><ele>427.0</ele><time>2026-03-25T09:47:48.002Z</time></trkpt><trkpt lat="37.39140029719331" lon="13.958508228303163"><ele>428.0</ele><time>2026-03-25T09:47:49.002Z</time></trkpt><trkpt lat="37.39153943836556" lon="13.958592756160954"><ele>429.0</ele><time>2026-03-25T09:47:50.002Z</time></trkpt><trkpt lat="37.39167587374839" lon="13.958685057735726"><ele>430.0</ele><time>2026-03-25T09:47:51.002Z</time></trkpt><trkpt lat="37.39181288366339" lon="13.958790128209252"><ele>430.0</ele><time>2026-03-25T09:47:52.002Z</time></trkpt><trkpt lat="37.39195328921308" lon="13.95890204228333"><ele>430.0</ele><time>2026-03-25T09:47:53.002Z</time></trkpt><trkpt lat="37.39209390139026" lon="13.959018266160125"><ele>430.0</ele><time>2026-03-25T09:47:54.002Z</time></trkpt><trkpt lat="37.39223675947397" lon="13.959132185278154"><ele>428.33333333333337</ele><time>2026-03-25T09:47:55.002Z</time></trkpt><trkpt lat="37.39237720114044" lon="13.959242990930571"><ele>426.66666666666663</ele><time>2026-03-25T09:47:56.002Z</time></trkpt><trkpt lat="37.392514784140936" lon="13.95935087316431"><ele>425.0</ele><time>2026-03-25T09:47:57.002Z</time></trkpt><trkpt lat="37.39264836379027" lon="13.95945597462767"><ele>425.0</ele><time>2026-03-25T09:47:58.002Z</time></trkpt><trkpt lat="37.39277383179037" lon="13.959553719553577"><ele>425.0</ele><time>2026-03-25T09:47:59.002Z</time></trkpt><trkpt lat="37.39288838693443" lon="13.959650379853935"><ele>425.0</ele><time>2026-03-25T09:48:00.002Z</time></trkpt><trkpt lat="37.39298310508938" lon="13.959766557217153"><ele>425.0</ele><time>2026-03-25T09:48:01.002Z</time></trkpt><trkpt lat="37.39304808294481" lon="13.95990502549456"><ele>424.0</ele><time>2026-03-25T09:48:02.002Z</time></trkpt><trkpt lat="37.39307125521236" lon="13.960068743830247"><ele>423.0</ele><time>2026-03-25T09:48:03.002Z</time></trkpt><trkpt lat="37.393109740432" lon="13.96023597746601"><ele>422.0</ele><time>2026-03-25T09:48:04.002Z</time></trkpt><trkpt lat="37.39312763841181" lon="13.960417171321062"><ele>421.0</ele><time>2026-03-25T09:48:05.002Z</time></trkpt><trkpt lat="37.393152828951514" lon="13.960596768324482"><ele>421.0</ele><time>2026-03-25T09:48:06.002Z</time></trkpt><trkpt lat="37.39318989135714" lon="13.960769270642965"><ele>421.0</ele><time>2026-03-25T09:48:07.002Z</time></trkpt><trkpt lat="37.393239122138844" lon="13.960924174819853"><ele>421.0</ele><time>2026-03-25T09:48:08Z</time></trkpt><trkpt lat="37.39330963197851" lon="13.961057491884869"><ele>421.0</ele><time>2026-03-25T09:48:09Z</time></trkpt><trkpt lat="37.39340966477006" lon="13.9611720186539"><ele>422.0</ele><time>2026-03-25T09:48:10Z</time></trkpt><trkpt lat="37.39353912197505" lon="13.961274244471216"><ele>423.0</ele><time>2026-03-25T09:48:11Z</time></trkpt><trkpt lat="37.3936873304876" lon="13.96136460412405"><ele>424.0</ele><time>2026-03-25T09:48:12Z</time></trkpt><trkpt lat="37.39384611223212" lon="13.961457271142725"><ele>423.6666666666667</ele><time>2026-03-25T09:48:13Z</time></trkpt><trkpt lat="37.39401539113365" lon="13.961558068754858"><ele>423.33333333333337</ele><time>2026-03-25T09:48:14Z</time></trkpt><trkpt lat="37.3941867726272" lon="13.961667367315327"><ele>423.0</ele><time>2026-03-25T09:48:15Z</time></trkpt><trkpt lat="37.39435962881504" lon="13.96177895082579"><ele>423.0</ele><time>2026-03-25T09:48:16Z</time></trkpt><trkpt lat="37.3945318757806" lon="13.961888306425445"><ele>423.0</ele><time>2026-03-25T09:48:17Z</time></trkpt><trkpt lat="37.39470287021321" lon="13.961996505876233"><ele>423.0</ele><time>2026-03-25T09:48:18Z</time></trkpt><trkpt lat="37.394853443185674" lon="13.96209611900203"><ele>419.66666666666663</ele><time>2026-03-25T09:48:19Z</time></trkpt><trkpt lat="37.39499061194867" lon="13.9621933287952"><ele>416.3333333333333</ele><time>2026-03-25T09:48:20Z</time></trkpt><trkpt lat="37.39511910037446" lon="13.96228868320615"><ele>413.0</ele><time>2026-03-25T09:48:21Z</time></trkpt><trkpt lat="37.395241422252965" lon="13.962392125569666"><ele>413.3333333333333</ele><time>2026-03-25T09:48:22Z</time></trkpt><trkpt lat="37.39535941096284" lon="13.962535505505679"><ele>413.66666666666663</ele><time>2026-03-25T09:48:23Z</time></trkpt><trkpt lat="37.39547897811714" lon="13.96270696382793"><ele>414.0</ele><time>2026-03-25T09:48:24Z</time></trkpt><trkpt lat="37.395604580828426" lon="13.962884799697875"><ele>412.66666666666663</ele><time>2026-03-25T09:48:25Z</time></trkpt><trkpt lat="37.395736110253345" lon="13.963065184651034"><ele>411.3333333333333</ele><time>2026-03-25T09:48:26Z</time></trkpt><trkpt lat="37.39587023235153" lon="13.963243140709531"><ele>410.0</ele><time>2026-03-25T09:48:27Z</time></trkpt><trkpt lat="37.39600418606367" lon="13.963419734322953"><ele>410.0</ele><time>2026-03-25T09:48:28Z</time></trkpt><trkpt lat="37.39613073778981" lon="13.963587831094836"><ele>410.0</ele><time>2026-03-25T09:48:29Z</time></trkpt><trkpt lat="37.39624790198297" lon="13.963744285241"><ele>410.0</ele><time>2026-03-25T09:48:30Z</time></trkpt><trkpt lat="37.39635765890784" lon="13.963891871712391"><ele>408.66666666666663</ele><time>2026-03-25T09:48:31Z</time></trkpt><trkpt lat="37.39646793989244" lon="13.96403943204494"><ele>407.33333333333337</ele><time>2026-03-25T09:48:32Z</time></trkpt><trkpt lat="37.39657663289999" lon="13.964188667683207"><ele>406.0</ele><time>2026-03-25T09:48:33Z</time></trkpt><trkpt lat="37.396671677430085" lon="13.964336268119812"><ele>405.0</ele><time>2026-03-25T09:48:34Z</time></trkpt><trkpt lat="37.396755207038964" lon="13.96450529310689"><ele>404.0</ele><time>2026-03-25T09:48:35Z</time></trkpt><trkpt lat="37.39682586305673" lon="13.964697902684355"><ele>403.0</ele><time>2026-03-25T09:48:36Z</time></trkpt><trkpt lat="37.39686457155984" lon="13.96491700522473"><ele>401.33333333333337</ele><time>2026-03-25T09:48:37Z</time></trkpt><trkpt lat="37.39691014353138" lon="13.9651480754214"><ele>399.66666666666663</ele><time>2026-03-25T09:48:38Z</time></trkpt><trkpt lat="37.39697171062714" lon="13.96538285361781"><ele>398.0</ele><time>2026-03-25T09:48:39Z</time></trkpt><trkpt lat="37.397021141589164" lon="13.965621365433215"><ele>398.0</ele><time>2026-03-25T09:48:40Z</time></trkpt><trkpt lat="37.39706914486763" lon="13.965850057695352"><ele>398.0</ele><time>2026-03-25T09:48:41Z</time></trkpt><trkpt lat="37.39709682581882" lon="13.966069752195194"><ele>398.0</ele><time>2026-03-25T09:48:42Z</time></trkpt><trkpt lat="37.397137845151036" lon="13.966272895576408"><ele>397.66666666666663</ele><time>2026-03-25T09:48:43Z</time></trkpt><trkpt lat="37.397190611596116" lon="13.966460810241196"><ele>397.33333333333337</ele><time>2026-03-25T09:48:44Z</time></trkpt><trkpt lat="37.39722742920762" lon="13.966654833159625"><ele>397.0</ele><time>2026-03-25T09:48:45Z</time></trkpt><trkpt lat="37.3972660003637" lon="13.966848153919837"><ele>397.0</ele><time>2026-03-25T09:48:46Z</time></trkpt><trkpt lat="37.397305968284066" lon="13.967040546329729"><ele>397.0</ele><time>2026-03-25T09:48:47Z</time></trkpt><trkpt lat="37.39735569758403" lon="13.967224094174297"><ele>397.0</ele><time>2026-03-25T09:48:48Z</time></trkpt><trkpt lat="37.397428688724624" lon="13.967395051447385"><ele>395.0</ele><time>2026-03-25T09:48:49Z</time></trkpt><trkpt lat="37.39753309757786" lon="13.967551948100455"><ele>393.0</ele><time>2026-03-25T09:48:50Z</time></trkpt><trkpt lat="37.39765864918238" lon="13.967689566776627"><ele>391.0</ele><time>2026-03-25T09:48:51Z</time></trkpt><trkpt lat="37.3978065033214" lon="13.96779702981166"><ele>391.0</ele><time>2026-03-25T09:48:52Z</time></trkpt><trkpt lat="37.39797578799283" lon="13.967893645454495"><ele>391.0</ele><time>2026-03-25T09:48:53Z</time></trkpt><trkpt lat="37.39815138096048" lon="13.967991594037489"><ele>391.0</ele><time>2026-03-25T09:48:54Z</time></trkpt><trkpt lat="37.39831566227558" lon="13.96809037290451"><ele>391.6666666666667</ele><time>2026-03-25T09:48:55Z</time></trkpt><trkpt lat="37.398459373498305" lon="13.968186219263817"><ele>392.33333333333337</ele><time>2026-03-25T09:48:56Z</time></trkpt><trkpt lat="37.39859581888873" lon="13.968271699839255"><ele>393.0</ele><time>2026-03-25T09:48:57.001Z</time></trkpt><trkpt lat="37.398732229630724" lon="13.968340244859846"><ele>391.66666666666663</ele><time>2026-03-25T09:48:58.001Z</time></trkpt><trkpt lat="37.39887870635098" lon="13.968380352146168"><ele>390.3333333333333</ele><time>2026-03-25T09:48:59.001Z</time></trkpt><trkpt lat="37.399039393452696" lon="13.96838741219253"><ele>389.0</ele><time>2026-03-25T09:49:00.001Z</time></trkpt><trkpt lat="37.39920590899775" lon="13.968364194906272"><ele>389.75</ele><time>2026-03-25T09:49:01.001Z</time></trkpt><trkpt lat="37.399362170360554" lon="13.96832020523744"><ele>390.5</ele><time>2026-03-25T09:49:02.001Z</time></trkpt><trkpt lat="37.39950427856079" lon="13.968271151086382"><ele>391.25</ele><time>2026-03-25T09:49:03.001Z</time></trkpt><trkpt lat="37.39963582995291" lon="13.96821229053349"><ele>392.0</ele><time>2026-03-25T09:49:04.001Z</time></trkpt><trkpt lat="37.39976083297846" lon="13.968129497820389"><ele>390.0</ele><time>2026-03-25T09:49:05.001Z</time></trkpt><trkpt lat="37.39987716472622" lon="13.968025665407156"><ele>388.0</ele><time>2026-03-25T09:49:06.001Z</time></trkpt><trkpt lat="37.399982727114484" lon="13.967923484340366"><ele>386.0</ele><time>2026-03-25T09:49:07.001Z</time></trkpt><trkpt lat="37.400085267002005" lon="13.967831886285484"><ele>384.0</ele><time>2026-03-25T09:49:08.001Z</time></trkpt><trkpt lat="37.400189213516455" lon="13.967755838684427"><ele>384.0</ele><time>2026-03-25T09:49:09.001Z</time></trkpt><trkpt lat="37.40030364847469" lon="13.967715467995363"><ele>384.0</ele><time>2026-03-25T09:49:10.001Z</time></trkpt><trkpt lat="37.400437781119614" lon="13.967707184935152"><ele>384.0</ele><time>2026-03-25T09:49:11.001Z</time></trkpt><trkpt lat="37.400572974429906" lon="13.967737022717124"><ele>384.0</ele><time>2026-03-25T09:49:12.001Z</time></trkpt><trkpt lat="37.40071340377217" lon="13.967790864204337"><ele>383.0</ele><time>2026-03-25T09:49:13.001Z</time></trkpt><trkpt lat="37.40083570978517" lon="13.967845423654975"><ele>382.0</ele><time>2026-03-25T09:49:14.001Z</time></trkpt><trkpt lat="37.40094580154727" lon="13.967905052000818"><ele>381.0</ele><time>2026-03-25T09:49:15.001Z</time></trkpt><trkpt lat="37.401034820519655" lon="13.96799849540166"><ele>380.0</ele><time>2026-03-25T09:49:16.001Z</time></trkpt><trkpt lat="37.40108240532239" lon="13.968145576067373"><ele>380.0</ele><time>2026-03-25T09:49:17.001Z</time></trkpt><trkpt lat="37.40112548141982" lon="13.968314216064757"><ele>380.0</ele><time>2026-03-25T09:49:18.001Z</time></trkpt><trkpt lat="37.401180774562654" lon="13.968496762141537"><ele>380.0</ele><time>2026-03-25T09:49:19.001Z</time></trkpt><trkpt lat="37.40122717513646" lon="13.968668856471028"><ele>380.0</ele><time>2026-03-25T09:49:20.001Z</time></trkpt><trkpt lat="37.401289052051055" lon="13.968831773176005"><ele>380.6666666666667</ele><time>2026-03-25T09:49:21.001Z</time></trkpt><trkpt lat="37.40138101358557" lon="13.968995160459558"><ele>381.3333333333333</ele><time>2026-03-25T09:49:22.001Z</time></trkpt><trkpt lat="37.40148377047028" lon="13.9691399420158"><ele>382.0</ele><time>2026-03-25T09:49:23.001Z</time></trkpt><trkpt lat="37.40158532985181" lon="13.969277498032437"><ele>379.75</ele><time>2026-03-25T09:49:24.001Z</time></trkpt><trkpt lat="37.401684336680056" lon="13.969400217454792"><ele>377.5</ele><time>2026-03-25T09:49:25.001Z</time></trkpt><trkpt lat="37.40179755911107" lon="13.969506436320668"><ele>375.25</ele><time>2026-03-25T09:49:26.001Z</time></trkpt><trkpt lat="37.40193001691236" lon="13.969596152685753"><ele>373.0</ele><time>2026-03-25T09:49:27.001Z</time></trkpt><trkpt lat="37.40207434005745" lon="13.969680183485155"><ele>373.75</ele><time>2026-03-25T09:49:28.001Z</time></trkpt><trkpt lat="37.402215050625756" lon="13.969752229805083"><ele>374.5</ele><time>2026-03-25T09:49:29.001Z</time></trkpt><trkpt lat="37.40234149942799" lon="13.969817067831624"><ele>375.25</ele><time>2026-03-25T09:49:30.001Z</time></trkpt><trkpt lat="37.40247056217422" lon="13.969869665069218"><ele>376.0</ele><time>2026-03-25T09:49:31.001Z</time></trkpt><trkpt lat="37.4026166447472" lon="13.969885466467266"><ele>376.0</ele><time>2026-03-25T09:49:32.001Z</time></trkpt><trkpt lat="37.40277387024684" lon="13.969879494583823"><ele>376.0</ele><time>2026-03-25T09:49:33.001Z</time></trkpt><trkpt lat="37.402914797949094" lon="13.969874229205558"><ele>376.0</ele><time>2026-03-25T09:49:34.001Z</time></trkpt><trkpt lat="37.403035333179176" lon="13.969870986403016"><ele>376.0</ele><time>2026-03-25T09:49:35.001Z</time></trkpt><trkpt lat="37.40314062897446" lon="13.969849155125566"><ele>375.75</ele><time>2026-03-25T09:49:36.001Z</time></trkpt><trkpt lat="37.40324471261047" lon="13.969774770726858"><ele>375.5</ele><time>2026-03-25T09:49:37.001Z</time></trkpt><trkpt lat="37.4033402829529" lon="13.969650801440812"><ele>375.25</ele><time>2026-03-25T09:49:38.001Z</time></trkpt><trkpt lat="37.403431009910136" lon="13.969495984721506"><ele>375.0</ele><time>2026-03-25T09:49:39.001Z</time></trkpt><trkpt lat="37.403525545949456" lon="13.969344316198303"><ele>375.0</ele><time>2026-03-25T09:49:40.001Z</time></trkpt><trkpt lat="37.40361493033521" lon="13.96921555796378"><ele>375.0</ele><time>2026-03-25T09:49:41.001Z</time></trkpt><trkpt lat="37.40370042897151" lon="13.969101495700503"><ele>375.0</ele><time>2026-03-25T09:49:42.001Z</time></trkpt><trkpt lat="37.40379129962511" lon="13.969010190516553"><ele>375.0</ele><time>2026-03-25T09:49:43.001Z</time></trkpt><trkpt lat="37.403893171254" lon="13.968953908695159"><ele>373.5</ele><time>2026-03-25T09:49:44.001Z</time></trkpt><trkpt lat="37.404007411029845" lon="13.968935866203733"><ele>372.0</ele><time>2026-03-25T09:49:45.001Z</time></trkpt><trkpt lat="37.40413436265362" lon="13.968956110184944"><ele>370.5</ele><time>2026-03-25T09:49:46.001Z</time></trkpt><trkpt lat="37.40426839844011" lon="13.969000082228867"><ele>369.0</ele><time>2026-03-25T09:49:47.001Z</time></trkpt><trkpt lat="37.40440085071864" lon="13.96904190730986"><ele>369.0</ele><time>2026-03-25T09:49:48.001Z</time></trkpt><trkpt lat="37.40452877256373" lon="13.969066479610364"><ele>369.0</ele><time>2026-03-25T09:49:49.001Z</time></trkpt><trkpt lat="37.40465211159155" lon="13.969057700217048"><ele>369.0</ele><time>2026-03-25T09:49:50.001Z</time></trkpt><trkpt lat="37.404768827602325" lon="13.969001551171395"><ele>369.0</ele><time>2026-03-25T09:49:51.001Z</time></trkpt><trkpt lat="37.40487730239539" lon="13.96890172434157"><ele>373.3333333333333</ele><time>2026-03-25T09:49:52.002Z</time></trkpt><trkpt lat="37.40496707623396" lon="13.968763320249984"><ele>377.66666666666663</ele><time>2026-03-25T09:49:53.002Z</time></trkpt><trkpt lat="37.40504823704135" lon="13.968597949984165"><ele>382.0</ele><time>2026-03-25T09:49:54.002Z</time></trkpt><trkpt lat="37.40513234967767" lon="13.968429513767004"><ele>380.0</ele><time>2026-03-25T09:49:55.002Z</time></trkpt><trkpt lat="37.405221710537624" lon="13.968267736039039"><ele>378.0</ele><time>2026-03-25T09:49:56.002Z</time></trkpt><trkpt lat="37.40531062906385" lon="13.968116102542426"><ele>376.0</ele><time>2026-03-25T09:49:57.002Z</time></trkpt><trkpt lat="37.40541502450794" lon="13.967984839407746"><ele>381.0</ele><time>2026-03-25T09:49:58.002Z</time></trkpt><trkpt lat="37.40554789049601" lon="13.96787475426018"><ele>386.0</ele><time>2026-03-25T09:49:59.002Z</time></trkpt><trkpt lat="37.40569558636132" lon="13.967770155843665"><ele>391.0</ele><time>2026-03-25T09:50:00.002Z</time></trkpt><trkpt lat="37.40584000651788" lon="13.96766812206755"><ele>391.0</ele><time>2026-03-25T09:50:01.002Z</time></trkpt><trkpt lat="37.405981471489774" lon="13.967580748412889"><ele>391.0</ele><time>2026-03-25T09:50:02.002Z</time></trkpt><trkpt lat="37.40613488210929" lon="13.967503186504539"><ele>391.0</ele><time>2026-03-25T09:50:03.002Z</time></trkpt><trkpt lat="37.406289893085265" lon="13.967433742273816"><ele>391.0</ele><time>2026-03-25T09:50:04.002Z</time></trkpt><trkpt lat="37.40644989192282" lon="13.967367074899657"><ele>391.0</ele><time>2026-03-25T09:50:05.002Z</time></trkpt><trkpt lat="37.40661437548314" lon="13.967306027325439"><ele>391.0</ele><time>2026-03-25T09:50:06.002Z</time></trkpt><trkpt lat="37.40678813885367" lon="13.967254065235089"><ele>391.0</ele><time>2026-03-25T09:50:07.002Z</time></trkpt><trkpt lat="37.406973722254094" lon="13.967210867809856"><ele>391.0</ele><time>2026-03-25T09:50:08.002Z</time></trkpt><trkpt lat="37.407162225608445" lon="13.967169816275925"><ele>391.0</ele><time>2026-03-25T09:50:09.002Z</time></trkpt><trkpt lat="37.40735087366137" lon="13.967129933201662"><ele>394.0</ele><time>2026-03-25T09:50:10.002Z</time></trkpt><trkpt lat="37.40753551030185" lon="13.967091527948906"><ele>397.0</ele><time>2026-03-25T09:50:11.002Z</time></trkpt><trkpt lat="37.40771670572688" lon="13.96705176316595"><ele>400.0</ele><time>2026-03-25T09:50:12.002Z</time></trkpt><trkpt lat="37.40789064602901" lon="13.967011132668556"><ele>400.6666666666667</ele><time>2026-03-25T09:50:13.002Z</time></trkpt><trkpt lat="37.4080542988044" lon="13.966977282265084"><ele>401.33333333333337</ele><time>2026-03-25T09:50:14Z</time></trkpt><trkpt lat="37.40820579125845" lon="13.966951023481528"><ele>402.0</ele><time>2026-03-25T09:50:15Z</time></trkpt><trkpt lat="37.40834927761734" lon="13.966940673433145"><ele>402.0</ele><time>2026-03-25T09:50:16Z</time></trkpt><trkpt lat="37.40848469933262" lon="13.966961690683728"><ele>402.0</ele><time>2026-03-25T09:50:17Z</time></trkpt><trkpt lat="37.40861391994687" lon="13.967019422713012"><ele>402.0</ele><time>2026-03-25T09:50:18Z</time></trkpt><trkpt lat="37.40873100192565" lon="13.96711595105067"><ele>402.0</ele><time>2026-03-25T09:50:19Z</time></trkpt><trkpt lat="37.40884698898491" lon="13.96723513395356"><ele>401.66666666666663</ele><time>2026-03-25T09:50:20Z</time></trkpt><trkpt lat="37.408960682110646" lon="13.967363838976407"><ele>401.3333333333333</ele><time>2026-03-25T09:50:21Z</time></trkpt><trkpt lat="37.409089421251174" lon="13.967467632643164"><ele>401.0</ele><time>2026-03-25T09:50:22Z</time></trkpt><trkpt lat="37.40923701479667" lon="13.967536206865544"><ele>401.0</ele><time>2026-03-25T09:50:23Z</time></trkpt><trkpt lat="37.409393026713836" lon="13.967576416145999"><ele>401.0</ele><time>2026-03-25T09:50:24Z</time></trkpt><trkpt lat="37.40954806444647" lon="13.967603284753414"><ele>401.0</ele><time>2026-03-25T09:50:25Z</time></trkpt><trkpt lat="37.409702980226825" lon="13.967629326580418"><ele>401.3333333333333</ele><time>2026-03-25T09:50:26Z</time></trkpt><trkpt lat="37.409857671816624" lon="13.967658873317458"><ele>401.66666666666663</ele><time>2026-03-25T09:50:27Z</time></trkpt><trkpt lat="37.410008050830655" lon="13.967688600667353"><ele>402.0</ele><time>2026-03-25T09:50:28Z</time></trkpt><trkpt lat="37.41015132165521" lon="13.967715980677003"><ele>402.0</ele><time>2026-03-25T09:50:29Z</time></trkpt><trkpt lat="37.41029316378534" lon="13.967742089544034"><ele>402.0</ele><time>2026-03-25T09:50:30Z</time></trkpt><trkpt lat="37.41042889224448" lon="13.967766186651843"><ele>402.0</ele><time>2026-03-25T09:50:31Z</time></trkpt><trkpt lat="37.41054637950902" lon="13.967793329529615"><ele>402.0</ele><time>2026-03-25T09:50:32Z</time></trkpt><trkpt lat="37.410668315182825" lon="13.967840929433113"><ele>401.5</ele><time>2026-03-25T09:50:33Z</time></trkpt><trkpt lat="37.410786399937514" lon="13.967922717175982"><ele>401.0</ele><time>2026-03-25T09:50:34Z</time></trkpt><trkpt lat="37.410897758089774" lon="13.968031409093259"><ele>400.5</ele><time>2026-03-25T09:50:35Z</time></trkpt><trkpt lat="37.41100467218945" lon="13.968170362896943"><ele>400.0</ele><time>2026-03-25T09:50:36Z</time></trkpt><trkpt lat="37.41111613136402" lon="13.968329708435004"><ele>400.0</ele><time>2026-03-25T09:50:37Z</time></trkpt><trkpt lat="37.41123213515466" lon="13.968483337626818"><ele>400.0</ele><time>2026-03-25T09:50:38Z</time></trkpt><trkpt lat="37.41135050533925" lon="13.968632183479915"><ele>400.0</ele><time>2026-03-25T09:50:39Z</time></trkpt><trkpt lat="37.411463433273184" lon="13.968774687507157"><ele>400.75</ele><time>2026-03-25T09:50:40Z</time></trkpt><trkpt lat="37.41157086444432" lon="13.968913408365147"><ele>401.5</ele><time>2026-03-25T09:50:41Z</time></trkpt><trkpt lat="37.41167387834818" lon="13.969045479834124"><ele>402.25</ele><time>2026-03-25T09:50:42Z</time></trkpt><trkpt lat="37.411767275733226" lon="13.96917825812099"><ele>403.0</ele><time>2026-03-25T09:50:43Z</time></trkpt><trkpt lat="37.411841782417085" lon="13.969321209140624"><ele>403.75</ele><time>2026-03-25T09:50:44Z</time></trkpt><trkpt lat="37.41189652269707" lon="13.969478830417536"><ele>404.5</ele><time>2026-03-25T09:50:45Z</time></trkpt><trkpt lat="37.41193365323579" lon="13.969653355188308"><ele>405.25</ele><time>2026-03-25T09:50:46Z</time></trkpt><trkpt lat="37.41195448302174" lon="13.969843591690733"><ele>406.0</ele><time>2026-03-25T09:50:47Z</time></trkpt><trkpt lat="37.41196633203912" lon="13.970044587887374"><ele>408.0</ele><time>2026-03-25T09:50:48Z</time></trkpt><trkpt lat="37.411980138652375" lon="13.970242852591873"><ele>410.0</ele><time>2026-03-25T09:50:49Z</time></trkpt><trkpt lat="37.411991923839416" lon="13.97043594635572"><ele>412.0</ele><time>2026-03-25T09:50:50Z</time></trkpt><trkpt lat="37.411990123391234" lon="13.970625662765457"><ele>412.0</ele><time>2026-03-25T09:50:51Z</time></trkpt><trkpt lat="37.41195646817163" lon="13.970807960753985"><ele>412.0</ele><time>2026-03-25T09:50:52Z</time></trkpt><trkpt lat="37.411866800057574" lon="13.970960600225787"><ele>412.0</ele><time>2026-03-25T09:50:53.001Z</time></trkpt><trkpt lat="37.41177308511566" lon="13.971113674077445"><ele>410.75</ele><time>2026-03-25T09:50:54.001Z</time></trkpt><trkpt lat="37.41166736718672" lon="13.9712603094108"><ele>409.5</ele><time>2026-03-25T09:50:55.001Z</time></trkpt><trkpt lat="37.41155882252983" lon="13.971378895491984"><ele>408.25</ele><time>2026-03-25T09:50:56.001Z</time></trkpt><trkpt lat="37.41143997353527" lon="13.971478910465558"><ele>407.0</ele><time>2026-03-25T09:50:57.001Z</time></trkpt><trkpt lat="37.41131036960825" lon="13.97157622707838"><ele>407.0</ele><time>2026-03-25T09:50:58.001Z</time></trkpt><trkpt lat="37.41121611141559" lon="13.971676925058318"><ele>407.0</ele><time>2026-03-25T09:50:59.001Z</time></trkpt><trkpt lat="37.4111367332304" lon="13.971766765645256"><ele>407.0</ele><time>2026-03-25T09:51:00.001Z</time></trkpt><trkpt lat="37.41109805839282" lon="13.971892737177694"><ele>407.0</ele><time>2026-03-25T09:51:01.001Z</time></trkpt><trkpt lat="37.41112035252377" lon="13.972020237301505"><ele>407.0</ele><time>2026-03-25T09:51:02.001Z</time></trkpt><trkpt lat="37.411196897513726" lon="13.972108442825729"><ele>408.75</ele><time>2026-03-25T09:51:03.001Z</time></trkpt><trkpt lat="37.41130311841773" lon="13.972134015065272"><ele>410.5</ele><time>2026-03-25T09:51:04.001Z</time></trkpt><trkpt lat="37.41141722246969" lon="13.972091050483296"><ele>412.25</ele><time>2026-03-25T09:51:05.001Z</time></trkpt><trkpt lat="37.41151464902457" lon="13.972001946481958"><ele>414.0</ele><time>2026-03-25T09:51:06.001Z</time></trkpt><trkpt lat="37.411610661014336" lon="13.971892141063238"><ele>416.0</ele><time>2026-03-25T09:51:07.001Z</time></trkpt><trkpt lat="37.41172367347764" lon="13.971797619224622"><ele>418.0</ele><time>2026-03-25T09:51:08.001Z</time></trkpt><trkpt lat="37.41184468910614" lon="13.971716406465152"><ele>420.0</ele><time>2026-03-25T09:51:09.001Z</time></trkpt><trkpt lat="37.41197154543218" lon="13.97165972663458"><ele>422.0</ele><time>2026-03-25T09:51:10.001Z</time></trkpt><trkpt lat="37.41208657928528" lon="13.971629488219147"><ele>424.0</ele><time>2026-03-25T09:51:11.001Z</time></trkpt><trkpt lat="37.41220014776363" lon="13.971614779604167"><ele>426.0</ele><time>2026-03-25T09:51:12.001Z</time></trkpt><trkpt lat="37.41232454975249" lon="13.971617707589578"><ele>428.0</ele><time>2026-03-25T09:51:13.001Z</time></trkpt><trkpt lat="37.412450743416386" lon="13.971642411113468"><ele>430.0</ele><time>2026-03-25T09:51:14.001Z</time></trkpt><trkpt lat="37.41258592702621" lon="13.971688259296492"><ele>429.0</ele><time>2026-03-25T09:51:15.001Z</time></trkpt><trkpt lat="37.41273111586258" lon="13.971733875487287"><ele>428.0</ele><time>2026-03-25T09:51:16.001Z</time></trkpt><trkpt lat="37.41288335345491" lon="13.971767852367796"><ele>427.0</ele><time>2026-03-25T09:51:17.001Z</time></trkpt><trkpt lat="37.4130418128813" lon="13.97179523574959"><ele>427.0</ele><time>2026-03-25T09:51:18.001Z</time></trkpt><trkpt lat="37.413202927143445" lon="13.971823113870483"><ele>427.0</ele><time>2026-03-25T09:51:19.001Z</time></trkpt><trkpt lat="37.413355698465146" lon="13.971848501199434"><ele>427.0</ele><time>2026-03-25T09:51:20.001Z</time></trkpt><trkpt lat="37.4135054374512" lon="13.971874746178612"><ele>427.0</ele><time>2026-03-25T09:51:21.001Z</time></trkpt><trkpt lat="37.41365856467137" lon="13.971893540889017"><ele>427.0</ele><time>2026-03-25T09:51:22.001Z</time></trkpt><trkpt lat="37.41381194471787" lon="13.9718960806881"><ele>427.0</ele><time>2026-03-25T09:51:23.001Z</time></trkpt><trkpt lat="37.41396403088592" lon="13.971886003381686"><ele>424.0</ele><time>2026-03-25T09:51:24.001Z</time></trkpt><trkpt lat="37.41411843157339" lon="13.971874536849816"><ele>421.0</ele><time>2026-03-25T09:51:25.001Z</time></trkpt><trkpt lat="37.41427378013052" lon="13.9718632660554"><ele>418.0</ele><time>2026-03-25T09:51:26.001Z</time></trkpt><trkpt lat="37.41442929358197" lon="13.971852880525676"><ele>418.0</ele><time>2026-03-25T09:51:27.001Z</time></trkpt><trkpt lat="37.414582646494985" lon="13.971850681710935"><ele>418.0</ele><time>2026-03-25T09:51:28.001Z</time></trkpt><trkpt lat="37.414729428320484" lon="13.971863745231007"><ele>418.0</ele><time>2026-03-25T09:51:29.001Z</time></trkpt><trkpt lat="37.41487782227459" lon="13.971904379810137"><ele>417.6666666666667</ele><time>2026-03-25T09:51:30.001Z</time></trkpt><trkpt lat="37.41502992618974" lon="13.971973730331946"><ele>417.33333333333337</ele><time>2026-03-25T09:51:31.001Z</time></trkpt><trkpt lat="37.41518006129364" lon="13.972058692197745"><ele>417.0</ele><time>2026-03-25T09:51:32.001Z</time></trkpt><trkpt lat="37.415329464278905" lon="13.972145395245057"><ele>417.0</ele><time>2026-03-25T09:51:33.001Z</time></trkpt><trkpt lat="37.415479673681745" lon="13.972229455912188"><ele>417.0</ele><time>2026-03-25T09:51:34.001Z</time></trkpt><trkpt lat="37.41562862213255" lon="13.972307177590203"><ele>417.0</ele><time>2026-03-25T09:51:35.001Z</time></trkpt><trkpt lat="37.415776095014365" lon="13.972377943841707"><ele>417.25</ele><time>2026-03-25T09:51:36.001Z</time></trkpt><trkpt lat="37.41591552101579" lon="13.97243996069638"><ele>417.5</ele><time>2026-03-25T09:51:37.001Z</time></trkpt><trkpt lat="37.416059214196935" lon="13.972482919456912"><ele>417.75</ele><time>2026-03-25T09:51:38.001Z</time></trkpt><trkpt lat="37.41621016077543" lon="13.972511308429434"><ele>418.0</ele><time>2026-03-25T09:51:39.001Z</time></trkpt><trkpt lat="37.41636610991162" lon="13.972524562965358"><ele>418.0</ele><time>2026-03-25T09:51:40.001Z</time></trkpt><trkpt lat="37.41652646691739" lon="13.972523197324536"><ele>418.0</ele><time>2026-03-25T09:51:41.001Z</time></trkpt><trkpt lat="37.41669375658706" lon="13.972519771717078"><ele>418.0</ele><time>2026-03-25T09:51:42.001Z</time></trkpt><trkpt lat="37.41687568566848" lon="13.972527811859477"><ele>418.0</ele><time>2026-03-25T09:51:43.001Z</time></trkpt><trkpt lat="37.41705074553517" lon="13.97254843429236"><ele>418.0</ele><time>2026-03-25T09:51:44.002Z</time></trkpt><trkpt lat="37.41721492996986" lon="13.972584170345012"><ele>418.0</ele><time>2026-03-25T09:51:45.002Z</time></trkpt><trkpt lat="37.4173620180331" lon="13.97262780158168"><ele>418.5</ele><time>2026-03-25T09:51:46.002Z</time></trkpt><trkpt lat="37.41749854669417" lon="13.9726694844091"><ele>419.0</ele><time>2026-03-25T09:51:47.002Z</time></trkpt><trkpt lat="37.4176253846722" lon="13.97270440275637"><ele>419.5</ele><time>2026-03-25T09:51:48.002Z</time></trkpt><trkpt lat="37.41774402908178" lon="13.972737334769594"><ele>420.0</ele><time>2026-03-25T09:51:49.002Z</time></trkpt><trkpt lat="37.41786975540121" lon="13.972775315394342"><ele>420.5</ele><time>2026-03-25T09:51:50.002Z</time></trkpt><trkpt lat="37.418008483790885" lon="13.972816879008505"><ele>421.0</ele><time>2026-03-25T09:51:51.002Z</time></trkpt><trkpt lat="37.41814962126224" lon="13.972872110083134"><ele>421.5</ele><time>2026-03-25T09:51:52.002Z</time></trkpt><trkpt lat="37.41828917263327" lon="13.972945080547058"><ele>422.0</ele><time>2026-03-25T09:51:53.002Z</time></trkpt><trkpt lat="37.418430766989026" lon="13.97302485443514"><ele>422.0</ele><time>2026-03-25T09:51:54.002Z</time></trkpt><trkpt lat="37.41857715685976" lon="13.973103452641599"><ele>422.0</ele><time>2026-03-25T09:51:55.002Z</time></trkpt><trkpt lat="37.418727465212235" lon="13.97318465433523"><ele>422.0</ele><time>2026-03-25T09:51:56.002Z</time></trkpt><trkpt lat="37.41887282516409" lon="13.973266114942966"><ele>421.66666666666663</ele><time>2026-03-25T09:51:57.002Z</time></trkpt><trkpt lat="37.41901258512547" lon="13.97333307087818"><ele>421.33333333333337</ele><time>2026-03-25T09:51:58.002Z</time></trkpt><trkpt lat="37.41916018945071" lon="13.973380363032394"><ele>421.0</ele><time>2026-03-25T09:51:59.002Z</time></trkpt><trkpt lat="37.419311817324704" lon="13.97340482728861"><ele>421.0</ele><time>2026-03-25T09:52:00.002Z</time></trkpt><trkpt lat="37.419467405536025" lon="13.973409494171317"><ele>421.0</ele><time>2026-03-25T09:52:01.002Z</time></trkpt><trkpt lat="37.419624399988614" lon="13.973413164395225"><ele>421.0</ele><time>2026-03-25T09:52:02.002Z</time></trkpt><trkpt lat="37.41978181846886" lon="13.97341957102563"><ele>419.33333333333337</ele><time>2026-03-25T09:52:03.002Z</time></trkpt><trkpt lat="37.41993938567325" lon="13.973426129342679"><ele>417.66666666666663</ele><time>2026-03-25T09:52:04.002Z</time></trkpt><trkpt lat="37.42009687515318" lon="13.973436937238638"><ele>416.0</ele><time>2026-03-25T09:52:05.002Z</time></trkpt><trkpt lat="37.420252543244224" lon="13.973449310948375"><ele>416.0</ele><time>2026-03-25T09:52:06.002Z</time></trkpt><trkpt lat="37.42040618246086" lon="13.973458585597056"><ele>416.0</ele><time>2026-03-25T09:52:07.002Z</time></trkpt><trkpt lat="37.420559871169765" lon="13.973468839246882"><ele>416.0</ele><time>2026-03-25T09:52:08.002Z</time></trkpt><trkpt lat="37.42070970514939" lon="13.973481202574675"><ele>416.75</ele><time>2026-03-25T09:52:09.002Z</time></trkpt><trkpt lat="37.42085491759817" lon="13.97349312547475"><ele>417.5</ele><time>2026-03-25T09:52:10.002Z</time></trkpt><trkpt lat="37.42099612462428" lon="13.973501514717723"><ele>418.25</ele><time>2026-03-25T09:52:11.002Z</time></trkpt><trkpt lat="37.421133388262305" lon="13.973506769571324"><ele>419.0</ele><time>2026-03-25T09:52:12.002Z</time></trkpt><trkpt lat="37.421270937318724" lon="13.973519471318392"><ele>419.25</ele><time>2026-03-25T09:52:13.002Z</time></trkpt><trkpt lat="37.42141052020735" lon="13.973544445615875"><ele>419.5</ele><time>2026-03-25T09:52:14.002Z</time></trkpt><trkpt lat="37.42155026830845" lon="13.97358697136446"><ele>419.75</ele><time>2026-03-25T09:52:15.002Z</time></trkpt><trkpt lat="37.421690221476545" lon="13.973648071531196"><ele>420.0</ele><time>2026-03-25T09:52:16.002Z</time></trkpt><trkpt lat="37.42183395881613" lon="13.973723901889045"><ele>420.0</ele><time>2026-03-25T09:52:17.002Z</time></trkpt><trkpt lat="37.42198451845511" lon="13.973806496792868"><ele>420.0</ele><time>2026-03-25T09:52:18.002Z</time></trkpt><trkpt lat="37.422140113458845" lon="13.97389012381282"><ele>420.0</ele><time>2026-03-25T09:52:19.002Z</time></trkpt><trkpt lat="37.422297269732425" lon="13.973975600004438"><ele>419.33333333333337</ele><time>2026-03-25T09:52:20Z</time></trkpt><trkpt lat="37.422458277011465" lon="13.974063785149148"><ele>418.6666666666667</ele><time>2026-03-25T09:52:21Z</time></trkpt><trkpt lat="37.422622973539895" lon="13.974153173633928"><ele>418.0</ele><time>2026-03-25T09:52:22Z</time></trkpt><trkpt lat="37.42278815389522" lon="13.974241474716878"><ele>417.0</ele><time>2026-03-25T09:52:23Z</time></trkpt><trkpt lat="37.42295619816869" lon="13.974332606189895"><ele>416.0</ele><time>2026-03-25T09:52:24Z</time></trkpt><trkpt lat="37.423126048979874" lon="13.974425574605693"><ele>415.0</ele><time>2026-03-25T09:52:25Z</time></trkpt><trkpt lat="37.42329385471248" lon="13.974523193244327"><ele>415.0</ele><time>2026-03-25T09:52:26Z</time></trkpt><trkpt lat="37.4234610443194" lon="13.974623430507704"><ele>415.0</ele><time>2026-03-25T09:52:27Z</time></trkpt><trkpt lat="37.42362698227083" lon="13.974728277908921"><ele>415.0</ele><time>2026-03-25T09:52:28Z</time></trkpt><trkpt lat="37.423791248758896" lon="13.974836737779956"><ele>414.6666666666667</ele><time>2026-03-25T09:52:29Z</time></trkpt><trkpt lat="37.42395245589416" lon="13.974948355633929"><ele>414.33333333333337</ele><time>2026-03-25T09:52:30Z</time></trkpt><trkpt lat="37.42411441603431" lon="13.975057500616538"><ele>414.0</ele><time>2026-03-25T09:52:31Z</time></trkpt><trkpt lat="37.42427611983998" lon="13.975163736738654"><ele>414.0</ele><time>2026-03-25T09:52:32Z</time></trkpt><trkpt lat="37.42443774711019" lon="13.975271538132214"><ele>414.0</ele><time>2026-03-25T09:52:33Z</time></trkpt><trkpt lat="37.424598023351145" lon="13.975382037485806"><ele>414.0</ele><time>2026-03-25T09:52:34Z</time></trkpt><trkpt lat="37.424759289037695" lon="13.975494682424298"><ele>415.33333333333337</ele><time>2026-03-25T09:52:35Z</time></trkpt><trkpt lat="37.424917780747755" lon="13.975609316405746"><ele>416.6666666666667</ele><time>2026-03-25T09:52:36Z</time></trkpt><trkpt lat="37.42507430091736" lon="13.975729482034062"><ele>418.0</ele><time>2026-03-25T09:52:37Z</time></trkpt><trkpt lat="37.4252286079282" lon="13.975852189797315"><ele>418.6666666666667</ele><time>2026-03-25T09:52:38Z</time></trkpt><trkpt lat="37.425382285035376" lon="13.975978141122463"><ele>419.33333333333337</ele><time>2026-03-25T09:52:39Z</time></trkpt><trkpt lat="37.42553498094505" lon="13.976103982252821"><ele>420.0</ele><time>2026-03-25T09:52:40Z</time></trkpt><trkpt lat="37.425686902692135" lon="13.97622859855698"><ele>420.66666666666663</ele><time>2026-03-25T09:52:41Z</time></trkpt><trkpt lat="37.425839793073436" lon="13.976350684613028"><ele>421.3333333333333</ele><time>2026-03-25T09:52:42Z</time></trkpt><trkpt lat="37.4259940844011" lon="13.976467496950008"><ele>422.0</ele><time>2026-03-25T09:52:43Z</time></trkpt><trkpt lat="37.42615133230711" lon="13.976571508442062"><ele>423.66666666666663</ele><time>2026-03-25T09:52:44Z</time></trkpt><trkpt lat="37.42631274212577" lon="13.976660546462114"><ele>425.33333333333337</ele><time>2026-03-25T09:52:45Z</time></trkpt><trkpt lat="37.42647326125892" lon="13.976743708936617"><ele>427.0</ele><time>2026-03-25T09:52:46Z</time></trkpt><trkpt lat="37.4266325512099" lon="13.976828937862372"><ele>427.6666666666667</ele><time>2026-03-25T09:52:47Z</time></trkpt><trkpt lat="37.42678928039206" lon="13.97691012318535"><ele>428.33333333333337</ele><time>2026-03-25T09:52:48Z</time></trkpt><trkpt lat="37.42694678479906" lon="13.97698603485212"><ele>429.0</ele><time>2026-03-25T09:52:49Z</time></trkpt><trkpt lat="37.42709917990404" lon="13.977057656192784"><ele>430.25</ele><time>2026-03-25T09:52:50Z</time></trkpt><trkpt lat="37.42724266755464" lon="13.977124212046393"><ele>431.5</ele><time>2026-03-25T09:52:51Z</time></trkpt><trkpt lat="37.42737081727297" lon="13.97718287718905"><ele>432.75</ele><time>2026-03-25T09:52:52Z</time></trkpt><trkpt lat="37.42748641412856" lon="13.977232946414954"><ele>434.0</ele><time>2026-03-25T09:52:53Z</time></trkpt><trkpt lat="37.42759038904426" lon="13.97727465881341"><ele>433.99999999999994</ele><time>2026-03-25T09:52:54Z</time></trkpt><trkpt lat="37.42767816474053" lon="13.977305201294906"><ele>434.0</ele><time>2026-03-25T09:52:55Z</time></trkpt><trkpt lat="37.42776162895789" lon="13.97732886284909"><ele>434.0</ele><time>2026-03-25T09:52:56Z</time></trkpt><trkpt lat="37.42783620603645" lon="13.977345576381712"><ele>434.0</ele><time>2026-03-25T09:52:57.001Z</time></trkpt><trkpt lat="37.42790001486399" lon="13.977357338219003"><ele>433.99999999999994</ele><time>2026-03-25T09:52:58.001Z</time></trkpt><trkpt lat="37.42800950807342" lon="13.977376286650077"><ele>434.0</ele><time>2026-03-25T09:53:00.001Z</time></trkpt><trkpt lat="37.42813670298688" lon="13.977405367885515"><ele>434.16666666666663</ele><time>2026-03-25T09:53:02.001Z</time></trkpt><trkpt lat="37.42820283262087" lon="13.977426896628401"><ele>434.3333333333333</ele><time>2026-03-25T09:53:03.001Z</time></trkpt><trkpt lat="37.428319655602415" lon="13.977478263101931"><ele>434.5</ele><time>2026-03-25T09:53:05.001Z</time></trkpt><trkpt lat="37.428384564345414" lon="13.977512709757702"><ele>434.66666666666663</ele><time>2026-03-25T09:53:06.001Z</time></trkpt><trkpt lat="37.42844487893059" lon="13.977548967301308"><ele>434.8333333333333</ele><time>2026-03-25T09:53:07.001Z</time></trkpt><trkpt lat="37.42850307678097" lon="13.977587574699054"><ele>435.0</ele><time>2026-03-25T09:53:08.001Z</time></trkpt><trkpt lat="37.42856975388834" lon="13.977628598826671"><ele>436.5</ele><time>2026-03-25T09:53:09.001Z</time></trkpt><trkpt lat="37.428661968580734" lon="13.977680428453803"><ele>438.0</ele><time>2026-03-25T09:53:10.001Z</time></trkpt><trkpt lat="37.42877157988499" lon="13.977764303757825"><ele>439.5</ele><time>2026-03-25T09:53:11.001Z</time></trkpt><trkpt lat="37.428897064752405" lon="13.977845383023796"><ele>441.0</ele><time>2026-03-25T09:53:12.001Z</time></trkpt><trkpt lat="37.42902287906282" lon="13.977923668933292"><ele>437.0</ele><time>2026-03-25T09:53:13.001Z</time></trkpt><trkpt lat="37.4291531158027" lon="13.97798215927819"><ele>433.0</ele><time>2026-03-25T09:53:14.001Z</time></trkpt><trkpt lat="37.429282944589126" lon="13.978062158474666"><ele>429.0</ele><time>2026-03-25T09:53:15.001Z</time></trkpt><trkpt lat="37.429407898146145" lon="13.978142066702542"><ele>425.0</ele><time>2026-03-25T09:53:16.001Z</time></trkpt><trkpt lat="37.42952342261108" lon="13.978222760548778"><ele>425.0</ele><time>2026-03-25T09:53:17.001Z</time></trkpt><trkpt lat="37.42962831885484" lon="13.978298413110165"><ele>425.0</ele><time>2026-03-25T09:53:18.001Z</time></trkpt><trkpt lat="37.42972065878666" lon="13.978368305858211"><ele>425.0</ele><time>2026-03-25T09:53:19.001Z</time></trkpt><trkpt lat="37.429797352784576" lon="13.97842578353107"><ele>425.0</ele><time>2026-03-25T09:53:20.001Z</time></trkpt><trkpt lat="37.42986533029053" lon="13.978476414357802"><ele>425.0</ele><time>2026-03-25T09:53:21.001Z</time></trkpt><trkpt lat="37.4299232760506" lon="13.978524191971294"><ele>422.6</ele><time>2026-03-25T09:53:22.001Z</time></trkpt><trkpt lat="37.42997622556655" lon="13.978573639891868"><ele>420.2</ele><time>2026-03-25T09:53:23.001Z</time></trkpt><trkpt lat="37.43007867619501" lon="13.978669677473587"><ele>417.79999999999995</ele><time>2026-03-25T09:53:25.001Z</time></trkpt><trkpt lat="37.43013572007056" lon="13.978720703849268"><ele>415.4</ele><time>2026-03-25T09:53:26.001Z</time></trkpt><trkpt lat="37.430232076098875" lon="13.97881219422347"><ele>413.0</ele><time>2026-03-25T09:53:28.001Z</time></trkpt><trkpt lat="37.4303222510004" lon="13.978901343132755"><ele>412.99999999999994</ele><time>2026-03-25T09:53:30.001Z</time></trkpt><trkpt lat="37.430414354660726" lon="13.979003241981092"><ele>413.0</ele><time>2026-03-25T09:53:32.001Z</time></trkpt><trkpt lat="37.430457153954336" lon="13.979066627286084"><ele>413.0</ele><time>2026-03-25T09:53:33.001Z</time></trkpt><trkpt lat="37.430499599732066" lon="13.97913577851951"><ele>413.0</ele><time>2026-03-25T09:53:34.001Z</time></trkpt><trkpt lat="37.43054080327512" lon="13.979209287104043"><ele>412.99999999999994</ele><time>2026-03-25T09:53:35.001Z</time></trkpt><trkpt lat="37.43058424412271" lon="13.979284803156636"><ele>413.0</ele><time>2026-03-25T09:53:36.001Z</time></trkpt><trkpt lat="37.430629096624806" lon="13.979360457486644"><ele>413.0</ele><time>2026-03-25T09:53:37.001Z</time></trkpt><trkpt lat="37.43067599740863" lon="13.979434396173064"><ele>413.0</ele><time>2026-03-25T09:53:38.001Z</time></trkpt><trkpt lat="37.430721669128545" lon="13.979505117191168"><ele>413.0</ele><time>2026-03-25T09:53:39.001Z</time></trkpt><trkpt lat="37.43079116872282" lon="13.979618442487205"><ele>413.0</ele><time>2026-03-25T09:53:41.001Z</time></trkpt><trkpt lat="37.430854433132765" lon="13.97972510336686"><ele>413.0</ele><time>2026-03-25T09:53:43.001Z</time></trkpt><trkpt lat="37.43091580923763" lon="13.979818052375492"><ele>413.0</ele><time>2026-03-25T09:53:45.002Z</time></trkpt><trkpt lat="37.43098566210495" lon="13.979899164561282"><ele>413.0</ele><time>2026-03-25T09:53:47.002Z</time></trkpt><trkpt lat="37.43104580175718" lon="13.979968932660046"><ele>413.0</ele><time>2026-03-25T09:53:48.002Z</time></trkpt><trkpt lat="37.43112962504534" lon="13.980050903598045"><ele>413.0</ele><time>2026-03-25T09:53:49.002Z</time></trkpt><trkpt lat="37.4312256159976" lon="13.980110751339014"><ele>413.0</ele><time>2026-03-25T09:53:50.002Z</time></trkpt><trkpt lat="37.4313353580797" lon="13.980156107403422"><ele>410.75</ele><time>2026-03-25T09:53:51.002Z</time></trkpt><trkpt lat="37.43146057982752" lon="13.980183046089289"><ele>408.5</ele><time>2026-03-25T09:53:52.002Z</time></trkpt><trkpt lat="37.43159986559428" lon="13.98019571359849"><ele>406.25</ele><time>2026-03-25T09:53:53.002Z</time></trkpt><trkpt lat="37.43174860995237" lon="13.98020046565306"><ele>404.0</ele><time>2026-03-25T09:53:54.002Z</time></trkpt><trkpt lat="37.431896656060914" lon="13.980203306318028"><ele>404.0</ele><time>2026-03-25T09:53:55.002Z</time></trkpt><trkpt lat="37.432040819898354" lon="13.980208983714215"><ele>404.0</ele><time>2026-03-25T09:53:56.002Z</time></trkpt><trkpt lat="37.43218080054064" lon="13.98021299428872"><ele>404.0</ele><time>2026-03-25T09:53:57.002Z</time></trkpt><trkpt lat="37.4323154419257" lon="13.980215761756329"><ele>404.0</ele><time>2026-03-25T09:53:58.002Z</time></trkpt><trkpt lat="37.43244967527822" lon="13.980233806029373"><ele>404.25</ele><time>2026-03-25T09:53:59.002Z</time></trkpt><trkpt lat="37.432583487503784" lon="13.980272784716899"><ele>404.5</ele><time>2026-03-25T09:54:00.002Z</time></trkpt><trkpt lat="37.432712690297215" lon="13.980335197237464"><ele>404.75</ele><time>2026-03-25T09:54:01.002Z</time></trkpt><trkpt lat="37.432831943214744" lon="13.980433021994807"><ele>405.0</ele><time>2026-03-25T09:54:02.002Z</time></trkpt><trkpt lat="37.432938348077535" lon="13.98053431787366"><ele>405.0</ele><time>2026-03-25T09:54:03.002Z</time></trkpt><trkpt lat="37.43302835300838" lon="13.980631840073672"><ele>405.0</ele><time>2026-03-25T09:54:04.002Z</time></trkpt><trkpt lat="37.43310103870204" lon="13.980753483027138"><ele>405.0</ele><time>2026-03-25T09:54:05.002Z</time></trkpt><trkpt lat="37.43313556868387" lon="13.980879608349907"><ele>405.0</ele><time>2026-03-25T09:54:06.002Z</time></trkpt><trkpt lat="37.43313160983865" lon="13.981013717027976"><ele>405.5</ele><time>2026-03-25T09:54:07.002Z</time></trkpt><trkpt lat="37.43305451858004" lon="13.98114662323138"><ele>406.0</ele><time>2026-03-25T09:54:08.002Z</time></trkpt><trkpt lat="37.433003732609905" lon="13.981314921465177"><ele>406.5</ele><time>2026-03-25T09:54:09.002Z</time></trkpt><trkpt lat="37.432932478851356" lon="13.981485874797603"><ele>407.0</ele><time>2026-03-25T09:54:10.002Z</time></trkpt><trkpt lat="37.432861398319304" lon="13.981659221428604"><ele>404.66666666666663</ele><time>2026-03-25T09:54:11.002Z</time></trkpt><trkpt lat="37.43279401455095" lon="13.981835075646458"><ele>402.33333333333337</ele><time>2026-03-25T09:54:12.002Z</time></trkpt><trkpt lat="37.43273303241811" lon="13.982010852011356"><ele>400.0</ele><time>2026-03-25T09:54:13.002Z</time></trkpt><trkpt lat="37.43266414787002" lon="13.982184380197047"><ele>400.0</ele><time>2026-03-25T09:54:14.002Z</time></trkpt><trkpt lat="37.43263742460268" lon="13.982384934679269"><ele>400.0</ele><time>2026-03-25T09:54:15.002Z</time></trkpt><trkpt lat="37.43259438218615" lon="13.982580677511493"><ele>400.0</ele><time>2026-03-25T09:54:16.002Z</time></trkpt><trkpt lat="37.432553871357214" lon="13.982773472436152"><ele>399.0</ele><time>2026-03-25T09:54:17.002Z</time></trkpt><trkpt lat="37.43251953601423" lon="13.982955368255018"><ele>398.0</ele><time>2026-03-25T09:54:18.002Z</time></trkpt><trkpt lat="37.43249807434331" lon="13.983128883892753"><ele>397.0</ele><time>2026-03-25T09:54:19.002Z</time></trkpt><trkpt lat="37.4324933042673" lon="13.983295913361202"><ele>396.0</ele><time>2026-03-25T09:54:20.002Z</time></trkpt><trkpt lat="37.432505326155606" lon="13.983457794822563"><ele>393.5</ele><time>2026-03-25T09:54:21.002Z</time></trkpt><trkpt lat="37.43255445475175" lon="13.983611163271775"><ele>391.0</ele><time>2026-03-25T09:54:22.002Z</time></trkpt><trkpt lat="37.432634765005865" lon="13.98375329867641"><ele>388.5</ele><time>2026-03-25T09:54:23.002Z</time></trkpt><trkpt lat="37.432743516419094" lon="13.983866329178035"><ele>386.0</ele><time>2026-03-25T09:54:24.002Z</time></trkpt><trkpt lat="37.43287083620748" lon="13.983936255257392"><ele>386.5</ele><time>2026-03-25T09:54:25.002Z</time></trkpt><trkpt lat="37.43299223842607" lon="13.983986950228374"><ele>387.0</ele><time>2026-03-25T09:54:26Z</time></trkpt><trkpt lat="37.43309129595912" lon="13.984068182492955"><ele>387.5</ele><time>2026-03-25T09:54:27Z</time></trkpt><trkpt lat="37.43315630204977" lon="13.984191995188878"><ele>388.0</ele><time>2026-03-25T09:54:28Z</time></trkpt><trkpt lat="37.4331854012023" lon="13.984349015560136"><ele>388.0</ele><time>2026-03-25T09:54:29Z</time></trkpt><trkpt lat="37.43316190425453" lon="13.984525063389174"><ele>388.0</ele><time>2026-03-25T09:54:30Z</time></trkpt><trkpt lat="37.43313886313494" lon="13.98471324224223"><ele>388.0</ele><time>2026-03-25T09:54:31Z</time></trkpt><trkpt lat="37.43311253074345" lon="13.984884192091181"><ele>388.0</ele><time>2026-03-25T09:54:32Z</time></trkpt><trkpt lat="37.43306921751067" lon="13.985039197204038"><ele>387.75</ele><time>2026-03-25T09:54:33Z</time></trkpt><trkpt lat="37.43299703639282" lon="13.985170230827357"><ele>387.5</ele><time>2026-03-25T09:54:34Z</time></trkpt><trkpt lat="37.432886909267744" lon="13.985284378576392"><ele>387.25</ele><time>2026-03-25T09:54:35Z</time></trkpt><trkpt lat="37.432760497254755" lon="13.98541086941402"><ele>387.0</ele><time>2026-03-25T09:54:36Z</time></trkpt><trkpt lat="37.43263869306579" lon="13.985521503651487"><ele>385.75</ele><time>2026-03-25T09:54:37Z</time></trkpt><trkpt lat="37.43254111575789" lon="13.985656651982186"><ele>384.5</ele><time>2026-03-25T09:54:38Z</time></trkpt><trkpt lat="37.432440598598454" lon="13.985791802840849"><ele>383.25</ele><time>2026-03-25T09:54:39Z</time></trkpt><trkpt lat="37.43234543633813" lon="13.985936264602916"><ele>382.0</ele><time>2026-03-25T09:54:40Z</time></trkpt><trkpt lat="37.432257543114694" lon="13.986077621518008"><ele>382.0</ele><time>2026-03-25T09:54:41Z</time></trkpt><trkpt lat="37.432171376572136" lon="13.98621313843152"><ele>382.0</ele><time>2026-03-25T09:54:42Z</time></trkpt><trkpt lat="37.432089831112116" lon="13.98635550788179"><ele>382.0</ele><time>2026-03-25T09:54:43Z</time></trkpt><trkpt lat="37.43202017820554" lon="13.986523365197959"><ele>382.0</ele><time>2026-03-25T09:54:44Z</time></trkpt><trkpt lat="37.43197587059459" lon="13.98671897358592"><ele>376.66666666666663</ele><time>2026-03-25T09:54:45Z</time></trkpt><trkpt lat="37.43195488350865" lon="13.986916818764957"><ele>371.3333333333333</ele><time>2026-03-25T09:54:46Z</time></trkpt><trkpt lat="37.43195569412215" lon="13.987118410534732"><ele>366.0</ele><time>2026-03-25T09:54:47Z</time></trkpt><trkpt lat="37.43197846405824" lon="13.987319095606656"><ele>366.0</ele><time>2026-03-25T09:54:48Z</time></trkpt><trkpt lat="37.43202171911227" lon="13.987516245474177"><ele>366.0</ele><time>2026-03-25T09:54:49Z</time></trkpt><trkpt lat="37.43206879062916" lon="13.987702578865221"><ele>366.0</ele><time>2026-03-25T09:54:50Z</time></trkpt><trkpt lat="37.43210188006688" lon="13.987882667193372"><ele>366.0</ele><time>2026-03-25T09:54:51Z</time></trkpt><trkpt lat="37.432102202440014" lon="13.988069183203718"><ele>366.0</ele><time>2026-03-25T09:54:52Z</time></trkpt><trkpt lat="37.43205859484977" lon="13.988246423383343"><ele>366.0</ele><time>2026-03-25T09:54:53Z</time></trkpt><trkpt lat="37.432041408598785" lon="13.988414763777044"><ele>366.0</ele><time>2026-03-25T09:54:54Z</time></trkpt><trkpt lat="37.43203190263074" lon="13.988571728392175"><ele>366.5</ele><time>2026-03-25T09:54:55Z</time></trkpt><trkpt lat="37.43206610439994" lon="13.988723525116558"><ele>367.0</ele><time>2026-03-25T09:54:56Z</time></trkpt><trkpt lat="37.43213689145047" lon="13.988876804315794"><ele>367.5</ele><time>2026-03-25T09:54:57.001Z</time></trkpt><trkpt lat="37.43222783139138" lon="13.989035696173415"><ele>368.0</ele><time>2026-03-25T09:54:58.001Z</time></trkpt><trkpt lat="37.432317435463425" lon="13.98919813682338"><ele>366.5</ele><time>2026-03-25T09:54:59.001Z</time></trkpt><trkpt lat="37.432394317349655" lon="13.989350244834462"><ele>365.0</ele><time>2026-03-25T09:55:00.001Z</time></trkpt><trkpt lat="37.43246710991764" lon="13.98949213634772"><ele>363.5</ele><time>2026-03-25T09:55:01.001Z</time></trkpt><trkpt lat="37.432534821433514" lon="13.989629874501292"><ele>362.0</ele><time>2026-03-25T09:55:02.001Z</time></trkpt><trkpt lat="37.43258707760244" lon="13.989769817449433"><ele>362.0</ele><time>2026-03-25T09:55:03.001Z</time></trkpt><trkpt lat="37.432601200884925" lon="13.989913932738219"><ele>362.0</ele><time>2026-03-25T09:55:04.001Z</time></trkpt><trkpt lat="37.43255956842156" lon="13.990059843358685"><ele>362.0</ele><time>2026-03-25T09:55:05.001Z</time></trkpt><trkpt lat="37.43251071307012" lon="13.990218303493052"><ele>362.0</ele><time>2026-03-25T09:55:06.001Z</time></trkpt><trkpt lat="37.43247628720775" lon="13.990361584536405"><ele>360.40000000000003</ele><time>2026-03-25T09:55:07.001Z</time></trkpt><trkpt lat="37.43244274562133" lon="13.990474245352853"><ele>358.8</ele><time>2026-03-25T09:55:08.001Z</time></trkpt><trkpt lat="37.432438625290374" lon="13.990580474272898"><ele>357.2</ele><time>2026-03-25T09:55:09.001Z</time></trkpt><trkpt lat="37.43247817300914" lon="13.990675785530566"><ele>355.6</ele><time>2026-03-25T09:55:10.001Z</time></trkpt><trkpt lat="37.43255873395846" lon="13.990739839171852"><ele>354.0</ele><time>2026-03-25T09:55:11.001Z</time></trkpt><trkpt lat="37.43265825911598" lon="13.99075243585336"><ele>354.0</ele><time>2026-03-25T09:55:12.001Z</time></trkpt><trkpt lat="37.432752225093154" lon="13.990703553947906"><ele>354.0</ele><time>2026-03-25T09:55:13.001Z</time></trkpt><trkpt lat="37.43283244117541" lon="13.99060589039826"><ele>354.0</ele><time>2026-03-25T09:55:14.001Z</time></trkpt><trkpt lat="37.43290413453456" lon="13.990485215970871"><ele>354.0</ele><time>2026-03-25T09:55:15.001Z</time></trkpt><trkpt lat="37.432988701098786" lon="13.990381739472864"><ele>353.0</ele><time>2026-03-25T09:55:16.001Z</time></trkpt><trkpt lat="37.43308436998556" lon="13.990317764466289"><ele>352.0</ele><time>2026-03-25T09:55:17.001Z</time></trkpt><trkpt lat="37.433198475979395" lon="13.990293820304284"><ele>351.0</ele><time>2026-03-25T09:55:18.001Z</time></trkpt><trkpt lat="37.43332977774065" lon="13.990263697266906"><ele>350.0</ele><time>2026-03-25T09:55:19.001Z</time></trkpt><trkpt lat="37.43344917810243" lon="13.990226977446827"><ele>350.0</ele><time>2026-03-25T09:55:20.001Z</time></trkpt><trkpt lat="37.433564326240884" lon="13.990179846357186"><ele>350.0</ele><time>2026-03-25T09:55:21.001Z</time></trkpt><trkpt lat="37.4336741362678" lon="13.990133695015649"><ele>350.0</ele><time>2026-03-25T09:55:22.001Z</time></trkpt><trkpt lat="37.43377587937516" lon="13.990094586668052"><ele>350.0</ele><time>2026-03-25T09:55:23.001Z</time></trkpt><trkpt lat="37.43387435715254" lon="13.990090687005281"><ele>350.0</ele><time>2026-03-25T09:55:24.001Z</time></trkpt><trkpt lat="37.433963710223395" lon="13.990125856416679"><ele>349.2</ele><time>2026-03-25T09:55:25.001Z</time></trkpt><trkpt lat="37.434047075776114" lon="13.99020152494772"><ele>348.4</ele><time>2026-03-25T09:55:26.001Z</time></trkpt><trkpt lat="37.43412288754687" lon="13.990298384803909"><ele>347.6</ele><time>2026-03-25T09:55:27.001Z</time></trkpt><trkpt lat="37.434191297602574" lon="13.990406047035695"><ele>346.8</ele><time>2026-03-25T09:55:28.001Z</time></trkpt><trkpt lat="37.43424976111406" lon="13.990513120974944"><ele>346.0</ele><time>2026-03-25T09:55:29.001Z</time></trkpt><trkpt lat="37.43431660353266" lon="13.990620624332216"><ele>346.0</ele><time>2026-03-25T09:55:30.001Z</time></trkpt><trkpt lat="37.43438288793377" lon="13.990728982672268"><ele>346.0</ele><time>2026-03-25T09:55:31.001Z</time></trkpt><trkpt lat="37.43444809822162" lon="13.990835884144698"><ele>346.0</ele><time>2026-03-25T09:55:32.001Z</time></trkpt><trkpt lat="37.43450869637266" lon="13.990943275247949"><ele>346.0</ele><time>2026-03-25T09:55:33.001Z</time></trkpt><trkpt lat="37.4345387088935" lon="13.991060410478507"><ele>346.0</ele><time>2026-03-25T09:55:34.001Z</time></trkpt><trkpt lat="37.43450160993261" lon="13.991173968798341"><ele>347.0</ele><time>2026-03-25T09:55:35.001Z</time></trkpt><trkpt lat="37.43447122582687" lon="13.991297268847472"><ele>348.0</ele><time>2026-03-25T09:55:36.001Z</time></trkpt><trkpt lat="37.43439810981386" lon="13.99139000913374"><ele>349.0</ele><time>2026-03-25T09:55:37.001Z</time></trkpt><trkpt lat="37.43434016491855" lon="13.991487950538076"><ele>350.0</ele><time>2026-03-25T09:55:38.001Z</time></trkpt><trkpt lat="37.4342861803366" lon="13.991613345359703"><ele>351.0</ele><time>2026-03-25T09:55:39.001Z</time></trkpt><trkpt lat="37.43421243865662" lon="13.991727638938475"><ele>352.25</ele><time>2026-03-25T09:55:40.001Z</time></trkpt><trkpt lat="37.434145744452316" lon="13.991849024904523"><ele>353.5</ele><time>2026-03-25T09:55:41.001Z</time></trkpt><trkpt lat="37.434091127833724" lon="13.991979551770847"><ele>354.75</ele><time>2026-03-25T09:55:42.002Z</time></trkpt><trkpt lat="37.434048079733216" lon="13.992113404882772"><ele>356.0</ele><time>2026-03-25T09:55:43.002Z</time></trkpt><trkpt lat="37.43402626739491" lon="13.992275361083198"><ele>356.0</ele><time>2026-03-25T09:55:44.002Z</time></trkpt><trkpt lat="37.43402102777217" lon="13.992461893942874"><ele>356.0</ele><time>2026-03-25T09:55:45.002Z</time></trkpt><trkpt lat="37.43402423506063" lon="13.992647156873492"><ele>356.0</ele><time>2026-03-25T09:55:46.002Z</time></trkpt><trkpt lat="37.434009908834014" lon="13.9928009722227"><ele>356.0</ele><time>2026-03-25T09:55:47.002Z</time></trkpt><trkpt lat="37.43402017988731" lon="13.992938699805102"><ele>356.0</ele><time>2026-03-25T09:55:48.002Z</time></trkpt><trkpt lat="37.43399285995466" lon="13.993062321570497"><ele>356.0</ele><time>2026-03-25T09:55:49.002Z</time></trkpt><trkpt lat="37.43391887938431" lon="13.993163870040176"><ele>356.0</ele><time>2026-03-25T09:55:50.002Z</time></trkpt><trkpt lat="37.43383355905537" lon="13.993246100920999"><ele>356.0</ele><time>2026-03-25T09:55:51.002Z</time></trkpt><trkpt lat="37.433734879656726" lon="13.993332781303595"><ele>356.0</ele><time>2026-03-25T09:55:52.002Z</time></trkpt><trkpt lat="37.433638722187766" lon="13.993389734223342"><ele>356.0</ele><time>2026-03-25T09:55:53.002Z</time></trkpt><trkpt lat="37.433547336110855" lon="13.993398398365793"><ele>356.0</ele><time>2026-03-25T09:55:54.002Z</time></trkpt><trkpt lat="37.43346112191312" lon="13.99334199415967"><ele>356.0</ele><time>2026-03-25T09:55:55.002Z</time></trkpt><trkpt lat="37.43337089586251" lon="13.993242986852332"><ele>356.0</ele><time>2026-03-25T09:55:56.002Z</time></trkpt><trkpt lat="37.43325880099972" lon="13.993147685963342"><ele>356.0</ele><time>2026-03-25T09:55:57.002Z</time></trkpt><trkpt lat="37.43314991428139" lon="13.993058513337113"><ele>356.0</ele><time>2026-03-25T09:55:58.002Z</time></trkpt><trkpt lat="37.4330213998405" lon="13.993025241748164"><ele>356.0</ele><time>2026-03-25T09:55:59.002Z</time></trkpt><trkpt lat="37.43287033811947" lon="13.993045422680982"><ele>356.0</ele><time>2026-03-25T09:56:00.002Z</time></trkpt><trkpt lat="37.43273614386649" lon="13.993088526024664"><ele>356.0</ele><time>2026-03-25T09:56:01.002Z</time></trkpt><trkpt lat="37.432630776698566" lon="13.993158293236096"><ele>356.4</ele><time>2026-03-25T09:56:02.002Z</time></trkpt><trkpt lat="37.43254526451113" lon="13.993243409005876"><ele>356.8</ele><time>2026-03-25T09:56:03.002Z</time></trkpt><trkpt lat="37.43249658593839" lon="13.993367929599993"><ele>357.2</ele><time>2026-03-25T09:56:04.002Z</time></trkpt><trkpt lat="37.43250353155336" lon="13.993500042760507"><ele>357.59999999999997</ele><time>2026-03-25T09:56:05.002Z</time></trkpt><trkpt lat="37.43258011487137" lon="13.993598159277619"><ele>358.0</ele><time>2026-03-25T09:56:06.002Z</time></trkpt><trkpt lat="37.43268376383288" lon="13.99363617321975"><ele>360.0</ele><time>2026-03-25T09:56:07.002Z</time></trkpt><trkpt lat="37.432806607744595" lon="13.99365816412249"><ele>362.0</ele><time>2026-03-25T09:56:08.002Z</time></trkpt><trkpt lat="37.43292116083847" lon="13.993691927916425"><ele>364.0</ele><time>2026-03-25T09:56:09.002Z</time></trkpt><trkpt lat="37.433012774942895" lon="13.993782122447767"><ele>366.0</ele><time>2026-03-25T09:56:10.002Z</time></trkpt><trkpt lat="37.433086217650164" lon="13.993912045221858"><ele>366.0</ele><time>2026-03-25T09:56:11.002Z</time></trkpt><trkpt lat="37.433142874767015" lon="13.99408256936151"><ele>366.0</ele><time>2026-03-25T09:56:12.002Z</time></trkpt><trkpt lat="37.43318726381091" lon="13.994274427431638"><ele>366.0</ele><time>2026-03-25T09:56:13.002Z</time></trkpt><trkpt lat="37.433239804069764" lon="13.99447489030775"><ele>368.6666666666667</ele><time>2026-03-25T09:56:14.002Z</time></trkpt><trkpt lat="37.433303621859" lon="13.994670694751223"><ele>371.33333333333337</ele><time>2026-03-25T09:56:15.002Z</time></trkpt><trkpt lat="37.43336782851011" lon="13.994884775774333"><ele>374.0</ele><time>2026-03-25T09:56:16.002Z</time></trkpt><trkpt lat="37.43343501107424" lon="13.995107260960026"><ele>375.6666666666667</ele><time>2026-03-25T09:56:17.002Z</time></trkpt><trkpt lat="37.4335066956939" lon="13.995331224160964"><ele>377.3333333333333</ele><time>2026-03-25T09:56:18.002Z</time></trkpt><trkpt lat="37.43358695208315" lon="13.995558615099618"><ele>379.0</ele><time>2026-03-25T09:56:19.002Z</time></trkpt><trkpt lat="37.43366417810442" lon="13.995779047762882"><ele>380.3333333333333</ele><time>2026-03-25T09:56:20.002Z</time></trkpt><trkpt lat="37.4337434208871" lon="13.99599539979644"><ele>381.6666666666667</ele><time>2026-03-25T09:56:21.002Z</time></trkpt><trkpt lat="37.43381950619393" lon="13.996203062655837"><ele>383.0</ele><time>2026-03-25T09:56:22.001Z</time></trkpt><trkpt lat="37.43388861183034" lon="13.996400399251822"><ele>383.0</ele><time>2026-03-25T09:56:23.001Z</time></trkpt><trkpt lat="37.433952013941564" lon="13.996583009207638"><ele>383.0</ele><time>2026-03-25T09:56:24.001Z</time></trkpt><trkpt lat="37.43401305170559" lon="13.996754231535231"><ele>383.0</ele><time>2026-03-25T09:56:25.001Z</time></trkpt><trkpt lat="37.43407344589834" lon="13.99692023362904"><ele>385.25</ele><time>2026-03-25T09:56:26.001Z</time></trkpt><trkpt lat="37.434127647297906" lon="13.997085587069924"><ele>387.5</ele><time>2026-03-25T09:56:27.001Z</time></trkpt><trkpt lat="37.43418814361097" lon="13.997238077557494"><ele>389.75</ele><time>2026-03-25T09:56:28.001Z</time></trkpt><trkpt lat="37.434274252823236" lon="13.997375407740817"><ele>392.0</ele><time>2026-03-25T09:56:29.002Z</time></trkpt><trkpt lat="37.434382699924036" lon="13.997485513692592"><ele>393.5</ele><time>2026-03-25T09:56:30.002Z</time></trkpt><trkpt lat="37.43450754966544" lon="13.99756099933234"><ele>395.0</ele><time>2026-03-25T09:56:31.002Z</time></trkpt><trkpt lat="37.43464533608249" lon="13.997610181703964"><ele>396.5</ele><time>2026-03-25T09:56:31.999Z</time></trkpt><trkpt lat="37.43479407651718" lon="13.997649906925348"><ele>398.0</ele><time>2026-03-25T09:56:32.999Z</time></trkpt><trkpt lat="37.43494641091897" lon="13.997683202984575"><ele>398.0</ele><time>2026-03-25T09:56:33.999Z</time></trkpt><trkpt lat="37.43508988551149" lon="13.997721817346614"><ele>398.0</ele><time>2026-03-25T09:56:34.999Z</time></trkpt><trkpt lat="37.435223906322236" lon="13.997763731041799"><ele>398.0</ele><time>2026-03-25T09:56:35.999Z</time></trkpt><trkpt lat="37.43534102022383" lon="13.997823831505453"><ele>398.0</ele><time>2026-03-25T09:56:36.999Z</time></trkpt><trkpt lat="37.4354429041776" lon="13.997917558032581"><ele>396.75</ele><time>2026-03-25T09:56:37.999Z</time></trkpt><trkpt lat="37.43552687122978" lon="13.998047168469197"><ele>395.5</ele><time>2026-03-25T09:56:38.999Z</time></trkpt><trkpt lat="37.43558933626652" lon="13.99821022787117"><ele>394.25</ele><time>2026-03-25T09:56:39.999Z</time></trkpt><trkpt lat="37.43564946430162" lon="13.998392121729724"><ele>393.0</ele><time>2026-03-25T09:56:40.999Z</time></trkpt><trkpt lat="37.435708288432295" lon="13.998574548561367"><ele>395.75</ele><time>2026-03-25T09:56:41.999Z</time></trkpt><trkpt lat="37.435745809649674" lon="13.998754836019073"><ele>398.5</ele><time>2026-03-25T09:56:42.999Z</time></trkpt><trkpt lat="37.43577511080035" lon="13.998916042172768"><ele>401.25</ele><time>2026-03-25T09:56:43.999Z</time></trkpt><trkpt lat="37.43583192416804" lon="13.999055696945904"><ele>404.0</ele><time>2026-03-25T09:56:44.999Z</time></trkpt><trkpt lat="37.4359231506542" lon="13.999161017235858"><ele>405.0</ele><time>2026-03-25T09:56:45.999Z</time></trkpt><trkpt lat="37.43604403095505" lon="13.999204725629552"><ele>406.0</ele><time>2026-03-25T09:56:46.999Z</time></trkpt><trkpt lat="37.436177969364564" lon="13.999199992889466"><ele>407.0</ele><time>2026-03-25T09:56:47.999Z</time></trkpt><trkpt lat="37.436328236390764" lon="13.999155816044407"><ele>408.0</ele><time>2026-03-25T09:56:48.999Z</time></trkpt><trkpt lat="37.43649253240675" lon="13.999096147319262"><ele>408.0</ele><time>2026-03-25T09:56:49.999Z</time></trkpt><trkpt lat="37.436661905746604" lon="13.999057606423559"><ele>408.0</ele><time>2026-03-25T09:56:50.999Z</time></trkpt><trkpt lat="37.43684154536698" lon="13.999002405817162"><ele>408.0</ele><time>2026-03-25T09:56:51.999Z</time></trkpt><trkpt lat="37.437018104398014" lon="13.998944976049417"><ele>410.33333333333337</ele><time>2026-03-25T09:56:52.999Z</time></trkpt><trkpt lat="37.437180467694624" lon="13.99889599353824"><ele>412.6666666666667</ele><time>2026-03-25T09:56:54Z</time></trkpt><trkpt lat="37.43732381173556" lon="13.998848942283821"><ele>415.0</ele><time>2026-03-25T09:56:55Z</time></trkpt><trkpt lat="37.437477082501395" lon="13.998804347763762"><ele>415.0</ele><time>2026-03-25T09:56:56Z</time></trkpt><trkpt lat="37.43763110490559" lon="13.99878427099834"><ele>415.0</ele><time>2026-03-25T09:56:57Z</time></trkpt><trkpt lat="37.4377912739349" lon="13.998805305431487"><ele>415.0</ele><time>2026-03-25T09:56:58Z</time></trkpt><trkpt lat="37.437964152503916" lon="13.998866270230243"><ele>414.6666666666667</ele><time>2026-03-25T09:56:59Z</time></trkpt><trkpt lat="37.43812680411583" lon="13.998938691110085"><ele>414.33333333333337</ele><time>2026-03-25T09:57:00Z</time></trkpt><trkpt lat="37.43826266427873" lon="13.99901652070967"><ele>414.0</ele><time>2026-03-25T09:57:01Z</time></trkpt><trkpt lat="37.438372450503564" lon="13.999133229535476"><ele>416.33333333333337</ele><time>2026-03-25T09:57:02Z</time></trkpt><trkpt lat="37.438465307907684" lon="13.999285478685255"><ele>418.6666666666667</ele><time>2026-03-25T09:57:03Z</time></trkpt><trkpt lat="37.43852151547491" lon="13.999483979009058"><ele>421.0</ele><time>2026-03-25T09:57:04Z</time></trkpt><trkpt lat="37.438561079599666" lon="13.9996993051992"><ele>421.0</ele><time>2026-03-25T09:57:05Z</time></trkpt><trkpt lat="37.43860075287177" lon="13.999927322838198"><ele>421.0</ele><time>2026-03-25T09:57:06Z</time></trkpt><trkpt lat="37.438648085694" lon="14.00015927330693"><ele>421.0</ele><time>2026-03-25T09:57:07Z</time></trkpt><trkpt lat="37.4386912873577" lon="14.000392507652945"><ele>421.0</ele><time>2026-03-25T09:57:08Z</time></trkpt><trkpt lat="37.438735784421894" lon="14.000629250263714"><ele>421.0</ele><time>2026-03-25T09:57:09Z</time></trkpt><trkpt lat="37.43877554788538" lon="14.000843356376894"><ele>421.0</ele><time>2026-03-25T09:57:10Z</time></trkpt><trkpt lat="37.43881055827945" lon="14.001033648661402"><ele>420.5</ele><time>2026-03-25T09:57:11Z</time></trkpt><trkpt lat="37.43884139554713" lon="14.001208415272933"><ele>420.0</ele><time>2026-03-25T09:57:12Z</time></trkpt><trkpt lat="37.438874130443224" lon="14.00136447435486"><ele>419.5</ele><time>2026-03-25T09:57:13Z</time></trkpt><trkpt lat="37.438929812052486" lon="14.001495272175346"><ele>419.0</ele><time>2026-03-25T09:57:14Z</time></trkpt><trkpt lat="37.43901713935484" lon="14.001589377171962"><ele>419.0</ele><time>2026-03-25T09:57:15Z</time></trkpt><trkpt lat="37.43913339255559" lon="14.001633226190979"><ele>419.0</ele><time>2026-03-25T09:57:16Z</time></trkpt><trkpt lat="37.43926524858274" lon="14.001605163474837"><ele>419.0</ele><time>2026-03-25T09:57:17Z</time></trkpt><trkpt lat="37.43939912692386" lon="14.001542203061558"><ele>419.0</ele><time>2026-03-25T09:57:18Z</time></trkpt><trkpt lat="37.43950784834555" lon="14.001479896950194"><ele>419.0</ele><time>2026-03-25T09:57:19Z</time></trkpt><trkpt lat="37.43962997351019" lon="14.001431892083419"><ele>419.0</ele><time>2026-03-25T09:57:20Z</time></trkpt><trkpt lat="37.43977675954149" lon="14.001390484512747"><ele>419.0</ele><time>2026-03-25T09:57:21Z</time></trkpt><trkpt lat="37.439945212625744" lon="14.001376430630772"><ele>419.0</ele><time>2026-03-25T09:57:22Z</time></trkpt><trkpt lat="37.4401145617157" lon="14.001407757510862"><ele>421.3333333333333</ele><time>2026-03-25T09:57:23Z</time></trkpt><trkpt lat="37.440267899560745" lon="14.001476568351084"><ele>423.66666666666663</ele><time>2026-03-25T09:57:24Z</time></trkpt><trkpt lat="37.4404138347775" lon="14.00158147886257"><ele>426.0</ele><time>2026-03-25T09:57:25Z</time></trkpt><trkpt lat="37.44055287204691" lon="14.001716098667103"><ele>426.0</ele><time>2026-03-25T09:57:26Z</time></trkpt><trkpt lat="37.44067625766886" lon="14.001863917329805"><ele>426.0</ele><time>2026-03-25T09:57:27Z</time></trkpt><trkpt lat="37.44079336374535" lon="14.002044919809894"><ele>426.0</ele><time>2026-03-25T09:57:28Z</time></trkpt><trkpt lat="37.44089459922723" lon="14.00221556653239"><ele>426.0</ele><time>2026-03-25T09:57:29Z</time></trkpt><trkpt lat="37.44097958991935" lon="14.002372715553477"><ele>426.0</ele><time>2026-03-25T09:57:30Z</time></trkpt><trkpt lat="37.44104824516081" lon="14.002527555178608"><ele>426.0</ele><time>2026-03-25T09:57:31Z</time></trkpt><trkpt lat="37.4410897680042" lon="14.00268434535532"><ele>426.0</ele><time>2026-03-25T09:57:32Z</time></trkpt><trkpt lat="37.441110720909485" lon="14.002849050104935"><ele>427.0</ele><time>2026-03-25T09:57:33Z</time></trkpt><trkpt lat="37.441110430559824" lon="14.003022131163947"><ele>428.0</ele><time>2026-03-25T09:57:34Z</time></trkpt><trkpt lat="37.4410923754458" lon="14.00320332723534"><ele>429.0</ele><time>2026-03-25T09:57:35Z</time></trkpt><trkpt lat="37.44107246071688" lon="14.003386078732245"><ele>430.0</ele><time>2026-03-25T09:57:36Z</time></trkpt><trkpt lat="37.44105712021279" lon="14.003572254220408"><ele>430.33333333333337</ele><time>2026-03-25T09:57:37Z</time></trkpt><trkpt lat="37.44104560083034" lon="14.003766131870284"><ele>430.66666666666663</ele><time>2026-03-25T09:57:38Z</time></trkpt><trkpt lat="37.44101834160796" lon="14.003962285012307"><ele>431.0</ele><time>2026-03-25T09:57:39.001Z</time></trkpt><trkpt lat="37.44100851720252" lon="14.004166804830405"><ele>431.3333333333333</ele><time>2026-03-25T09:57:40.001Z</time></trkpt><trkpt lat="37.44101164598756" lon="14.004373105904664"><ele>431.66666666666663</ele><time>2026-03-25T09:57:41.001Z</time></trkpt><trkpt lat="37.44100119331502" lon="14.00457751608797"><ele>432.0</ele><time>2026-03-25T09:57:42.001Z</time></trkpt><trkpt lat="37.44099652439381" lon="14.004783901477722"><ele>432.66666666666663</ele><time>2026-03-25T09:57:43.001Z</time></trkpt><trkpt lat="37.44099411663114" lon="14.00499653555365"><ele>433.3333333333333</ele><time>2026-03-25T09:57:44.001Z</time></trkpt><trkpt lat="37.44099236142344" lon="14.005211159904267"><ele>434.0</ele><time>2026-03-25T09:57:45.001Z</time></trkpt><trkpt lat="37.4409749689509" lon="14.005406248815394"><ele>434.0</ele><time>2026-03-25T09:57:46.001Z</time></trkpt><trkpt lat="37.440969533303516" lon="14.005604990482476"><ele>434.0</ele><time>2026-03-25T09:57:47.001Z</time></trkpt><trkpt lat="37.44097996349754" lon="14.005804541010601"><ele>434.0</ele><time>2026-03-25T09:57:48.001Z</time></trkpt><trkpt lat="37.44097262545144" lon="14.006000649725326"><ele>435.0</ele><time>2026-03-25T09:57:49.001Z</time></trkpt><trkpt lat="37.44096987814623" lon="14.006196037213206"><ele>436.0</ele><time>2026-03-25T09:57:50.001Z</time></trkpt><trkpt lat="37.440965852840506" lon="14.006390251658646"><ele>437.0</ele><time>2026-03-25T09:57:51.001Z</time></trkpt><trkpt lat="37.440961052955736" lon="14.006583601261505"><ele>437.75</ele><time>2026-03-25T09:57:52.001Z</time></trkpt><trkpt lat="37.440955478053525" lon="14.006772055197768"><ele>438.5</ele><time>2026-03-25T09:57:53.001Z</time></trkpt><trkpt lat="37.44095115544465" lon="14.006958495627671"><ele>439.25</ele><time>2026-03-25T09:57:54.001Z</time></trkpt><trkpt lat="37.440933432352516" lon="14.007141335503984"><ele>440.0</ele><time>2026-03-25T09:57:55.001Z</time></trkpt><trkpt lat="37.44093003469567" lon="14.00731426765562"><ele>440.0</ele><time>2026-03-25T09:57:56.001Z</time></trkpt><trkpt lat="37.44094091273596" lon="14.007470618540479"><ele>440.0</ele><time>2026-03-25T09:57:57.001Z</time></trkpt><trkpt lat="37.44093436019673" lon="14.007609089197357"><ele>440.0</ele><time>2026-03-25T09:57:58.001Z</time></trkpt><trkpt lat="37.4409394882938" lon="14.007748242292674"><ele>440.0</ele><time>2026-03-25T09:57:59.001Z</time></trkpt><trkpt lat="37.44095747179241" lon="14.007894345172133"><ele>441.25</ele><time>2026-03-25T09:58:00.001Z</time></trkpt><trkpt lat="37.44099156135635" lon="14.008034178304667"><ele>442.5</ele><time>2026-03-25T09:58:01.001Z</time></trkpt><trkpt lat="37.44104889176298" lon="14.008157535697695"><ele>443.75</ele><time>2026-03-25T09:58:02.001Z</time></trkpt><trkpt lat="37.441127255642506" lon="14.008258823847408"><ele>445.0</ele><time>2026-03-25T09:58:03.001Z</time></trkpt><trkpt lat="37.44122461081386" lon="14.00833384738749"><ele>446.0</ele><time>2026-03-25T09:58:04.001Z</time></trkpt><trkpt lat="37.441322127249144" lon="14.008386289975201"><ele>447.0</ele><time>2026-03-25T09:58:05.001Z</time></trkpt><trkpt lat="37.44141885115077" lon="14.00843999758406"><ele>448.0</ele><time>2026-03-25T09:58:06.001Z</time></trkpt><trkpt lat="37.44150381209895" lon="14.008498917877326"><ele>449.0</ele><time>2026-03-25T09:58:07.001Z</time></trkpt><trkpt lat="37.44159972184994" lon="14.008551909687537"><ele>450.0</ele><time>2026-03-25T09:58:08.001Z</time></trkpt><trkpt lat="37.441695021235624" lon="14.00857410311344"><ele>450.0</ele><time>2026-03-25T09:58:09.001Z</time></trkpt><trkpt lat="37.44178776954475" lon="14.008563444036067"><ele>450.0</ele><time>2026-03-25T09:58:10.001Z</time></trkpt><trkpt lat="37.44188278765208" lon="14.00855630298519"><ele>450.0</ele><time>2026-03-25T09:58:11.001Z</time></trkpt><trkpt lat="37.44198142874471" lon="14.008565096511312"><ele>450.0</ele><time>2026-03-25T09:58:12.001Z</time></trkpt><trkpt lat="37.44208303862186" lon="14.008590027974526"><ele>450.0</ele><time>2026-03-25T09:58:13.001Z</time></trkpt><trkpt lat="37.442187372447066" lon="14.008638231176011"><ele>449.75</ele><time>2026-03-25T09:58:14.001Z</time></trkpt><trkpt lat="37.44229481239387" lon="14.008699182550492"><ele>449.5</ele><time>2026-03-25T09:58:15.001Z</time></trkpt><trkpt lat="37.44240472550184" lon="14.008769673714065"><ele>449.25</ele><time>2026-03-25T09:58:16.001Z</time></trkpt><trkpt lat="37.44251743292685" lon="14.00884849921247"><ele>449.0</ele><time>2026-03-25T09:58:17.001Z</time></trkpt><trkpt lat="37.44263418824221" lon="14.008935686470917"><ele>449.0</ele><time>2026-03-25T09:58:18.001Z</time></trkpt><trkpt lat="37.44275701055894" lon="14.009029075324468"><ele>449.0</ele><time>2026-03-25T09:58:19.001Z</time></trkpt><trkpt lat="37.44288749064645" lon="14.009130758175532"><ele>449.0</ele><time>2026-03-25T09:58:20.001Z</time></trkpt><trkpt lat="37.44301670119496" lon="14.009235015026182"><ele>447.3333333333333</ele><time>2026-03-25T09:58:21.001Z</time></trkpt><trkpt lat="37.44314644098046" lon="14.009347523650371"><ele>445.66666666666663</ele><time>2026-03-25T09:58:22.001Z</time></trkpt><trkpt lat="37.44327351157045" lon="14.009469651499398"><ele>444.0</ele><time>2026-03-25T09:58:23.001Z</time></trkpt><trkpt lat="37.44339958248324" lon="14.009591984546782"><ele>444.0</ele><time>2026-03-25T09:58:24.001Z</time></trkpt><trkpt lat="37.443526600535165" lon="14.009714877050383"><ele>444.0</ele><time>2026-03-25T09:58:25.002Z</time></trkpt><trkpt lat="37.443650406386176" lon="14.009839988574372"><ele>444.0</ele><time>2026-03-25T09:58:26.002Z</time></trkpt><trkpt lat="37.44377130894726" lon="14.009963631412786"><ele>446.33333333333337</ele><time>2026-03-25T09:58:27.002Z</time></trkpt><trkpt lat="37.443892941944824" lon="14.010082643675549"><ele>448.6666666666667</ele><time>2026-03-25T09:58:28.002Z</time></trkpt><trkpt lat="37.44401525936744" lon="14.010200040478516"><ele>451.0</ele><time>2026-03-25T09:58:29.002Z</time></trkpt><trkpt lat="37.44413446164787" lon="14.010317618899105"><ele>451.0</ele><time>2026-03-25T09:58:30.002Z</time></trkpt><trkpt lat="37.44425143627951" lon="14.01043468597422"><ele>451.0</ele><time>2026-03-25T09:58:31.002Z</time></trkpt><trkpt lat="37.44436892902793" lon="14.010548030628582"><ele>451.0</ele><time>2026-03-25T09:58:32.002Z</time></trkpt><trkpt lat="37.44448776318236" lon="14.010658903398628"><ele>451.0</ele><time>2026-03-25T09:58:33.002Z</time></trkpt><trkpt lat="37.444602877711716" lon="14.010769901221419"><ele>451.25</ele><time>2026-03-25T09:58:34.002Z</time></trkpt><trkpt lat="37.444719772024136" lon="14.010876309430282"><ele>451.5</ele><time>2026-03-25T09:58:35.002Z</time></trkpt><trkpt lat="37.444848133569344" lon="14.010971702389831"><ele>451.75</ele><time>2026-03-25T09:58:36.002Z</time></trkpt><trkpt lat="37.444990418846565" lon="14.011046614792678"><ele>452.0</ele><time>2026-03-25T09:58:37.002Z</time></trkpt><trkpt lat="37.44513682338641" lon="14.011100163916106"><ele>452.0</ele><time>2026-03-25T09:58:38Z</time></trkpt><trkpt lat="37.445290486187204" lon="14.011117500893072"><ele>452.0</ele><time>2026-03-25T09:58:39Z</time></trkpt><trkpt lat="37.44544543639496" lon="14.011123455475818"><ele>452.0</ele><time>2026-03-25T09:58:40Z</time></trkpt><trkpt lat="37.445608190574596" lon="14.011111669768914"><ele>452.3333333333333</ele><time>2026-03-25T09:58:41Z</time></trkpt><trkpt lat="37.44576801807135" lon="14.011092187854583"><ele>452.66666666666663</ele><time>2026-03-25T09:58:41.999Z</time></trkpt><trkpt lat="37.445926104552534" lon="14.011078289626365"><ele>453.0</ele><time>2026-03-25T09:58:43Z</time></trkpt><trkpt lat="37.4460746953152" lon="14.011070237548878"><ele>453.0</ele><time>2026-03-25T09:58:44Z</time></trkpt><trkpt lat="37.446212989037136" lon="14.011074689353919"><ele>453.0</ele><time>2026-03-25T09:58:45Z</time></trkpt><trkpt lat="37.44633372881596" lon="14.01110322481276"><ele>453.0</ele><time>2026-03-25T09:58:46Z</time></trkpt><trkpt lat="37.44645200220886" lon="14.011156177354431"><ele>453.0</ele><time>2026-03-25T09:58:47Z</time></trkpt><trkpt lat="37.446571820917114" lon="14.011236889956589"><ele>454.5</ele><time>2026-03-25T09:58:48Z</time></trkpt><trkpt lat="37.44668970123245" lon="14.011360053860752"><ele>456.0</ele><time>2026-03-25T09:58:49Z</time></trkpt><trkpt lat="37.44680215532833" lon="14.01148425701577"><ele>457.5</ele><time>2026-03-25T09:58:50Z</time></trkpt><trkpt lat="37.446911734333824" lon="14.011587674819262"><ele>459.0</ele><time>2026-03-25T09:58:51Z</time></trkpt><trkpt lat="37.447034614033605" lon="14.011662020739871"><ele>457.66666666666663</ele><time>2026-03-25T09:58:52Z</time></trkpt><trkpt lat="37.44717095371258" lon="14.011698905852338"><ele>456.3333333333333</ele><time>2026-03-25T09:58:53Z</time></trkpt><trkpt lat="37.44731913066471" lon="14.011699632873338"><ele>455.0</ele><time>2026-03-25T09:58:54Z</time></trkpt><trkpt lat="37.44748104481807" lon="14.011671692840759"><ele>458.0</ele><time>2026-03-25T09:58:55Z</time></trkpt><trkpt lat="37.447654982094186" lon="14.011627323900955"><ele>461.0</ele><time>2026-03-25T09:58:56Z</time></trkpt><trkpt lat="37.44783886684842" lon="14.011586057861425"><ele>464.0</ele><time>2026-03-25T09:58:57Z</time></trkpt><trkpt lat="37.4480189873873" lon="14.01155090464926"><ele>464.0</ele><time>2026-03-25T09:58:58Z</time></trkpt><trkpt lat="37.44819777492142" lon="14.011521156676634"><ele>464.0</ele><time>2026-03-25T09:58:59Z</time></trkpt><trkpt lat="37.44836672769457" lon="14.011490606664802"><ele>464.0</ele><time>2026-03-25T09:59:00Z</time></trkpt><trkpt lat="37.44852218295484" lon="14.01146308462504"><ele>464.0</ele><time>2026-03-25T09:59:01Z</time></trkpt><trkpt lat="37.44866195072663" lon="14.011437397297392"><ele>464.0</ele><time>2026-03-25T09:59:02Z</time></trkpt><trkpt lat="37.44878444657437" lon="14.011418085234947"><ele>464.0</ele><time>2026-03-25T09:59:03Z</time></trkpt><trkpt lat="37.44889727473163" lon="14.011420785460018"><ele>464.0</ele><time>2026-03-25T09:59:04Z</time></trkpt><trkpt lat="37.449004743151065" lon="14.011468832526852"><ele>463.25</ele><time>2026-03-25T09:59:05Z</time></trkpt><trkpt lat="37.449105088832695" lon="14.01156277007253"><ele>462.5</ele><time>2026-03-25T09:59:06Z</time></trkpt><trkpt lat="37.44918507835636" lon="14.011687969038976"><ele>461.75</ele><time>2026-03-25T09:59:07Z</time></trkpt><trkpt lat="37.449218080777946" lon="14.01184678529898"><ele>461.0</ele><time>2026-03-25T09:59:08Z</time></trkpt><trkpt lat="37.44922068609606" lon="14.012002765572957"><ele>460.25</ele><time>2026-03-25T09:59:09Z</time></trkpt><trkpt lat="37.44918348905319" lon="14.012160972907875"><ele>459.5</ele><time>2026-03-25T09:59:10Z</time></trkpt><trkpt lat="37.449126454921" lon="14.012338409474767"><ele>458.75</ele><time>2026-03-25T09:59:11Z</time></trkpt><trkpt lat="37.44905410357832" lon="14.012525225856129"><ele>458.0</ele><time>2026-03-25T09:59:12Z</time></trkpt><trkpt lat="37.448994478099536" lon="14.01273004816774"><ele>458.0</ele><time>2026-03-25T09:59:13Z</time></trkpt><trkpt lat="37.448906916630044" lon="14.012913996904"><ele>458.0</ele><time>2026-03-25T09:59:14Z</time></trkpt><trkpt lat="37.448836789065226" lon="14.013107439399505"><ele>458.0</ele><time>2026-03-25T09:59:15Z</time></trkpt><trkpt lat="37.44876545294019" lon="14.013298409427573"><ele>456.3333333333333</ele><time>2026-03-25T09:59:16Z</time></trkpt><trkpt lat="37.44870709975876" lon="14.013496974504394"><ele>454.66666666666663</ele><time>2026-03-25T09:59:17Z</time></trkpt><trkpt lat="37.44863729959139" lon="14.013680108643186"><ele>453.0</ele><time>2026-03-25T09:59:18Z</time></trkpt><trkpt lat="37.44858790049395" lon="14.013870602497024"><ele>453.0</ele><time>2026-03-25T09:59:19Z</time></trkpt><trkpt lat="37.448561381019324" lon="14.014068425213326"><ele>453.0</ele><time>2026-03-25T09:59:20Z</time></trkpt><trkpt lat="37.44852468172815" lon="14.014251503518237"><ele>453.0</ele><time>2026-03-25T09:59:21Z</time></trkpt><trkpt lat="37.448601683098644" lon="14.0144636640309"><ele>456.0</ele><time>2026-03-25T09:59:22Z</time></trkpt><trkpt lat="37.44867169991204" lon="14.014647276899463"><ele>459.0</ele><time>2026-03-25T09:59:23Z</time></trkpt><trkpt lat="37.448766596132884" lon="14.014829722882427"><ele>462.0</ele><time>2026-03-25T09:59:24Z</time></trkpt><trkpt lat="37.448863738113126" lon="14.015021880766717"><ele>464.0</ele><time>2026-03-25T09:59:25Z</time></trkpt><trkpt lat="37.44895193975304" lon="14.015226847364696"><ele>466.0</ele><time>2026-03-25T09:59:26Z</time></trkpt><trkpt lat="37.449030024761974" lon="14.015432694487407"><ele>468.0</ele><time>2026-03-25T09:59:27Z</time></trkpt><trkpt lat="37.44909775288372" lon="14.015639820542448"><ele>467.66666666666663</ele><time>2026-03-25T09:59:28Z</time></trkpt><trkpt lat="37.44915463419445" lon="14.015858072071312"><ele>467.3333333333333</ele><time>2026-03-25T09:59:29Z</time></trkpt><trkpt lat="37.44920366892995" lon="14.01607966962208"><ele>467.0</ele><time>2026-03-25T09:59:30Z</time></trkpt><trkpt lat="37.44926216419411" lon="14.016291890219687"><ele>467.0</ele><time>2026-03-25T09:59:31Z</time></trkpt><trkpt lat="37.44933822428206" lon="14.016499499785892"><ele>467.0</ele><time>2026-03-25T09:59:32Z</time></trkpt><trkpt lat="37.44942751893056" lon="14.016706752095153"><ele>467.0</ele><time>2026-03-25T09:59:33.001Z</time></trkpt><trkpt lat="37.449521236231426" lon="14.016911639054705"><ele>466.66666666666663</ele><time>2026-03-25T09:59:34.001Z</time></trkpt><trkpt lat="37.44961422534483" lon="14.017116300796491"><ele>466.33333333333337</ele><time>2026-03-25T09:59:35.001Z</time></trkpt><trkpt lat="37.44970591132346" lon="14.01731929689266"><ele>466.0</ele><time>2026-03-25T09:59:36.001Z</time></trkpt><trkpt lat="37.44979752316499" lon="14.017524812922403"><ele>463.6666666666667</ele><time>2026-03-25T09:59:37.001Z</time></trkpt><trkpt lat="37.449884669192926" lon="14.01772580513498"><ele>461.33333333333337</ele><time>2026-03-25T09:59:38.001Z</time></trkpt><trkpt lat="37.44997074185373" lon="14.01792276199125"><ele>459.0</ele><time>2026-03-25T09:59:39.001Z</time></trkpt><trkpt lat="37.45006296860457" lon="14.018122507479724"><ele>457.33333333333337</ele><time>2026-03-25T09:59:40.001Z</time></trkpt><trkpt lat="37.45016206472859" lon="14.018324339012297"><ele>455.6666666666667</ele><time>2026-03-25T09:59:41.001Z</time></trkpt><trkpt lat="37.450263048082924" lon="14.018521682339577"><ele>454.0</ele><time>2026-03-25T09:59:42.001Z</time></trkpt><trkpt lat="37.45036258350336" lon="14.018711939347307"><ele>454.0</ele><time>2026-03-25T09:59:43.001Z</time></trkpt><trkpt lat="37.45045684229063" lon="14.018896624566208"><ele>454.0</ele><time>2026-03-25T09:59:44.001Z</time></trkpt><trkpt lat="37.45054554954651" lon="14.019069781311543"><ele>454.0</ele><time>2026-03-25T09:59:45.001Z</time></trkpt><trkpt lat="37.450632519160514" lon="14.019231924416115"><ele>453.33333333333337</ele><time>2026-03-25T09:59:46.001Z</time></trkpt><trkpt lat="37.450734061095865" lon="14.019381323218964"><ele>452.66666666666663</ele><time>2026-03-25T09:59:47.001Z</time></trkpt><trkpt lat="37.45085946598716" lon="14.019523390612573"><ele>452.0</ele><time>2026-03-25T09:59:48.001Z</time></trkpt><trkpt lat="37.45100330416615" lon="14.019655448155955"><ele>452.0</ele><time>2026-03-25T09:59:49.001Z</time></trkpt><trkpt lat="37.451152540941514" lon="14.019783228104389"><ele>452.0</ele><time>2026-03-25T09:59:50.001Z</time></trkpt><trkpt lat="37.45130325735983" lon="14.019915511938175"><ele>452.0</ele><time>2026-03-25T09:59:51.001Z</time></trkpt><trkpt lat="37.45144270412481" lon="14.020050551572163"><ele>449.66666666666663</ele><time>2026-03-25T09:59:52.001Z</time></trkpt><trkpt lat="37.4515762236515" lon="14.02017448940142"><ele>447.33333333333337</ele><time>2026-03-25T09:59:53.001Z</time></trkpt><trkpt lat="37.45170080511828" lon="14.020290186210225"><ele>445.0</ele><time>2026-03-25T09:59:54.001Z</time></trkpt><trkpt lat="37.451820499037424" lon="14.02040194742668"><ele>445.0</ele><time>2026-03-25T09:59:55.001Z</time></trkpt><trkpt lat="37.45193267313446" lon="14.020515709830137"><ele>445.0</ele><time>2026-03-25T09:59:56.001Z</time></trkpt><trkpt lat="37.45203921545632" lon="14.020634370843458"><ele>445.0</ele><time>2026-03-25T09:59:57.001Z</time></trkpt><trkpt lat="37.45214475434447" lon="14.020765273320118"><ele>445.0</ele><time>2026-03-25T09:59:58.001Z</time></trkpt><trkpt lat="37.452215274800345" lon="14.0209371192223"><ele>443.0</ele><time>2026-03-25T09:59:59.001Z</time></trkpt><trkpt lat="37.45230740486916" lon="14.021091667336997"><ele>441.0</ele><time>2026-03-25T10:00:00.001Z</time></trkpt><trkpt lat="37.452380605802205" lon="14.021259918395357"><ele>439.0</ele><time>2026-03-25T10:00:01.001Z</time></trkpt><trkpt lat="37.45245243292191" lon="14.021411058034289"><ele>437.0</ele><time>2026-03-25T10:00:02.001Z</time></trkpt><trkpt lat="37.45252061127909" lon="14.021545106232375"><ele>435.8</ele><time>2026-03-25T10:00:03.001Z</time></trkpt><trkpt lat="37.45257950234465" lon="14.02166601742186"><ele>434.6</ele><time>2026-03-25T10:00:04.001Z</time></trkpt><trkpt lat="37.4526275013262" lon="14.021783326013999"><ele>433.40000000000003</ele><time>2026-03-25T10:00:05.001Z</time></trkpt><trkpt lat="37.45268092559556" lon="14.021886213952124"><ele>432.20000000000005</ele><time>2026-03-25T10:00:06.001Z</time></trkpt><trkpt lat="37.45275710233326" lon="14.02196530065243"><ele>431.0</ele><time>2026-03-25T10:00:07.001Z</time></trkpt><trkpt lat="37.452859644761716" lon="14.022011107045005"><ele>430.25</ele><time>2026-03-25T10:00:08.001Z</time></trkpt><trkpt lat="37.4529812987934" lon="14.022008064435086"><ele>429.5</ele><time>2026-03-25T10:00:09.001Z</time></trkpt><trkpt lat="37.453100344306094" lon="14.021951612773647"><ele>428.75</ele><time>2026-03-25T10:00:10.001Z</time></trkpt><trkpt lat="37.45320704113432" lon="14.02184599563811"><ele>428.0</ele><time>2026-03-25T10:00:11.001Z</time></trkpt><trkpt lat="37.453297769864825" lon="14.02171431121812"><ele>428.75</ele><time>2026-03-25T10:00:12.001Z</time></trkpt><trkpt lat="37.453388600540706" lon="14.021587033703222"><ele>429.5</ele><time>2026-03-25T10:00:13.001Z</time></trkpt><trkpt lat="37.45348980084521" lon="14.021499807395678"><ele>430.25</ele><time>2026-03-25T10:00:14.001Z</time></trkpt><trkpt lat="37.45360071622508" lon="14.021453344148714"><ele>431.0</ele><time>2026-03-25T10:00:15.001Z</time></trkpt><trkpt lat="37.45371955757815" lon="14.021455204001018"><ele>429.75</ele><time>2026-03-25T10:00:16.001Z</time></trkpt><trkpt lat="37.45383918066264" lon="14.021509762535539"><ele>428.5</ele><time>2026-03-25T10:00:17.001Z</time></trkpt><trkpt lat="37.45393939314559" lon="14.021601627709297"><ele>427.25</ele><time>2026-03-25T10:00:18.001Z</time></trkpt><trkpt lat="37.45403396354948" lon="14.021666925743784"><ele>426.0</ele><time>2026-03-25T10:00:19.002Z</time></trkpt><trkpt lat="37.45412282076084" lon="14.021719825414774"><ele>426.0</ele><time>2026-03-25T10:00:20.002Z</time></trkpt><trkpt lat="37.45420216665319" lon="14.021779603779722"><ele>426.0</ele><time>2026-03-25T10:00:21.002Z</time></trkpt><trkpt lat="37.45428485754951" lon="14.021850392974109"><ele>426.0</ele><time>2026-03-25T10:00:22.002Z</time></trkpt><trkpt lat="37.45435874433437" lon="14.021928231449541"><ele>426.0</ele><time>2026-03-25T10:00:23.002Z</time></trkpt><trkpt lat="37.454427216940644" lon="14.022021999159064"><ele>426.0</ele><time>2026-03-25T10:00:24.002Z</time></trkpt><trkpt lat="37.45448447571718" lon="14.022124843329335"><ele>426.0</ele><time>2026-03-25T10:00:25.002Z</time></trkpt><trkpt lat="37.454533141965776" lon="14.02222425131758"><ele>426.0</ele><time>2026-03-25T10:00:26.002Z</time></trkpt><trkpt lat="37.454583900732366" lon="14.022344363179233"><ele>426.0</ele><time>2026-03-25T10:00:27.002Z</time></trkpt><trkpt lat="37.4546198077328" lon="14.022470715008575"><ele>426.0</ele><time>2026-03-25T10:00:28.002Z</time></trkpt><trkpt lat="37.454644012858665" lon="14.022600764140645"><ele>426.0</ele><time>2026-03-25T10:00:29.002Z</time></trkpt><trkpt lat="37.454641084490895" lon="14.022729165189938"><ele>425.75</ele><time>2026-03-25T10:00:30.002Z</time></trkpt><trkpt lat="37.45462545288057" lon="14.02284584502492"><ele>425.5</ele><time>2026-03-25T10:00:31.002Z</time></trkpt><trkpt lat="37.45458307338617" lon="14.022972063171792"><ele>425.25</ele><time>2026-03-25T10:00:32.002Z</time></trkpt><trkpt lat="37.45450264710355" lon="14.02309262735313"><ele>425.0</ele><time>2026-03-25T10:00:33.002Z</time></trkpt><trkpt lat="37.454398213244836" lon="14.023234245851773"><ele>428.0</ele><time>2026-03-25T10:00:34.002Z</time></trkpt><trkpt lat="37.454273897834426" lon="14.023382954437016"><ele>431.0</ele><time>2026-03-25T10:00:35.002Z</time></trkpt><trkpt lat="37.454139487996386" lon="14.023553767003643"><ele>434.0</ele><time>2026-03-25T10:00:36.002Z</time></trkpt><trkpt lat="37.45400323063921" lon="14.02373163868565"><ele>434.0</ele><time>2026-03-25T10:00:37.002Z</time></trkpt><trkpt lat="37.45388211501791" lon="14.023898558731284"><ele>434.0</ele><time>2026-03-25T10:00:38.002Z</time></trkpt><trkpt lat="37.453789111137674" lon="14.024059985491732"><ele>434.0</ele><time>2026-03-25T10:00:39.002Z</time></trkpt><trkpt lat="37.453717628092214" lon="14.024209623574226"><ele>432.25</ele><time>2026-03-25T10:00:40.002Z</time></trkpt><trkpt lat="37.45365624642307" lon="14.02435013641897"><ele>430.5</ele><time>2026-03-25T10:00:41.002Z</time></trkpt><trkpt lat="37.45360950451356" lon="14.024503340849359"><ele>428.75</ele><time>2026-03-25T10:00:42.002Z</time></trkpt><trkpt lat="37.45359468190993" lon="14.024677999591646"><ele>427.0</ele><time>2026-03-25T10:00:43.002Z</time></trkpt><trkpt lat="37.453638703523886" lon="14.024867496378505"><ele>429.33333333333337</ele><time>2026-03-25T10:00:44Z</time></trkpt><trkpt lat="37.453670511778164" lon="14.025065560381359"><ele>431.66666666666663</ele><time>2026-03-25T10:00:45Z</time></trkpt><trkpt lat="37.45370894687619" lon="14.025271159312505"><ele>434.0</ele><time>2026-03-25T10:00:46Z</time></trkpt><trkpt lat="37.453745708227935" lon="14.02545961239465"><ele>434.0</ele><time>2026-03-25T10:00:47Z</time></trkpt><trkpt lat="37.45378135541304" lon="14.025623131623323"><ele>434.0</ele><time>2026-03-25T10:00:48Z</time></trkpt><trkpt lat="37.45383717271534" lon="14.025771381406791"><ele>434.0</ele><time>2026-03-25T10:00:49Z</time></trkpt><trkpt lat="37.453930200553984" lon="14.02589956443479"><ele>434.0</ele><time>2026-03-25T10:00:50Z</time></trkpt><trkpt lat="37.454050612529166" lon="14.026019757712168"><ele>441.3333333333333</ele><time>2026-03-25T10:00:51Z</time></trkpt><trkpt lat="37.45417194035648" lon="14.026144444299153"><ele>448.66666666666663</ele><time>2026-03-25T10:00:52Z</time></trkpt><trkpt lat="37.45428764231239" lon="14.026279240291302"><ele>456.0</ele><time>2026-03-25T10:00:53Z</time></trkpt><trkpt lat="37.454395741991526" lon="14.026423394077014"><ele>456.0</ele><time>2026-03-25T10:00:54Z</time></trkpt><trkpt lat="37.4544969032877" lon="14.026569094287899"><ele>456.0</ele><time>2026-03-25T10:00:55Z</time></trkpt><trkpt lat="37.45459852327291" lon="14.026723382920789"><ele>456.0</ele><time>2026-03-25T10:00:56Z</time></trkpt><trkpt lat="37.45470189577275" lon="14.026875559111094"><ele>458.33333333333337</ele><time>2026-03-25T10:00:57Z</time></trkpt><trkpt lat="37.45480392948903" lon="14.027026523489049"><ele>460.6666666666667</ele><time>2026-03-25T10:00:58Z</time></trkpt><trkpt lat="37.45489925400841" lon="14.027177781232323"><ele>463.0</ele><time>2026-03-25T10:00:59Z</time></trkpt><trkpt lat="37.454993587896155" lon="14.027328164574687"><ele>462.0</ele><time>2026-03-25T10:01:00Z</time></trkpt><trkpt lat="37.45508971259808" lon="14.027484388884266"><ele>461.0</ele><time>2026-03-25T10:01:01Z</time></trkpt><trkpt lat="37.45518237097478" lon="14.02765019824217"><ele>460.0</ele><time>2026-03-25T10:01:02Z</time></trkpt><trkpt lat="37.455267689893354" lon="14.027830548153084"><ele>460.0</ele><time>2026-03-25T10:01:03Z</time></trkpt><trkpt lat="37.45534203386825" lon="14.02802116157549"><ele>460.0</ele><time>2026-03-25T10:01:04Z</time></trkpt><trkpt lat="37.45541291372401" lon="14.02821879758193"><ele>460.0</ele><time>2026-03-25T10:01:05Z</time></trkpt><trkpt lat="37.45548766743232" lon="14.028414527059653"><ele>463.33333333333337</ele><time>2026-03-25T10:01:06Z</time></trkpt><trkpt lat="37.45556447128938" lon="14.028609314103873"><ele>466.66666666666663</ele><time>2026-03-25T10:01:07Z</time></trkpt><trkpt lat="37.45563906270642" lon="14.028798013148444"><ele>470.0</ele><time>2026-03-25T10:01:08Z</time></trkpt><trkpt lat="37.455696640825785" lon="14.02897366001393"><ele>470.0</ele><time>2026-03-25T10:01:09Z</time></trkpt><trkpt lat="37.45573848013375" lon="14.029150839620764"><ele>470.0</ele><time>2026-03-25T10:01:10Z</time></trkpt><trkpt lat="37.455768767650966" lon="14.029323797853996"><ele>470.0</ele><time>2026-03-25T10:01:11Z</time></trkpt><trkpt lat="37.45580627921789" lon="14.029484131564441"><ele>470.0</ele><time>2026-03-25T10:01:12Z</time></trkpt><trkpt lat="37.45586264384187" lon="14.029636857430463"><ele>470.0</ele><time>2026-03-25T10:01:13Z</time></trkpt><trkpt lat="37.45593879686702" lon="14.029777031224976"><ele>470.0</ele><time>2026-03-25T10:01:14Z</time></trkpt><trkpt lat="37.45603342764882" lon="14.029905329807766"><ele>470.0</ele><time>2026-03-25T10:01:15Z</time></trkpt><trkpt lat="37.456142097792274" lon="14.03002339395767"><ele>470.0</ele><time>2026-03-25T10:01:16Z</time></trkpt><trkpt lat="37.45625870565303" lon="14.030147863270853"><ele>471.0</ele><time>2026-03-25T10:01:17Z</time></trkpt><trkpt lat="37.4563768867235" lon="14.030285184943017"><ele>472.0</ele><time>2026-03-25T10:01:18Z</time></trkpt><trkpt lat="37.45649335009778" lon="14.030436889870677"><ele>473.0</ele><time>2026-03-25T10:01:19Z</time></trkpt><trkpt lat="37.45660374063019" lon="14.03060060942453"><ele>473.0</ele><time>2026-03-25T10:01:20Z</time></trkpt><trkpt lat="37.4567040179686" lon="14.030774226029347"><ele>473.0</ele><time>2026-03-25T10:01:21Z</time></trkpt><trkpt lat="37.45679684412703" lon="14.030950114575111"><ele>473.0</ele><time>2026-03-25T10:01:22Z</time></trkpt><trkpt lat="37.45689270354019" lon="14.03111750761717"><ele>474.5</ele><time>2026-03-25T10:01:23Z</time></trkpt><trkpt lat="37.45698606391319" lon="14.031268711154128"><ele>476.0</ele><time>2026-03-25T10:01:24Z</time></trkpt><trkpt lat="37.457081468225994" lon="14.03139721951233"><ele>477.5</ele><time>2026-03-25T10:01:25Z</time></trkpt><trkpt lat="37.457196843373694" lon="14.031502221158206"><ele>479.0</ele><time>2026-03-25T10:01:26Z</time></trkpt><trkpt lat="37.45733078873594" lon="14.031586787261402"><ele>477.3333333333333</ele><time>2026-03-25T10:01:27Z</time></trkpt><trkpt lat="37.457476316218916" lon="14.03166171595698"><ele>475.66666666666663</ele><time>2026-03-25T10:01:28Z</time></trkpt><trkpt lat="37.45762607070765" lon="14.031745325903076"><ele>474.0</ele><time>2026-03-25T10:01:29Z</time></trkpt><trkpt lat="37.45777634707826" lon="14.031836146781934"><ele>474.0</ele><time>2026-03-25T10:01:30Z</time></trkpt><trkpt lat="37.457918964336145" lon="14.031924591446465"><ele>474.0</ele><time>2026-03-25T10:01:31Z</time></trkpt><trkpt lat="37.458058734362766" lon="14.032006539404014"><ele>474.0</ele><time>2026-03-25T10:01:32Z</time></trkpt><trkpt lat="37.45820168631437" lon="14.032070090893624"><ele>477.33333333333337</ele><time>2026-03-25T10:01:33Z</time></trkpt><trkpt lat="37.45834789669406" lon="14.03209797647365"><ele>480.6666666666667</ele><time>2026-03-25T10:01:34Z</time></trkpt><trkpt lat="37.45850080631733" lon="14.03208686366934"><ele>484.0</ele><time>2026-03-25T10:01:35Z</time></trkpt><trkpt lat="37.45865368236905" lon="14.032086090472426"><ele>485.6666666666667</ele><time>2026-03-25T10:01:36Z</time></trkpt><trkpt lat="37.45880349335114" lon="14.032122858368753"><ele>487.33333333333337</ele><time>2026-03-25T10:01:37.001Z</time></trkpt><trkpt lat="37.45895635236403" lon="14.032177013112223"><ele>489.0</ele><time>2026-03-25T10:01:38.001Z</time></trkpt><trkpt lat="37.459112327979625" lon="14.032245956367"><ele>489.0</ele><time>2026-03-25T10:01:39.001Z</time></trkpt><trkpt lat="37.459264565896106" lon="14.032318844159738"><ele>489.0</ele><time>2026-03-25T10:01:40.001Z</time></trkpt><trkpt lat="37.459410919251305" lon="14.032402082897345"><ele>489.0</ele><time>2026-03-25T10:01:41.001Z</time></trkpt><trkpt lat="37.45954910301149" lon="14.032498150460842"><ele>488.0</ele><time>2026-03-25T10:01:42.001Z</time></trkpt><trkpt lat="37.459685160559246" lon="14.032601569120787"><ele>487.0</ele><time>2026-03-25T10:01:43.001Z</time></trkpt><trkpt lat="37.45982249174376" lon="14.032704079010527"><ele>486.0</ele><time>2026-03-25T10:01:44.001Z</time></trkpt><trkpt lat="37.4599574304607" lon="14.032802176024285"><ele>486.0</ele><time>2026-03-25T10:01:45.001Z</time></trkpt><trkpt lat="37.46008835560293" lon="14.032893787364175"><ele>486.0</ele><time>2026-03-25T10:01:46.001Z</time></trkpt><trkpt lat="37.46022135462045" lon="14.03298218003109"><ele>486.0</ele><time>2026-03-25T10:01:47.001Z</time></trkpt><trkpt lat="37.46035703933209" lon="14.03306054081889"><ele>486.0</ele><time>2026-03-25T10:01:48.001Z</time></trkpt><trkpt lat="37.460497050402765" lon="14.033130141918017"><ele>486.0</ele><time>2026-03-25T10:01:49.001Z</time></trkpt><trkpt lat="37.460638626108235" lon="14.033200847893465"><ele>486.0</ele><time>2026-03-25T10:01:50.001Z</time></trkpt><trkpt lat="37.46078172374652" lon="14.03327473218544"><ele>486.0</ele><time>2026-03-25T10:01:51.001Z</time></trkpt><trkpt lat="37.46092690524808" lon="14.033350767632333"><ele>485.0</ele><time>2026-03-25T10:01:52.001Z</time></trkpt><trkpt lat="37.46107565523363" lon="14.033426534706072"><ele>484.0</ele><time>2026-03-25T10:01:53.001Z</time></trkpt><trkpt lat="37.46122434153003" lon="14.033501029462782"><ele>483.0</ele><time>2026-03-25T10:01:54.001Z</time></trkpt><trkpt lat="37.4613713366392" lon="14.033575146071053"><ele>483.0</ele><time>2026-03-25T10:01:55.001Z</time></trkpt><trkpt lat="37.46151577752937" lon="14.033650962784979"><ele>483.0</ele><time>2026-03-25T10:01:56.001Z</time></trkpt><trkpt lat="37.461657616740645" lon="14.03372459816974"><ele>483.0</ele><time>2026-03-25T10:01:57.001Z</time></trkpt><trkpt lat="37.46179212363059" lon="14.03379492933686"><ele>483.0</ele><time>2026-03-25T10:01:58.001Z</time></trkpt><trkpt lat="37.46191165721567" lon="14.033858612157257"><ele>482.99999999999994</ele><time>2026-03-25T10:01:59.001Z</time></trkpt><trkpt lat="37.46201595542079" lon="14.033912199975584"><ele>482.99999999999994</ele><time>2026-03-25T10:02:00.001Z</time></trkpt><trkpt lat="37.46211224032447" lon="14.033958721190391"><ele>483.0</ele><time>2026-03-25T10:02:01.001Z</time></trkpt><trkpt lat="37.462202278315736" lon="14.033996184321264"><ele>483.0</ele><time>2026-03-25T10:02:02.001Z</time></trkpt><trkpt lat="37.462284288699536" lon="14.034028524180886"><ele>483.0</ele><time>2026-03-25T10:02:03.001Z</time></trkpt><trkpt lat="37.462362518653855" lon="14.034059355994266"><ele>483.0</ele><time>2026-03-25T10:02:04.001Z</time></trkpt><trkpt lat="37.462447221472814" lon="14.034091596031105"><ele>483.0</ele><time>2026-03-25T10:02:05.001Z</time></trkpt><trkpt lat="37.462537118026724" lon="14.034123881003287"><ele>483.0</ele><time>2026-03-25T10:02:06.001Z</time></trkpt><trkpt lat="37.462626517829854" lon="14.034152757974354"><ele>483.0</ele><time>2026-03-25T10:02:07.001Z</time></trkpt><trkpt lat="37.462704400031235" lon="14.03417724156316"><ele>483.0</ele><time>2026-03-25T10:02:08.001Z</time></trkpt><trkpt lat="37.46278044738223" lon="14.034203212753617"><ele>483.3333333333333</ele><time>2026-03-25T10:02:09.001Z</time></trkpt><trkpt lat="37.46284812698538" lon="14.034226584210314"><ele>483.66666666666663</ele><time>2026-03-25T10:02:10.001Z</time></trkpt><trkpt lat="37.46291066928535" lon="14.034249703078439"><ele>484.0</ele><time>2026-03-25T10:02:11.001Z</time></trkpt><trkpt lat="37.46302822456015" lon="14.03429708188663"><ele>484.3333333333333</ele><time>2026-03-25T10:02:13.001Z</time></trkpt><trkpt lat="37.46309030740664" lon="14.034318880933059"><ele>484.66666666666663</ele><time>2026-03-25T10:02:14.001Z</time></trkpt><trkpt lat="37.463152883688196" lon="14.03434152713538"><ele>485.0</ele><time>2026-03-25T10:02:15.001Z</time></trkpt><trkpt lat="37.463214152854135" lon="14.034368432888261"><ele>484.3333333333333</ele><time>2026-03-25T10:02:16.001Z</time></trkpt><trkpt lat="37.46327422066077" lon="14.034400406562579"><ele>483.66666666666663</ele><time>2026-03-25T10:02:17.001Z</time></trkpt><trkpt lat="37.46333411859384" lon="14.034435879850479"><ele>483.0</ele><time>2026-03-25T10:02:18.001Z</time></trkpt><trkpt lat="37.46343736474177" lon="14.034502687992374"><ele>482.33333333333337</ele><time>2026-03-25T10:02:20.001Z</time></trkpt><trkpt lat="37.46352412833792" lon="14.034567828056206"><ele>481.6666666666667</ele><time>2026-03-25T10:02:22.001Z</time></trkpt><trkpt lat="37.46359114769503" lon="14.034625373015393"><ele>481.0</ele><time>2026-03-25T10:02:24.002Z</time></trkpt><trkpt lat="37.46365253320349" lon="14.034672770106557"><ele>481.00000000000006</ele><time>2026-03-25T10:02:26.002Z</time></trkpt><trkpt lat="37.46372704530366" lon="14.034725655956356"><ele>481.0</ele><time>2026-03-25T10:02:28.002Z</time></trkpt><trkpt lat="37.46379466578566" lon="14.034777610105573"><ele>481.0</ele><time>2026-03-25T10:02:30.002Z</time></trkpt><trkpt lat="37.46386717878686" lon="14.034843700587242"><ele>481.0</ele><time>2026-03-25T10:02:32.002Z</time></trkpt><trkpt lat="37.463936944635904" lon="14.034903802915478"><ele>481.00000000000006</ele><time>2026-03-25T10:02:34.002Z</time></trkpt><trkpt lat="37.464012810755435" lon="14.034964248336724"><ele>481.0</ele><time>2026-03-25T10:02:36.002Z</time></trkpt><trkpt lat="37.46409538741307" lon="14.035028930160633"><ele>481.20000000000005</ele><time>2026-03-25T10:02:38.002Z</time></trkpt><trkpt lat="37.464181861250566" lon="14.035098633543363"><ele>481.40000000000003</ele><time>2026-03-25T10:02:40.002Z</time></trkpt><trkpt lat="37.46426474174412" lon="14.035171056634356"><ele>481.6</ele><time>2026-03-25T10:02:42.002Z</time></trkpt><trkpt lat="37.464353362265356" lon="14.035242711424035"><ele>481.8</ele><time>2026-03-25T10:02:44.002Z</time></trkpt><trkpt lat="37.46444922760238" lon="14.035318622324846"><ele>482.0</ele><time>2026-03-25T10:02:46.002Z</time></trkpt><trkpt lat="37.464503403386814" lon="14.03536210882779"><ele>482.0</ele><time>2026-03-25T10:02:47.002Z</time></trkpt><trkpt lat="37.46455733769925" lon="14.035407813150773"><ele>482.00000000000006</ele><time>2026-03-25T10:02:48.002Z</time></trkpt><trkpt lat="37.46461009241214" lon="14.03545375818799"><ele>482.00000000000006</ele><time>2026-03-25T10:02:49.002Z</time></trkpt><trkpt lat="37.46471301900657" lon="14.035540173243096"><ele>482.0</ele><time>2026-03-25T10:02:50.999Z</time></trkpt><trkpt lat="37.464809073394235" lon="14.035620279380652"><ele>482.0</ele><time>2026-03-25T10:02:52.999Z</time></trkpt><trkpt lat="37.4648959192368" lon="14.03569368244086"><ele>481.8</ele><time>2026-03-25T10:02:54.999Z</time></trkpt><trkpt lat="37.464979308555854" lon="14.035768125910016"><ele>481.6</ele><time>2026-03-25T10:02:56.999Z</time></trkpt><trkpt lat="37.46507422397253" lon="14.035840407671662"><ele>481.40000000000003</ele><time>2026-03-25T10:02:58.999Z</time></trkpt><trkpt lat="37.46516692252739" lon="14.03591152236376"><ele>481.20000000000005</ele><time>2026-03-25T10:03:00.999Z</time></trkpt><trkpt lat="37.46526125908127" lon="14.035993025300268"><ele>481.0</ele><time>2026-03-25T10:03:02.999Z</time></trkpt><trkpt lat="37.46532293226045" lon="14.036043910928255"><ele>481.00000000000006</ele><time>2026-03-25T10:03:03.999Z</time></trkpt><trkpt lat="37.465391457111124" lon="14.036098069606695"><ele>481.0</ele><time>2026-03-25T10:03:05Z</time></trkpt><trkpt lat="37.46546539549775" lon="14.036155125195789"><ele>481.0</ele><time>2026-03-25T10:03:06Z</time></trkpt><trkpt lat="37.46553882780339" lon="14.036213129463098"><ele>481.0</ele><time>2026-03-25T10:03:07Z</time></trkpt><trkpt lat="37.46561185579822" lon="14.036275701958328"><ele>481.00000000000006</ele><time>2026-03-25T10:03:08Z</time></trkpt><trkpt lat="37.46568639654261" lon="14.036338153469055"><ele>481.0</ele><time>2026-03-25T10:03:09Z</time></trkpt><trkpt lat="37.46575942645097" lon="14.03639819793444"><ele>480.83333333333337</ele><time>2026-03-25T10:03:10Z</time></trkpt><trkpt lat="37.465828416172435" lon="14.036455328425149"><ele>480.6666666666667</ele><time>2026-03-25T10:03:11Z</time></trkpt><trkpt lat="37.465897273295795" lon="14.036509467156613"><ele>480.5</ele><time>2026-03-25T10:03:12Z</time></trkpt><trkpt lat="37.46596437025445" lon="14.036565298771222"><ele>480.33333333333337</ele><time>2026-03-25T10:03:13Z</time></trkpt><trkpt lat="37.466029210529435" lon="14.03662001400759"><ele>480.1666666666667</ele><time>2026-03-25T10:03:14Z</time></trkpt><trkpt lat="37.466094265230446" lon="14.036676705533285"><ele>480.0</ele><time>2026-03-25T10:03:15Z</time></trkpt><trkpt lat="37.46615853686174" lon="14.036732776213809"><ele>480.0</ele><time>2026-03-25T10:03:16Z</time></trkpt><trkpt lat="37.46622371772707" lon="14.036785469680659"><ele>480.0</ele><time>2026-03-25T10:03:17Z</time></trkpt><trkpt lat="37.46629067843817" lon="14.03683703116532"><ele>480.0</ele><time>2026-03-25T10:03:18Z</time></trkpt><trkpt lat="37.46635645953621" lon="14.036889457132663"><ele>480.0</ele><time>2026-03-25T10:03:19Z</time></trkpt><trkpt lat="37.46642234466026" lon="14.036944687027056"><ele>480.0</ele><time>2026-03-25T10:03:20Z</time></trkpt><trkpt lat="37.466491756566484" lon="14.03700277505184"><ele>480.0</ele><time>2026-03-25T10:03:21Z</time></trkpt><trkpt lat="37.46656085233893" lon="14.037057402154074"><ele>479.8333333333333</ele><time>2026-03-25T10:03:22Z</time></trkpt><trkpt lat="37.466629535490995" lon="14.03711118686333"><ele>479.66666666666663</ele><time>2026-03-25T10:03:23Z</time></trkpt><trkpt lat="37.466692810273656" lon="14.037158789957504"><ele>479.5</ele><time>2026-03-25T10:03:24Z</time></trkpt><trkpt lat="37.466755404938255" lon="14.037200204062826"><ele>479.3333333333333</ele><time>2026-03-25T10:03:25Z</time></trkpt><trkpt lat="37.46681693297435" lon="14.037232723920294"><ele>479.16666666666663</ele><time>2026-03-25T10:03:26Z</time></trkpt><trkpt lat="37.46687826870145" lon="14.037253464512224"><ele>479.0</ele><time>2026-03-25T10:03:27Z</time></trkpt><trkpt lat="37.467014611166334" lon="14.037330437436415"><ele>479.0</ele><time>2026-03-25T10:03:28Z</time></trkpt><trkpt lat="37.467098920538284" lon="14.037358315783273"><ele>479.0</ele><time>2026-03-25T10:03:29Z</time></trkpt><trkpt lat="37.467186216513525" lon="14.037381897028487"><ele>479.0</ele><time>2026-03-25T10:03:30Z</time></trkpt><trkpt lat="37.467277658565386" lon="14.037401138959721"><ele>479.0</ele><time>2026-03-25T10:03:31Z</time></trkpt><trkpt lat="37.467366721798214" lon="14.037423971153263"><ele>479.0</ele><time>2026-03-25T10:03:32Z</time></trkpt><trkpt lat="37.4674572478" lon="14.037440605227642"><ele>478.79999999999995</ele><time>2026-03-25T10:03:33Z</time></trkpt><trkpt lat="37.46754425810601" lon="14.037458383384136"><ele>478.59999999999997</ele><time>2026-03-25T10:03:34Z</time></trkpt><trkpt lat="37.46763965149832" lon="14.03747580365943"><ele>478.4</ele><time>2026-03-25T10:03:35Z</time></trkpt><trkpt lat="37.46773615042497" lon="14.037494481380488"><ele>478.2</ele><time>2026-03-25T10:03:36Z</time></trkpt><trkpt lat="37.4678325323476" lon="14.037519400778775"><ele>478.0</ele><time>2026-03-25T10:03:37Z</time></trkpt><trkpt lat="37.46793041079452" lon="14.037542547887634"><ele>478.2</ele><time>2026-03-25T10:03:38Z</time></trkpt><trkpt lat="37.468026270837804" lon="14.037564113640206"><ele>478.4</ele><time>2026-03-25T10:03:39Z</time></trkpt><trkpt lat="37.46812996917775" lon="14.03758972845357"><ele>478.59999999999997</ele><time>2026-03-25T10:03:40Z</time></trkpt><trkpt lat="37.46824262634925" lon="14.03762529154428"><ele>478.79999999999995</ele><time>2026-03-25T10:03:41Z</time></trkpt><trkpt lat="37.46835417715233" lon="14.037671543768308"><ele>479.0</ele><time>2026-03-25T10:03:42Z</time></trkpt><trkpt lat="37.46845625102731" lon="14.03772235427501"><ele>479.0</ele><time>2026-03-25T10:03:43.001Z</time></trkpt><trkpt lat="37.46855641024872" lon="14.037775738990819"><ele>479.0</ele><time>2026-03-25T10:03:44.001Z</time></trkpt><trkpt lat="37.468667364853665" lon="14.037827453736176"><ele>479.0</ele><time>2026-03-25T10:03:45.001Z</time></trkpt><trkpt lat="37.46877632996431" lon="14.037882336660244"><ele>479.0</ele><time>2026-03-25T10:03:46.001Z</time></trkpt><trkpt lat="37.46888145910886" lon="14.037932633021583"><ele>479.2</ele><time>2026-03-25T10:03:47.001Z</time></trkpt><trkpt lat="37.468979252084885" lon="14.037977659468996"><ele>479.4</ele><time>2026-03-25T10:03:48.001Z</time></trkpt><trkpt lat="37.46907698839738" lon="14.038025700089074"><ele>479.6</ele><time>2026-03-25T10:03:49.001Z</time></trkpt><trkpt lat="37.469164226611944" lon="14.0380742118265"><ele>479.8</ele><time>2026-03-25T10:03:50.001Z</time></trkpt><trkpt lat="37.46924502910293" lon="14.038112141236954"><ele>480.0</ele><time>2026-03-25T10:03:51.001Z</time></trkpt><trkpt lat="37.46933101108434" lon="14.038145158197164"><ele>480.0</ele><time>2026-03-25T10:03:52.001Z</time></trkpt><trkpt lat="37.469428053908466" lon="14.038180380120783"><ele>480.0</ele><time>2026-03-25T10:03:53.001Z</time></trkpt><trkpt lat="37.469525325967965" lon="14.038224609064118"><ele>480.0</ele><time>2026-03-25T10:03:54.001Z</time></trkpt><trkpt lat="37.46962510173875" lon="14.038275368111886"><ele>480.0</ele><time>2026-03-25T10:03:55.001Z</time></trkpt><trkpt lat="37.46972457462228" lon="14.038318300455936"><ele>480.0</ele><time>2026-03-25T10:03:56.001Z</time></trkpt><trkpt lat="37.46982162840659" lon="14.038367854288156"><ele>479.25</ele><time>2026-03-25T10:03:57.001Z</time></trkpt><trkpt lat="37.469926880604426" lon="14.038415958908844"><ele>478.5</ele><time>2026-03-25T10:03:58.001Z</time></trkpt><trkpt lat="37.47003532293112" lon="14.03846257092076"><ele>477.75</ele><time>2026-03-25T10:03:59.001Z</time></trkpt><trkpt lat="37.470149381327744" lon="14.03851285354353"><ele>477.0</ele><time>2026-03-25T10:04:00.001Z</time></trkpt><trkpt lat="37.470261699067656" lon="14.038568663141374"><ele>477.0</ele><time>2026-03-25T10:04:01.001Z</time></trkpt><trkpt lat="37.470377150441145" lon="14.038629524071675"><ele>477.0</ele><time>2026-03-25T10:04:02.001Z</time></trkpt><trkpt lat="37.47049382722037" lon="14.03869915186862"><ele>477.0</ele><time>2026-03-25T10:04:03.001Z</time></trkpt><trkpt lat="37.470610288712074" lon="14.038769512653678"><ele>477.0</ele><time>2026-03-25T10:04:04.001Z</time></trkpt><trkpt lat="37.47072269373872" lon="14.038842211403129"><ele>477.5</ele><time>2026-03-25T10:04:05.001Z</time></trkpt><trkpt lat="37.470833725624914" lon="14.038918968260086"><ele>478.0</ele><time>2026-03-25T10:04:06.001Z</time></trkpt><trkpt lat="37.47093479054233" lon="14.038997667082514"><ele>478.5</ele><time>2026-03-25T10:04:07.001Z</time></trkpt><trkpt lat="37.47103310837557" lon="14.039079565176467"><ele>479.0</ele><time>2026-03-25T10:04:08.001Z</time></trkpt><trkpt lat="37.471130590582725" lon="14.039164943654095"><ele>479.0</ele><time>2026-03-25T10:04:09.001Z</time></trkpt><trkpt lat="37.47121417314493" lon="14.039268436922157"><ele>479.0</ele><time>2026-03-25T10:04:10.001Z</time></trkpt><trkpt lat="37.47130874127656" lon="14.039356582411104"><ele>479.0</ele><time>2026-03-25T10:04:11.001Z</time></trkpt><trkpt lat="37.47139521501879" lon="14.039440066042134"><ele>479.0</ele><time>2026-03-25T10:04:12.001Z</time></trkpt><trkpt lat="37.47148040215859" lon="14.039523398373865"><ele>479.6</ele><time>2026-03-25T10:04:13.001Z</time></trkpt><trkpt lat="37.47156311450882" lon="14.039605381685694"><ele>480.2</ele><time>2026-03-25T10:04:14.001Z</time></trkpt><trkpt lat="37.471646404991496" lon="14.039689816662413"><ele>480.80000000000007</ele><time>2026-03-25T10:04:15.001Z</time></trkpt><trkpt lat="37.47173015387962" lon="14.03977485125508"><ele>481.40000000000003</ele><time>2026-03-25T10:04:16.001Z</time></trkpt><trkpt lat="37.47182171984363" lon="14.039843808248513"><ele>482.0</ele><time>2026-03-25T10:04:17.001Z</time></trkpt><trkpt lat="37.4719072444887" lon="14.039934609374331"><ele>481.6</ele><time>2026-03-25T10:04:18.001Z</time></trkpt><trkpt lat="37.47199042167475" lon="14.040023544769323"><ele>481.20000000000005</ele><time>2026-03-25T10:04:19.001Z</time></trkpt><trkpt lat="37.472072382863814" lon="14.040112816889241"><ele>480.8</ele><time>2026-03-25T10:04:20.001Z</time></trkpt><trkpt lat="37.472154851002365" lon="14.040207623032678"><ele>480.4</ele><time>2026-03-25T10:04:21.001Z</time></trkpt><trkpt lat="37.47224365747435" lon="14.04027606628645"><ele>480.0</ele><time>2026-03-25T10:04:22.001Z</time></trkpt><trkpt lat="37.47231299738776" lon="14.040384427004856"><ele>480.0</ele><time>2026-03-25T10:04:23.001Z</time></trkpt><trkpt lat="37.47239486220033" lon="14.04046019460833"><ele>480.0</ele><time>2026-03-25T10:04:24.001Z</time></trkpt><trkpt lat="37.47249029663987" lon="14.04054665746675"><ele>480.0</ele><time>2026-03-25T10:04:25.001Z</time></trkpt><trkpt lat="37.472589579835095" lon="14.040611805535494"><ele>480.0</ele><time>2026-03-25T10:04:26.001Z</time></trkpt><trkpt lat="37.47269843279123" lon="14.04066531366503"><ele>480.0</ele><time>2026-03-25T10:04:27.002Z</time></trkpt><trkpt lat="37.472806212210536" lon="14.040706480879408"><ele>480.0</ele><time>2026-03-25T10:04:28.002Z</time></trkpt><trkpt lat="37.472912214564246" lon="14.04074233079999"><ele>480.0</ele><time>2026-03-25T10:04:29.002Z</time></trkpt><trkpt lat="37.473016656038595" lon="14.040767874360084"><ele>480.0</ele><time>2026-03-25T10:04:30.002Z</time></trkpt><trkpt lat="37.47312176755616" lon="14.04079284483643"><ele>480.0</ele><time>2026-03-25T10:04:31.002Z</time></trkpt><trkpt lat="37.47322853127209" lon="14.040814059809412"><ele>480.0</ele><time>2026-03-25T10:04:32.002Z</time></trkpt><trkpt lat="37.47333552504829" lon="14.040835555820424"><ele>480.0</ele><time>2026-03-25T10:04:33.002Z</time></trkpt><trkpt lat="37.47343878053437" lon="14.04086702427364"><ele>480.0</ele><time>2026-03-25T10:04:34.002Z</time></trkpt><trkpt lat="37.47354535034831" lon="14.04089679945056"><ele>480.0</ele><time>2026-03-25T10:04:35.002Z</time></trkpt><trkpt lat="37.47363828523685" lon="14.040999596158747"><ele>480.0</ele><time>2026-03-25T10:04:36.002Z</time></trkpt><trkpt lat="37.47372488840801" lon="14.041093236698595"><ele>480.5</ele><time>2026-03-25T10:04:37.002Z</time></trkpt><trkpt lat="37.47380433623936" lon="14.041200317700387"><ele>481.0</ele><time>2026-03-25T10:04:38.002Z</time></trkpt><trkpt lat="37.47388105837012" lon="14.041322363545978"><ele>481.5</ele><time>2026-03-25T10:04:39.002Z</time></trkpt><trkpt lat="37.473950685860025" lon="14.041447877872782"><ele>482.0</ele><time>2026-03-25T10:04:40.002Z</time></trkpt><trkpt lat="37.474011365632784" lon="14.041564276916707"><ele>482.0</ele><time>2026-03-25T10:04:41.002Z</time></trkpt><trkpt lat="37.474065914107534" lon="14.041674720291669"><ele>482.00000000000006</ele><time>2026-03-25T10:04:42.002Z</time></trkpt><trkpt lat="37.47412020567899" lon="14.04179298920775"><ele>482.00000000000006</ele><time>2026-03-25T10:04:43.002Z</time></trkpt><trkpt lat="37.474175533303686" lon="14.041922753081046"><ele>482.0</ele><time>2026-03-25T10:04:44.002Z</time></trkpt><trkpt lat="37.474226065327635" lon="14.042058704942795"><ele>482.0</ele><time>2026-03-25T10:04:45.002Z</time></trkpt><trkpt lat="37.47427272700743" lon="14.042195413895882"><ele>482.0</ele><time>2026-03-25T10:04:46.002Z</time></trkpt><trkpt lat="37.47431816718297" lon="14.042333333978823"><ele>482.0</ele><time>2026-03-25T10:04:47.002Z</time></trkpt><trkpt lat="37.474361246958765" lon="14.042470670852836"><ele>482.0</ele><time>2026-03-25T10:04:48.002Z</time></trkpt><trkpt lat="37.47439911393656" lon="14.042603294749572"><ele>482.0</ele><time>2026-03-25T10:04:49.002Z</time></trkpt><trkpt lat="37.47441397583563" lon="14.042744516922378"><ele>481.25</ele><time>2026-03-25T10:04:50.002Z</time></trkpt><trkpt lat="37.47444067096338" lon="14.042889006445595"><ele>480.5</ele><time>2026-03-25T10:04:51.002Z</time></trkpt><trkpt lat="37.47446477840912" lon="14.04303803653629"><ele>479.75</ele><time>2026-03-25T10:04:52.002Z</time></trkpt><trkpt lat="37.47450199993841" lon="14.04319038232707"><ele>479.0</ele><time>2026-03-25T10:04:53.002Z</time></trkpt><trkpt lat="37.47451742751843" lon="14.043346346470063"><ele>478.0</ele><time>2026-03-25T10:04:54.002Z</time></trkpt><trkpt lat="37.47453412303503" lon="14.04349857309374"><ele>477.0</ele><time>2026-03-25T10:04:55.002Z</time></trkpt><trkpt lat="37.47455405401084" lon="14.043646905639374"><ele>476.0</ele><time>2026-03-25T10:04:55.999Z</time></trkpt><trkpt lat="37.474571273649794" lon="14.043791818592345"><ele>475.0</ele><time>2026-03-25T10:04:56.999Z</time></trkpt><trkpt lat="37.47458301602677" lon="14.043931000745648"><ele>475.0</ele><time>2026-03-25T10:04:57.999Z</time></trkpt><trkpt lat="37.474593720470466" lon="14.044065736948204"><ele>475.0</ele><time>2026-03-25T10:04:58.999Z</time></trkpt><trkpt lat="37.47460484074919" lon="14.044193484341092"><ele>475.0</ele><time>2026-03-25T10:04:59.999Z</time></trkpt><trkpt lat="37.47461537245602" lon="14.044325969922262"><ele>475.0</ele><time>2026-03-25T10:05:00.999Z</time></trkpt><trkpt lat="37.47462716706241" lon="14.044460159138671"><ele>475.0</ele><time>2026-03-25T10:05:01.999Z</time></trkpt><trkpt lat="37.47464019264936" lon="14.044597172529242"><ele>476.2</ele><time>2026-03-25T10:05:02.999Z</time></trkpt><trkpt lat="37.474653575839156" lon="14.044730198568235"><ele>477.4</ele><time>2026-03-25T10:05:03.999Z</time></trkpt><trkpt lat="37.47466508822727" lon="14.0448616054642"><ele>478.6</ele><time>2026-03-25T10:05:04.999Z</time></trkpt><trkpt lat="37.474677277149674" lon="14.044990790513753"><ele>479.8</ele><time>2026-03-25T10:05:05.999Z</time></trkpt><trkpt lat="37.47468857281947" lon="14.045123060303006"><ele>481.0</ele><time>2026-03-25T10:05:06.999Z</time></trkpt><trkpt lat="37.4746915481218" lon="14.045262401081386"><ele>481.0</ele><time>2026-03-25T10:05:07.999Z</time></trkpt><trkpt lat="37.47467248765992" lon="14.045396566603968"><ele>481.0</ele><time>2026-03-25T10:05:08.999Z</time></trkpt><trkpt lat="37.474663691657774" lon="14.045530490495894"><ele>481.0</ele><time>2026-03-25T10:05:09.999Z</time></trkpt><trkpt lat="37.47465482835247" lon="14.045662658410363"><ele>481.0</ele><time>2026-03-25T10:05:10.999Z</time></trkpt><trkpt lat="37.474644621787945" lon="14.045798640853953"><ele>481.0</ele><time>2026-03-25T10:05:11.999Z</time></trkpt><trkpt lat="37.47463453844132" lon="14.045933541751634"><ele>482.0</ele><time>2026-03-25T10:05:12.999Z</time></trkpt><trkpt lat="37.47462420317953" lon="14.04607181305685"><ele>483.0</ele><time>2026-03-25T10:05:13.999Z</time></trkpt><trkpt lat="37.47461353960445" lon="14.046214478538833"><ele>484.0</ele><time>2026-03-25T10:05:14.999Z</time></trkpt><trkpt lat="37.47460252529445" lon="14.046360025689264"><ele>485.0</ele><time>2026-03-25T10:05:15.999Z</time></trkpt><trkpt lat="37.474589995541216" lon="14.046505386677987"><ele>482.5</ele><time>2026-03-25T10:05:16.999Z</time></trkpt><trkpt lat="37.47457542362383" lon="14.046652602811763"><ele>480.0</ele><time>2026-03-25T10:05:17.999Z</time></trkpt><trkpt lat="37.474573762060224" lon="14.046803328456104"><ele>477.5</ele><time>2026-03-25T10:05:18.999Z</time></trkpt><trkpt lat="37.47455274858991" lon="14.046952851051897"><ele>475.0</ele><time>2026-03-25T10:05:20Z</time></trkpt><trkpt lat="37.47453238797388" lon="14.047099753246979"><ele>475.0</ele><time>2026-03-25T10:05:21Z</time></trkpt><trkpt lat="37.474514810829405" lon="14.047247977631805"><ele>475.0</ele><time>2026-03-25T10:05:22Z</time></trkpt><trkpt lat="37.47449399075067" lon="14.047392521623495"><ele>475.0</ele><time>2026-03-25T10:05:23Z</time></trkpt><trkpt lat="37.47446164575487" lon="14.047530226110899"><ele>475.0</ele><time>2026-03-25T10:05:24Z</time></trkpt><trkpt lat="37.47446141016609" lon="14.04766199993239"><ele>476.4</ele><time>2026-03-25T10:05:25Z</time></trkpt><trkpt lat="37.47442740702894" lon="14.047795254856988"><ele>477.8</ele><time>2026-03-25T10:05:26Z</time></trkpt><trkpt lat="37.47441928523318" lon="14.04793253898158"><ele>479.20000000000005</ele><time>2026-03-25T10:05:27Z</time></trkpt><trkpt lat="37.474440483473025" lon="14.048071212179813"><ele>480.6</ele><time>2026-03-25T10:05:28Z</time></trkpt><trkpt lat="37.47445882937754" lon="14.048204724418728"><ele>482.0</ele><time>2026-03-25T10:05:29Z</time></trkpt><trkpt lat="37.474488079855874" lon="14.04833397783798"><ele>483.6</ele><time>2026-03-25T10:05:30Z</time></trkpt><trkpt lat="37.47452232271735" lon="14.048451818439869"><ele>485.20000000000005</ele><time>2026-03-25T10:05:31Z</time></trkpt><trkpt lat="37.474555335097214" lon="14.048565431219934"><ele>486.8</ele><time>2026-03-25T10:05:32Z</time></trkpt><trkpt lat="37.47458301487387" lon="14.048672786418635"><ele>488.4</ele><time>2026-03-25T10:05:33Z</time></trkpt><trkpt lat="37.47461498713897" lon="14.048778476956207"><ele>490.0</ele><time>2026-03-25T10:05:34Z</time></trkpt><trkpt lat="37.47465248690514" lon="14.048894804140591"><ele>491.2</ele><time>2026-03-25T10:05:35Z</time></trkpt><trkpt lat="37.47469990865126" lon="14.049011447155141"><ele>492.4</ele><time>2026-03-25T10:05:36Z</time></trkpt><trkpt lat="37.47475970866719" lon="14.049117868189304"><ele>493.6</ele><time>2026-03-25T10:05:37Z</time></trkpt><trkpt lat="37.47482035011291" lon="14.049205256482082"><ele>494.8</ele><time>2026-03-25T10:05:38Z</time></trkpt><trkpt lat="37.474888496264434" lon="14.049284207904607"><ele>496.0</ele><time>2026-03-25T10:05:39Z</time></trkpt><trkpt lat="37.47496642900248" lon="14.049355558536686"><ele>496.00000000000006</ele><time>2026-03-25T10:05:40Z</time></trkpt><trkpt lat="37.475050951312866" lon="14.049420108907208"><ele>496.0</ele><time>2026-03-25T10:05:41Z</time></trkpt><trkpt lat="37.47513143127803" lon="14.049476661403645"><ele>496.0</ele><time>2026-03-25T10:05:42Z</time></trkpt><trkpt lat="37.47520834739441" lon="14.049533128469784"><ele>496.0</ele><time>2026-03-25T10:05:43Z</time></trkpt><trkpt lat="37.475272579298704" lon="14.049584859986354"><ele>496.00000000000006</ele><time>2026-03-25T10:05:44Z</time></trkpt><trkpt lat="37.47533268364472" lon="14.049629270272332"><ele>496.0</ele><time>2026-03-25T10:05:45Z</time></trkpt><trkpt lat="37.47539514326851" lon="14.049677055780775"><ele>496.8</ele><time>2026-03-25T10:05:46Z</time></trkpt><trkpt lat="37.47545538742656" lon="14.049721051541848"><ele>497.6</ele><time>2026-03-25T10:05:47Z</time></trkpt><trkpt lat="37.47555237069889" lon="14.049790371634852"><ele>498.4</ele><time>2026-03-25T10:05:49Z</time></trkpt><trkpt lat="37.475631464798376" lon="14.049848412870226"><ele>499.2</ele><time>2026-03-25T10:05:51Z</time></trkpt><trkpt lat="37.475725443630786" lon="14.049940878340545"><ele>500.0</ele><time>2026-03-25T10:05:53Z</time></trkpt><trkpt lat="37.47579162481338" lon="14.05002758900967"><ele>498.66666666666663</ele><time>2026-03-25T10:05:55Z</time></trkpt><trkpt lat="37.47585282001327" lon="14.050100057485443"><ele>497.3333333333333</ele><time>2026-03-25T10:05:57.001Z</time></trkpt><trkpt lat="37.475941785420765" lon="14.050178468467697"><ele>496.0</ele><time>2026-03-25T10:05:59.001Z</time></trkpt><trkpt lat="37.4759995547043" lon="14.050213406546133"><ele>494.66666666666663</ele><time>2026-03-25T10:06:00.001Z</time></trkpt><trkpt lat="37.476104273111815" lon="14.050264579532431"><ele>493.3333333333333</ele><time>2026-03-25T10:06:02.001Z</time></trkpt><trkpt lat="37.47617417010298" lon="14.0502949179271"><ele>492.0</ele><time>2026-03-25T10:06:04.001Z</time></trkpt><trkpt lat="37.4762335284012" lon="14.050323610643563"><ele>492.8571428571429</ele><time>2026-03-25T10:06:07.001Z</time></trkpt><trkpt lat="37.476292556622774" lon="14.050364628964163"><ele>493.7142857142857</ele><time>2026-03-25T10:06:11.001Z</time></trkpt><trkpt lat="37.476352873133294" lon="14.05041007365707"><ele>494.57142857142856</ele><time>2026-03-25T10:06:13.001Z</time></trkpt><trkpt lat="37.47641151924831" lon="14.050480226210594"><ele>495.42857142857144</ele><time>2026-03-25T10:06:15.001Z</time></trkpt><trkpt lat="37.476443637723584" lon="14.050549989533884"><ele>496.2857142857142</ele><time>2026-03-25T10:06:21.001Z</time></trkpt><trkpt lat="37.47650623824622" lon="14.050639384043068"><ele>497.1428571428571</ele><time>2026-03-25T10:06:26.001Z</time></trkpt><trkpt lat="37.47655580166405" lon="14.050705779457562"><ele>498.0</ele><time>2026-03-25T10:06:28.001Z</time></trkpt><trkpt lat="37.47663717403783" lon="14.050759601516367"><ele>498.0</ele><time>2026-03-25T10:06:30.001Z</time></trkpt><trkpt lat="37.476741872280655" lon="14.050714227527706"><ele>498.0</ele><time>2026-03-25T10:06:32.001Z</time></trkpt><trkpt lat="37.476874983919735" lon="14.050725240863365"><ele>498.0</ele><time>2026-03-25T10:06:34.001Z</time></trkpt><trkpt lat="37.47698259375449" lon="14.050780772994782"><ele>498.0</ele><time>2026-03-25T10:06:36.001Z</time></trkpt><trkpt lat="37.47708814409785" lon="14.050843863115585"><ele>498.4</ele><time>2026-03-25T10:06:38.002Z</time></trkpt><trkpt lat="37.477201494645136" lon="14.050915910139741"><ele>498.79999999999995</ele><time>2026-03-25T10:06:40.002Z</time></trkpt><trkpt lat="37.4772630035843" lon="14.050949230208017"><ele>499.2</ele><time>2026-03-25T10:06:41.002Z</time></trkpt><trkpt lat="37.47736062090749" lon="14.05100880947436"><ele>499.6</ele><time>2026-03-25T10:06:43.002Z</time></trkpt><trkpt lat="37.477431474963105" lon="14.05106713619996"><ele>500.0</ele><time>2026-03-25T10:06:45.002Z</time></trkpt><trkpt lat="37.47752703148172" lon="14.051111906814128"><ele>500.0</ele><time>2026-03-25T10:06:54.002Z</time></trkpt><trkpt lat="37.47766101834556" lon="14.0511769650645"><ele>500.0</ele><time>2026-03-25T10:06:56.002Z</time></trkpt><trkpt lat="37.47775495093758" lon="14.051234147178974"><ele>500.0</ele><time>2026-03-25T10:06:57.002Z</time></trkpt><trkpt lat="37.4778615706886" lon="14.05129427208727"><ele>500.0</ele><time>2026-03-25T10:06:58.002Z</time></trkpt><trkpt lat="37.47797332830508" lon="14.0513576555858"><ele>499.25</ele><time>2026-03-25T10:06:59.002Z</time></trkpt><trkpt lat="37.47808717938456" lon="14.051423111681165"><ele>498.5</ele><time>2026-03-25T10:07:00.002Z</time></trkpt><trkpt lat="37.47820321218748" lon="14.051493054086349"><ele>497.75</ele><time>2026-03-25T10:07:01.002Z</time></trkpt><trkpt lat="37.478321454032795" lon="14.051565417414858"><ele>497.0</ele><time>2026-03-25T10:07:01.999Z</time></trkpt><trkpt lat="37.47844151892664" lon="14.051635575424402"><ele>497.0</ele><time>2026-03-25T10:07:02.999Z</time></trkpt><trkpt lat="37.478559593057156" lon="14.05170472353096"><ele>497.0</ele><time>2026-03-25T10:07:03.999Z</time></trkpt><trkpt lat="37.478676517052705" lon="14.051773127569412"><ele>497.0</ele><time>2026-03-25T10:07:04.999Z</time></trkpt><trkpt lat="37.478788221922464" lon="14.051838858807535"><ele>497.0</ele><time>2026-03-25T10:07:05.999Z</time></trkpt><trkpt lat="37.47889821133594" lon="14.051905033115627"><ele>498.25</ele><time>2026-03-25T10:07:06.999Z</time></trkpt><trkpt lat="37.47900676545017" lon="14.051969198629893"><ele>499.5</ele><time>2026-03-25T10:07:07.999Z</time></trkpt><trkpt lat="37.479112672145746" lon="14.052033878471507"><ele>500.75</ele><time>2026-03-25T10:07:08.999Z</time></trkpt><trkpt lat="37.47921756598644" lon="14.052098141328408"><ele>502.0</ele><time>2026-03-25T10:07:09.999Z</time></trkpt><trkpt lat="37.47932404329727" lon="14.052162998055126"><ele>502.0</ele><time>2026-03-25T10:07:10.999Z</time></trkpt><trkpt lat="37.47943062902961" lon="14.052225579434758"><ele>502.0</ele><time>2026-03-25T10:07:11.999Z</time></trkpt><trkpt lat="37.47953928967994" lon="14.052289980568638"><ele>502.0</ele><time>2026-03-25T10:07:12.999Z</time></trkpt><trkpt lat="37.47964839583702" lon="14.052353310348089"><ele>502.0</ele><time>2026-03-25T10:07:13.999Z</time></trkpt><trkpt lat="37.479759779554726" lon="14.052418558852157"><ele>503.25</ele><time>2026-03-25T10:07:14.999Z</time></trkpt><trkpt lat="37.479870973477745" lon="14.052484324455614"><ele>504.5</ele><time>2026-03-25T10:07:15.999Z</time></trkpt><trkpt lat="37.47998182058599" lon="14.052550105245967"><ele>505.75</ele><time>2026-03-25T10:07:16.999Z</time></trkpt><trkpt lat="37.48009027365338" lon="14.052612210298673"><ele>507.0</ele><time>2026-03-25T10:07:17.999Z</time></trkpt><trkpt lat="37.48020022469812" lon="14.052677995734687"><ele>507.0</ele><time>2026-03-25T10:07:18.999Z</time></trkpt><trkpt lat="37.4803073736385" lon="14.05273873570402"><ele>507.00000000000006</ele><time>2026-03-25T10:07:19.999Z</time></trkpt><trkpt lat="37.48040789559714" lon="14.052796977300645"><ele>507.00000000000006</ele><time>2026-03-25T10:07:20.999Z</time></trkpt><trkpt lat="37.480503558743685" lon="14.052852576112008"><ele>507.0</ele><time>2026-03-25T10:07:21.999Z</time></trkpt><trkpt lat="37.48059252437175" lon="14.052907085902607"><ele>507.0</ele><time>2026-03-25T10:07:22.999Z</time></trkpt><trkpt lat="37.48067338576308" lon="14.052955553974968"><ele>507.6</ele><time>2026-03-25T10:07:23.999Z</time></trkpt><trkpt lat="37.48074066863101" lon="14.05300093820793"><ele>508.20000000000005</ele><time>2026-03-25T10:07:24.999Z</time></trkpt><trkpt lat="37.480787288909674" lon="14.053056315957898"><ele>508.8</ele><time>2026-03-25T10:07:25.999Z</time></trkpt><trkpt lat="37.48086326483772" lon="14.053098372904198"><ele>509.4</ele><time>2026-03-25T10:07:28Z</time></trkpt><trkpt lat="37.48078662672785" lon="14.053287000388867"><ele>510.0</ele><time>2026-03-25T10:07:29Z</time></trkpt><trkpt lat="37.48074967944645" lon="14.053406334404436"><ele>510.0</ele><time>2026-03-25T10:07:30Z</time></trkpt><trkpt lat="37.48068748717232" lon="14.053548532949831"><ele>510.0</ele><time>2026-03-25T10:07:31Z</time></trkpt><trkpt lat="37.48063971902346" lon="14.053710561917615"><ele>510.0</ele><time>2026-03-25T10:07:32Z</time></trkpt><trkpt lat="37.48059609990765" lon="14.053863810532125"><ele>510.0</ele><time>2026-03-25T10:07:33Z</time></trkpt><trkpt lat="37.48054771191946" lon="14.054004564316605"><ele>510.0</ele><time>2026-03-25T10:07:34Z</time></trkpt><trkpt lat="37.48049767977852" lon="14.054137286170999"><ele>510.0</ele><time>2026-03-25T10:07:35Z</time></trkpt><trkpt lat="37.480455983558755" lon="14.054266791285105"><ele>510.0</ele><time>2026-03-25T10:07:36Z</time></trkpt><trkpt lat="37.48041517904498" lon="14.0543916391231"><ele>510.0</ele><time>2026-03-25T10:07:37Z</time></trkpt><trkpt lat="37.48037543899094" lon="14.054512141162247"><ele>510.0</ele><time>2026-03-25T10:07:38Z</time></trkpt><trkpt lat="37.48033800351374" lon="14.054629246548345"><ele>509.4</ele><time>2026-03-25T10:07:39Z</time></trkpt><trkpt lat="37.48029451684098" lon="14.054736177381129"><ele>508.8</ele><time>2026-03-25T10:07:40Z</time></trkpt><trkpt lat="37.48025902130643" lon="14.054852945529639"><ele>508.20000000000005</ele><time>2026-03-25T10:07:41Z</time></trkpt><trkpt lat="37.48022170434848" lon="14.05496519526915"><ele>507.6</ele><time>2026-03-25T10:07:42Z</time></trkpt><trkpt lat="37.48018635064959" lon="14.0550736431645"><ele>507.0</ele><time>2026-03-25T10:07:43Z</time></trkpt><trkpt lat="37.48015139359116" lon="14.055177703423249"><ele>506.0</ele><time>2026-03-25T10:07:44Z</time></trkpt><trkpt lat="37.48011612811781" lon="14.055275033256722"><ele>505.00000000000006</ele><time>2026-03-25T10:07:45Z</time></trkpt><trkpt lat="37.480085818722344" lon="14.055364493470046"><ele>504.00000000000006</ele><time>2026-03-25T10:07:46Z</time></trkpt><trkpt lat="37.48005516673494" lon="14.055444311302791"><ele>503.0</ele><time>2026-03-25T10:07:47Z</time></trkpt><trkpt lat="37.48002110595789" lon="14.055567416290458"><ele>502.0</ele><time>2026-03-25T10:07:49Z</time></trkpt><trkpt lat="37.479905660367436" lon="14.055619494607086"><ele>502.0</ele><time>2026-03-25T10:07:51Z</time></trkpt><trkpt lat="37.4798270338042" lon="14.055682479833765"><ele>502.00000000000006</ele><time>2026-03-25T10:07:53Z</time></trkpt><trkpt lat="37.47975129039902" lon="14.055810447468529"><ele>502.00000000000006</ele><time>2026-03-25T10:07:55Z</time></trkpt><trkpt lat="37.479716588573105" lon="14.055880343493552"><ele>502.0</ele><time>2026-03-25T10:07:56Z</time></trkpt><trkpt lat="37.47962831922403" lon="14.055952169158262"><ele>502.0</ele><time>2026-03-25T10:07:58Z</time></trkpt><trkpt lat="37.47953227447339" lon="14.056015983973195"><ele>501.5714285714285</ele><time>2026-03-25T10:08:00.001Z</time></trkpt><trkpt lat="37.47947531599371" lon="14.056054534364224"><ele>501.1428571428571</ele><time>2026-03-25T10:08:01.001Z</time></trkpt><trkpt lat="37.47942405145721" lon="14.056126534513803"><ele>500.7142857142857</ele><time>2026-03-25T10:08:02.001Z</time></trkpt><trkpt lat="37.47936338593617" lon="14.056171887955891"><ele>500.2857142857143</ele><time>2026-03-25T10:08:03.001Z</time></trkpt><trkpt lat="37.479306488152325" lon="14.056210763804563"><ele>499.8571428571429</ele><time>2026-03-25T10:08:04.001Z</time></trkpt><trkpt lat="37.47924584082697" lon="14.056252988682655"><ele>499.4285714285715</ele><time>2026-03-25T10:08:05.001Z</time></trkpt><trkpt lat="37.47916152378993" lon="14.056271653962902"><ele>499.00000000000006</ele><time>2026-03-25T10:08:06.001Z</time></trkpt><trkpt lat="37.47908816962624" lon="14.056328584725895"><ele>499.00000000000006</ele><time>2026-03-25T10:08:07.001Z</time></trkpt><trkpt lat="37.47902429483616" lon="14.056376377847828"><ele>499.0</ele><time>2026-03-25T10:08:08.001Z</time></trkpt><trkpt lat="37.4789635699267" lon="14.05642196625736"><ele>499.0</ele><time>2026-03-25T10:08:09.001Z</time></trkpt><trkpt lat="37.47889822008969" lon="14.056471126878439"><ele>499.0</ele><time>2026-03-25T10:08:10.001Z</time></trkpt><trkpt lat="37.4788326205144" lon="14.056520475405193"><ele>499.00000000000006</ele><time>2026-03-25T10:08:11.001Z</time></trkpt><trkpt lat="37.47876573967137" lon="14.05657078686646"><ele>499.0</ele><time>2026-03-25T10:08:12.001Z</time></trkpt><trkpt lat="37.47871229213205" lon="14.056665521798001"><ele>498.79999999999995</ele><time>2026-03-25T10:08:13.001Z</time></trkpt><trkpt lat="37.47863585808437" lon="14.056723542988005"><ele>498.59999999999997</ele><time>2026-03-25T10:08:14.001Z</time></trkpt><trkpt lat="37.47855703627231" lon="14.056780809435258"><ele>498.4</ele><time>2026-03-25T10:08:15.001Z</time></trkpt><trkpt lat="37.47847916350776" lon="14.056841470113117"><ele>498.2</ele><time>2026-03-25T10:08:16.001Z</time></trkpt><trkpt lat="37.478403408315785" lon="14.056900992893848"><ele>498.0</ele><time>2026-03-25T10:08:17.001Z</time></trkpt><trkpt lat="37.47831480020489" lon="14.056935064443024"><ele>498.0</ele><time>2026-03-25T10:08:18.001Z</time></trkpt><trkpt lat="37.47825506472844" lon="14.05703079684413"><ele>497.99999999999994</ele><time>2026-03-25T10:08:19.001Z</time></trkpt><trkpt lat="37.47818174369967" lon="14.057109826146027"><ele>497.99999999999994</ele><time>2026-03-25T10:08:20.001Z</time></trkpt><trkpt lat="37.47811164497341" lon="14.05719032866259"><ele>498.0</ele><time>2026-03-25T10:08:21.001Z</time></trkpt><trkpt lat="37.478049982516374" lon="14.057272937354988"><ele>498.0</ele><time>2026-03-25T10:08:22.001Z</time></trkpt><trkpt lat="37.47797896091363" lon="14.057340607714423"><ele>497.6666666666667</ele><time>2026-03-25T10:08:23.001Z</time></trkpt><trkpt lat="37.477929437827406" lon="14.057423817697982"><ele>497.33333333333337</ele><time>2026-03-25T10:08:24.001Z</time></trkpt><trkpt lat="37.47790827562116" lon="14.05753052371542"><ele>497.0</ele><time>2026-03-25T10:08:25.001Z</time></trkpt><trkpt lat="37.47787511290142" lon="14.05762075539128"><ele>496.6666666666667</ele><time>2026-03-25T10:08:26.001Z</time></trkpt><trkpt lat="37.477829747299815" lon="14.057703739380786"><ele>496.33333333333337</ele><time>2026-03-25T10:08:27.001Z</time></trkpt><trkpt lat="37.47780285938413" lon="14.057791838793422"><ele>496.0</ele><time>2026-03-25T10:08:28.001Z</time></trkpt><trkpt lat="37.47779272944754" lon="14.057882351073951"><ele>496.0</ele><time>2026-03-25T10:08:29.001Z</time></trkpt><trkpt lat="37.47773691243336" lon="14.05800947627705"><ele>496.0</ele><time>2026-03-25T10:08:31.001Z</time></trkpt><trkpt lat="37.47765777970046" lon="14.058088036128934"><ele>496.0</ele><time>2026-03-25T10:08:33.001Z</time></trkpt><trkpt lat="37.47756224330149" lon="14.058067876435825"><ele>496.0</ele><time>2026-03-25T10:08:34.001Z</time></trkpt><trkpt lat="37.47748705447504" lon="14.058105463444688"><ele>496.0</ele><time>2026-03-25T10:08:35.001Z</time></trkpt><trkpt lat="37.47732618695084" lon="14.05816041542093"><ele>496.0</ele><time>2026-03-25T10:08:37.002Z</time></trkpt><trkpt lat="37.47724974167384" lon="14.05817463718057"><ele>496.0</ele><time>2026-03-25T10:08:38.002Z</time></trkpt><trkpt lat="37.47717332427934" lon="14.058164232155288"><ele>496.0</ele><time>2026-03-25T10:08:39.002Z</time></trkpt><trkpt lat="37.47709646610949" lon="14.058113556330225"><ele>496.0</ele><time>2026-03-25T10:08:40.002Z</time></trkpt><trkpt lat="37.47701363721504" lon="14.058041659175172"><ele>496.0</ele><time>2026-03-25T10:08:41.002Z</time></trkpt><trkpt lat="37.47692347487131" lon="14.057953716325612"><ele>494.6666666666667</ele><time>2026-03-25T10:08:42.002Z</time></trkpt><trkpt lat="37.47680670582215" lon="14.057847104571799"><ele>493.33333333333337</ele><time>2026-03-25T10:08:43.002Z</time></trkpt><trkpt lat="37.476698847546906" lon="14.057692868792893"><ele>492.0</ele><time>2026-03-25T10:08:44.002Z</time></trkpt><trkpt lat="37.47656390776469" lon="14.057570759046008"><ele>492.0</ele><time>2026-03-25T10:08:45.002Z</time></trkpt><trkpt lat="37.47641772867736" lon="14.057453097589786"><ele>492.0</ele><time>2026-03-25T10:08:46.002Z</time></trkpt><trkpt lat="37.47626812706315" lon="14.057355529009493"><ele>492.0</ele><time>2026-03-25T10:08:47.002Z</time></trkpt><trkpt lat="37.476133870833266" lon="14.057256712393261"><ele>492.33333333333337</ele><time>2026-03-25T10:08:48.002Z</time></trkpt><trkpt lat="37.475999033124154" lon="14.057169646569477"><ele>492.6666666666667</ele><time>2026-03-25T10:08:49.002Z</time></trkpt><trkpt lat="37.47585986644723" lon="14.0570905085585"><ele>493.0</ele><time>2026-03-25T10:08:50.002Z</time></trkpt><trkpt lat="37.47572185927115" lon="14.056993726915033"><ele>493.0</ele><time>2026-03-25T10:08:51.002Z</time></trkpt><trkpt lat="37.47557495131509" lon="14.056921863043598"><ele>493.0</ele><time>2026-03-25T10:08:52.002Z</time></trkpt><trkpt lat="37.475426260380495" lon="14.056850118630152"><ele>493.0</ele><time>2026-03-25T10:08:53.002Z</time></trkpt><trkpt lat="37.47527460471482" lon="14.05677694371365"><ele>493.6666666666667</ele><time>2026-03-25T10:08:54.002Z</time></trkpt><trkpt lat="37.47510065511465" lon="14.056778129498399"><ele>494.33333333333337</ele><time>2026-03-25T10:08:55.002Z</time></trkpt><trkpt lat="37.47493961426993" lon="14.056741796538041"><ele>495.0</ele><time>2026-03-25T10:08:56.002Z</time></trkpt><trkpt lat="37.4747874944495" lon="14.056693838841339"><ele>495.0</ele><time>2026-03-25T10:08:57.002Z</time></trkpt><trkpt lat="37.47463709619178" lon="14.056670342890946"><ele>495.0</ele><time>2026-03-25T10:08:58.002Z</time></trkpt><trkpt lat="37.47449287225371" lon="14.05665070070679"><ele>495.0</ele><time>2026-03-25T10:08:59.002Z</time></trkpt><trkpt lat="37.47435011283306" lon="14.056633094018872"><ele>495.0</ele><time>2026-03-25T10:09:00.002Z</time></trkpt><trkpt lat="37.47420956667662" lon="14.056617574189833"><ele>494.75</ele><time>2026-03-25T10:09:01.002Z</time></trkpt><trkpt lat="37.474071700751935" lon="14.056602066414941"><ele>494.5</ele><time>2026-03-25T10:09:02.002Z</time></trkpt><trkpt lat="37.4739327837295" lon="14.05658457848418"><ele>494.25</ele><time>2026-03-25T10:09:03.002Z</time></trkpt><trkpt lat="37.473793102668495" lon="14.056566994423193"><ele>494.0</ele><time>2026-03-25T10:09:04.002Z</time></trkpt><trkpt lat="37.473660148075496" lon="14.05655025843229"><ele>494.0</ele><time>2026-03-25T10:09:05.002Z</time></trkpt><trkpt lat="37.47352642705831" lon="14.05653484218269"><ele>494.0</ele><time>2026-03-25T10:09:06.002Z</time></trkpt><trkpt lat="37.47339653339258" lon="14.056520900384363"><ele>494.0</ele><time>2026-03-25T10:09:07.002Z</time></trkpt><trkpt lat="37.47327229749894" lon="14.056509028523122"><ele>494.0</ele><time>2026-03-25T10:09:07.999Z</time></trkpt><trkpt lat="37.47314747803037" lon="14.056497100848338"><ele>494.0</ele><time>2026-03-25T10:09:08.999Z</time></trkpt><trkpt lat="37.473027001724105" lon="14.05648663512578"><ele>494.0</ele><time>2026-03-25T10:09:09.999Z</time></trkpt><trkpt lat="37.472912542519985" lon="14.056496125455455"><ele>494.0</ele><time>2026-03-25T10:09:10.999Z</time></trkpt><trkpt lat="37.47280147548153" lon="14.056484929352134"><ele>494.0</ele><time>2026-03-25T10:09:11.999Z</time></trkpt><trkpt lat="37.47269251684698" lon="14.056473296830934"><ele>496.25</ele><time>2026-03-25T10:09:12.999Z</time></trkpt><trkpt lat="37.472590338886846" lon="14.056459263396617"><ele>498.5</ele><time>2026-03-25T10:09:13.999Z</time></trkpt><trkpt lat="37.47237633258756" lon="14.056432523201655"><ele>500.75</ele><time>2026-03-25T10:09:15.999Z</time></trkpt><trkpt lat="37.47225957555965" lon="14.056418717423906"><ele>503.0</ele><time>2026-03-25T10:09:16.999Z</time></trkpt><trkpt lat="37.47213991940687" lon="14.056404131261333"><ele>502.0</ele><time>2026-03-25T10:09:17.999Z</time></trkpt><trkpt lat="37.47202021238978" lon="14.056390755354464"><ele>501.0</ele><time>2026-03-25T10:09:18.999Z</time></trkpt><trkpt lat="37.47190234410124" lon="14.056379131753296"><ele>500.0</ele><time>2026-03-25T10:09:19.999Z</time></trkpt><trkpt lat="37.47178934351109" lon="14.056368056137531"><ele>499.0</ele><time>2026-03-25T10:09:20.999Z</time></trkpt><trkpt lat="37.47168003865449" lon="14.056355320904151"><ele>499.0</ele><time>2026-03-25T10:09:21.999Z</time></trkpt><trkpt lat="37.47157472986494" lon="14.056343598707473"><ele>499.0</ele><time>2026-03-25T10:09:22.999Z</time></trkpt><trkpt lat="37.47147010034824" lon="14.056330905008243"><ele>499.0</ele><time>2026-03-25T10:09:23.999Z</time></trkpt><trkpt lat="37.47136047160195" lon="14.05629462739137"><ele>499.0</ele><time>2026-03-25T10:09:24.999Z</time></trkpt><trkpt lat="37.4712486401299" lon="14.056278865127119"><ele>499.0</ele><time>2026-03-25T10:09:25.999Z</time></trkpt><trkpt lat="37.47113644578391" lon="14.056266251884466"><ele>497.25</ele><time>2026-03-25T10:09:26.999Z</time></trkpt><trkpt lat="37.47102205971984" lon="14.056253665505963"><ele>495.5</ele><time>2026-03-25T10:09:27.999Z</time></trkpt><trkpt lat="37.47090388239067" lon="14.056238864315196"><ele>493.75</ele><time>2026-03-25T10:09:28.999Z</time></trkpt><trkpt lat="37.47077227586091" lon="14.056220271360713"><ele>492.0</ele><time>2026-03-25T10:09:29.999Z</time></trkpt><trkpt lat="37.47063191948949" lon="14.056198781911085"><ele>492.0</ele><time>2026-03-25T10:09:30.999Z</time></trkpt><trkpt lat="37.47050796083978" lon="14.056179059704057"><ele>492.00000000000006</ele><time>2026-03-25T10:09:31.999Z</time></trkpt><trkpt lat="37.470398483603596" lon="14.056161641566874"><ele>492.00000000000006</ele><time>2026-03-25T10:09:33Z</time></trkpt><trkpt lat="37.470299803895244" lon="14.056145941501097"><ele>492.0</ele><time>2026-03-25T10:09:34Z</time></trkpt><trkpt lat="37.470217011894555" lon="14.056135346211702"><ele>492.0</ele><time>2026-03-25T10:09:35Z</time></trkpt><trkpt lat="37.470116946618234" lon="14.056118051239801"><ele>492.0</ele><time>2026-03-25T10:09:37Z</time></trkpt><trkpt lat="37.470054477858994" lon="14.056106937442035"><ele>492.00000000000006</ele><time>2026-03-25T10:09:41Z</time></trkpt><trkpt lat="37.469977357487934" lon="14.05629490034927"><ele>492.00000000000006</ele><time>2026-03-25T10:09:44Z</time></trkpt><trkpt lat="37.469960433237986" lon="14.05640077515358"><ele>492.0</ele><time>2026-03-25T10:09:45Z</time></trkpt><trkpt lat="37.469962781316234" lon="14.056512657616551"><ele>492.0</ele><time>2026-03-25T10:09:46Z</time></trkpt><trkpt lat="37.46998114448084" lon="14.05663261610673"><ele>492.0</ele><time>2026-03-25T10:09:47Z</time></trkpt><trkpt lat="37.470034266165015" lon="14.056750843987711"><ele>492.0</ele><time>2026-03-25T10:09:48Z</time></trkpt><trkpt lat="37.47002118555148" lon="14.056917984173667"><ele>492.0</ele><time>2026-03-25T10:09:49Z</time></trkpt><trkpt lat="37.47003819710285" lon="14.057066860514329"><ele>492.0</ele><time>2026-03-25T10:09:50Z</time></trkpt><trkpt lat="37.47006886828715" lon="14.057215470744632"><ele>492.0</ele><time>2026-03-25T10:09:51Z</time></trkpt><trkpt lat="37.47012551922333" lon="14.05736407228286"><ele>492.0</ele><time>2026-03-25T10:09:52Z</time></trkpt><trkpt lat="37.47020679523395" lon="14.057500068137958"><ele>492.0</ele><time>2026-03-25T10:09:53Z</time></trkpt><trkpt lat="37.47030242557253" lon="14.057607182070596"><ele>492.0</ele><time>2026-03-25T10:09:54Z</time></trkpt><trkpt lat="37.470416550840696" lon="14.057671329265212"><ele>492.75</ele><time>2026-03-25T10:09:55Z</time></trkpt><trkpt lat="37.47053868127688" lon="14.05770134082347"><ele>493.5</ele><time>2026-03-25T10:09:56Z</time></trkpt><trkpt lat="37.47066716464247" lon="14.057672283096776"><ele>494.25</ele><time>2026-03-25T10:09:57Z</time></trkpt><trkpt lat="37.470804333944024" lon="14.057674326924777"><ele>495.0</ele><time>2026-03-25T10:09:58Z</time></trkpt><trkpt lat="37.47095041668612" lon="14.057641260935418"><ele>495.0</ele><time>2026-03-25T10:09:59Z</time></trkpt><trkpt lat="37.47109918946654" lon="14.05765910607761"><ele>495.0</ele><time>2026-03-25T10:10:00Z</time></trkpt><trkpt lat="37.47124409078784" lon="14.057698839054952"><ele>495.0</ele><time>2026-03-25T10:10:01.001Z</time></trkpt><trkpt lat="37.47138040876971" lon="14.05778778202077"><ele>496.5</ele><time>2026-03-25T10:10:02.001Z</time></trkpt><trkpt lat="37.471517087390666" lon="14.057884579964314"><ele>498.0</ele><time>2026-03-25T10:10:03.001Z</time></trkpt><trkpt lat="37.47163982209249" lon="14.057993924087233"><ele>499.5</ele><time>2026-03-25T10:10:04.001Z</time></trkpt><trkpt lat="37.471747311588885" lon="14.05810519642361"><ele>501.0</ele><time>2026-03-25T10:10:05.001Z</time></trkpt><trkpt lat="37.471859557411385" lon="14.058194143091947"><ele>501.25</ele><time>2026-03-25T10:10:06.001Z</time></trkpt><trkpt lat="37.47193543540506" lon="14.058331287946427"><ele>501.5</ele><time>2026-03-25T10:10:07.001Z</time></trkpt><trkpt lat="37.47204783061652" lon="14.058453733261162"><ele>501.75</ele><time>2026-03-25T10:10:08.001Z</time></trkpt><trkpt lat="37.472170870706094" lon="14.058583983654167"><ele>502.0</ele><time>2026-03-25T10:10:09.001Z</time></trkpt><trkpt lat="37.472292378313284" lon="14.058709934372954"><ele>504.0</ele><time>2026-03-25T10:10:10.001Z</time></trkpt><trkpt lat="37.47241873805435" lon="14.05882746129249"><ele>506.0</ele><time>2026-03-25T10:10:11.001Z</time></trkpt><trkpt lat="37.472548430950205" lon="14.058936809147916"><ele>508.0</ele><time>2026-03-25T10:10:12.001Z</time></trkpt><trkpt lat="37.472674670362025" lon="14.059040142522267"><ele>508.5</ele><time>2026-03-25T10:10:13.001Z</time></trkpt><trkpt lat="37.47279822068469" lon="14.059138640863013"><ele>509.0</ele><time>2026-03-25T10:10:14.001Z</time></trkpt><trkpt lat="37.47291911077456" lon="14.059221657383642"><ele>509.5</ele><time>2026-03-25T10:10:15.001Z</time></trkpt><trkpt lat="37.4730375282174" lon="14.059294387431754"><ele>510.0</ele><time>2026-03-25T10:10:16.001Z</time></trkpt><trkpt lat="37.473148976807565" lon="14.059365487798958"><ele>510.0</ele><time>2026-03-25T10:10:17.001Z</time></trkpt><trkpt lat="37.47324529730799" lon="14.059433826511988"><ele>510.0</ele><time>2026-03-25T10:10:18.001Z</time></trkpt><trkpt lat="37.47333240589384" lon="14.059498133014696"><ele>510.0</ele><time>2026-03-25T10:10:19.001Z</time></trkpt><trkpt lat="37.47340881351478" lon="14.059557516027878"><ele>510.0</ele><time>2026-03-25T10:10:20.001Z</time></trkpt><trkpt lat="37.473473753059444" lon="14.059603353968475"><ele>510.0</ele><time>2026-03-25T10:10:21.001Z</time></trkpt><trkpt lat="37.473560589855325" lon="14.059671818430573"><ele>510.0</ele><time>2026-03-25T10:10:23.001Z</time></trkpt><trkpt lat="37.47361062479197" lon="14.059732547451173"><ele>510.0</ele><time>2026-03-25T10:10:26.001Z</time></trkpt><trkpt lat="37.47371910598808" lon="14.05979147813083"><ele>510.0</ele><time>2026-03-25T10:13:02.003Z</time></trkpt><trkpt lat="37.47381633311046" lon="14.05985565342246"><ele>510.0</ele><time>2026-03-25T10:13:03.003Z</time></trkpt><trkpt lat="37.4739412728346" lon="14.059926513399574"><ele>510.0</ele><time>2026-03-25T10:13:04.003Z</time></trkpt><trkpt lat="37.47407422469064" lon="14.060029414595423"><ele>510.33333333333337</ele><time>2026-03-25T10:13:05.003Z</time></trkpt><trkpt lat="37.47422629003086" lon="14.060138258236238"><ele>510.6666666666667</ele><time>2026-03-25T10:13:06.003Z</time></trkpt><trkpt lat="37.47438417442205" lon="14.060248829236501"><ele>511.0</ele><time>2026-03-25T10:13:07.003Z</time></trkpt><trkpt lat="37.4745318959734" lon="14.060411395826648"><ele>511.33333333333337</ele><time>2026-03-25T10:13:08.003Z</time></trkpt><trkpt lat="37.474678684903225" lon="14.060590704151661"><ele>511.66666666666663</ele><time>2026-03-25T10:13:09.003Z</time></trkpt><trkpt lat="37.47482818686816" lon="14.060775086980206"><ele>512.0</ele><time>2026-03-25T10:13:10.003Z</time></trkpt><trkpt lat="37.47497049227969" lon="14.060979288039688"><ele>513.0</ele><time>2026-03-25T10:13:11.003Z</time></trkpt><trkpt lat="37.47509825745673" lon="14.061199799148554"><ele>514.0</ele><time>2026-03-25T10:13:12.003Z</time></trkpt><trkpt lat="37.47521522458692" lon="14.061425874932137"><ele>515.0</ele><time>2026-03-25T10:13:13.003Z</time></trkpt><trkpt lat="37.4753202874199" lon="14.061659790620457"><ele>515.6666666666666</ele><time>2026-03-25T10:13:14.003Z</time></trkpt><trkpt lat="37.475406115738856" lon="14.061906751218075"><ele>516.3333333333334</ele><time>2026-03-25T10:13:15.003Z</time></trkpt><trkpt lat="37.47548587163349" lon="14.06216016900408"><ele>517.0</ele><time>2026-03-25T10:13:16.003Z</time></trkpt><trkpt lat="37.47556712500782" lon="14.062414243743795"><ele>517.6666666666667</ele><time>2026-03-25T10:13:17.003Z</time></trkpt><trkpt lat="37.4756319095945" lon="14.062712419091058"><ele>518.3333333333334</ele><time>2026-03-25T10:13:18.003Z</time></trkpt><trkpt lat="37.47567666033609" lon="14.062961584680854"><ele>519.0</ele><time>2026-03-25T10:13:19.003Z</time></trkpt><trkpt lat="37.47571164140912" lon="14.063176588436018"><ele>512.0</ele><time>2026-03-25T10:13:20.065Z</time></trkpt><trkpt lat="37.47595223827649" lon="14.063812123696392"><ele>512.0</ele><time>2026-03-25T10:13:24.001Z</time></trkpt><trkpt lat="37.47598307589549" lon="14.064011007002076"><ele>512.0</ele><time>2026-03-25T10:13:25.001Z</time></trkpt><trkpt lat="37.475914503241846" lon="14.064234574878814"><ele>512.0</ele><time>2026-03-25T10:13:26.001Z</time></trkpt><trkpt lat="37.47593198744112" lon="14.064421626290002"><ele>509.25</ele><time>2026-03-25T10:13:27Z</time></trkpt><trkpt lat="37.47596111057125" lon="14.064604005949434"><ele>506.5</ele><time>2026-03-25T10:13:28.001Z</time></trkpt><trkpt lat="37.475982467653424" lon="14.064787957603144"><ele>503.75</ele><time>2026-03-25T10:13:29.001Z</time></trkpt><trkpt lat="37.47600894474151" lon="14.064962537172882"><ele>501.0</ele><time>2026-03-25T10:13:30Z</time></trkpt><trkpt lat="37.47603820829459" lon="14.065138414753385"><ele>501.0</ele><time>2026-03-25T10:13:31.001Z</time></trkpt><trkpt lat="37.476064507169475" lon="14.065308213743617"><ele>501.0</ele><time>2026-03-25T10:13:32Z</time></trkpt><trkpt lat="37.4760872857951" lon="14.065474602865466"><ele>501.0</ele><time>2026-03-25T10:13:33Z</time></trkpt><trkpt lat="37.4761113003771" lon="14.065640724601053"><ele>501.0</ele><time>2026-03-25T10:13:34Z</time></trkpt><trkpt lat="37.47613840073976" lon="14.065804858939817"><ele>501.0</ele><time>2026-03-25T10:13:35.001Z</time></trkpt><trkpt lat="37.476160920334145" lon="14.065970150864446"><ele>501.0</ele><time>2026-03-25T10:13:36.001Z</time></trkpt><trkpt lat="37.476185651520915" lon="14.066139446161788"><ele>501.0</ele><time>2026-03-25T10:13:37.001Z</time></trkpt><trkpt lat="37.47620819610009" lon="14.06631100512918"><ele>501.0</ele><time>2026-03-25T10:13:38.001Z</time></trkpt><trkpt lat="37.47622795433984" lon="14.066489001957827"><ele>500.5</ele><time>2026-03-25T10:13:39.001Z</time></trkpt><trkpt lat="37.47623980319268" lon="14.06666092096179"><ele>500.0</ele><time>2026-03-25T10:13:40.001Z</time></trkpt><trkpt lat="37.476260964444265" lon="14.066835007107509"><ele>499.5</ele><time>2026-03-25T10:13:41.001Z</time></trkpt><trkpt lat="37.47627701129709" lon="14.067010477857677"><ele>499.0</ele><time>2026-03-25T10:13:42.001Z</time></trkpt><trkpt lat="37.476298622961934" lon="14.067192266698827"><ele>492.6666666666667</ele><time>2026-03-25T10:13:43.001Z</time></trkpt><trkpt lat="37.47632065741265" lon="14.067402049802352"><ele>486.33333333333337</ele><time>2026-03-25T10:13:44.001Z</time></trkpt><trkpt lat="37.47634058344439" lon="14.067618053878517"><ele>480.0</ele><time>2026-03-25T10:13:45.001Z</time></trkpt><trkpt lat="37.476383141376054" lon="14.067897608280182"><ele>479.66666666666663</ele><time>2026-03-25T10:13:46.001Z</time></trkpt><trkpt lat="37.47640818787282" lon="14.0681575267471"><ele>479.3333333333333</ele><time>2026-03-25T10:13:47.001Z</time></trkpt><trkpt lat="37.476426051055505" lon="14.068436024230891"><ele>479.0</ele><time>2026-03-25T10:13:48.001Z</time></trkpt><trkpt lat="37.476439495162516" lon="14.068724331298029"><ele>479.0</ele><time>2026-03-25T10:13:49.001Z</time></trkpt><trkpt lat="37.47644527241932" lon="14.06902905316759"><ele>479.0</ele><time>2026-03-25T10:13:50.001Z</time></trkpt><trkpt lat="37.476448019817255" lon="14.069342847616614"><ele>477.0</ele><time>2026-03-25T10:13:51.001Z</time></trkpt><trkpt lat="37.476439835907364" lon="14.06966539015843"><ele>475.0</ele><time>2026-03-25T10:13:52.001Z</time></trkpt><trkpt lat="37.476419895587526" lon="14.070002161906396"><ele>472.5</ele><time>2026-03-25T10:13:53.001Z</time></trkpt><trkpt lat="37.47639234846186" lon="14.070343724872417"><ele>470.0</ele><time>2026-03-25T10:13:54.001Z</time></trkpt><trkpt lat="37.47635834370395" lon="14.07068996210451"><ele>467.5</ele><time>2026-03-25T10:13:55.001Z</time></trkpt><trkpt lat="37.47631904719427" lon="14.071034946279184"><ele>465.0</ele><time>2026-03-25T10:13:56.001Z</time></trkpt><trkpt lat="37.47627425531729" lon="14.071383026634974"><ele>468.5</ele><time>2026-03-25T10:13:57.001Z</time></trkpt><trkpt lat="37.47622506542592" lon="14.071732111541328"><ele>472.0</ele><time>2026-03-25T10:13:58.001Z</time></trkpt><trkpt lat="37.47617637044039" lon="14.072075541703407"><ele>472.0</ele><time>2026-03-25T10:13:59.001Z</time></trkpt><trkpt lat="37.4761284220862" lon="14.0724214522619"><ele>472.0</ele><time>2026-03-25T10:14:00.001Z</time></trkpt><trkpt lat="37.47608056920952" lon="14.072763225331126"><ele>468.5</ele><time>2026-03-25T10:14:01.001Z</time></trkpt><trkpt lat="37.47602877392165" lon="14.0731032496253"><ele>465.0</ele><time>2026-03-25T10:14:02.001Z</time></trkpt><trkpt lat="37.47598192334144" lon="14.073443110574184"><ele>461.0</ele><time>2026-03-25T10:14:03.001Z</time></trkpt><trkpt lat="37.47593988956718" lon="14.073780231061248"><ele>457.0</ele><time>2026-03-25T10:14:04.001Z</time></trkpt><trkpt lat="37.475905477798506" lon="14.07411909802513"><ele>456.0</ele><time>2026-03-25T10:14:05.001Z</time></trkpt><trkpt lat="37.47587891893063" lon="14.07446220634218"><ele>455.0</ele><time>2026-03-25T10:14:06.001Z</time></trkpt><trkpt lat="37.47586088758064" lon="14.074803510094544"><ele>453.0</ele><time>2026-03-25T10:14:07.001Z</time></trkpt><trkpt lat="37.47585404440097" lon="14.075153783323117"><ele>451.0</ele><time>2026-03-25T10:14:08.001Z</time></trkpt><trkpt lat="37.47585744796989" lon="14.075506252573472"><ele>447.0</ele><time>2026-03-25T10:14:09.001Z</time></trkpt><trkpt lat="37.47587110882891" lon="14.07585653380932"><ele>443.0</ele><time>2026-03-25T10:14:10.001Z</time></trkpt><trkpt lat="37.475882263752545" lon="14.076209343110945"><ele>443.0</ele><time>2026-03-25T10:14:11.001Z</time></trkpt><trkpt lat="37.4759000237805" lon="14.076557960550403"><ele>443.0</ele><time>2026-03-25T10:14:12.001Z</time></trkpt><trkpt lat="37.47591610390152" lon="14.076908963677319"><ele>444.0</ele><time>2026-03-25T10:14:13.002Z</time></trkpt><trkpt lat="37.475931247425834" lon="14.077255310517717"><ele>445.0</ele><time>2026-03-25T10:14:14.002Z</time></trkpt><trkpt lat="37.47594936506859" lon="14.077602833354673"><ele>443.0</ele><time>2026-03-25T10:14:15.002Z</time></trkpt><trkpt lat="37.47596719416636" lon="14.077951947157594"><ele>441.0</ele><time>2026-03-25T10:14:16.002Z</time></trkpt><trkpt lat="37.475984779043344" lon="14.078300241231593"><ele>440.0</ele><time>2026-03-25T10:14:17.002Z</time></trkpt><trkpt lat="37.476002034642995" lon="14.078649754231183"><ele>439.0</ele><time>2026-03-25T10:14:18.002Z</time></trkpt><trkpt lat="37.47601842859745" lon="14.078999247953199"><ele>435.0</ele><time>2026-03-25T10:14:19.002Z</time></trkpt><trkpt lat="37.47603782462757" lon="14.07934971242294"><ele>431.0</ele><time>2026-03-25T10:14:20.002Z</time></trkpt><trkpt lat="37.47605702421435" lon="14.079698896292493"><ele>427.5</ele><time>2026-03-25T10:14:21.002Z</time></trkpt><trkpt lat="37.476074461044554" lon="14.080041890349003"><ele>424.0</ele><time>2026-03-25T10:14:22.002Z</time></trkpt><trkpt lat="37.47609134705798" lon="14.080382097673814"><ele>424.0</ele><time>2026-03-25T10:14:23.002Z</time></trkpt><trkpt lat="37.4761070255836" lon="14.080718612522102"><ele>424.0</ele><time>2026-03-25T10:14:24.002Z</time></trkpt><trkpt lat="37.47612335997839" lon="14.081051118731414"><ele>422.0</ele><time>2026-03-25T10:14:25.002Z</time></trkpt><trkpt lat="37.47613888652911" lon="14.081380420576211"><ele>420.0</ele><time>2026-03-25T10:14:26.002Z</time></trkpt><trkpt lat="37.476153110417734" lon="14.081717021052114"><ele>419.0</ele><time>2026-03-25T10:14:27.002Z</time></trkpt><trkpt lat="37.47616614227281" lon="14.082059719835641"><ele>418.0</ele><time>2026-03-25T10:14:28.002Z</time></trkpt><trkpt lat="37.476175368063345" lon="14.08240597853375"><ele>417.5</ele><time>2026-03-25T10:14:29.002Z</time></trkpt><trkpt lat="37.47617677550246" lon="14.082749035862664"><ele>417.0</ele><time>2026-03-25T10:14:30.002Z</time></trkpt><trkpt lat="37.47616925715188" lon="14.083091333971387"><ele>415.5</ele><time>2026-03-25T10:14:31.002Z</time></trkpt><trkpt lat="37.47615222606325" lon="14.083430877150926"><ele>414.0</ele><time>2026-03-25T10:14:32.002Z</time></trkpt><trkpt lat="37.476124210416444" lon="14.083770208895531"><ele>411.5</ele><time>2026-03-25T10:14:33.002Z</time></trkpt><trkpt lat="37.47608594465651" lon="14.084106314978449"><ele>409.0</ele><time>2026-03-25T10:14:34.002Z</time></trkpt><trkpt lat="37.476035585056245" lon="14.084441302135668"><ele>409.0</ele><time>2026-03-25T10:14:35.002Z</time></trkpt><trkpt lat="37.475977068624985" lon="14.084778130195916"><ele>409.0</ele><time>2026-03-25T10:14:36.002Z</time></trkpt><trkpt lat="37.47590783067022" lon="14.085113186615942"><ele>408.0</ele><time>2026-03-25T10:14:37.002Z</time></trkpt><trkpt lat="37.475827769733975" lon="14.085446432372347"><ele>407.0</ele><time>2026-03-25T10:14:38.002Z</time></trkpt><trkpt lat="37.47573611445188" lon="14.085775569295103"><ele>405.0</ele><time>2026-03-25T10:14:39.002Z</time></trkpt><trkpt lat="37.47563520947301" lon="14.086096505888623"><ele>403.0</ele><time>2026-03-25T10:14:40.002Z</time></trkpt><trkpt lat="37.47552188717068" lon="14.086408591037404"><ele>398.5</ele><time>2026-03-25T10:14:41.002Z</time></trkpt><trkpt lat="37.475405632965156" lon="14.086719955139005"><ele>394.0</ele><time>2026-03-25T10:14:42.002Z</time></trkpt><trkpt lat="37.475280912631455" lon="14.087025153233665"><ele>394.0</ele><time>2026-03-25T10:14:43.002Z</time></trkpt><trkpt lat="37.475147341140016" lon="14.087326397803226"><ele>394.0</ele><time>2026-03-25T10:14:44.002Z</time></trkpt><trkpt lat="37.475007209328915" lon="14.087621924465948"><ele>388.5</ele><time>2026-03-25T10:14:45.002Z</time></trkpt><trkpt lat="37.4748605870108" lon="14.087913134835302"><ele>383.0</ele><time>2026-03-25T10:14:46.002Z</time></trkpt><trkpt lat="37.474712215621004" lon="14.088203533504899"><ele>379.0</ele><time>2026-03-25T10:14:47.003Z</time></trkpt><trkpt lat="37.47455948296311" lon="14.088493095010492"><ele>375.0</ele><time>2026-03-25T10:14:48.003Z</time></trkpt><trkpt lat="37.47440844538973" lon="14.088781754749181"><ele>375.0</ele><time>2026-03-25T10:14:49.003Z</time></trkpt><trkpt lat="37.47425724581788" lon="14.089070262231433"><ele>375.0</ele><time>2026-03-25T10:14:50.003Z</time></trkpt><trkpt lat="37.47410527258699" lon="14.089359546436924"><ele>371.5</ele><time>2026-03-25T10:14:51.003Z</time></trkpt><trkpt lat="37.47395344652523" lon="14.089649103504474"><ele>368.0</ele><time>2026-03-25T10:14:52.003Z</time></trkpt><trkpt lat="37.4738009565659" lon="14.089938059409743"><ele>365.0</ele><time>2026-03-25T10:14:53.003Z</time></trkpt><trkpt lat="37.47365020618756" lon="14.090226588119434"><ele>362.0</ele><time>2026-03-25T10:14:54.003Z</time></trkpt><trkpt lat="37.4734979122629" lon="14.090514886750046"><ele>363.0</ele><time>2026-03-25T10:14:55.003Z</time></trkpt><trkpt lat="37.4733465676754" lon="14.090804296893264"><ele>364.0</ele><time>2026-03-25T10:14:56.003Z</time></trkpt><trkpt lat="37.47319578488966" lon="14.091095026197019"><ele>364.0</ele><time>2026-03-25T10:14:57.003Z</time></trkpt><trkpt lat="37.47304410272839" lon="14.091385710141154"><ele>364.0</ele><time>2026-03-25T10:14:58.003Z</time></trkpt><trkpt lat="37.47289081596351" lon="14.091674558715665"><ele>369.5</ele><time>2026-03-25T10:14:59.003Z</time></trkpt><trkpt lat="37.4727400767487" lon="14.091964080225367"><ele>375.0</ele><time>2026-03-25T10:15:00.003Z</time></trkpt><trkpt lat="37.472588734490095" lon="14.092253680037242"><ele>368.5</ele><time>2026-03-25T10:15:01.003Z</time></trkpt><trkpt lat="37.472436974599475" lon="14.09254159322276"><ele>362.0</ele><time>2026-03-25T10:15:02.003Z</time></trkpt><trkpt lat="37.47228856042068" lon="14.092829973718299"><ele>362.0</ele><time>2026-03-25T10:15:03.003Z</time></trkpt><trkpt lat="37.47213533231612" lon="14.093121346091259"><ele>362.0</ele><time>2026-03-25T10:15:04.003Z</time></trkpt><trkpt lat="37.47198714121096" lon="14.09340919595518"><ele>363.5</ele><time>2026-03-25T10:15:05.003Z</time></trkpt><trkpt lat="37.471831813875816" lon="14.09370828289164"><ele>365.0</ele><time>2026-03-25T10:15:06.003Z</time></trkpt><trkpt lat="37.47167523222965" lon="14.09401070472853"><ele>359.0</ele><time>2026-03-25T10:15:07.003Z</time></trkpt><trkpt lat="37.471518420523815" lon="14.094313304341421"><ele>353.0</ele><time>2026-03-25T10:15:08.003Z</time></trkpt><trkpt lat="37.47135862308277" lon="14.09461192206191"><ele>350.0</ele><time>2026-03-25T10:15:09.003Z</time></trkpt><trkpt lat="37.47119615053865" lon="14.094908588580351"><ele>347.0</ele><time>2026-03-25T10:15:10.003Z</time></trkpt><trkpt lat="37.471028804327105" lon="14.095202927703607"><ele>347.0</ele><time>2026-03-25T10:15:11.003Z</time></trkpt><trkpt lat="37.470852902585854" lon="14.095489206890122"><ele>347.0</ele><time>2026-03-25T10:15:12.003Z</time></trkpt><trkpt lat="37.470663243178656" lon="14.09576735058186"><ele>349.0</ele><time>2026-03-25T10:15:13.003Z</time></trkpt><trkpt lat="37.470464680327225" lon="14.096036992530768"><ele>351.0</ele><time>2026-03-25T10:15:14.003Z</time></trkpt><trkpt lat="37.47025719572067" lon="14.096294527023264"><ele>351.0</ele><time>2026-03-25T10:15:15.003Z</time></trkpt><trkpt lat="37.470038408571774" lon="14.096537499964773"><ele>351.0</ele><time>2026-03-25T10:15:16.003Z</time></trkpt><trkpt lat="37.4698079198744" lon="14.09676857026074"><ele>349.5</ele><time>2026-03-25T10:15:17.003Z</time></trkpt><trkpt lat="37.469568491007166" lon="14.096984664009572"><ele>348.0</ele><time>2026-03-25T10:15:18.003Z</time></trkpt><trkpt lat="37.46932277845959" lon="14.097187747288974"><ele>348.0</ele><time>2026-03-25T10:15:19.003Z</time></trkpt><trkpt lat="37.46907315063645" lon="14.097375207090804"><ele>348.0</ele><time>2026-03-25T10:15:20.003Z</time></trkpt><trkpt lat="37.46881741841828" lon="14.097546857370867"><ele>337.5</ele><time>2026-03-25T10:15:21.003Z</time></trkpt><trkpt lat="37.468559983785845" lon="14.097708243523305"><ele>327.0</ele><time>2026-03-25T10:15:22.004Z</time></trkpt><trkpt lat="37.4682973421845" lon="14.097857024102979"><ele>327.0</ele><time>2026-03-25T10:15:23.004Z</time></trkpt><trkpt lat="37.46803277089782" lon="14.097998236891803"><ele>327.0</ele><time>2026-03-25T10:15:24.004Z</time></trkpt><trkpt lat="37.46776165186663" lon="14.098121574447996"><ele>326.0</ele><time>2026-03-25T10:15:25.004Z</time></trkpt><trkpt lat="37.467495512162216" lon="14.098245119274681"><ele>325.0</ele><time>2026-03-25T10:15:26Z</time></trkpt><trkpt lat="37.46722382720686" lon="14.09837057521983"><ele>315.0</ele><time>2026-03-25T10:15:27Z</time></trkpt><trkpt lat="37.46695662714098" lon="14.098498077231689"><ele>305.0</ele><time>2026-03-25T10:15:28Z</time></trkpt><trkpt lat="37.466685785643286" lon="14.098630060398314"><ele>305.0</ele><time>2026-03-25T10:15:29Z</time></trkpt><trkpt lat="37.46641771581787" lon="14.098769032047558"><ele>305.0</ele><time>2026-03-25T10:15:30Z</time></trkpt><trkpt lat="37.46615490870777" lon="14.098918148061554"><ele>305.0</ele><time>2026-03-25T10:15:31Z</time></trkpt><trkpt lat="37.46589003882016" lon="14.099079760226553"><ele>305.0</ele><time>2026-03-25T10:15:32Z</time></trkpt><trkpt lat="37.46563873560669" lon="14.09924146375192"><ele>304.5</ele><time>2026-03-25T10:15:33Z</time></trkpt><trkpt lat="37.46538775014906" lon="14.099429609157053"><ele>304.0</ele><time>2026-03-25T10:15:34Z</time></trkpt><trkpt lat="37.4651422958142" lon="14.099628091238278"><ele>304.0</ele><time>2026-03-25T10:15:35Z</time></trkpt><trkpt lat="37.464905273291876" lon="14.099838520685847"><ele>304.0</ele><time>2026-03-25T10:15:36Z</time></trkpt><trkpt lat="37.464671142409735" lon="14.100057866126573"><ele>304.5</ele><time>2026-03-25T10:15:37Z</time></trkpt><trkpt lat="37.46443450256278" lon="14.100281014926185"><ele>305.0</ele><time>2026-03-25T10:15:38Z</time></trkpt><trkpt lat="37.46420108943553" lon="14.100503516941261"><ele>305.0</ele><time>2026-03-25T10:15:39Z</time></trkpt><trkpt lat="37.463967524744504" lon="14.100729794443804"><ele>305.0</ele><time>2026-03-25T10:15:40Z</time></trkpt><trkpt lat="37.46373367839882" lon="14.10095473273663"><ele>297.0</ele><time>2026-03-25T10:15:41Z</time></trkpt><trkpt lat="37.46350141377379" lon="14.101182753124506"><ele>289.0</ele><time>2026-03-25T10:15:42Z</time></trkpt><trkpt lat="37.46326982166743" lon="14.10140807689057"><ele>284.5</ele><time>2026-03-25T10:15:43Z</time></trkpt><trkpt lat="37.463039948613236" lon="14.10163409072416"><ele>280.0</ele><time>2026-03-25T10:15:44Z</time></trkpt><trkpt lat="37.46280667399484" lon="14.101865364786033"><ele>279.5</ele><time>2026-03-25T10:15:45Z</time></trkpt><trkpt lat="37.46257258436418" lon="14.10209420700013"><ele>279.0</ele><time>2026-03-25T10:15:46Z</time></trkpt><trkpt lat="37.46233992965153" lon="14.102327647990913"><ele>274.5</ele><time>2026-03-25T10:15:47Z</time></trkpt><trkpt lat="37.46210634066424" lon="14.10255814024493"><ele>270.0</ele><time>2026-03-25T10:15:48Z</time></trkpt><trkpt lat="37.461869603562" lon="14.102790155762008"><ele>270.0</ele><time>2026-03-25T10:15:49Z</time></trkpt><trkpt lat="37.46162991516868" lon="14.103024320906872"><ele>270.0</ele><time>2026-03-25T10:15:50.001Z</time></trkpt><trkpt lat="37.46139074303709" lon="14.103258969003353"><ele>269.5</ele><time>2026-03-25T10:15:51.001Z</time></trkpt><trkpt lat="37.461152069098894" lon="14.103495337476982"><ele>269.0</ele><time>2026-03-25T10:15:52.001Z</time></trkpt><trkpt lat="37.460909109316724" lon="14.1037339025597"><ele>269.0</ele><time>2026-03-25T10:15:53.001Z</time></trkpt><trkpt lat="37.4606659415434" lon="14.103970121223222"><ele>269.0</ele><time>2026-03-25T10:15:54.001Z</time></trkpt><trkpt lat="37.46042489420552" lon="14.104212141412122"><ele>268.0</ele><time>2026-03-25T10:15:55.001Z</time></trkpt><trkpt lat="37.4601815779988" lon="14.104449564739998"><ele>267.0</ele><time>2026-03-25T10:15:56.001Z</time></trkpt><trkpt lat="37.45993876855567" lon="14.104692635080658"><ele>264.5</ele><time>2026-03-25T10:15:57.001Z</time></trkpt><trkpt lat="37.459695774575934" lon="14.104933473086541"><ele>262.0</ele><time>2026-03-25T10:15:58.001Z</time></trkpt><trkpt lat="37.459453002415714" lon="14.105172896572444"><ele>262.0</ele><time>2026-03-25T10:15:59.001Z</time></trkpt><trkpt lat="37.459210051119875" lon="14.105413433746934"><ele>262.0</ele><time>2026-03-25T10:16:00.001Z</time></trkpt><trkpt lat="37.45896867881948" lon="14.105650788914142"><ele>260.0</ele><time>2026-03-25T10:16:01.001Z</time></trkpt><trkpt lat="37.458725415418385" lon="14.105889598010268"><ele>258.0</ele><time>2026-03-25T10:16:02.001Z</time></trkpt><trkpt lat="37.45848347812483" lon="14.106127409204044"><ele>258.0</ele><time>2026-03-25T10:16:03.001Z</time></trkpt><trkpt lat="37.45824148625471" lon="14.106364958374316"><ele>258.0</ele><time>2026-03-25T10:16:04.001Z</time></trkpt><trkpt lat="37.4580021791625" lon="14.106603096258857"><ele>257.0</ele><time>2026-03-25T10:16:05.001Z</time></trkpt><trkpt lat="37.457761812464874" lon="14.106840978828004"><ele>256.0</ele><time>2026-03-25T10:16:06.001Z</time></trkpt><trkpt lat="37.45752281412995" lon="14.107077723033898"><ele>256.0</ele><time>2026-03-25T10:16:07.001Z</time></trkpt><trkpt lat="37.45728330063265" lon="14.10731314105032"><ele>256.0</ele><time>2026-03-25T10:16:08.001Z</time></trkpt><trkpt lat="37.457045580619464" lon="14.107544423708232"><ele>254.5</ele><time>2026-03-25T10:16:09.001Z</time></trkpt><trkpt lat="37.45680947532215" lon="14.107775672260384"><ele>253.0</ele><time>2026-03-25T10:16:10.001Z</time></trkpt><trkpt lat="37.456576966929134" lon="14.1080049924966"><ele>253.0</ele><time>2026-03-25T10:16:11.001Z</time></trkpt><trkpt lat="37.456344066299415" lon="14.108234038946751"><ele>253.0</ele><time>2026-03-25T10:16:12.001Z</time></trkpt><trkpt lat="37.45611067496847" lon="14.108464943103641"><ele>251.5</ele><time>2026-03-25T10:16:13.001Z</time></trkpt><trkpt lat="37.45587370375945" lon="14.108701192845212"><ele>250.0</ele><time>2026-03-25T10:16:14.001Z</time></trkpt><trkpt lat="37.45563597652398" lon="14.10893955109279"><ele>249.0</ele><time>2026-03-25T10:16:15.001Z</time></trkpt><trkpt lat="37.45539655803858" lon="14.109179424822463"><ele>248.0</ele><time>2026-03-25T10:16:16.001Z</time></trkpt><trkpt lat="37.45515564098736" lon="14.109416279965892"><ele>248.0</ele><time>2026-03-25T10:16:17.001Z</time></trkpt><trkpt lat="37.45491316794006" lon="14.109653658886206"><ele>248.0</ele><time>2026-03-25T10:16:18.001Z</time></trkpt><trkpt lat="37.45467223212908" lon="14.109889182321218"><ele>245.5</ele><time>2026-03-25T10:16:19.001Z</time></trkpt><trkpt lat="37.454429815100816" lon="14.110126757617762"><ele>243.0</ele><time>2026-03-25T10:16:20.001Z</time></trkpt><trkpt lat="37.45418974641182" lon="14.110362072703909"><ele>243.0</ele><time>2026-03-25T10:16:21.001Z</time></trkpt><trkpt lat="37.45395082134821" lon="14.110598593234112"><ele>243.0</ele><time>2026-03-25T10:16:22.001Z</time></trkpt><trkpt lat="37.45371472815561" lon="14.11083430182344"><ele>243.5</ele><time>2026-03-25T10:16:23.001Z</time></trkpt><trkpt lat="37.45348047604197" lon="14.111070360741639"><ele>244.0</ele><time>2026-03-25T10:16:24.002Z</time></trkpt><trkpt lat="37.45325107546771" lon="14.111301491870453"><ele>244.0</ele><time>2026-03-25T10:16:25.002Z</time></trkpt><trkpt lat="37.45301994732664" lon="14.111527982554385"><ele>244.0</ele><time>2026-03-25T10:16:26.002Z</time></trkpt><trkpt lat="37.45278964555059" lon="14.111752577463017"><ele>242.0</ele><time>2026-03-25T10:16:27.002Z</time></trkpt><trkpt lat="37.45256037272793" lon="14.111976915165215"><ele>240.0</ele><time>2026-03-25T10:16:28.002Z</time></trkpt><trkpt lat="37.45233358296743" lon="14.11219999541013"><ele>239.5</ele><time>2026-03-25T10:16:29.002Z</time></trkpt><trkpt lat="37.45210669667081" lon="14.112422935701659"><ele>239.0</ele><time>2026-03-25T10:16:30.002Z</time></trkpt><trkpt lat="37.451882197444284" lon="14.112645281465772"><ele>239.0</ele><time>2026-03-25T10:16:31.002Z</time></trkpt><trkpt lat="37.45165862050516" lon="14.112867259132516"><ele>239.0</ele><time>2026-03-25T10:16:32.002Z</time></trkpt><trkpt lat="37.451436120535995" lon="14.113090417332348"><ele>241.5</ele><time>2026-03-25T10:16:33.002Z</time></trkpt><trkpt lat="37.45121453053102" lon="14.113313328768712"><ele>244.0</ele><time>2026-03-25T10:16:34.002Z</time></trkpt><trkpt lat="37.45099319734789" lon="14.11353438655425"><ele>244.0</ele><time>2026-03-25T10:16:35.002Z</time></trkpt><trkpt lat="37.45077516250319" lon="14.113759795166645"><ele>244.0</ele><time>2026-03-25T10:16:36.002Z</time></trkpt><trkpt lat="37.45055569430998" lon="14.113980712636947"><ele>246.5</ele><time>2026-03-25T10:16:37.002Z</time></trkpt><trkpt lat="37.45033747092702" lon="14.114199267144254"><ele>249.0</ele><time>2026-03-25T10:16:38.002Z</time></trkpt><trkpt lat="37.45011969582282" lon="14.114413420659659"><ele>249.0</ele><time>2026-03-25T10:16:39.002Z</time></trkpt><trkpt lat="37.449901506255095" lon="14.114626461827863"><ele>249.0</ele><time>2026-03-25T10:16:40.002Z</time></trkpt><trkpt lat="37.44968436573844" lon="14.114838068573151"><ele>251.5</ele><time>2026-03-25T10:16:41.002Z</time></trkpt><trkpt lat="37.44946685741282" lon="14.115047449296407"><ele>254.0</ele><time>2026-03-25T10:16:42.002Z</time></trkpt><trkpt lat="37.44925122402388" lon="14.11525763251246"><ele>254.0</ele><time>2026-03-25T10:16:43.002Z</time></trkpt><trkpt lat="37.44903363638133" lon="14.115470314577932"><ele>254.0</ele><time>2026-03-25T10:16:44.002Z</time></trkpt><trkpt lat="37.44882033606352" lon="14.115683721599174"><ele>256.0</ele><time>2026-03-25T10:16:45.002Z</time></trkpt><trkpt lat="37.44860720567187" lon="14.115895984831871"><ele>258.0</ele><time>2026-03-25T10:16:46.002Z</time></trkpt><trkpt lat="37.448394392135434" lon="14.11610698320127"><ele>258.0</ele><time>2026-03-25T10:16:47.002Z</time></trkpt><trkpt lat="37.44818334846202" lon="14.116316573550215"><ele>258.0</ele><time>2026-03-25T10:16:48.002Z</time></trkpt><trkpt lat="37.44797403807399" lon="14.11652821826365"><ele>262.5</ele><time>2026-03-25T10:16:49.002Z</time></trkpt><trkpt lat="37.44776945733262" lon="14.11674390975459"><ele>267.0</ele><time>2026-03-25T10:16:50.002Z</time></trkpt><trkpt lat="37.44756776450014" lon="14.116965601215663"><ele>267.0</ele><time>2026-03-25T10:16:51.002Z</time></trkpt><trkpt lat="37.447370998878455" lon="14.11719350157699"><ele>267.0</ele><time>2026-03-25T10:16:52.002Z</time></trkpt><trkpt lat="37.4471812115721" lon="14.117430769782917"><ele>269.5</ele><time>2026-03-25T10:16:53.002Z</time></trkpt><trkpt lat="37.446998901563695" lon="14.117678808169421"><ele>272.0</ele><time>2026-03-25T10:16:54.002Z</time></trkpt><trkpt lat="37.44682780362731" lon="14.117937816503888"><ele>272.0</ele><time>2026-03-25T10:16:55.002Z</time></trkpt><trkpt lat="37.446662529724236" lon="14.1182046388713"><ele>272.0</ele><time>2026-03-25T10:16:56.002Z</time></trkpt><trkpt lat="37.44650587617056" lon="14.118480525074165"><ele>273.0</ele><time>2026-03-25T10:16:57.002Z</time></trkpt><trkpt lat="37.44636837228446" lon="14.11877468994185"><ele>274.0</ele><time>2026-03-25T10:16:58.002Z</time></trkpt><trkpt lat="37.446241059411264" lon="14.119080334859278"><ele>282.5</ele><time>2026-03-25T10:16:59.003Z</time></trkpt><trkpt lat="37.446122765738366" lon="14.11939335676775"><ele>291.0</ele><time>2026-03-25T10:17:00.003Z</time></trkpt><trkpt lat="37.44601128053315" lon="14.119710326091326"><ele>290.0</ele><time>2026-03-25T10:17:01.003Z</time></trkpt><trkpt lat="37.44590482722095" lon="14.120030397338088"><ele>289.0</ele><time>2026-03-25T10:17:02.003Z</time></trkpt><trkpt lat="37.44580313007167" lon="14.120350855074177"><ele>289.0</ele><time>2026-03-25T10:17:03.003Z</time></trkpt><trkpt lat="37.44570462436866" lon="14.12067568695029"><ele>289.0</ele><time>2026-03-25T10:17:04.003Z</time></trkpt><trkpt lat="37.44560849144609" lon="14.121001996724031"><ele>288.5</ele><time>2026-03-25T10:17:05.003Z</time></trkpt><trkpt lat="37.44551225788734" lon="14.121326886716274"><ele>288.0</ele><time>2026-03-25T10:17:06.003Z</time></trkpt><trkpt lat="37.44541273510869" lon="14.121653553748018"><ele>294.5</ele><time>2026-03-25T10:17:07.003Z</time></trkpt><trkpt lat="37.44530694724498" lon="14.12198210689196"><ele>301.0</ele><time>2026-03-25T10:17:08.003Z</time></trkpt><trkpt lat="37.445192538755805" lon="14.122313857456103"><ele>302.5</ele><time>2026-03-25T10:17:09.003Z</time></trkpt><trkpt lat="37.445070007130006" lon="14.122647351325691"><ele>304.0</ele><time>2026-03-25T10:17:10.003Z</time></trkpt><trkpt lat="37.44493558043149" lon="14.122977391318965"><ele>306.0</ele><time>2026-03-25T10:17:11.003Z</time></trkpt><trkpt lat="37.44478997137073" lon="14.123302284964641"><ele>308.0</ele><time>2026-03-25T10:17:12.003Z</time></trkpt><trkpt lat="37.444633828670966" lon="14.123614827390396"><ele>308.5</ele><time>2026-03-25T10:17:13.003Z</time></trkpt><trkpt lat="37.44446637317272" lon="14.123909212400948"><ele>309.0</ele><time>2026-03-25T10:17:14.003Z</time></trkpt><trkpt lat="37.444285973662936" lon="14.124183340199469"><ele>306.0</ele><time>2026-03-25T10:17:15.003Z</time></trkpt><trkpt lat="37.44409064099559" lon="14.124437931782968"><ele>303.0</ele><time>2026-03-25T10:17:16.003Z</time></trkpt><trkpt lat="37.443879264313054" lon="14.124669583328307"><ele>302.0</ele><time>2026-03-25T10:17:17.003Z</time></trkpt><trkpt lat="37.443654104451646" lon="14.124880095652708"><ele>301.0</ele><time>2026-03-25T10:17:18.003Z</time></trkpt><trkpt lat="37.44342017232411" lon="14.12507310958994"><ele>301.0</ele><time>2026-03-25T10:17:19.003Z</time></trkpt><trkpt lat="37.44317665623194" lon="14.125250661266625"><ele>301.0</ele><time>2026-03-25T10:17:20.003Z</time></trkpt><trkpt lat="37.44292623151376" lon="14.125412551897005"><ele>306.5</ele><time>2026-03-25T10:17:21.003Z</time></trkpt><trkpt lat="37.44266550862604" lon="14.125556145928831"><ele>312.0</ele><time>2026-03-25T10:17:22.003Z</time></trkpt><trkpt lat="37.44240146559439" lon="14.125686925121375"><ele>311.5</ele><time>2026-03-25T10:17:23.003Z</time></trkpt><trkpt lat="37.442132941005866" lon="14.125808537968865"><ele>311.0</ele><time>2026-03-25T10:17:24.003Z</time></trkpt><trkpt lat="37.441860727073056" lon="14.125920720231766"><ele>311.0</ele><time>2026-03-25T10:17:25.003Z</time></trkpt><trkpt lat="37.4415856506587" lon="14.126029472224548"><ele>311.0</ele><time>2026-03-25T10:17:26.003Z</time></trkpt><trkpt lat="37.44131103920728" lon="14.126137321629672"><ele>315.0</ele><time>2026-03-25T10:17:27.003Z</time></trkpt><trkpt lat="37.441035979908946" lon="14.126240069932276"><ele>319.0</ele><time>2026-03-25T10:17:28.003Z</time></trkpt><trkpt lat="37.440760090338124" lon="14.126339925205052"><ele>319.0</ele><time>2026-03-25T10:17:29.003Z</time></trkpt><trkpt lat="37.440485115718666" lon="14.12643963498462"><ele>319.0</ele><time>2026-03-25T10:17:30.003Z</time></trkpt><trkpt lat="37.44021129222286" lon="14.126541228082043"><ele>312.0</ele><time>2026-03-25T10:17:31.001Z</time></trkpt><trkpt lat="37.43993659426316" lon="14.126644728182434"><ele>305.0</ele><time>2026-03-25T10:17:32.001Z</time></trkpt><trkpt lat="37.43966302529641" lon="14.12674874318342"><ele>306.5</ele><time>2026-03-25T10:17:33.001Z</time></trkpt><trkpt lat="37.43939049620648" lon="14.126853845927513"><ele>308.0</ele><time>2026-03-25T10:17:34.001Z</time></trkpt><trkpt lat="37.43911544420355" lon="14.126958793190843"><ele>308.0</ele><time>2026-03-25T10:17:35.001Z</time></trkpt><trkpt lat="37.438839027463" lon="14.127062748793582"><ele>308.0</ele><time>2026-03-25T10:17:36.001Z</time></trkpt><trkpt lat="37.43856531662714" lon="14.127161484733724"><ele>313.5</ele><time>2026-03-25T10:17:37.001Z</time></trkpt><trkpt lat="37.438292559766865" lon="14.127257622568914"><ele>319.0</ele><time>2026-03-25T10:17:38.001Z</time></trkpt><trkpt lat="37.43802096156215" lon="14.127349555493904"><ele>314.5</ele><time>2026-03-25T10:17:39.001Z</time></trkpt><trkpt lat="37.437746873325096" lon="14.127432874356051"><ele>310.0</ele><time>2026-03-25T10:17:40.001Z</time></trkpt><trkpt lat="37.437470790509046" lon="14.1275035010339"><ele>310.0</ele><time>2026-03-25T10:17:41.001Z</time></trkpt><trkpt lat="37.43719627883943" lon="14.12756028182967"><ele>310.0</ele><time>2026-03-25T10:17:42.001Z</time></trkpt><trkpt lat="37.436918033059825" lon="14.127596972654297"><ele>314.0</ele><time>2026-03-25T10:17:43.001Z</time></trkpt><trkpt lat="37.436641290396096" lon="14.127615026775787"><ele>318.0</ele><time>2026-03-25T10:17:44.001Z</time></trkpt><trkpt lat="37.43636919958321" lon="14.127612005069095"><ele>321.5</ele><time>2026-03-25T10:17:45.001Z</time></trkpt><trkpt lat="37.43610029717049" lon="14.12758564876779"><ele>325.0</ele><time>2026-03-25T10:17:46.001Z</time></trkpt><trkpt lat="37.43583317412715" lon="14.12753282781621"><ele>325.0</ele><time>2026-03-25T10:17:47.001Z</time></trkpt><trkpt lat="37.43557433861687" lon="14.127458360187951"><ele>325.0</ele><time>2026-03-25T10:17:48.001Z</time></trkpt><trkpt lat="37.43532393679204" lon="14.127362119672652"><ele>330.5</ele><time>2026-03-25T10:17:49.001Z</time></trkpt><trkpt lat="37.435082789619436" lon="14.127243229705794"><ele>336.0</ele><time>2026-03-25T10:17:50.001Z</time></trkpt><trkpt lat="37.434845017320306" lon="14.127104287252479"><ele>329.0</ele><time>2026-03-25T10:17:51.001Z</time></trkpt><trkpt lat="37.43461323995224" lon="14.12695090393016"><ele>322.0</ele><time>2026-03-25T10:17:52.001Z</time></trkpt><trkpt lat="37.4343879127963" lon="14.126779469877464"><ele>322.0</ele><time>2026-03-25T10:17:53.001Z</time></trkpt><trkpt lat="37.43416709879703" lon="14.12659906885066"><ele>322.0</ele><time>2026-03-25T10:17:54.001Z</time></trkpt><trkpt lat="37.433952244868564" lon="14.126408797868798"><ele>326.5</ele><time>2026-03-25T10:17:55.001Z</time></trkpt><trkpt lat="37.43374156553415" lon="14.126203064833268"><ele>331.0</ele><time>2026-03-25T10:17:56.001Z</time></trkpt><trkpt lat="37.43353062328021" lon="14.125985595232581"><ele>331.0</ele><time>2026-03-25T10:17:57.001Z</time></trkpt><trkpt lat="37.43332045789226" lon="14.12576272755432"><ele>331.0</ele><time>2026-03-25T10:17:58.001Z</time></trkpt><trkpt lat="37.433109649753746" lon="14.12553848765073"><ele>332.5</ele><time>2026-03-25T10:17:59.001Z</time></trkpt><trkpt lat="37.43289767517603" lon="14.125311726124798"><ele>334.0</ele><time>2026-03-25T10:18:00.001Z</time></trkpt><trkpt lat="37.43268582111989" lon="14.125082309687171"><ele>334.0</ele><time>2026-03-25T10:18:01.001Z</time></trkpt><trkpt lat="37.432466906396435" lon="14.124859610997076"><ele>334.0</ele><time>2026-03-25T10:18:02.001Z</time></trkpt><trkpt lat="37.432242922686896" lon="14.12464455216089"><ele>335.5</ele><time>2026-03-25T10:18:03.001Z</time></trkpt><trkpt lat="37.43201457690209" lon="14.124444106650927"><ele>337.0</ele><time>2026-03-25T10:18:04.001Z</time></trkpt><trkpt lat="37.431776948803744" lon="14.124255760849012"><ele>337.0</ele><time>2026-03-25T10:18:05.001Z</time></trkpt><trkpt lat="37.43153147676492" lon="14.124080474804538"><ele>337.0</ele><time>2026-03-25T10:18:06.001Z</time></trkpt><trkpt lat="37.431282508837214" lon="14.123921272378439"><ele>347.0</ele><time>2026-03-25T10:18:07.001Z</time></trkpt><trkpt lat="37.4310259704227" lon="14.12377725235835"><ele>357.0</ele><time>2026-03-25T10:18:08.001Z</time></trkpt><trkpt lat="37.430767175075886" lon="14.12364562773427"><ele>357.0</ele><time>2026-03-25T10:18:09.001Z</time></trkpt><trkpt lat="37.43050471562723" lon="14.123522804368285"><ele>357.0</ele><time>2026-03-25T10:18:10.002Z</time></trkpt><trkpt lat="37.430239557076106" lon="14.123415794550269"><ele>359.5</ele><time>2026-03-25T10:18:11.002Z</time></trkpt><trkpt lat="37.429968356238284" lon="14.123319032528054"><ele>362.0</ele><time>2026-03-25T10:18:12.002Z</time></trkpt><trkpt lat="37.429695396450775" lon="14.123234462769886"><ele>369.5</ele><time>2026-03-25T10:18:13.002Z</time></trkpt><trkpt lat="37.42942001579549" lon="14.123158829970851"><ele>377.0</ele><time>2026-03-25T10:18:14.002Z</time></trkpt><trkpt lat="37.429138998380175" lon="14.123084335310951"><ele>377.0</ele><time>2026-03-25T10:18:15.002Z</time></trkpt><trkpt lat="37.428855520640006" lon="14.12300777247467"><ele>377.0</ele><time>2026-03-25T10:18:16.002Z</time></trkpt><trkpt lat="37.42857292842554" lon="14.122938595454322"><ele>376.5</ele><time>2026-03-25T10:18:17.002Z</time></trkpt><trkpt lat="37.42828985319341" lon="14.122882346030483"><ele>376.0</ele><time>2026-03-25T10:18:18.002Z</time></trkpt><trkpt lat="37.428010091623044" lon="14.122821552209588"><ele>375.5</ele><time>2026-03-25T10:18:19.002Z</time></trkpt><trkpt lat="37.427731238106006" lon="14.1227627478575"><ele>375.0</ele><time>2026-03-25T10:18:20.002Z</time></trkpt><trkpt lat="37.427456182500826" lon="14.122698582159833"><ele>375.0</ele><time>2026-03-25T10:18:21.002Z</time></trkpt><trkpt lat="37.42718397155377" lon="14.122623677169198"><ele>375.0</ele><time>2026-03-25T10:18:22.002Z</time></trkpt><trkpt lat="37.426916082083025" lon="14.122537480639156"><ele>379.0</ele><time>2026-03-25T10:18:23.002Z</time></trkpt><trkpt lat="37.42665413098699" lon="14.122433091726094"><ele>383.0</ele><time>2026-03-25T10:18:24.002Z</time></trkpt><trkpt lat="37.426398999208615" lon="14.122316729427585"><ele>390.5</ele><time>2026-03-25T10:18:25.002Z</time></trkpt><trkpt lat="37.42615029893532" lon="14.122188888247218"><ele>398.0</ele><time>2026-03-25T10:18:26.002Z</time></trkpt><trkpt lat="37.42590587829532" lon="14.122057057991983"><ele>398.0</ele><time>2026-03-25T10:18:27.002Z</time></trkpt><trkpt lat="37.42566251277262" lon="14.121918590004794"><ele>398.0</ele><time>2026-03-25T10:18:28.002Z</time></trkpt><trkpt lat="37.425414834592395" lon="14.121777316935441"><ele>398.0</ele><time>2026-03-25T10:18:29.002Z</time></trkpt><trkpt lat="37.42516870220112" lon="14.12162444257612"><ele>398.0</ele><time>2026-03-25T10:18:30.002Z</time></trkpt><trkpt lat="37.42492574989011" lon="14.121470555892053"><ele>401.0</ele><time>2026-03-25T10:18:31.002Z</time></trkpt><trkpt lat="37.42468575644143" lon="14.121309378151421"><ele>404.0</ele><time>2026-03-25T10:18:32.002Z</time></trkpt><trkpt lat="37.424445095716685" lon="14.121137254908147"><ele>404.0</ele><time>2026-03-25T10:18:33.002Z</time></trkpt><trkpt lat="37.424207810095034" lon="14.120965661620408"><ele>404.0</ele><time>2026-03-25T10:18:34.002Z</time></trkpt><trkpt lat="37.42396980151202" lon="14.120776583255747"><ele>409.5</ele><time>2026-03-25T10:18:35.002Z</time></trkpt><trkpt lat="37.42373587799158" lon="14.120589065276388"><ele>415.0</ele><time>2026-03-25T10:18:36.002Z</time></trkpt><trkpt lat="37.42350048258622" lon="14.120394323305089"><ele>415.0</ele><time>2026-03-25T10:18:37.002Z</time></trkpt><trkpt lat="37.423271885993856" lon="14.120220153691452"><ele>415.0</ele><time>2026-03-25T10:18:38.002Z</time></trkpt><trkpt lat="37.42303931631751" lon="14.120040547057133"><ele>415.5</ele><time>2026-03-25T10:18:39.002Z</time></trkpt><trkpt lat="37.4228071080649" lon="14.119856787890651"><ele>416.0</ele><time>2026-03-25T10:18:40.002Z</time></trkpt><trkpt lat="37.42258065451342" lon="14.119679089983812"><ele>416.0</ele><time>2026-03-25T10:18:41.002Z</time></trkpt><trkpt lat="37.422351334544054" lon="14.119493221346673"><ele>416.0</ele><time>2026-03-25T10:18:42.002Z</time></trkpt><trkpt lat="37.42211592095263" lon="14.11932266755075"><ele>418.0</ele><time>2026-03-25T10:18:43.002Z</time></trkpt><trkpt lat="37.421882474920174" lon="14.11915443063872"><ele>420.0</ele><time>2026-03-25T10:18:44.002Z</time></trkpt><trkpt lat="37.421643665884254" lon="14.118991821255136"><ele>420.0</ele><time>2026-03-25T10:18:45.002Z</time></trkpt><trkpt lat="37.42140200765512" lon="14.118841527507257"><ele>420.0</ele><time>2026-03-25T10:18:46.002Z</time></trkpt><trkpt lat="37.42115735587986" lon="14.11870678473965"><ele>421.5</ele><time>2026-03-25T10:18:47.002Z</time></trkpt><trkpt lat="37.42090431431935" lon="14.118588683646909"><ele>423.0</ele><time>2026-03-25T10:18:48.003Z</time></trkpt><trkpt lat="37.420647756295686" lon="14.11848619160332"><ele>426.5</ele><time>2026-03-25T10:18:49.003Z</time></trkpt><trkpt lat="37.420386725430994" lon="14.118404270656239"><ele>430.0</ele><time>2026-03-25T10:18:50.003Z</time></trkpt><trkpt lat="37.42012416263583" lon="14.118342354776123"><ele>430.0</ele><time>2026-03-25T10:18:51.003Z</time></trkpt><trkpt lat="37.41985852491541" lon="14.118301328797282"><ele>430.0</ele><time>2026-03-25T10:18:52.003Z</time></trkpt><trkpt lat="37.41959336799813" lon="14.118286618323358"><ele>434.0</ele><time>2026-03-25T10:18:53.003Z</time></trkpt><trkpt lat="37.41933038657654" lon="14.118288772496639"><ele>438.0</ele><time>2026-03-25T10:18:54.003Z</time></trkpt><trkpt lat="37.419071496125284" lon="14.118332025446199"><ele>438.0</ele><time>2026-03-25T10:18:55.003Z</time></trkpt><trkpt lat="37.418819222037385" lon="14.118402038700909"><ele>438.0</ele><time>2026-03-25T10:18:56.003Z</time></trkpt><trkpt lat="37.41856875308208" lon="14.118490783289522"><ele>442.0</ele><time>2026-03-25T10:18:57.003Z</time></trkpt><trkpt lat="37.4183203794047" lon="14.118604593867495"><ele>446.0</ele><time>2026-03-25T10:18:58.003Z</time></trkpt><trkpt lat="37.41808592289274" lon="14.118739538481734"><ele>444.5</ele><time>2026-03-25T10:18:59.003Z</time></trkpt><trkpt lat="37.417857756763226" lon="14.118904447776034"><ele>443.0</ele><time>2026-03-25T10:19:00.003Z</time></trkpt><trkpt lat="37.41763534472821" lon="14.119077576453144"><ele>443.0</ele><time>2026-03-25T10:19:01.003Z</time></trkpt><trkpt lat="37.41741427915117" lon="14.119264785828726"><ele>443.0</ele><time>2026-03-25T10:19:02.003Z</time></trkpt><trkpt lat="37.41719816512218" lon="14.119466681841919"><ele>446.0</ele><time>2026-03-25T10:19:03.003Z</time></trkpt><trkpt lat="37.41698458854254" lon="14.119683223670608"><ele>449.0</ele><time>2026-03-25T10:19:04.003Z</time></trkpt><trkpt lat="37.41677463612201" lon="14.1199140122058"><ele>449.0</ele><time>2026-03-25T10:19:05.003Z</time></trkpt><trkpt lat="37.416567440786494" lon="14.12015116222886"><ele>449.0</ele><time>2026-03-25T10:19:06.003Z</time></trkpt><trkpt lat="37.416363192578544" lon="14.120393197506889"><ele>457.0</ele><time>2026-03-25T10:19:07.003Z</time></trkpt><trkpt lat="37.41616185183646" lon="14.120643017198663"><ele>465.0</ele><time>2026-03-25T10:19:08.003Z</time></trkpt><trkpt lat="37.41595939518731" lon="14.12089811178048"><ele>465.0</ele><time>2026-03-25T10:19:09.003Z</time></trkpt><trkpt lat="37.41575501153789" lon="14.121156177972669"><ele>465.0</ele><time>2026-03-25T10:19:10.003Z</time></trkpt><trkpt lat="37.41554905050289" lon="14.12141331937355"><ele>469.0</ele><time>2026-03-25T10:19:11.003Z</time></trkpt><trkpt lat="37.415349516038845" lon="14.121670135965434"><ele>473.0</ele><time>2026-03-25T10:19:12.003Z</time></trkpt><trkpt lat="37.415170094457594" lon="14.121917023391788"><ele>473.0</ele><time>2026-03-25T10:19:13.003Z</time></trkpt><trkpt lat="37.41500800381325" lon="14.122144893645432"><ele>473.0</ele><time>2026-03-25T10:19:14.003Z</time></trkpt><trkpt lat="37.41484964710852" lon="14.122379889628826"><ele>474.0</ele><time>2026-03-25T10:19:15.003Z</time></trkpt><trkpt lat="37.41469659501001" lon="14.12261844993484"><ele>475.0</ele><time>2026-03-25T10:19:16.003Z</time></trkpt><trkpt lat="37.41455233899067" lon="14.122859311007279"><ele>475.0</ele><time>2026-03-25T10:19:17.003Z</time></trkpt><trkpt lat="37.4144205286552" lon="14.123106823198817"><ele>475.0</ele><time>2026-03-25T10:19:18.003Z</time></trkpt><trkpt lat="37.41428189029744" lon="14.123375606137966"><ele>472.5</ele><time>2026-03-25T10:19:19.003Z</time></trkpt><trkpt lat="37.41416394887862" lon="14.123638665178596"><ele>470.0</ele><time>2026-03-25T10:19:20.003Z</time></trkpt><trkpt lat="37.41404788291024" lon="14.123928972184668"><ele>469.0</ele><time>2026-03-25T10:19:21.003Z</time></trkpt><trkpt lat="37.41393912447422" lon="14.124220262058484"><ele>468.0</ele><time>2026-03-25T10:19:22.003Z</time></trkpt><trkpt lat="37.41385021755879" lon="14.124514973913822"><ele>471.5</ele><time>2026-03-25T10:19:23.003Z</time></trkpt><trkpt lat="37.413778708554155" lon="14.124805928502557"><ele>475.0</ele><time>2026-03-25T10:19:24.004Z</time></trkpt><trkpt lat="37.41372680124579" lon="14.125087624927927"><ele>475.0</ele><time>2026-03-25T10:19:25.004Z</time></trkpt><trkpt lat="37.41369087482681" lon="14.125372055023947"><ele>475.0</ele><time>2026-03-25T10:19:26.004Z</time></trkpt><trkpt lat="37.41366943726127" lon="14.125654741447892"><ele>475.33333333333337</ele><time>2026-03-25T10:19:27.004Z</time></trkpt><trkpt lat="37.413662552050134" lon="14.125937543537221"><ele>475.66666666666663</ele><time>2026-03-25T10:19:28.004Z</time></trkpt><trkpt lat="37.41366981834942" lon="14.126219536893544"><ele>476.0</ele><time>2026-03-25T10:19:29.004Z</time></trkpt><trkpt lat="37.41369344362014" lon="14.12649914311431"><ele>476.66666666666663</ele><time>2026-03-25T10:19:30.004Z</time></trkpt><trkpt lat="37.41373153868331" lon="14.126777600730199"><ele>477.33333333333337</ele><time>2026-03-25T10:19:31.004Z</time></trkpt><trkpt lat="37.41377788627674" lon="14.12704707438295"><ele>478.0</ele><time>2026-03-25T10:19:32.004Z</time></trkpt><trkpt lat="37.4138318775843" lon="14.127292336079963"><ele>475.0</ele><time>2026-03-25T10:19:33.004Z</time></trkpt><trkpt lat="37.41388951048527" lon="14.127515511392465"><ele>472.0</ele><time>2026-03-25T10:19:34.004Z</time></trkpt><trkpt lat="37.41394872602021" lon="14.127727224328641"><ele>469.0</ele><time>2026-03-25T10:19:35.004Z</time></trkpt><trkpt lat="37.414007886048715" lon="14.127922306393971"><ele>469.0</ele><time>2026-03-25T10:19:36.004Z</time></trkpt><trkpt lat="37.41406929789126" lon="14.128105002585237"><ele>469.0</ele><time>2026-03-25T10:19:37.002Z</time></trkpt><trkpt lat="37.41413192761292" lon="14.128269723915913"><ele>469.0</ele><time>2026-03-25T10:19:38.002Z</time></trkpt><trkpt lat="37.41419091395221" lon="14.128418331808842"><ele>469.0</ele><time>2026-03-25T10:19:39.002Z</time></trkpt><trkpt lat="37.41424393782746" lon="14.128550615802316"><ele>469.75</ele><time>2026-03-25T10:19:40.002Z</time></trkpt><trkpt lat="37.414285864249095" lon="14.128670694586807"><ele>470.5</ele><time>2026-03-25T10:19:41.002Z</time></trkpt><trkpt lat="37.41431069362816" lon="14.128783451442366"><ele>471.25</ele><time>2026-03-25T10:19:42.002Z</time></trkpt><trkpt lat="37.41431873841915" lon="14.128911200447241"><ele>472.0</ele><time>2026-03-25T10:19:43.002Z</time></trkpt><trkpt lat="37.41432175605059" lon="14.129187207028776"><ele>473.25</ele><time>2026-03-25T10:19:45.002Z</time></trkpt><trkpt lat="37.41435988255685" lon="14.129327150021618"><ele>474.5</ele><time>2026-03-25T10:19:46.002Z</time></trkpt><trkpt lat="37.41443146594774" lon="14.129455233759696"><ele>475.75</ele><time>2026-03-25T10:19:47.002Z</time></trkpt><trkpt lat="37.41452295450466" lon="14.129567665380176"><ele>477.0</ele><time>2026-03-25T10:19:48.002Z</time></trkpt><trkpt lat="37.41463185168761" lon="14.129664441810707"><ele>476.0</ele><time>2026-03-25T10:19:49.002Z</time></trkpt><trkpt lat="37.41475140390497" lon="14.129753118567331"><ele>475.0</ele><time>2026-03-25T10:19:50.002Z</time></trkpt><trkpt lat="37.41486748792812" lon="14.129839307777171"><ele>474.0</ele><time>2026-03-25T10:19:51.002Z</time></trkpt><trkpt lat="37.414976167175496" lon="14.129962893812099"><ele>473.0</ele><time>2026-03-25T10:19:52.002Z</time></trkpt><trkpt lat="37.415072370804516" lon="14.130118404176146"><ele>473.0</ele><time>2026-03-25T10:19:53.002Z</time></trkpt><trkpt lat="37.41516571329476" lon="14.13027515890904"><ele>473.0</ele><time>2026-03-25T10:19:54.002Z</time></trkpt><trkpt lat="37.41526155201061" lon="14.13043096883165"><ele>473.0</ele><time>2026-03-25T10:19:55.002Z</time></trkpt><trkpt lat="37.41535815401327" lon="14.130587633328883"><ele>473.66666666666663</ele><time>2026-03-25T10:19:56.002Z</time></trkpt><trkpt lat="37.41545405042272" lon="14.13074281992449"><ele>474.33333333333337</ele><time>2026-03-25T10:19:57.002Z</time></trkpt><trkpt lat="37.415545515306746" lon="14.130910006138025"><ele>475.0</ele><time>2026-03-25T10:19:58.002Z</time></trkpt><trkpt lat="37.41562824325372" lon="14.131088316365375"><ele>475.0</ele><time>2026-03-25T10:19:59.002Z</time></trkpt><trkpt lat="37.41570046174248" lon="14.131274955481562"><ele>475.0</ele><time>2026-03-25T10:20:00.002Z</time></trkpt><trkpt lat="37.41576769749678" lon="14.131461792037543"><ele>475.0</ele><time>2026-03-25T10:20:01.002Z</time></trkpt><trkpt lat="37.415820879778785" lon="14.131651006050145"><ele>476.0</ele><time>2026-03-25T10:20:02.002Z</time></trkpt><trkpt lat="37.41586989027857" lon="14.13183511202841"><ele>477.0</ele><time>2026-03-25T10:20:03.002Z</time></trkpt><trkpt lat="37.41591897948399" lon="14.132022098904075"><ele>478.0</ele><time>2026-03-25T10:20:04.002Z</time></trkpt><trkpt lat="37.41596718297591" lon="14.13221001900786"><ele>478.0</ele><time>2026-03-25T10:20:05.002Z</time></trkpt><trkpt lat="37.41601282027981" lon="14.132388482771676"><ele>478.0</ele><time>2026-03-25T10:20:06.002Z</time></trkpt><trkpt lat="37.41605423777294" lon="14.132555106193374"><ele>478.0</ele><time>2026-03-25T10:20:07.002Z</time></trkpt><trkpt lat="37.416092634024785" lon="14.13271198169524"><ele>478.0</ele><time>2026-03-25T10:20:08.002Z</time></trkpt><trkpt lat="37.416129477960276" lon="14.132859519218613"><ele>478.0</ele><time>2026-03-25T10:20:09.002Z</time></trkpt><trkpt lat="37.41616493785973" lon="14.132999682974283"><ele>478.0</ele><time>2026-03-25T10:20:10.002Z</time></trkpt><trkpt lat="37.416199774400106" lon="14.133136433071842"><ele>478.0</ele><time>2026-03-25T10:20:11.002Z</time></trkpt><trkpt lat="37.416234731780484" lon="14.133277840865196"><ele>478.0</ele><time>2026-03-25T10:20:12.002Z</time></trkpt><trkpt lat="37.41627140958009" lon="14.13342521621571"><ele>478.5</ele><time>2026-03-25T10:20:13.002Z</time></trkpt><trkpt lat="37.416308408965655" lon="14.133573377542701"><ele>479.0</ele><time>2026-03-25T10:20:14.002Z</time></trkpt><trkpt lat="37.41634360069348" lon="14.133713883565262"><ele>479.5</ele><time>2026-03-25T10:20:15.002Z</time></trkpt><trkpt lat="37.41637462071276" lon="14.133846101337054"><ele>480.0</ele><time>2026-03-25T10:20:16.002Z</time></trkpt><trkpt lat="37.41640076163706" lon="14.133973348300763"><ele>478.6666666666667</ele><time>2026-03-25T10:20:17.002Z</time></trkpt><trkpt lat="37.416430676159095" lon="14.134092205986102"><ele>477.33333333333337</ele><time>2026-03-25T10:20:18.002Z</time></trkpt><trkpt lat="37.416462073652966" lon="14.13420183095006"><ele>476.0</ele><time>2026-03-25T10:20:19.002Z</time></trkpt><trkpt lat="37.41648954893123" lon="14.134307196346928"><ele>474.6666666666667</ele><time>2026-03-25T10:20:20.002Z</time></trkpt><trkpt lat="37.41651663175928" lon="14.134404842508221"><ele>473.33333333333337</ele><time>2026-03-25T10:20:21.002Z</time></trkpt><trkpt lat="37.41654198286905" lon="14.134492553299934"><ele>472.0</ele><time>2026-03-25T10:20:22.002Z</time></trkpt><trkpt lat="37.41656712081183" lon="14.134577034510233"><ele>472.00000000000006</ele><time>2026-03-25T10:20:23.002Z</time></trkpt><trkpt lat="37.416593535483045" lon="14.13467809435825"><ele>472.0</ele><time>2026-03-25T10:20:24.002Z</time></trkpt><trkpt lat="37.41661824329326" lon="14.13478777456577"><ele>472.0</ele><time>2026-03-25T10:20:25.002Z</time></trkpt><trkpt lat="37.41664367729231" lon="14.134895727771331"><ele>472.0</ele><time>2026-03-25T10:20:26.002Z</time></trkpt><trkpt lat="37.41666701527158" lon="14.134993768741365"><ele>472.00000000000006</ele><time>2026-03-25T10:20:27.002Z</time></trkpt><trkpt lat="37.416689397751945" lon="14.135084073165046"><ele>472.0</ele><time>2026-03-25T10:20:28.002Z</time></trkpt><trkpt lat="37.41671090586017" lon="14.135166408167015"><ele>472.1666666666667</ele><time>2026-03-25T10:20:29.002Z</time></trkpt><trkpt lat="37.41673158124658" lon="14.135244761431366"><ele>472.33333333333337</ele><time>2026-03-25T10:20:30.002Z</time></trkpt><trkpt lat="37.41675467612007" lon="14.13532600661452"><ele>472.5</ele><time>2026-03-25T10:20:31.002Z</time></trkpt><trkpt lat="37.41679073279328" lon="14.135467185270507"><ele>472.66666666666663</ele><time>2026-03-25T10:20:33.002Z</time></trkpt><trkpt lat="37.41681648731292" lon="14.13557326959706"><ele>472.8333333333333</ele><time>2026-03-25T10:20:35.002Z</time></trkpt><trkpt lat="37.416843608616354" lon="14.135658795992086"><ele>473.0</ele><time>2026-03-25T10:20:38.002Z</time></trkpt><trkpt lat="37.41687662400552" lon="14.135754502057138"><ele>473.16666666666663</ele><time>2026-03-25T10:21:17.003Z</time></trkpt><trkpt lat="37.41689618218151" lon="14.135852902714044"><ele>473.3333333333333</ele><time>2026-03-25T10:21:19.003Z</time></trkpt><trkpt lat="37.41691989466511" lon="14.135953553061775"><ele>473.5</ele><time>2026-03-25T10:21:21.004Z</time></trkpt><trkpt lat="37.416943269910526" lon="14.136034274257659"><ele>473.66666666666663</ele><time>2026-03-25T10:21:23.004Z</time></trkpt><trkpt lat="37.41697071188354" lon="14.136149796732111"><ele>473.8333333333333</ele><time>2026-03-25T10:21:26.004Z</time></trkpt><trkpt lat="37.416991159742665" lon="14.136277873767598"><ele>474.0</ele><time>2026-03-25T10:21:28.004Z</time></trkpt><trkpt lat="37.41700445521914" lon="14.136389742502"><ele>474.0</ele><time>2026-03-25T10:21:30.004Z</time></trkpt><trkpt lat="37.41700853572759" lon="14.13647360929586"><ele>474.0</ele><time>2026-03-25T10:21:32.004Z</time></trkpt><trkpt lat="37.41700777756237" lon="14.136567679870936"><ele>474.0</ele><time>2026-03-25T10:21:34.004Z</time></trkpt><trkpt lat="37.41699880400718" lon="14.13667920252825"><ele>474.0</ele><time>2026-03-25T10:21:36.004Z</time></trkpt><trkpt lat="37.416962309515455" lon="14.13682503231189"><ele>474.0</ele><time>2026-03-25T10:21:38.004Z</time></trkpt><trkpt lat="37.41690826660523" lon="14.13696457688154"><ele>474.1666666666667</ele><time>2026-03-25T10:21:40.004Z</time></trkpt><trkpt lat="37.416879771350956" lon="14.137046099650492"><ele>474.33333333333337</ele><time>2026-03-25T10:21:41.004Z</time></trkpt><trkpt lat="37.41684935561757" lon="14.13713615181703"><ele>474.5</ele><time>2026-03-25T10:21:42.004Z</time></trkpt><trkpt lat="37.4168183844827" lon="14.13723256830096"><ele>474.6666666666667</ele><time>2026-03-25T10:21:43.002Z</time></trkpt><trkpt lat="37.416786426273056" lon="14.137325385144292"><ele>474.83333333333337</ele><time>2026-03-25T10:21:44.002Z</time></trkpt><trkpt lat="37.41675721726358" lon="14.137409553229888"><ele>475.0</ele><time>2026-03-25T10:21:45.002Z</time></trkpt><trkpt lat="37.41672640880693" lon="14.137498993565934"><ele>474.33333333333337</ele><time>2026-03-25T10:21:46.002Z</time></trkpt><trkpt lat="37.416691540168806" lon="14.137591450130897"><ele>473.6666666666667</ele><time>2026-03-25T10:21:47.002Z</time></trkpt><trkpt lat="37.41665668253121" lon="14.13768822465738"><ele>473.0</ele><time>2026-03-25T10:21:48.002Z</time></trkpt><trkpt lat="37.416621543041664" lon="14.137787759200277"><ele>472.33333333333337</ele><time>2026-03-25T10:21:49.002Z</time></trkpt><trkpt lat="37.41658337807206" lon="14.137892530707433"><ele>471.6666666666667</ele><time>2026-03-25T10:21:50.002Z</time></trkpt><trkpt lat="37.41654355126803" lon="14.13800611528782"><ele>471.0</ele><time>2026-03-25T10:21:51.002Z</time></trkpt><trkpt lat="37.416502997730326" lon="14.13812725772324"><ele>470.8333333333333</ele><time>2026-03-25T10:21:52.002Z</time></trkpt><trkpt lat="37.41646212300719" lon="14.138248788801533"><ele>470.66666666666663</ele><time>2026-03-25T10:21:53.002Z</time></trkpt><trkpt lat="37.41642485985894" lon="14.138355978403588"><ele>470.5</ele><time>2026-03-25T10:21:54.002Z</time></trkpt><trkpt lat="37.416393821498566" lon="14.138444309528209"><ele>470.3333333333333</ele><time>2026-03-25T10:21:55.002Z</time></trkpt><trkpt lat="37.41636805968122" lon="14.138518843077568"><ele>470.16666666666663</ele><time>2026-03-25T10:21:56.002Z</time></trkpt><trkpt lat="37.41633951874445" lon="14.13859051453347"><ele>470.0</ele><time>2026-03-25T10:21:57.002Z</time></trkpt><trkpt lat="37.41631152155805" lon="14.13866972452635"><ele>469.66666666666663</ele><time>2026-03-25T10:21:58.002Z</time></trkpt><trkpt lat="37.41628075046993" lon="14.138758270334622"><ele>469.3333333333333</ele><time>2026-03-25T10:21:59.002Z</time></trkpt><trkpt lat="37.41624716820851" lon="14.138856259771497"><ele>469.0</ele><time>2026-03-25T10:22:00.002Z</time></trkpt><trkpt lat="37.41621048778997" lon="14.138958963795583"><ele>468.66666666666663</ele><time>2026-03-25T10:22:01.002Z</time></trkpt><trkpt lat="37.41617463496698" lon="14.139049329919077"><ele>468.3333333333333</ele><time>2026-03-25T10:22:02.002Z</time></trkpt><trkpt lat="37.4161418180848" lon="14.139127154679025"><ele>468.0</ele><time>2026-03-25T10:22:03.002Z</time></trkpt><trkpt lat="37.41608230959481" lon="14.139260489105569"><ele>468.0</ele><time>2026-03-25T10:22:05.002Z</time></trkpt><trkpt lat="37.41604842629627" lon="14.139338620030431"><ele>468.0</ele><time>2026-03-25T10:22:06.002Z</time></trkpt><trkpt lat="37.41601272348451" lon="14.139427523603342"><ele>468.0</ele><time>2026-03-25T10:22:07.002Z</time></trkpt><trkpt lat="37.415972193137364" lon="14.139522382256922"><ele>468.0</ele><time>2026-03-25T10:22:08.002Z</time></trkpt><trkpt lat="37.415931914760804" lon="14.139616922833566"><ele>468.0</ele><time>2026-03-25T10:22:09.002Z</time></trkpt><trkpt lat="37.415892433666656" lon="14.139701529620034"><ele>468.0</ele><time>2026-03-25T10:22:10.002Z</time></trkpt><trkpt lat="37.41585207709047" lon="14.139786611834472"><ele>468.0</ele><time>2026-03-25T10:22:11.002Z</time></trkpt><trkpt lat="37.415808718804996" lon="14.139875263914599"><ele>468.0</ele><time>2026-03-25T10:22:12.002Z</time></trkpt><trkpt lat="37.41576407016863" lon="14.139964582345021"><ele>468.0</ele><time>2026-03-25T10:22:13.002Z</time></trkpt><trkpt lat="37.415718866170636" lon="14.140054160299835"><ele>468.0</ele><time>2026-03-25T10:22:14.002Z</time></trkpt><trkpt lat="37.41567261113149" lon="14.140149999374982"><ele>468.0</ele><time>2026-03-25T10:22:15.002Z</time></trkpt><trkpt lat="37.415624806192355" lon="14.140248977199576"><ele>468.0</ele><time>2026-03-25T10:22:16.002Z</time></trkpt><trkpt lat="37.41557637879481" lon="14.140352422628117"><ele>467.5</ele><time>2026-03-25T10:22:17.002Z</time></trkpt><trkpt lat="37.41553507216499" lon="14.14044065335684"><ele>467.0</ele><time>2026-03-25T10:22:18.002Z</time></trkpt><trkpt lat="37.41549956394784" lon="14.140522583762042"><ele>466.5</ele><time>2026-03-25T10:22:19.002Z</time></trkpt><trkpt lat="37.415466067161205" lon="14.140603518574402"><ele>466.0</ele><time>2026-03-25T10:22:20.002Z</time></trkpt><trkpt lat="37.41543224483617" lon="14.140690786377483"><ele>465.5</ele><time>2026-03-25T10:22:21.002Z</time></trkpt><trkpt lat="37.41539329112826" lon="14.140783365076869"><ele>465.0</ele><time>2026-03-25T10:22:22.002Z</time></trkpt><trkpt lat="37.41535752776749" lon="14.140868701961605"><ele>464.2857142857143</ele><time>2026-03-25T10:22:23.002Z</time></trkpt><trkpt lat="37.41532624961302" lon="14.140947932708734"><ele>463.57142857142856</ele><time>2026-03-25T10:22:24.002Z</time></trkpt><trkpt lat="37.41529556501559" lon="14.141018890792262"><ele>462.85714285714283</ele><time>2026-03-25T10:22:25.002Z</time></trkpt><trkpt lat="37.415268804390756" lon="14.141092042181446"><ele>462.1428571428571</ele><time>2026-03-25T10:22:26.002Z</time></trkpt><trkpt lat="37.41523592079109" lon="14.141171772201378"><ele>461.42857142857144</ele><time>2026-03-25T10:22:27.002Z</time></trkpt><trkpt lat="37.41520202804592" lon="14.141251228456731"><ele>460.71428571428567</ele><time>2026-03-25T10:22:28.002Z</time></trkpt><trkpt lat="37.4151733830066" lon="14.141322711001747"><ele>459.99999999999994</ele><time>2026-03-25T10:22:29.002Z</time></trkpt><trkpt lat="37.415120873558934" lon="14.141451396384307"><ele>459.50000000000006</ele><time>2026-03-25T10:22:31.002Z</time></trkpt><trkpt lat="37.41506496909527" lon="14.14158403056404"><ele>459.0</ele><time>2026-03-25T10:22:33.002Z</time></trkpt><trkpt lat="37.41502669341107" lon="14.141672355860749"><ele>458.5</ele><time>2026-03-25T10:22:35.002Z</time></trkpt><trkpt lat="37.415005300632664" lon="14.141751064159749"><ele>458.0</ele><time>2026-03-25T10:22:39.002Z</time></trkpt><trkpt lat="37.41497343317347" lon="14.141850542130035"><ele>457.50000000000006</ele><time>2026-03-25T10:22:43.001Z</time></trkpt><trkpt lat="37.41493873223808" lon="14.141948405163761"><ele>457.0</ele><time>2026-03-25T10:22:45.002Z</time></trkpt><trkpt lat="37.414898385861534" lon="14.142067020562962"><ele>457.0</ele><time>2026-03-25T10:22:47.002Z</time></trkpt><trkpt lat="37.41492812889957" lon="14.142188920137336"><ele>457.00000000000006</ele><time>2026-03-25T10:22:49.002Z</time></trkpt><trkpt lat="37.4150370088098" lon="14.142282164927838"><ele>457.00000000000006</ele><time>2026-03-25T10:22:51.002Z</time></trkpt><trkpt lat="37.41510446378852" lon="14.142326927382772"><ele>457.0</ele><time>2026-03-25T10:22:52.002Z</time></trkpt><trkpt lat="37.415173189563994" lon="14.14237639629695"><ele>457.0</ele><time>2026-03-25T10:22:53.002Z</time></trkpt><trkpt lat="37.41524913341626" lon="14.142441264309179"><ele>457.0</ele><time>2026-03-25T10:22:54.002Z</time></trkpt><trkpt lat="37.415334290351815" lon="14.142514749191859"><ele>457.00000000000006</ele><time>2026-03-25T10:22:55.002Z</time></trkpt><trkpt lat="37.41542815457666" lon="14.142584501727425"><ele>457.00000000000006</ele><time>2026-03-25T10:22:56.002Z</time></trkpt><trkpt lat="37.415520019671824" lon="14.142649110268097"><ele>457.0</ele><time>2026-03-25T10:22:57.002Z</time></trkpt><trkpt lat="37.41560705281295" lon="14.142709581452108"><ele>457.0</ele><time>2026-03-25T10:22:58.002Z</time></trkpt><trkpt lat="37.415699124066265" lon="14.142770773894362"><ele>457.0</ele><time>2026-03-25T10:22:59.002Z</time></trkpt><trkpt lat="37.4157854844568" lon="14.14282690871749"><ele>457.00000000000006</ele><time>2026-03-25T10:23:00.002Z</time></trkpt><trkpt lat="37.4158701212682" lon="14.142884055047826"><ele>457.00000000000006</ele><time>2026-03-25T10:23:01.002Z</time></trkpt><trkpt lat="37.415956861665464" lon="14.14294513000238"><ele>457.0</ele><time>2026-03-25T10:23:02.002Z</time></trkpt><trkpt lat="37.41604540320206" lon="14.143009151825874"><ele>457.0</ele><time>2026-03-25T10:23:03.002Z</time></trkpt><trkpt lat="37.41613773099228" lon="14.143071320084847"><ele>457.0</ele><time>2026-03-25T10:23:04.002Z</time></trkpt><trkpt lat="37.41623214155883" lon="14.143135007020126"><ele>457.00000000000006</ele><time>2026-03-25T10:23:05.002Z</time></trkpt><trkpt lat="37.41632396196608" lon="14.14319849131008"><ele>457.00000000000006</ele><time>2026-03-25T10:23:06.002Z</time></trkpt><trkpt lat="37.41641269483981" lon="14.143258266927887"><ele>457.0</ele><time>2026-03-25T10:23:07.002Z</time></trkpt><trkpt lat="37.41650244972883" lon="14.143321860124964"><ele>457.0</ele><time>2026-03-25T10:23:08.002Z</time></trkpt><trkpt lat="37.41659623304631" lon="14.143388940411514"><ele>457.33333333333337</ele><time>2026-03-25T10:23:09.002Z</time></trkpt><trkpt lat="37.41679448800582" lon="14.143560750974226"><ele>457.66666666666663</ele><time>2026-03-25T10:23:11.002Z</time></trkpt><trkpt lat="37.41689728017612" lon="14.143662735688157"><ele>458.0</ele><time>2026-03-25T10:23:12.002Z</time></trkpt><trkpt lat="37.41699721757228" lon="14.143772481694285"><ele>458.0</ele><time>2026-03-25T10:23:13.002Z</time></trkpt><trkpt lat="37.417097533863604" lon="14.143891556192697"><ele>458.0</ele><time>2026-03-25T10:23:14.002Z</time></trkpt><trkpt lat="37.41719149621253" lon="14.144017742428604"><ele>458.0</ele><time>2026-03-25T10:23:15.002Z</time></trkpt><trkpt lat="37.417279684024344" lon="14.144149395732983"><ele>458.0</ele><time>2026-03-25T10:23:16.002Z</time></trkpt><trkpt lat="37.41735945296199" lon="14.14428396393896"><ele>458.0</ele><time>2026-03-25T10:23:17.002Z</time></trkpt><trkpt lat="37.41743180939587" lon="14.144418407103169"><ele>458.0</ele><time>2026-03-25T10:23:18.002Z</time></trkpt><trkpt lat="37.41749830217775" lon="14.144543747610907"><ele>458.0</ele><time>2026-03-25T10:23:19.002Z</time></trkpt><trkpt lat="37.417559680023686" lon="14.14465906312053"><ele>458.0</ele><time>2026-03-25T10:23:20.002Z</time></trkpt><trkpt lat="37.417615195685194" lon="14.14476561632242"><ele>458.0</ele><time>2026-03-25T10:23:21.002Z</time></trkpt><trkpt lat="37.41766726193214" lon="14.144865420654806"><ele>457.99999999999994</ele><time>2026-03-25T10:23:22.002Z</time></trkpt><trkpt lat="37.417720629035806" lon="14.144966528374617"><ele>457.99999999999994</ele><time>2026-03-25T10:23:23.002Z</time></trkpt><trkpt lat="37.41778080332746" lon="14.14506988247041"><ele>458.0</ele><time>2026-03-25T10:23:24.002Z</time></trkpt><trkpt lat="37.417842302851604" lon="14.14517356698015"><ele>458.0</ele><time>2026-03-25T10:23:25.002Z</time></trkpt><trkpt lat="37.41790502607762" lon="14.145287436783866"><ele>458.0</ele><time>2026-03-25T10:23:26.002Z</time></trkpt><trkpt lat="37.41796850126646" lon="14.145407199482504"><ele>458.0</ele><time>2026-03-25T10:23:27.002Z</time></trkpt><trkpt lat="37.41803232419899" lon="14.14553955941317"><ele>458.0</ele><time>2026-03-25T10:23:28.002Z</time></trkpt><trkpt lat="37.41810244945391" lon="14.145683272339896"><ele>458.0</ele><time>2026-03-25T10:23:29.002Z</time></trkpt><trkpt lat="37.418173507739894" lon="14.145839248591596"><ele>458.0</ele><time>2026-03-25T10:23:30.002Z</time></trkpt><trkpt lat="37.41823875515058" lon="14.146008193283766"><ele>458.0</ele><time>2026-03-25T10:23:31.002Z</time></trkpt><trkpt lat="37.41829760644732" lon="14.146184003219629"><ele>458.0</ele><time>2026-03-25T10:23:32.003Z</time></trkpt><trkpt lat="37.41835258470915" lon="14.14636501690991"><ele>458.0</ele><time>2026-03-25T10:23:33.003Z</time></trkpt><trkpt lat="37.418404211120944" lon="14.1465384304105"><ele>458.0</ele><time>2026-03-25T10:23:34.003Z</time></trkpt><trkpt lat="37.418455369431605" lon="14.146714795193963"><ele>458.0</ele><time>2026-03-25T10:23:35.003Z</time></trkpt><trkpt lat="37.41850629608523" lon="14.146891320951088"><ele>458.0</ele><time>2026-03-25T10:23:36.003Z</time></trkpt><trkpt lat="37.4185570856265" lon="14.147065753208846"><ele>458.5</ele><time>2026-03-25T10:23:37.003Z</time></trkpt><trkpt lat="37.41860302912585" lon="14.147231506412552"><ele>459.0</ele><time>2026-03-25T10:23:38.003Z</time></trkpt><trkpt lat="37.41864807472224" lon="14.147392544621772"><ele>459.5</ele><time>2026-03-25T10:23:39.003Z</time></trkpt><trkpt lat="37.4186924731223" lon="14.147552518967636"><ele>460.0</ele><time>2026-03-25T10:23:40.003Z</time></trkpt><trkpt lat="37.41873198991847" lon="14.147715137812044"><ele>461.0</ele><time>2026-03-25T10:23:41.003Z</time></trkpt><trkpt lat="37.418759955236425" lon="14.147884135152232"><ele>462.0</ele><time>2026-03-25T10:23:42.003Z</time></trkpt><trkpt lat="37.41877244747362" lon="14.14805861863673"><ele>463.0</ele><time>2026-03-25T10:23:43.003Z</time></trkpt><trkpt lat="37.41877238270007" lon="14.148240910497737"><ele>464.0</ele><time>2026-03-25T10:23:44.003Z</time></trkpt><trkpt lat="37.41876234145322" lon="14.148427669498167"><ele>465.75</ele><time>2026-03-25T10:23:45.003Z</time></trkpt><trkpt lat="37.41875131276562" lon="14.148609732410764"><ele>467.5</ele><time>2026-03-25T10:23:46.003Z</time></trkpt><trkpt lat="37.41873934541712" lon="14.148776585177623"><ele>469.25</ele><time>2026-03-25T10:23:47.003Z</time></trkpt><trkpt lat="37.41872745805618" lon="14.14893560819435"><ele>471.0</ele><time>2026-03-25T10:23:48.003Z</time></trkpt><trkpt lat="37.418715984454224" lon="14.149098366940823"><ele>472.75</ele><time>2026-03-25T10:23:49.001Z</time></trkpt><trkpt lat="37.41870504591907" lon="14.149255854767793"><ele>474.5</ele><time>2026-03-25T10:23:50.001Z</time></trkpt><trkpt lat="37.41869720804517" lon="14.149406949338355"><ele>476.25</ele><time>2026-03-25T10:23:51.001Z</time></trkpt><trkpt lat="37.41870332254597" lon="14.149557947306556"><ele>478.0</ele><time>2026-03-25T10:23:52.001Z</time></trkpt><trkpt lat="37.41872708760241" lon="14.149705700210342"><ele>478.0</ele><time>2026-03-25T10:23:53.001Z</time></trkpt><trkpt lat="37.418767962527724" lon="14.149850663937297"><ele>478.0</ele><time>2026-03-25T10:23:54.001Z</time></trkpt><trkpt lat="37.41882176140885" lon="14.149992519717665"><ele>478.0</ele><time>2026-03-25T10:23:55.001Z</time></trkpt><trkpt lat="37.41887884556497" lon="14.15013204585253"><ele>478.0</ele><time>2026-03-25T10:23:56.001Z</time></trkpt><trkpt lat="37.418928234059884" lon="14.150273260720883"><ele>475.25</ele><time>2026-03-25T10:23:57.001Z</time></trkpt><trkpt lat="37.4189651853846" lon="14.150432147498652"><ele>472.5</ele><time>2026-03-25T10:23:58.001Z</time></trkpt><trkpt lat="37.41898464364475" lon="14.150604766783738"><ele>469.75</ele><time>2026-03-25T10:23:59.001Z</time></trkpt><trkpt lat="37.41898747814797" lon="14.150788502482731"><ele>467.0</ele><time>2026-03-25T10:24:00.001Z</time></trkpt><trkpt lat="37.41897840393633" lon="14.150977484377531"><ele>467.0</ele><time>2026-03-25T10:24:01.001Z</time></trkpt><trkpt lat="37.41896773431058" lon="14.15116440612238"><ele>467.0</ele><time>2026-03-25T10:24:02.001Z</time></trkpt><trkpt lat="37.41895963446259" lon="14.151325906370706"><ele>467.0</ele><time>2026-03-25T10:24:03.001Z</time></trkpt><trkpt lat="37.41895539303419" lon="14.151476828818316"><ele>467.0</ele><time>2026-03-25T10:24:04.001Z</time></trkpt><trkpt lat="37.41895532280112" lon="14.151631257054662"><ele>467.25</ele><time>2026-03-25T10:24:05.001Z</time></trkpt><trkpt lat="37.41895925484507" lon="14.151795277733312"><ele>467.5</ele><time>2026-03-25T10:24:06.001Z</time></trkpt><trkpt lat="37.41896600397588" lon="14.151943540583735"><ele>467.75</ele><time>2026-03-25T10:24:07.001Z</time></trkpt><trkpt lat="37.41898070430591" lon="14.152105381333929"><ele>468.0</ele><time>2026-03-25T10:24:08.001Z</time></trkpt><trkpt lat="37.41900069176596" lon="14.15226610460075"><ele>469.5</ele><time>2026-03-25T10:24:09.001Z</time></trkpt><trkpt lat="37.41902203634308" lon="14.152420825268843"><ele>471.0</ele><time>2026-03-25T10:24:10.001Z</time></trkpt><trkpt lat="37.41904297150563" lon="14.15258409725212"><ele>472.5</ele><time>2026-03-25T10:24:11.001Z</time></trkpt><trkpt lat="37.41906404347025" lon="14.152749678957607"><ele>474.0</ele><time>2026-03-25T10:24:12.001Z</time></trkpt><trkpt lat="37.41908437511449" lon="14.152916422712476"><ele>474.0</ele><time>2026-03-25T10:24:13.001Z</time></trkpt><trkpt lat="37.41910377068089" lon="14.15308063333881"><ele>474.0</ele><time>2026-03-25T10:24:14.001Z</time></trkpt><trkpt lat="37.419125337131824" lon="14.153239524006887"><ele>474.0</ele><time>2026-03-25T10:24:15.001Z</time></trkpt><trkpt lat="37.419145095343616" lon="14.153403969905165"><ele>474.0</ele><time>2026-03-25T10:24:16.001Z</time></trkpt><trkpt lat="37.41916545751293" lon="14.153569699779554"><ele>475.25</ele><time>2026-03-25T10:24:17.001Z</time></trkpt><trkpt lat="37.41919081206156" lon="14.153733301193116"><ele>476.5</ele><time>2026-03-25T10:24:18.001Z</time></trkpt><trkpt lat="37.41921539540298" lon="14.153880990524176"><ele>477.75</ele><time>2026-03-25T10:24:19.001Z</time></trkpt><trkpt lat="37.41923981147204" lon="14.15401241613779"><ele>479.0</ele><time>2026-03-25T10:24:20.001Z</time></trkpt><trkpt lat="37.419264545580226" lon="14.15414873906338"><ele>480.25</ele><time>2026-03-25T10:24:21.001Z</time></trkpt><trkpt lat="37.41928957914158" lon="14.154293847843855"><ele>481.5</ele><time>2026-03-25T10:24:22.001Z</time></trkpt><trkpt lat="37.41931646366494" lon="14.154447330587779"><ele>482.75</ele><time>2026-03-25T10:24:23.001Z</time></trkpt><trkpt lat="37.419342894709516" lon="14.15460760383399"><ele>484.0</ele><time>2026-03-25T10:24:24.001Z</time></trkpt><trkpt lat="37.41936843423793" lon="14.154764501077658"><ele>484.25</ele><time>2026-03-25T10:24:25.001Z</time></trkpt><trkpt lat="37.41939131424949" lon="14.15492266637535"><ele>484.5</ele><time>2026-03-25T10:24:26.001Z</time></trkpt><trkpt lat="37.41941269174169" lon="14.155072261319773"><ele>484.75</ele><time>2026-03-25T10:24:27.001Z</time></trkpt><trkpt lat="37.419438695569525" lon="14.155225409055003"><ele>485.0</ele><time>2026-03-25T10:24:28.001Z</time></trkpt><trkpt lat="37.41947143853859" lon="14.155374116290696"><ele>485.0</ele><time>2026-03-25T10:24:29.001Z</time></trkpt><trkpt lat="37.41951606516982" lon="14.155527964595967"><ele>485.0</ele><time>2026-03-25T10:24:30.001Z</time></trkpt><trkpt lat="37.41957373110638" lon="14.155682321173018"><ele>485.0</ele><time>2026-03-25T10:24:31.001Z</time></trkpt><trkpt lat="37.41964210859098" lon="14.1558330065831"><ele>485.0</ele><time>2026-03-25T10:24:32.001Z</time></trkpt><trkpt lat="37.41971930467231" lon="14.15598318132498"><ele>483.75</ele><time>2026-03-25T10:24:33.001Z</time></trkpt><trkpt lat="37.41980949836736" lon="14.156132184838432"><ele>482.5</ele><time>2026-03-25T10:24:34.001Z</time></trkpt><trkpt lat="37.419902011710725" lon="14.156269957167682"><ele>481.25</ele><time>2026-03-25T10:24:35.001Z</time></trkpt><trkpt lat="37.41999085673797" lon="14.156397501616855"><ele>480.0</ele><time>2026-03-25T10:24:36.001Z</time></trkpt><trkpt lat="37.42008477615351" lon="14.15651319487096"><ele>481.0</ele><time>2026-03-25T10:24:37.001Z</time></trkpt><trkpt lat="37.42017685267468" lon="14.156625536635165"><ele>482.0</ele><time>2026-03-25T10:24:38.001Z</time></trkpt><trkpt lat="37.4202613391283" lon="14.156740795510078"><ele>483.0</ele><time>2026-03-25T10:24:39.001Z</time></trkpt><trkpt lat="37.420333964314075" lon="14.156870837776276"><ele>484.0</ele><time>2026-03-25T10:24:40.001Z</time></trkpt><trkpt lat="37.42039762497834" lon="14.157011268903263"><ele>484.0</ele><time>2026-03-25T10:24:41.001Z</time></trkpt><trkpt lat="37.420444524032646" lon="14.15717085571247"><ele>484.0</ele><time>2026-03-25T10:24:42.001Z</time></trkpt><trkpt lat="37.42047379911691" lon="14.157340995426262"><ele>484.0</ele><time>2026-03-25T10:24:43.001Z</time></trkpt><trkpt lat="37.42050087853577" lon="14.157512202681898"><ele>484.0</ele><time>2026-03-25T10:24:44.001Z</time></trkpt><trkpt lat="37.42052974967366" lon="14.15768468918276"><ele>484.33333333333337</ele><time>2026-03-25T10:24:45.001Z</time></trkpt><trkpt lat="37.42055340408353" lon="14.15786003912726"><ele>484.66666666666663</ele><time>2026-03-25T10:24:46.001Z</time></trkpt><trkpt lat="37.42059084630081" lon="14.158051208477218"><ele>485.0</ele><time>2026-03-25T10:24:47.001Z</time></trkpt><trkpt lat="37.42061378898306" lon="14.15828417586389"><ele>485.3333333333333</ele><time>2026-03-25T10:24:48.001Z</time></trkpt><trkpt lat="37.420653859147755" lon="14.15854134564397"><ele>485.66666666666663</ele><time>2026-03-25T10:24:49.001Z</time></trkpt><trkpt lat="37.42070538514389" lon="14.158810736980946"><ele>486.0</ele><time>2026-03-25T10:24:50.001Z</time></trkpt><trkpt lat="37.42074259181772" lon="14.159105833060142"><ele>486.0</ele><time>2026-03-25T10:24:51.001Z</time></trkpt><trkpt lat="37.420783766181955" lon="14.15939667066516"><ele>486.0</ele><time>2026-03-25T10:24:52.001Z</time></trkpt><trkpt lat="37.42082887348115" lon="14.159679711308277"><ele>485.0</ele><time>2026-03-25T10:24:53.001Z</time></trkpt><trkpt lat="37.4208731955729" lon="14.159958491214708"><ele>484.0</ele><time>2026-03-25T10:24:54.001Z</time></trkpt><trkpt lat="37.420920149944834" lon="14.160238077074935"><ele>484.0</ele><time>2026-03-25T10:24:55.001Z</time></trkpt><trkpt lat="37.420963820939484" lon="14.16051398758055"><ele>484.0</ele><time>2026-03-25T10:24:56.001Z</time></trkpt><trkpt lat="37.42100226196885" lon="14.160783605736901"><ele>484.0</ele><time>2026-03-25T10:24:57.001Z</time></trkpt><trkpt lat="37.42103384790745" lon="14.161041571325477"><ele>482.6666666666667</ele><time>2026-03-25T10:24:58.001Z</time></trkpt><trkpt lat="37.4210612479081" lon="14.161294888387468"><ele>481.33333333333337</ele><time>2026-03-25T10:24:59.001Z</time></trkpt><trkpt lat="37.4210865886709" lon="14.161555799197236"><ele>480.0</ele><time>2026-03-25T10:25:00.001Z</time></trkpt><trkpt lat="37.421107052290566" lon="14.16181942656323"><ele>480.0</ele><time>2026-03-25T10:25:01.001Z</time></trkpt><trkpt lat="37.4211193655521" lon="14.162090102897212"><ele>480.0</ele><time>2026-03-25T10:25:02.001Z</time></trkpt><trkpt lat="37.42112318508817" lon="14.162362057143993"><ele>480.0</ele><time>2026-03-25T10:25:03.002Z</time></trkpt><trkpt lat="37.42111578141974" lon="14.162635035475178"><ele>480.0</ele><time>2026-03-25T10:25:04.002Z</time></trkpt><trkpt lat="37.4211024135021" lon="14.162905213996854"><ele>480.0</ele><time>2026-03-25T10:25:05.002Z</time></trkpt><trkpt lat="37.42108111052881" lon="14.16317601516468"><ele>480.0</ele><time>2026-03-25T10:25:06.002Z</time></trkpt><trkpt lat="37.42105686239866" lon="14.163445125976244"><ele>480.33333333333337</ele><time>2026-03-25T10:25:07.002Z</time></trkpt><trkpt lat="37.42103038608441" lon="14.16371380867435"><ele>480.6666666666667</ele><time>2026-03-25T10:25:08.002Z</time></trkpt><trkpt lat="37.42099955951176" lon="14.1639832758636"><ele>481.0</ele><time>2026-03-25T10:25:09.002Z</time></trkpt><trkpt lat="37.42096481966627" lon="14.16425132739798"><ele>481.33333333333337</ele><time>2026-03-25T10:25:10.002Z</time></trkpt><trkpt lat="37.42092703222129" lon="14.164518830649035"><ele>481.66666666666663</ele><time>2026-03-25T10:25:11.002Z</time></trkpt><trkpt lat="37.42088433134086" lon="14.164781840011218"><ele>482.0</ele><time>2026-03-25T10:25:12.002Z</time></trkpt><trkpt lat="37.420839526349035" lon="14.165039320289495"><ele>482.3333333333333</ele><time>2026-03-25T10:25:13.002Z</time></trkpt><trkpt lat="37.4207979743687" lon="14.165280905445712"><ele>482.66666666666663</ele><time>2026-03-25T10:25:14.002Z</time></trkpt><trkpt lat="37.42075822458222" lon="14.165516522294435"><ele>483.0</ele><time>2026-03-25T10:25:15.002Z</time></trkpt><trkpt lat="37.420719275946496" lon="14.165757302672077"><ele>482.33333333333337</ele><time>2026-03-25T10:25:16.002Z</time></trkpt><trkpt lat="37.42067803538382" lon="14.16599778694338"><ele>481.6666666666667</ele><time>2026-03-25T10:25:17.002Z</time></trkpt><trkpt lat="37.420636838276195" lon="14.166240658936381"><ele>481.0</ele><time>2026-03-25T10:25:18.002Z</time></trkpt><trkpt lat="37.4205931703504" lon="14.166487850657933"><ele>480.6666666666667</ele><time>2026-03-25T10:25:19.002Z</time></trkpt><trkpt lat="37.42054888713704" lon="14.166741273477978"><ele>480.33333333333337</ele><time>2026-03-25T10:25:20.002Z</time></trkpt><trkpt lat="37.42049969635175" lon="14.166999114347131"><ele>480.0</ele><time>2026-03-25T10:25:21.002Z</time></trkpt><trkpt lat="37.42045013918638" lon="14.167260914777144"><ele>481.0</ele><time>2026-03-25T10:25:22.002Z</time></trkpt><trkpt lat="37.42040611294487" lon="14.167530697265533"><ele>482.0</ele><time>2026-03-25T10:25:23.002Z</time></trkpt><trkpt lat="37.42033859620241" lon="14.167800495071608"><ele>483.0</ele><time>2026-03-25T10:25:24.002Z</time></trkpt><trkpt lat="37.42030160176135" lon="14.1680828943494"><ele>482.5</ele><time>2026-03-25T10:25:25.002Z</time></trkpt><trkpt lat="37.420230061921" lon="14.168353557297651"><ele>482.0</ele><time>2026-03-25T10:25:26.002Z</time></trkpt><trkpt lat="37.420174193505424" lon="14.16863058094731"><ele>482.0</ele><time>2026-03-25T10:25:27.002Z</time></trkpt><trkpt lat="37.42013359162278" lon="14.168912980078597"><ele>482.0</ele><time>2026-03-25T10:25:28.002Z</time></trkpt><trkpt lat="37.42007541548048" lon="14.169186662287911"><ele>481.0</ele><time>2026-03-25T10:25:29.002Z</time></trkpt><trkpt lat="37.42001915528901" lon="14.169467931598378"><ele>480.0</ele><time>2026-03-25T10:25:30.002Z</time></trkpt><trkpt lat="37.41996175785679" lon="14.169752720959686"><ele>480.0</ele><time>2026-03-25T10:25:31.002Z</time></trkpt><trkpt lat="37.419904794629126" lon="14.170040933721507"><ele>480.0</ele><time>2026-03-25T10:25:32.002Z</time></trkpt><trkpt lat="37.419846606267626" lon="14.170330794593225"><ele>480.0</ele><time>2026-03-25T10:25:33.002Z</time></trkpt><trkpt lat="37.41978655879509" lon="14.170623956572523"><ele>480.0</ele><time>2026-03-25T10:25:34.002Z</time></trkpt><trkpt lat="37.4197260743457" lon="14.170918984084338"><ele>479.5</ele><time>2026-03-25T10:25:35.002Z</time></trkpt><trkpt lat="37.41966653068993" lon="14.17121306960182"><ele>479.0</ele><time>2026-03-25T10:25:36.002Z</time></trkpt><trkpt lat="37.41960825965947" lon="14.171508461494644"><ele>478.5</ele><time>2026-03-25T10:25:37.002Z</time></trkpt><trkpt lat="37.41954844129178" lon="14.171806971919821"><ele>478.0</ele><time>2026-03-25T10:25:38.002Z</time></trkpt><trkpt lat="37.419487843360415" lon="14.172105111591245"><ele>479.0</ele><time>2026-03-25T10:25:39.002Z</time></trkpt><trkpt lat="37.41942469726959" lon="14.172405788149703"><ele>480.0</ele><time>2026-03-25T10:25:40.002Z</time></trkpt><trkpt lat="37.41936061639777" lon="14.172706173614781"><ele>480.0</ele><time>2026-03-25T10:25:41.002Z</time></trkpt><trkpt lat="37.41929751059663" lon="14.173006263462124"><ele>480.0</ele><time>2026-03-25T10:25:42.002Z</time></trkpt><trkpt lat="37.41916096349465" lon="14.173280678017"><ele>480.0</ele><time>2026-03-25T10:25:43.002Z</time></trkpt><trkpt lat="37.41917698025735" lon="14.173601610205697"><ele>480.0</ele><time>2026-03-25T10:25:44.002Z</time></trkpt><trkpt lat="37.41911864838766" lon="14.173896517361628"><ele>479.0</ele><time>2026-03-25T10:25:45.002Z</time></trkpt><trkpt lat="37.41905840513551" lon="14.174197019357896"><ele>478.0</ele><time>2026-03-25T10:25:46.002Z</time></trkpt><trkpt lat="37.418997959321544" lon="14.174494987704088"><ele>478.0</ele><time>2026-03-25T10:25:47.002Z</time></trkpt><trkpt lat="37.41893683631601" lon="14.174792433053415"><ele>478.0</ele><time>2026-03-25T10:25:48.002Z</time></trkpt><trkpt lat="37.418875912601415" lon="14.175090183375634"><ele>479.0</ele><time>2026-03-25T10:25:49.002Z</time></trkpt><trkpt lat="37.4188156248459" lon="14.175388267806598"><ele>480.0</ele><time>2026-03-25T10:25:50.002Z</time></trkpt><trkpt lat="37.418755889753" lon="14.175687680831583"><ele>480.5</ele><time>2026-03-25T10:25:51.002Z</time></trkpt><trkpt lat="37.41869504302354" lon="14.175990980430697"><ele>481.0</ele><time>2026-03-25T10:25:52.002Z</time></trkpt><trkpt lat="37.41863242838976" lon="14.176294538248193"><ele>480.5</ele><time>2026-03-25T10:25:53.002Z</time></trkpt><trkpt lat="37.418569764945666" lon="14.176598915230302"><ele>480.0</ele><time>2026-03-25T10:25:54.002Z</time></trkpt><trkpt lat="37.41850758884697" lon="14.176903222588232"><ele>480.0</ele><time>2026-03-25T10:25:55.001Z</time></trkpt><trkpt lat="37.41844631059327" lon="14.17720994456475"><ele>480.0</ele><time>2026-03-25T10:25:56.001Z</time></trkpt><trkpt lat="37.41838645894131" lon="14.177514086761152"><ele>480.5</ele><time>2026-03-25T10:25:57.001Z</time></trkpt><trkpt lat="37.418326746707315" lon="14.1778183389779"><ele>481.0</ele><time>2026-03-25T10:25:58.001Z</time></trkpt><trkpt lat="37.418266341361935" lon="14.178121075418549"><ele>481.5</ele><time>2026-03-25T10:25:59.001Z</time></trkpt><trkpt lat="37.41820461850759" lon="14.178422734265983"><ele>482.0</ele><time>2026-03-25T10:26:00.001Z</time></trkpt><trkpt lat="37.41814183041107" lon="14.178724458754372"><ele>483.0</ele><time>2026-03-25T10:26:01.001Z</time></trkpt><trkpt lat="37.418077515202334" lon="14.179027176808946"><ele>484.0</ele><time>2026-03-25T10:26:02.001Z</time></trkpt><trkpt lat="37.41801095460918" lon="14.17933059863345"><ele>484.0</ele><time>2026-03-25T10:26:03.001Z</time></trkpt><trkpt lat="37.41794209508513" lon="14.179633533450653"><ele>484.0</ele><time>2026-03-25T10:26:04.001Z</time></trkpt><trkpt lat="37.41787166992501" lon="14.179933615911608"><ele>484.0</ele><time>2026-03-25T10:26:05.001Z</time></trkpt><trkpt lat="37.41779807858171" lon="14.180232952662356"><ele>484.0</ele><time>2026-03-25T10:26:06.001Z</time></trkpt><trkpt lat="37.417724349345534" lon="14.180527060719864"><ele>484.5</ele><time>2026-03-25T10:26:07.001Z</time></trkpt><trkpt lat="37.417650941997444" lon="14.180819430932894"><ele>485.0</ele><time>2026-03-25T10:26:08Z</time></trkpt><trkpt lat="37.41757945772276" lon="14.18111039205969"><ele>485.0</ele><time>2026-03-25T10:26:09Z</time></trkpt><trkpt lat="37.417510052762175" lon="14.181391103319145"><ele>485.0</ele><time>2026-03-25T10:26:10Z</time></trkpt><trkpt lat="37.41744413141928" lon="14.181658893461018"><ele>485.0</ele><time>2026-03-25T10:26:11Z</time></trkpt><trkpt lat="37.41737995005866" lon="14.181922603216403"><ele>485.0</ele><time>2026-03-25T10:26:12Z</time></trkpt><trkpt lat="37.41731741963788" lon="14.182180121886969"><ele>485.0</ele><time>2026-03-25T10:26:13Z</time></trkpt><trkpt lat="37.41725537312198" lon="14.182435649726397"><ele>485.0</ele><time>2026-03-25T10:26:14Z</time></trkpt><trkpt lat="37.417192507238745" lon="14.18269967286845"><ele>485.0</ele><time>2026-03-25T10:26:15Z</time></trkpt><trkpt lat="37.41712768825112" lon="14.182978478786941"><ele>485.5</ele><time>2026-03-25T10:26:16Z</time></trkpt><trkpt lat="37.417063975722584" lon="14.183269961661894"><ele>486.0</ele><time>2026-03-25T10:26:17Z</time></trkpt><trkpt lat="37.41700088327157" lon="14.183570833418946"><ele>486.0</ele><time>2026-03-25T10:26:18.001Z</time></trkpt><trkpt lat="37.416933969666694" lon="14.183874458972356"><ele>486.0</ele><time>2026-03-25T10:26:19.001Z</time></trkpt><trkpt lat="37.41686582275629" lon="14.184175905056591"><ele>486.0</ele><time>2026-03-25T10:26:20.001Z</time></trkpt><trkpt lat="37.4168007490003" lon="14.1844741431494"><ele>486.0</ele><time>2026-03-25T10:26:21.001Z</time></trkpt><trkpt lat="37.4167384670584" lon="14.1847648749583"><ele>486.0</ele><time>2026-03-25T10:26:22.001Z</time></trkpt><trkpt lat="37.41667908362179" lon="14.185049383202278"><ele>486.0</ele><time>2026-03-25T10:26:23.001Z</time></trkpt><trkpt lat="37.41662168256383" lon="14.185329129261188"><ele>486.0</ele><time>2026-03-25T10:26:24.001Z</time></trkpt><trkpt lat="37.416568902882474" lon="14.185606103985116"><ele>486.0</ele><time>2026-03-25T10:26:25.001Z</time></trkpt><trkpt lat="37.4165170348593" lon="14.185882247202843"><ele>486.66666666666663</ele><time>2026-03-25T10:26:26.001Z</time></trkpt><trkpt lat="37.41647081275506" lon="14.186157412529576"><ele>487.3333333333333</ele><time>2026-03-25T10:26:27.001Z</time></trkpt><trkpt lat="37.41643314468026" lon="14.186436780276772"><ele>488.0</ele><time>2026-03-25T10:26:28.001Z</time></trkpt><trkpt lat="37.416401827128354" lon="14.186719551824845"><ele>489.0</ele><time>2026-03-25T10:26:29.001Z</time></trkpt><trkpt lat="37.41637557909265" lon="14.187004443899742"><ele>490.0</ele><time>2026-03-25T10:26:30.001Z</time></trkpt><trkpt lat="37.41635437537684" lon="14.187291839167793"><ele>490.5</ele><time>2026-03-25T10:26:31.001Z</time></trkpt><trkpt lat="37.416337453185136" lon="14.187581123863518"><ele>491.0</ele><time>2026-03-25T10:26:32.001Z</time></trkpt><trkpt lat="37.4163234509194" lon="14.187868326739109"><ele>491.0</ele><time>2026-03-25T10:26:33.001Z</time></trkpt><trkpt lat="37.416313518439566" lon="14.188153745854077"><ele>491.0</ele><time>2026-03-25T10:26:34.001Z</time></trkpt><trkpt lat="37.41630706519906" lon="14.188434699024246"><ele>491.0</ele><time>2026-03-25T10:26:35.001Z</time></trkpt><trkpt lat="37.41629962171701" lon="14.18871144088201"><ele>491.0</ele><time>2026-03-25T10:26:36.001Z</time></trkpt><trkpt lat="37.41629150150737" lon="14.188986136455174"><ele>491.0</ele><time>2026-03-25T10:26:37.001Z</time></trkpt><trkpt lat="37.416284721640274" lon="14.189258656438943"><ele>491.0</ele><time>2026-03-25T10:26:38.001Z</time></trkpt><trkpt lat="37.41627810519534" lon="14.189523481699398"><ele>491.0</ele><time>2026-03-25T10:26:39.001Z</time></trkpt><trkpt lat="37.4162723052863" lon="14.18978486613819"><ele>491.0</ele><time>2026-03-25T10:26:40.001Z</time></trkpt><trkpt lat="37.41626453184559" lon="14.190048725363464"><ele>491.0</ele><time>2026-03-25T10:26:41.001Z</time></trkpt><trkpt lat="37.41625897276347" lon="14.190315043888749"><ele>491.0</ele><time>2026-03-25T10:26:42.001Z</time></trkpt><trkpt lat="37.41625692828519" lon="14.19058330203396"><ele>491.0</ele><time>2026-03-25T10:26:43.001Z</time></trkpt><trkpt lat="37.41625749347175" lon="14.190846958047194"><ele>489.66666666666663</ele><time>2026-03-25T10:26:44.001Z</time></trkpt><trkpt lat="37.416264838782915" lon="14.191100045341816"><ele>488.33333333333337</ele><time>2026-03-25T10:26:45.001Z</time></trkpt><trkpt lat="37.41627542187481" lon="14.191341374644717"><ele>487.0</ele><time>2026-03-25T10:26:46.001Z</time></trkpt><trkpt lat="37.41628712304017" lon="14.191572113120865"><ele>485.6666666666667</ele><time>2026-03-25T10:26:47.001Z</time></trkpt><trkpt lat="37.416300625680464" lon="14.19179995661466"><ele>484.33333333333337</ele><time>2026-03-25T10:26:48.001Z</time></trkpt><trkpt lat="37.41630191415934" lon="14.192027473841897"><ele>483.0</ele><time>2026-03-25T10:26:49.001Z</time></trkpt><trkpt lat="37.41634571091467" lon="14.192244750268813"><ele>485.66666666666663</ele><time>2026-03-25T10:26:50.001Z</time></trkpt><trkpt lat="37.41637880347637" lon="14.192461519155533"><ele>488.3333333333333</ele><time>2026-03-25T10:26:51.001Z</time></trkpt><trkpt lat="37.41641340414159" lon="14.192674711658237"><ele>491.0</ele><time>2026-03-25T10:26:52.001Z</time></trkpt><trkpt lat="37.4164467683827" lon="14.192876536660751"><ele>491.0</ele><time>2026-03-25T10:26:53.001Z</time></trkpt><trkpt lat="37.416477262952654" lon="14.193074293559716"><ele>491.0</ele><time>2026-03-25T10:26:54.001Z</time></trkpt><trkpt lat="37.4165021186198" lon="14.193263758398558"><ele>491.0</ele><time>2026-03-25T10:26:55.001Z</time></trkpt><trkpt lat="37.416521285885025" lon="14.193448743470093"><ele>490.0</ele><time>2026-03-25T10:26:56.001Z</time></trkpt><trkpt lat="37.416527710107005" lon="14.193627819896248"><ele>489.0</ele><time>2026-03-25T10:26:57.001Z</time></trkpt><trkpt lat="37.41651460344536" lon="14.193809929261004"><ele>488.0</ele><time>2026-03-25T10:26:58.001Z</time></trkpt><trkpt lat="37.416485153311534" lon="14.193991118957765"><ele>487.0</ele><time>2026-03-25T10:26:59.001Z</time></trkpt><trkpt lat="37.416418136445955" lon="14.19415693263598"><ele>485.75</ele><time>2026-03-25T10:27:00.001Z</time></trkpt><trkpt lat="37.41633236790191" lon="14.194271928237903"><ele>484.5</ele><time>2026-03-25T10:27:01.001Z</time></trkpt><trkpt lat="37.41621921987185" lon="14.194382087255732"><ele>483.25</ele><time>2026-03-25T10:27:02.001Z</time></trkpt><trkpt lat="37.41609385888609" lon="14.194483121004598"><ele>482.0</ele><time>2026-03-25T10:27:03.001Z</time></trkpt><trkpt lat="37.41594538823419" lon="14.194480002254517"><ele>481.0</ele><time>2026-03-25T10:27:04.001Z</time></trkpt><trkpt lat="37.41580404715751" lon="14.194446774682643"><ele>480.0</ele><time>2026-03-25T10:27:05.001Z</time></trkpt><trkpt lat="37.41568005896956" lon="14.194350749976268"><ele>479.0</ele><time>2026-03-25T10:27:06.001Z</time></trkpt><trkpt lat="37.41554226624436" lon="14.194261043885938"><ele>478.0</ele><time>2026-03-25T10:27:07.001Z</time></trkpt><trkpt lat="37.41541582229088" lon="14.194170344766311"><ele>478.0</ele><time>2026-03-25T10:27:08.001Z</time></trkpt><trkpt lat="37.41527541868604" lon="14.194133689820974"><ele>478.0</ele><time>2026-03-25T10:27:09.001Z</time></trkpt><trkpt lat="37.41512960075073" lon="14.194167620663011"><ele>478.0</ele><time>2026-03-25T10:27:10.001Z</time></trkpt><trkpt lat="37.41498223320007" lon="14.194239871421441"><ele>478.0</ele><time>2026-03-25T10:27:11.001Z</time></trkpt><trkpt lat="37.41481811432217" lon="14.194327315846339"><ele>478.0</ele><time>2026-03-25T10:27:12.001Z</time></trkpt><trkpt lat="37.41465276935573" lon="14.194451265931406"><ele>478.0</ele><time>2026-03-25T10:27:13.001Z</time></trkpt><trkpt lat="37.41449934584589" lon="14.194595197678867"><ele>479.6666666666667</ele><time>2026-03-25T10:27:14.001Z</time></trkpt><trkpt lat="37.414324584451904" lon="14.194711233844181"><ele>481.33333333333337</ele><time>2026-03-25T10:27:15.001Z</time></trkpt><trkpt lat="37.41415146947409" lon="14.194854136623496"><ele>483.0</ele><time>2026-03-25T10:27:16.001Z</time></trkpt><trkpt lat="37.413973662544336" lon="14.195000884699287"><ele>480.33333333333337</ele><time>2026-03-25T10:27:17.001Z</time></trkpt><trkpt lat="37.41379205584185" lon="14.195150768820051"><ele>477.6666666666667</ele><time>2026-03-25T10:27:18.001Z</time></trkpt><trkpt lat="37.41360748537354" lon="14.195299980957067"><ele>475.0</ele><time>2026-03-25T10:27:19.001Z</time></trkpt><trkpt lat="37.41342651763697" lon="14.195446267995052"><ele>475.0</ele><time>2026-03-25T10:27:20.001Z</time></trkpt><trkpt lat="37.4132501805688" lon="14.195588791933977"><ele>475.0</ele><time>2026-03-25T10:27:21.001Z</time></trkpt><trkpt lat="37.41307758400274" lon="14.195727665788235"><ele>475.0</ele><time>2026-03-25T10:27:22.001Z</time></trkpt><trkpt lat="37.41291538117249" lon="14.195856193849226"><ele>477.0</ele><time>2026-03-25T10:27:23.001Z</time></trkpt><trkpt lat="37.41276750253117" lon="14.195986167516025"><ele>479.0</ele><time>2026-03-25T10:27:24.001Z</time></trkpt><trkpt lat="37.41260400955105" lon="14.196020676455111"><ele>481.0</ele><time>2026-03-25T10:27:25.002Z</time></trkpt><trkpt lat="37.412442240206595" lon="14.196019671186681"><ele>481.0</ele><time>2026-03-25T10:27:26.002Z</time></trkpt><trkpt lat="37.41227098384161" lon="14.195973204292223"><ele>481.0</ele><time>2026-03-25T10:27:27.002Z</time></trkpt><trkpt lat="37.4121023021881" lon="14.195885087316583"><ele>481.0</ele><time>2026-03-25T10:27:28.002Z</time></trkpt><trkpt lat="37.41193937716292" lon="14.195810748174642"><ele>481.6666666666667</ele><time>2026-03-25T10:27:29.002Z</time></trkpt><trkpt lat="37.41175995225897" lon="14.195804066355159"><ele>482.33333333333337</ele><time>2026-03-25T10:27:30.002Z</time></trkpt><trkpt lat="37.41156956812634" lon="14.195788514018645"><ele>483.0</ele><time>2026-03-25T10:27:31.002Z</time></trkpt><trkpt lat="37.411368759711564" lon="14.195821840707257"><ele>481.33333333333337</ele><time>2026-03-25T10:27:32.002Z</time></trkpt><trkpt lat="37.41116021731798" lon="14.19590306934362"><ele>479.6666666666667</ele><time>2026-03-25T10:27:33.002Z</time></trkpt><trkpt lat="37.410950991780766" lon="14.196000481354448"><ele>478.0</ele><time>2026-03-25T10:27:34.002Z</time></trkpt><trkpt lat="37.41074367005752" lon="14.196096584334198"><ele>478.0</ele><time>2026-03-25T10:27:35.002Z</time></trkpt><trkpt lat="37.41055105139473" lon="14.196185062060888"><ele>478.0</ele><time>2026-03-25T10:27:36.002Z</time></trkpt><trkpt lat="37.41036967934327" lon="14.19625020293665"><ele>478.0</ele><time>2026-03-25T10:27:37.002Z</time></trkpt><trkpt lat="37.41019127529312" lon="14.196295172750265"><ele>476.33333333333337</ele><time>2026-03-25T10:27:38.002Z</time></trkpt><trkpt lat="37.41002015848225" lon="14.196305643293574"><ele>474.66666666666663</ele><time>2026-03-25T10:27:39.002Z</time></trkpt><trkpt lat="37.409861361658685" lon="14.196289380876621"><ele>473.0</ele><time>2026-03-25T10:27:40.002Z</time></trkpt><trkpt lat="37.409707595979604" lon="14.196263661166656"><ele>471.66666666666663</ele><time>2026-03-25T10:27:41.002Z</time></trkpt><trkpt lat="37.409561859124935" lon="14.19624798343587"><ele>470.33333333333337</ele><time>2026-03-25T10:27:42.002Z</time></trkpt><trkpt lat="37.40940838131011" lon="14.196298814102255"><ele>469.0</ele><time>2026-03-25T10:27:43.002Z</time></trkpt><trkpt lat="37.40925613607432" lon="14.196377248405158"><ele>469.0</ele><time>2026-03-25T10:27:44.002Z</time></trkpt><trkpt lat="37.409121578431645" lon="14.196484975899578"><ele>469.0</ele><time>2026-03-25T10:27:45.002Z</time></trkpt><trkpt lat="37.409014050167684" lon="14.196613488413673"><ele>469.0</ele><time>2026-03-25T10:27:46.002Z</time></trkpt><trkpt lat="37.40893106660301" lon="14.196769441316823"><ele>469.0</ele><time>2026-03-25T10:27:47.002Z</time></trkpt><trkpt lat="37.408871535638085" lon="14.19697561072528"><ele>469.0</ele><time>2026-03-25T10:27:48.002Z</time></trkpt><trkpt lat="37.40880891099586" lon="14.197196473757456"><ele>469.0</ele><time>2026-03-25T10:27:49.002Z</time></trkpt><trkpt lat="37.408714650732925" lon="14.197415281395061"><ele>472.6666666666667</ele><time>2026-03-25T10:27:50.002Z</time></trkpt><trkpt lat="37.408638549972366" lon="14.197637314774742"><ele>476.33333333333337</ele><time>2026-03-25T10:27:51.002Z</time></trkpt><trkpt lat="37.408536270682866" lon="14.197831555690257"><ele>480.0</ele><time>2026-03-25T10:27:52.002Z</time></trkpt><trkpt lat="37.408424367248394" lon="14.198012386737645"><ele>482.33333333333337</ele><time>2026-03-25T10:27:53.002Z</time></trkpt><trkpt lat="37.40829380644388" lon="14.198168542841191"><ele>484.6666666666667</ele><time>2026-03-25T10:27:54.002Z</time></trkpt><trkpt lat="37.40817151977356" lon="14.198340420241971"><ele>487.0</ele><time>2026-03-25T10:27:55.002Z</time></trkpt><trkpt lat="37.40804760651905" lon="14.198514583861682"><ele>487.0</ele><time>2026-03-25T10:27:56.002Z</time></trkpt><trkpt lat="37.40792126307879" lon="14.198693083712728"><ele>487.0</ele><time>2026-03-25T10:27:57.002Z</time></trkpt><trkpt lat="37.40778593521281" lon="14.198884580772809"><ele>487.0</ele><time>2026-03-25T10:27:58.002Z</time></trkpt><trkpt lat="37.407644649729285" lon="14.199087016096978"><ele>487.0</ele><time>2026-03-25T10:27:59.002Z</time></trkpt><trkpt lat="37.407504340471846" lon="14.199289144492086"><ele>487.0</ele><time>2026-03-25T10:28:00.002Z</time></trkpt><trkpt lat="37.40736989284439" lon="14.199482253055512"><ele>487.0</ele><time>2026-03-25T10:28:01Z</time></trkpt><trkpt lat="37.40723839388436" lon="14.19966792049291"><ele>486.33333333333337</ele><time>2026-03-25T10:28:02Z</time></trkpt><trkpt lat="37.407109818959114" lon="14.199850501699562"><ele>485.66666666666663</ele><time>2026-03-25T10:28:03Z</time></trkpt><trkpt lat="37.40698451693671" lon="14.200030304500713"><ele>485.0</ele><time>2026-03-25T10:28:04Z</time></trkpt><trkpt lat="37.40686209452206" lon="14.200210227751482"><ele>485.0</ele><time>2026-03-25T10:28:05Z</time></trkpt><trkpt lat="37.40674044244949" lon="14.200385445956522"><ele>485.0</ele><time>2026-03-25T10:28:06Z</time></trkpt><trkpt lat="37.40662102091845" lon="14.200557687685883"><ele>485.0</ele><time>2026-03-25T10:28:07Z</time></trkpt><trkpt lat="37.40650296994319" lon="14.200727952666064"><ele>484.66666666666663</ele><time>2026-03-25T10:28:08Z</time></trkpt><trkpt lat="37.40638772369471" lon="14.200894172387283"><ele>484.33333333333337</ele><time>2026-03-25T10:28:09Z</time></trkpt><trkpt lat="37.40627154858162" lon="14.201060579103963"><ele>484.0</ele><time>2026-03-25T10:28:10Z</time></trkpt><trkpt lat="37.40615221704985" lon="14.201230764551832"><ele>483.33333333333337</ele><time>2026-03-25T10:28:11Z</time></trkpt><trkpt lat="37.40603375060556" lon="14.201400149192814"><ele>482.66666666666663</ele><time>2026-03-25T10:28:12Z</time></trkpt><trkpt lat="37.405921256160646" lon="14.201561160902326"><ele>482.0</ele><time>2026-03-25T10:28:13Z</time></trkpt><trkpt lat="37.40581478954436" lon="14.201727623647868"><ele>482.0</ele><time>2026-03-25T10:28:14Z</time></trkpt><trkpt lat="37.405729549702244" lon="14.201914923633336"><ele>482.0</ele><time>2026-03-25T10:28:15Z</time></trkpt><trkpt lat="37.405647481605605" lon="14.202106409861734"><ele>482.0</ele><time>2026-03-25T10:28:16Z</time></trkpt><trkpt lat="37.40559341845838" lon="14.202304762281877"><ele>483.0</ele><time>2026-03-25T10:28:17Z</time></trkpt><trkpt lat="37.40557572870426" lon="14.202499536343383"><ele>484.0</ele><time>2026-03-25T10:28:18Z</time></trkpt><trkpt lat="37.40559319789808" lon="14.202697944592805"><ele>485.0</ele><time>2026-03-25T10:28:19Z</time></trkpt><trkpt lat="37.40562078815575" lon="14.20288747065111"><ele>485.0</ele><time>2026-03-25T10:28:20Z</time></trkpt><trkpt lat="37.405641726737926" lon="14.20306287260468"><ele>485.0</ele><time>2026-03-25T10:28:21Z</time></trkpt><trkpt lat="37.405616658856026" lon="14.203238423759121"><ele>485.0</ele><time>2026-03-25T10:28:22Z</time></trkpt><trkpt lat="37.40555610137502" lon="14.203417031577231"><ele>485.0</ele><time>2026-03-25T10:28:23Z</time></trkpt><trkpt lat="37.40545489677387" lon="14.203566356415255"><ele>482.0</ele><time>2026-03-25T10:28:24Z</time></trkpt><trkpt lat="37.4053080585296" lon="14.203672549485322"><ele>479.0</ele><time>2026-03-25T10:28:25Z</time></trkpt><trkpt lat="37.40515097483478" lon="14.203786985775983"><ele>476.0</ele><time>2026-03-25T10:28:26Z</time></trkpt><trkpt lat="37.40498652021635" lon="14.203912062372282"><ele>476.0</ele><time>2026-03-25T10:28:27Z</time></trkpt><trkpt lat="37.404797390777105" lon="14.203972901236071"><ele>476.0</ele><time>2026-03-25T10:28:28Z</time></trkpt><trkpt lat="37.40460311345279" lon="14.204044903579783"><ele>476.0</ele><time>2026-03-25T10:28:29Z</time></trkpt><trkpt lat="37.40442010646319" lon="14.204137910892566"><ele>475.0</ele><time>2026-03-25T10:28:30Z</time></trkpt><trkpt lat="37.40425451777516" lon="14.204253276993699"><ele>474.0</ele><time>2026-03-25T10:28:31Z</time></trkpt><trkpt lat="37.40408896673298" lon="14.204384285082496"><ele>473.0</ele><time>2026-03-25T10:28:32Z</time></trkpt><trkpt lat="37.40391437195169" lon="14.204531444331264"><ele>472.5</ele><time>2026-03-25T10:28:33Z</time></trkpt><trkpt lat="37.40374407262897" lon="14.204706721812062"><ele>472.0</ele><time>2026-03-25T10:28:34.001Z</time></trkpt><trkpt lat="37.403567073047284" lon="14.204895623498246"><ele>472.0</ele><time>2026-03-25T10:28:35.001Z</time></trkpt><trkpt lat="37.40338783694509" lon="14.205093227091712"><ele>472.0</ele><time>2026-03-25T10:28:36.001Z</time></trkpt><trkpt lat="37.40321619801341" lon="14.205292546230078"><ele>472.0</ele><time>2026-03-25T10:28:37.001Z</time></trkpt><trkpt lat="37.40305535234224" lon="14.205482241978334"><ele>472.0</ele><time>2026-03-25T10:28:38.001Z</time></trkpt><trkpt lat="37.40290520232586" lon="14.205664404971747"><ele>472.0</ele><time>2026-03-25T10:28:39.001Z</time></trkpt><trkpt lat="37.402769943774715" lon="14.205849412629895"><ele>470.0</ele><time>2026-03-25T10:28:40.001Z</time></trkpt><trkpt lat="37.402651798281255" lon="14.206035442549437"><ele>468.0</ele><time>2026-03-25T10:28:41.001Z</time></trkpt><trkpt lat="37.40253400757937" lon="14.206213039674223"><ele>466.0</ele><time>2026-03-25T10:28:42.001Z</time></trkpt><trkpt lat="37.40241332384428" lon="14.206402502520902"><ele>467.33333333333337</ele><time>2026-03-25T10:28:43.001Z</time></trkpt><trkpt lat="37.40229494543369" lon="14.206604744417849"><ele>468.66666666666663</ele><time>2026-03-25T10:28:44.001Z</time></trkpt><trkpt lat="37.40217961580156" lon="14.206818828545707"><ele>470.0</ele><time>2026-03-25T10:28:45.001Z</time></trkpt><trkpt lat="37.40206409761698" lon="14.207032511686693"><ele>467.66666666666663</ele><time>2026-03-25T10:28:46.001Z</time></trkpt><trkpt lat="37.4019520140277" lon="14.207233979080389"><ele>465.33333333333337</ele><time>2026-03-25T10:28:47.001Z</time></trkpt><trkpt lat="37.40183262492715" lon="14.207419403260447"><ele>463.0</ele><time>2026-03-25T10:28:48.001Z</time></trkpt><trkpt lat="37.40172952776967" lon="14.207607330447726"><ele>463.0</ele><time>2026-03-25T10:28:49.001Z</time></trkpt><trkpt lat="37.40163197696344" lon="14.207785112463169"><ele>463.0</ele><time>2026-03-25T10:28:50.001Z</time></trkpt><trkpt lat="37.401537441854536" lon="14.207957398531686"><ele>463.0</ele><time>2026-03-25T10:28:51.001Z</time></trkpt><trkpt lat="37.401444440865994" lon="14.208126888682541"><ele>462.6666666666667</ele><time>2026-03-25T10:28:52.001Z</time></trkpt><trkpt lat="37.40134778741182" lon="14.208303035334838"><ele>462.33333333333337</ele><time>2026-03-25T10:28:53.001Z</time></trkpt><trkpt lat="37.40124884448566" lon="14.208483354427031"><ele>462.0</ele><time>2026-03-25T10:28:54.001Z</time></trkpt><trkpt lat="37.401148633197494" lon="14.208665868025477"><ele>460.33333333333337</ele><time>2026-03-25T10:28:55.001Z</time></trkpt><trkpt lat="37.40104891371099" lon="14.208847341522155"><ele>458.6666666666667</ele><time>2026-03-25T10:28:56.001Z</time></trkpt><trkpt lat="37.40094979331115" lon="14.20902772499486"><ele>457.0</ele><time>2026-03-25T10:28:57.001Z</time></trkpt><trkpt lat="37.40085167451659" lon="14.209204932938533"><ele>457.0</ele><time>2026-03-25T10:28:58.001Z</time></trkpt><trkpt lat="37.40075420882976" lon="14.20938128581664"><ele>457.0</ele><time>2026-03-25T10:28:59.001Z</time></trkpt><trkpt lat="37.40065015935694" lon="14.209559908916894"><ele>457.0</ele><time>2026-03-25T10:29:00.001Z</time></trkpt><trkpt lat="37.40053854143966" lon="14.209740541294066"><ele>456.0</ele><time>2026-03-25T10:29:01.001Z</time></trkpt><trkpt lat="37.40041878990189" lon="14.209914556936985"><ele>455.0</ele><time>2026-03-25T10:29:02.001Z</time></trkpt><trkpt lat="37.400294470224665" lon="14.2100768544288"><ele>454.0</ele><time>2026-03-25T10:29:03.001Z</time></trkpt><trkpt lat="37.400169743671995" lon="14.210236630062013"><ele>454.0</ele><time>2026-03-25T10:29:04.001Z</time></trkpt><trkpt lat="37.40004743571616" lon="14.2103938032207"><ele>454.0</ele><time>2026-03-25T10:29:05.001Z</time></trkpt><trkpt lat="37.3999233604511" lon="14.210553147940725"><ele>454.0</ele><time>2026-03-25T10:29:06.001Z</time></trkpt><trkpt lat="37.39979975151221" lon="14.210712986596407"><ele>453.0</ele><time>2026-03-25T10:29:07.001Z</time></trkpt><trkpt lat="37.399678044540906" lon="14.210873868404471"><ele>452.0</ele><time>2026-03-25T10:29:08.001Z</time></trkpt><trkpt lat="37.39955725728455" lon="14.211033285571299"><ele>451.0</ele><time>2026-03-25T10:29:09.001Z</time></trkpt><trkpt lat="37.39943149776189" lon="14.211192428260672"><ele>451.0</ele><time>2026-03-25T10:29:10.001Z</time></trkpt><trkpt lat="37.39930030386864" lon="14.211346382862297"><ele>451.0</ele><time>2026-03-25T10:29:11.001Z</time></trkpt><trkpt lat="37.39915911923656" lon="14.211492085517252"><ele>451.0</ele><time>2026-03-25T10:29:12.001Z</time></trkpt><trkpt lat="37.399010485435845" lon="14.211626897500288"><ele>450.6666666666667</ele><time>2026-03-25T10:29:13.001Z</time></trkpt><trkpt lat="37.39884978504044" lon="14.211747210729268"><ele>450.33333333333337</ele><time>2026-03-25T10:29:14.001Z</time></trkpt><trkpt lat="37.3986806107211" lon="14.211856703803335"><ele>450.0</ele><time>2026-03-25T10:29:15.001Z</time></trkpt><trkpt lat="37.39851489888142" lon="14.21195419874139"><ele>447.66666666666663</ele><time>2026-03-25T10:29:16.001Z</time></trkpt><trkpt lat="37.398349032291065" lon="14.212048393619348"><ele>445.3333333333333</ele><time>2026-03-25T10:29:17.001Z</time></trkpt><trkpt lat="37.398181356837" lon="14.212141431784378"><ele>443.0</ele><time>2026-03-25T10:29:18.001Z</time></trkpt><trkpt lat="37.398011853571845" lon="14.212235484149126"><ele>442.3333333333333</ele><time>2026-03-25T10:29:19.001Z</time></trkpt><trkpt lat="37.39783940352637" lon="14.212331171595284"><ele>441.66666666666663</ele><time>2026-03-25T10:29:20.001Z</time></trkpt><trkpt lat="37.39766335458977" lon="14.212428855960479"><ele>441.0</ele><time>2026-03-25T10:29:21.001Z</time></trkpt><trkpt lat="37.39748643006503" lon="14.21252282435562"><ele>441.0</ele><time>2026-03-25T10:29:22.001Z</time></trkpt><trkpt lat="37.39731310329676" lon="14.212611949983248"><ele>441.0</ele><time>2026-03-25T10:29:23.001Z</time></trkpt><trkpt lat="37.39713976210423" lon="14.212697847785021"><ele>441.0</ele><time>2026-03-25T10:29:24.001Z</time></trkpt><trkpt lat="37.39696762947145" lon="14.212777682000548"><ele>439.33333333333337</ele><time>2026-03-25T10:29:25.001Z</time></trkpt><trkpt lat="37.39679188136961" lon="14.212854617446107"><ele>437.6666666666667</ele><time>2026-03-25T10:29:26.001Z</time></trkpt><trkpt lat="37.39661535865211" lon="14.212932621091575"><ele>436.0</ele><time>2026-03-25T10:29:27.001Z</time></trkpt><trkpt lat="37.39644156566346" lon="14.213004234168253"><ele>435.6666666666667</ele><time>2026-03-25T10:29:28.001Z</time></trkpt><trkpt lat="37.39626965768413" lon="14.213073109639549"><ele>435.33333333333337</ele><time>2026-03-25T10:29:29.001Z</time></trkpt><trkpt lat="37.396098280744454" lon="14.213142532876729"><ele>435.0</ele><time>2026-03-25T10:29:30.001Z</time></trkpt><trkpt lat="37.395924889866436" lon="14.213213197806724"><ele>435.0</ele><time>2026-03-25T10:29:31.001Z</time></trkpt><trkpt lat="37.39575254901878" lon="14.213273706276107"><ele>435.0</ele><time>2026-03-25T10:29:32.001Z</time></trkpt><trkpt lat="37.395581722802234" lon="14.213310771764954"><ele>435.0</ele><time>2026-03-25T10:29:33.001Z</time></trkpt><trkpt lat="37.395415041179945" lon="14.21332271247983"><ele>434.0</ele><time>2026-03-25T10:29:34.001Z</time></trkpt><trkpt lat="37.39524128797279" lon="14.21332143400107"><ele>433.0</ele><time>2026-03-25T10:29:35.001Z</time></trkpt><trkpt lat="37.3950685201239" lon="14.213318043322568"><ele>432.0</ele><time>2026-03-25T10:29:36.001Z</time></trkpt><trkpt lat="37.39489572848487" lon="14.213300135853022"><ele>432.0</ele><time>2026-03-25T10:29:37.001Z</time></trkpt><trkpt lat="37.3947205961694" lon="14.213273711270428"><ele>432.0</ele><time>2026-03-25T10:29:38.001Z</time></trkpt><trkpt lat="37.39454592023573" lon="14.213244211699582"><ele>432.0</ele><time>2026-03-25T10:29:39.002Z</time></trkpt><trkpt lat="37.39437322931067" lon="14.213211472889906"><ele>431.0</ele><time>2026-03-25T10:29:40.002Z</time></trkpt><trkpt lat="37.39420356076544" lon="14.213177395721031"><ele>430.0</ele><time>2026-03-25T10:29:41.002Z</time></trkpt><trkpt lat="37.39403637923773" lon="14.213143416223085"><ele>429.0</ele><time>2026-03-25T10:29:42.002Z</time></trkpt><trkpt lat="37.39386841818828" lon="14.213106108734426"><ele>427.66666666666663</ele><time>2026-03-25T10:29:43.002Z</time></trkpt><trkpt lat="37.39369715377374" lon="14.213070377544778"><ele>426.3333333333333</ele><time>2026-03-25T10:29:44.002Z</time></trkpt><trkpt lat="37.393518133585246" lon="14.213036121614607"><ele>425.0</ele><time>2026-03-25T10:29:45.002Z</time></trkpt><trkpt lat="37.39333593979253" lon="14.21300125838794"><ele>425.0</ele><time>2026-03-25T10:29:46.002Z</time></trkpt><trkpt lat="37.39315057972015" lon="14.212967218391775"><ele>425.0</ele><time>2026-03-25T10:29:47.002Z</time></trkpt><trkpt lat="37.392962417371905" lon="14.212943263517298"><ele>425.0</ele><time>2026-03-25T10:29:48.002Z</time></trkpt><trkpt lat="37.39277522176273" lon="14.212928515275355"><ele>424.3333333333333</ele><time>2026-03-25T10:29:49.002Z</time></trkpt><trkpt lat="37.39258751153491" lon="14.212923808849379"><ele>423.66666666666663</ele><time>2026-03-25T10:29:50.002Z</time></trkpt><trkpt lat="37.39240542143802" lon="14.212926518118465"><ele>423.0</ele><time>2026-03-25T10:29:51.002Z</time></trkpt><trkpt lat="37.39223039908879" lon="14.212932045860896"><ele>422.33333333333337</ele><time>2026-03-25T10:29:52.002Z</time></trkpt><trkpt lat="37.39205045073081" lon="14.212938689921593"><ele>421.6666666666667</ele><time>2026-03-25T10:29:53.002Z</time></trkpt><trkpt lat="37.39187214404674" lon="14.212942741523742"><ele>421.0</ele><time>2026-03-25T10:29:54.002Z</time></trkpt><trkpt lat="37.39169523785638" lon="14.212946347590394"><ele>421.0</ele><time>2026-03-25T10:29:55.002Z</time></trkpt><trkpt lat="37.391518710110255" lon="14.212950865360359"><ele>421.0</ele><time>2026-03-25T10:29:56.002Z</time></trkpt><trkpt lat="37.391345727444865" lon="14.21295305093433"><ele>421.0</ele><time>2026-03-25T10:29:57.002Z</time></trkpt><trkpt lat="37.39117595091219" lon="14.212954426927743"><ele>419.6666666666667</ele><time>2026-03-25T10:29:58.002Z</time></trkpt><trkpt lat="37.39100589657986" lon="14.212956748772411"><ele>418.33333333333337</ele><time>2026-03-25T10:29:59.002Z</time></trkpt><trkpt lat="37.39083894082724" lon="14.21295917103429"><ele>417.0</ele><time>2026-03-25T10:30:00.002Z</time></trkpt><trkpt lat="37.390671339688666" lon="14.21296160265802"><ele>416.0</ele><time>2026-03-25T10:30:01.002Z</time></trkpt><trkpt lat="37.390507203091225" lon="14.212963984019854"><ele>415.0</ele><time>2026-03-25T10:30:02.002Z</time></trkpt><trkpt lat="37.390337478016725" lon="14.212966843172289"><ele>414.0</ele><time>2026-03-25T10:30:03.002Z</time></trkpt><trkpt lat="37.39017079331991" lon="14.21297167396109"><ele>414.0</ele><time>2026-03-25T10:30:04.002Z</time></trkpt><trkpt lat="37.39001373161582" lon="14.212977794869538"><ele>414.0</ele><time>2026-03-25T10:30:05.002Z</time></trkpt><trkpt lat="37.38986496995659" lon="14.212983702625994"><ele>414.0</ele><time>2026-03-25T10:30:06.002Z</time></trkpt><trkpt lat="37.389721771621254" lon="14.21299008207386"><ele>414.0</ele><time>2026-03-25T10:30:07.001Z</time></trkpt><trkpt lat="37.38958439827445" lon="14.21299823888312"><ele>414.0</ele><time>2026-03-25T10:30:08.001Z</time></trkpt><trkpt lat="37.38945497736286" lon="14.21300696124823"><ele>414.0</ele><time>2026-03-25T10:30:09.001Z</time></trkpt><trkpt lat="37.389332686353804" lon="14.2130172004712"><ele>414.0</ele><time>2026-03-25T10:30:10.001Z</time></trkpt><trkpt lat="37.38921700323514" lon="14.213028839083728"><ele>414.0</ele><time>2026-03-25T10:30:11.001Z</time></trkpt><trkpt lat="37.38910595995821" lon="14.213043635418526"><ele>414.0</ele><time>2026-03-25T10:30:12.001Z</time></trkpt><trkpt lat="37.38899109482654" lon="14.21306204905468"><ele>414.0</ele><time>2026-03-25T10:30:13.001Z</time></trkpt><trkpt lat="37.38887445374691" lon="14.213082874219378"><ele>414.0</ele><time>2026-03-25T10:30:14Z</time></trkpt><trkpt lat="37.38876639581986" lon="14.213098819447264"><ele>414.0</ele><time>2026-03-25T10:30:15Z</time></trkpt><trkpt lat="37.38866779740501" lon="14.213110294704542"><ele>414.0</ele><time>2026-03-25T10:30:16Z</time></trkpt><trkpt lat="37.38857788828808" lon="14.213109595825546"><ele>414.0</ele><time>2026-03-25T10:30:17Z</time></trkpt><trkpt lat="37.388505871120145" lon="14.213094351601526"><ele>414.0</ele><time>2026-03-25T10:30:18Z</time></trkpt><trkpt lat="37.388399552221905" lon="14.213053947022033"><ele>414.0</ele><time>2026-03-25T10:30:20Z</time></trkpt><trkpt lat="37.38827320852631" lon="14.21315035531012"><ele>414.0</ele><time>2026-03-25T10:30:22Z</time></trkpt><trkpt lat="37.38821896535949" lon="14.213222787464984"><ele>414.0</ele><time>2026-03-25T10:30:23Z</time></trkpt><trkpt lat="37.38816497695874" lon="14.213290945215807"><ele>414.0</ele><time>2026-03-25T10:30:24Z</time></trkpt><trkpt lat="37.38809700855086" lon="14.213314369763973"><ele>414.0</ele><time>2026-03-25T10:30:25Z</time></trkpt><trkpt lat="37.38803585360306" lon="14.213345587078985"><ele>414.0</ele><time>2026-03-25T10:30:26Z</time></trkpt><trkpt lat="37.38795876474885" lon="14.213401130940268"><ele>414.0</ele><time>2026-03-25T10:30:27Z</time></trkpt><trkpt lat="37.38784612306665" lon="14.213439446088413"><ele>414.0</ele><time>2026-03-25T10:30:28Z</time></trkpt><trkpt lat="37.38772023480679" lon="14.21350243839283"><ele>414.0</ele><time>2026-03-25T10:30:29Z</time></trkpt><trkpt lat="37.38757794844443" lon="14.213577470936032"><ele>414.0</ele><time>2026-03-25T10:30:30Z</time></trkpt><trkpt lat="37.38742649225478" lon="14.213658153176967"><ele>414.0</ele><time>2026-03-25T10:30:31Z</time></trkpt><trkpt lat="37.38726793932329" lon="14.213745021711729"><ele>414.0</ele><time>2026-03-25T10:30:32Z</time></trkpt><trkpt lat="37.38710477069384" lon="14.213845809278151"><ele>414.0</ele><time>2026-03-25T10:30:33Z</time></trkpt><trkpt lat="37.38694094486932" lon="14.213951979449714"><ele>414.0</ele><time>2026-03-25T10:30:34Z</time></trkpt><trkpt lat="37.38677664548909" lon="14.214058808282404"><ele>414.0</ele><time>2026-03-25T10:30:35Z</time></trkpt><trkpt lat="37.38662343112611" lon="14.21416095118373"><ele>414.0</ele><time>2026-03-25T10:30:36Z</time></trkpt><trkpt lat="37.3864814015771" lon="14.214256014513268"><ele>414.0</ele><time>2026-03-25T10:30:37.001Z</time></trkpt><trkpt lat="37.38633482915307" lon="14.21435583098404"><ele>414.0</ele><time>2026-03-25T10:30:38.001Z</time></trkpt><trkpt lat="37.3861996746662" lon="14.21448419250736"><ele>414.0</ele><time>2026-03-25T10:30:39.001Z</time></trkpt><trkpt lat="37.38606360306351" lon="14.21458234307242"><ele>414.0</ele><time>2026-03-25T10:30:40.001Z</time></trkpt><trkpt lat="37.385932879452085" lon="14.214673245315165"><ele>414.0</ele><time>2026-03-25T10:30:41.001Z</time></trkpt><trkpt lat="37.38580799853974" lon="14.214756763924091"><ele>414.0</ele><time>2026-03-25T10:30:42.001Z</time></trkpt><trkpt lat="37.38568237285658" lon="14.214810315466066"><ele>414.0</ele><time>2026-03-25T10:30:43.001Z</time></trkpt><trkpt lat="37.385574992844035" lon="14.21488443229106"><ele>414.0</ele><time>2026-03-25T10:30:44.001Z</time></trkpt><trkpt lat="37.38547601810982" lon="14.214952745746249"><ele>415.0</ele><time>2026-03-25T10:30:45.001Z</time></trkpt><trkpt lat="37.38538399889573" lon="14.215017151472273"><ele>416.0</ele><time>2026-03-25T10:30:46.001Z</time></trkpt><trkpt lat="37.385286375420414" lon="14.215085190551344"><ele>417.0</ele><time>2026-03-25T10:30:47.001Z</time></trkpt><trkpt lat="37.38518281445292" lon="14.215157367715381"><ele>418.0</ele><time>2026-03-25T10:30:48.001Z</time></trkpt><trkpt lat="37.38507558900476" lon="14.21523209637872"><ele>418.0</ele><time>2026-03-25T10:30:49.001Z</time></trkpt><trkpt lat="37.3849683807905" lon="14.215307606465354"><ele>418.0</ele><time>2026-03-25T10:30:50.001Z</time></trkpt><trkpt lat="37.38487171005111" lon="14.21539764465026"><ele>418.0</ele><time>2026-03-25T10:30:51.001Z</time></trkpt><trkpt lat="37.38476749037438" lon="14.215471971672864"><ele>418.0</ele><time>2026-03-25T10:30:52.001Z</time></trkpt><trkpt lat="37.3846537422785" lon="14.215526796765037"><ele>418.0</ele><time>2026-03-25T10:30:53.001Z</time></trkpt><trkpt lat="37.38454714687665" lon="14.215599969725035"><ele>418.0</ele><time>2026-03-25T10:30:54.001Z</time></trkpt><trkpt lat="37.384440729682474" lon="14.215674124378523"><ele>418.0</ele><time>2026-03-25T10:30:55.001Z</time></trkpt><trkpt lat="37.38433137238394" lon="14.215751590391841"><ele>418.0</ele><time>2026-03-25T10:30:56.001Z</time></trkpt><trkpt lat="37.38421508903096" lon="14.215833962692823"><ele>418.0</ele><time>2026-03-25T10:30:57.001Z</time></trkpt><trkpt lat="37.384095134546286" lon="14.2159169067881"><ele>418.0</ele><time>2026-03-25T10:30:58.001Z</time></trkpt><trkpt lat="37.3839705423091" lon="14.216002602768173"><ele>418.0</ele><time>2026-03-25T10:30:59.001Z</time></trkpt><trkpt lat="37.38384412824316" lon="14.216089551845334"><ele>418.0</ele><time>2026-03-25T10:31:00.001Z</time></trkpt><trkpt lat="37.38372707570484" lon="14.216192151662856"><ele>418.5</ele><time>2026-03-25T10:31:01.001Z</time></trkpt><trkpt lat="37.38360327434868" lon="14.216275909544594"><ele>419.0</ele><time>2026-03-25T10:31:02.001Z</time></trkpt><trkpt lat="37.383473110970336" lon="14.2163447699483"><ele>419.5</ele><time>2026-03-25T10:31:03.001Z</time></trkpt><trkpt lat="37.38335037210898" lon="14.216427748788762"><ele>420.0</ele><time>2026-03-25T10:31:04.001Z</time></trkpt><trkpt lat="37.383226721115435" lon="14.216511344346575"><ele>420.0</ele><time>2026-03-25T10:31:05.001Z</time></trkpt><trkpt lat="37.38310292664153" lon="14.216595036896049"><ele>420.0</ele><time>2026-03-25T10:31:06.001Z</time></trkpt><trkpt lat="37.38297960895362" lon="14.216678407103855"><ele>420.0</ele><time>2026-03-25T10:31:07.001Z</time></trkpt><trkpt lat="37.38285850329735" lon="14.216760281838985"><ele>420.0</ele><time>2026-03-25T10:31:08.001Z</time></trkpt><trkpt lat="37.38274706528035" lon="14.216835394209072"><ele>420.0</ele><time>2026-03-25T10:31:09.001Z</time></trkpt><trkpt lat="37.38255752388933" lon="14.216963003493483"><ele>420.0</ele><time>2026-03-25T10:31:11.001Z</time></trkpt><trkpt lat="37.38247821292203" lon="14.217015092466013"><ele>420.0</ele><time>2026-03-25T10:31:12.001Z</time></trkpt><trkpt lat="37.38241491483675" lon="14.217097312686708"><ele>420.0</ele><time>2026-03-25T10:31:13.001Z</time></trkpt><trkpt lat="37.382345317577624" lon="14.217145045355025"><ele>420.0</ele><time>2026-03-25T10:31:14.001Z</time></trkpt><trkpt lat="37.38228515691222" lon="14.217182579144009"><ele>420.0</ele><time>2026-03-25T10:31:15.001Z</time></trkpt><trkpt lat="37.38219702559382" lon="14.217204532119716"><ele>420.0</ele><time>2026-03-25T10:31:17.001Z</time></trkpt><trkpt lat="37.382280919039104" lon="14.217375689294563"><ele>420.0</ele><time>2026-03-25T10:31:20.001Z</time></trkpt><trkpt lat="37.38231483535061" lon="14.2174629402146"><ele>420.0</ele><time>2026-03-25T10:31:25.001Z</time></trkpt><trkpt lat="37.38246610914793" lon="14.217372692046327"><ele>423.0</ele><time>2026-03-25T10:31:27.001Z</time></trkpt><trkpt lat="37.382501391349436" lon="14.217305625263107"><ele>420.0</ele><time>2026-03-25T10:31:31.001Z</time></trkpt></trkseg><trkseg><trkpt lat="37.38251557328167" lon="14.217261353918442"><ele>420.0</ele><time>2026-03-25T10:49:46Z</time></trkpt><trkpt lat="37.38250921474396" lon="14.217134939915963"><ele>420.0</ele><time>2026-03-25T10:49:48Z</time></trkpt><trkpt lat="37.38244240917512" lon="14.217067291893931"><ele>420.0</ele><time>2026-03-25T10:50:07Z</time></trkpt><trkpt lat="37.38237690079357" lon="14.217099873471337"><ele>420.0</ele><time>2026-03-25T10:50:08Z</time></trkpt><trkpt lat="37.38229749027866" lon="14.21716469236112"><ele>420.0</ele><time>2026-03-25T10:50:09Z</time></trkpt><trkpt lat="37.38220669449494" lon="14.217233385015723"><ele>420.0</ele><time>2026-03-25T10:50:10Z</time></trkpt><trkpt lat="37.38212091542287" lon="14.217292559226006"><ele>420.0</ele><time>2026-03-25T10:50:11Z</time></trkpt><trkpt lat="37.38189471024602" lon="14.21745431484798"><ele>420.0</ele><time>2026-03-25T10:50:16Z</time></trkpt><trkpt lat="37.381464120855604" lon="14.217752729909925"><ele>421.0</ele><time>2026-03-25T10:50:17Z</time></trkpt><trkpt lat="37.38135443839016" lon="14.21782528598427"><ele>422.0</ele><time>2026-03-25T10:50:18Z</time></trkpt><trkpt lat="37.381244743159115" lon="14.217895954934773"><ele>423.0</ele><time>2026-03-25T10:50:19Z</time></trkpt><trkpt lat="37.38113520511802" lon="14.217968511612767"><ele>424.0</ele><time>2026-03-25T10:50:20Z</time></trkpt><trkpt lat="37.38103191614101" lon="14.218037544019024"><ele>424.0</ele><time>2026-03-25T10:50:21Z</time></trkpt><trkpt lat="37.3809292854985" lon="14.218101564937932"><ele>424.0</ele><time>2026-03-25T10:50:22Z</time></trkpt><trkpt lat="37.3808434166472" lon="14.218162865341839"><ele>424.0</ele><time>2026-03-25T10:50:23Z</time></trkpt><trkpt lat="37.38076495884043" lon="14.218209886228227"><ele>424.0</ele><time>2026-03-25T10:50:24Z</time></trkpt><trkpt lat="37.380696024695744" lon="14.218252412349782"><ele>424.0</ele><time>2026-03-25T10:50:25Z</time></trkpt><trkpt lat="37.38062438034809" lon="14.218286220259104"><ele>424.00000000000006</ele><time>2026-03-25T10:50:26Z</time></trkpt><trkpt lat="37.38055942246309" lon="14.218305730873563"><ele>424.0</ele><time>2026-03-25T10:50:27Z</time></trkpt><trkpt lat="37.380434118607006" lon="14.2183192600221"><ele>424.0</ele><time>2026-03-25T10:50:29Z</time></trkpt><trkpt lat="37.38036628482764" lon="14.21833081455407"><ele>424.0</ele><time>2026-03-25T10:50:30Z</time></trkpt><trkpt lat="37.380303309265976" lon="14.218407603664179"><ele>424.00000000000006</ele><time>2026-03-25T10:50:31Z</time></trkpt><trkpt lat="37.38025492569037" lon="14.218496631524646"><ele>424.0</ele><time>2026-03-25T10:50:32Z</time></trkpt><trkpt lat="37.38014052717171" lon="14.218681877926516"><ele>423.75</ele><time>2026-03-25T10:50:34Z</time></trkpt><trkpt lat="37.38003395153236" lon="14.21876207038456"><ele>423.5</ele><time>2026-03-25T10:50:35Z</time></trkpt><trkpt lat="37.379908626325445" lon="14.218854956267696"><ele>423.25</ele><time>2026-03-25T10:50:36Z</time></trkpt><trkpt lat="37.37977459213002" lon="14.2189603555324"><ele>423.0</ele><time>2026-03-25T10:50:37Z</time></trkpt><trkpt lat="37.37962875952866" lon="14.2190740836254"><ele>423.0</ele><time>2026-03-25T10:50:38Z</time></trkpt><trkpt lat="37.379488591066654" lon="14.219198553442183"><ele>423.0</ele><time>2026-03-25T10:50:39Z</time></trkpt><trkpt lat="37.37935406058527" lon="14.219343980420772"><ele>423.0</ele><time>2026-03-25T10:50:40Z</time></trkpt><trkpt lat="37.37921848125343" lon="14.219495834826496"><ele>423.0</ele><time>2026-03-25T10:50:41Z</time></trkpt><trkpt lat="37.379076619412" lon="14.219654584799105"><ele>423.0</ele><time>2026-03-25T10:50:42Z</time></trkpt><trkpt lat="37.378938895279525" lon="14.21981909548365"><ele>423.0</ele><time>2026-03-25T10:50:43Z</time></trkpt><trkpt lat="37.378802264699445" lon="14.219988730265388"><ele>423.0</ele><time>2026-03-25T10:50:44Z</time></trkpt><trkpt lat="37.378665808372624" lon="14.220158199201482"><ele>423.0</ele><time>2026-03-25T10:50:45Z</time></trkpt><trkpt lat="37.37853680490376" lon="14.22031912858131"><ele>423.0</ele><time>2026-03-25T10:50:46Z</time></trkpt><trkpt lat="37.3784211380995" lon="14.220465422158249"><ele>423.0</ele><time>2026-03-25T10:50:47Z</time></trkpt><trkpt lat="37.378306552622064" lon="14.220601326262768"><ele>423.0</ele><time>2026-03-25T10:50:48Z</time></trkpt><trkpt lat="37.3781833675889" lon="14.220728848620626"><ele>423.0</ele><time>2026-03-25T10:50:49Z</time></trkpt><trkpt lat="37.378055066135225" lon="14.220837230126424"><ele>423.66666666666663</ele><time>2026-03-25T10:50:50Z</time></trkpt><trkpt lat="37.377909799142074" lon="14.22091817991625"><ele>424.3333333333333</ele><time>2026-03-25T10:50:51Z</time></trkpt><trkpt lat="37.377749851656716" lon="14.220976820091773"><ele>425.0</ele><time>2026-03-25T10:50:52Z</time></trkpt><trkpt lat="37.37757437475855" lon="14.220993563532021"><ele>425.0</ele><time>2026-03-25T10:50:53Z</time></trkpt><trkpt lat="37.37739864451104" lon="14.221017955253235"><ele>425.0</ele><time>2026-03-25T10:50:54Z</time></trkpt><trkpt lat="37.377213522784594" lon="14.221040651882157"><ele>425.0</ele><time>2026-03-25T10:50:55Z</time></trkpt><trkpt lat="37.377029821512735" lon="14.221065055557055"><ele>424.3333333333333</ele><time>2026-03-25T10:50:56Z</time></trkpt><trkpt lat="37.37685127728123" lon="14.221091289908614"><ele>423.66666666666663</ele><time>2026-03-25T10:50:57Z</time></trkpt><trkpt lat="37.37667656718228" lon="14.221117688680696"><ele>423.0</ele><time>2026-03-25T10:50:58Z</time></trkpt><trkpt lat="37.37650923683047" lon="14.221140515052316"><ele>423.0</ele><time>2026-03-25T10:50:59Z</time></trkpt><trkpt lat="37.376363283278096" lon="14.221165922338985"><ele>423.0</ele><time>2026-03-25T10:51:00Z</time></trkpt><trkpt lat="37.37624573121434" lon="14.221211839793447"><ele>423.0</ele><time>2026-03-25T10:51:01Z</time></trkpt><trkpt lat="37.37614487901735" lon="14.221296011783231"><ele>423.0</ele><time>2026-03-25T10:51:02Z</time></trkpt><trkpt lat="37.3760698335421" lon="14.22142912999912"><ele>425.33333333333337</ele><time>2026-03-25T10:51:03Z</time></trkpt><trkpt lat="37.376021858374216" lon="14.221596341884132"><ele>427.6666666666667</ele><time>2026-03-25T10:51:04Z</time></trkpt><trkpt lat="37.37599704058629" lon="14.221785265529137"><ele>430.0</ele><time>2026-03-25T10:51:05Z</time></trkpt><trkpt lat="37.37599637994219" lon="14.22199515893092"><ele>430.0</ele><time>2026-03-25T10:51:06Z</time></trkpt><trkpt lat="37.37600361061906" lon="14.222215055790542"><ele>430.0</ele><time>2026-03-25T10:51:07Z</time></trkpt><trkpt lat="37.376008923653984" lon="14.222444665500786"><ele>430.0</ele><time>2026-03-25T10:51:08Z</time></trkpt><trkpt lat="37.37601246367499" lon="14.222678010212412"><ele>432.0</ele><time>2026-03-25T10:51:09Z</time></trkpt><trkpt lat="37.376013682975135" lon="14.22290693195157"><ele>434.0</ele><time>2026-03-25T10:51:10Z</time></trkpt><trkpt lat="37.37600914778352" lon="14.223135738003704"><ele>436.0</ele><time>2026-03-25T10:51:11Z</time></trkpt><trkpt lat="37.3759897631085" lon="14.223359173468179"><ele>437.0</ele><time>2026-03-25T10:51:12Z</time></trkpt><trkpt lat="37.37595398215486" lon="14.22357365997692"><ele>438.0</ele><time>2026-03-25T10:51:13Z</time></trkpt><trkpt lat="37.375909705252305" lon="14.223790972371193"><ele>439.0</ele><time>2026-03-25T10:51:14Z</time></trkpt><trkpt lat="37.37586672934893" lon="14.224009407362097"><ele>440.0</ele><time>2026-03-25T10:51:15Z</time></trkpt><trkpt lat="37.37581884198199" lon="14.224242387233893"><ele>441.0</ele><time>2026-03-25T10:51:16Z</time></trkpt><trkpt lat="37.375767378995654" lon="14.224480430744885"><ele>442.0</ele><time>2026-03-25T10:51:17Z</time></trkpt><trkpt lat="37.37571611136287" lon="14.224720100513942"><ele>442.6666666666667</ele><time>2026-03-25T10:51:18Z</time></trkpt><trkpt lat="37.375661404345315" lon="14.22495662908824"><ele>443.33333333333337</ele><time>2026-03-25T10:51:19Z</time></trkpt><trkpt lat="37.3755978405564" lon="14.225193127294514"><ele>444.0</ele><time>2026-03-25T10:51:20Z</time></trkpt><trkpt lat="37.37552328984978" lon="14.225423056464637"><ele>445.0</ele><time>2026-03-25T10:51:21Z</time></trkpt><trkpt lat="37.375449534012645" lon="14.225644612128074"><ele>446.0</ele><time>2026-03-25T10:51:22Z</time></trkpt><trkpt lat="37.37537330589204" lon="14.22587210705177"><ele>447.0</ele><time>2026-03-25T10:51:23Z</time></trkpt><trkpt lat="37.37530820488813" lon="14.22609543492022"><ele>447.66666666666663</ele><time>2026-03-25T10:51:24Z</time></trkpt><trkpt lat="37.375253664737755" lon="14.226317748370366"><ele>448.3333333333333</ele><time>2026-03-25T10:51:25Z</time></trkpt><trkpt lat="37.37521292580186" lon="14.22653419047101"><ele>449.0</ele><time>2026-03-25T10:51:26Z</time></trkpt><trkpt lat="37.37518513173231" lon="14.226732069195084"><ele>450.0</ele><time>2026-03-25T10:51:27Z</time></trkpt><trkpt lat="37.375175858216814" lon="14.226909014610177"><ele>451.0</ele><time>2026-03-25T10:51:28Z</time></trkpt><trkpt lat="37.37519019853109" lon="14.227079232491892"><ele>452.0</ele><time>2026-03-25T10:51:29Z</time></trkpt><trkpt lat="37.37523319595591" lon="14.227248910515177"><ele>453.0</ele><time>2026-03-25T10:51:30Z</time></trkpt><trkpt lat="37.3753054710422" lon="14.227409425344693"><ele>453.25</ele><time>2026-03-25T10:51:31Z</time></trkpt><trkpt lat="37.37540080229986" lon="14.227551035209947"><ele>453.5</ele><time>2026-03-25T10:51:32Z</time></trkpt><trkpt lat="37.375506402610625" lon="14.227679241109692"><ele>453.75</ele><time>2026-03-25T10:51:33Z</time></trkpt><trkpt lat="37.37562025741745" lon="14.227801157070479"><ele>454.0</ele><time>2026-03-25T10:51:34Z</time></trkpt><trkpt lat="37.37573126767868" lon="14.227923477130178"><ele>453.25</ele><time>2026-03-25T10:51:35Z</time></trkpt><trkpt lat="37.37584049676947" lon="14.22805372571339"><ele>452.5</ele><time>2026-03-25T10:51:36Z</time></trkpt><trkpt lat="37.37594650078088" lon="14.228183532727947"><ele>451.75</ele><time>2026-03-25T10:51:37Z</time></trkpt><trkpt lat="37.37604722120734" lon="14.228308021470397"><ele>451.0</ele><time>2026-03-25T10:51:38Z</time></trkpt><trkpt lat="37.37612898199008" lon="14.228432737083375"><ele>451.0</ele><time>2026-03-25T10:51:39Z</time></trkpt><trkpt lat="37.37618200467701" lon="14.228581167282307"><ele>451.0</ele><time>2026-03-25T10:51:40Z</time></trkpt><trkpt lat="37.376207198851006" lon="14.228752322812504"><ele>451.0</ele><time>2026-03-25T10:51:41Z</time></trkpt><trkpt lat="37.37619178893507" lon="14.228941012630695"><ele>451.0</ele><time>2026-03-25T10:51:42Z</time></trkpt><trkpt lat="37.376147828846314" lon="14.229138113694384"><ele>448.6666666666667</ele><time>2026-03-25T10:51:43Z</time></trkpt><trkpt lat="37.37610238362554" lon="14.229343452307974"><ele>446.33333333333337</ele><time>2026-03-25T10:51:44Z</time></trkpt><trkpt lat="37.37606925425526" lon="14.229553701867577"><ele>444.0</ele><time>2026-03-25T10:51:45Z</time></trkpt><trkpt lat="37.37603841428419" lon="14.229762048181081"><ele>444.0</ele><time>2026-03-25T10:51:46Z</time></trkpt><trkpt lat="37.376005108516495" lon="14.229960413783296"><ele>444.0</ele><time>2026-03-25T10:51:47Z</time></trkpt><trkpt lat="37.375971831969046" lon="14.230159718184968"><ele>444.0</ele><time>2026-03-25T10:51:48Z</time></trkpt><trkpt lat="37.3759404376175" lon="14.230366961592958"><ele>444.0</ele><time>2026-03-25T10:51:49Z</time></trkpt><trkpt lat="37.375907452761275" lon="14.230562012012845"><ele>444.0</ele><time>2026-03-25T10:51:50Z</time></trkpt><trkpt lat="37.37587369619727" lon="14.230744531388238"><ele>444.0</ele><time>2026-03-25T10:51:51Z</time></trkpt><trkpt lat="37.3758403118163" lon="14.230917271704326"><ele>444.0</ele><time>2026-03-25T10:51:52Z</time></trkpt><trkpt lat="37.37580772169097" lon="14.231087779064891"><ele>444.0</ele><time>2026-03-25T10:51:53Z</time></trkpt><trkpt lat="37.375771203880376" lon="14.23125789942504"><ele>444.0</ele><time>2026-03-25T10:51:54Z</time></trkpt><trkpt lat="37.37572939306019" lon="14.231416905394983"><ele>444.0</ele><time>2026-03-25T10:51:55Z</time></trkpt><trkpt lat="37.37568122901743" lon="14.23156541409758"><ele>444.0</ele><time>2026-03-25T10:51:56Z</time></trkpt><trkpt lat="37.375633899508244" lon="14.231706036277433"><ele>444.0</ele><time>2026-03-25T10:51:57Z</time></trkpt><trkpt lat="37.37559727198317" lon="14.231846845477087"><ele>444.0</ele><time>2026-03-25T10:51:58Z</time></trkpt><trkpt lat="37.37557992993759" lon="14.231993189346447"><ele>444.0</ele><time>2026-03-25T10:51:59Z</time></trkpt><trkpt lat="37.375596676954146" lon="14.232144170821353"><ele>444.0</ele><time>2026-03-25T10:52:00Z</time></trkpt><trkpt lat="37.37565297884891" lon="14.232287422967392"><ele>443.25</ele><time>2026-03-25T10:52:01Z</time></trkpt><trkpt lat="37.37571277115215" lon="14.232430501774642"><ele>442.5</ele><time>2026-03-25T10:52:02Z</time></trkpt><trkpt lat="37.375743516887724" lon="14.232587634406354"><ele>441.75</ele><time>2026-03-25T10:52:03Z</time></trkpt><trkpt lat="37.375715850836535" lon="14.232756346463056"><ele>441.0</ele><time>2026-03-25T10:52:04Z</time></trkpt><trkpt lat="37.375658816876374" lon="14.232921490438214"><ele>441.0</ele><time>2026-03-25T10:52:05Z</time></trkpt><trkpt lat="37.375617702967325" lon="14.23307152750045"><ele>441.0</ele><time>2026-03-25T10:52:06Z</time></trkpt><trkpt lat="37.37559809901086" lon="14.233230221357195"><ele>441.0</ele><time>2026-03-25T10:52:07Z</time></trkpt><trkpt lat="37.37560053641159" lon="14.233403704425031"><ele>441.0</ele><time>2026-03-25T10:52:08Z</time></trkpt><trkpt lat="37.375614942397846" lon="14.233577678108048"><ele>440.0</ele><time>2026-03-25T10:52:09Z</time></trkpt><trkpt lat="37.375638323585356" lon="14.233755770846656"><ele>439.0</ele><time>2026-03-25T10:52:10Z</time></trkpt><trkpt lat="37.375660123035644" lon="14.23393631057643"><ele>438.0</ele><time>2026-03-25T10:52:11Z</time></trkpt><trkpt lat="37.375675898907474" lon="14.234115332429143"><ele>437.0</ele><time>2026-03-25T10:52:12Z</time></trkpt><trkpt lat="37.37568904461313" lon="14.234291152765158"><ele>436.75</ele><time>2026-03-25T10:52:13Z</time></trkpt><trkpt lat="37.375706563503066" lon="14.234464779958905"><ele>436.5</ele><time>2026-03-25T10:52:14Z</time></trkpt><trkpt lat="37.37574053119608" lon="14.23463632940146"><ele>436.25</ele><time>2026-03-25T10:52:15Z</time></trkpt><trkpt lat="37.37579395996772" lon="14.234803338334768"><ele>436.0</ele><time>2026-03-25T10:52:16Z</time></trkpt><trkpt lat="37.375856313067345" lon="14.234953357757167"><ele>434.8</ele><time>2026-03-25T10:52:17Z</time></trkpt><trkpt lat="37.375898598225795" lon="14.235094743489057"><ele>433.6</ele><time>2026-03-25T10:52:18Z</time></trkpt><trkpt lat="37.37590412164419" lon="14.235238297234552"><ele>432.4</ele><time>2026-03-25T10:52:19Z</time></trkpt><trkpt lat="37.375883800348774" lon="14.235375000046782"><ele>431.2</ele><time>2026-03-25T10:52:20Z</time></trkpt><trkpt lat="37.37585686233721" lon="14.23550187220823"><ele>430.0</ele><time>2026-03-25T10:52:21Z</time></trkpt><trkpt lat="37.37585283147116" lon="14.235626672012522"><ele>428.2</ele><time>2026-03-25T10:52:22Z</time></trkpt><trkpt lat="37.37588708502198" lon="14.235743459558044"><ele>426.4</ele><time>2026-03-25T10:52:23Z</time></trkpt><trkpt lat="37.37595586014557" lon="14.235842532883474"><ele>424.6</ele><time>2026-03-25T10:52:24Z</time></trkpt><trkpt lat="37.37603561058781" lon="14.235925423949078"><ele>422.8</ele><time>2026-03-25T10:52:24.999Z</time></trkpt><trkpt lat="37.37611045141667" lon="14.236004513938271"><ele>421.0</ele><time>2026-03-25T10:52:25.999Z</time></trkpt><trkpt lat="37.37615772173543" lon="14.236109271544816"><ele>421.0</ele><time>2026-03-25T10:52:26.999Z</time></trkpt><trkpt lat="37.376178722238464" lon="14.23624069031486"><ele>421.0</ele><time>2026-03-25T10:52:27.999Z</time></trkpt><trkpt lat="37.376178007029274" lon="14.23639703281476"><ele>421.0</ele><time>2026-03-25T10:52:28.999Z</time></trkpt><trkpt lat="37.37616755808531" lon="14.236555604806751"><ele>421.0</ele><time>2026-03-25T10:52:29.999Z</time></trkpt><trkpt lat="37.37615870020136" lon="14.236706662027178"><ele>419.33333333333337</ele><time>2026-03-25T10:52:30.999Z</time></trkpt><trkpt lat="37.376156920532175" lon="14.236873409555793"><ele>417.66666666666663</ele><time>2026-03-25T10:52:31.999Z</time></trkpt><trkpt lat="37.37615927691618" lon="14.237081374732545"><ele>416.0</ele><time>2026-03-25T10:52:32.999Z</time></trkpt><trkpt lat="37.37615260785861" lon="14.237327609855615"><ele>416.0</ele><time>2026-03-25T10:52:33.999Z</time></trkpt><trkpt lat="37.3761420829044" lon="14.23759254536403"><ele>416.0</ele><time>2026-03-25T10:52:34.999Z</time></trkpt><trkpt lat="37.37613572887575" lon="14.23787093843896"><ele>416.0</ele><time>2026-03-25T10:52:35.999Z</time></trkpt><trkpt lat="37.37612603103017" lon="14.238148654419371"><ele>416.3333333333333</ele><time>2026-03-25T10:52:36.999Z</time></trkpt><trkpt lat="37.37611497327554" lon="14.238428767747155"><ele>416.66666666666663</ele><time>2026-03-25T10:52:37.999Z</time></trkpt><trkpt lat="37.376107172720396" lon="14.238711881611582"><ele>417.0</ele><time>2026-03-25T10:52:39Z</time></trkpt><trkpt lat="37.37610257187607" lon="14.238996618008855"><ele>415.33333333333337</ele><time>2026-03-25T10:52:40Z</time></trkpt><trkpt lat="37.37609785736889" lon="14.239272098450304"><ele>413.6666666666667</ele><time>2026-03-25T10:52:41Z</time></trkpt><trkpt lat="37.37608850719745" lon="14.239544095944433"><ele>412.0</ele><time>2026-03-25T10:52:42Z</time></trkpt><trkpt lat="37.376094110862404" lon="14.239815268243873"><ele>409.6666666666667</ele><time>2026-03-25T10:52:43Z</time></trkpt><trkpt lat="37.37608195388168" lon="14.240065542624295"><ele>407.33333333333337</ele><time>2026-03-25T10:52:44Z</time></trkpt><trkpt lat="37.37607610760838" lon="14.240323969006882"><ele>405.0</ele><time>2026-03-25T10:52:45Z</time></trkpt><trkpt lat="37.376067616286626" lon="14.240578430051158"><ele>403.33333333333337</ele><time>2026-03-25T10:52:46Z</time></trkpt><trkpt lat="37.376063690472456" lon="14.240824905888426"><ele>401.6666666666667</ele><time>2026-03-25T10:52:47Z</time></trkpt><trkpt lat="37.37605925113985" lon="14.24106476928294"><ele>400.0</ele><time>2026-03-25T10:52:48Z</time></trkpt><trkpt lat="37.3760538024121" lon="14.241297922532445"><ele>399.33333333333337</ele><time>2026-03-25T10:52:49Z</time></trkpt><trkpt lat="37.376047784474935" lon="14.241521830408058"><ele>398.66666666666663</ele><time>2026-03-25T10:52:50Z</time></trkpt><trkpt lat="37.376043810660285" lon="14.241726551983335"><ele>398.0</ele><time>2026-03-25T10:52:51Z</time></trkpt><trkpt lat="37.37604268018508" lon="14.24191754488447"><ele>398.0</ele><time>2026-03-25T10:52:52Z</time></trkpt><trkpt lat="37.3760614934484" lon="14.24210693132179"><ele>398.0</ele><time>2026-03-25T10:52:53Z</time></trkpt><trkpt lat="37.37611773264929" lon="14.242315612350092"><ele>398.0</ele><time>2026-03-25T10:52:54Z</time></trkpt><trkpt lat="37.37620864895524" lon="14.242539380009315"><ele>398.66666666666663</ele><time>2026-03-25T10:52:55Z</time></trkpt><trkpt lat="37.37630460097105" lon="14.242772393381978"><ele>399.33333333333337</ele><time>2026-03-25T10:52:56Z</time></trkpt><trkpt lat="37.37639051305976" lon="14.242999243749784"><ele>400.0</ele><time>2026-03-25T10:52:57Z</time></trkpt><trkpt lat="37.376462271808585" lon="14.243205225165058"><ele>400.0</ele><time>2026-03-25T10:52:58Z</time></trkpt><trkpt lat="37.37653022473532" lon="14.243396076418568"><ele>400.0</ele><time>2026-03-25T10:52:59Z</time></trkpt><trkpt lat="37.37659860235685" lon="14.243582007170984"><ele>400.0</ele><time>2026-03-25T10:53:00Z</time></trkpt><trkpt lat="37.376657529427575" lon="14.243759767629744"><ele>400.0</ele><time>2026-03-25T10:53:01Z</time></trkpt><trkpt lat="37.37669958051924" lon="14.24393400759233"><ele>400.0</ele><time>2026-03-25T10:53:02Z</time></trkpt><trkpt lat="37.37670321122394" lon="14.244109642113061"><ele>400.0</ele><time>2026-03-25T10:53:03Z</time></trkpt><trkpt lat="37.3766811333611" lon="14.244294124274813"><ele>400.0</ele><time>2026-03-25T10:53:04Z</time></trkpt><trkpt lat="37.37665278818436" lon="14.244463569832872"><ele>400.0</ele><time>2026-03-25T10:53:05Z</time></trkpt><trkpt lat="37.376599230429356" lon="14.244624949501734"><ele>400.0</ele><time>2026-03-25T10:53:06Z</time></trkpt><trkpt lat="37.376510840184196" lon="14.244754887916194"><ele>400.0</ele><time>2026-03-25T10:53:07Z</time></trkpt><trkpt lat="37.37638711242578" lon="14.244843523022736"><ele>400.0</ele><time>2026-03-25T10:53:08Z</time></trkpt><trkpt lat="37.37624667324704" lon="14.244876834898644"><ele>400.0</ele><time>2026-03-25T10:53:09Z</time></trkpt><trkpt lat="37.37610379062005" lon="14.244830154431977"><ele>400.0</ele><time>2026-03-25T10:53:10Z</time></trkpt><trkpt lat="37.37595928489293" lon="14.244733679620673"><ele>400.0</ele><time>2026-03-25T10:53:11Z</time></trkpt><trkpt lat="37.37579937093308" lon="14.244633395267151"><ele>397.0</ele><time>2026-03-25T10:53:12Z</time></trkpt><trkpt lat="37.37561333173714" lon="14.244542641793725"><ele>394.0</ele><time>2026-03-25T10:53:13Z</time></trkpt><trkpt lat="37.37541389318801" lon="14.244445067964815"><ele>391.0</ele><time>2026-03-25T10:53:14Z</time></trkpt><trkpt lat="37.37520573549742" lon="14.244338199462435"><ele>391.0</ele><time>2026-03-25T10:53:15Z</time></trkpt><trkpt lat="37.37500101743527" lon="14.244227748406718"><ele>391.0</ele><time>2026-03-25T10:53:16Z</time></trkpt><trkpt lat="37.37480496343235" lon="14.24412346323428"><ele>391.0</ele><time>2026-03-25T10:53:17Z</time></trkpt><trkpt lat="37.374618600948025" lon="14.244026026562945"><ele>388.0</ele><time>2026-03-25T10:53:18Z</time></trkpt><trkpt lat="37.374430266768655" lon="14.243930133243877"><ele>385.0</ele><time>2026-03-25T10:53:19Z</time></trkpt><trkpt lat="37.374242659068514" lon="14.243837775377365"><ele>382.0</ele><time>2026-03-25T10:53:20Z</time></trkpt><trkpt lat="37.37405642667589" lon="14.243742302859626"><ele>382.0</ele><time>2026-03-25T10:53:21Z</time></trkpt><trkpt lat="37.37387873700923" lon="14.24365057688896"><ele>382.0</ele><time>2026-03-25T10:53:22Z</time></trkpt><trkpt lat="37.37371108383785" lon="14.243566380004438"><ele>382.0</ele><time>2026-03-25T10:53:23Z</time></trkpt><trkpt lat="37.373555113495236" lon="14.243501574937294"><ele>381.66666666666663</ele><time>2026-03-25T10:53:24Z</time></trkpt><trkpt lat="37.37340293181898" lon="14.2434755609162"><ele>381.3333333333333</ele><time>2026-03-25T10:53:25Z</time></trkpt><trkpt lat="37.373245208955616" lon="14.243494761515024"><ele>381.0</ele><time>2026-03-25T10:53:26Z</time></trkpt><trkpt lat="37.37309401917824" lon="14.24354772891243"><ele>379.5</ele><time>2026-03-25T10:53:27Z</time></trkpt><trkpt lat="37.372948029544155" lon="14.243609978887232"><ele>378.0</ele><time>2026-03-25T10:53:28Z</time></trkpt><trkpt lat="37.372815923369956" lon="14.243680323246409"><ele>376.5</ele><time>2026-03-25T10:53:29Z</time></trkpt><trkpt lat="37.372702766756554" lon="14.243785252793112"><ele>375.0</ele><time>2026-03-25T10:53:30Z</time></trkpt><trkpt lat="37.37261328164669" lon="14.243924074836242"><ele>375.75</ele><time>2026-03-25T10:53:31Z</time></trkpt><trkpt lat="37.372557376762096" lon="14.244086462649259"><ele>376.5</ele><time>2026-03-25T10:53:32Z</time></trkpt><trkpt lat="37.372530244508326" lon="14.244269765458686"><ele>377.25</ele><time>2026-03-25T10:53:33Z</time></trkpt><trkpt lat="37.37251524324379" lon="14.244450346883756"><ele>378.0</ele><time>2026-03-25T10:53:34Z</time></trkpt><trkpt lat="37.37250165044257" lon="14.244616655229537"><ele>378.0</ele><time>2026-03-25T10:53:35Z</time></trkpt><trkpt lat="37.372484059936205" lon="14.244765286140776"><ele>378.0</ele><time>2026-03-25T10:53:36Z</time></trkpt><trkpt lat="37.37245884632442" lon="14.24489819021877"><ele>378.0</ele><time>2026-03-25T10:53:37Z</time></trkpt><trkpt lat="37.37241736015142" lon="14.245016323965041"><ele>378.0</ele><time>2026-03-25T10:53:38Z</time></trkpt><trkpt lat="37.37235051530062" lon="14.245104745198288"><ele>378.0</ele><time>2026-03-25T10:53:39Z</time></trkpt><trkpt lat="37.37226874225304" lon="14.245154227413877"><ele>377.8333333333333</ele><time>2026-03-25T10:53:40Z</time></trkpt><trkpt lat="37.37218381350612" lon="14.245168386444698"><ele>377.6666666666667</ele><time>2026-03-25T10:53:41Z</time></trkpt><trkpt lat="37.37210457559658" lon="14.245162171441775"><ele>377.5</ele><time>2026-03-25T10:53:42Z</time></trkpt><trkpt lat="37.37202276857701" lon="14.245142346503025"><ele>377.33333333333337</ele><time>2026-03-25T10:53:43Z</time></trkpt><trkpt lat="37.37193820059446" lon="14.245096872484847"><ele>377.1666666666667</ele><time>2026-03-25T10:53:44Z</time></trkpt><trkpt lat="37.37185451806218" lon="14.24502481162856"><ele>377.0</ele><time>2026-03-25T10:53:45Z</time></trkpt><trkpt lat="37.371773509070046" lon="14.244952290191227"><ele>377.0</ele><time>2026-03-25T10:53:46Z</time></trkpt><trkpt lat="37.37169020841287" lon="14.244887669423646"><ele>377.0</ele><time>2026-03-25T10:53:47Z</time></trkpt><trkpt lat="37.37160324201713" lon="14.244835949959539"><ele>377.0</ele><time>2026-03-25T10:53:48Z</time></trkpt><trkpt lat="37.37150780892346" lon="14.244799804663003"><ele>377.0</ele><time>2026-03-25T10:53:49Z</time></trkpt><trkpt lat="37.37140914138672" lon="14.244781080434263"><ele>377.0</ele><time>2026-03-25T10:53:50Z</time></trkpt><trkpt lat="37.37130647119471" lon="14.244787208519321"><ele>375.6</ele><time>2026-03-25T10:53:51Z</time></trkpt><trkpt lat="37.37120137077282" lon="14.244816208462511"><ele>374.20000000000005</ele><time>2026-03-25T10:53:52Z</time></trkpt><trkpt lat="37.37109991990792" lon="14.244867158160751"><ele>372.8</ele><time>2026-03-25T10:53:53Z</time></trkpt><trkpt lat="37.37100807147679" lon="14.244943151087918"><ele>371.4</ele><time>2026-03-25T10:53:54Z</time></trkpt><trkpt lat="37.37092323869083" lon="14.245034192894707"><ele>370.0</ele><time>2026-03-25T10:53:55Z</time></trkpt><trkpt lat="37.370853786849544" lon="14.245146041696195"><ele>370.0</ele><time>2026-03-25T10:53:56Z</time></trkpt><trkpt lat="37.37079772388087" lon="14.245280913604526"><ele>370.0</ele><time>2026-03-25T10:53:57Z</time></trkpt><trkpt lat="37.37075123322835" lon="14.24543343032056"><ele>370.0</ele><time>2026-03-25T10:53:58Z</time></trkpt><trkpt lat="37.37070781458767" lon="14.245596522098607"><ele>370.0</ele><time>2026-03-25T10:53:59Z</time></trkpt><trkpt lat="37.37065681069447" lon="14.24576346218898"><ele>371.0</ele><time>2026-03-25T10:54:00Z</time></trkpt><trkpt lat="37.3706022700244" lon="14.24592623772127"><ele>372.0</ele><time>2026-03-25T10:54:01Z</time></trkpt><trkpt lat="37.37055128763291" lon="14.246087336775739"><ele>373.0</ele><time>2026-03-25T10:54:02Z</time></trkpt><trkpt lat="37.3705034261959" lon="14.246241102445868"><ele>374.0</ele><time>2026-03-25T10:54:03Z</time></trkpt><trkpt lat="37.37045715855444" lon="14.246391950184044"><ele>371.5</ele><time>2026-03-25T10:54:04Z</time></trkpt><trkpt lat="37.370412607633206" lon="14.246532981263206"><ele>369.0</ele><time>2026-03-25T10:54:05Z</time></trkpt><trkpt lat="37.370366269791305" lon="14.246667314982039"><ele>366.5</ele><time>2026-03-25T10:54:06Z</time></trkpt><trkpt lat="37.37031136238073" lon="14.246786997580745"><ele>364.0</ele><time>2026-03-25T10:54:07Z</time></trkpt><trkpt lat="37.370240790487514" lon="14.246899521706384"><ele>364.0</ele><time>2026-03-25T10:54:08Z</time></trkpt><trkpt lat="37.37015433764398" lon="14.246990094914818"><ele>364.0</ele><time>2026-03-25T10:54:09Z</time></trkpt><trkpt lat="37.37005489147608" lon="14.2470541424185"><ele>364.0</ele><time>2026-03-25T10:54:10Z</time></trkpt><trkpt lat="37.36994652159057" lon="14.247095132335627"><ele>364.0</ele><time>2026-03-25T10:54:11Z</time></trkpt><trkpt lat="37.369835443820904" lon="14.247137403464137"><ele>364.0</ele><time>2026-03-25T10:54:12Z</time></trkpt><trkpt lat="37.36971753255511" lon="14.247176744225989"><ele>364.0</ele><time>2026-03-25T10:54:13Z</time></trkpt><trkpt lat="37.3695998432609" lon="14.24721004979536"><ele>364.0</ele><time>2026-03-25T10:54:14Z</time></trkpt><trkpt lat="37.36948535976223" lon="14.247242249010958"><ele>364.0</ele><time>2026-03-25T10:54:15Z</time></trkpt><trkpt lat="37.369374871332695" lon="14.24727786568674"><ele>364.2</ele><time>2026-03-25T10:54:16Z</time></trkpt><trkpt lat="37.36927592455417" lon="14.247325104478616"><ele>364.4</ele><time>2026-03-25T10:54:17Z</time></trkpt><trkpt lat="37.3691888411848" lon="14.24739589426016"><ele>364.6</ele><time>2026-03-25T10:54:18Z</time></trkpt><trkpt lat="37.369117829711584" lon="14.247491624978124"><ele>364.8</ele><time>2026-03-25T10:54:19Z</time></trkpt><trkpt lat="37.369063788777716" lon="14.247601694773014"><ele>365.0</ele><time>2026-03-25T10:54:20Z</time></trkpt><trkpt lat="37.36903020244402" lon="14.24772204484598"><ele>365.0</ele><time>2026-03-25T10:54:21Z</time></trkpt><trkpt lat="37.36901704385215" lon="14.247854684705986"><ele>365.0</ele><time>2026-03-25T10:54:22Z</time></trkpt><trkpt lat="37.36902530463083" lon="14.24798983023732"><ele>365.0</ele><time>2026-03-25T10:54:23Z</time></trkpt><trkpt lat="37.36904903634962" lon="14.248132174968207"><ele>365.0</ele><time>2026-03-25T10:54:24Z</time></trkpt><trkpt lat="37.36907452998948" lon="14.248283232600244"><ele>365.0</ele><time>2026-03-25T10:54:25Z</time></trkpt><trkpt lat="37.36910307942291" lon="14.248449841876889"><ele>365.0</ele><time>2026-03-25T10:54:26Z</time></trkpt><trkpt lat="37.36913051645945" lon="14.248619313169346"><ele>365.0</ele><time>2026-03-25T10:54:27Z</time></trkpt><trkpt lat="37.36915914447475" lon="14.248787904472604"><ele>365.0</ele><time>2026-03-25T10:54:28Z</time></trkpt><trkpt lat="37.36918991331735" lon="14.248966076607397"><ele>364.0</ele><time>2026-03-25T10:54:29Z</time></trkpt><trkpt lat="37.36922528669409" lon="14.249154676319034"><ele>363.0</ele><time>2026-03-25T10:54:30Z</time></trkpt><trkpt lat="37.36927832346111" lon="14.24937771909112"><ele>362.0</ele><time>2026-03-25T10:54:30.999Z</time></trkpt><trkpt lat="37.36933985981376" lon="14.249618669476872"><ele>360.0</ele><time>2026-03-25T10:54:31.999Z</time></trkpt><trkpt lat="37.369405928440635" lon="14.24987792666821"><ele>358.0</ele><time>2026-03-25T10:54:32.999Z</time></trkpt><trkpt lat="37.369477183607415" lon="14.250167543488008"><ele>358.0</ele><time>2026-03-25T10:54:33.999Z</time></trkpt><trkpt lat="37.36955144665779" lon="14.250462973231016"><ele>358.0</ele><time>2026-03-25T10:54:34.999Z</time></trkpt><trkpt lat="37.36962823320119" lon="14.250757869275406"><ele>361.5</ele><time>2026-03-25T10:54:35.999Z</time></trkpt><trkpt lat="37.36970614882035" lon="14.251043448944056"><ele>365.0</ele><time>2026-03-25T10:54:36.999Z</time></trkpt><trkpt lat="37.36978694016624" lon="14.251326428468506"><ele>362.0</ele><time>2026-03-25T10:54:37.999Z</time></trkpt><trkpt lat="37.369865946253704" lon="14.251609835152768"><ele>359.0</ele><time>2026-03-25T10:54:38.999Z</time></trkpt><trkpt lat="37.36994681455099" lon="14.251897918948348"><ele>359.0</ele><time>2026-03-25T10:54:39.999Z</time></trkpt><trkpt lat="37.370029312118916" lon="14.252185630902504"><ele>359.0</ele><time>2026-03-25T10:54:40.999Z</time></trkpt><trkpt lat="37.37011108106137" lon="14.252470888531528"><ele>358.5</ele><time>2026-03-25T10:54:41.999Z</time></trkpt><trkpt lat="37.370191080813065" lon="14.252756015627346"><ele>358.0</ele><time>2026-03-25T10:54:42.999Z</time></trkpt><trkpt lat="37.37026865144581" lon="14.253035754843502"><ele>356.0</ele><time>2026-03-25T10:54:43.999Z</time></trkpt><trkpt lat="37.37034807116195" lon="14.253314049821372"><ele>354.0</ele><time>2026-03-25T10:54:44.999Z</time></trkpt><trkpt lat="37.370428792321235" lon="14.253585964415116"><ele>354.0</ele><time>2026-03-25T10:54:45.999Z</time></trkpt><trkpt lat="37.37050700009475" lon="14.253850012945255"><ele>354.0</ele><time>2026-03-25T10:54:46.999Z</time></trkpt><trkpt lat="37.37058146184549" lon="14.254107758426004"><ele>354.0</ele><time>2026-03-25T10:54:47.999Z</time></trkpt><trkpt lat="37.37065202765358" lon="14.25436500413336"><ele>354.0</ele><time>2026-03-25T10:54:48.999Z</time></trkpt><trkpt lat="37.370732824784334" lon="14.254621569234358"><ele>354.0</ele><time>2026-03-25T10:54:49.999Z</time></trkpt><trkpt lat="37.37082589765086" lon="14.254877325247493"><ele>354.0</ele><time>2026-03-25T10:54:50.999Z</time></trkpt><trkpt lat="37.37092670210528" lon="14.255131402745308"><ele>354.0</ele><time>2026-03-25T10:54:51.999Z</time></trkpt><trkpt lat="37.37103272769169" lon="14.255385225721485"><ele>354.0</ele><time>2026-03-25T10:54:52.999Z</time></trkpt><trkpt lat="37.37113726518098" lon="14.255637939735974"><ele>354.0</ele><time>2026-03-25T10:54:53.999Z</time></trkpt><trkpt lat="37.371238233844494" lon="14.255893366911662"><ele>354.0</ele><time>2026-03-25T10:54:54.999Z</time></trkpt><trkpt lat="37.37133851971461" lon="14.256148548615645"><ele>356.5</ele><time>2026-03-25T10:54:55.999Z</time></trkpt><trkpt lat="37.37144053462046" lon="14.256403406983903"><ele>359.0</ele><time>2026-03-25T10:54:56.999Z</time></trkpt><trkpt lat="37.37154361487198" lon="14.256656410961568"><ele>359.0</ele><time>2026-03-25T10:54:57.999Z</time></trkpt><trkpt lat="37.37164692645131" lon="14.256908716047276"><ele>359.0</ele><time>2026-03-25T10:54:58.999Z</time></trkpt><trkpt lat="37.3717473427004" lon="14.257159196171008"><ele>359.0</ele><time>2026-03-25T10:54:59.999Z</time></trkpt><trkpt lat="37.371848007238015" lon="14.25740766057361"><ele>358.6666666666667</ele><time>2026-03-25T10:55:01Z</time></trkpt><trkpt lat="37.371947694387394" lon="14.257655209272642"><ele>358.3333333333333</ele><time>2026-03-25T10:55:02Z</time></trkpt><trkpt lat="37.37204594694495" lon="14.257902393009358"><ele>358.0</ele><time>2026-03-25T10:55:03Z</time></trkpt><trkpt lat="37.372144095601186" lon="14.258146818785947"><ele>359.3333333333333</ele><time>2026-03-25T10:55:04Z</time></trkpt><trkpt lat="37.37224083395422" lon="14.258390788330606"><ele>360.6666666666667</ele><time>2026-03-25T10:55:05Z</time></trkpt><trkpt lat="37.37233688042523" lon="14.258630796272898"><ele>362.0</ele><time>2026-03-25T10:55:06Z</time></trkpt><trkpt lat="37.372431815976725" lon="14.258867591330189"><ele>361.0</ele><time>2026-03-25T10:55:07Z</time></trkpt><trkpt lat="37.37252636929567" lon="14.259103554263818"><ele>360.0</ele><time>2026-03-25T10:55:08Z</time></trkpt><trkpt lat="37.37261902834149" lon="14.259336312746656"><ele>359.0</ele><time>2026-03-25T10:55:09Z</time></trkpt><trkpt lat="37.372710558383666" lon="14.259568614769915"><ele>358.0</ele><time>2026-03-25T10:55:10Z</time></trkpt><trkpt lat="37.37280088219807" lon="14.25979559025674"><ele>357.0</ele><time>2026-03-25T10:55:11Z</time></trkpt><trkpt lat="37.372892077470006" lon="14.26002321974292"><ele>356.0</ele><time>2026-03-25T10:55:12Z</time></trkpt><trkpt lat="37.372984680857535" lon="14.260252703600404"><ele>357.33333333333337</ele><time>2026-03-25T10:55:13Z</time></trkpt><trkpt lat="37.373076142314396" lon="14.260481492571406"><ele>358.6666666666667</ele><time>2026-03-25T10:55:14Z</time></trkpt><trkpt lat="37.37316658595868" lon="14.260709027684035"><ele>360.0</ele><time>2026-03-25T10:55:15Z</time></trkpt><trkpt lat="37.37325421883136" lon="14.260929739097403"><ele>360.0</ele><time>2026-03-25T10:55:16Z</time></trkpt><trkpt lat="37.37333844119398" lon="14.261147482246656"><ele>360.0</ele><time>2026-03-25T10:55:17Z</time></trkpt><trkpt lat="37.37342213900499" lon="14.26136254549768"><ele>360.0</ele><time>2026-03-25T10:55:18Z</time></trkpt><trkpt lat="37.37350220665922" lon="14.261570212986527"><ele>359.25</ele><time>2026-03-25T10:55:19Z</time></trkpt><trkpt lat="37.373568625595986" lon="14.261751059327896"><ele>358.5</ele><time>2026-03-25T10:55:20Z</time></trkpt><trkpt lat="37.373627302301436" lon="14.261917557680269"><ele>357.75</ele><time>2026-03-25T10:55:21Z</time></trkpt><trkpt lat="37.373688962396194" lon="14.262069200110467"><ele>357.0</ele><time>2026-03-25T10:55:22Z</time></trkpt><trkpt lat="37.37376512320827" lon="14.262206243216562"><ele>358.3333333333333</ele><time>2026-03-25T10:55:23Z</time></trkpt><trkpt lat="37.37387410192321" lon="14.262336776193393"><ele>359.66666666666663</ele><time>2026-03-25T10:55:24Z</time></trkpt><trkpt lat="37.374012438221804" lon="14.262455439588122"><ele>361.0</ele><time>2026-03-25T10:55:25Z</time></trkpt><trkpt lat="37.37416118399996" lon="14.262561191749352"><ele>361.0</ele><time>2026-03-25T10:55:26Z</time></trkpt><trkpt lat="37.37430296633898" lon="14.262656248532547"><ele>361.0</ele><time>2026-03-25T10:55:27Z</time></trkpt><trkpt lat="37.37442868700009" lon="14.262757973458593"><ele>361.0</ele><time>2026-03-25T10:55:28Z</time></trkpt><trkpt lat="37.37453728051579" lon="14.262873063124498"><ele>361.0</ele><time>2026-03-25T10:55:29Z</time></trkpt><trkpt lat="37.37461703931264" lon="14.263007735676135"><ele>361.0</ele><time>2026-03-25T10:55:30Z</time></trkpt><trkpt lat="37.37466003106204" lon="14.263163257590282"><ele>361.0</ele><time>2026-03-25T10:55:31Z</time></trkpt><trkpt lat="37.374671759694" lon="14.263329448217723"><ele>361.0</ele><time>2026-03-25T10:55:32Z</time></trkpt><trkpt lat="37.37464359221736" lon="14.263499646170484"><ele>358.3333333333333</ele><time>2026-03-25T10:55:33Z</time></trkpt><trkpt lat="37.374575338624496" lon="14.263654699206441"><ele>355.6666666666667</ele><time>2026-03-25T10:55:34Z</time></trkpt><trkpt lat="37.37446971684209" lon="14.263790717882204"><ele>353.0</ele><time>2026-03-25T10:55:35Z</time></trkpt><trkpt lat="37.37432791787111" lon="14.263919090239687"><ele>353.0</ele><time>2026-03-25T10:55:36Z</time></trkpt><trkpt lat="37.37417776428141" lon="14.264059348235314"><ele>353.0</ele><time>2026-03-25T10:55:37Z</time></trkpt><trkpt lat="37.3740251927993" lon="14.264212431776208"><ele>353.0</ele><time>2026-03-25T10:55:38Z</time></trkpt><trkpt lat="37.37387072355382" lon="14.264365865316025"><ele>352.6666666666667</ele><time>2026-03-25T10:55:39Z</time></trkpt><trkpt lat="37.373722152855024" lon="14.264511652841373"><ele>352.3333333333333</ele><time>2026-03-25T10:55:40Z</time></trkpt><trkpt lat="37.37357822063983" lon="14.264654279160846"><ele>352.0</ele><time>2026-03-25T10:55:41Z</time></trkpt><trkpt lat="37.373445496520056" lon="14.264789484754937"><ele>352.0</ele><time>2026-03-25T10:55:42Z</time></trkpt><trkpt lat="37.37332195007997" lon="14.264914602484602"><ele>352.0</ele><time>2026-03-25T10:55:43Z</time></trkpt><trkpt lat="37.37321257208049" lon="14.265023143750941"><ele>352.0</ele><time>2026-03-25T10:55:44Z</time></trkpt><trkpt lat="37.37311251535066" lon="14.26511173655356"><ele>352.0</ele><time>2026-03-25T10:55:45Z</time></trkpt><trkpt lat="37.37300437217645" lon="14.265154925633325"><ele>353.0</ele><time>2026-03-25T10:55:46Z</time></trkpt><trkpt lat="37.37288362317219" lon="14.265120807698914"><ele>354.0</ele><time>2026-03-25T10:55:47Z</time></trkpt><trkpt lat="37.372762267890394" lon="14.265037954982084"><ele>355.0</ele><time>2026-03-25T10:55:48Z</time></trkpt><trkpt lat="37.372634055414316" lon="14.264934571843943"><ele>356.0</ele><time>2026-03-25T10:55:49Z</time></trkpt><trkpt lat="37.37249238812666" lon="14.264875947258217"><ele>356.0</ele><time>2026-03-25T10:55:50Z</time></trkpt><trkpt lat="37.37234149658072" lon="14.264874213419558"><ele>356.0</ele><time>2026-03-25T10:55:51Z</time></trkpt><trkpt lat="37.37218917822624" lon="14.264925525652547"><ele>356.0</ele><time>2026-03-25T10:55:52Z</time></trkpt><trkpt lat="37.3720368666072" lon="14.265026944664308"><ele>358.0</ele><time>2026-03-25T10:55:53Z</time></trkpt><trkpt lat="37.37189278333406" lon="14.265150692164333"><ele>360.0</ele><time>2026-03-25T10:55:54Z</time></trkpt><trkpt lat="37.371745101081295" lon="14.265265998077476"><ele>362.0</ele><time>2026-03-25T10:55:55Z</time></trkpt><trkpt lat="37.371620931911224" lon="14.265354319753193"><ele>362.0</ele><time>2026-03-25T10:55:56Z</time></trkpt><trkpt lat="37.37151743215029" lon="14.265475615107718"><ele>362.0</ele><time>2026-03-25T10:55:57Z</time></trkpt><trkpt lat="37.371443611092744" lon="14.265657945902099"><ele>362.0</ele><time>2026-03-25T10:55:58Z</time></trkpt><trkpt lat="37.37140114223134" lon="14.26588347261512"><ele>362.33333333333337</ele><time>2026-03-25T10:55:59Z</time></trkpt><trkpt lat="37.371358498476155" lon="14.266126368777554"><ele>362.6666666666667</ele><time>2026-03-25T10:56:00Z</time></trkpt><trkpt lat="37.3713032271066" lon="14.266379382173314"><ele>363.0</ele><time>2026-03-25T10:56:01Z</time></trkpt><trkpt lat="37.371244096602716" lon="14.266635938316057"><ele>364.6666666666667</ele><time>2026-03-25T10:56:02Z</time></trkpt><trkpt lat="37.37119034572186" lon="14.266900907887727"><ele>366.33333333333337</ele><time>2026-03-25T10:56:03Z</time></trkpt><trkpt lat="37.371137739037515" lon="14.267176472007844"><ele>368.0</ele><time>2026-03-25T10:56:04Z</time></trkpt><trkpt lat="37.37107752592042" lon="14.267457563757493"><ele>368.5</ele><time>2026-03-25T10:56:05Z</time></trkpt><trkpt lat="37.371013064155086" lon="14.26774009002888"><ele>369.0</ele><time>2026-03-25T10:56:06Z</time></trkpt><trkpt lat="37.370950382181796" lon="14.268019856744742"><ele>369.3333333333333</ele><time>2026-03-25T10:56:07Z</time></trkpt><trkpt lat="37.370891205580634" lon="14.268294651280113"><ele>369.66666666666663</ele><time>2026-03-25T10:56:08Z</time></trkpt><trkpt lat="37.37083623224678" lon="14.268552756947901"><ele>370.0</ele><time>2026-03-25T10:56:09Z</time></trkpt><trkpt lat="37.370785422398825" lon="14.26878498161792"><ele>371.0</ele><time>2026-03-25T10:56:10Z</time></trkpt><trkpt lat="37.37073728760911" lon="14.269017817598328"><ele>372.0</ele><time>2026-03-25T10:56:11Z</time></trkpt><trkpt lat="37.370717539990586" lon="14.269270760553564"><ele>373.0</ele><time>2026-03-25T10:56:12Z</time></trkpt><trkpt lat="37.37073353648071" lon="14.26954580260099"><ele>373.66666666666663</ele><time>2026-03-25T10:56:13Z</time></trkpt><trkpt lat="37.37076146640745" lon="14.269826036299749"><ele>374.3333333333333</ele><time>2026-03-25T10:56:14Z</time></trkpt><trkpt lat="37.37078075216959" lon="14.270105342380594"><ele>375.0</ele><time>2026-03-25T10:56:15Z</time></trkpt><trkpt lat="37.370794616501215" lon="14.270383645871759"><ele>375.3333333333333</ele><time>2026-03-25T10:56:16Z</time></trkpt><trkpt lat="37.370816413534854" lon="14.270653883195871"><ele>375.66666666666663</ele><time>2026-03-25T10:56:17Z</time></trkpt><trkpt lat="37.37085049408039" lon="14.270908460866258"><ele>376.0</ele><time>2026-03-25T10:56:18Z</time></trkpt><trkpt lat="37.37089666957246" lon="14.27114847004208"><ele>376.0</ele><time>2026-03-25T10:56:19Z</time></trkpt><trkpt lat="37.370947843052704" lon="14.271387151404795"><ele>376.0</ele><time>2026-03-25T10:56:20Z</time></trkpt><trkpt lat="37.37099291718743" lon="14.271613772933435"><ele>376.0</ele><time>2026-03-25T10:56:21Z</time></trkpt><trkpt lat="37.3710262533887" lon="14.271837756132186"><ele>376.3333333333333</ele><time>2026-03-25T10:56:22Z</time></trkpt><trkpt lat="37.371033402266534" lon="14.272066543619951"><ele>376.6666666666667</ele><time>2026-03-25T10:56:23Z</time></trkpt><trkpt lat="37.37101203304461" lon="14.272306176750982"><ele>377.0</ele><time>2026-03-25T10:56:24Z</time></trkpt><trkpt lat="37.370978447500754" lon="14.272554968800831"><ele>377.33333333333337</ele><time>2026-03-25T10:56:25Z</time></trkpt><trkpt lat="37.37094723728273" lon="14.27279026103344"><ele>377.6666666666667</ele><time>2026-03-25T10:56:26Z</time></trkpt><trkpt lat="37.370919475165685" lon="14.273003746797189"><ele>378.0</ele><time>2026-03-25T10:56:27Z</time></trkpt><trkpt lat="37.37089522556721" lon="14.273194974192727"><ele>378.5</ele><time>2026-03-25T10:56:28Z</time></trkpt><trkpt lat="37.37088015185957" lon="14.273383259299658"><ele>379.0</ele><time>2026-03-25T10:56:29Z</time></trkpt><trkpt lat="37.37089758046638" lon="14.273569030751444"><ele>379.5</ele><time>2026-03-25T10:56:30Z</time></trkpt><trkpt lat="37.37095207588731" lon="14.273744472150893"><ele>380.0</ele><time>2026-03-25T10:56:31Z</time></trkpt><trkpt lat="37.371041631129394" lon="14.273898339374181"><ele>379.6666666666667</ele><time>2026-03-25T10:56:32Z</time></trkpt><trkpt lat="37.37116710345278" lon="14.274027103110303"><ele>379.3333333333333</ele><time>2026-03-25T10:56:33Z</time></trkpt><trkpt lat="37.37132103784765" lon="14.274147225705635"><ele>379.0</ele><time>2026-03-25T10:56:34Z</time></trkpt><trkpt lat="37.37149187211188" lon="14.274263780634515"><ele>381.0</ele><time>2026-03-25T10:56:35Z</time></trkpt><trkpt lat="37.37166160577988" lon="14.274383760541166"><ele>383.0</ele><time>2026-03-25T10:56:36Z</time></trkpt><trkpt lat="37.37183277960241" lon="14.274504442043138"><ele>385.0</ele><time>2026-03-25T10:56:36.999Z</time></trkpt><trkpt lat="37.37200368047183" lon="14.274628174064993"><ele>385.0</ele><time>2026-03-25T10:56:37.999Z</time></trkpt><trkpt lat="37.3721712612482" lon="14.274748657597241"><ele>385.0</ele><time>2026-03-25T10:56:38.999Z</time></trkpt><trkpt lat="37.372327653472915" lon="14.274858326661674"><ele>385.0</ele><time>2026-03-25T10:56:39.999Z</time></trkpt><trkpt lat="37.372464488328994" lon="14.27495785923594"><ele>385.25</ele><time>2026-03-25T10:56:40.999Z</time></trkpt><trkpt lat="37.372579758788625" lon="14.275054045799335"><ele>385.5</ele><time>2026-03-25T10:56:41.999Z</time></trkpt><trkpt lat="37.372657282182196" lon="14.275172564633653"><ele>385.75</ele><time>2026-03-25T10:56:42.999Z</time></trkpt><trkpt lat="37.37269321590676" lon="14.275319808447202"><ele>386.0</ele><time>2026-03-25T10:56:43.999Z</time></trkpt><trkpt lat="37.37267090182848" lon="14.275476208677759"><ele>386.75</ele><time>2026-03-25T10:56:44.999Z</time></trkpt><trkpt lat="37.372590563836965" lon="14.27562067346487"><ele>387.5</ele><time>2026-03-25T10:56:45.999Z</time></trkpt><trkpt lat="37.37250575409599" lon="14.275783763403929"><ele>388.25</ele><time>2026-03-25T10:56:46.999Z</time></trkpt><trkpt lat="37.37247127948175" lon="14.275967670438302"><ele>389.0</ele><time>2026-03-25T10:56:47.999Z</time></trkpt><trkpt lat="37.372486231980425" lon="14.276184567062378"><ele>389.0</ele><time>2026-03-25T10:56:48.999Z</time></trkpt><trkpt lat="37.37252560432041" lon="14.276422122423995"><ele>389.0</ele><time>2026-03-25T10:56:49.999Z</time></trkpt><trkpt lat="37.3725630377326" lon="14.276663234898363"><ele>389.0</ele><time>2026-03-25T10:56:50.999Z</time></trkpt><trkpt lat="37.37261463047267" lon="14.276901208317751"><ele>389.0</ele><time>2026-03-25T10:56:51.999Z</time></trkpt><trkpt lat="37.372686920079246" lon="14.277138360620667"><ele>389.0</ele><time>2026-03-25T10:56:52.999Z</time></trkpt><trkpt lat="37.372769921987505" lon="14.277369987923423"><ele>389.0</ele><time>2026-03-25T10:56:53.999Z</time></trkpt><trkpt lat="37.37286220124758" lon="14.277594156168211"><ele>389.0</ele><time>2026-03-25T10:56:54.999Z</time></trkpt><trkpt lat="37.372964201890895" lon="14.277809466495412"><ele>389.0</ele><time>2026-03-25T10:56:55.999Z</time></trkpt><trkpt lat="37.37306631170754" lon="14.278013270256615"><ele>389.0</ele><time>2026-03-25T10:56:56.999Z</time></trkpt><trkpt lat="37.37315412634455" lon="14.278207941237714"><ele>393.0</ele><time>2026-03-25T10:56:57.999Z</time></trkpt><trkpt lat="37.373222714026895" lon="14.27839685189706"><ele>397.0</ele><time>2026-03-25T10:56:58.999Z</time></trkpt><trkpt lat="37.37326130194428" lon="14.278589798926406"><ele>401.0</ele><time>2026-03-25T10:56:59.999Z</time></trkpt><trkpt lat="37.37328174343712" lon="14.278792614781299"><ele>401.0</ele><time>2026-03-25T10:57:00.999Z</time></trkpt><trkpt lat="37.37328384711558" lon="14.278997355520804"><ele>401.0</ele><time>2026-03-25T10:57:01.999Z</time></trkpt><trkpt lat="37.37327070384866" lon="14.279180734017949"><ele>401.0</ele><time>2026-03-25T10:57:02.999Z</time></trkpt><trkpt lat="37.373243173327786" lon="14.27935372936827"><ele>401.0</ele><time>2026-03-25T10:57:03.999Z</time></trkpt><trkpt lat="37.373189219709765" lon="14.279523035076748"><ele>401.0</ele><time>2026-03-25T10:57:04.999Z</time></trkpt><trkpt lat="37.37311401275391" lon="14.279682935899684"><ele>401.0</ele><time>2026-03-25T10:57:05.999Z</time></trkpt><trkpt lat="37.373042037389375" lon="14.279853523858927"><ele>401.0</ele><time>2026-03-25T10:57:06.999Z</time></trkpt><trkpt lat="37.37297966129791" lon="14.280028919559337"><ele>399.75</ele><time>2026-03-25T10:57:07.999Z</time></trkpt><trkpt lat="37.372927673161485" lon="14.280195117954772"><ele>398.5</ele><time>2026-03-25T10:57:08.999Z</time></trkpt><trkpt lat="37.37288254529568" lon="14.280347222229498"><ele>397.25</ele><time>2026-03-25T10:57:10Z</time></trkpt><trkpt lat="37.37285710086086" lon="14.280512505790108"><ele>396.0</ele><time>2026-03-25T10:57:11Z</time></trkpt><trkpt lat="37.37286170628182" lon="14.280690361465055"><ele>396.0</ele><time>2026-03-25T10:57:12Z</time></trkpt><trkpt lat="37.37289819394081" lon="14.280877916416253"><ele>396.0</ele><time>2026-03-25T10:57:13Z</time></trkpt><trkpt lat="37.372960476361385" lon="14.281072885949596"><ele>396.0</ele><time>2026-03-25T10:57:14Z</time></trkpt><trkpt lat="37.37303913720951" lon="14.281273024149234"><ele>400.0</ele><time>2026-03-25T10:57:15Z</time></trkpt><trkpt lat="37.37312026085065" lon="14.281481859955905"><ele>404.0</ele><time>2026-03-25T10:57:16Z</time></trkpt><trkpt lat="37.37319823381481" lon="14.28169657194892"><ele>408.0</ele><time>2026-03-25T10:57:17Z</time></trkpt><trkpt lat="37.373273233037565" lon="14.281908706356164"><ele>408.0</ele><time>2026-03-25T10:57:18Z</time></trkpt><trkpt lat="37.373348643250125" lon="14.282121967468925"><ele>408.0</ele><time>2026-03-25T10:57:19Z</time></trkpt><trkpt lat="37.373418907874516" lon="14.282331048805096"><ele>408.0</ele><time>2026-03-25T10:57:20Z</time></trkpt><trkpt lat="37.373492392234944" lon="14.282527315897982"><ele>408.0</ele><time>2026-03-25T10:57:21Z</time></trkpt><trkpt lat="37.37358133909306" lon="14.282709814760214"><ele>408.0</ele><time>2026-03-25T10:57:22Z</time></trkpt><trkpt lat="37.373688263724695" lon="14.282883561385155"><ele>408.0</ele><time>2026-03-25T10:57:23Z</time></trkpt><trkpt lat="37.37380145923505" lon="14.283051812644825"><ele>410.25</ele><time>2026-03-25T10:57:24Z</time></trkpt><trkpt lat="37.37390654111329" lon="14.283200456385718"><ele>412.5</ele><time>2026-03-25T10:57:25Z</time></trkpt><trkpt lat="37.37401079457612" lon="14.283318515560142"><ele>414.75</ele><time>2026-03-25T10:57:26Z</time></trkpt><trkpt lat="37.374119047703815" lon="14.283421350022474"><ele>417.0</ele><time>2026-03-25T10:57:27Z</time></trkpt><trkpt lat="37.374193281750564" lon="14.28352943583879"><ele>417.0</ele><time>2026-03-25T10:57:28Z</time></trkpt><trkpt lat="37.37423357345966" lon="14.283661824808902"><ele>417.0</ele><time>2026-03-25T10:57:29Z</time></trkpt><trkpt lat="37.37425674615878" lon="14.283803011000472"><ele>417.0</ele><time>2026-03-25T10:57:30Z</time></trkpt><trkpt lat="37.37427575661215" lon="14.283968700320317"><ele>417.0</ele><time>2026-03-25T10:57:31Z</time></trkpt><trkpt lat="37.37429755032584" lon="14.28415174874741"><ele>416.0</ele><time>2026-03-25T10:57:32Z</time></trkpt><trkpt lat="37.37430944318489" lon="14.284343122291874"><ele>415.0</ele><time>2026-03-25T10:57:33Z</time></trkpt><trkpt lat="37.3743054676864" lon="14.284547925879156"><ele>414.0</ele><time>2026-03-25T10:57:34Z</time></trkpt><trkpt lat="37.374298841774426" lon="14.284760743151706"><ele>414.33333333333337</ele><time>2026-03-25T10:57:35Z</time></trkpt><trkpt lat="37.37430033373107" lon="14.284973463218677"><ele>414.6666666666667</ele><time>2026-03-25T10:57:36Z</time></trkpt><trkpt lat="37.37429998690004" lon="14.285186054332282"><ele>415.0</ele><time>2026-03-25T10:57:37Z</time></trkpt><trkpt lat="37.37429656830481" lon="14.285393704914059"><ele>415.0</ele><time>2026-03-25T10:57:38Z</time></trkpt><trkpt lat="37.37429834562935" lon="14.285593201672478"><ele>415.0</ele><time>2026-03-25T10:57:39Z</time></trkpt><trkpt lat="37.37428778736045" lon="14.285792213977627"><ele>415.0</ele><time>2026-03-25T10:57:40Z</time></trkpt><trkpt lat="37.37425618766378" lon="14.285989201938518"><ele>415.33333333333337</ele><time>2026-03-25T10:57:41Z</time></trkpt><trkpt lat="37.37420046526008" lon="14.286194190114724"><ele>415.66666666666663</ele><time>2026-03-25T10:57:42Z</time></trkpt><trkpt lat="37.37414135432158" lon="14.286410629988499"><ele>416.0</ele><time>2026-03-25T10:57:43Z</time></trkpt><trkpt lat="37.37408574114394" lon="14.28663464208897"><ele>416.66666666666663</ele><time>2026-03-25T10:57:44Z</time></trkpt><trkpt lat="37.3740302087173" lon="14.286863029560553"><ele>417.33333333333337</ele><time>2026-03-25T10:57:45Z</time></trkpt><trkpt lat="37.37397559900062" lon="14.287095992070055"><ele>418.0</ele><time>2026-03-25T10:57:46Z</time></trkpt><trkpt lat="37.373922244282625" lon="14.287327460309577"><ele>418.6666666666667</ele><time>2026-03-25T10:57:47Z</time></trkpt><trkpt lat="37.37386820011229" lon="14.28755423821404"><ele>419.33333333333337</ele><time>2026-03-25T10:57:48Z</time></trkpt><trkpt lat="37.37381138515798" lon="14.287776156972814"><ele>420.0</ele><time>2026-03-25T10:57:49Z</time></trkpt><trkpt lat="37.37374465702448" lon="14.28798407301913"><ele>418.33333333333337</ele><time>2026-03-25T10:57:50Z</time></trkpt><trkpt lat="37.373654777121835" lon="14.28818481532093"><ele>416.6666666666667</ele><time>2026-03-25T10:57:51Z</time></trkpt><trkpt lat="37.37354099867597" lon="14.28836954606879"><ele>415.0</ele><time>2026-03-25T10:57:52Z</time></trkpt><trkpt lat="37.37341960411122" lon="14.288557633745018"><ele>415.0</ele><time>2026-03-25T10:57:53Z</time></trkpt><trkpt lat="37.37329661478787" lon="14.288752598902969"><ele>415.0</ele><time>2026-03-25T10:57:54Z</time></trkpt><trkpt lat="37.37319229041536" lon="14.288929877076605"><ele>415.0</ele><time>2026-03-25T10:57:55Z</time></trkpt><trkpt lat="37.37309125632327" lon="14.28910891470834"><ele>415.0</ele><time>2026-03-25T10:57:56Z</time></trkpt><trkpt lat="37.373004590401386" lon="14.289296721783787"><ele>415.0</ele><time>2026-03-25T10:57:57Z</time></trkpt><trkpt lat="37.372924261558765" lon="14.289500631267096"><ele>415.0</ele><time>2026-03-25T10:57:58Z</time></trkpt><trkpt lat="37.37284593348373" lon="14.289711200111203"><ele>416.0</ele><time>2026-03-25T10:57:59Z</time></trkpt><trkpt lat="37.372772152048285" lon="14.289906652244618"><ele>417.0</ele><time>2026-03-25T10:58:00Z</time></trkpt><trkpt lat="37.372705009381214" lon="14.290082849202848"><ele>418.0</ele><time>2026-03-25T10:58:01Z</time></trkpt><trkpt lat="37.37266475849175" lon="14.290258911336283"><ele>418.0</ele><time>2026-03-25T10:58:02Z</time></trkpt><trkpt lat="37.37264388048726" lon="14.290456965115482"><ele>418.0</ele><time>2026-03-25T10:58:03Z</time></trkpt><trkpt lat="37.372635709417985" lon="14.290670463210251"><ele>418.0</ele><time>2026-03-25T10:58:04Z</time></trkpt><trkpt lat="37.37262284698043" lon="14.290893537628195"><ele>419.0</ele><time>2026-03-25T10:58:05Z</time></trkpt><trkpt lat="37.3726029409551" lon="14.291123772544244"><ele>420.0</ele><time>2026-03-25T10:58:06Z</time></trkpt><trkpt lat="37.37257534968751" lon="14.291352556310404"><ele>421.0</ele><time>2026-03-25T10:58:07Z</time></trkpt><trkpt lat="37.37253548643991" lon="14.291579877734153"><ele>422.0</ele><time>2026-03-25T10:58:08Z</time></trkpt><trkpt lat="37.372478146201956" lon="14.291805895212358"><ele>423.0</ele><time>2026-03-25T10:58:09Z</time></trkpt><trkpt lat="37.37240281541773" lon="14.292025504048656"><ele>424.0</ele><time>2026-03-25T10:58:10Z</time></trkpt><trkpt lat="37.37231545438916" lon="14.292242556978685"><ele>424.0</ele><time>2026-03-25T10:58:11Z</time></trkpt><trkpt lat="37.37222710072327" lon="14.29246093966813"><ele>424.0</ele><time>2026-03-25T10:58:12Z</time></trkpt><trkpt lat="37.372141362439486" lon="14.292680528035884"><ele>424.0</ele><time>2026-03-25T10:58:13Z</time></trkpt><trkpt lat="37.372055975359174" lon="14.292903332085066"><ele>423.0</ele><time>2026-03-25T10:58:14Z</time></trkpt><trkpt lat="37.37197031225296" lon="14.293125835810754"><ele>422.0</ele><time>2026-03-25T10:58:14.999Z</time></trkpt><trkpt lat="37.37188379456869" lon="14.29334777025327"><ele>421.0</ele><time>2026-03-25T10:58:15.999Z</time></trkpt><trkpt lat="37.371797078292936" lon="14.293572001642257"><ele>421.0</ele><time>2026-03-25T10:58:16.999Z</time></trkpt><trkpt lat="37.371713826009305" lon="14.293801048835043"><ele>421.0</ele><time>2026-03-25T10:58:17.999Z</time></trkpt><trkpt lat="37.371629607666705" lon="14.294036045174842"><ele>421.0</ele><time>2026-03-25T10:58:18.999Z</time></trkpt><trkpt lat="37.371542783036176" lon="14.294268244781287"><ele>421.6666666666667</ele><time>2026-03-25T10:58:19.999Z</time></trkpt><trkpt lat="37.37145637275754" lon="14.294490240874268"><ele>422.33333333333337</ele><time>2026-03-25T10:58:20.999Z</time></trkpt><trkpt lat="37.37137294016725" lon="14.294704702136961"><ele>423.0</ele><time>2026-03-25T10:58:21.999Z</time></trkpt><trkpt lat="37.371292073621724" lon="14.294915087746217"><ele>423.0</ele><time>2026-03-25T10:58:22.999Z</time></trkpt><trkpt lat="37.3712141253725" lon="14.295120557629962"><ele>423.0</ele><time>2026-03-25T10:58:23.999Z</time></trkpt><trkpt lat="37.37113919239815" lon="14.295326716790816"><ele>423.0</ele><time>2026-03-25T10:58:24.999Z</time></trkpt><trkpt lat="37.37107369478185" lon="14.295540528785102"><ele>424.33333333333337</ele><time>2026-03-25T10:58:25.999Z</time></trkpt><trkpt lat="37.371012269595376" lon="14.295758395414966"><ele>425.6666666666667</ele><time>2026-03-25T10:58:26.999Z</time></trkpt><trkpt lat="37.370957249319666" lon="14.295989171070648"><ele>427.0</ele><time>2026-03-25T10:58:27.999Z</time></trkpt><trkpt lat="37.370914304058665" lon="14.29622262658595"><ele>427.33333333333337</ele><time>2026-03-25T10:58:28.999Z</time></trkpt><trkpt lat="37.37087157726202" lon="14.296449933017202"><ele>427.66666666666663</ele><time>2026-03-25T10:58:29.999Z</time></trkpt><trkpt lat="37.37082214993455" lon="14.296656346229634"><ele>428.0</ele><time>2026-03-25T10:58:30.999Z</time></trkpt><trkpt lat="37.370758360857295" lon="14.296858217910101"><ele>428.0</ele><time>2026-03-25T10:58:31.999Z</time></trkpt><trkpt lat="37.37068118892967" lon="14.297040043498775"><ele>428.0</ele><time>2026-03-25T10:58:32.999Z</time></trkpt><trkpt lat="37.37058489564155" lon="14.29721733376001"><ele>428.0</ele><time>2026-03-25T10:58:33.999Z</time></trkpt><trkpt lat="37.370473719765" lon="14.297397162121237"><ele>428.66666666666663</ele><time>2026-03-25T10:58:34.999Z</time></trkpt><trkpt lat="37.3703558709705" lon="14.297577892938703"><ele>429.33333333333337</ele><time>2026-03-25T10:58:35.999Z</time></trkpt><trkpt lat="37.37024305813218" lon="14.297760511294758"><ele>430.0</ele><time>2026-03-25T10:58:36.999Z</time></trkpt><trkpt lat="37.37013814903255" lon="14.297948650786612"><ele>432.0</ele><time>2026-03-25T10:58:37.999Z</time></trkpt><trkpt lat="37.37003579572799" lon="14.298136654391756"><ele>434.0</ele><time>2026-03-25T10:58:38.999Z</time></trkpt><trkpt lat="37.3699379090736" lon="14.298327445644993"><ele>436.0</ele><time>2026-03-25T10:58:39.999Z</time></trkpt><trkpt lat="37.3698422153784" lon="14.298520696609014"><ele>436.0</ele><time>2026-03-25T10:58:40.999Z</time></trkpt><trkpt lat="37.36974375863111" lon="14.298715045409164"><ele>436.0</ele><time>2026-03-25T10:58:41.999Z</time></trkpt><trkpt lat="37.36964122766221" lon="14.298910932544988"><ele>436.0</ele><time>2026-03-25T10:58:42.998Z</time></trkpt><trkpt lat="37.36953547076662" lon="14.299108523930467"><ele>434.6666666666667</ele><time>2026-03-25T10:58:43.998Z</time></trkpt><trkpt lat="37.36942885101335" lon="14.29930855133763"><ele>433.33333333333337</ele><time>2026-03-25T10:58:44.998Z</time></trkpt><trkpt lat="37.36932278486566" lon="14.299510020467169"><ele>432.0</ele><time>2026-03-25T10:58:45.998Z</time></trkpt><trkpt lat="37.369218220351776" lon="14.299709503303875"><ele>434.0</ele><time>2026-03-25T10:58:46.998Z</time></trkpt><trkpt lat="37.36911155070551" lon="14.299915348587701"><ele>436.0</ele><time>2026-03-25T10:58:47.998Z</time></trkpt><trkpt lat="37.36900428775055" lon="14.300117124214568"><ele>438.0</ele><time>2026-03-25T10:58:48.998Z</time></trkpt><trkpt lat="37.36888955831575" lon="14.300321052073953"><ele>438.0</ele><time>2026-03-25T10:58:49.998Z</time></trkpt><trkpt lat="37.36877735595711" lon="14.300525924687005"><ele>438.0</ele><time>2026-03-25T10:58:50.998Z</time></trkpt><trkpt lat="37.368669050542024" lon="14.300733499397234"><ele>438.0</ele><time>2026-03-25T10:58:51.998Z</time></trkpt><trkpt lat="37.36856123869512" lon="14.300945916355257"><ele>439.33333333333337</ele><time>2026-03-25T10:58:52.998Z</time></trkpt><trkpt lat="37.3684505701221" lon="14.301156318550309"><ele>440.6666666666667</ele><time>2026-03-25T10:58:53.998Z</time></trkpt><trkpt lat="37.368339525672" lon="14.301367393307977"><ele>442.0</ele><time>2026-03-25T10:58:54.998Z</time></trkpt><trkpt lat="37.368230420099316" lon="14.301577334012983"><ele>442.6666666666667</ele><time>2026-03-25T10:58:55.998Z</time></trkpt><trkpt lat="37.3681237942033" lon="14.301787666808574"><ele>443.33333333333337</ele><time>2026-03-25T10:58:56.998Z</time></trkpt><trkpt lat="37.36801013797262" lon="14.30200011070905"><ele>444.0</ele><time>2026-03-25T10:58:57.998Z</time></trkpt><trkpt lat="37.36789729287813" lon="14.302213497025807"><ele>445.33333333333337</ele><time>2026-03-25T10:58:58.998Z</time></trkpt><trkpt lat="37.36778549584396" lon="14.302428447656949"><ele>446.6666666666667</ele><time>2026-03-25T10:58:59.998Z</time></trkpt><trkpt lat="37.36767367377243" lon="14.302644584856205"><ele>448.0</ele><time>2026-03-25T10:59:00.998Z</time></trkpt><trkpt lat="37.36756178936485" lon="14.302863758678235"><ele>449.0</ele><time>2026-03-25T10:59:01.998Z</time></trkpt><trkpt lat="37.367448668040666" lon="14.303080808615263"><ele>450.0</ele><time>2026-03-25T10:59:02.998Z</time></trkpt><trkpt lat="37.36732560959297" lon="14.303297737238776"><ele>451.0</ele><time>2026-03-25T10:59:03.998Z</time></trkpt><trkpt lat="37.36719158746237" lon="14.303501791580066"><ele>451.0</ele><time>2026-03-25T10:59:04.998Z</time></trkpt><trkpt lat="37.36704807596042" lon="14.303702851168456"><ele>451.0</ele><time>2026-03-25T10:59:05.998Z</time></trkpt><trkpt lat="37.366901629709254" lon="14.303900617036158"><ele>451.0</ele><time>2026-03-25T10:59:06.998Z</time></trkpt><trkpt lat="37.36675572125411" lon="14.304100513224988"><ele>452.0</ele><time>2026-03-25T10:59:07.998Z</time></trkpt><trkpt lat="37.36661272111852" lon="14.304302180432146"><ele>453.0</ele><time>2026-03-25T10:59:08.998Z</time></trkpt><trkpt lat="37.366471187200624" lon="14.304503243933008"><ele>454.0</ele><time>2026-03-25T10:59:09.998Z</time></trkpt><trkpt lat="37.36632743812756" lon="14.304701629974755"><ele>455.33333333333337</ele><time>2026-03-25T10:59:10.998Z</time></trkpt><trkpt lat="37.36618373616818" lon="14.30489858994127"><ele>456.66666666666663</ele><time>2026-03-25T10:59:11.999Z</time></trkpt><trkpt lat="37.36604564853689" lon="14.305102065319316"><ele>458.0</ele><time>2026-03-25T10:59:12.999Z</time></trkpt><trkpt lat="37.3659123827629" lon="14.305320548478388"><ele>458.0</ele><time>2026-03-25T10:59:13.999Z</time></trkpt><trkpt lat="37.36578803320054" lon="14.305556086363541"><ele>458.0</ele><time>2026-03-25T10:59:14.999Z</time></trkpt><trkpt lat="37.36566763712892" lon="14.305803404102715"><ele>459.0</ele><time>2026-03-25T10:59:15.999Z</time></trkpt><trkpt lat="37.36555252180843" lon="14.306060133185452"><ele>460.0</ele><time>2026-03-25T10:59:16.999Z</time></trkpt><trkpt lat="37.36544866145507" lon="14.306318336967326"><ele>461.6666666666667</ele><time>2026-03-25T10:59:17.999Z</time></trkpt><trkpt lat="37.36535457736372" lon="14.306573300287896"><ele>463.33333333333337</ele><time>2026-03-25T10:59:18.999Z</time></trkpt><trkpt lat="37.36526833934801" lon="14.306819424945365"><ele>465.0</ele><time>2026-03-25T10:59:19.999Z</time></trkpt><trkpt lat="37.36518706743421" lon="14.307057008313741"><ele>466.33333333333337</ele><time>2026-03-25T10:59:20.999Z</time></trkpt><trkpt lat="37.36510248304672" lon="14.30728685822529"><ele>467.6666666666667</ele><time>2026-03-25T10:59:21.999Z</time></trkpt><trkpt lat="37.36500916249235" lon="14.307506700718694"><ele>469.0</ele><time>2026-03-25T10:59:22.999Z</time></trkpt><trkpt lat="37.36490218606919" lon="14.307732027479176"><ele>469.0</ele><time>2026-03-25T10:59:23.999Z</time></trkpt><trkpt lat="37.364784907921255" lon="14.307958786587626"><ele>469.0</ele><time>2026-03-25T10:59:24.999Z</time></trkpt><trkpt lat="37.36465659065098" lon="14.308188098416515"><ele>469.0</ele><time>2026-03-25T10:59:25.999Z</time></trkpt><trkpt lat="37.36451782238661" lon="14.308413016389808"><ele>472.5</ele><time>2026-03-25T10:59:26.999Z</time></trkpt><trkpt lat="37.364367708523496" lon="14.308634071468324"><ele>476.0</ele><time>2026-03-25T10:59:27.999Z</time></trkpt><trkpt lat="37.36421120981481" lon="14.308850872645984"><ele>475.5</ele><time>2026-03-25T10:59:28.999Z</time></trkpt><trkpt lat="37.36405311433956" lon="14.309062894855742"><ele>475.0</ele><time>2026-03-25T10:59:29.999Z</time></trkpt><trkpt lat="37.36389332475513" lon="14.309260594468563"><ele>477.0</ele><time>2026-03-25T10:59:30.999Z</time></trkpt><trkpt lat="37.363727978283904" lon="14.30944558589727"><ele>479.0</ele><time>2026-03-25T10:59:31.999Z</time></trkpt><trkpt lat="37.363562324122675" lon="14.30962164900776"><ele>481.0</ele><time>2026-03-25T10:59:32.999Z</time></trkpt><trkpt lat="37.363396357237676" lon="14.309799277270743"><ele>481.0</ele><time>2026-03-25T10:59:33.999Z</time></trkpt><trkpt lat="37.3632305494464" lon="14.309980942865717"><ele>481.0</ele><time>2026-03-25T10:59:34.999Z</time></trkpt><trkpt lat="37.363070050319514" lon="14.310160554900003"><ele>481.0</ele><time>2026-03-25T10:59:35.999Z</time></trkpt><trkpt lat="37.36291179982693" lon="14.310337665703265"><ele>482.6666666666667</ele><time>2026-03-25T10:59:36.999Z</time></trkpt><trkpt lat="37.362757909648344" lon="14.310510888283373"><ele>484.33333333333337</ele><time>2026-03-25T10:59:37.999Z</time></trkpt><trkpt lat="37.36260685696437" lon="14.310680149445808"><ele>486.0</ele><time>2026-03-25T10:59:38.999Z</time></trkpt><trkpt lat="37.362459293783665" lon="14.310851702953766"><ele>486.0</ele><time>2026-03-25T10:59:39.999Z</time></trkpt><trkpt lat="37.36231626203604" lon="14.31102942080688"><ele>486.0</ele><time>2026-03-25T10:59:40.999Z</time></trkpt><trkpt lat="37.36217762813795" lon="14.31121658995131"><ele>486.0</ele><time>2026-03-25T10:59:41.999Z</time></trkpt><trkpt lat="37.36204167677073" lon="14.31141514865324"><ele>489.0</ele><time>2026-03-25T10:59:42.999Z</time></trkpt><trkpt lat="37.36190229231204" lon="14.31161997298952"><ele>492.0</ele><time>2026-03-25T10:59:43.999Z</time></trkpt><trkpt lat="37.361761164763344" lon="14.311823923289566"><ele>495.0</ele><time>2026-03-25T10:59:44.999Z</time></trkpt><trkpt lat="37.36162174741751" lon="14.312024671484311"><ele>495.0</ele><time>2026-03-25T10:59:45.999Z</time></trkpt><trkpt lat="37.36148213555012" lon="14.312225369872026"><ele>495.0</ele><time>2026-03-25T10:59:46.999Z</time></trkpt><trkpt lat="37.36134587999512" lon="14.312425967381273"><ele>495.0</ele><time>2026-03-25T10:59:47.999Z</time></trkpt><trkpt lat="37.361215659424666" lon="14.312622922454871"><ele>500.0</ele><time>2026-03-25T10:59:48.999Z</time></trkpt><trkpt lat="37.361086875363156" lon="14.312814011549127"><ele>505.0</ele><time>2026-03-25T10:59:49.999Z</time></trkpt><trkpt lat="37.360955420455404" lon="14.312997119148095"><ele>510.0</ele><time>2026-03-25T10:59:50.999Z</time></trkpt><trkpt lat="37.360821882260865" lon="14.313172358757573"><ele>510.0</ele><time>2026-03-25T10:59:51.999Z</time></trkpt><trkpt lat="37.36068596533655" lon="14.313341427395953"><ele>510.0</ele><time>2026-03-25T10:59:52.999Z</time></trkpt><trkpt lat="37.36055178943061" lon="14.313503740699224"><ele>510.0</ele><time>2026-03-25T10:59:53.999Z</time></trkpt><trkpt lat="37.36042341395253" lon="14.313658608664056"><ele>511.0</ele><time>2026-03-25T10:59:54.999Z</time></trkpt><trkpt lat="37.360297066934955" lon="14.313810337533399"><ele>512.0</ele><time>2026-03-25T10:59:55.999Z</time></trkpt><trkpt lat="37.36017589824082" lon="14.313956060978962"><ele>513.0</ele><time>2026-03-25T10:59:56.999Z</time></trkpt><trkpt lat="37.36006310810201" lon="14.314093611673652"><ele>513.3333333333334</ele><time>2026-03-25T10:59:57.999Z</time></trkpt><trkpt lat="37.3599600465347" lon="14.314222447736409"><ele>513.6666666666667</ele><time>2026-03-25T10:59:58.999Z</time></trkpt><trkpt lat="37.35985808352432" lon="14.314352499521338"><ele>514.0</ele><time>2026-03-25T10:59:59.999Z</time></trkpt><trkpt lat="37.35974658108465" lon="14.314498932626302"><ele>515.0</ele><time>2026-03-25T11:00:00.999Z</time></trkpt><trkpt lat="37.35963952460093" lon="14.314666758288887"><ele>516.0</ele><time>2026-03-25T11:00:01.999Z</time></trkpt><trkpt lat="37.35953304282926" lon="14.314853779800135"><ele>517.0</ele><time>2026-03-25T11:00:02.999Z</time></trkpt><trkpt lat="37.35942449857609" lon="14.315045810164458"><ele>518.0</ele><time>2026-03-25T11:00:03.999Z</time></trkpt><trkpt lat="37.3593190635536" lon="14.315241866142692"><ele>519.0</ele><time>2026-03-25T11:00:04.999Z</time></trkpt><trkpt lat="37.359216483872935" lon="14.315432465094982"><ele>520.0</ele><time>2026-03-25T11:00:05.999Z</time></trkpt><trkpt lat="37.35911698646554" lon="14.315611340112827"><ele>520.6666666666667</ele><time>2026-03-25T11:00:06.999Z</time></trkpt><trkpt lat="37.35901520665606" lon="14.315779316880395"><ele>521.3333333333334</ele><time>2026-03-25T11:00:07.999Z</time></trkpt><trkpt lat="37.358901759019766" lon="14.315941835638059"><ele>522.0</ele><time>2026-03-25T11:00:08.999Z</time></trkpt><trkpt lat="37.35877191850176" lon="14.316099803501848"><ele>523.6666666666666</ele><time>2026-03-25T11:00:09.999Z</time></trkpt><trkpt lat="37.3586405429398" lon="14.316256450399719"><ele>525.3333333333333</ele><time>2026-03-25T11:00:10.999Z</time></trkpt><trkpt lat="37.35850675150681" lon="14.31641507311736"><ele>527.0</ele><time>2026-03-25T11:00:11.999Z</time></trkpt><trkpt lat="37.358380532411935" lon="14.316567347133011"><ele>527.0</ele><time>2026-03-25T11:00:12.999Z</time></trkpt><trkpt lat="37.35826847819237" lon="14.316717909837072"><ele>527.0</ele><time>2026-03-25T11:00:14Z</time></trkpt><trkpt lat="37.358169572980515" lon="14.316890966291805"><ele>527.0</ele><time>2026-03-25T11:00:15Z</time></trkpt><trkpt lat="37.35807738807147" lon="14.317080068774054"><ele>527.3333333333333</ele><time>2026-03-25T11:00:16Z</time></trkpt><trkpt lat="37.35798664520868" lon="14.31726193444033"><ele>527.6666666666666</ele><time>2026-03-25T11:00:17Z</time></trkpt><trkpt lat="37.35790401520594" lon="14.317428786324099"><ele>528.0</ele><time>2026-03-25T11:00:18Z</time></trkpt><trkpt lat="37.35782940500989" lon="14.317586479067208"><ele>528.0</ele><time>2026-03-25T11:00:19Z</time></trkpt><trkpt lat="37.35776601741436" lon="14.317748075833912"><ele>528.0</ele><time>2026-03-25T11:00:20Z</time></trkpt><trkpt lat="37.35772000052186" lon="14.317931959263108"><ele>528.0</ele><time>2026-03-25T11:00:21Z</time></trkpt><trkpt lat="37.35768958192799" lon="14.318136860824694"><ele>527.6666666666666</ele><time>2026-03-25T11:00:22Z</time></trkpt><trkpt lat="37.35766795944577" lon="14.318352523553331"><ele>527.3333333333333</ele><time>2026-03-25T11:00:23Z</time></trkpt><trkpt lat="37.35764567891447" lon="14.318572720792554"><ele>527.0</ele><time>2026-03-25T11:00:24Z</time></trkpt><trkpt lat="37.35761999772552" lon="14.3187950527094"><ele>527.6666666666666</ele><time>2026-03-25T11:00:25Z</time></trkpt><trkpt lat="37.357591717370774" lon="14.319013007088008"><ele>528.3333333333334</ele><time>2026-03-25T11:00:26Z</time></trkpt><trkpt lat="37.35756255315875" lon="14.319221286679086"><ele>529.0</ele><time>2026-03-25T11:00:27Z</time></trkpt><trkpt lat="37.35753810874902" lon="14.319430422606352"><ele>529.0</ele><time>2026-03-25T11:00:28Z</time></trkpt><trkpt lat="37.35751483811903" lon="14.31963974084931"><ele>529.0</ele><time>2026-03-25T11:00:29Z</time></trkpt><trkpt lat="37.35749086328701" lon="14.319838969961138"><ele>529.0</ele><time>2026-03-25T11:00:30Z</time></trkpt><trkpt lat="37.3574592546452" lon="14.320028889091661"><ele>529.6666666666667</ele><time>2026-03-25T11:00:31Z</time></trkpt><trkpt lat="37.3574047558359" lon="14.320208496086252"><ele>530.3333333333334</ele><time>2026-03-25T11:00:32Z</time></trkpt><trkpt lat="37.35731998865968" lon="14.320380863262349"><ele>531.0</ele><time>2026-03-25T11:00:33Z</time></trkpt><trkpt lat="37.357219397482325" lon="14.320549555113729"><ele>529.6666666666666</ele><time>2026-03-25T11:00:34Z</time></trkpt><trkpt lat="37.35711426304956" lon="14.320722235120998"><ele>528.3333333333333</ele><time>2026-03-25T11:00:35Z</time></trkpt><trkpt lat="37.3570013559805" lon="14.320896321037933"><ele>527.0</ele><time>2026-03-25T11:00:36Z</time></trkpt><trkpt lat="37.356885283402164" lon="14.321071663009905"><ele>527.0</ele><time>2026-03-25T11:00:37Z</time></trkpt><trkpt lat="37.35676805528801" lon="14.321249196529033"><ele>527.0</ele><time>2026-03-25T11:00:38Z</time></trkpt><trkpt lat="37.356650044476474" lon="14.321424129867898"><ele>527.0</ele><time>2026-03-25T11:00:39Z</time></trkpt><trkpt lat="37.35653140843674" lon="14.32158703061261"><ele>527.0</ele><time>2026-03-25T11:00:40Z</time></trkpt><trkpt lat="37.35641400524297" lon="14.321738925364778"><ele>527.0</ele><time>2026-03-25T11:00:41Z</time></trkpt><trkpt lat="37.3562954306014" lon="14.321884735114576"><ele>527.0</ele><time>2026-03-25T11:00:42Z</time></trkpt><trkpt lat="37.35617947736419" lon="14.32202683877655"><ele>527.0</ele><time>2026-03-25T11:00:43Z</time></trkpt><trkpt lat="37.356063660137444" lon="14.322170865876283"><ele>527.0</ele><time>2026-03-25T11:00:44Z</time></trkpt><trkpt lat="37.35595338630646" lon="14.322316458589793"><ele>527.0</ele><time>2026-03-25T11:00:45Z</time></trkpt><trkpt lat="37.35585650558207" lon="14.322475561073869"><ele>527.6666666666666</ele><time>2026-03-25T11:00:46Z</time></trkpt><trkpt lat="37.355780966183865" lon="14.322657959213934"><ele>528.3333333333334</ele><time>2026-03-25T11:00:47Z</time></trkpt><trkpt lat="37.3557206621086" lon="14.322854002890306"><ele>529.0</ele><time>2026-03-25T11:00:48Z</time></trkpt><trkpt lat="37.35566244386004" lon="14.32305350648267"><ele>527.0</ele><time>2026-03-25T11:00:48.998Z</time></trkpt><trkpt lat="37.355600801471184" lon="14.323254379625567"><ele>525.0</ele><time>2026-03-25T11:00:49.998Z</time></trkpt><trkpt lat="37.35553781541957" lon="14.323455483088445"><ele>523.0</ele><time>2026-03-25T11:00:50.998Z</time></trkpt><trkpt lat="37.35547570755948" lon="14.323656806725749"><ele>523.0</ele><time>2026-03-25T11:00:51.998Z</time></trkpt><trkpt lat="37.35541458643918" lon="14.323857395236585"><ele>523.0</ele><time>2026-03-25T11:00:52.998Z</time></trkpt><trkpt lat="37.35536006625644" lon="14.324060814237896"><ele>523.0</ele><time>2026-03-25T11:00:53.998Z</time></trkpt><trkpt lat="37.3553164137551" lon="14.324269576426623"><ele>524.3333333333334</ele><time>2026-03-25T11:00:54.998Z</time></trkpt><trkpt lat="37.35528012905627" lon="14.324479793833234"><ele>525.6666666666666</ele><time>2026-03-25T11:00:55.998Z</time></trkpt><trkpt lat="37.3552377363356" lon="14.324685212893943"><ele>527.0</ele><time>2026-03-25T11:00:56.998Z</time></trkpt><trkpt lat="37.355199333370315" lon="14.324883811857292"><ele>528.0</ele><time>2026-03-25T11:00:57.998Z</time></trkpt><trkpt lat="37.35516461220048" lon="14.32508065369896"><ele>529.0</ele><time>2026-03-25T11:00:58.998Z</time></trkpt><trkpt lat="37.355136113181956" lon="14.325277142945579"><ele>530.0</ele><time>2026-03-25T11:00:59.998Z</time></trkpt><trkpt lat="37.35511995942699" lon="14.325476462615391"><ele>530.0</ele><time>2026-03-25T11:01:00.998Z</time></trkpt><trkpt lat="37.35511755625565" lon="14.32567532939032"><ele>530.0</ele><time>2026-03-25T11:01:01.998Z</time></trkpt><trkpt lat="37.355127415946626" lon="14.325869700593566"><ele>530.0</ele><time>2026-03-25T11:01:02.998Z</time></trkpt><trkpt lat="37.355143193775426" lon="14.32605929369383"><ele>530.0</ele><time>2026-03-25T11:01:03.998Z</time></trkpt><trkpt lat="37.35515330609652" lon="14.326242709915974"><ele>530.0</ele><time>2026-03-25T11:01:04.998Z</time></trkpt><trkpt lat="37.35514731209291" lon="14.326430354313354"><ele>530.0</ele><time>2026-03-25T11:01:05.998Z</time></trkpt><trkpt lat="37.35512631333758" lon="14.326628692816984"><ele>531.3333333333333</ele><time>2026-03-25T11:01:06.998Z</time></trkpt><trkpt lat="37.35509816162822" lon="14.326834962877072"><ele>532.6666666666666</ele><time>2026-03-25T11:01:07.998Z</time></trkpt><trkpt lat="37.35506733441233" lon="14.32704986234751"><ele>534.0</ele><time>2026-03-25T11:01:08.998Z</time></trkpt><trkpt lat="37.355035057720606" lon="14.32726681994644"><ele>534.6666666666666</ele><time>2026-03-25T11:01:09.999Z</time></trkpt><trkpt lat="37.355000246958404" lon="14.327483422383443"><ele>535.3333333333333</ele><time>2026-03-25T11:01:10.999Z</time></trkpt><trkpt lat="37.354954275376194" lon="14.327699727912648"><ele>536.0</ele><time>2026-03-25T11:01:11.999Z</time></trkpt><trkpt lat="37.354893877637245" lon="14.327906649547042"><ele>537.6666666666666</ele><time>2026-03-25T11:01:12.999Z</time></trkpt><trkpt lat="37.354829742388546" lon="14.328103444616707"><ele>539.3333333333334</ele><time>2026-03-25T11:01:13.999Z</time></trkpt><trkpt lat="37.35478505857813" lon="14.328287012424516"><ele>541.0</ele><time>2026-03-25T11:01:14.999Z</time></trkpt><trkpt lat="37.35475979555985" lon="14.32848016926122"><ele>541.0</ele><time>2026-03-25T11:01:15.999Z</time></trkpt><trkpt lat="37.35474847286279" lon="14.328659834718716"><ele>541.0</ele><time>2026-03-25T11:01:16.999Z</time></trkpt><trkpt lat="37.35474347874428" lon="14.328827646833139"><ele>541.0</ele><time>2026-03-25T11:01:17.999Z</time></trkpt><trkpt lat="37.35475165586333" lon="14.328986919848582"><ele>541.0</ele><time>2026-03-25T11:01:18.999Z</time></trkpt><trkpt lat="37.35478672660288" lon="14.329133455359218"><ele>541.5</ele><time>2026-03-25T11:01:19.999Z</time></trkpt><trkpt lat="37.35485013207143" lon="14.329266290102852"><ele>542.0</ele><time>2026-03-25T11:01:20.999Z</time></trkpt><trkpt lat="37.354945780302366" lon="14.329368984485418"><ele>542.5</ele><time>2026-03-25T11:01:21.999Z</time></trkpt><trkpt lat="37.35506133184426" lon="14.329434464064178"><ele>543.0</ele><time>2026-03-25T11:01:22.999Z</time></trkpt><trkpt lat="37.35518965760517" lon="14.329460196828482"><ele>543.0</ele><time>2026-03-25T11:01:23.999Z</time></trkpt><trkpt lat="37.35532811862438" lon="14.329464543100714"><ele>543.0</ele><time>2026-03-25T11:01:24.999Z</time></trkpt><trkpt lat="37.355472911728356" lon="14.329459723596969"><ele>543.0</ele><time>2026-03-25T11:01:25.999Z</time></trkpt><trkpt lat="37.355618012014034" lon="14.329438870835897"><ele>543.0</ele><time>2026-03-25T11:01:26.999Z</time></trkpt><trkpt lat="37.35574997943221" lon="14.329403784251879"><ele>544.75</ele><time>2026-03-25T11:01:27.999Z</time></trkpt><trkpt lat="37.35586421612769" lon="14.329364454404486"><ele>546.5</ele><time>2026-03-25T11:01:28.999Z</time></trkpt><trkpt lat="37.35597484206635" lon="14.329328373089488"><ele>548.25</ele><time>2026-03-25T11:01:29.999Z</time></trkpt><trkpt lat="37.35609275878715" lon="14.329297293044847"><ele>550.0</ele><time>2026-03-25T11:01:30.999Z</time></trkpt><trkpt lat="37.35621909679617" lon="14.329258941461434"><ele>550.0</ele><time>2026-03-25T11:01:31.999Z</time></trkpt><trkpt lat="37.35634478671097" lon="14.329208633592899"><ele>550.0</ele><time>2026-03-25T11:01:32.999Z</time></trkpt><trkpt lat="37.35646400961919" lon="14.329142696546956"><ele>550.0</ele><time>2026-03-25T11:01:33.999Z</time></trkpt><trkpt lat="37.35657874279165" lon="14.32906616131202"><ele>550.0</ele><time>2026-03-25T11:01:34.999Z</time></trkpt><trkpt lat="37.35669641111969" lon="14.328997255030583"><ele>550.25</ele><time>2026-03-25T11:01:35.999Z</time></trkpt><trkpt lat="37.35681275776745" lon="14.328930959499894"><ele>550.5</ele><time>2026-03-25T11:01:36.999Z</time></trkpt><trkpt lat="37.35692433904952" lon="14.328859583917746"><ele>550.75</ele><time>2026-03-25T11:01:37.999Z</time></trkpt><trkpt lat="37.3570370815903" lon="14.328786570769994"><ele>551.0</ele><time>2026-03-25T11:01:38.999Z</time></trkpt><trkpt lat="37.35715594533418" lon="14.328717760744752"><ele>553.5</ele><time>2026-03-25T11:01:39.999Z</time></trkpt><trkpt lat="37.35728056657539" lon="14.328658579112895"><ele>556.0</ele><time>2026-03-25T11:01:40.999Z</time></trkpt><trkpt lat="37.35741071347794" lon="14.32861232779204"><ele>558.5</ele><time>2026-03-25T11:01:41.999Z</time></trkpt><trkpt lat="37.357544847709185" lon="14.328574018183781"><ele>561.0</ele><time>2026-03-25T11:01:42.999Z</time></trkpt><trkpt lat="37.3576793640922" lon="14.328538062294074"><ele>561.0</ele><time>2026-03-25T11:01:43.999Z</time></trkpt><trkpt lat="37.35781331580729" lon="14.328505278520923"><ele>561.0</ele><time>2026-03-25T11:01:44.999Z</time></trkpt><trkpt lat="37.357942599930404" lon="14.328474208690189"><ele>561.0</ele><time>2026-03-25T11:01:45.999Z</time></trkpt><trkpt lat="37.35806713206681" lon="14.328432379430682"><ele>561.0</ele><time>2026-03-25T11:01:46.999Z</time></trkpt><trkpt lat="37.358181977265204" lon="14.32836224027862"><ele>560.25</ele><time>2026-03-25T11:01:47.999Z</time></trkpt><trkpt lat="37.35828539430828" lon="14.328259996980718"><ele>559.5</ele><time>2026-03-25T11:01:48.999Z</time></trkpt><trkpt lat="37.35837152306367" lon="14.328128105876665"><ele>558.75</ele><time>2026-03-25T11:01:49.999Z</time></trkpt><trkpt lat="37.35844302111887" lon="14.32798860761526"><ele>558.0</ele><time>2026-03-25T11:01:50.999Z</time></trkpt><trkpt lat="37.358511819409465" lon="14.327854956272812"><ele>560.1999999999999</ele><time>2026-03-25T11:01:51.999Z</time></trkpt><trkpt lat="37.35857927905984" lon="14.327733728440071"><ele>562.4</ele><time>2026-03-25T11:01:52.999Z</time></trkpt><trkpt lat="37.35864666080685" lon="14.327634614890245"><ele>564.5999999999999</ele><time>2026-03-25T11:01:53.999Z</time></trkpt><trkpt lat="37.35872592661456" lon="14.327565216568239"><ele>566.8</ele><time>2026-03-25T11:01:55Z</time></trkpt><trkpt lat="37.35882243522475" lon="14.32751939865478"><ele>569.0</ele><time>2026-03-25T11:01:56Z</time></trkpt><trkpt lat="37.35892702475828" lon="14.327500320083134"><ele>569.0</ele><time>2026-03-25T11:01:57Z</time></trkpt><trkpt lat="37.35903363027539" lon="14.327504922365303"><ele>569.0</ele><time>2026-03-25T11:01:58Z</time></trkpt><trkpt lat="37.359141165175096" lon="14.327519212646678"><ele>569.0</ele><time>2026-03-25T11:01:59Z</time></trkpt><trkpt lat="37.359249216759686" lon="14.327533358339682"><ele>569.0</ele><time>2026-03-25T11:02:00Z</time></trkpt><trkpt lat="37.359355812699505" lon="14.327562236604901"><ele>569.0</ele><time>2026-03-25T11:02:01Z</time></trkpt><trkpt lat="37.3594565641908" lon="14.327617753476458"><ele>569.0</ele><time>2026-03-25T11:02:02Z</time></trkpt><trkpt lat="37.359540775715146" lon="14.327696245340874"><ele>569.0</ele><time>2026-03-25T11:02:03Z</time></trkpt><trkpt lat="37.35962683261735" lon="14.327777881632029"><ele>569.0</ele><time>2026-03-25T11:02:04Z</time></trkpt><trkpt lat="37.359715467630245" lon="14.327835356777484"><ele>569.0</ele><time>2026-03-25T11:02:05Z</time></trkpt><trkpt lat="37.35980934096164" lon="14.327866982859089"><ele>569.0</ele><time>2026-03-25T11:02:06Z</time></trkpt><trkpt lat="37.35990658294771" lon="14.32786272003347"><ele>569.75</ele><time>2026-03-25T11:02:07Z</time></trkpt><trkpt lat="37.359999817494675" lon="14.32782215043878"><ele>570.5</ele><time>2026-03-25T11:02:08Z</time></trkpt><trkpt lat="37.36009556669341" lon="14.327764385707164"><ele>571.25</ele><time>2026-03-25T11:02:09Z</time></trkpt><trkpt lat="37.36022284065569" lon="14.327671128397528"><ele>572.0</ele><time>2026-03-25T11:02:10Z</time></trkpt><trkpt lat="37.360355811814394" lon="14.327601207308225"><ele>572.0</ele><time>2026-03-25T11:02:11Z</time></trkpt><trkpt lat="37.36050253594155" lon="14.327578481006832"><ele>572.0</ele><time>2026-03-25T11:02:12Z</time></trkpt><trkpt lat="37.360653598750424" lon="14.327592981547737"><ele>572.0</ele><time>2026-03-25T11:02:13Z</time></trkpt><trkpt lat="37.36079711481716" lon="14.3276221012121"><ele>572.0</ele><time>2026-03-25T11:02:14Z</time></trkpt><trkpt lat="37.3609293465586" lon="14.327616440758202"><ele>571.25</ele><time>2026-03-25T11:02:15Z</time></trkpt><trkpt lat="37.361058660471954" lon="14.327565452505004"><ele>570.5</ele><time>2026-03-25T11:02:16Z</time></trkpt><trkpt lat="37.361178920348365" lon="14.327484161839593"><ele>569.75</ele><time>2026-03-25T11:02:17Z</time></trkpt><trkpt lat="37.361280058342416" lon="14.327386104015414"><ele>569.0</ele><time>2026-03-25T11:02:18Z</time></trkpt><trkpt lat="37.36136359300349" lon="14.327290141625948"><ele>571.2</ele><time>2026-03-25T11:02:19Z</time></trkpt><trkpt lat="37.36144171807796" lon="14.327192771152053"><ele>573.4</ele><time>2026-03-25T11:02:20Z</time></trkpt><trkpt lat="37.361527259742566" lon="14.327108813694762"><ele>575.6</ele><time>2026-03-25T11:02:21Z</time></trkpt><trkpt lat="37.36162290136066" lon="14.32705290011245"><ele>577.8</ele><time>2026-03-25T11:02:22Z</time></trkpt><trkpt lat="37.3617164661847" lon="14.327040294041428"><ele>580.0</ele><time>2026-03-25T11:02:23Z</time></trkpt><trkpt lat="37.36180969683721" lon="14.327062881634998"><ele>580.0</ele><time>2026-03-25T11:02:24Z</time></trkpt><trkpt lat="37.36190157967404" lon="14.327120965988286"><ele>580.0</ele><time>2026-03-25T11:02:25Z</time></trkpt><trkpt lat="37.361984725826986" lon="14.327212751849247"><ele>580.0</ele><time>2026-03-25T11:02:26Z</time></trkpt><trkpt lat="37.362061684743274" lon="14.327321957530122"><ele>580.0</ele><time>2026-03-25T11:02:27Z</time></trkpt><trkpt lat="37.36214222515614" lon="14.327429361677837"><ele>580.0</ele><time>2026-03-25T11:02:28Z</time></trkpt><trkpt lat="37.362218931181395" lon="14.327530481864619"><ele>578.2</ele><time>2026-03-25T11:02:29Z</time></trkpt><trkpt lat="37.36229129683566" lon="14.327626472231554"><ele>576.4</ele><time>2026-03-25T11:02:30Z</time></trkpt><trkpt lat="37.36236807719472" lon="14.32771313369967"><ele>574.6</ele><time>2026-03-25T11:02:31Z</time></trkpt><trkpt lat="37.362467553682585" lon="14.327784922382408"><ele>572.8</ele><time>2026-03-25T11:02:32Z</time></trkpt><trkpt lat="37.3625818189117" lon="14.327831538654209"><ele>571.0</ele><time>2026-03-25T11:02:33Z</time></trkpt><trkpt lat="37.36270251535343" lon="14.327856198070087"><ele>571.0</ele><time>2026-03-25T11:02:34Z</time></trkpt><trkpt lat="37.36282102333462" lon="14.327869003425583"><ele>571.0</ele><time>2026-03-25T11:02:35Z</time></trkpt><trkpt lat="37.36293481113654" lon="14.327885980398676"><ele>571.0</ele><time>2026-03-25T11:02:36Z</time></trkpt><trkpt lat="37.36304638902201" lon="14.327905060612933"><ele>571.0</ele><time>2026-03-25T11:02:37Z</time></trkpt><trkpt lat="37.36315718945862" lon="14.327928455486587"><ele>571.75</ele><time>2026-03-25T11:02:38Z</time></trkpt><trkpt lat="37.36326621224732" lon="14.327964013185175"><ele>572.5</ele><time>2026-03-25T11:02:39Z</time></trkpt><trkpt lat="37.363374101809875" lon="14.328003877772696"><ele>573.25</ele><time>2026-03-25T11:02:40Z</time></trkpt><trkpt lat="37.363484755973026" lon="14.3280342089009"><ele>574.0</ele><time>2026-03-25T11:02:41Z</time></trkpt><trkpt lat="37.36360028203856" lon="14.328043077726875"><ele>574.0</ele><time>2026-03-25T11:02:42Z</time></trkpt><trkpt lat="37.36371537590953" lon="14.32803760710385"><ele>574.0</ele><time>2026-03-25T11:02:43Z</time></trkpt><trkpt lat="37.36382868635953" lon="14.32802088355783"><ele>574.0</ele><time>2026-03-25T11:02:44Z</time></trkpt><trkpt lat="37.36394057805838" lon="14.327998566992422"><ele>574.0</ele><time>2026-03-25T11:02:45Z</time></trkpt><trkpt lat="37.36405403580733" lon="14.327987721669645"><ele>573.75</ele><time>2026-03-25T11:02:46Z</time></trkpt><trkpt lat="37.36417378435407" lon="14.32800111738172"><ele>573.5</ele><time>2026-03-25T11:02:47Z</time></trkpt><trkpt lat="37.36430325629492" lon="14.328023633076006"><ele>573.25</ele><time>2026-03-25T11:02:48Z</time></trkpt><trkpt lat="37.36442533720223" lon="14.328046306906147"><ele>573.0</ele><time>2026-03-25T11:02:49Z</time></trkpt><trkpt lat="37.36454300451606" lon="14.328072597298096"><ele>572.25</ele><time>2026-03-25T11:02:50Z</time></trkpt><trkpt lat="37.36466128339987" lon="14.32809959204157"><ele>571.5</ele><time>2026-03-25T11:02:51Z</time></trkpt><trkpt lat="37.364777678441456" lon="14.328125784323435"><ele>570.75</ele><time>2026-03-25T11:02:52Z</time></trkpt><trkpt lat="37.36488914103852" lon="14.328151646273152"><ele>570.0</ele><time>2026-03-25T11:02:53Z</time></trkpt><trkpt lat="37.36500168549622" lon="14.328176661075238"><ele>570.0</ele><time>2026-03-25T11:02:54Z</time></trkpt><trkpt lat="37.36511363789503" lon="14.328201282670536"><ele>570.0</ele><time>2026-03-25T11:02:54.998Z</time></trkpt><trkpt lat="37.365227946221005" lon="14.328223331870607"><ele>570.0</ele><time>2026-03-25T11:02:55.998Z</time></trkpt><trkpt lat="37.365345733040044" lon="14.32824790533338"><ele>570.0</ele><time>2026-03-25T11:02:56.998Z</time></trkpt><trkpt lat="37.36545836650768" lon="14.328276184141885"><ele>570.8</ele><time>2026-03-25T11:02:57.998Z</time></trkpt><trkpt lat="37.36555973811294" lon="14.328312201136594"><ele>571.6</ele><time>2026-03-25T11:02:58.998Z</time></trkpt><trkpt lat="37.36565156609134" lon="14.328367762842344"><ele>572.4</ele><time>2026-03-25T11:02:59.998Z</time></trkpt><trkpt lat="37.36573167577787" lon="14.328451235115779"><ele>573.2</ele><time>2026-03-25T11:03:00.998Z</time></trkpt><trkpt lat="37.36579078953628" lon="14.328565603663098"><ele>574.0</ele><time>2026-03-25T11:03:01.998Z</time></trkpt><trkpt lat="37.36582476637606" lon="14.328698523822176"><ele>574.0</ele><time>2026-03-25T11:03:02.998Z</time></trkpt><trkpt lat="37.365846708953704" lon="14.328832651946437"><ele>574.0</ele><time>2026-03-25T11:03:03.998Z</time></trkpt><trkpt lat="37.365873079747224" lon="14.328965802497027"><ele>574.0</ele><time>2026-03-25T11:03:04.998Z</time></trkpt><trkpt lat="37.36589832760897" lon="14.329102974485265"><ele>574.0</ele><time>2026-03-25T11:03:05.998Z</time></trkpt><trkpt lat="37.365919667234834" lon="14.329239209473677"><ele>574.0</ele><time>2026-03-25T11:03:06.998Z</time></trkpt><trkpt lat="37.36594517524039" lon="14.329371111297474"><ele>573.6</ele><time>2026-03-25T11:03:07.998Z</time></trkpt><trkpt lat="37.36598485370366" lon="14.329498414414347"><ele>573.2</ele><time>2026-03-25T11:03:08.999Z</time></trkpt><trkpt lat="37.3660449121143" lon="14.32961077709009"><ele>572.8000000000001</ele><time>2026-03-25T11:03:09.999Z</time></trkpt><trkpt lat="37.36612265977422" lon="14.329696471276094"><ele>572.4</ele><time>2026-03-25T11:03:10.999Z</time></trkpt><trkpt lat="37.36621340594038" lon="14.329761610297986"><ele>572.0</ele><time>2026-03-25T11:03:11.999Z</time></trkpt><trkpt lat="37.36631527011004" lon="14.32980946433325"><ele>573.75</ele><time>2026-03-25T11:03:12.999Z</time></trkpt><trkpt lat="37.36642555610016" lon="14.329849290115645"><ele>575.5</ele><time>2026-03-25T11:03:13.999Z</time></trkpt><trkpt lat="37.36653550656773" lon="14.329893488329049"><ele>577.25</ele><time>2026-03-25T11:03:14.999Z</time></trkpt><trkpt lat="37.36664861156977" lon="14.329939650718218"><ele>579.0</ele><time>2026-03-25T11:03:15.999Z</time></trkpt><trkpt lat="37.36676315885338" lon="14.329985295123796"><ele>579.0</ele><time>2026-03-25T11:03:16.999Z</time></trkpt><trkpt lat="37.36687947919078" lon="14.330034054535881"><ele>579.0</ele><time>2026-03-25T11:03:17.999Z</time></trkpt><trkpt lat="37.366994450945484" lon="14.330087406930982"><ele>579.0</ele><time>2026-03-25T11:03:18.999Z</time></trkpt><trkpt lat="37.36710669747502" lon="14.33014875098145"><ele>579.0</ele><time>2026-03-25T11:03:19.999Z</time></trkpt><trkpt lat="37.36721581285146" lon="14.330215357711161"><ele>581.5</ele><time>2026-03-25T11:03:20.999Z</time></trkpt><trkpt lat="37.367325773564716" lon="14.330282845743014"><ele>584.0</ele><time>2026-03-25T11:03:21.999Z</time></trkpt><trkpt lat="37.36743616124579" lon="14.330346666201565"><ele>586.5</ele><time>2026-03-25T11:03:22.999Z</time></trkpt><trkpt lat="37.367548159140654" lon="14.330413229418692"><ele>589.0</ele><time>2026-03-25T11:03:23.999Z</time></trkpt><trkpt lat="37.36765661587826" lon="14.330483452545481"><ele>587.25</ele><time>2026-03-25T11:03:24.999Z</time></trkpt><trkpt lat="37.3677634899196" lon="14.330560430050909"><ele>585.5</ele><time>2026-03-25T11:03:25.999Z</time></trkpt><trkpt lat="37.367876168628555" lon="14.330658278361092"><ele>583.75</ele><time>2026-03-25T11:03:26.999Z</time></trkpt><trkpt lat="37.36797172066833" lon="14.330761322789058"><ele>582.0</ele><time>2026-03-25T11:03:27.999Z</time></trkpt><trkpt lat="37.368055069566395" lon="14.330858884820081"><ele>582.0</ele><time>2026-03-25T11:03:28.999Z</time></trkpt><trkpt lat="37.36813282059778" lon="14.330956516396776"><ele>582.0</ele><time>2026-03-25T11:03:29.999Z</time></trkpt><trkpt lat="37.36820343689747" lon="14.331049283843065"><ele>582.0</ele><time>2026-03-25T11:03:30.999Z</time></trkpt><trkpt lat="37.36827335070245" lon="14.331132426788512"><ele>582.0</ele><time>2026-03-25T11:03:31.999Z</time></trkpt><trkpt lat="37.368349695483666" lon="14.331203512932726"><ele>582.0</ele><time>2026-03-25T11:03:32.999Z</time></trkpt><trkpt lat="37.368441071028705" lon="14.3312554323648"><ele>582.0</ele><time>2026-03-25T11:03:33.999Z</time></trkpt><trkpt lat="37.36855791967577" lon="14.331271585999744"><ele>582.0</ele><time>2026-03-25T11:03:34.999Z</time></trkpt><trkpt lat="37.368687083809235" lon="14.331254978642365"><ele>582.0</ele><time>2026-03-25T11:03:35.999Z</time></trkpt><trkpt lat="37.36881320944606" lon="14.331219718706418"><ele>582.0</ele><time>2026-03-25T11:03:36.999Z</time></trkpt><trkpt lat="37.36893447182118" lon="14.331197559719744"><ele>584.25</ele><time>2026-03-25T11:03:37.999Z</time></trkpt><trkpt lat="37.36907382060034" lon="14.331199866244955"><ele>586.5</ele><time>2026-03-25T11:03:38.999Z</time></trkpt><trkpt lat="37.369212372054186" lon="14.331217991757105"><ele>588.75</ele><time>2026-03-25T11:03:40Z</time></trkpt><trkpt lat="37.36933695708974" lon="14.331237236420952"><ele>591.0</ele><time>2026-03-25T11:03:41Z</time></trkpt><trkpt lat="37.36945233529242" lon="14.331257594970033"><ele>591.0</ele><time>2026-03-25T11:03:42Z</time></trkpt><trkpt lat="37.36956542363845" lon="14.331261290176588"><ele>591.0</ele><time>2026-03-25T11:03:43Z</time></trkpt><trkpt lat="37.36967286677536" lon="14.33124015579883"><ele>591.0</ele><time>2026-03-25T11:03:44Z</time></trkpt><trkpt lat="37.36977560140434" lon="14.33119309590289"><ele>591.0</ele><time>2026-03-25T11:03:45Z</time></trkpt><trkpt lat="37.369871907354046" lon="14.331117588436665"><ele>591.0</ele><time>2026-03-25T11:03:46Z</time></trkpt><trkpt lat="37.369962168788774" lon="14.331048921826158"><ele>590.0</ele><time>2026-03-25T11:03:47Z</time></trkpt><trkpt lat="37.37005492428584" lon="14.331004847903706"><ele>589.0</ele><time>2026-03-25T11:03:48Z</time></trkpt><trkpt lat="37.370162349877326" lon="14.330985455680436"><ele>588.0</ele><time>2026-03-25T11:03:49Z</time></trkpt><trkpt lat="37.3702767152972" lon="14.33099632255897"><ele>587.0</ele><time>2026-03-25T11:03:50Z</time></trkpt><trkpt lat="37.37038834686468" lon="14.33102622412635"><ele>586.0</ele><time>2026-03-25T11:03:51Z</time></trkpt><trkpt lat="37.37049960397624" lon="14.331057322324272"><ele>586.5</ele><time>2026-03-25T11:03:52Z</time></trkpt><trkpt lat="37.370617166123694" lon="14.331076138292964"><ele>587.0</ele><time>2026-03-25T11:03:53Z</time></trkpt><trkpt lat="37.370737506384884" lon="14.331094935921502"><ele>587.5</ele><time>2026-03-25T11:03:54Z</time></trkpt><trkpt lat="37.3708575951451" lon="14.331112780579433"><ele>588.0</ele><time>2026-03-25T11:03:55Z</time></trkpt><trkpt lat="37.370974608649796" lon="14.331117661210556"><ele>588.0</ele><time>2026-03-25T11:03:56Z</time></trkpt><trkpt lat="37.37109145347299" lon="14.331109934876409"><ele>588.0</ele><time>2026-03-25T11:03:57Z</time></trkpt><trkpt lat="37.37122064537521" lon="14.331099904709886"><ele>588.0</ele><time>2026-03-25T11:03:58Z</time></trkpt><trkpt lat="37.37135893522682" lon="14.33109325150411"><ele>588.0</ele><time>2026-03-25T11:03:59Z</time></trkpt><trkpt lat="37.37148975300646" lon="14.331085101331611"><ele>586.5</ele><time>2026-03-25T11:04:00Z</time></trkpt><trkpt lat="37.37160750581418" lon="14.331065010904627"><ele>585.0</ele><time>2026-03-25T11:04:01Z</time></trkpt><trkpt lat="37.371726006085204" lon="14.331035900587926"><ele>583.5</ele><time>2026-03-25T11:04:02Z</time></trkpt><trkpt lat="37.37185304709623" lon="14.331002055248854"><ele>582.0</ele><time>2026-03-25T11:04:03Z</time></trkpt><trkpt lat="37.37198166045633" lon="14.33096497721586"><ele>582.0</ele><time>2026-03-25T11:04:04Z</time></trkpt><trkpt lat="37.37209997326853" lon="14.33093787025143"><ele>582.0</ele><time>2026-03-25T11:04:05Z</time></trkpt><trkpt lat="37.37221632055782" lon="14.330910505627319"><ele>582.0</ele><time>2026-03-25T11:04:06Z</time></trkpt><trkpt lat="37.372340964873246" lon="14.330873790916229"><ele>582.0</ele><time>2026-03-25T11:04:07Z</time></trkpt><trkpt lat="37.3724768759839" lon="14.330805541868784"><ele>579.0</ele><time>2026-03-25T11:04:08Z</time></trkpt><trkpt lat="37.37263440359645" lon="14.330693092356226"><ele>576.0</ele><time>2026-03-25T11:04:09Z</time></trkpt><trkpt lat="37.372812893684724" lon="14.330578170002697"><ele>573.0</ele><time>2026-03-25T11:04:10Z</time></trkpt><trkpt lat="37.372994266646714" lon="14.330480558058754"><ele>576.6666666666666</ele><time>2026-03-25T11:04:11Z</time></trkpt><trkpt lat="37.37315274241645" lon="14.330398361314659"><ele>580.3333333333333</ele><time>2026-03-25T11:04:12Z</time></trkpt><trkpt lat="37.37329422123245" lon="14.33030407344713"><ele>584.0</ele><time>2026-03-25T11:04:13Z</time></trkpt><trkpt lat="37.37341538338685" lon="14.330199271293207"><ele>584.0</ele><time>2026-03-25T11:04:14Z</time></trkpt><trkpt lat="37.37352909969687" lon="14.330107704024053"><ele>584.0</ele><time>2026-03-25T11:04:15Z</time></trkpt><trkpt lat="37.373647093911245" lon="14.330062112756467"><ele>584.0</ele><time>2026-03-25T11:04:16Z</time></trkpt><trkpt lat="37.373766970995824" lon="14.330063534608973"><ele>584.0</ele><time>2026-03-25T11:04:17Z</time></trkpt><trkpt lat="37.3738705123536" lon="14.330133460702408"><ele>584.0</ele><time>2026-03-25T11:04:18Z</time></trkpt><trkpt lat="37.37396247378942" lon="14.33024911588461"><ele>584.0</ele><time>2026-03-25T11:04:19Z</time></trkpt><trkpt lat="37.374070371034556" lon="14.330374230283468"><ele>584.0</ele><time>2026-03-25T11:04:20Z</time></trkpt><trkpt lat="37.37419787860129" lon="14.330483446503703"><ele>584.0</ele><time>2026-03-25T11:04:21Z</time></trkpt><trkpt lat="37.374330299581786" lon="14.330572328722784"><ele>583.5</ele><time>2026-03-25T11:04:22Z</time></trkpt><trkpt lat="37.37445694057079" lon="14.330658195712607"><ele>583.0</ele><time>2026-03-25T11:04:23Z</time></trkpt><trkpt lat="37.37457614833381" lon="14.330748405163925"><ele>582.5</ele><time>2026-03-25T11:04:24Z</time></trkpt><trkpt lat="37.374687490323225" lon="14.330841946794324"><ele>582.0</ele><time>2026-03-25T11:04:25Z</time></trkpt><trkpt lat="37.37479751929597" lon="14.330933052325133"><ele>582.0</ele><time>2026-03-25T11:04:26Z</time></trkpt><trkpt lat="37.37490637559727" lon="14.33102045474887"><ele>582.0</ele><time>2026-03-25T11:04:27Z</time></trkpt><trkpt lat="37.37501278762729" lon="14.331108379420185"><ele>582.0</ele><time>2026-03-25T11:04:28Z</time></trkpt><trkpt lat="37.375121462723214" lon="14.331188414747121"><ele>582.0</ele><time>2026-03-25T11:04:29Z</time></trkpt><trkpt lat="37.37523714015042" lon="14.331255323704747"><ele>582.0</ele><time>2026-03-25T11:04:30Z</time></trkpt><trkpt lat="37.375361779702374" lon="14.331295890209683"><ele>582.0</ele><time>2026-03-25T11:04:31Z</time></trkpt><trkpt lat="37.375493239249906" lon="14.331300495386117"><ele>582.0</ele><time>2026-03-25T11:04:32Z</time></trkpt><trkpt lat="37.37561904604076" lon="14.331269191677118"><ele>582.0</ele><time>2026-03-25T11:04:33Z</time></trkpt><trkpt lat="37.3757286286268" lon="14.331197292374352"><ele>582.0</ele><time>2026-03-25T11:04:34Z</time></trkpt><trkpt lat="37.37583221736434" lon="14.331096954516015"><ele>582.0</ele><time>2026-03-25T11:04:35Z</time></trkpt><trkpt lat="37.37593720196259" lon="14.330994945943903"><ele>582.0</ele><time>2026-03-25T11:04:36.001Z</time></trkpt><trkpt lat="37.37604725018471" lon="14.330911080337756"><ele>582.0</ele><time>2026-03-25T11:04:37.001Z</time></trkpt><trkpt lat="37.376164758335186" lon="14.330838510173596"><ele>582.0</ele><time>2026-03-25T11:04:38.001Z</time></trkpt><trkpt lat="37.376285465157466" lon="14.330767442512641"><ele>582.0</ele><time>2026-03-25T11:04:39.001Z</time></trkpt><trkpt lat="37.37640564369923" lon="14.330699466154872"><ele>582.0</ele><time>2026-03-25T11:04:40.001Z</time></trkpt><trkpt lat="37.37652744245876" lon="14.330636728441082"><ele>582.0</ele><time>2026-03-25T11:04:41.001Z</time></trkpt><trkpt lat="37.37665034929607" lon="14.330564358174088"><ele>582.8000000000001</ele><time>2026-03-25T11:04:42.001Z</time></trkpt><trkpt lat="37.37675982395397" lon="14.330499056845463"><ele>583.6</ele><time>2026-03-25T11:04:43.001Z</time></trkpt><trkpt lat="37.376863560530936" lon="14.330454502527408"><ele>584.4000000000001</ele><time>2026-03-25T11:04:44.001Z</time></trkpt><trkpt lat="37.37696454671357" lon="14.330448048095136"><ele>585.2</ele><time>2026-03-25T11:04:45.001Z</time></trkpt><trkpt lat="37.37705714317148" lon="14.330491753219642"><ele>586.0</ele><time>2026-03-25T11:04:46.001Z</time></trkpt><trkpt lat="37.37712259912567" lon="14.330576839007492"><ele>583.4</ele><time>2026-03-25T11:04:47.001Z</time></trkpt><trkpt lat="37.377139511703824" lon="14.330683684673595"><ele>580.8</ele><time>2026-03-25T11:04:48.001Z</time></trkpt><trkpt lat="37.377137266900576" lon="14.330787751949066"><ele>578.1999999999999</ele><time>2026-03-25T11:04:49.001Z</time></trkpt><trkpt lat="37.377127695143336" lon="14.330925585529318"><ele>575.6</ele><time>2026-03-25T11:04:50.001Z</time></trkpt><trkpt lat="37.37712754842685" lon="14.331076358802278"><ele>573.0</ele><time>2026-03-25T11:04:51.001Z</time></trkpt><trkpt lat="37.37716430795479" lon="14.331222826705682"><ele>573.8</ele><time>2026-03-25T11:04:52.001Z</time></trkpt><trkpt lat="37.37723031630806" lon="14.331357232130996"><ele>574.5999999999999</ele><time>2026-03-25T11:04:53.001Z</time></trkpt><trkpt lat="37.377300370477165" lon="14.331468544035557"><ele>575.4000000000001</ele><time>2026-03-25T11:04:54.001Z</time></trkpt><trkpt lat="37.37735913174478" lon="14.331569749920526"><ele>576.2</ele><time>2026-03-25T11:04:55.001Z</time></trkpt><trkpt lat="37.37737957480371" lon="14.331679091448896"><ele>577.0</ele><time>2026-03-25T11:04:56.001Z</time></trkpt><trkpt lat="37.377355253732276" lon="14.33178583576505"><ele>577.0</ele><time>2026-03-25T11:04:57.001Z</time></trkpt><trkpt lat="37.377298585514794" lon="14.331879026279205"><ele>577.0</ele><time>2026-03-25T11:04:58.001Z</time></trkpt><trkpt lat="37.377219488109056" lon="14.331948374938914"><ele>577.0</ele><time>2026-03-25T11:04:59.001Z</time></trkpt><trkpt lat="37.3771351858455" lon="14.331997905860975"><ele>577.0</ele><time>2026-03-25T11:05:00.001Z</time></trkpt><trkpt lat="37.37706021117122" lon="14.332026674601149"><ele>577.0</ele><time>2026-03-25T11:05:00.998Z</time></trkpt><trkpt lat="37.37699429773669" lon="14.332040466675686"><ele>577.0</ele><time>2026-03-25T11:05:01.998Z</time></trkpt><trkpt lat="37.37690740270438" lon="14.332027534974127"><ele>576.6666666666667</ele><time>2026-03-25T11:05:03.998Z</time></trkpt><trkpt lat="37.37684914627256" lon="14.331972114525167"><ele>576.3333333333334</ele><time>2026-03-25T11:05:05.998Z</time></trkpt><trkpt lat="37.37678522984041" lon="14.331990419293254"><ele>576.0</ele><time>2026-03-25T11:06:22Z</time></trkpt><trkpt lat="37.376767098298835" lon="14.332109866387109"><ele>575.6666666666666</ele><time>2026-03-25T11:06:26Z</time></trkpt><trkpt lat="37.37680184093797" lon="14.332205724133058"><ele>575.3333333333333</ele><time>2026-03-25T11:06:27Z</time></trkpt><trkpt lat="37.376844523987984" lon="14.332278586147119"><ele>575.0</ele><time>2026-03-25T11:06:28Z</time></trkpt><trkpt lat="37.37684242143828" lon="14.332442275421823"><ele>575.0</ele><time>2026-03-25T11:06:30Z</time></trkpt><trkpt lat="37.376808443656564" lon="14.332584053846956"><ele>575.0</ele><time>2026-03-25T11:06:31Z</time></trkpt><trkpt lat="37.37675718574913" lon="14.33276213651965"><ele>575.0</ele><time>2026-03-25T11:06:32Z</time></trkpt><trkpt lat="37.37670537563412" lon="14.332942300509089"><ele>575.0</ele><time>2026-03-25T11:06:33Z</time></trkpt><trkpt lat="37.37666686769094" lon="14.333107985582668"><ele>576.4</ele><time>2026-03-25T11:06:34Z</time></trkpt><trkpt lat="37.37663429616288" lon="14.333254331600884"><ele>577.8</ele><time>2026-03-25T11:06:35Z</time></trkpt><trkpt lat="37.37660606682799" lon="14.333380902832836"><ele>579.2</ele><time>2026-03-25T11:06:36Z</time></trkpt><trkpt lat="37.37659561365267" lon="14.333509399859494"><ele>580.6</ele><time>2026-03-25T11:06:37.001Z</time></trkpt><trkpt lat="37.3766092791957" lon="14.333644231778466"><ele>582.0</ele><time>2026-03-25T11:06:38.001Z</time></trkpt><trkpt lat="37.37664681772547" lon="14.333782819847332"><ele>580.6666666666666</ele><time>2026-03-25T11:06:39.001Z</time></trkpt><trkpt lat="37.3767060187822" lon="14.333944225436538"><ele>579.3333333333333</ele><time>2026-03-25T11:06:40.001Z</time></trkpt><trkpt lat="37.3767831200219" lon="14.334120845256578"><ele>578.0</ele><time>2026-03-25T11:06:41.001Z</time></trkpt><trkpt lat="37.376867485928514" lon="14.334313136644369"><ele>578.0</ele><time>2026-03-25T11:06:42.001Z</time></trkpt><trkpt lat="37.37695411631356" lon="14.334506087948222"><ele>578.0</ele><time>2026-03-25T11:06:43.001Z</time></trkpt><trkpt lat="37.37706227590066" lon="14.334692973882357"><ele>578.0</ele><time>2026-03-25T11:06:44.001Z</time></trkpt><trkpt lat="37.37719119763239" lon="14.334862999134439"><ele>584.0</ele><time>2026-03-25T11:06:45.001Z</time></trkpt><trkpt lat="37.37731821205737" lon="14.33501836008264"><ele>590.0</ele><time>2026-03-25T11:06:46.001Z</time></trkpt><trkpt lat="37.37743435690461" lon="14.335157554594401"><ele>596.0</ele><time>2026-03-25T11:06:47.001Z</time></trkpt><trkpt lat="37.377538035976556" lon="14.335290792371795"><ele>596.0</ele><time>2026-03-25T11:06:48.001Z</time></trkpt><trkpt lat="37.3776285960733" lon="14.335420063150023"><ele>596.0</ele><time>2026-03-25T11:06:49.001Z</time></trkpt><trkpt lat="37.377710540640614" lon="14.335556798006646"><ele>596.0</ele><time>2026-03-25T11:06:50.001Z</time></trkpt><trkpt lat="37.377774991776015" lon="14.3357082105833"><ele>596.0</ele><time>2026-03-25T11:06:51.001Z</time></trkpt><trkpt lat="37.37782624799667" lon="14.335877181653414"><ele>590.6666666666666</ele><time>2026-03-25T11:06:52.001Z</time></trkpt><trkpt lat="37.37787302889959" lon="14.33606111980233"><ele>585.3333333333334</ele><time>2026-03-25T11:06:53.001Z</time></trkpt><trkpt lat="37.37791211911215" lon="14.336261331055628"><ele>580.0</ele><time>2026-03-25T11:06:54.001Z</time></trkpt><trkpt lat="37.377943362045066" lon="14.336465316542961"><ele>578.6666666666667</ele><time>2026-03-25T11:06:55.001Z</time></trkpt><trkpt lat="37.37796925183754" lon="14.33666640308546"><ele>577.3333333333334</ele><time>2026-03-25T11:06:56.001Z</time></trkpt><trkpt lat="37.377987634937334" lon="14.336861249950855"><ele>576.0</ele><time>2026-03-25T11:06:57.001Z</time></trkpt><trkpt lat="37.378000909695665" lon="14.337036936150152"><ele>576.0</ele><time>2026-03-25T11:06:58.001Z</time></trkpt><trkpt lat="37.37801674304546" lon="14.337200327344535"><ele>576.0</ele><time>2026-03-25T11:06:59.001Z</time></trkpt><trkpt lat="37.37802405458355" lon="14.337351898900808"><ele>576.0</ele><time>2026-03-25T11:07:00.001Z</time></trkpt><trkpt lat="37.37801406286206" lon="14.337493255173214"><ele>576.0</ele><time>2026-03-25T11:07:01.001Z</time></trkpt><trkpt lat="37.37799816998654" lon="14.337623203767171"><ele>576.0</ele><time>2026-03-25T11:07:02.001Z</time></trkpt><trkpt lat="37.377984312058075" lon="14.33774573766024"><ele>576.0</ele><time>2026-03-25T11:07:03.001Z</time></trkpt><trkpt lat="37.37796577013521" lon="14.337868332265739"><ele>576.0</ele><time>2026-03-25T11:07:04.001Z</time></trkpt><trkpt lat="37.37793886813797" lon="14.338003489388692"><ele>576.0</ele><time>2026-03-25T11:07:05.001Z</time></trkpt><trkpt lat="37.377905046634275" lon="14.338146380728068"><ele>576.0</ele><time>2026-03-25T11:07:06.001Z</time></trkpt><trkpt lat="37.37786762358162" lon="14.338309843684222"><ele>576.75</ele><time>2026-03-25T11:07:06.998Z</time></trkpt><trkpt lat="37.37783011014388" lon="14.338480415204595"><ele>577.5</ele><time>2026-03-25T11:07:07.998Z</time></trkpt><trkpt lat="37.377791927285536" lon="14.338658731711659"><ele>578.25</ele><time>2026-03-25T11:07:08.998Z</time></trkpt><trkpt lat="37.377747034558446" lon="14.338850876064036"><ele>579.0</ele><time>2026-03-25T11:07:09.998Z</time></trkpt><trkpt lat="37.37770214031902" lon="14.339046802883503"><ele>580.6666666666666</ele><time>2026-03-25T11:07:10.998Z</time></trkpt><trkpt lat="37.3776669275228" lon="14.339254117119316"><ele>582.3333333333333</ele><time>2026-03-25T11:07:11.998Z</time></trkpt><trkpt lat="37.377648126359915" lon="14.33947254595972"><ele>584.0</ele><time>2026-03-25T11:07:12.998Z</time></trkpt><trkpt lat="37.37764107597953" lon="14.339691701694477"><ele>585.0</ele><time>2026-03-25T11:07:13.998Z</time></trkpt><trkpt lat="37.377637143794516" lon="14.339919589066435"><ele>586.0</ele><time>2026-03-25T11:07:14.998Z</time></trkpt><trkpt lat="37.37763605913997" lon="14.340140854911168"><ele>587.0</ele><time>2026-03-25T11:07:15.998Z</time></trkpt><trkpt lat="37.37763323920751" lon="14.34035854821293"><ele>586.3333333333333</ele><time>2026-03-25T11:07:16.998Z</time></trkpt><trkpt lat="37.37763038381546" lon="14.340570142547366"><ele>585.6666666666666</ele><time>2026-03-25T11:07:17.998Z</time></trkpt><trkpt lat="37.37763739845394" lon="14.340768365984577"><ele>585.0</ele><time>2026-03-25T11:07:18.998Z</time></trkpt><trkpt lat="37.377668562132015" lon="14.34094581518898"><ele>585.0</ele><time>2026-03-25T11:07:19.998Z</time></trkpt><trkpt lat="37.377734369990435" lon="14.34110764071877"><ele>585.0</ele><time>2026-03-25T11:07:20.999Z</time></trkpt><trkpt lat="37.377825357229874" lon="14.341251577836607"><ele>585.0</ele><time>2026-03-25T11:07:21.999Z</time></trkpt><trkpt lat="37.37791368135349" lon="14.341394383544738"><ele>585.0</ele><time>2026-03-25T11:07:22.999Z</time></trkpt><trkpt lat="37.37797635092648" lon="14.341555178295467"><ele>583.0</ele><time>2026-03-25T11:07:23.999Z</time></trkpt><trkpt lat="37.37801241915844" lon="14.341735060471644"><ele>581.0</ele><time>2026-03-25T11:07:24.999Z</time></trkpt><trkpt lat="37.378019918291436" lon="14.341925040719454"><ele>579.0</ele><time>2026-03-25T11:07:25.999Z</time></trkpt><trkpt lat="37.37801971423463" lon="14.342127701220255"><ele>585.3333333333334</ele><time>2026-03-25T11:07:26.999Z</time></trkpt><trkpt lat="37.378029502268575" lon="14.342326012109543"><ele>591.6666666666667</ele><time>2026-03-25T11:07:27.999Z</time></trkpt><trkpt lat="37.378051056107836" lon="14.342527685590396"><ele>598.0</ele><time>2026-03-25T11:07:28.999Z</time></trkpt><trkpt lat="37.37808682858379" lon="14.342730055125989"><ele>598.0</ele><time>2026-03-25T11:07:29.999Z</time></trkpt><trkpt lat="37.37813583341873" lon="14.342929892593741"><ele>598.0</ele><time>2026-03-25T11:07:30.999Z</time></trkpt><trkpt lat="37.37818827203377" lon="14.343133890433716"><ele>598.0</ele><time>2026-03-25T11:07:31.999Z</time></trkpt><trkpt lat="37.37823990766737" lon="14.343335042567013"><ele>597.3333333333334</ele><time>2026-03-25T11:07:32.999Z</time></trkpt><trkpt lat="37.378281899439706" lon="14.34353187630939"><ele>596.6666666666666</ele><time>2026-03-25T11:07:33.999Z</time></trkpt><trkpt lat="37.37830064260271" lon="14.343717878016886"><ele>596.0</ele><time>2026-03-25T11:07:34.999Z</time></trkpt><trkpt lat="37.37829374899795" lon="14.343905587548889"><ele>595.3333333333333</ele><time>2026-03-25T11:07:35.999Z</time></trkpt><trkpt lat="37.37826030233541" lon="14.34409296826688"><ele>594.6666666666666</ele><time>2026-03-25T11:07:36.999Z</time></trkpt><trkpt lat="37.37821430349211" lon="14.344278515233325"><ele>594.0</ele><time>2026-03-25T11:07:37.999Z</time></trkpt><trkpt lat="37.37816573682685" lon="14.344464466169864"><ele>594.0</ele><time>2026-03-25T11:07:38.999Z</time></trkpt><trkpt lat="37.37811990591238" lon="14.344651500619758"><ele>594.0</ele><time>2026-03-25T11:07:39.999Z</time></trkpt><trkpt lat="37.37807506133104" lon="14.344833944501598"><ele>594.0</ele><time>2026-03-25T11:07:40.999Z</time></trkpt><trkpt lat="37.3780321524252" lon="14.344999719641047"><ele>594.0</ele><time>2026-03-25T11:07:41.999Z</time></trkpt><trkpt lat="37.37800493910382" lon="14.345163415975774"><ele>594.6666666666666</ele><time>2026-03-25T11:07:43Z</time></trkpt><trkpt lat="37.378012236439275" lon="14.345339280419815"><ele>595.3333333333333</ele><time>2026-03-25T11:07:44Z</time></trkpt><trkpt lat="37.3780558689715" lon="14.345526028880748"><ele>596.0</ele><time>2026-03-25T11:07:45Z</time></trkpt><trkpt lat="37.37811128150048" lon="14.345712979593637"><ele>596.0</ele><time>2026-03-25T11:07:46Z</time></trkpt><trkpt lat="37.378171493265974" lon="14.345913102639194"><ele>596.0</ele><time>2026-03-25T11:07:47Z</time></trkpt><trkpt lat="37.37823301408984" lon="14.346115164379162"><ele>596.0</ele><time>2026-03-25T11:07:48Z</time></trkpt><trkpt lat="37.37829349987231" lon="14.346323595776978"><ele>595.3333333333333</ele><time>2026-03-25T11:07:49Z</time></trkpt><trkpt lat="37.37833862318463" lon="14.346545995540524"><ele>594.6666666666666</ele><time>2026-03-25T11:07:50Z</time></trkpt><trkpt lat="37.378374278433725" lon="14.346772437483096"><ele>594.0</ele><time>2026-03-25T11:07:51Z</time></trkpt><trkpt lat="37.37841186068899" lon="14.34700946930401"><ele>594.0</ele><time>2026-03-25T11:07:52Z</time></trkpt><trkpt lat="37.378452274331956" lon="14.347256316238191"><ele>594.0</ele><time>2026-03-25T11:07:53Z</time></trkpt><trkpt lat="37.37849518597807" lon="14.347510349948827"><ele>594.0</ele><time>2026-03-25T11:07:54Z</time></trkpt><trkpt lat="37.37853588632767" lon="14.347767895607289"><ele>594.0</ele><time>2026-03-25T11:07:55Z</time></trkpt><trkpt lat="37.378574462491905" lon="14.34802934347253"><ele>594.0</ele><time>2026-03-25T11:07:56Z</time></trkpt><trkpt lat="37.3786104952053" lon="14.348288900314076"><ele>594.0</ele><time>2026-03-25T11:07:57Z</time></trkpt><trkpt lat="37.37864801242836" lon="14.348549705718865"><ele>594.6666666666666</ele><time>2026-03-25T11:07:58Z</time></trkpt><trkpt lat="37.378687214424204" lon="14.348804882645654"><ele>595.3333333333333</ele><time>2026-03-25T11:07:59Z</time></trkpt><trkpt lat="37.378727631862176" lon="14.34905559249299"><ele>596.0</ele><time>2026-03-25T11:08:00Z</time></trkpt><trkpt lat="37.37876666736641" lon="14.349300849735073"><ele>596.0</ele><time>2026-03-25T11:08:01Z</time></trkpt><trkpt lat="37.37880443331872" lon="14.349547568770875"><ele>596.0</ele><time>2026-03-25T11:08:02Z</time></trkpt><trkpt lat="37.378836215199506" lon="14.349785173323475"><ele>596.0</ele><time>2026-03-25T11:08:03Z</time></trkpt><trkpt lat="37.378849296407616" lon="14.350010893123262"><ele>596.6666666666666</ele><time>2026-03-25T11:08:04Z</time></trkpt><trkpt lat="37.378834642720506" lon="14.350236159940579"><ele>597.3333333333334</ele><time>2026-03-25T11:08:05Z</time></trkpt><trkpt lat="37.37879678856536" lon="14.350464449065228"><ele>598.0</ele><time>2026-03-25T11:08:06Z</time></trkpt><trkpt lat="37.378756311643905" lon="14.350695345217597"><ele>598.3333333333334</ele><time>2026-03-25T11:08:07Z</time></trkpt><trkpt lat="37.378746104862294" lon="14.350927383159446"><ele>598.6666666666666</ele><time>2026-03-25T11:08:08Z</time></trkpt><trkpt lat="37.37876342983598" lon="14.351169167039687"><ele>599.0</ele><time>2026-03-25T11:08:09Z</time></trkpt><trkpt lat="37.378798620458404" lon="14.351408640177105"><ele>600.0</ele><time>2026-03-25T11:08:10Z</time></trkpt><trkpt lat="37.378849009485336" lon="14.351645837440918"><ele>601.0</ele><time>2026-03-25T11:08:11Z</time></trkpt><trkpt lat="37.378918592463826" lon="14.351869785901721"><ele>602.0</ele><time>2026-03-25T11:08:12Z</time></trkpt><trkpt lat="37.37900717637654" lon="14.352080268890143"><ele>606.0</ele><time>2026-03-25T11:08:13Z</time></trkpt><trkpt lat="37.3791099251829" lon="14.352274668833314"><ele>610.0</ele><time>2026-03-25T11:08:14Z</time></trkpt><trkpt lat="37.37922837708728" lon="14.352459867474806"><ele>614.0</ele><time>2026-03-25T11:08:15Z</time></trkpt><trkpt lat="37.37934601428672" lon="14.352647300856864"><ele>614.0</ele><time>2026-03-25T11:08:16Z</time></trkpt><trkpt lat="37.37946251170835" lon="14.352847750394064"><ele>614.0</ele><time>2026-03-25T11:08:17Z</time></trkpt><trkpt lat="37.379573674326735" lon="14.353056703808841"><ele>614.0</ele><time>2026-03-25T11:08:18Z</time></trkpt><trkpt lat="37.37968410437653" lon="14.353269868862666"><ele>613.3333333333333</ele><time>2026-03-25T11:08:19Z</time></trkpt><trkpt lat="37.37980158148793" lon="14.353482921113807"><ele>612.6666666666666</ele><time>2026-03-25T11:08:20Z</time></trkpt><trkpt lat="37.37992784700015" lon="14.35369349866529"><ele>612.0</ele><time>2026-03-25T11:08:21Z</time></trkpt><trkpt lat="37.3800584089976" lon="14.353903495196217"><ele>612.0</ele><time>2026-03-25T11:08:22.001Z</time></trkpt><trkpt lat="37.380194397042175" lon="14.354108380898955"><ele>612.0</ele><time>2026-03-25T11:08:23.001Z</time></trkpt><trkpt lat="37.38033211131679" lon="14.354312588793144"><ele>612.0</ele><time>2026-03-25T11:08:24.001Z</time></trkpt><trkpt lat="37.38046821962294" lon="14.354516765726716"><ele>614.3333333333334</ele><time>2026-03-25T11:08:25.001Z</time></trkpt><trkpt lat="37.38060188638135" lon="14.354718181332508"><ele>616.6666666666667</ele><time>2026-03-25T11:08:26.001Z</time></trkpt><trkpt lat="37.380729058452985" lon="14.354913775178963"><ele>619.0</ele><time>2026-03-25T11:08:27.001Z</time></trkpt><trkpt lat="37.38084873249564" lon="14.355100786619623"><ele>619.0</ele><time>2026-03-25T11:08:28.001Z</time></trkpt><trkpt lat="37.38096995938885" lon="14.355272360746634"><ele>619.0</ele><time>2026-03-25T11:08:29.001Z</time></trkpt><trkpt lat="37.3811113152544" lon="14.355423781361797"><ele>619.0</ele><time>2026-03-25T11:08:30.001Z</time></trkpt><trkpt lat="37.38127669670847" lon="14.355559452827901"><ele>619.0</ele><time>2026-03-25T11:08:31.001Z</time></trkpt><trkpt lat="37.381454426848315" lon="14.355683963073568"><ele>619.0</ele><time>2026-03-25T11:08:32.001Z</time></trkpt><trkpt lat="37.38163942311635" lon="14.355791277470816"><ele>619.0</ele><time>2026-03-25T11:08:33.001Z</time></trkpt><trkpt lat="37.38181621473863" lon="14.355879838542618"><ele>619.0</ele><time>2026-03-25T11:08:34.001Z</time></trkpt><trkpt lat="37.38198630741957" lon="14.355945344172087"><ele>619.0</ele><time>2026-03-25T11:08:35.001Z</time></trkpt><trkpt lat="37.38214389076603" lon="14.355996017064346"><ele>619.0</ele><time>2026-03-25T11:08:36.001Z</time></trkpt><trkpt lat="37.38228693482084" lon="14.356042197223205"><ele>618.0</ele><time>2026-03-25T11:08:37.001Z</time></trkpt><trkpt lat="37.38241622899264" lon="14.356093559290024"><ele>617.0</ele><time>2026-03-25T11:08:38.001Z</time></trkpt><trkpt lat="37.38252770965142" lon="14.356165829422253"><ele>616.0</ele><time>2026-03-25T11:08:39.001Z</time></trkpt><trkpt lat="37.38261189365878" lon="14.35626740433803"><ele>615.0</ele><time>2026-03-25T11:08:40.001Z</time></trkpt><trkpt lat="37.382683245468215" lon="14.356411683376232"><ele>615.0</ele><time>2026-03-25T11:08:41.001Z</time></trkpt><trkpt lat="37.38274267801132" lon="14.356582782863764"><ele>615.0</ele><time>2026-03-25T11:08:42.001Z</time></trkpt><trkpt lat="37.38278724680015" lon="14.356759728592781"><ele>615.0</ele><time>2026-03-25T11:08:43.001Z</time></trkpt><trkpt lat="37.38284009476665" lon="14.356927792763406"><ele>615.0</ele><time>2026-03-25T11:08:44.001Z</time></trkpt><trkpt lat="37.382912440820846" lon="14.35708484571446"><ele>614.25</ele><time>2026-03-25T11:08:45.001Z</time></trkpt><trkpt lat="37.383011185713414" lon="14.357216806647655"><ele>613.5</ele><time>2026-03-25T11:08:46.001Z</time></trkpt><trkpt lat="37.3831293609924" lon="14.357316729103642"><ele>612.75</ele><time>2026-03-25T11:08:47.001Z</time></trkpt><trkpt lat="37.38325201413103" lon="14.3573814248922"><ele>612.0</ele><time>2026-03-25T11:08:48.001Z</time></trkpt><trkpt lat="37.383363017702976" lon="14.357432639040551"><ele>613.6</ele><time>2026-03-25T11:08:49.001Z</time></trkpt><trkpt lat="37.38346108372012" lon="14.357496513754677"><ele>615.2</ele><time>2026-03-25T11:08:50.001Z</time></trkpt><trkpt lat="37.38354021550468" lon="14.357578540529655"><ele>616.8</ele><time>2026-03-25T11:08:51.001Z</time></trkpt><trkpt lat="37.38359835331413" lon="14.357673186425405"><ele>618.4</ele><time>2026-03-25T11:08:52.001Z</time></trkpt><trkpt lat="37.383632966818666" lon="14.357792497709392"><ele>620.0</ele><time>2026-03-25T11:08:53.001Z</time></trkpt><trkpt lat="37.38364477490769" lon="14.357934711447331"><ele>618.75</ele><time>2026-03-25T11:08:54.001Z</time></trkpt><trkpt lat="37.383658667924664" lon="14.35809204221935"><ele>617.5</ele><time>2026-03-25T11:08:55.001Z</time></trkpt><trkpt lat="37.383682134781324" lon="14.358255341583344"><ele>616.25</ele><time>2026-03-25T11:08:56.001Z</time></trkpt><trkpt lat="37.383691947442976" lon="14.358408835352211"><ele>615.0</ele><time>2026-03-25T11:08:57.001Z</time></trkpt><trkpt lat="37.383670425373424" lon="14.358561036419196"><ele>615.0</ele><time>2026-03-25T11:08:58.001Z</time></trkpt><trkpt lat="37.383614160951375" lon="14.358705438423554"><ele>615.0</ele><time>2026-03-25T11:08:59.001Z</time></trkpt><trkpt lat="37.38352986536278" lon="14.358835983300937"><ele>615.0</ele><time>2026-03-25T11:09:00.001Z</time></trkpt><trkpt lat="37.38341985483495" lon="14.358955069387433"><ele>615.0</ele><time>2026-03-25T11:09:01.001Z</time></trkpt><trkpt lat="37.38330089602582" lon="14.359071953998866"><ele>617.25</ele><time>2026-03-25T11:09:02.001Z</time></trkpt><trkpt lat="37.38318462952731" lon="14.359187197676064"><ele>619.5</ele><time>2026-03-25T11:09:03.001Z</time></trkpt><trkpt lat="37.38305585279658" lon="14.35928071785164"><ele>621.75</ele><time>2026-03-25T11:09:04.001Z</time></trkpt><trkpt lat="37.38291376336968" lon="14.359348539500706"><ele>624.0</ele><time>2026-03-25T11:09:05.001Z</time></trkpt><trkpt lat="37.38276855188255" lon="14.359398150823687"><ele>624.0</ele><time>2026-03-25T11:09:06.001Z</time></trkpt><trkpt lat="37.382629510470764" lon="14.359440896119494"><ele>624.0</ele><time>2026-03-25T11:09:07.002Z</time></trkpt><trkpt lat="37.382501828791945" lon="14.359482575872544"><ele>624.0</ele><time>2026-03-25T11:09:08.002Z</time></trkpt><trkpt lat="37.38239069264661" lon="14.35953026193081"><ele>624.0</ele><time>2026-03-25T11:09:09.002Z</time></trkpt><trkpt lat="37.38229695778714" lon="14.359594538377024"><ele>624.0</ele><time>2026-03-25T11:09:10.002Z</time></trkpt><trkpt lat="37.38222487378845" lon="14.359690875751962"><ele>624.0</ele><time>2026-03-25T11:09:11.002Z</time></trkpt><trkpt lat="37.38217118315806" lon="14.359820265330155"><ele>624.0</ele><time>2026-03-25T11:09:12.002Z</time></trkpt><trkpt lat="37.382141001785335" lon="14.3599742359333"><ele>624.0</ele><time>2026-03-25T11:09:12.999Z</time></trkpt><trkpt lat="37.38212349933256" lon="14.360151633437937"><ele>625.0</ele><time>2026-03-25T11:09:13.999Z</time></trkpt><trkpt lat="37.382103326483204" lon="14.360322710855852"><ele>626.0</ele><time>2026-03-25T11:09:14.999Z</time></trkpt><trkpt lat="37.3820773365192" lon="14.360497038815906"><ele>627.0</ele><time>2026-03-25T11:09:15.999Z</time></trkpt><trkpt lat="37.38205178617957" lon="14.360658767589912"><ele>628.0</ele><time>2026-03-25T11:09:16.999Z</time></trkpt><trkpt lat="37.382021974697906" lon="14.360796721481677"><ele>628.6</ele><time>2026-03-25T11:09:17.999Z</time></trkpt><trkpt lat="37.381969931900805" lon="14.360903041899402"><ele>629.1999999999999</ele><time>2026-03-25T11:09:18.999Z</time></trkpt><trkpt lat="37.381892333475" lon="14.360975316454699"><ele>629.8</ele><time>2026-03-25T11:09:19.999Z</time></trkpt><trkpt lat="37.38180115749321" lon="14.361042301999209"><ele>630.4</ele><time>2026-03-25T11:09:20.999Z</time></trkpt><trkpt lat="37.38170203228815" lon="14.361116906555958"><ele>631.0</ele><time>2026-03-25T11:09:21.999Z</time></trkpt><trkpt lat="37.38161798404184" lon="14.36122335103024"><ele>631.0</ele><time>2026-03-25T11:09:22.999Z</time></trkpt><trkpt lat="37.38155679335592" lon="14.361363493794048"><ele>631.0</ele><time>2026-03-25T11:09:23.999Z</time></trkpt><trkpt lat="37.38150336932167" lon="14.361521203812138"><ele>631.0</ele><time>2026-03-25T11:09:24.999Z</time></trkpt><trkpt lat="37.38144519585522" lon="14.361684696487744"><ele>631.0</ele><time>2026-03-25T11:09:25.999Z</time></trkpt><trkpt lat="37.381378335709066" lon="14.361854034507733"><ele>632.6666666666667</ele><time>2026-03-25T11:09:26.999Z</time></trkpt><trkpt lat="37.38130758678489" lon="14.362027581930187"><ele>634.3333333333334</ele><time>2026-03-25T11:09:27.999Z</time></trkpt><trkpt lat="37.38124490430243" lon="14.362211421051192"><ele>636.0</ele><time>2026-03-25T11:09:28.999Z</time></trkpt><trkpt lat="37.38118145140872" lon="14.36239402714371"><ele>636.75</ele><time>2026-03-25T11:09:29.999Z</time></trkpt><trkpt lat="37.381130210827386" lon="14.362565364455197"><ele>637.5</ele><time>2026-03-25T11:09:30.999Z</time></trkpt><trkpt lat="37.38110302734495" lon="14.362744474693189"><ele>638.25</ele><time>2026-03-25T11:09:31.999Z</time></trkpt><trkpt lat="37.38109779998713" lon="14.362936986258644"><ele>639.0</ele><time>2026-03-25T11:09:32.999Z</time></trkpt><trkpt lat="37.38109930086497" lon="14.363141651774805"><ele>639.5</ele><time>2026-03-25T11:09:33.999Z</time></trkpt><trkpt lat="37.381095491976254" lon="14.363342772992093"><ele>640.0</ele><time>2026-03-25T11:09:34.999Z</time></trkpt><trkpt lat="37.381091821102245" lon="14.363529087092608"><ele>640.5</ele><time>2026-03-25T11:09:35.999Z</time></trkpt><trkpt lat="37.38109022510527" lon="14.36369379479677"><ele>641.0</ele><time>2026-03-25T11:09:36.999Z</time></trkpt><trkpt lat="37.381085537912675" lon="14.363840131792788"><ele>641.5999999999999</ele><time>2026-03-25T11:09:37.999Z</time></trkpt><trkpt lat="37.3810788250465" lon="14.363970350625817"><ele>642.2</ele><time>2026-03-25T11:09:38.999Z</time></trkpt><trkpt lat="37.38107013280436" lon="14.364083466447969"><ele>642.8</ele><time>2026-03-25T11:09:39.999Z</time></trkpt><trkpt lat="37.3810564658443" lon="14.364181148335533"><ele>643.4000000000001</ele><time>2026-03-25T11:09:41Z</time></trkpt><trkpt lat="37.38103842992118" lon="14.364262087956728"><ele>644.0</ele><time>2026-03-25T11:09:42Z</time></trkpt><trkpt lat="37.380991605507624" lon="14.3644049500857"><ele>644.0</ele><time>2026-03-25T11:09:44Z</time></trkpt><trkpt lat="37.380962936943355" lon="14.364479380708303"><ele>644.0</ele><time>2026-03-25T11:09:45Z</time></trkpt><trkpt lat="37.3809277512009" lon="14.364556740216493"><ele>644.0</ele><time>2026-03-25T11:09:46Z</time></trkpt><trkpt lat="37.38089298857577" lon="14.364639008540347"><ele>644.0</ele><time>2026-03-25T11:09:47Z</time></trkpt><trkpt lat="37.38085655951916" lon="14.364727658535315"><ele>644.0</ele><time>2026-03-25T11:09:48Z</time></trkpt><trkpt lat="37.38082116207912" lon="14.364821284655884"><ele>644.0</ele><time>2026-03-25T11:09:49Z</time></trkpt><trkpt lat="37.38078886635416" lon="14.364909638424423"><ele>644.3333333333333</ele><time>2026-03-25T11:09:50Z</time></trkpt><trkpt lat="37.38076323902603" lon="14.364993671004202"><ele>644.6666666666666</ele><time>2026-03-25T11:09:51Z</time></trkpt><trkpt lat="37.38075098213236" lon="14.365073237433196"><ele>645.0</ele><time>2026-03-25T11:09:52Z</time></trkpt><trkpt lat="37.380735752711686" lon="14.365173945565564"><ele>645.3333333333334</ele><time>2026-03-25T11:09:54Z</time></trkpt><trkpt lat="37.38071168534827" lon="14.365294820535464"><ele>645.6666666666667</ele><time>2026-03-25T11:09:57Z</time></trkpt><trkpt lat="37.38068906980253" lon="14.365433381273828"><ele>646.0</ele><time>2026-03-25T11:09:59Z</time></trkpt><trkpt lat="37.380672398569395" lon="14.36556996023436"><ele>647.5</ele><time>2026-03-25T11:10:01Z</time></trkpt><trkpt lat="37.38075164344404" lon="14.365672385799252"><ele>649.0</ele><time>2026-03-25T11:10:03Z</time></trkpt><trkpt lat="37.380864977464874" lon="14.365700793353527"><ele>650.5</ele><time>2026-03-25T11:10:05Z</time></trkpt><trkpt lat="37.38100095499833" lon="14.365766571366523"><ele>652.0</ele><time>2026-03-25T11:10:07Z</time></trkpt><trkpt lat="37.38106979092951" lon="14.365812738444422"><ele>652.0</ele><time>2026-03-25T11:10:08Z</time></trkpt><trkpt lat="37.38112896083122" lon="14.365872875982364"><ele>652.0</ele><time>2026-03-25T11:10:09Z</time></trkpt><trkpt lat="37.38119008036359" lon="14.365936677455169"><ele>652.0</ele><time>2026-03-25T11:10:10Z</time></trkpt><trkpt lat="37.38125905859551" lon="14.36600219114041"><ele>652.0</ele><time>2026-03-25T11:10:11Z</time></trkpt><trkpt lat="37.38133835299519" lon="14.366052321238621"><ele>652.0</ele><time>2026-03-25T11:10:12Z</time></trkpt><trkpt lat="37.381415521044254" lon="14.366118981717301"><ele>652.0</ele><time>2026-03-25T11:10:13Z</time></trkpt><trkpt lat="37.381499646374095" lon="14.36618877427732"><ele>652.5</ele><time>2026-03-25T11:10:14Z</time></trkpt><trkpt lat="37.38157729657495" lon="14.366265073234901"><ele>653.0</ele><time>2026-03-25T11:10:15Z</time></trkpt><trkpt lat="37.381646851795935" lon="14.366350266039015"><ele>653.5</ele><time>2026-03-25T11:10:16.001Z</time></trkpt><trkpt lat="37.38171943518106" lon="14.36643374803594"><ele>654.0</ele><time>2026-03-25T11:10:17.001Z</time></trkpt><trkpt lat="37.38187590510224" lon="14.366580086002976"><ele>655.6</ele><time>2026-03-25T11:10:19.001Z</time></trkpt><trkpt lat="37.38195223613149" lon="14.366655034111218"><ele>657.2</ele><time>2026-03-25T11:10:20.001Z</time></trkpt><trkpt lat="37.382021800899025" lon="14.366744759866059"><ele>658.8000000000001</ele><time>2026-03-25T11:10:21.001Z</time></trkpt><trkpt lat="37.382090355808884" lon="14.366847436277666"><ele>660.4000000000001</ele><time>2026-03-25T11:10:22.001Z</time></trkpt><trkpt lat="37.38216176169343" lon="14.36694207139523"><ele>662.0</ele><time>2026-03-25T11:10:23.001Z</time></trkpt><trkpt lat="37.38222564828225" lon="14.367040947390189"><ele>662.0</ele><time>2026-03-25T11:10:24.001Z</time></trkpt><trkpt lat="37.38227595653417" lon="14.367137164939773"><ele>662.0</ele><time>2026-03-25T11:10:25.001Z</time></trkpt><trkpt lat="37.3823216905348" lon="14.367214044326358"><ele>662.0</ele><time>2026-03-25T11:10:26.001Z</time></trkpt><trkpt lat="37.38237112588435" lon="14.367298157643807"><ele>662.0</ele><time>2026-03-25T11:10:27.001Z</time></trkpt><trkpt lat="37.38239593954991" lon="14.367395471806567"><ele>662.0</ele><time>2026-03-25T11:10:28.001Z</time></trkpt><trkpt lat="37.38240331801717" lon="14.367486111781462"><ele>662.0</ele><time>2026-03-25T11:10:29.001Z</time></trkpt><trkpt lat="37.38239944933463" lon="14.367583960720014"><ele>662.6</ele><time>2026-03-25T11:10:30.001Z</time></trkpt><trkpt lat="37.382413187533054" lon="14.367694243308268"><ele>663.2</ele><time>2026-03-25T11:10:31.001Z</time></trkpt><trkpt lat="37.3824560066599" lon="14.367808582314694"><ele>663.8</ele><time>2026-03-25T11:10:32.001Z</time></trkpt><trkpt lat="37.38251714833551" lon="14.36791244932237"><ele>664.4</ele><time>2026-03-25T11:10:33.001Z</time></trkpt><trkpt lat="37.38258691227131" lon="14.368008153331397"><ele>665.0</ele><time>2026-03-25T11:10:34.001Z</time></trkpt><trkpt lat="37.382650850282204" lon="14.368095400062284"><ele>667.0</ele><time>2026-03-25T11:10:35.001Z</time></trkpt><trkpt lat="37.38271312302704" lon="14.368175452229343"><ele>669.0</ele><time>2026-03-25T11:10:36.001Z</time></trkpt><trkpt lat="37.38276645767337" lon="14.368271240123747"><ele>671.0</ele><time>2026-03-25T11:10:37.001Z</time></trkpt><trkpt lat="37.38281451302583" lon="14.368375662201801"><ele>673.0</ele><time>2026-03-25T11:10:38.001Z</time></trkpt><trkpt lat="37.38286181482621" lon="14.36849088277121"><ele>675.0</ele><time>2026-03-25T11:10:39.001Z</time></trkpt><trkpt lat="37.38290579733157" lon="14.368608317298994"><ele>675.0</ele><time>2026-03-25T11:10:40.001Z</time></trkpt><trkpt lat="37.382948376153095" lon="14.36872118155799"><ele>675.0</ele><time>2026-03-25T11:10:41.001Z</time></trkpt><trkpt lat="37.382986104875435" lon="14.368829720202267"><ele>675.0</ele><time>2026-03-25T11:10:42.001Z</time></trkpt><trkpt lat="37.383023358166824" lon="14.368946901301939"><ele>675.0</ele><time>2026-03-25T11:10:43.001Z</time></trkpt><trkpt lat="37.38304755017735" lon="14.369081045723945"><ele>675.0</ele><time>2026-03-25T11:10:44.001Z</time></trkpt><trkpt lat="37.383072756145324" lon="14.369230816840204"><ele>676.4</ele><time>2026-03-25T11:10:45.001Z</time></trkpt><trkpt lat="37.38309249110193" lon="14.369366919825074"><ele>677.8</ele><time>2026-03-25T11:10:46.001Z</time></trkpt><trkpt lat="37.38308592224357" lon="14.369476616459776"><ele>679.2</ele><time>2026-03-25T11:10:47.001Z</time></trkpt><trkpt lat="37.38305634126208" lon="14.369580267022583"><ele>680.6</ele><time>2026-03-25T11:10:48.001Z</time></trkpt><trkpt lat="37.38301569451874" lon="14.36968973019145"><ele>682.0</ele><time>2026-03-25T11:10:49.001Z</time></trkpt><trkpt lat="37.382986935827844" lon="14.369803945667046"><ele>682.3333333333334</ele><time>2026-03-25T11:10:50.001Z</time></trkpt><trkpt lat="37.38297231636837" lon="14.36988239352356"><ele>682.6666666666667</ele><time>2026-03-25T11:10:51.001Z</time></trkpt><trkpt lat="37.38298256967959" lon="14.369962016502422"><ele>683.0</ele><time>2026-03-25T11:10:52.001Z</time></trkpt><trkpt lat="37.38306410383906" lon="14.370049983510182"><ele>683.3333333333334</ele><time>2026-03-25T11:10:54.001Z</time></trkpt><trkpt lat="37.38315917581135" lon="14.370051076756639"><ele>683.6666666666666</ele><time>2026-03-25T11:10:56.001Z</time></trkpt><trkpt lat="37.38312400736687" lon="14.370118003224347"><ele>684.0</ele><time>2026-03-25T11:11:12.002Z</time></trkpt><trkpt lat="37.38303172012253" lon="14.37009153005808"><ele>684.2</ele><time>2026-03-25T11:11:14.002Z</time></trkpt><trkpt lat="37.382907906232916" lon="14.370067947332071"><ele>684.4000000000001</ele><time>2026-03-25T11:11:16.002Z</time></trkpt><trkpt lat="37.3827928164823" lon="14.37004715737384"><ele>684.6</ele><time>2026-03-25T11:11:18.002Z</time></trkpt><trkpt lat="37.382674270910805" lon="14.370025439191938"><ele>684.8</ele><time>2026-03-25T11:11:19.999Z</time></trkpt><trkpt lat="37.38261213600095" lon="14.37001145432639"><ele>685.0</ele><time>2026-03-25T11:11:20.999Z</time></trkpt><trkpt lat="37.382546730372376" lon="14.370003161730171"><ele>685.0</ele><time>2026-03-25T11:11:21.999Z</time></trkpt><trkpt lat="37.382479168828525" lon="14.369993185355995"><ele>685.0</ele><time>2026-03-25T11:11:22.999Z</time></trkpt><trkpt lat="37.382410698479816" lon="14.369979932814616"><ele>685.0</ele><time>2026-03-25T11:11:23.999Z</time></trkpt><trkpt lat="37.38233991709167" lon="14.369967734384124"><ele>685.0</ele><time>2026-03-25T11:11:24.999Z</time></trkpt><trkpt lat="37.382228390064355" lon="14.369942725321106"><ele>685.0</ele><time>2026-03-25T11:11:25.999Z</time></trkpt><trkpt lat="37.38216055149332" lon="14.369927693113214"><ele>685.0</ele><time>2026-03-25T11:11:26.999Z</time></trkpt><trkpt lat="37.38204558609156" lon="14.369907354811343"><ele>686.6</ele><time>2026-03-25T11:11:28.999Z</time></trkpt><trkpt lat="37.381923343212506" lon="14.369880588685122"><ele>688.2</ele><time>2026-03-25T11:11:30.999Z</time></trkpt><trkpt lat="37.381800586527525" lon="14.36986387806711"><ele>689.8</ele><time>2026-03-25T11:11:32.999Z</time></trkpt><trkpt lat="37.38173539934886" lon="14.36985069781297"><ele>691.4</ele><time>2026-03-25T11:11:33.999Z</time></trkpt><trkpt lat="37.38166665581343" lon="14.369834195306746"><ele>693.0</ele><time>2026-03-25T11:11:34.999Z</time></trkpt><trkpt lat="37.38159774142639" lon="14.369826819308274"><ele>693.0</ele><time>2026-03-25T11:11:35.999Z</time></trkpt><trkpt lat="37.3815264146071" lon="14.369805944412196"><ele>693.0</ele><time>2026-03-25T11:11:36.999Z</time></trkpt><trkpt lat="37.38145523932072" lon="14.369792473064432"><ele>693.0</ele><time>2026-03-25T11:11:37.999Z</time></trkpt><trkpt lat="37.38137698621076" lon="14.369783872177411"><ele>693.0</ele><time>2026-03-25T11:11:39Z</time></trkpt><trkpt lat="37.38130131299219" lon="14.369766525012123"><ele>693.0</ele><time>2026-03-25T11:11:40Z</time></trkpt><trkpt lat="37.38122508171727" lon="14.369751437003332"><ele>693.0</ele><time>2026-03-25T11:11:41Z</time></trkpt><trkpt lat="37.38114754870373" lon="14.369736011179283"><ele>693.8333333333334</ele><time>2026-03-25T11:11:42Z</time></trkpt><trkpt lat="37.38106889326171" lon="14.369722207444068"><ele>694.6666666666666</ele><time>2026-03-25T11:11:43Z</time></trkpt><trkpt lat="37.380988942947596" lon="14.369706573222569"><ele>695.5</ele><time>2026-03-25T11:11:44Z</time></trkpt><trkpt lat="37.380910704015086" lon="14.369691406875077"><ele>696.3333333333333</ele><time>2026-03-25T11:11:45Z</time></trkpt><trkpt lat="37.38083501182788" lon="14.369679161581633"><ele>697.1666666666666</ele><time>2026-03-25T11:11:46Z</time></trkpt><trkpt lat="37.38075920407464" lon="14.369666019680059"><ele>698.0</ele><time>2026-03-25T11:11:47Z</time></trkpt><trkpt lat="37.38068837127511" lon="14.369651791163273"><ele>698.0</ele><time>2026-03-25T11:11:48Z</time></trkpt><trkpt lat="37.3806229540993" lon="14.36964040769281"><ele>698.0</ele><time>2026-03-25T11:11:49Z</time></trkpt><trkpt lat="37.38051525790582" lon="14.3696195095441"><ele>698.0</ele><time>2026-03-25T11:11:51Z</time></trkpt><trkpt lat="37.380435188426176" lon="14.369598819694719"><ele>698.0</ele><time>2026-03-25T11:11:54Z</time></trkpt><trkpt lat="37.38037169110753" lon="14.369588140522662"><ele>698.0</ele><time>2026-03-25T11:11:57Z</time></trkpt><trkpt lat="37.380296630532186" lon="14.369562515842288"><ele>698.0</ele><time>2026-03-25T11:12:05Z</time></trkpt><trkpt lat="37.38022577037415" lon="14.369558850192963"><ele>698.1666666666666</ele><time>2026-03-25T11:12:11.001Z</time></trkpt><trkpt lat="37.38016274364353" lon="14.369554984301468"><ele>698.3333333333333</ele><time>2026-03-25T11:12:17.001Z</time></trkpt><trkpt lat="37.38008450866058" lon="14.369545370362715"><ele>698.5</ele><time>2026-03-25T11:12:20.001Z</time></trkpt><trkpt lat="37.38001696715001" lon="14.369535788274016"><ele>698.6666666666666</ele><time>2026-03-25T11:12:22.001Z</time></trkpt><trkpt lat="37.37993191546981" lon="14.369507480889697"><ele>698.8333333333334</ele><time>2026-03-25T11:12:25.001Z</time></trkpt><trkpt lat="37.37985849994715" lon="14.369456294832627"><ele>699.0</ele><time>2026-03-25T11:12:27.001Z</time></trkpt><trkpt lat="37.37977935460167" lon="14.369430761509461"><ele>699.0</ele><time>2026-03-25T11:12:30.001Z</time></trkpt><trkpt lat="37.37971221480787" lon="14.369480454134376"><ele>699.0</ele><time>2026-03-25T11:12:34.001Z</time></trkpt><trkpt lat="37.37964701723473" lon="14.36950069686908"><ele>699.0</ele><time>2026-03-25T11:12:37.001Z</time></trkpt><trkpt lat="37.37958025170377" lon="14.369483261087476"><ele>699.0</ele><time>2026-03-25T11:12:44.001Z</time></trkpt><trkpt lat="37.379515320260616" lon="14.369469971142681"><ele>699.0</ele><time>2026-03-25T11:12:49.002Z</time></trkpt><trkpt lat="37.37942806418112" lon="14.369449496802451"><ele>699.0</ele><time>2026-03-25T11:12:52.002Z</time></trkpt><trkpt lat="37.37932082707562" lon="14.369431818229025"><ele>699.2</ele><time>2026-03-25T11:12:54.002Z</time></trkpt><trkpt lat="37.37921556439448" lon="14.369414259197114"><ele>699.4000000000001</ele><time>2026-03-25T11:12:56.002Z</time></trkpt><trkpt lat="37.37911520152475" lon="14.36939345226566"><ele>699.6</ele><time>2026-03-25T11:12:58.002Z</time></trkpt><trkpt lat="37.37899783541102" lon="14.369367632416811"><ele>699.8</ele><time>2026-03-25T11:13:00.002Z</time></trkpt><trkpt lat="37.37887868024501" lon="14.369341037612246"><ele>700.0</ele><time>2026-03-25T11:13:02.002Z</time></trkpt><trkpt lat="37.37881548044995" lon="14.369327043320872"><ele>700.5</ele><time>2026-03-25T11:13:03.002Z</time></trkpt><trkpt lat="37.378692793920735" lon="14.369303195866587"><ele>701.0</ele><time>2026-03-25T11:13:05.002Z</time></trkpt><trkpt lat="37.37862613553852" lon="14.369287682547352"><ele>701.5</ele><time>2026-03-25T11:13:06.002Z</time></trkpt><trkpt lat="37.37855646538052" lon="14.369271754255205"><ele>702.0</ele><time>2026-03-25T11:13:07.002Z</time></trkpt><trkpt lat="37.37849283786112" lon="14.369252143637555"><ele>702.5</ele><time>2026-03-25T11:13:08.002Z</time></trkpt><trkpt lat="37.37842881798285" lon="14.36923093426228"><ele>703.0</ele><time>2026-03-25T11:13:09.002Z</time></trkpt><trkpt lat="37.37836244285203" lon="14.369206525050528"><ele>703.0</ele><time>2026-03-25T11:13:10.002Z</time></trkpt><trkpt lat="37.37829841097542" lon="14.369181797328904"><ele>703.0</ele><time>2026-03-25T11:13:11.002Z</time></trkpt><trkpt lat="37.378183019570294" lon="14.369130300628845"><ele>703.0</ele><time>2026-03-25T11:13:13.002Z</time></trkpt><trkpt lat="37.378125297068344" lon="14.369098438652253"><ele>703.0</ele><time>2026-03-25T11:13:14.002Z</time></trkpt><trkpt lat="37.37801739408376" lon="14.369034018808195"><ele>703.0</ele><time>2026-03-25T11:13:16.002Z</time></trkpt><trkpt lat="37.377909655077346" lon="14.368970575936348"><ele>703.3333333333334</ele><time>2026-03-25T11:13:18.002Z</time></trkpt><trkpt lat="37.37784819152961" lon="14.368927566921386"><ele>703.6666666666667</ele><time>2026-03-25T11:13:19.002Z</time></trkpt><trkpt lat="37.377784147962444" lon="14.368872708691397"><ele>704.0</ele><time>2026-03-25T11:13:20.002Z</time></trkpt><trkpt lat="37.37772067980961" lon="14.368814624442173"><ele>704.3333333333334</ele><time>2026-03-25T11:13:21.002Z</time></trkpt><trkpt lat="37.37765881875656" lon="14.36875370842369"><ele>704.6666666666666</ele><time>2026-03-25T11:13:22.002Z</time></trkpt><trkpt lat="37.377598072800524" lon="14.368690827578279"><ele>705.0</ele><time>2026-03-25T11:13:23.002Z</time></trkpt><trkpt lat="37.377541726557546" lon="14.368624568161147"><ele>705.0</ele><time>2026-03-25T11:13:24.002Z</time></trkpt><trkpt lat="37.377485443269634" lon="14.368550340045887"><ele>705.0</ele><time>2026-03-25T11:13:25Z</time></trkpt><trkpt lat="37.377421135345195" lon="14.36845481417687"><ele>705.0</ele><time>2026-03-25T11:13:26Z</time></trkpt><trkpt lat="37.37735495077607" lon="14.368356652963895"><ele>705.0</ele><time>2026-03-25T11:13:27Z</time></trkpt><trkpt lat="37.37722371084749" lon="14.36814329823652"><ele>704.8</ele><time>2026-03-25T11:13:29Z</time></trkpt><trkpt lat="37.377163633523324" lon="14.368032656046461"><ele>704.6</ele><time>2026-03-25T11:13:30Z</time></trkpt><trkpt lat="37.37710727709879" lon="14.367919692898312"><ele>704.4000000000001</ele><time>2026-03-25T11:13:31Z</time></trkpt><trkpt lat="37.37705884365236" lon="14.367807937601365"><ele>704.2</ele><time>2026-03-25T11:13:32Z</time></trkpt><trkpt lat="37.37701156604576" lon="14.367692927138027"><ele>704.0</ele><time>2026-03-25T11:13:33Z</time></trkpt><trkpt lat="37.37696569667571" lon="14.367579178975802"><ele>704.0</ele><time>2026-03-25T11:13:34Z</time></trkpt><trkpt lat="37.376921650996536" lon="14.36745823969889"><ele>704.0</ele><time>2026-03-25T11:13:35Z</time></trkpt><trkpt lat="37.37686825994725" lon="14.367343833433646"><ele>704.0</ele><time>2026-03-25T11:13:36Z</time></trkpt><trkpt lat="37.37683592343824" lon="14.367205107748946"><ele>704.0</ele><time>2026-03-25T11:13:37Z</time></trkpt><trkpt lat="37.37678709574616" lon="14.367078367694303"><ele>704.0</ele><time>2026-03-25T11:13:38Z</time></trkpt><trkpt lat="37.37673800388042" lon="14.366952510342943"><ele>703.2</ele><time>2026-03-25T11:13:39Z</time></trkpt><trkpt lat="37.37669510940615" lon="14.366825383328958"><ele>702.4000000000001</ele><time>2026-03-25T11:13:40Z</time></trkpt><trkpt lat="37.37665324871878" lon="14.366705185057322"><ele>701.6</ele><time>2026-03-25T11:13:41Z</time></trkpt><trkpt lat="37.37661416113632" lon="14.3665923265127"><ele>700.8</ele><time>2026-03-25T11:13:42Z</time></trkpt><trkpt lat="37.37657324890035" lon="14.366476867882524"><ele>700.0</ele><time>2026-03-25T11:13:43Z</time></trkpt><trkpt lat="37.37648760592893" lon="14.366237166549892"><ele>699.2</ele><time>2026-03-25T11:13:45Z</time></trkpt><trkpt lat="37.376444384343216" lon="14.366111862097725"><ele>698.4</ele><time>2026-03-25T11:13:46Z</time></trkpt><trkpt lat="37.3764009611548" lon="14.365984171805161"><ele>697.5999999999999</ele><time>2026-03-25T11:13:47Z</time></trkpt><trkpt lat="37.37635763538481" lon="14.365854674227384"><ele>696.8</ele><time>2026-03-25T11:13:48Z</time></trkpt><trkpt lat="37.376313970716886" lon="14.365719301379063"><ele>696.0</ele><time>2026-03-25T11:13:49Z</time></trkpt><trkpt lat="37.37626716801798" lon="14.365581992033851"><ele>695.25</ele><time>2026-03-25T11:13:50Z</time></trkpt><trkpt lat="37.37621783967896" lon="14.365438958067077"><ele>694.5</ele><time>2026-03-25T11:13:51Z</time></trkpt><trkpt lat="37.376165199010345" lon="14.365291957255044"><ele>693.75</ele><time>2026-03-25T11:13:52Z</time></trkpt><trkpt lat="37.37611568913815" lon="14.365140153315041"><ele>693.0</ele><time>2026-03-25T11:13:53Z</time></trkpt><trkpt lat="37.37606663982884" lon="14.364992285931539"><ele>693.0</ele><time>2026-03-25T11:13:54Z</time></trkpt><trkpt lat="37.37601893950602" lon="14.364852954103997"><ele>693.0</ele><time>2026-03-25T11:13:55Z</time></trkpt><trkpt lat="37.37597313596128" lon="14.364718174804224"><ele>693.0</ele><time>2026-03-25T11:13:56Z</time></trkpt><trkpt lat="37.375932059657295" lon="14.364590930910273"><ele>693.0</ele><time>2026-03-25T11:13:57Z</time></trkpt><trkpt lat="37.37589169758063" lon="14.364472526512564"><ele>693.0</ele><time>2026-03-25T11:13:58Z</time></trkpt><trkpt lat="37.37584854982051" lon="14.364351968997122"><ele>692.4</ele><time>2026-03-25T11:13:59Z</time></trkpt><trkpt lat="37.375803009140604" lon="14.364232111365478"><ele>691.8</ele><time>2026-03-25T11:14:00Z</time></trkpt><trkpt lat="37.37576502207938" lon="14.364120286500686"><ele>691.2</ele><time>2026-03-25T11:14:01Z</time></trkpt><trkpt lat="37.37572803518104" lon="14.36401529416652"><ele>690.6</ele><time>2026-03-25T11:14:02.001Z</time></trkpt><trkpt lat="37.375692494231366" lon="14.36391124400176"><ele>690.0</ele><time>2026-03-25T11:14:03.001Z</time></trkpt><trkpt lat="37.37565364432113" lon="14.363794823693022"><ele>690.0</ele><time>2026-03-25T11:14:04.001Z</time></trkpt><trkpt lat="37.375612676168714" lon="14.363670304038836"><ele>690.0</ele><time>2026-03-25T11:14:05.001Z</time></trkpt><trkpt lat="37.37557080562118" lon="14.363542074671738"><ele>690.0</ele><time>2026-03-25T11:14:06.001Z</time></trkpt><trkpt lat="37.375525275565025" lon="14.363417931795917"><ele>690.0</ele><time>2026-03-25T11:14:07.001Z</time></trkpt><trkpt lat="37.375479916527965" lon="14.363295385077832"><ele>690.0</ele><time>2026-03-25T11:14:08.001Z</time></trkpt><trkpt lat="37.37544025767741" lon="14.363178353865353"><ele>689.4</ele><time>2026-03-25T11:14:09.001Z</time></trkpt><trkpt lat="37.37540225384343" lon="14.363060035404189"><ele>688.8</ele><time>2026-03-25T11:14:10.001Z</time></trkpt><trkpt lat="37.37536807453418" lon="14.362950056305438"><ele>688.2</ele><time>2026-03-25T11:14:11.001Z</time></trkpt><trkpt lat="37.37533729686436" lon="14.362855947163718"><ele>687.6</ele><time>2026-03-25T11:14:12.001Z</time></trkpt><trkpt lat="37.375307501397025" lon="14.362760603349471"><ele>687.0</ele><time>2026-03-25T11:14:13.001Z</time></trkpt><trkpt lat="37.375263455426825" lon="14.362650655500131"><ele>685.2</ele><time>2026-03-25T11:14:14.001Z</time></trkpt><trkpt lat="37.37521405257986" lon="14.362532811441003"><ele>683.4000000000001</ele><time>2026-03-25T11:14:15.001Z</time></trkpt><trkpt lat="37.37516821013925" lon="14.362412762263403"><ele>681.5999999999999</ele><time>2026-03-25T11:14:16.001Z</time></trkpt><trkpt lat="37.375123599730884" lon="14.362288686014407"><ele>679.8</ele><time>2026-03-25T11:14:17.001Z</time></trkpt><trkpt lat="37.37507837897787" lon="14.36215898928845"><ele>678.0</ele><time>2026-03-25T11:14:18.001Z</time></trkpt><trkpt lat="37.37503032530668" lon="14.362027213169677"><ele>677.5</ele><time>2026-03-25T11:14:19.001Z</time></trkpt><trkpt lat="37.37497981718163" lon="14.361892771362944"><ele>677.0</ele><time>2026-03-25T11:14:20.001Z</time></trkpt><trkpt lat="37.37492946759248" lon="14.361754679493615"><ele>676.5</ele><time>2026-03-25T11:14:21.001Z</time></trkpt><trkpt lat="37.374880925079566" lon="14.36162306653449"><ele>676.0</ele><time>2026-03-25T11:14:22.001Z</time></trkpt><trkpt lat="37.37483510959827" lon="14.361500339419848"><ele>676.0</ele><time>2026-03-25T11:14:23.001Z</time></trkpt><trkpt lat="37.37479039293477" lon="14.361385266641252"><ele>676.0</ele><time>2026-03-25T11:14:24.001Z</time></trkpt><trkpt lat="37.37474325037721" lon="14.361278885756041"><ele>676.0</ele><time>2026-03-25T11:14:25.001Z</time></trkpt><trkpt lat="37.37470327496683" lon="14.36117876915184"><ele>676.0</ele><time>2026-03-25T11:14:26.001Z</time></trkpt><trkpt lat="37.37466765983726" lon="14.361096506774725"><ele>676.0</ele><time>2026-03-25T11:14:27.001Z</time></trkpt><trkpt lat="37.374636689066925" lon="14.36101500971949"><ele>676.0</ele><time>2026-03-25T11:14:28.001Z</time></trkpt><trkpt lat="37.37460534465884" lon="14.360936892423158"><ele>674.3333333333334</ele><time>2026-03-25T11:14:29.001Z</time></trkpt><trkpt lat="37.374575780777306" lon="14.360863425528494"><ele>672.6666666666667</ele><time>2026-03-25T11:14:30.001Z</time></trkpt><trkpt lat="37.37452914248378" lon="14.360715921000871"><ele>671.0</ele><time>2026-03-25T11:14:32.001Z</time></trkpt><trkpt lat="37.37451387260707" lon="14.360630339932364"><ele>669.3333333333334</ele><time>2026-03-25T11:14:33.001Z</time></trkpt><trkpt lat="37.37450400618216" lon="14.360532633879595"><ele>667.6666666666666</ele><time>2026-03-25T11:14:34.001Z</time></trkpt><trkpt lat="37.3744977173761" lon="14.360426099694676"><ele>666.0</ele><time>2026-03-25T11:14:35.001Z</time></trkpt><trkpt lat="37.37448816349168" lon="14.36031267514591"><ele>665.5999999999999</ele><time>2026-03-25T11:14:36.001Z</time></trkpt><trkpt lat="37.37447687187416" lon="14.360193853871579"><ele>665.2</ele><time>2026-03-25T11:14:37.001Z</time></trkpt><trkpt lat="37.374464272291455" lon="14.360071338076848"><ele>664.8</ele><time>2026-03-25T11:14:38.002Z</time></trkpt><trkpt lat="37.374455300351144" lon="14.359941758302881"><ele>664.4000000000001</ele><time>2026-03-25T11:14:39.002Z</time></trkpt><trkpt lat="37.37444148442683" lon="14.359783881019853"><ele>664.0</ele><time>2026-03-25T11:14:40.002Z</time></trkpt><trkpt lat="37.37441514871511" lon="14.359592733632947"><ele>662.3333333333334</ele><time>2026-03-25T11:14:41.002Z</time></trkpt><trkpt lat="37.374389121254744" lon="14.35937992265579"><ele>660.6666666666666</ele><time>2026-03-25T11:14:42.002Z</time></trkpt><trkpt lat="37.37436767515032" lon="14.359139138935644"><ele>659.0</ele><time>2026-03-25T11:14:43.002Z</time></trkpt><trkpt lat="37.374350348180485" lon="14.358894351646475"><ele>658.0</ele><time>2026-03-25T11:14:44.002Z</time></trkpt><trkpt lat="37.3743322571957" lon="14.358667300755886"><ele>657.0</ele><time>2026-03-25T11:14:45.002Z</time></trkpt><trkpt lat="37.37430710083621" lon="14.358453140019817"><ele>656.0</ele><time>2026-03-25T11:14:46.002Z</time></trkpt><trkpt lat="37.374259855159444" lon="14.358254855482604"><ele>656.0</ele><time>2026-03-25T11:14:47.002Z</time></trkpt><trkpt lat="37.374181833225855" lon="14.358058856780966"><ele>656.0</ele><time>2026-03-25T11:14:48.002Z</time></trkpt><trkpt lat="37.37407621231919" lon="14.35787878520075"><ele>656.0</ele><time>2026-03-25T11:14:49.002Z</time></trkpt><trkpt lat="37.37396068534939" lon="14.357709090691332"><ele>655.0</ele><time>2026-03-25T11:14:50.002Z</time></trkpt><trkpt lat="37.37384485502991" lon="14.3575547343689"><ele>654.0</ele><time>2026-03-25T11:14:51.002Z</time></trkpt><trkpt lat="37.373728874941946" lon="14.357402173775217"><ele>653.0</ele><time>2026-03-25T11:14:52.002Z</time></trkpt><trkpt lat="37.3736168081332" lon="14.357248486725492"><ele>654.6666666666666</ele><time>2026-03-25T11:14:53.002Z</time></trkpt><trkpt lat="37.373509196219295" lon="14.357100789038375"><ele>656.3333333333334</ele><time>2026-03-25T11:14:54.002Z</time></trkpt><trkpt lat="37.3734027088122" lon="14.356954269086094"><ele>658.0</ele><time>2026-03-25T11:14:55.002Z</time></trkpt><trkpt lat="37.37319694356475" lon="14.356667903261295"><ele>658.0</ele><time>2026-03-25T11:14:57.002Z</time></trkpt><trkpt lat="37.3730952081666" lon="14.356524447966263"><ele>658.0</ele><time>2026-03-25T11:14:58.002Z</time></trkpt><trkpt lat="37.37299923206712" lon="14.356389863428838"><ele>658.0</ele><time>2026-03-25T11:14:59.002Z</time></trkpt><trkpt lat="37.37290517422765" lon="14.356256309575596"><ele>658.0</ele><time>2026-03-25T11:15:00.002Z</time></trkpt><trkpt lat="37.372816947151684" lon="14.3561323555392"><ele>658.25</ele><time>2026-03-25T11:15:01.002Z</time></trkpt><trkpt lat="37.37273124646854" lon="14.356013661899127"><ele>658.5</ele><time>2026-03-25T11:15:02.002Z</time></trkpt><trkpt lat="37.37264378332214" lon="14.355909881869879"><ele>658.75</ele><time>2026-03-25T11:15:03.002Z</time></trkpt><trkpt lat="37.37255077022041" lon="14.355834600981716"><ele>659.0</ele><time>2026-03-25T11:15:04.002Z</time></trkpt><trkpt lat="37.372451715017114" lon="14.355791571539568"><ele>659.0</ele><time>2026-03-25T11:15:05.002Z</time></trkpt><trkpt lat="37.37235093032646" lon="14.35578079555605"><ele>659.0</ele><time>2026-03-25T11:15:06.002Z</time></trkpt><trkpt lat="37.372254590278324" lon="14.355799066386098"><ele>659.0</ele><time>2026-03-25T11:15:07.002Z</time></trkpt><trkpt lat="37.37216160120053" lon="14.355842650744535"><ele>659.0</ele><time>2026-03-25T11:15:08.002Z</time></trkpt><trkpt lat="37.37207464327455" lon="14.355904325773857"><ele>659.0</ele><time>2026-03-25T11:15:09.002Z</time></trkpt><trkpt lat="37.371998926827295" lon="14.355986439703466"><ele>658.4000000000001</ele><time>2026-03-25T11:15:10.002Z</time></trkpt><trkpt lat="37.371943135720514" lon="14.356088521156723"><ele>657.8</ele><time>2026-03-25T11:15:11.002Z</time></trkpt><trkpt lat="37.371906620275794" lon="14.356206717943525"><ele>657.2</ele><time>2026-03-25T11:15:12.002Z</time></trkpt><trkpt lat="37.37188842067199" lon="14.356325870151583"><ele>656.5999999999999</ele><time>2026-03-25T11:15:13.002Z</time></trkpt><trkpt lat="37.371873762296424" lon="14.35644127716444"><ele>656.0</ele><time>2026-03-25T11:15:14.002Z</time></trkpt><trkpt lat="37.37184986263338" lon="14.356548664320846"><ele>656.0</ele><time>2026-03-25T11:15:15.002Z</time></trkpt><trkpt lat="37.37180647024944" lon="14.356647534472494"><ele>656.0</ele><time>2026-03-25T11:15:16.003Z</time></trkpt><trkpt lat="37.37174712772978" lon="14.356725829658915"><ele>656.0</ele><time>2026-03-25T11:15:17.003Z</time></trkpt><trkpt lat="37.37166878603586" lon="14.356778231555438"><ele>656.0</ele><time>2026-03-25T11:15:18.003Z</time></trkpt><trkpt lat="37.371582701282236" lon="14.356809589140614"><ele>656.0</ele><time>2026-03-25T11:15:19.003Z</time></trkpt><trkpt lat="37.371483737040585" lon="14.356817044549578"><ele>656.0</ele><time>2026-03-25T11:15:20.003Z</time></trkpt><trkpt lat="37.371377874644644" lon="14.356806451609184"><ele>656.0</ele><time>2026-03-25T11:15:21.003Z</time></trkpt><trkpt lat="37.37125842256412" lon="14.356773508440515"><ele>656.0</ele><time>2026-03-25T11:15:22.003Z</time></trkpt><trkpt lat="37.37111071625317" lon="14.356742798854645"><ele>656.0</ele><time>2026-03-25T11:15:23.003Z</time></trkpt><trkpt lat="37.37093893702858" lon="14.356712493504293"><ele>654.6666666666666</ele><time>2026-03-25T11:15:24.003Z</time></trkpt><trkpt lat="37.37075465273086" lon="14.356657139813796"><ele>653.3333333333334</ele><time>2026-03-25T11:15:25.003Z</time></trkpt><trkpt lat="37.370552814555296" lon="14.35658767933115"><ele>652.0</ele><time>2026-03-25T11:15:26.003Z</time></trkpt><trkpt lat="37.370341866090556" lon="14.356510325267294"><ele>650.0</ele><time>2026-03-25T11:15:27.003Z</time></trkpt><trkpt lat="37.37012527899543" lon="14.356421937381656"><ele>648.0</ele><time>2026-03-25T11:15:28.003Z</time></trkpt><trkpt lat="37.36990603610612" lon="14.3563082319768"><ele>652.5</ele><time>2026-03-25T11:15:29.003Z</time></trkpt><trkpt lat="37.36969091054084" lon="14.35616480620982"><ele>657.0</ele><time>2026-03-25T11:15:30.003Z</time></trkpt><trkpt lat="37.36948594921322" lon="14.355989903614658"><ele>657.0</ele><time>2026-03-25T11:15:31Z</time></trkpt><trkpt lat="37.36929577716986" lon="14.355784910788334"><ele>657.0</ele><time>2026-03-25T11:15:32Z</time></trkpt><trkpt lat="37.36911903751334" lon="14.355554229075635"><ele>658.0</ele><time>2026-03-25T11:15:33Z</time></trkpt><trkpt lat="37.368949643180535" lon="14.35530411387838"><ele>659.0</ele><time>2026-03-25T11:15:34Z</time></trkpt><trkpt lat="37.36877188296897" lon="14.355063342991938"><ele>659.0</ele><time>2026-03-25T11:15:35Z</time></trkpt><trkpt lat="37.36858882225125" lon="14.354834403025786"><ele>659.0</ele><time>2026-03-25T11:15:36Z</time></trkpt><trkpt lat="37.36840364209481" lon="14.354620109907849"><ele>660.0</ele><time>2026-03-25T11:15:37Z</time></trkpt><trkpt lat="37.36821651267298" lon="14.35442885359794"><ele>661.0</ele><time>2026-03-25T11:15:38Z</time></trkpt><trkpt lat="37.368021026889174" lon="14.354261460727423"><ele>662.0</ele><time>2026-03-25T11:15:39Z</time></trkpt><trkpt lat="37.36781484416626" lon="14.354107751194714"><ele>663.0</ele><time>2026-03-25T11:15:40Z</time></trkpt><trkpt lat="37.367597655954135" lon="14.353960959671962"><ele>667.0</ele><time>2026-03-25T11:15:41Z</time></trkpt><trkpt lat="37.367375474357715" lon="14.353827165765809"><ele>671.0</ele><time>2026-03-25T11:15:42Z</time></trkpt><trkpt lat="37.36714314212642" lon="14.353706537089895"><ele>671.0</ele><time>2026-03-25T11:15:43Z</time></trkpt><trkpt lat="37.366901184955836" lon="14.353611719349864"><ele>671.0</ele><time>2026-03-25T11:15:44Z</time></trkpt><trkpt lat="37.366655475331974" lon="14.353539438145267"><ele>671.0</ele><time>2026-03-25T11:15:45Z</time></trkpt><trkpt lat="37.36640326917223" lon="14.353483687855086"><ele>671.0</ele><time>2026-03-25T11:15:46Z</time></trkpt><trkpt lat="37.36615008133781" lon="14.353448608792338"><ele>669.5</ele><time>2026-03-25T11:15:47Z</time></trkpt><trkpt lat="37.36589346496654" lon="14.353448115130695"><ele>668.0</ele><time>2026-03-25T11:15:48Z</time></trkpt><trkpt lat="37.36563892667593" lon="14.353464069787657"><ele>669.5</ele><time>2026-03-25T11:15:49Z</time></trkpt><trkpt lat="37.365385586874915" lon="14.353494288583024"><ele>671.0</ele><time>2026-03-25T11:15:50Z</time></trkpt><trkpt lat="37.36512925596938" lon="14.353537671624128"><ele>671.0</ele><time>2026-03-25T11:15:51Z</time></trkpt><trkpt lat="37.364870513927976" lon="14.35358821096422"><ele>671.0</ele><time>2026-03-25T11:15:52Z</time></trkpt><trkpt lat="37.36461160385225" lon="14.353643654283237"><ele>672.0</ele><time>2026-03-25T11:15:53Z</time></trkpt><trkpt lat="37.36435670086698" lon="14.353706545369688"><ele>673.0</ele><time>2026-03-25T11:15:54Z</time></trkpt><trkpt lat="37.36410329609377" lon="14.353770617374128"><ele>674.5</ele><time>2026-03-25T11:15:55Z</time></trkpt><trkpt lat="37.363850652350386" lon="14.353834958638998"><ele>676.0</ele><time>2026-03-25T11:15:56Z</time></trkpt><trkpt lat="37.36359593452479" lon="14.353908552551689"><ele>671.0</ele><time>2026-03-25T11:15:57Z</time></trkpt><trkpt lat="37.36333878319378" lon="14.353994049681615"><ele>666.0</ele><time>2026-03-25T11:15:58.001Z</time></trkpt><trkpt lat="37.363082688307514" lon="14.354095905746684"><ele>667.0</ele><time>2026-03-25T11:15:59.001Z</time></trkpt><trkpt lat="37.362830053463014" lon="14.354222729445338"><ele>668.0</ele><time>2026-03-25T11:16:00.001Z</time></trkpt><trkpt lat="37.36258386726407" lon="14.354375842119774"><ele>668.0</ele><time>2026-03-25T11:16:01.001Z</time></trkpt><trkpt lat="37.36234396684287" lon="14.354545130169377"><ele>668.0</ele><time>2026-03-25T11:16:02.001Z</time></trkpt><trkpt lat="37.362110150950485" lon="14.354720352916969"><ele>669.0</ele><time>2026-03-25T11:16:03.001Z</time></trkpt><trkpt lat="37.361875418444725" lon="14.354894025590363"><ele>670.0</ele><time>2026-03-25T11:16:04.001Z</time></trkpt><trkpt lat="37.361641058662265" lon="14.355063786568696"><ele>670.0</ele><time>2026-03-25T11:16:05.001Z</time></trkpt><trkpt lat="37.3614063761514" lon="14.35522781540518"><ele>670.0</ele><time>2026-03-25T11:16:06.001Z</time></trkpt><trkpt lat="37.36116772781668" lon="14.355378429081817"><ele>668.5</ele><time>2026-03-25T11:16:07.001Z</time></trkpt><trkpt lat="37.360920095885746" lon="14.35551377369768"><ele>667.0</ele><time>2026-03-25T11:16:08.001Z</time></trkpt><trkpt lat="37.36066237602358" lon="14.355623957109774"><ele>658.5</ele><time>2026-03-25T11:16:09.001Z</time></trkpt><trkpt lat="37.36039604470903" lon="14.355714538933878"><ele>650.0</ele><time>2026-03-25T11:16:10.001Z</time></trkpt><trkpt lat="37.36012217924406" lon="14.355789319918516"><ele>650.0</ele><time>2026-03-25T11:16:11.001Z</time></trkpt><trkpt lat="37.35984400464018" lon="14.355852810529143"><ele>650.0</ele><time>2026-03-25T11:16:12.001Z</time></trkpt><trkpt lat="37.35956410958711" lon="14.355912980045856"><ele>649.0</ele><time>2026-03-25T11:16:13.001Z</time></trkpt><trkpt lat="37.359286696781666" lon="14.355970184743574"><ele>648.0</ele><time>2026-03-25T11:16:14.001Z</time></trkpt><trkpt lat="37.35900993919976" lon="14.356012961564836"><ele>646.0</ele><time>2026-03-25T11:16:15.001Z</time></trkpt><trkpt lat="37.358735696183196" lon="14.356021170405887"><ele>644.0</ele><time>2026-03-25T11:16:16.001Z</time></trkpt><trkpt lat="37.35846829380813" lon="14.355991376831668"><ele>644.0</ele><time>2026-03-25T11:16:17.001Z</time></trkpt><trkpt lat="37.35820749066652" lon="14.355924912177167"><ele>644.0</ele><time>2026-03-25T11:16:18.001Z</time></trkpt><trkpt lat="37.357950609578076" lon="14.355826610930126"><ele>641.0</ele><time>2026-03-25T11:16:19.001Z</time></trkpt><trkpt lat="37.3576985283055" lon="14.355698793233072"><ele>638.0</ele><time>2026-03-25T11:16:20.001Z</time></trkpt><trkpt lat="37.357454581937525" lon="14.355544249109903"><ele>634.5</ele><time>2026-03-25T11:16:21.001Z</time></trkpt><trkpt lat="37.357218543971754" lon="14.35536918949781"><ele>631.0</ele><time>2026-03-25T11:16:22.001Z</time></trkpt><trkpt lat="37.356986302142374" lon="14.355181507612514"><ele>626.5</ele><time>2026-03-25T11:16:23.001Z</time></trkpt><trkpt lat="37.3567538775212" lon="14.354991537211284"><ele>622.0</ele><time>2026-03-25T11:16:24.001Z</time></trkpt><trkpt lat="37.3565219934494" lon="14.35480339949375"><ele>616.0</ele><time>2026-03-25T11:16:25.001Z</time></trkpt><trkpt lat="37.35628637368666" lon="14.35461648633506"><ele>610.0</ele><time>2026-03-25T11:16:26.001Z</time></trkpt><trkpt lat="37.35605042130161" lon="14.354429808059612"><ele>610.0</ele><time>2026-03-25T11:16:27.001Z</time></trkpt><trkpt lat="37.35581233614785" lon="14.354249618094565"><ele>610.0</ele><time>2026-03-25T11:16:28.001Z</time></trkpt><trkpt lat="37.35557472086464" lon="14.354070390641379"><ele>611.5</ele><time>2026-03-25T11:16:29.001Z</time></trkpt><trkpt lat="37.35533388982636" lon="14.353894893896303"><ele>613.0</ele><time>2026-03-25T11:16:30.001Z</time></trkpt><trkpt lat="37.355089499713294" lon="14.353732934991164"><ele>613.0</ele><time>2026-03-25T11:16:31.001Z</time></trkpt><trkpt lat="37.354835465088755" lon="14.353598622449866"><ele>613.0</ele><time>2026-03-25T11:16:32.001Z</time></trkpt><trkpt lat="37.354573571381565" lon="14.353505710461484"><ele>610.0</ele><time>2026-03-25T11:16:33.001Z</time></trkpt><trkpt lat="37.35430200483759" lon="14.353448744657568"><ele>607.0</ele><time>2026-03-25T11:16:34.002Z</time></trkpt><trkpt lat="37.35402518024824" lon="14.35342749329266"><ele>601.0</ele><time>2026-03-25T11:16:35.002Z</time></trkpt><trkpt lat="37.35374225536926" lon="14.353439580384132"><ele>595.0</ele><time>2026-03-25T11:16:36.002Z</time></trkpt><trkpt lat="37.35345585800129" lon="14.35347513722967"><ele>595.0</ele><time>2026-03-25T11:16:37.002Z</time></trkpt><trkpt lat="37.35316890164372" lon="14.35354281895834"><ele>595.0</ele><time>2026-03-25T11:16:38.002Z</time></trkpt><trkpt lat="37.352884837873525" lon="14.353623665565593"><ele>587.0</ele><time>2026-03-25T11:16:39.002Z</time></trkpt><trkpt lat="37.35260119300532" lon="14.353706930273828"><ele>579.0</ele><time>2026-03-25T11:16:40.002Z</time></trkpt><trkpt lat="37.352317107003884" lon="14.353782919698176"><ele>573.5</ele><time>2026-03-25T11:16:41.002Z</time></trkpt><trkpt lat="37.35203364538507" lon="14.3538411401698"><ele>568.0</ele><time>2026-03-25T11:16:42.002Z</time></trkpt><trkpt lat="37.35175297599771" lon="14.353869857917879"><ele>568.0</ele><time>2026-03-25T11:16:43.002Z</time></trkpt><trkpt lat="37.35147240991493" lon="14.353860602206844"><ele>568.0</ele><time>2026-03-25T11:16:44.002Z</time></trkpt><trkpt lat="37.35119534125606" lon="14.353816165397104"><ele>564.0</ele><time>2026-03-25T11:16:45.002Z</time></trkpt><trkpt lat="37.350925277511124" lon="14.353732395601691"><ele>560.0</ele><time>2026-03-25T11:16:46.002Z</time></trkpt><trkpt lat="37.35065953110444" lon="14.35361239685465"><ele>561.0</ele><time>2026-03-25T11:16:47.002Z</time></trkpt><trkpt lat="37.35040432452313" lon="14.3534591871541"><ele>562.0</ele><time>2026-03-25T11:16:48.002Z</time></trkpt><trkpt lat="37.35015845028794" lon="14.35327532387489"><ele>562.0</ele><time>2026-03-25T11:16:49.002Z</time></trkpt><trkpt lat="37.34992059889794" lon="14.353071649881281"><ele>562.0</ele><time>2026-03-25T11:16:50.002Z</time></trkpt><trkpt lat="37.34968384775335" lon="14.352854024289341"><ele>567.5</ele><time>2026-03-25T11:16:51.002Z</time></trkpt><trkpt lat="37.349449120661255" lon="14.352635773654306"><ele>573.0</ele><time>2026-03-25T11:16:52.002Z</time></trkpt><trkpt lat="37.3492134355944" lon="14.352419687197921"><ele>573.0</ele><time>2026-03-25T11:16:53.002Z</time></trkpt><trkpt lat="37.34897505434256" lon="14.352207291510512"><ele>573.0</ele><time>2026-03-25T11:16:54.002Z</time></trkpt><trkpt lat="37.348735783786026" lon="14.351995923317768"><ele>577.0</ele><time>2026-03-25T11:16:55.002Z</time></trkpt><trkpt lat="37.34849708728017" lon="14.351783355262452"><ele>581.0</ele><time>2026-03-25T11:16:56.002Z</time></trkpt><trkpt lat="37.34825985419637" lon="14.351574747361317"><ele>580.0</ele><time>2026-03-25T11:16:57.002Z</time></trkpt><trkpt lat="37.3480238397652" lon="14.351366289319206"><ele>579.0</ele><time>2026-03-25T11:16:58.002Z</time></trkpt><trkpt lat="37.34779254534654" lon="14.351161821062563"><ele>579.0</ele><time>2026-03-25T11:16:59.002Z</time></trkpt><trkpt lat="37.347564429072264" lon="14.350968001826248"><ele>579.0</ele><time>2026-03-25T11:17:00.002Z</time></trkpt><trkpt lat="37.34733650214923" lon="14.350791066406412"><ele>579.0</ele><time>2026-03-25T11:17:01.002Z</time></trkpt><trkpt lat="37.347101782646824" lon="14.350645811307622"><ele>579.0</ele><time>2026-03-25T11:17:02.002Z</time></trkpt><trkpt lat="37.34685774646507" lon="14.35052674045544"><ele>579.0</ele><time>2026-03-25T11:17:03.002Z</time></trkpt><trkpt lat="37.34660583291442" lon="14.350438388191542"><ele>579.0</ele><time>2026-03-25T11:17:04.002Z</time></trkpt><trkpt lat="37.34634995992223" lon="14.35037702738121"><ele>581.0</ele><time>2026-03-25T11:17:05.002Z</time></trkpt><trkpt lat="37.34608788954492" lon="14.35034991976746"><ele>583.0</ele><time>2026-03-25T11:17:06.002Z</time></trkpt><trkpt lat="37.34582719128862" lon="14.350350308124563"><ele>583.0</ele><time>2026-03-25T11:17:07.002Z</time></trkpt><trkpt lat="37.34556869675416" lon="14.350382130660842"><ele>583.0</ele><time>2026-03-25T11:17:08.002Z</time></trkpt><trkpt lat="37.34531699511385" lon="14.350444124684195"><ele>583.0</ele><time>2026-03-25T11:17:09.002Z</time></trkpt><trkpt lat="37.34507504662658" lon="14.350542779973404"><ele>583.0</ele><time>2026-03-25T11:17:10.002Z</time></trkpt><trkpt lat="37.34483810797495" lon="14.350669190358282"><ele>588.0</ele><time>2026-03-25T11:17:11.003Z</time></trkpt><trkpt lat="37.3446141781396" lon="14.35082402181848"><ele>593.0</ele><time>2026-03-25T11:17:12.003Z</time></trkpt><trkpt lat="37.34440031949712" lon="14.350996861187435"><ele>593.0</ele><time>2026-03-25T11:17:13.003Z</time></trkpt><trkpt lat="37.34419995824555" lon="14.351192272582086"><ele>593.0</ele><time>2026-03-25T11:17:14.003Z</time></trkpt><trkpt lat="37.34401219857912" lon="14.351419055548035"><ele>596.0</ele><time>2026-03-25T11:17:15.003Z</time></trkpt><trkpt lat="37.3438345405897" lon="14.35166803664261"><ele>599.0</ele><time>2026-03-25T11:17:16.003Z</time></trkpt><trkpt lat="37.343664700230896" lon="14.35193672816492"><ele>597.5</ele><time>2026-03-25T11:17:17.003Z</time></trkpt><trkpt lat="37.343502443693474" lon="14.352220900061544"><ele>596.0</ele><time>2026-03-25T11:17:18.003Z</time></trkpt><trkpt lat="37.34333572363831" lon="14.352510175460008"><ele>596.0</ele><time>2026-03-25T11:17:19.003Z</time></trkpt><trkpt lat="37.343166713500224" lon="14.352798486555905"><ele>596.0</ele><time>2026-03-25T11:17:20.003Z</time></trkpt><trkpt lat="37.342996251907415" lon="14.353087741103217"><ele>598.0</ele><time>2026-03-25T11:17:21.003Z</time></trkpt><trkpt lat="37.34282325035743" lon="14.353378794658116"><ele>600.0</ele><time>2026-03-25T11:17:22.003Z</time></trkpt><trkpt lat="37.342648200999385" lon="14.353672654183612"><ele>599.0</ele><time>2026-03-25T11:17:23.003Z</time></trkpt><trkpt lat="37.34247268915333" lon="14.353968341493474"><ele>598.0</ele><time>2026-03-25T11:17:24.003Z</time></trkpt><trkpt lat="37.342300522239924" lon="14.354267766400962"><ele>602.0</ele><time>2026-03-25T11:17:25.003Z</time></trkpt><trkpt lat="37.34213176823905" lon="14.354570532567648"><ele>606.0</ele><time>2026-03-25T11:17:26.003Z</time></trkpt><trkpt lat="37.34196942724507" lon="14.354872787686398"><ele>606.0</ele><time>2026-03-25T11:17:27.003Z</time></trkpt><trkpt lat="37.341817448460034" lon="14.355179243270774"><ele>606.0</ele><time>2026-03-25T11:17:28.003Z</time></trkpt><trkpt lat="37.3416754751808" lon="14.355492334482397"><ele>605.0</ele><time>2026-03-25T11:17:29.003Z</time></trkpt><trkpt lat="37.34154470875326" lon="14.355809359502743"><ele>604.0</ele><time>2026-03-25T11:17:30.003Z</time></trkpt><trkpt lat="37.34142379501798" lon="14.356130610408355"><ele>605.0</ele><time>2026-03-25T11:17:31.003Z</time></trkpt><trkpt lat="37.3413067722856" lon="14.35645103997034"><ele>606.0</ele><time>2026-03-25T11:17:32.003Z</time></trkpt><trkpt lat="37.341186365586566" lon="14.356767501966953"><ele>606.0</ele><time>2026-03-25T11:17:33.003Z</time></trkpt><trkpt lat="37.34105947882539" lon="14.35707982894572"><ele>606.0</ele><time>2026-03-25T11:17:34.003Z</time></trkpt><trkpt lat="37.34092233169227" lon="14.357384715161963"><ele>606.0</ele><time>2026-03-25T11:17:35.003Z</time></trkpt><trkpt lat="37.340772686870324" lon="14.35767763580575"><ele>606.0</ele><time>2026-03-25T11:17:36.003Z</time></trkpt><trkpt lat="37.3406070519167" lon="14.357959726889609"><ele>606.5</ele><time>2026-03-25T11:17:37.001Z</time></trkpt><trkpt lat="37.340423700498526" lon="14.358236534389038"><ele>607.0</ele><time>2026-03-25T11:17:38.001Z</time></trkpt><trkpt lat="37.340232588278354" lon="14.35851411081355"><ele>607.0</ele><time>2026-03-25T11:17:39.001Z</time></trkpt><trkpt lat="37.34004122541624" lon="14.35879487298946"><ele>607.0</ele><time>2026-03-25T11:17:40.001Z</time></trkpt><trkpt lat="37.33984880092018" lon="14.359077250693336"><ele>608.0</ele><time>2026-03-25T11:17:41.001Z</time></trkpt><trkpt lat="37.33965461665689" lon="14.35936148940464"><ele>609.0</ele><time>2026-03-25T11:17:42.001Z</time></trkpt><trkpt lat="37.33946017239522" lon="14.359649980488726"><ele>611.5</ele><time>2026-03-25T11:17:43.001Z</time></trkpt><trkpt lat="37.33926253878252" lon="14.359940778871984"><ele>614.0</ele><time>2026-03-25T11:17:44.001Z</time></trkpt><trkpt lat="37.339062753761375" lon="14.360230345895658"><ele>615.5</ele><time>2026-03-25T11:17:45.001Z</time></trkpt><trkpt lat="37.33886299578558" lon="14.360518164393639"><ele>617.0</ele><time>2026-03-25T11:17:46.001Z</time></trkpt><trkpt lat="37.3386636319807" lon="14.360809695115893"><ele>617.5</ele><time>2026-03-25T11:17:47.001Z</time></trkpt><trkpt lat="37.33846550707176" lon="14.361104351014665"><ele>618.0</ele><time>2026-03-25T11:17:48.001Z</time></trkpt><trkpt lat="37.33826930997503" lon="14.361397213265278"><ele>617.0</ele><time>2026-03-25T11:17:49.001Z</time></trkpt><trkpt lat="37.338072614594395" lon="14.361687838341417"><ele>616.0</ele><time>2026-03-25T11:17:50.001Z</time></trkpt><trkpt lat="37.33787921612972" lon="14.361974676630043"><ele>617.0</ele><time>2026-03-25T11:17:51.001Z</time></trkpt><trkpt lat="37.33768313293165" lon="14.36225795168347"><ele>618.0</ele><time>2026-03-25T11:17:52.001Z</time></trkpt><trkpt lat="37.33748974906187" lon="14.362541364620029"><ele>618.0</ele><time>2026-03-25T11:17:53.001Z</time></trkpt><trkpt lat="37.33729939952313" lon="14.362823019646918"><ele>618.0</ele><time>2026-03-25T11:17:54.001Z</time></trkpt><trkpt lat="37.33710913983875" lon="14.363099943560847"><ele>618.5</ele><time>2026-03-25T11:17:55.001Z</time></trkpt><trkpt lat="37.336920662254116" lon="14.363373125314139"><ele>619.0</ele><time>2026-03-25T11:17:56.001Z</time></trkpt><trkpt lat="37.336731481677106" lon="14.363645482506705"><ele>619.5</ele><time>2026-03-25T11:17:57.001Z</time></trkpt><trkpt lat="37.336542903247576" lon="14.363913602358046"><ele>620.0</ele><time>2026-03-25T11:17:58.001Z</time></trkpt><trkpt lat="37.336353137444455" lon="14.364178845715385"><ele>621.0</ele><time>2026-03-25T11:17:59.001Z</time></trkpt><trkpt lat="37.336155477337336" lon="14.364430965909609"><ele>622.0</ele><time>2026-03-25T11:18:00.001Z</time></trkpt><trkpt lat="37.33594850226599" lon="14.364661458311819"><ele>622.0</ele><time>2026-03-25T11:18:01.001Z</time></trkpt><trkpt lat="37.335723118512306" lon="14.364861085598228"><ele>622.0</ele><time>2026-03-25T11:18:02.001Z</time></trkpt><trkpt lat="37.335482218050586" lon="14.365041651927278"><ele>621.0</ele><time>2026-03-25T11:18:03.001Z</time></trkpt><trkpt lat="37.33523036053734" lon="14.365206287840412"><ele>620.0</ele><time>2026-03-25T11:18:04.001Z</time></trkpt><trkpt lat="37.33496961466379" lon="14.365357795030656"><ele>618.0</ele><time>2026-03-25T11:18:05.001Z</time></trkpt><trkpt lat="37.33471605908712" lon="14.365516752936058"><ele>616.0</ele><time>2026-03-25T11:18:06.001Z</time></trkpt><trkpt lat="37.33446314563431" lon="14.36567333263247"><ele>616.0</ele><time>2026-03-25T11:18:07.001Z</time></trkpt><trkpt lat="37.334212167268994" lon="14.365832769943673"><ele>616.0</ele><time>2026-03-25T11:18:08.001Z</time></trkpt><trkpt lat="37.333965329147595" lon="14.365991438872985"><ele>613.5</ele><time>2026-03-25T11:18:09.001Z</time></trkpt><trkpt lat="37.33371818850951" lon="14.366149537502245"><ele>611.0</ele><time>2026-03-25T11:18:10.001Z</time></trkpt><trkpt lat="37.333470965449955" lon="14.366305643741706"><ele>612.5</ele><time>2026-03-25T11:18:11.001Z</time></trkpt><trkpt lat="37.333225688972924" lon="14.36646180606893"><ele>614.0</ele><time>2026-03-25T11:18:12.001Z</time></trkpt><trkpt lat="37.33298199864525" lon="14.366617987697294"><ele>614.0</ele><time>2026-03-25T11:18:13.001Z</time></trkpt><trkpt lat="37.33273812542564" lon="14.36677378728531"><ele>614.0</ele><time>2026-03-25T11:18:14.001Z</time></trkpt><trkpt lat="37.33249292248155" lon="14.366928822362917"><ele>614.0</ele><time>2026-03-25T11:18:15.001Z</time></trkpt><trkpt lat="37.33224684316047" lon="14.367081568396069"><ele>614.0</ele><time>2026-03-25T11:18:16.001Z</time></trkpt><trkpt lat="37.331997745326454" lon="14.367237123853506"><ele>613.0</ele><time>2026-03-25T11:18:17.001Z</time></trkpt><trkpt lat="37.33175164733019" lon="14.36739951962103"><ele>612.0</ele><time>2026-03-25T11:18:18.001Z</time></trkpt><trkpt lat="37.33150893703052" lon="14.367571526286715"><ele>609.0</ele><time>2026-03-25T11:18:19.001Z</time></trkpt><trkpt lat="37.331268972333056" lon="14.367751288033627"><ele>606.0</ele><time>2026-03-25T11:18:20.001Z</time></trkpt><trkpt lat="37.331034453271926" lon="14.367940886453635"><ele>608.0</ele><time>2026-03-25T11:18:21.001Z</time></trkpt><trkpt lat="37.33080388860695" lon="14.368139904074072"><ele>610.0</ele><time>2026-03-25T11:18:22.001Z</time></trkpt><trkpt lat="37.3305753421661" lon="14.368337157741376"><ele>608.5</ele><time>2026-03-25T11:18:23.001Z</time></trkpt><trkpt lat="37.3303468276794" lon="14.368532226269444"><ele>607.0</ele><time>2026-03-25T11:18:24.001Z</time></trkpt><trkpt lat="37.33011480756343" lon="14.36872237180196"><ele>608.0</ele><time>2026-03-25T11:18:25.001Z</time></trkpt><trkpt lat="37.329883921140244" lon="14.368911705347653"><ele>609.0</ele><time>2026-03-25T11:18:26.001Z</time></trkpt><trkpt lat="37.32965340402211" lon="14.36910295396198"><ele>609.0</ele><time>2026-03-25T11:18:27.001Z</time></trkpt><trkpt lat="37.329423424455335" lon="14.369294477324553"><ele>609.0</ele><time>2026-03-25T11:18:28.002Z</time></trkpt><trkpt lat="37.32919344256961" lon="14.369487208354302"><ele>609.0</ele><time>2026-03-25T11:18:29.002Z</time></trkpt><trkpt lat="37.3289610644228" lon="14.369678717732983"><ele>609.0</ele><time>2026-03-25T11:18:30.002Z</time></trkpt><trkpt lat="37.32872905795996" lon="14.369867135162702"><ele>607.5</ele><time>2026-03-25T11:18:31.002Z</time></trkpt><trkpt lat="37.32849165203274" lon="14.370051369732709"><ele>606.0</ele><time>2026-03-25T11:18:32.002Z</time></trkpt><trkpt lat="37.32824747370399" lon="14.370220415755051"><ele>609.5</ele><time>2026-03-25T11:18:33.002Z</time></trkpt><trkpt lat="37.32799820048377" lon="14.370370644348961"><ele>613.0</ele><time>2026-03-25T11:18:34.002Z</time></trkpt><trkpt lat="37.32774036214687" lon="14.370509023262874"><ele>609.0</ele><time>2026-03-25T11:18:35.002Z</time></trkpt><trkpt lat="37.32747855013459" lon="14.370623684253541"><ele>605.0</ele><time>2026-03-25T11:18:36.002Z</time></trkpt><trkpt lat="37.32721976234537" lon="14.37070914810114"><ele>605.0</ele><time>2026-03-25T11:18:37.002Z</time></trkpt><trkpt lat="37.32695915119978" lon="14.370769447597672"><ele>605.0</ele><time>2026-03-25T11:18:38.002Z</time></trkpt><trkpt lat="37.32669300011756" lon="14.370800367296448"><ele>605.0</ele><time>2026-03-25T11:18:39.002Z</time></trkpt><trkpt lat="37.32642309085239" lon="14.37079885352445"><ele>605.0</ele><time>2026-03-25T11:18:40.002Z</time></trkpt><trkpt lat="37.32614986106694" lon="14.370772892937065"><ele>604.5</ele><time>2026-03-25T11:18:41.002Z</time></trkpt><trkpt lat="37.32587343836983" lon="14.370731335176288"><ele>604.0</ele><time>2026-03-25T11:18:42.002Z</time></trkpt><trkpt lat="37.32560069588498" lon="14.370673808478315"><ele>601.5</ele><time>2026-03-25T11:18:43.002Z</time></trkpt><trkpt lat="37.325326696554974" lon="14.370592532021082"><ele>599.0</ele><time>2026-03-25T11:18:44.002Z</time></trkpt><trkpt lat="37.32505462479993" lon="14.370495721258996"><ele>596.0</ele><time>2026-03-25T11:18:45.002Z</time></trkpt><trkpt lat="37.32478642583394" lon="14.37037702787308"><ele>593.0</ele><time>2026-03-25T11:18:46.002Z</time></trkpt><trkpt lat="37.324515303833046" lon="14.370259523152946"><ele>590.5</ele><time>2026-03-25T11:18:47.002Z</time></trkpt><trkpt lat="37.32425034933645" lon="14.370143476669124"><ele>588.0</ele><time>2026-03-25T11:18:48.002Z</time></trkpt><trkpt lat="37.32398789626577" lon="14.370020276289859"><ele>586.0</ele><time>2026-03-25T11:18:49.002Z</time></trkpt><trkpt lat="37.32372101120074" lon="14.369896686090925"><ele>584.0</ele><time>2026-03-25T11:18:50.002Z</time></trkpt><trkpt lat="37.323455835067726" lon="14.36976959461206"><ele>580.5</ele><time>2026-03-25T11:18:51.002Z</time></trkpt><trkpt lat="37.32319227775984" lon="14.36964201253824"><ele>577.0</ele><time>2026-03-25T11:18:52.002Z</time></trkpt><trkpt lat="37.3229246931271" lon="14.369514508463212"><ele>575.0</ele><time>2026-03-25T11:18:53.002Z</time></trkpt><trkpt lat="37.32265790351306" lon="14.369386848539962"><ele>573.0</ele><time>2026-03-25T11:18:54.002Z</time></trkpt><trkpt lat="37.322391571076864" lon="14.369255763682412"><ele>572.0</ele><time>2026-03-25T11:18:55.002Z</time></trkpt><trkpt lat="37.322120419108224" lon="14.369126991867114"><ele>571.0</ele><time>2026-03-25T11:18:56.002Z</time></trkpt><trkpt lat="37.32184967774473" lon="14.368997470063531"><ele>571.0</ele><time>2026-03-25T11:18:57.002Z</time></trkpt><trkpt lat="37.321579019086805" lon="14.368869126011859"><ele>571.0</ele><time>2026-03-25T11:18:58.002Z</time></trkpt><trkpt lat="37.32131020137106" lon="14.368740056553401"><ele>567.0</ele><time>2026-03-25T11:18:59.002Z</time></trkpt><trkpt lat="37.3210432589987" lon="14.368609504722594"><ele>563.0</ele><time>2026-03-25T11:19:00.002Z</time></trkpt><trkpt lat="37.320777169100324" lon="14.368479375856207"><ele>563.0</ele><time>2026-03-25T11:19:01.002Z</time></trkpt><trkpt lat="37.320512144787244" lon="14.368353589724396"><ele>563.0</ele><time>2026-03-25T11:19:02.002Z</time></trkpt><trkpt lat="37.32024679238389" lon="14.368232791097922"><ele>563.0</ele><time>2026-03-25T11:19:03.002Z</time></trkpt><trkpt lat="37.31998298481861" lon="14.36811740517378"><ele>563.0</ele><time>2026-03-25T11:19:04.002Z</time></trkpt><trkpt lat="37.3197180386179" lon="14.368008886285729"><ele>558.5</ele><time>2026-03-25T11:19:05.002Z</time></trkpt><trkpt lat="37.31945407723257" lon="14.367909294293604"><ele>554.0</ele><time>2026-03-25T11:19:06.002Z</time></trkpt><trkpt lat="37.31919088529378" lon="14.367830556727665"><ele>554.0</ele><time>2026-03-25T11:19:07.003Z</time></trkpt><trkpt lat="37.31892629460423" lon="14.367774074129327"><ele>554.0</ele><time>2026-03-25T11:19:08.003Z</time></trkpt><trkpt lat="37.3186607215135" lon="14.36773830745752"><ele>551.0</ele><time>2026-03-25T11:19:09.003Z</time></trkpt><trkpt lat="37.31839595069878" lon="14.36773023498587"><ele>548.0</ele><time>2026-03-25T11:19:10.003Z</time></trkpt><trkpt lat="37.31813235637466" lon="14.367751225559646"><ele>544.5</ele><time>2026-03-25T11:19:11.003Z</time></trkpt><trkpt lat="37.31786923068632" lon="14.367804908533708"><ele>541.0</ele><time>2026-03-25T11:19:12.003Z</time></trkpt><trkpt lat="37.31760310332532" lon="14.367876729457139"><ele>541.0</ele><time>2026-03-25T11:19:13.003Z</time></trkpt><trkpt lat="37.317331337710996" lon="14.367962994658683"><ele>541.0</ele><time>2026-03-25T11:19:14.003Z</time></trkpt><trkpt lat="37.317056507476046" lon="14.368059874430426"><ele>541.5</ele><time>2026-03-25T11:19:15.003Z</time></trkpt><trkpt lat="37.316780884833335" lon="14.368159319784485"><ele>542.0</ele><time>2026-03-25T11:19:16.003Z</time></trkpt><trkpt lat="37.31650337731589" lon="14.368262650477996"><ele>540.0</ele><time>2026-03-25T11:19:17.003Z</time></trkpt><trkpt lat="37.316226924192826" lon="14.368371559193871"><ele>538.0</ele><time>2026-03-25T11:19:18.003Z</time></trkpt><trkpt lat="37.315950208570605" lon="14.368481002608323"><ele>538.0</ele><time>2026-03-25T11:19:19.003Z</time></trkpt><trkpt lat="37.31567171292179" lon="14.368589505701934"><ele>538.0</ele><time>2026-03-25T11:19:20.003Z</time></trkpt><trkpt lat="37.31539358726752" lon="14.368694428625332"><ele>538.0</ele><time>2026-03-25T11:19:21.003Z</time></trkpt><trkpt lat="37.31511599428395" lon="14.368799324929762"><ele>538.0</ele><time>2026-03-25T11:19:22.003Z</time></trkpt><trkpt lat="37.314839548035025" lon="14.368905267150572"><ele>534.5</ele><time>2026-03-25T11:19:23.003Z</time></trkpt><trkpt lat="37.31456542676966" lon="14.369011027549528"><ele>531.0</ele><time>2026-03-25T11:19:24.003Z</time></trkpt><trkpt lat="37.31429268346606" lon="14.36911355459507"><ele>531.0</ele><time>2026-03-25T11:19:25.003Z</time></trkpt><trkpt lat="37.31402014226065" lon="14.369217067156905"><ele>531.0</ele><time>2026-03-25T11:19:26.003Z</time></trkpt><trkpt lat="37.313747380149366" lon="14.369320775071976"><ele>529.0</ele><time>2026-03-25T11:19:27.003Z</time></trkpt><trkpt lat="37.313474759220014" lon="14.36942400054548"><ele>527.0</ele><time>2026-03-25T11:19:28.003Z</time></trkpt><trkpt lat="37.31319988970806" lon="14.369526763203677"><ele>526.0</ele><time>2026-03-25T11:19:29.003Z</time></trkpt><trkpt lat="37.31292341007985" lon="14.369630878580526"><ele>525.0</ele><time>2026-03-25T11:19:30.003Z</time></trkpt><trkpt lat="37.31264636973689" lon="14.369735308784376"><ele>525.0</ele><time>2026-03-25T11:19:31.003Z</time></trkpt><trkpt lat="37.3123708728388" lon="14.369840378622621"><ele>525.0</ele><time>2026-03-25T11:19:32.003Z</time></trkpt><trkpt lat="37.31209780360649" lon="14.369934105464852"><ele>522.5</ele><time>2026-03-25T11:19:33.003Z</time></trkpt><trkpt lat="37.31183376052903" lon="14.370048313970722"><ele>520.0</ele><time>2026-03-25T11:19:34.003Z</time></trkpt><trkpt lat="37.31158068047044" lon="14.370176579798963"><ele>516.0</ele><time>2026-03-25T11:19:35.003Z</time></trkpt><trkpt lat="37.311339403942796" lon="14.370337586006475"><ele>512.0</ele><time>2026-03-25T11:19:36.003Z</time></trkpt><trkpt lat="37.31110326128599" lon="14.370511197976509"><ele>512.5</ele><time>2026-03-25T11:19:37.003Z</time></trkpt><trkpt lat="37.31087612468167" lon="14.370695013200233"><ele>513.0</ele><time>2026-03-25T11:19:38.003Z</time></trkpt><trkpt lat="37.310646449542446" lon="14.370894669132452"><ele>512.5</ele><time>2026-03-25T11:19:39.003Z</time></trkpt><trkpt lat="37.31041742332655" lon="14.371100224093148"><ele>512.0</ele><time>2026-03-25T11:19:40.003Z</time></trkpt><trkpt lat="37.31018048396492" lon="14.371310631478126"><ele>512.0</ele><time>2026-03-25T11:19:41.003Z</time></trkpt><trkpt lat="37.30992871693011" lon="14.37152455080187"><ele>512.0</ele><time>2026-03-25T11:19:42.003Z</time></trkpt><trkpt lat="37.30967456147963" lon="14.371742597369032"><ele>511.0</ele><time>2026-03-25T11:19:43.001Z</time></trkpt><trkpt lat="37.309414995982884" lon="14.371963284779708"><ele>510.0</ele><time>2026-03-25T11:19:44.001Z</time></trkpt><trkpt lat="37.30915696339701" lon="14.372186600789734"><ele>509.5</ele><time>2026-03-25T11:19:45.001Z</time></trkpt><trkpt lat="37.30890699774738" lon="14.372400526660075"><ele>509.0</ele><time>2026-03-25T11:19:46.001Z</time></trkpt><trkpt lat="37.30866723027053" lon="14.372622624006949"><ele>509.0</ele><time>2026-03-25T11:19:47.001Z</time></trkpt><trkpt lat="37.308431018001706" lon="14.372848965363971"><ele>509.0</ele><time>2026-03-25T11:19:48.001Z</time></trkpt><trkpt lat="37.30820344509406" lon="14.373093554493247"><ele>508.0</ele><time>2026-03-25T11:19:49.001Z</time></trkpt><trkpt lat="37.30798183078419" lon="14.373354475371286"><ele>507.0</ele><time>2026-03-25T11:19:50.001Z</time></trkpt><trkpt lat="37.307765633661084" lon="14.373603782476046"><ele>507.0</ele><time>2026-03-25T11:19:51.001Z</time></trkpt><trkpt lat="37.30755463339454" lon="14.373834424005597"><ele>507.0</ele><time>2026-03-25T11:19:52.001Z</time></trkpt><trkpt lat="37.307339567924714" lon="14.374069313699486"><ele>506.0</ele><time>2026-03-25T11:19:53.001Z</time></trkpt><trkpt lat="37.307128709467726" lon="14.374303707758028"><ele>505.0</ele><time>2026-03-25T11:19:54.001Z</time></trkpt><trkpt lat="37.306913560078414" lon="14.374540624384743"><ele>505.5</ele><time>2026-03-25T11:19:55.001Z</time></trkpt><trkpt lat="37.30669334755401" lon="14.374767387432854"><ele>506.0</ele><time>2026-03-25T11:19:56.001Z</time></trkpt><trkpt lat="37.30647523784054" lon="14.375000540492092"><ele>507.0</ele><time>2026-03-25T11:19:57.001Z</time></trkpt><trkpt lat="37.30625711866413" lon="14.375237781623722"><ele>508.0</ele><time>2026-03-25T11:19:58.001Z</time></trkpt><trkpt lat="37.306034268210745" lon="14.375479183363657"><ele>505.5</ele><time>2026-03-25T11:19:59.001Z</time></trkpt><trkpt lat="37.30581297429584" lon="14.375721088138231"><ele>503.0</ele><time>2026-03-25T11:20:00.001Z</time></trkpt><trkpt lat="37.305590240293235" lon="14.375961278383574"><ele>503.0</ele><time>2026-03-25T11:20:01.001Z</time></trkpt><trkpt lat="37.30536605759081" lon="14.376201174716272"><ele>503.0</ele><time>2026-03-25T11:20:02.001Z</time></trkpt><trkpt lat="37.30513866800628" lon="14.376447205380593"><ele>503.0</ele><time>2026-03-25T11:20:03.001Z</time></trkpt><trkpt lat="37.30490473539028" lon="14.376703208170614"><ele>503.0</ele><time>2026-03-25T11:20:04.001Z</time></trkpt><trkpt lat="37.30466550504209" lon="14.376965362228251"><ele>503.5</ele><time>2026-03-25T11:20:05.001Z</time></trkpt><trkpt lat="37.30442142503453" lon="14.377228933919177"><ele>504.0</ele><time>2026-03-25T11:20:06.001Z</time></trkpt><trkpt lat="37.3041779811716" lon="14.377489215744388"><ele>504.0</ele><time>2026-03-25T11:20:07.001Z</time></trkpt><trkpt lat="37.30394127371649" lon="14.377743063044809"><ele>504.0</ele><time>2026-03-25T11:20:08.001Z</time></trkpt><trkpt lat="37.303706306647264" lon="14.37799438543144"><ele>504.5</ele><time>2026-03-25T11:20:09.001Z</time></trkpt><trkpt lat="37.30347430148554" lon="14.37824361790598"><ele>505.0</ele><time>2026-03-25T11:20:10.001Z</time></trkpt><trkpt lat="37.30324685005215" lon="14.378495384923395"><ele>504.5</ele><time>2026-03-25T11:20:11.001Z</time></trkpt><trkpt lat="37.303020368119775" lon="14.378745625078986"><ele>504.0</ele><time>2026-03-25T11:20:12.001Z</time></trkpt><trkpt lat="37.30279554945866" lon="14.378994901018844"><ele>504.0</ele><time>2026-03-25T11:20:13.001Z</time></trkpt><trkpt lat="37.30257421279762" lon="14.379246063433655"><ele>504.0</ele><time>2026-03-25T11:20:14.001Z</time></trkpt><trkpt lat="37.30235676267331" lon="14.379506542161142"><ele>505.0</ele><time>2026-03-25T11:20:15.002Z</time></trkpt><trkpt lat="37.302156424258705" lon="14.379786355285374"><ele>506.0</ele><time>2026-03-25T11:20:16.002Z</time></trkpt><trkpt lat="37.301967180380146" lon="14.380087326692445"><ele>506.0</ele><time>2026-03-25T11:20:17.002Z</time></trkpt><trkpt lat="37.30178378021375" lon="14.3804060813205"><ele>506.0</ele><time>2026-03-25T11:20:18.002Z</time></trkpt><trkpt lat="37.30161065498755" lon="14.380728713275808"><ele>506.0</ele><time>2026-03-25T11:20:19.002Z</time></trkpt><trkpt lat="37.30144377853029" lon="14.381049683244028"><ele>506.0</ele><time>2026-03-25T11:20:20.002Z</time></trkpt><trkpt lat="37.301275978470024" lon="14.381365269469159"><ele>506.0</ele><time>2026-03-25T11:20:21.002Z</time></trkpt><trkpt lat="37.30110371639548" lon="14.381680063164504"><ele>506.0</ele><time>2026-03-25T11:20:22.002Z</time></trkpt><trkpt lat="37.30093080934819" lon="14.381997308311048"><ele>504.0</ele><time>2026-03-25T11:20:23.002Z</time></trkpt><trkpt lat="37.30075915192586" lon="14.382312581287584"><ele>502.0</ele><time>2026-03-25T11:20:24.002Z</time></trkpt><trkpt lat="37.30058527684267" lon="14.382627122373465"><ele>504.5</ele><time>2026-03-25T11:20:25.002Z</time></trkpt><trkpt lat="37.300408228559526" lon="14.38294213799589"><ele>507.0</ele><time>2026-03-25T11:20:26.002Z</time></trkpt><trkpt lat="37.30022733650708" lon="14.38325247945702"><ele>507.0</ele><time>2026-03-25T11:20:27.002Z</time></trkpt><trkpt lat="37.300039295024234" lon="14.383555953719734"><ele>507.0</ele><time>2026-03-25T11:20:28.002Z</time></trkpt><trkpt lat="37.29984518771865" lon="14.38384934869151"><ele>507.0</ele><time>2026-03-25T11:20:29.002Z</time></trkpt><trkpt lat="37.2996495247808" lon="14.384135187778226"><ele>507.0</ele><time>2026-03-25T11:20:30.002Z</time></trkpt><trkpt lat="37.29945800469397" lon="14.384421381233354"><ele>505.0</ele><time>2026-03-25T11:20:31.002Z</time></trkpt><trkpt lat="37.29927282909293" lon="14.384704538115688"><ele>503.0</ele><time>2026-03-25T11:20:32.002Z</time></trkpt><trkpt lat="37.299090279550974" lon="14.384982956163237"><ele>509.0</ele><time>2026-03-25T11:20:33.002Z</time></trkpt><trkpt lat="37.298913308865394" lon="14.385252087339806"><ele>515.0</ele><time>2026-03-25T11:20:34.002Z</time></trkpt><trkpt lat="37.298747024637876" lon="14.38550273370457"><ele>509.5</ele><time>2026-03-25T11:20:35.002Z</time></trkpt><trkpt lat="37.298568223187175" lon="14.385775378829008"><ele>504.0</ele><time>2026-03-25T11:20:36.002Z</time></trkpt><trkpt lat="37.298391925755496" lon="14.386044323047347"><ele>504.0</ele><time>2026-03-25T11:20:37.002Z</time></trkpt><trkpt lat="37.29821311025376" lon="14.386317594478315"><ele>504.0</ele><time>2026-03-25T11:20:38.002Z</time></trkpt><trkpt lat="37.29802537824557" lon="14.386592823476999"><ele>505.0</ele><time>2026-03-25T11:20:39.002Z</time></trkpt><trkpt lat="37.29783553803333" lon="14.386853793609832"><ele>506.0</ele><time>2026-03-25T11:20:40.002Z</time></trkpt><trkpt lat="37.297641128138935" lon="14.387090565150631"><ele>503.5</ele><time>2026-03-25T11:20:41.002Z</time></trkpt><trkpt lat="37.29743746828127" lon="14.387303428583659"><ele>501.0</ele><time>2026-03-25T11:20:42.002Z</time></trkpt><trkpt lat="37.297219320627434" lon="14.387493439553722"><ele>500.0</ele><time>2026-03-25T11:20:43.002Z</time></trkpt><trkpt lat="37.29698592792097" lon="14.387662930963133"><ele>499.0</ele><time>2026-03-25T11:20:44.002Z</time></trkpt><trkpt lat="37.29674051254448" lon="14.387821684378878"><ele>499.0</ele><time>2026-03-25T11:20:45.002Z</time></trkpt><trkpt lat="37.29648763246742" lon="14.38798254072322"><ele>499.0</ele><time>2026-03-25T11:20:46.002Z</time></trkpt><trkpt lat="37.29623691763372" lon="14.388147780586689"><ele>495.0</ele><time>2026-03-25T11:20:47.002Z</time></trkpt><trkpt lat="37.29598935423396" lon="14.388312954562778"><ele>491.0</ele><time>2026-03-25T11:20:48.002Z</time></trkpt><trkpt lat="37.29574364294321" lon="14.388474846704204"><ele>491.5</ele><time>2026-03-25T11:20:49.002Z</time></trkpt><trkpt lat="37.29550226809834" lon="14.388635211808978"><ele>492.0</ele><time>2026-03-25T11:20:50.002Z</time></trkpt><trkpt lat="37.2952604269643" lon="14.388794898643901"><ele>486.5</ele><time>2026-03-25T11:20:51.002Z</time></trkpt><trkpt lat="37.295022075945994" lon="14.388959716181555"><ele>481.0</ele><time>2026-03-25T11:20:52.002Z</time></trkpt><trkpt lat="37.29478594582067" lon="14.389140973509308"><ele>483.0</ele><time>2026-03-25T11:20:53.002Z</time></trkpt><trkpt lat="37.294556570492276" lon="14.389327878335905"><ele>485.0</ele><time>2026-03-25T11:20:54.002Z</time></trkpt><trkpt lat="37.2943413955628" lon="14.389519217506594"><ele>478.5</ele><time>2026-03-25T11:20:55.002Z</time></trkpt><trkpt lat="37.294143169210926" lon="14.389718097480852"><ele>472.0</ele><time>2026-03-25T11:20:56.002Z</time></trkpt><trkpt lat="37.29396273019096" lon="14.389928985456157"><ele>470.0</ele><time>2026-03-25T11:20:57.002Z</time></trkpt><trkpt lat="37.29379698025567" lon="14.390160799676904"><ele>468.0</ele><time>2026-03-25T11:20:58.002Z</time></trkpt><trkpt lat="37.29365215100286" lon="14.390419642051397"><ele>465.5</ele><time>2026-03-25T11:20:59.002Z</time></trkpt><trkpt lat="37.29352265215115" lon="14.39069963467243"><ele>463.0</ele><time>2026-03-25T11:21:00.002Z</time></trkpt><trkpt lat="37.29340548723374" lon="14.390990861432623"><ele>463.0</ele><time>2026-03-25T11:21:01.003Z</time></trkpt><trkpt lat="37.29329398814362" lon="14.391284562052064"><ele>463.0</ele><time>2026-03-25T11:21:02.003Z</time></trkpt><trkpt lat="37.293184170930324" lon="14.391571654104109"><ele>456.0</ele><time>2026-03-25T11:21:03.003Z</time></trkpt><trkpt lat="37.29307267788693" lon="14.391844241578594"><ele>449.0</ele><time>2026-03-25T11:21:04.003Z</time></trkpt><trkpt lat="37.292962680347316" lon="14.392103237752169"><ele>449.66666666666663</ele><time>2026-03-25T11:21:05.003Z</time></trkpt><trkpt lat="37.292853475358996" lon="14.392353372032154"><ele>450.33333333333337</ele><time>2026-03-25T11:21:06.003Z</time></trkpt><trkpt lat="37.292744722599046" lon="14.39259464452312"><ele>451.0</ele><time>2026-03-25T11:21:07.003Z</time></trkpt><trkpt lat="37.29263393912864" lon="14.392824741128756"><ele>452.33333333333337</ele><time>2026-03-25T11:21:08.003Z</time></trkpt><trkpt lat="37.29251515153993" lon="14.393042807908365"><ele>453.66666666666663</ele><time>2026-03-25T11:21:09.003Z</time></trkpt><trkpt lat="37.29237854817265" lon="14.393250022813254"><ele>455.0</ele><time>2026-03-25T11:21:10.003Z</time></trkpt><trkpt lat="37.2922189011788" lon="14.393453965883953"><ele>455.0</ele><time>2026-03-25T11:21:11.003Z</time></trkpt><trkpt lat="37.292047610969014" lon="14.393643149972245"><ele>455.0</ele><time>2026-03-25T11:21:12.003Z</time></trkpt><trkpt lat="37.291868732778006" lon="14.393802141318412"><ele>455.0</ele><time>2026-03-25T11:21:13.003Z</time></trkpt><trkpt lat="37.291689409826105" lon="14.393940941415954"><ele>454.3333333333333</ele><time>2026-03-25T11:21:14.003Z</time></trkpt><trkpt lat="37.291501604903665" lon="14.394050632803198"><ele>453.66666666666663</ele><time>2026-03-25T11:21:15.003Z</time></trkpt><trkpt lat="37.291305705980875" lon="14.394146081676771"><ele>453.0</ele><time>2026-03-25T11:21:16.003Z</time></trkpt><trkpt lat="37.291106526133625" lon="14.394217360058601"><ele>453.0</ele><time>2026-03-25T11:21:17.003Z</time></trkpt><trkpt lat="37.29090385169362" lon="14.394264136110154"><ele>453.0</ele><time>2026-03-25T11:21:18.003Z</time></trkpt><trkpt lat="37.29069686773746" lon="14.394288771510391"><ele>453.0</ele><time>2026-03-25T11:21:19.003Z</time></trkpt><trkpt lat="37.29048342930229" lon="14.394305622728885"><ele>450.66666666666663</ele><time>2026-03-25T11:21:20.003Z</time></trkpt><trkpt lat="37.29026912763874" lon="14.394307368520158"><ele>448.3333333333333</ele><time>2026-03-25T11:21:21.003Z</time></trkpt><trkpt lat="37.29005670150531" lon="14.394291607531255"><ele>446.0</ele><time>2026-03-25T11:21:22.003Z</time></trkpt><trkpt lat="37.28984934729572" lon="14.394259827415274"><ele>442.0</ele><time>2026-03-25T11:21:23.003Z</time></trkpt><trkpt lat="37.28964705161743" lon="14.39421357113835"><ele>438.0</ele><time>2026-03-25T11:21:24.003Z</time></trkpt><trkpt lat="37.28945460777794" lon="14.394151036526413"><ele>434.0</ele><time>2026-03-25T11:21:25.003Z</time></trkpt><trkpt lat="37.28926761642083" lon="14.394079994834104"><ele>434.0</ele><time>2026-03-25T11:21:26.003Z</time></trkpt><trkpt lat="37.28907644188231" lon="14.394018353580615"><ele>434.0</ele><time>2026-03-25T11:21:27.003Z</time></trkpt><trkpt lat="37.28888422389368" lon="14.393960117261678"><ele>434.0</ele><time>2026-03-25T11:21:28.003Z</time></trkpt><trkpt lat="37.28869737097211" lon="14.393896513673239"><ele>436.3333333333333</ele><time>2026-03-25T11:21:29.003Z</time></trkpt><trkpt lat="37.288509334463434" lon="14.39382942987456"><ele>438.66666666666663</ele><time>2026-03-25T11:21:30.003Z</time></trkpt><trkpt lat="37.28832340758346" lon="14.393763455854659"><ele>441.0</ele><time>2026-03-25T11:21:31.003Z</time></trkpt><trkpt lat="37.288147139563634" lon="14.393702308474845"><ele>438.66666666666663</ele><time>2026-03-25T11:21:32.003Z</time></trkpt><trkpt lat="37.287970207143445" lon="14.393638539696683"><ele>436.3333333333333</ele><time>2026-03-25T11:21:33.003Z</time></trkpt><trkpt lat="37.28778663929034" lon="14.393575108433192"><ele>434.0</ele><time>2026-03-25T11:21:34.003Z</time></trkpt><trkpt lat="37.287601531103405" lon="14.393506903686712"><ele>434.0</ele><time>2026-03-25T11:21:35.003Z</time></trkpt><trkpt lat="37.28742618096068" lon="14.393428739969858"><ele>434.0</ele><time>2026-03-25T11:21:36.003Z</time></trkpt><trkpt lat="37.2872592754544" lon="14.393333610443438"><ele>434.0</ele><time>2026-03-25T11:21:37.003Z</time></trkpt><trkpt lat="37.28709997219043" lon="14.39322997585895"><ele>432.66666666666663</ele><time>2026-03-25T11:21:38.003Z</time></trkpt><trkpt lat="37.28684877236524" lon="14.393024229137515"><ele>431.33333333333337</ele><time>2026-03-25T11:21:40.003Z</time></trkpt><trkpt lat="37.28675549889642" lon="14.392925763764588"><ele>430.0</ele><time>2026-03-25T11:21:41.003Z</time></trkpt><trkpt lat="37.286688687182064" lon="14.392828040050295"><ele>430.0</ele><time>2026-03-25T11:21:42.003Z</time></trkpt><trkpt lat="37.28664745397474" lon="14.39272477468418"><ele>430.0</ele><time>2026-03-25T11:21:43.004Z</time></trkpt><trkpt lat="37.2866395630291" lon="14.392594513278839"><ele>430.0</ele><time>2026-03-25T11:21:44.004Z</time></trkpt><trkpt lat="37.28665573490524" lon="14.392435272542544"><ele>430.0</ele><time>2026-03-25T11:21:45.004Z</time></trkpt><trkpt lat="37.286667016572856" lon="14.392268491272327"><ele>429.25</ele><time>2026-03-25T11:21:46.004Z</time></trkpt><trkpt lat="37.28666472426744" lon="14.392091406601713"><ele>428.5</ele><time>2026-03-25T11:21:47.004Z</time></trkpt><trkpt lat="37.28665539929382" lon="14.391915231246347"><ele>427.75</ele><time>2026-03-25T11:21:48.004Z</time></trkpt><trkpt lat="37.28664189938249" lon="14.391755742631833"><ele>427.0</ele><time>2026-03-25T11:21:49.002Z</time></trkpt><trkpt lat="37.28661597810498" lon="14.391611950986029"><ele>427.0</ele><time>2026-03-25T11:21:50.002Z</time></trkpt><trkpt lat="37.28655637422223" lon="14.391497713763016"><ele>427.0</ele><time>2026-03-25T11:21:51.002Z</time></trkpt><trkpt lat="37.28647361195797" lon="14.39139740457663"><ele>427.0</ele><time>2026-03-25T11:21:52.002Z</time></trkpt><trkpt lat="37.28636702901307" lon="14.391344689456073"><ele>427.0</ele><time>2026-03-25T11:21:53.002Z</time></trkpt><trkpt lat="37.28624997157147" lon="14.391324692459655"><ele>425.75</ele><time>2026-03-25T11:21:54.002Z</time></trkpt><trkpt lat="37.28613022450512" lon="14.391336709222895"><ele>424.5</ele><time>2026-03-25T11:21:55.002Z</time></trkpt><trkpt lat="37.28601476190597" lon="14.391361957999228"><ele>423.25</ele><time>2026-03-25T11:21:56.002Z</time></trkpt><trkpt lat="37.28590313173727" lon="14.391378761215131"><ele>422.0</ele><time>2026-03-25T11:21:57.002Z</time></trkpt><trkpt lat="37.285794806397156" lon="14.391388267120396"><ele>421.40000000000003</ele><time>2026-03-25T11:21:58.002Z</time></trkpt><trkpt lat="37.28568977581314" lon="14.391396412310087"><ele>420.8</ele><time>2026-03-25T11:21:59.002Z</time></trkpt><trkpt lat="37.28559263116647" lon="14.39140493930975"><ele>420.2</ele><time>2026-03-25T11:22:00.002Z</time></trkpt><trkpt lat="37.285504354001084" lon="14.391414742923791"><ele>419.6</ele><time>2026-03-25T11:22:01.002Z</time></trkpt><trkpt lat="37.285426510234245" lon="14.391424880227076"><ele>419.0</ele><time>2026-03-25T11:22:02.002Z</time></trkpt><trkpt lat="37.28533826787534" lon="14.391449910830882"><ele>418.99999999999994</ele><time>2026-03-25T11:22:04.002Z</time></trkpt><trkpt lat="37.285269887804425" lon="14.391493068961017"><ele>419.0</ele><time>2026-03-25T11:22:34.002Z</time></trkpt><trkpt lat="37.285369599758624" lon="14.391505053984819"><ele>419.0</ele><time>2026-03-25T11:22:37.002Z</time></trkpt><trkpt lat="37.285426742045104" lon="14.391456879395214"><ele>419.0</ele><time>2026-03-25T11:22:38.002Z</time></trkpt><trkpt lat="37.285490803434115" lon="14.391442647733761"><ele>419.0</ele><time>2026-03-25T11:22:39.002Z</time></trkpt><trkpt lat="37.28555740563625" lon="14.391435356029403"><ele>418.99999999999994</ele><time>2026-03-25T11:22:40.002Z</time></trkpt><trkpt lat="37.28562477694349" lon="14.391433358978011"><ele>419.0</ele><time>2026-03-25T11:22:41.002Z</time></trkpt><trkpt lat="37.28569284219719" lon="14.39142470078503"><ele>418.99999999999994</ele><time>2026-03-25T11:22:42.002Z</time></trkpt><trkpt lat="37.28576363753321" lon="14.39141141518516"><ele>419.0</ele><time>2026-03-25T11:22:43.002Z</time></trkpt><trkpt lat="37.285848372972524" lon="14.391400241286448"><ele>419.0</ele><time>2026-03-25T11:22:44.002Z</time></trkpt><trkpt lat="37.28594182973132" lon="14.391391557353485"><ele>419.0</ele><time>2026-03-25T11:22:45.002Z</time></trkpt><trkpt lat="37.28603710329706" lon="14.391389142576536"><ele>418.99999999999994</ele><time>2026-03-25T11:22:46.002Z</time></trkpt><trkpt lat="37.28613093940556" lon="14.391375663810908"><ele>419.0</ele><time>2026-03-25T11:22:47.002Z</time></trkpt><trkpt lat="37.286220943032426" lon="14.391362119641824"><ele>418.99999999999994</ele><time>2026-03-25T11:22:48.002Z</time></trkpt><trkpt lat="37.286307330565485" lon="14.391370545234086"><ele>419.0</ele><time>2026-03-25T11:22:49.002Z</time></trkpt><trkpt lat="37.28638344000846" lon="14.391399197286209"><ele>419.0</ele><time>2026-03-25T11:22:50.002Z</time></trkpt><trkpt lat="37.28645762166583" lon="14.39145012361632"><ele>419.0</ele><time>2026-03-25T11:22:51.002Z</time></trkpt><trkpt lat="37.28652021733946" lon="14.391516398009875"><ele>418.99999999999994</ele><time>2026-03-25T11:22:52.002Z</time></trkpt><trkpt lat="37.2865742946365" lon="14.391596963057673"><ele>419.0</ele><time>2026-03-25T11:22:53.002Z</time></trkpt><trkpt lat="37.28663432203593" lon="14.391800509388473"><ele>421.0</ele><time>2026-03-25T11:22:55.002Z</time></trkpt><trkpt lat="37.2866470631956" lon="14.39192910114668"><ele>423.0</ele><time>2026-03-25T11:22:56.002Z</time></trkpt><trkpt lat="37.286652382042185" lon="14.39209197442698"><ele>425.0</ele><time>2026-03-25T11:22:57.002Z</time></trkpt><trkpt lat="37.28665415827658" lon="14.392257631691308"><ele>427.0</ele><time>2026-03-25T11:22:58.002Z</time></trkpt><trkpt lat="37.286650976172375" lon="14.392396139739175"><ele>427.6</ele><time>2026-03-25T11:22:59.003Z</time></trkpt><trkpt lat="37.28663501049285" lon="14.392509797651018"><ele>428.20000000000005</ele><time>2026-03-25T11:23:00.003Z</time></trkpt><trkpt lat="37.28659013697901" lon="14.392587500689904"><ele>428.8</ele><time>2026-03-25T11:23:01.003Z</time></trkpt><trkpt lat="37.28653099916226" lon="14.392626620227022"><ele>429.4</ele><time>2026-03-25T11:23:02.003Z</time></trkpt><trkpt lat="37.28639991785748" lon="14.392626378735557"><ele>430.0</ele><time>2026-03-25T11:23:04.003Z</time></trkpt><trkpt lat="37.28632197436605" lon="14.3925752461415"><ele>427.5</ele><time>2026-03-25T11:23:05.003Z</time></trkpt><trkpt lat="37.28622027742331" lon="14.392493109919391"><ele>425.0</ele><time>2026-03-25T11:23:06.003Z</time></trkpt><trkpt lat="37.28608939012414" lon="14.392394327181394"><ele>422.5</ele><time>2026-03-25T11:23:07.003Z</time></trkpt><trkpt lat="37.285951035612655" lon="14.392287923708588"><ele>420.0</ele><time>2026-03-25T11:23:08.003Z</time></trkpt><trkpt lat="37.285801662971636" lon="14.392160726091257"><ele>419.66666666666663</ele><time>2026-03-25T11:23:09.003Z</time></trkpt><trkpt lat="37.285643166879744" lon="14.392022699040798"><ele>419.3333333333333</ele><time>2026-03-25T11:23:10.003Z</time></trkpt><trkpt lat="37.2854716110403" lon="14.391882191642088"><ele>419.0</ele><time>2026-03-25T11:23:11.003Z</time></trkpt><trkpt lat="37.28528860738306" lon="14.391734646308409"><ele>418.0</ele><time>2026-03-25T11:23:12.003Z</time></trkpt><trkpt lat="37.28510349349504" lon="14.39157905725568"><ele>417.0</ele><time>2026-03-25T11:23:13.003Z</time></trkpt><trkpt lat="37.28491311303543" lon="14.391421103716143"><ele>418.5</ele><time>2026-03-25T11:23:14.003Z</time></trkpt><trkpt lat="37.28471231808973" lon="14.391256976080102"><ele>420.0</ele><time>2026-03-25T11:23:15.003Z</time></trkpt><trkpt lat="37.28450680999689" lon="14.391086799815083"><ele>420.0</ele><time>2026-03-25T11:23:16.003Z</time></trkpt><trkpt lat="37.28429576007611" lon="14.390908571698764"><ele>420.0</ele><time>2026-03-25T11:23:17.003Z</time></trkpt><trkpt lat="37.284080375438" lon="14.39072992426656"><ele>422.0</ele><time>2026-03-25T11:23:18.003Z</time></trkpt><trkpt lat="37.28385639817909" lon="14.39054649269835"><ele>424.0</ele><time>2026-03-25T11:23:19.003Z</time></trkpt><trkpt lat="37.28363287581299" lon="14.390359108731072"><ele>425.0</ele><time>2026-03-25T11:23:20.003Z</time></trkpt><trkpt lat="37.283407382459266" lon="14.390168376064516"><ele>426.0</ele><time>2026-03-25T11:23:21.003Z</time></trkpt><trkpt lat="37.283178536344366" lon="14.38997287719607"><ele>430.5</ele><time>2026-03-25T11:23:22.003Z</time></trkpt><trkpt lat="37.28294945622658" lon="14.389775701039895"><ele>435.0</ele><time>2026-03-25T11:23:23.003Z</time></trkpt><trkpt lat="37.28271800554618" lon="14.389576484263992"><ele>435.0</ele><time>2026-03-25T11:23:24.003Z</time></trkpt><trkpt lat="37.282485033817835" lon="14.389379782910572"><ele>435.0</ele><time>2026-03-25T11:23:25.003Z</time></trkpt><trkpt lat="37.28224974285286" lon="14.38918253116853"><ele>435.0</ele><time>2026-03-25T11:23:26.003Z</time></trkpt><trkpt lat="37.282016462807206" lon="14.388989239301909"><ele>435.0</ele><time>2026-03-25T11:23:27.003Z</time></trkpt><trkpt lat="37.28178401522138" lon="14.38879434189818"><ele>440.5</ele><time>2026-03-25T11:23:28.003Z</time></trkpt><trkpt lat="37.28155270216493" lon="14.388599038522464"><ele>446.0</ele><time>2026-03-25T11:23:29.003Z</time></trkpt><trkpt lat="37.28132290217462" lon="14.388407859851206"><ele>446.0</ele><time>2026-03-25T11:23:30.003Z</time></trkpt><trkpt lat="37.281097337960524" lon="14.388218507913436"><ele>446.0</ele><time>2026-03-25T11:23:31.003Z</time></trkpt><trkpt lat="37.28087314225416" lon="14.388031595525906"><ele>448.0</ele><time>2026-03-25T11:23:32.003Z</time></trkpt><trkpt lat="37.2806449723918" lon="14.387852090142193"><ele>450.0</ele><time>2026-03-25T11:23:33.003Z</time></trkpt><trkpt lat="37.280411165188376" lon="14.387687825875531"><ele>450.0</ele><time>2026-03-25T11:23:34.003Z</time></trkpt><trkpt lat="37.28017018868998" lon="14.387533795003234"><ele>450.0</ele><time>2026-03-25T11:23:35.003Z</time></trkpt><trkpt lat="37.27992246079629" lon="14.387395981596326"><ele>453.5</ele><time>2026-03-25T11:23:36.003Z</time></trkpt><trkpt lat="37.279668956077785" lon="14.387269634016217"><ele>457.0</ele><time>2026-03-25T11:23:37.003Z</time></trkpt><trkpt lat="37.27941165909268" lon="14.387145471817579"><ele>457.0</ele><time>2026-03-25T11:23:38.003Z</time></trkpt><trkpt lat="37.27915138189268" lon="14.387018381435658"><ele>457.0</ele><time>2026-03-25T11:23:39.003Z</time></trkpt><trkpt lat="37.278885154711155" lon="14.38688747225156"><ele>456.0</ele><time>2026-03-25T11:23:40.003Z</time></trkpt><trkpt lat="37.278615659625565" lon="14.386753536974659"><ele>455.0</ele><time>2026-03-25T11:23:41.003Z</time></trkpt><trkpt lat="37.27834517601749" lon="14.386617473873335"><ele>459.5</ele><time>2026-03-25T11:23:42.003Z</time></trkpt><trkpt lat="37.27807217961221" lon="14.386479327628786"><ele>464.0</ele><time>2026-03-25T11:23:43.003Z</time></trkpt><trkpt lat="37.27779912306574" lon="14.386340089228472"><ele>471.0</ele><time>2026-03-25T11:23:44.003Z</time></trkpt><trkpt lat="37.27752800786454" lon="14.386205071861454"><ele>478.0</ele><time>2026-03-25T11:23:45.003Z</time></trkpt><trkpt lat="37.27725860947676" lon="14.38607534141281"><ele>479.0</ele><time>2026-03-25T11:23:46.004Z</time></trkpt><trkpt lat="37.2769904072197" lon="14.385950646851764"><ele>480.0</ele><time>2026-03-25T11:23:47.004Z</time></trkpt><trkpt lat="37.27672580066035" lon="14.385823576183185"><ele>480.0</ele><time>2026-03-25T11:23:48.004Z</time></trkpt><trkpt lat="37.276463950846754" lon="14.38569214198546"><ele>480.0</ele><time>2026-03-25T11:23:49.004Z</time></trkpt><trkpt lat="37.2762030157777" lon="14.38556095214244"><ele>479.5</ele><time>2026-03-25T11:23:50.004Z</time></trkpt><trkpt lat="37.27594438245793" lon="14.38543067171233"><ele>479.0</ele><time>2026-03-25T11:23:51.004Z</time></trkpt><trkpt lat="37.27568484773405" lon="14.385301751606361"><ele>477.5</ele><time>2026-03-25T11:23:52.004Z</time></trkpt><trkpt lat="37.275423154115416" lon="14.385176108101636"><ele>476.0</ele><time>2026-03-25T11:23:53.004Z</time></trkpt><trkpt lat="37.275162201364694" lon="14.385052570648284"><ele>476.0</ele><time>2026-03-25T11:23:54.004Z</time></trkpt><trkpt lat="37.27490439378927" lon="14.384930941225127"><ele>476.0</ele><time>2026-03-25T11:23:55.002Z</time></trkpt><trkpt lat="37.27465011827955" lon="14.3848093348235"><ele>477.0</ele><time>2026-03-25T11:23:56.002Z</time></trkpt><trkpt lat="37.27439905836841" lon="14.384689337938848"><ele>478.0</ele><time>2026-03-25T11:23:57.002Z</time></trkpt><trkpt lat="37.27414902855034" lon="14.384565648237784"><ele>475.5</ele><time>2026-03-25T11:23:58.002Z</time></trkpt><trkpt lat="37.273899942887226" lon="14.384438838999346"><ele>473.0</ele><time>2026-03-25T11:23:59.002Z</time></trkpt><trkpt lat="37.273650059227315" lon="14.384313633609544"><ele>473.0</ele><time>2026-03-25T11:24:00.002Z</time></trkpt><trkpt lat="37.27339926199823" lon="14.384186044193612"><ele>473.0</ele><time>2026-03-25T11:24:01.002Z</time></trkpt><trkpt lat="37.27315112473372" lon="14.384053636351496"><ele>473.0</ele><time>2026-03-25T11:24:02.002Z</time></trkpt><trkpt lat="37.27290828463331" lon="14.38390939072556"><ele>473.0</ele><time>2026-03-25T11:24:03.002Z</time></trkpt><trkpt lat="37.27267222617569" lon="14.383751703267178"><ele>472.5</ele><time>2026-03-25T11:24:04.002Z</time></trkpt><trkpt lat="37.2724438568092" lon="14.383579344388153"><ele>472.0</ele><time>2026-03-25T11:24:05.002Z</time></trkpt><trkpt lat="37.272222978243974" lon="14.383393102232315"><ele>472.0</ele><time>2026-03-25T11:24:06.002Z</time></trkpt><trkpt lat="37.27200738167847" lon="14.383197422593742"><ele>472.0</ele><time>2026-03-25T11:24:07.002Z</time></trkpt><trkpt lat="37.271797135952866" lon="14.382991608060276"><ele>472.0</ele><time>2026-03-25T11:24:08.002Z</time></trkpt><trkpt lat="37.271589256339546" lon="14.38278584202665"><ele>472.0</ele><time>2026-03-25T11:24:09.002Z</time></trkpt><trkpt lat="37.271379607857774" lon="14.382586982516287"><ele>472.0</ele><time>2026-03-25T11:24:10.002Z</time></trkpt><trkpt lat="37.271171282223214" lon="14.382392518139206"><ele>472.0</ele><time>2026-03-25T11:24:11.002Z</time></trkpt><trkpt lat="37.270964096323546" lon="14.382197155489672"><ele>469.5</ele><time>2026-03-25T11:24:12.002Z</time></trkpt><trkpt lat="37.27076003998066" lon="14.381999881817116"><ele>467.0</ele><time>2026-03-25T11:24:13.002Z</time></trkpt><trkpt lat="37.27055559555969" lon="14.381803548282772"><ele>467.0</ele><time>2026-03-25T11:24:14.002Z</time></trkpt><trkpt lat="37.270355062722935" lon="14.381608085477575"><ele>467.0</ele><time>2026-03-25T11:24:15.002Z</time></trkpt><trkpt lat="37.27015768614187" lon="14.381414984916255"><ele>461.0</ele><time>2026-03-25T11:24:16.002Z</time></trkpt><trkpt lat="37.26996717105079" lon="14.381227574560773"><ele>455.0</ele><time>2026-03-25T11:24:17.002Z</time></trkpt><trkpt lat="37.269777961078944" lon="14.381046881425892"><ele>458.5</ele><time>2026-03-25T11:24:18.002Z</time></trkpt><trkpt lat="37.2695922637156" lon="14.380870288572188"><ele>462.0</ele><time>2026-03-25T11:24:19.002Z</time></trkpt><trkpt lat="37.26940739312785" lon="14.380692638668767"><ele>457.0</ele><time>2026-03-25T11:24:20.002Z</time></trkpt><trkpt lat="37.26921842282847" lon="14.380509943193458"><ele>452.0</ele><time>2026-03-25T11:24:21.002Z</time></trkpt><trkpt lat="37.26902249436647" lon="14.380324713790976"><ele>456.0</ele><time>2026-03-25T11:24:22.002Z</time></trkpt><trkpt lat="37.26882322420207" lon="14.380140038882342"><ele>460.0</ele><time>2026-03-25T11:24:23.002Z</time></trkpt><trkpt lat="37.26861878837681" lon="14.37995754936454"><ele>460.0</ele><time>2026-03-25T11:24:24.002Z</time></trkpt><trkpt lat="37.26840544485454" lon="14.379787025614215"><ele>460.0</ele><time>2026-03-25T11:24:25.002Z</time></trkpt><trkpt lat="37.268183145583876" lon="14.379635752883685"><ele>455.5</ele><time>2026-03-25T11:24:26.002Z</time></trkpt><trkpt lat="37.26794963870822" lon="14.379507767458913"><ele>451.0</ele><time>2026-03-25T11:24:27.002Z</time></trkpt><trkpt lat="37.26770449211146" lon="14.379401801622807"><ele>451.0</ele><time>2026-03-25T11:24:28.002Z</time></trkpt><trkpt lat="37.267447566185346" lon="14.379317548417"><ele>451.0</ele><time>2026-03-25T11:24:29.002Z</time></trkpt><trkpt lat="37.267183778927794" lon="14.379252370242906"><ele>450.0</ele><time>2026-03-25T11:24:30.002Z</time></trkpt><trkpt lat="37.26691895332999" lon="14.379202812500516"><ele>449.0</ele><time>2026-03-25T11:24:31.002Z</time></trkpt><trkpt lat="37.26665010035722" lon="14.379168642525403"><ele>448.0</ele><time>2026-03-25T11:24:32.002Z</time></trkpt><trkpt lat="37.26637854928882" lon="14.379149186355063"><ele>447.0</ele><time>2026-03-25T11:24:33.002Z</time></trkpt><trkpt lat="37.26610366083267" lon="14.379153012844835"><ele>447.0</ele><time>2026-03-25T11:24:34.002Z</time></trkpt><trkpt lat="37.26582653203059" lon="14.379186297952492"><ele>447.0</ele><time>2026-03-25T11:24:35.002Z</time></trkpt><trkpt lat="37.265552536511855" lon="14.37922481491638"><ele>446.5</ele><time>2026-03-25T11:24:36.002Z</time></trkpt><trkpt lat="37.265281433875366" lon="14.379270323495273"><ele>446.0</ele><time>2026-03-25T11:24:37.002Z</time></trkpt><trkpt lat="37.26501196600527" lon="14.379315080457268"><ele>444.0</ele><time>2026-03-25T11:24:38.002Z</time></trkpt><trkpt lat="37.2647436322086" lon="14.379361606461195"><ele>442.0</ele><time>2026-03-25T11:24:39.002Z</time></trkpt><trkpt lat="37.26447707061394" lon="14.379417077683366"><ele>442.0</ele><time>2026-03-25T11:24:40.002Z</time></trkpt><trkpt lat="37.26421223420897" lon="14.379490002386811"><ele>442.0</ele><time>2026-03-25T11:24:41.002Z</time></trkpt><trkpt lat="37.26394847265486" lon="14.37958194914317"><ele>443.0</ele><time>2026-03-25T11:24:42.002Z</time></trkpt><trkpt lat="37.26368615271087" lon="14.37969088039138"><ele>444.0</ele><time>2026-03-25T11:24:43.002Z</time></trkpt><trkpt lat="37.263426377171655" lon="14.379815090745518"><ele>444.0</ele><time>2026-03-25T11:24:44.002Z</time></trkpt><trkpt lat="37.2631699263679" lon="14.379951515420707"><ele>444.0</ele><time>2026-03-25T11:24:45.002Z</time></trkpt><trkpt lat="37.2629177267988" lon="14.380090809754087"><ele>439.0</ele><time>2026-03-25T11:24:46.002Z</time></trkpt><trkpt lat="37.26266510556856" lon="14.380222770747787"><ele>434.0</ele><time>2026-03-25T11:24:47.002Z</time></trkpt><trkpt lat="37.262409756815195" lon="14.380337003402179"><ele>431.0</ele><time>2026-03-25T11:24:48.002Z</time></trkpt><trkpt lat="37.26215245977579" lon="14.380422244489736"><ele>428.0</ele><time>2026-03-25T11:24:49.002Z</time></trkpt><trkpt lat="37.26189571774396" lon="14.380470381846948"><ele>428.0</ele><time>2026-03-25T11:24:50.002Z</time></trkpt><trkpt lat="37.261644057958605" lon="14.380476593078395"><ele>428.0</ele><time>2026-03-25T11:24:51.002Z</time></trkpt><trkpt lat="37.261392998008475" lon="14.380448489397807"><ele>425.5</ele><time>2026-03-25T11:24:52.002Z</time></trkpt><trkpt lat="37.2611445631397" lon="14.38038307016883"><ele>423.0</ele><time>2026-03-25T11:24:53.002Z</time></trkpt><trkpt lat="37.26089941883195" lon="14.38028947762877"><ele>423.0</ele><time>2026-03-25T11:24:54.002Z</time></trkpt><trkpt lat="37.26065247292204" lon="14.380171604591231"><ele>423.0</ele><time>2026-03-25T11:24:55.001Z</time></trkpt><trkpt lat="37.26039957635622" lon="14.380046453140263"><ele>423.5</ele><time>2026-03-25T11:24:56.001Z</time></trkpt><trkpt lat="37.2601414643443" lon="14.379921032366774"><ele>424.0</ele><time>2026-03-25T11:24:57.001Z</time></trkpt><trkpt lat="37.25988674342619" lon="14.379798658196433"><ele>421.5</ele><time>2026-03-25T11:24:58.001Z</time></trkpt><trkpt lat="37.25963600183085" lon="14.379677976174206"><ele>419.0</ele><time>2026-03-25T11:24:59.001Z</time></trkpt><trkpt lat="37.259394310417385" lon="14.379563487815672"><ele>419.0</ele><time>2026-03-25T11:25:00.001Z</time></trkpt><trkpt lat="37.25915246110086" lon="14.379450294459327"><ele>419.0</ele><time>2026-03-25T11:25:01.001Z</time></trkpt><trkpt lat="37.25890799253191" lon="14.379332157006804"><ele>418.0</ele><time>2026-03-25T11:25:02.001Z</time></trkpt><trkpt lat="37.25866388841213" lon="14.379213303115082"><ele>417.0</ele><time>2026-03-25T11:25:03.001Z</time></trkpt><trkpt lat="37.258417942105844" lon="14.379096909042676"><ele>417.0</ele><time>2026-03-25T11:25:04.001Z</time></trkpt><trkpt lat="37.258169440662904" lon="14.37898851018523"><ele>417.0</ele><time>2026-03-25T11:25:05.001Z</time></trkpt><trkpt lat="37.257915286519705" lon="14.378893193339223"><ele>412.5</ele><time>2026-03-25T11:25:06.001Z</time></trkpt><trkpt lat="37.25765778166302" lon="14.378812465241722"><ele>408.0</ele><time>2026-03-25T11:25:07.001Z</time></trkpt><trkpt lat="37.2573978361972" lon="14.378746371215154"><ele>406.0</ele><time>2026-03-25T11:25:08.001Z</time></trkpt><trkpt lat="37.25714067263993" lon="14.37870147116846"><ele>404.0</ele><time>2026-03-25T11:25:09.001Z</time></trkpt><trkpt lat="37.25688192091571" lon="14.378677002650074"><ele>404.0</ele><time>2026-03-25T11:25:10.001Z</time></trkpt><trkpt lat="37.25662178698501" lon="14.378672440132535"><ele>404.0</ele><time>2026-03-25T11:25:11.001Z</time></trkpt><trkpt lat="37.256360740146874" lon="14.378688031816042"><ele>401.0</ele><time>2026-03-25T11:25:12.001Z</time></trkpt><trkpt lat="37.25610138055381" lon="14.378724619508809"><ele>398.0</ele><time>2026-03-25T11:25:13.001Z</time></trkpt><trkpt lat="37.25583959394048" lon="14.378777083889002"><ele>399.5</ele><time>2026-03-25T11:25:14.001Z</time></trkpt><trkpt lat="37.2555765564099" lon="14.378845892555542"><ele>401.0</ele><time>2026-03-25T11:25:15.001Z</time></trkpt><trkpt lat="37.25531393860978" lon="14.378928055274027"><ele>401.0</ele><time>2026-03-25T11:25:16.001Z</time></trkpt><trkpt lat="37.25505134363872" lon="14.37902130067286"><ele>401.0</ele><time>2026-03-25T11:25:17.002Z</time></trkpt><trkpt lat="37.254788898857484" lon="14.37912120489923"><ele>397.5</ele><time>2026-03-25T11:25:18.002Z</time></trkpt><trkpt lat="37.25452826526155" lon="14.379218356368234"><ele>394.0</ele><time>2026-03-25T11:25:19.002Z</time></trkpt><trkpt lat="37.2542632285628" lon="14.379312105112216"><ele>394.0</ele><time>2026-03-25T11:25:20.002Z</time></trkpt><trkpt lat="37.254003850696215" lon="14.379403824277015"><ele>394.0</ele><time>2026-03-25T11:25:21.002Z</time></trkpt><trkpt lat="37.25374462633597" lon="14.379492922550837"><ele>390.5</ele><time>2026-03-25T11:25:22.002Z</time></trkpt><trkpt lat="37.253489276020424" lon="14.379583064007464"><ele>387.0</ele><time>2026-03-25T11:25:23.002Z</time></trkpt><trkpt lat="37.25324123067626" lon="14.379679186783735"><ele>385.0</ele><time>2026-03-25T11:25:24.002Z</time></trkpt><trkpt lat="37.25299569879774" lon="14.37978591055216"><ele>383.0</ele><time>2026-03-25T11:25:25.002Z</time></trkpt><trkpt lat="37.252755311665894" lon="14.37990566097046"><ele>383.0</ele><time>2026-03-25T11:25:26.002Z</time></trkpt><trkpt lat="37.25252053472813" lon="14.380046473119146"><ele>383.0</ele><time>2026-03-25T11:25:27.002Z</time></trkpt><trkpt lat="37.25228703600457" lon="14.38019435688716"><ele>381.5</ele><time>2026-03-25T11:25:28.002Z</time></trkpt><trkpt lat="37.25205524067064" lon="14.380352994923811"><ele>380.0</ele><time>2026-03-25T11:25:29.002Z</time></trkpt><trkpt lat="37.25182609163943" lon="14.3805216972458"><ele>380.0</ele><time>2026-03-25T11:25:30.002Z</time></trkpt><trkpt lat="37.251598950567754" lon="14.38069428598107"><ele>380.0</ele><time>2026-03-25T11:25:31.002Z</time></trkpt><trkpt lat="37.25136934708156" lon="14.380864140226715"><ele>376.5</ele><time>2026-03-25T11:25:32.002Z</time></trkpt><trkpt lat="37.25113562294872" lon="14.381027379304461"><ele>373.0</ele><time>2026-03-25T11:25:33.002Z</time></trkpt><trkpt lat="37.250898329115614" lon="14.381175861188742"><ele>373.0</ele><time>2026-03-25T11:25:34.002Z</time></trkpt><trkpt lat="37.25065468250168" lon="14.381307876539346"><ele>373.0</ele><time>2026-03-25T11:25:35.002Z</time></trkpt><trkpt lat="37.25040416978632" lon="14.381421722143315"><ele>369.5</ele><time>2026-03-25T11:25:36.002Z</time></trkpt><trkpt lat="37.25014758149611" lon="14.381523854796745"><ele>366.0</ele><time>2026-03-25T11:25:37.002Z</time></trkpt><trkpt lat="37.24988505105685" lon="14.381615779933922"><ele>363.0</ele><time>2026-03-25T11:25:38.002Z</time></trkpt><trkpt lat="37.24961851219824" lon="14.38170127668993"><ele>360.0</ele><time>2026-03-25T11:25:39.002Z</time></trkpt><trkpt lat="37.24935080239572" lon="14.381778903945218"><ele>360.0</ele><time>2026-03-25T11:25:40.002Z</time></trkpt><trkpt lat="37.24908126477998" lon="14.381853445809764"><ele>360.0</ele><time>2026-03-25T11:25:41.002Z</time></trkpt><trkpt lat="37.248811447292496" lon="14.38192974636862"><ele>357.5</ele><time>2026-03-25T11:25:42.002Z</time></trkpt><trkpt lat="37.248541829855114" lon="14.382006612474159"><ele>355.0</ele><time>2026-03-25T11:25:43.002Z</time></trkpt><trkpt lat="37.248270735378924" lon="14.38207963005394"><ele>353.5</ele><time>2026-03-25T11:25:44.002Z</time></trkpt><trkpt lat="37.247996958353006" lon="14.382143046254141"><ele>352.0</ele><time>2026-03-25T11:25:45.002Z</time></trkpt><trkpt lat="37.24772359514081" lon="14.382191873533607"><ele>354.5</ele><time>2026-03-25T11:25:46.002Z</time></trkpt><trkpt lat="37.24745053950571" lon="14.382222113011094"><ele>357.0</ele><time>2026-03-25T11:25:47.002Z</time></trkpt><trkpt lat="37.24717969265067" lon="14.382233925971484"><ele>357.0</ele><time>2026-03-25T11:25:48.002Z</time></trkpt><trkpt lat="37.246908732507755" lon="14.382227450447385"><ele>357.0</ele><time>2026-03-25T11:25:49.002Z</time></trkpt><trkpt lat="37.246639773979574" lon="14.38221104689963"><ele>356.0</ele><time>2026-03-25T11:25:50.002Z</time></trkpt><trkpt lat="37.246370402426976" lon="14.382191515668481"><ele>355.0</ele><time>2026-03-25T11:25:51.002Z</time></trkpt><trkpt lat="37.24610025251961" lon="14.382169675097732"><ele>352.5</ele><time>2026-03-25T11:25:52.002Z</time></trkpt><trkpt lat="37.245828417820675" lon="14.382149932406923"><ele>350.0</ele><time>2026-03-25T11:25:53.002Z</time></trkpt><trkpt lat="37.24555577999453" lon="14.38213032103191"><ele>349.0</ele><time>2026-03-25T11:25:54.002Z</time></trkpt><trkpt lat="37.24528174392278" lon="14.38211094776327"><ele>348.0</ele><time>2026-03-25T11:25:55.002Z</time></trkpt><trkpt lat="37.24500770853016" lon="14.382088878735182"><ele>345.0</ele><time>2026-03-25T11:25:56.002Z</time></trkpt><trkpt lat="37.24473306817621" lon="14.382064006586639"><ele>342.0</ele><time>2026-03-25T11:25:57.002Z</time></trkpt><trkpt lat="37.244460673333684" lon="14.382043134757057"><ele>342.0</ele><time>2026-03-25T11:25:58.002Z</time></trkpt><trkpt lat="37.24418810488731" lon="14.38202377910567"><ele>342.0</ele><time>2026-03-25T11:25:59.002Z</time></trkpt><trkpt lat="37.243917694390035" lon="14.382003701233394"><ele>344.0</ele><time>2026-03-25T11:26:00.002Z</time></trkpt><trkpt lat="37.24364905416227" lon="14.381985063861682"><ele>346.0</ele><time>2026-03-25T11:26:01Z</time></trkpt><trkpt lat="37.243380464768194" lon="14.381970676566924"><ele>347.0</ele><time>2026-03-25T11:26:02Z</time></trkpt><trkpt lat="37.24311213083072" lon="14.381970821885815"><ele>348.0</ele><time>2026-03-25T11:26:03Z</time></trkpt><trkpt lat="37.24284265229054" lon="14.381993021371093"><ele>348.0</ele><time>2026-03-25T11:26:04Z</time></trkpt><trkpt lat="37.24256611212273" lon="14.382033132765033"><ele>348.0</ele><time>2026-03-25T11:26:05Z</time></trkpt><trkpt lat="37.24228620928059" lon="14.382079414010587"><ele>350.5</ele><time>2026-03-25T11:26:06Z</time></trkpt><trkpt lat="37.242004797837374" lon="14.382131043607885"><ele>353.0</ele><time>2026-03-25T11:26:07Z</time></trkpt><trkpt lat="37.24172110858912" lon="14.382186919174325"><ele>346.0</ele><time>2026-03-25T11:26:08Z</time></trkpt><trkpt lat="37.24143785067449" lon="14.382246959334399"><ele>339.0</ele><time>2026-03-25T11:26:09Z</time></trkpt><trkpt lat="37.24115624265413" lon="14.382304934479825"><ele>339.0</ele><time>2026-03-25T11:26:10Z</time></trkpt><trkpt lat="37.24087742607808" lon="14.382361688402435"><ele>339.0</ele><time>2026-03-25T11:26:11Z</time></trkpt><trkpt lat="37.240601144657326" lon="14.382418061789258"><ele>334.0</ele><time>2026-03-25T11:26:12Z</time></trkpt><trkpt lat="37.24032740451468" lon="14.382472943047736"><ele>329.0</ele><time>2026-03-25T11:26:13Z</time></trkpt><trkpt lat="37.24005530627732" lon="14.382525600911725"><ele>328.0</ele><time>2026-03-25T11:26:14Z</time></trkpt><trkpt lat="37.23978422988265" lon="14.382579764566199"><ele>327.0</ele><time>2026-03-25T11:26:15Z</time></trkpt><trkpt lat="37.23951205778998" lon="14.38263528452893"><ele>327.0</ele><time>2026-03-25T11:26:16Z</time></trkpt><trkpt lat="37.239238938563965" lon="14.38269414846507"><ele>327.0</ele><time>2026-03-25T11:26:17Z</time></trkpt><trkpt lat="37.238966353739464" lon="14.38275090200438"><ele>328.5</ele><time>2026-03-25T11:26:18Z</time></trkpt><trkpt lat="37.238694553115494" lon="14.382806800002385"><ele>330.0</ele><time>2026-03-25T11:26:19Z</time></trkpt><trkpt lat="37.238426765437836" lon="14.382863165619263"><ele>330.0</ele><time>2026-03-25T11:26:20Z</time></trkpt><trkpt lat="37.23815627143826" lon="14.382917737220655"><ele>330.0</ele><time>2026-03-25T11:26:21Z</time></trkpt><trkpt lat="37.237885009938424" lon="14.382968889703722"><ele>330.5</ele><time>2026-03-25T11:26:22Z</time></trkpt><trkpt lat="37.237614141952974" lon="14.383008711532483"><ele>331.0</ele><time>2026-03-25T11:26:23Z</time></trkpt><trkpt lat="37.23734484125582" lon="14.383033470298301"><ele>326.0</ele><time>2026-03-25T11:26:24Z</time></trkpt><trkpt lat="37.23707870068775" lon="14.383041968944458"><ele>321.0</ele><time>2026-03-25T11:26:25Z</time></trkpt><trkpt lat="37.23682296998934" lon="14.383016235028128"><ele>323.5</ele><time>2026-03-25T11:26:26Z</time></trkpt><trkpt lat="37.236566601997374" lon="14.382958257735254"><ele>326.0</ele><time>2026-03-25T11:26:27Z</time></trkpt><trkpt lat="37.23630312895702" lon="14.382882727343263"><ele>320.0</ele><time>2026-03-25T11:26:28Z</time></trkpt><trkpt lat="37.236033081333815" lon="14.382806052279506"><ele>314.0</ele><time>2026-03-25T11:26:29Z</time></trkpt><trkpt lat="37.23575695895744" lon="14.382736071363988"><ele>312.0</ele><time>2026-03-25T11:26:30Z</time></trkpt><trkpt lat="37.235479618238756" lon="14.382672781414378"><ele>310.0</ele><time>2026-03-25T11:26:31Z</time></trkpt><trkpt lat="37.23520277935288" lon="14.382608378927095"><ele>310.0</ele><time>2026-03-25T11:26:32Z</time></trkpt><trkpt lat="37.23492629115061" lon="14.382540081174433"><ele>310.0</ele><time>2026-03-25T11:26:33Z</time></trkpt><trkpt lat="37.234650595724844" lon="14.382468896074174"><ele>307.0</ele><time>2026-03-25T11:26:34Z</time></trkpt><trkpt lat="37.23437428381703" lon="14.382398894792127"><ele>304.0</ele><time>2026-03-25T11:26:35Z</time></trkpt><trkpt lat="37.23409570745759" lon="14.382331049989661"><ele>302.0</ele><time>2026-03-25T11:26:36Z</time></trkpt><trkpt lat="37.23381919051941" lon="14.38226421857609"><ele>300.0</ele><time>2026-03-25T11:26:37Z</time></trkpt><trkpt lat="37.23354236388309" lon="14.382195541761195"><ele>299.5</ele><time>2026-03-25T11:26:38Z</time></trkpt><trkpt lat="37.23326586860363" lon="14.382128085010823"><ele>299.0</ele><time>2026-03-25T11:26:39Z</time></trkpt><trkpt lat="37.232992070547084" lon="14.382058618208326"><ele>299.0</ele><time>2026-03-25T11:26:40Z</time></trkpt><trkpt lat="37.232721790767144" lon="14.38198837686632"><ele>299.0</ele><time>2026-03-25T11:26:41Z</time></trkpt><trkpt lat="37.23245441645844" lon="14.381916166805805"><ele>298.0</ele><time>2026-03-25T11:26:42Z</time></trkpt><trkpt lat="37.23219103659418" lon="14.381836701783284"><ele>297.0</ele><time>2026-03-25T11:26:43Z</time></trkpt><trkpt lat="37.23192965192342" lon="14.381745316287917"><ele>297.0</ele><time>2026-03-25T11:26:44Z</time></trkpt><trkpt lat="37.23167231055147" lon="14.381636292667418"><ele>297.0</ele><time>2026-03-25T11:26:45Z</time></trkpt><trkpt lat="37.23141524648963" lon="14.38150312247207"><ele>295.5</ele><time>2026-03-25T11:26:46Z</time></trkpt><trkpt lat="37.231165172887614" lon="14.381349838907282"><ele>294.0</ele><time>2026-03-25T11:26:47Z</time></trkpt><trkpt lat="37.23091917715201" lon="14.381181873850277"><ele>293.0</ele><time>2026-03-25T11:26:48Z</time></trkpt><trkpt lat="37.23067422200475" lon="14.381005897418227"><ele>292.0</ele><time>2026-03-25T11:26:49Z</time></trkpt><trkpt lat="37.23042927736253" lon="14.380825859130933"><ele>290.0</ele><time>2026-03-25T11:26:50Z</time></trkpt><trkpt lat="37.23018530028356" lon="14.380647824438023"><ele>288.0</ele><time>2026-03-25T11:26:51Z</time></trkpt><trkpt lat="37.229944223190245" lon="14.38047212916997"><ele>286.5</ele><time>2026-03-25T11:26:52Z</time></trkpt><trkpt lat="37.22970949886611" lon="14.380301698391687"><ele>285.0</ele><time>2026-03-25T11:26:53.001Z</time></trkpt><trkpt lat="37.229477762382636" lon="14.380143803855788"><ele>285.0</ele><time>2026-03-25T11:26:54.001Z</time></trkpt><trkpt lat="37.22924180121911" lon="14.380001471286903"><ele>285.0</ele><time>2026-03-25T11:26:55.001Z</time></trkpt><trkpt lat="37.22899687026314" lon="14.379878507919663"><ele>284.5</ele><time>2026-03-25T11:26:56.001Z</time></trkpt><trkpt lat="37.22874422083399" lon="14.37977788955312"><ele>284.0</ele><time>2026-03-25T11:26:57.001Z</time></trkpt><trkpt lat="37.2284825956416" lon="14.379701881766481"><ele>281.0</ele><time>2026-03-25T11:26:58.001Z</time></trkpt><trkpt lat="37.22821475079006" lon="14.379647822961575"><ele>278.0</ele><time>2026-03-25T11:26:59.001Z</time></trkpt><trkpt lat="37.227938726797206" lon="14.379616048574839"><ele>277.0</ele><time>2026-03-25T11:27:00.001Z</time></trkpt><trkpt lat="37.22765747263146" lon="14.379599880494988"><ele>276.0</ele><time>2026-03-25T11:27:01.001Z</time></trkpt><trkpt lat="37.227375915275076" lon="14.379594791043822"><ele>273.0</ele><time>2026-03-25T11:27:02.001Z</time></trkpt><trkpt lat="37.227092412333285" lon="14.379594075700735"><ele>270.0</ele><time>2026-03-25T11:27:03.001Z</time></trkpt><trkpt lat="37.2268068406518" lon="14.379591114168212"><ele>270.0</ele><time>2026-03-25T11:27:04.001Z</time></trkpt><trkpt lat="37.22652187406463" lon="14.379586244786971"><ele>270.0</ele><time>2026-03-25T11:27:05.001Z</time></trkpt><trkpt lat="37.22623843659012" lon="14.379578585522392"><ele>269.5</ele><time>2026-03-25T11:27:06.001Z</time></trkpt><trkpt lat="37.22595670912349" lon="14.379569894336962"><ele>269.0</ele><time>2026-03-25T11:27:07.001Z</time></trkpt><trkpt lat="37.22567711717373" lon="14.379558590695822"><ele>266.0</ele><time>2026-03-25T11:27:08.001Z</time></trkpt><trkpt lat="37.22539875116979" lon="14.379535337604976"><ele>263.0</ele><time>2026-03-25T11:27:09.001Z</time></trkpt><trkpt lat="37.225121683020866" lon="14.379494488393286"><ele>263.0</ele><time>2026-03-25T11:27:10.001Z</time></trkpt><trkpt lat="37.2248467614918" lon="14.379432935676986"><ele>263.0</ele><time>2026-03-25T11:27:11.001Z</time></trkpt><trkpt lat="37.22457406432978" lon="14.379354420523343"><ele>261.5</ele><time>2026-03-25T11:27:12.001Z</time></trkpt><trkpt lat="37.22430071964525" lon="14.379268143123747"><ele>260.0</ele><time>2026-03-25T11:27:13.001Z</time></trkpt><trkpt lat="37.224026899891946" lon="14.379181453907279"><ele>259.0</ele><time>2026-03-25T11:27:14.001Z</time></trkpt><trkpt lat="37.2237530138951" lon="14.379096091036574"><ele>258.0</ele><time>2026-03-25T11:27:15.001Z</time></trkpt><trkpt lat="37.223477338999345" lon="14.379012134424002"><ele>258.0</ele><time>2026-03-25T11:27:16.001Z</time></trkpt><trkpt lat="37.22320564390445" lon="14.378930734743543"><ele>258.0</ele><time>2026-03-25T11:27:17.001Z</time></trkpt><trkpt lat="37.22293667702409" lon="14.378850122547075"><ele>258.5</ele><time>2026-03-25T11:27:18.001Z</time></trkpt><trkpt lat="37.22267164102233" lon="14.378770362571013"><ele>259.0</ele><time>2026-03-25T11:27:19.001Z</time></trkpt><trkpt lat="37.22240730196016" lon="14.378701524218691"><ele>258.0</ele><time>2026-03-25T11:27:20.001Z</time></trkpt><trkpt lat="37.222143495595446" lon="14.378658512190542"><ele>257.0</ele><time>2026-03-25T11:27:21.001Z</time></trkpt><trkpt lat="37.22187801139581" lon="14.378639623830376"><ele>257.0</ele><time>2026-03-25T11:27:22.001Z</time></trkpt><trkpt lat="37.22161056195733" lon="14.378640335872984"><ele>257.0</ele><time>2026-03-25T11:27:23.001Z</time></trkpt><trkpt lat="37.22134088509348" lon="14.37866718006867"><ele>255.0</ele><time>2026-03-25T11:27:24.001Z</time></trkpt><trkpt lat="37.22106791579022" lon="14.378720229234219"><ele>253.0</ele><time>2026-03-25T11:27:25.001Z</time></trkpt><trkpt lat="37.220792380123164" lon="14.378791370492216"><ele>252.0</ele><time>2026-03-25T11:27:26.001Z</time></trkpt><trkpt lat="37.220516625355536" lon="14.378867917593121"><ele>251.0</ele><time>2026-03-25T11:27:27.001Z</time></trkpt><trkpt lat="37.22024217445761" lon="14.378943761834359"><ele>251.0</ele><time>2026-03-25T11:27:28.001Z</time></trkpt><trkpt lat="37.21996798853304" lon="14.379018409493657"><ele>251.0</ele><time>2026-03-25T11:27:29.001Z</time></trkpt><trkpt lat="37.21969616684879" lon="14.379091883816484"><ele>250.5</ele><time>2026-03-25T11:27:30.001Z</time></trkpt><trkpt lat="37.21942564643138" lon="14.379168363645823"><ele>250.0</ele><time>2026-03-25T11:27:31.001Z</time></trkpt><trkpt lat="37.21915858208394" lon="14.379241986043327"><ele>250.5</ele><time>2026-03-25T11:27:32.001Z</time></trkpt><trkpt lat="37.21889489564721" lon="14.379313062257618"><ele>251.0</ele><time>2026-03-25T11:27:33.001Z</time></trkpt><trkpt lat="37.21863411931262" lon="14.379384592420376"><ele>251.0</ele><time>2026-03-25T11:27:34.001Z</time></trkpt><trkpt lat="37.21837499788119" lon="14.379452243748396"><ele>251.0</ele><time>2026-03-25T11:27:35.001Z</time></trkpt><trkpt lat="37.218111518966694" lon="14.37950185515933"><ele>249.0</ele><time>2026-03-25T11:27:36.001Z</time></trkpt><trkpt lat="37.21784440219221" lon="14.37951880347904"><ele>247.0</ele><time>2026-03-25T11:27:37.001Z</time></trkpt><trkpt lat="37.21757692759539" lon="14.379508208518123"><ele>244.0</ele><time>2026-03-25T11:27:38.001Z</time></trkpt><trkpt lat="37.217308006140264" lon="14.37946478709226"><ele>241.0</ele><time>2026-03-25T11:27:39.001Z</time></trkpt><trkpt lat="37.217039893950236" lon="14.379399742585239"><ele>241.0</ele><time>2026-03-25T11:27:40.001Z</time></trkpt><trkpt lat="37.216775261520084" lon="14.37930624849813"><ele>241.0</ele><time>2026-03-25T11:27:41.001Z</time></trkpt><trkpt lat="37.21651444479878" lon="14.379183535791338"><ele>241.5</ele><time>2026-03-25T11:27:42.001Z</time></trkpt><trkpt lat="37.216260684039256" lon="14.379039068745259"><ele>242.0</ele><time>2026-03-25T11:27:43.001Z</time></trkpt><trkpt lat="37.21601150338281" lon="14.378882951250306"><ele>241.0</ele><time>2026-03-25T11:27:44.001Z</time></trkpt><trkpt lat="37.21576199360663" lon="14.378726335445839"><ele>240.0</ele><time>2026-03-25T11:27:45.002Z</time></trkpt><trkpt lat="37.215509960671184" lon="14.378572258155097"><ele>237.5</ele><time>2026-03-25T11:27:46.002Z</time></trkpt><trkpt lat="37.21525471143621" lon="14.378424800471477"><ele>235.0</ele><time>2026-03-25T11:27:47.002Z</time></trkpt><trkpt lat="37.214992650100356" lon="14.378292609001244"><ele>234.0</ele><time>2026-03-25T11:27:48.002Z</time></trkpt><trkpt lat="37.21472443588176" lon="14.378177432775656"><ele>233.0</ele><time>2026-03-25T11:27:49.002Z</time></trkpt><trkpt lat="37.214449825295006" lon="14.37807336970219"><ele>234.0</ele><time>2026-03-25T11:27:50.002Z</time></trkpt><trkpt lat="37.214172136779744" lon="14.37797752173873"><ele>235.0</ele><time>2026-03-25T11:27:51.002Z</time></trkpt><trkpt lat="37.21389291188773" lon="14.377881424607633"><ele>232.5</ele><time>2026-03-25T11:27:52.002Z</time></trkpt><trkpt lat="37.21361432483111" lon="14.377785820322948"><ele>230.0</ele><time>2026-03-25T11:27:53.002Z</time></trkpt><trkpt lat="37.213334116097556" lon="14.377689403890846"><ele>228.5</ele><time>2026-03-25T11:27:54.002Z</time></trkpt><trkpt lat="37.21305318284956" lon="14.377592049967342"><ele>227.0</ele><time>2026-03-25T11:27:55.002Z</time></trkpt><trkpt lat="37.21277314926694" lon="14.377496343279091"><ele>227.0</ele><time>2026-03-25T11:27:56.002Z</time></trkpt><trkpt lat="37.2124905677663" lon="14.377403147447737"><ele>227.0</ele><time>2026-03-25T11:27:57.002Z</time></trkpt><trkpt lat="37.21220691830084" lon="14.377308908176657"><ele>224.5</ele><time>2026-03-25T11:27:58.002Z</time></trkpt><trkpt lat="37.21192362452228" lon="14.377213767420464"><ele>222.0</ele><time>2026-03-25T11:27:59.002Z</time></trkpt><trkpt lat="37.21164324363824" lon="14.377118832085392"><ele>219.5</ele><time>2026-03-25T11:28:00.002Z</time></trkpt><trkpt lat="37.21136240124322" lon="14.377023426860296"><ele>217.0</ele><time>2026-03-25T11:28:01.002Z</time></trkpt><trkpt lat="37.21108027234144" lon="14.376928298262976"><ele>217.0</ele><time>2026-03-25T11:28:02.002Z</time></trkpt><trkpt lat="37.21080373330649" lon="14.376833911887182"><ele>217.0</ele><time>2026-03-25T11:28:03.002Z</time></trkpt><trkpt lat="37.21053811729214" lon="14.37674392453519"><ele>216.0</ele><time>2026-03-25T11:28:04.002Z</time></trkpt><trkpt lat="37.21028522055709" lon="14.3766576120387"><ele>215.0</ele><time>2026-03-25T11:28:05.002Z</time></trkpt><trkpt lat="37.21003111697904" lon="14.376564449435763"><ele>214.5</ele><time>2026-03-25T11:28:06.002Z</time></trkpt><trkpt lat="37.20978033085882" lon="14.376453039998799"><ele>214.0</ele><time>2026-03-25T11:28:07Z</time></trkpt><trkpt lat="37.20953778720503" lon="14.37631896318049"><ele>210.5</ele><time>2026-03-25T11:28:08Z</time></trkpt><trkpt lat="37.20931404541837" lon="14.376154345023433"><ele>207.0</ele><time>2026-03-25T11:28:09Z</time></trkpt><trkpt lat="37.209115995790235" lon="14.375966287824482"><ele>205.5</ele><time>2026-03-25T11:28:10Z</time></trkpt><trkpt lat="37.208932252159755" lon="14.37575427652667"><ele>204.0</ele><time>2026-03-25T11:28:11Z</time></trkpt><trkpt lat="37.208757466173196" lon="14.375515603581801"><ele>204.0</ele><time>2026-03-25T11:28:12Z</time></trkpt><trkpt lat="37.20859229664604" lon="14.37526960623278"><ele>204.0</ele><time>2026-03-25T11:28:13Z</time></trkpt><trkpt lat="37.208439583437325" lon="14.375031799065377"><ele>204.0</ele><time>2026-03-25T11:28:14Z</time></trkpt><trkpt lat="37.20828682058245" lon="14.37481738798734"><ele>204.0</ele><time>2026-03-25T11:28:15Z</time></trkpt><trkpt lat="37.20811639192717" lon="14.37460906152214"><ele>200.5</ele><time>2026-03-25T11:28:16Z</time></trkpt><trkpt lat="37.207928180331365" lon="14.37441476580516"><ele>197.0</ele><time>2026-03-25T11:28:17Z</time></trkpt><trkpt lat="37.20771922453728" lon="14.374242416156537"><ele>197.0</ele><time>2026-03-25T11:28:18Z</time></trkpt><trkpt lat="37.20749521827063" lon="14.37409856753353"><ele>197.0</ele><time>2026-03-25T11:28:19Z</time></trkpt><trkpt lat="37.20725755682997" lon="14.373988948016613"><ele>197.5</ele><time>2026-03-25T11:28:20Z</time></trkpt><trkpt lat="37.207003049622784" lon="14.373936510667617"><ele>198.0</ele><time>2026-03-25T11:28:21Z</time></trkpt><trkpt lat="37.20675325111996" lon="14.373896637461675"><ele>198.0</ele><time>2026-03-25T11:28:22Z</time></trkpt><trkpt lat="37.2064957710322" lon="14.373881634661917"><ele>198.0</ele><time>2026-03-25T11:28:23Z</time></trkpt><trkpt lat="37.20625011510015" lon="14.373883197529128"><ele>194.5</ele><time>2026-03-25T11:28:24Z</time></trkpt><trkpt lat="37.20601687361741" lon="14.373887293777106"><ele>191.0</ele><time>2026-03-25T11:28:25Z</time></trkpt><trkpt lat="37.2057949570842" lon="14.373886043854926"><ele>188.0</ele><time>2026-03-25T11:28:26Z</time></trkpt><trkpt lat="37.205582145872135" lon="14.373884339805995"><ele>185.0</ele><time>2026-03-25T11:28:27Z</time></trkpt><trkpt lat="37.20537937063353" lon="14.37389008624573"><ele>182.0</ele><time>2026-03-25T11:28:28Z</time></trkpt><trkpt lat="37.205178079734495" lon="14.373884823458566"><ele>182.0</ele><time>2026-03-25T11:28:29Z</time></trkpt><trkpt lat="37.20496676508071" lon="14.373880629900011"><ele>182.0</ele><time>2026-03-25T11:28:30Z</time></trkpt><trkpt lat="37.20475115443029" lon="14.373879213057458"><ele>182.0</ele><time>2026-03-25T11:28:31Z</time></trkpt><trkpt lat="37.20454097896916" lon="14.373877002595904"><ele>181.0</ele><time>2026-03-25T11:28:32Z</time></trkpt><trkpt lat="37.20434070384559" lon="14.373874927955233"><ele>180.0</ele><time>2026-03-25T11:28:33Z</time></trkpt><trkpt lat="37.204134032626456" lon="14.37386988616168"><ele>179.0</ele><time>2026-03-25T11:28:34Z</time></trkpt><trkpt lat="37.203920703307205" lon="14.373863738562198"><ele>178.0</ele><time>2026-03-25T11:28:35Z</time></trkpt><trkpt lat="37.2037071842457" lon="14.373848412307897"><ele>177.0</ele><time>2026-03-25T11:28:36Z</time></trkpt><trkpt lat="37.20350075753996" lon="14.373812323640006"><ele>176.0</ele><time>2026-03-25T11:28:37Z</time></trkpt><trkpt lat="37.20329706896035" lon="14.373749430328862"><ele>176.66666666666666</ele><time>2026-03-25T11:28:38Z</time></trkpt><trkpt lat="37.20310324110537" lon="14.373666400767295"><ele>177.33333333333334</ele><time>2026-03-25T11:28:39Z</time></trkpt><trkpt lat="37.20291734247595" lon="14.373562273939333"><ele>178.0</ele><time>2026-03-25T11:28:40Z</time></trkpt><trkpt lat="37.202743095140846" lon="14.373440818824037"><ele>178.0</ele><time>2026-03-25T11:28:41Z</time></trkpt><trkpt lat="37.20258248754919" lon="14.373304794305401"><ele>178.0</ele><time>2026-03-25T11:28:42Z</time></trkpt><trkpt lat="37.20243574187529" lon="14.373157989182145"><ele>178.0</ele><time>2026-03-25T11:28:43Z</time></trkpt><trkpt lat="37.202303510043706" lon="14.373001921793952"><ele>179.66666666666669</ele><time>2026-03-25T11:28:44Z</time></trkpt><trkpt lat="37.202181401479486" lon="14.372834024475418"><ele>181.33333333333334</ele><time>2026-03-25T11:28:45Z</time></trkpt><trkpt lat="37.20206871233447" lon="14.372654842331325"><ele>183.0</ele><time>2026-03-25T11:28:46Z</time></trkpt><trkpt lat="37.201969909319736" lon="14.372465587902294"><ele>183.0</ele><time>2026-03-25T11:28:47Z</time></trkpt><trkpt lat="37.20188692826549" lon="14.372264108864874"><ele>183.0</ele><time>2026-03-25T11:28:48Z</time></trkpt><trkpt lat="37.20181044187031" lon="14.372055439697561"><ele>183.0</ele><time>2026-03-25T11:28:49Z</time></trkpt><trkpt lat="37.20173304442184" lon="14.371839065831649"><ele>182.0</ele><time>2026-03-25T11:28:50Z</time></trkpt><trkpt lat="37.20165412601641" lon="14.371615786461152"><ele>181.0</ele><time>2026-03-25T11:28:51Z</time></trkpt><trkpt lat="37.201576924089835" lon="14.371389866230603"><ele>180.0</ele><time>2026-03-25T11:28:52Z</time></trkpt><trkpt lat="37.20150097833158" lon="14.371173152985133"><ele>183.0</ele><time>2026-03-25T11:28:53Z</time></trkpt><trkpt lat="37.201423921871374" lon="14.370965204377676"><ele>186.0</ele><time>2026-03-25T11:28:54Z</time></trkpt><trkpt lat="37.201345236305464" lon="14.370779754918102"><ele>189.0</ele><time>2026-03-25T11:28:55Z</time></trkpt><trkpt lat="37.20125952738938" lon="14.370590104709853"><ele>188.0</ele><time>2026-03-25T11:28:56Z</time></trkpt><trkpt lat="37.20117036314637" lon="14.370408038036947"><ele>187.0</ele><time>2026-03-25T11:28:57Z</time></trkpt><trkpt lat="37.20108228773812" lon="14.370240869416913"><ele>186.0</ele><time>2026-03-25T11:28:58.001Z</time></trkpt><trkpt lat="37.20099011846513" lon="14.37008221615076"><ele>186.0</ele><time>2026-03-25T11:28:59.001Z</time></trkpt><trkpt lat="37.20078609082174" lon="14.369784335069477"><ele>186.0</ele><time>2026-03-25T11:29:01.001Z</time></trkpt><trkpt lat="37.20066746349402" lon="14.36963060988171"><ele>186.33333333333334</ele><time>2026-03-25T11:29:02.001Z</time></trkpt><trkpt lat="37.200531882924544" lon="14.369464557317922"><ele>186.66666666666669</ele><time>2026-03-25T11:29:03.001Z</time></trkpt><trkpt lat="37.200384035694086" lon="14.369285182582779"><ele>187.0</ele><time>2026-03-25T11:29:04.001Z</time></trkpt><trkpt lat="37.20022834339325" lon="14.369095722624756"><ele>187.0</ele><time>2026-03-25T11:29:05.001Z</time></trkpt><trkpt lat="37.20007392620882" lon="14.368906727608751"><ele>187.0</ele><time>2026-03-25T11:29:06.001Z</time></trkpt><trkpt lat="37.19992026772336" lon="14.368710750159886"><ele>187.0</ele><time>2026-03-25T11:29:07.001Z</time></trkpt><trkpt lat="37.19977114989098" lon="14.36851187803993"><ele>186.0</ele><time>2026-03-25T11:29:08.001Z</time></trkpt><trkpt lat="37.199630162026196" lon="14.368324672420407"><ele>185.0</ele><time>2026-03-25T11:29:09.001Z</time></trkpt><trkpt lat="37.19949007575234" lon="14.368148597848785"><ele>184.0</ele><time>2026-03-25T11:29:10.001Z</time></trkpt><trkpt lat="37.19935006187128" lon="14.367977099902117"><ele>183.66666666666669</ele><time>2026-03-25T11:29:11.001Z</time></trkpt><trkpt lat="37.19919756315086" lon="14.367795867873776"><ele>183.33333333333334</ele><time>2026-03-25T11:29:12.001Z</time></trkpt><trkpt lat="37.1990314821366" lon="14.367611335874548"><ele>183.0</ele><time>2026-03-25T11:29:13.001Z</time></trkpt><trkpt lat="37.19885605807447" lon="14.36742112844186"><ele>183.0</ele><time>2026-03-25T11:29:14.001Z</time></trkpt><trkpt lat="37.19867010681418" lon="14.36721766009338"><ele>183.0</ele><time>2026-03-25T11:29:15.001Z</time></trkpt><trkpt lat="37.19848384652483" lon="14.367000632479645"><ele>182.0</ele><time>2026-03-25T11:29:16.001Z</time></trkpt><trkpt lat="37.1982989532565" lon="14.366781902921703"><ele>181.0</ele><time>2026-03-25T11:29:17.001Z</time></trkpt><trkpt lat="37.19811049606711" lon="14.366557786856225"><ele>178.0</ele><time>2026-03-25T11:29:18.001Z</time></trkpt><trkpt lat="37.19792240813189" lon="14.36633326116504"><ele>175.0</ele><time>2026-03-25T11:29:19.001Z</time></trkpt><trkpt lat="37.197736122166376" lon="14.366106676801506"><ele>175.0</ele><time>2026-03-25T11:29:20.001Z</time></trkpt><trkpt lat="37.19754875457802" lon="14.365878565607213"><ele>175.0</ele><time>2026-03-25T11:29:21.001Z</time></trkpt><trkpt lat="37.197360161779024" lon="14.365651465049197"><ele>173.0</ele><time>2026-03-25T11:29:22.001Z</time></trkpt><trkpt lat="37.19717160105718" lon="14.365425646609818"><ele>171.0</ele><time>2026-03-25T11:29:23.001Z</time></trkpt><trkpt lat="37.19698404103884" lon="14.3651987539934"><ele>171.0</ele><time>2026-03-25T11:29:24.001Z</time></trkpt><trkpt lat="37.19679781448628" lon="14.364973826488887"><ele>171.0</ele><time>2026-03-25T11:29:25.001Z</time></trkpt><trkpt lat="37.19661240261066" lon="14.364750328863117"><ele>170.5</ele><time>2026-03-25T11:29:26.001Z</time></trkpt><trkpt lat="37.196425988152924" lon="14.364529777519856"><ele>170.0</ele><time>2026-03-25T11:29:27.001Z</time></trkpt><trkpt lat="37.196239472103166" lon="14.364311101551408"><ele>170.0</ele><time>2026-03-25T11:29:28.001Z</time></trkpt><trkpt lat="37.196056133822424" lon="14.364091966481338"><ele>170.0</ele><time>2026-03-25T11:29:29.001Z</time></trkpt><trkpt lat="37.19587965574079" lon="14.363864424712522"><ele>169.0</ele><time>2026-03-25T11:29:30.001Z</time></trkpt><trkpt lat="37.19571499064338" lon="14.363620640055238"><ele>168.0</ele><time>2026-03-25T11:29:31.001Z</time></trkpt><trkpt lat="37.1955651136743" lon="14.363356728511617"><ele>167.5</ele><time>2026-03-25T11:29:32.001Z</time></trkpt><trkpt lat="37.19543121396748" lon="14.363076365794615"><ele>167.0</ele><time>2026-03-25T11:29:33.001Z</time></trkpt><trkpt lat="37.195313364948404" lon="14.362781272165883"><ele>167.0</ele><time>2026-03-25T11:29:34.001Z</time></trkpt><trkpt lat="37.19520190299089" lon="14.362478084122124"><ele>167.0</ele><time>2026-03-25T11:29:35.001Z</time></trkpt><trkpt lat="37.19508740264584" lon="14.362174027087041"><ele>167.0</ele><time>2026-03-25T11:29:36.001Z</time></trkpt><trkpt lat="37.19497143673961" lon="14.361873698919887"><ele>167.0</ele><time>2026-03-25T11:29:37.001Z</time></trkpt><trkpt lat="37.194857656521364" lon="14.361578876735688"><ele>167.0</ele><time>2026-03-25T11:29:38.001Z</time></trkpt><trkpt lat="37.19474431125174" lon="14.361290186723759"><ele>167.0</ele><time>2026-03-25T11:29:39.001Z</time></trkpt><trkpt lat="37.19463223120924" lon="14.361005802885122"><ele>167.0</ele><time>2026-03-25T11:29:40.001Z</time></trkpt><trkpt lat="37.194525845564556" lon="14.36072503237805"><ele>167.0</ele><time>2026-03-25T11:29:41.001Z</time></trkpt><trkpt lat="37.194419218526534" lon="14.360449750051307"><ele>165.0</ele><time>2026-03-25T11:29:42.001Z</time></trkpt><trkpt lat="37.19430135609856" lon="14.360181716285647"><ele>163.0</ele><time>2026-03-25T11:29:43.001Z</time></trkpt><trkpt lat="37.19416492751325" lon="14.359926837798083"><ele>162.0</ele><time>2026-03-25T11:29:44.001Z</time></trkpt><trkpt lat="37.19401013562414" lon="14.359688235637424"><ele>161.0</ele><time>2026-03-25T11:29:45.001Z</time></trkpt><trkpt lat="37.19383629922861" lon="14.359465494983292"><ele>161.0</ele><time>2026-03-25T11:29:46.001Z</time></trkpt><trkpt lat="37.19364621412047" lon="14.359263390806356"><ele>161.0</ele><time>2026-03-25T11:29:47.001Z</time></trkpt><trkpt lat="37.19344310092936" lon="14.359076962876724"><ele>161.0</ele><time>2026-03-25T11:29:48.001Z</time></trkpt><trkpt lat="37.193228438526006" lon="14.358905623087407"><ele>161.0</ele><time>2026-03-25T11:29:49.001Z</time></trkpt><trkpt lat="37.1930057415654" lon="14.358750189771628"><ele>158.5</ele><time>2026-03-25T11:29:50.001Z</time></trkpt><trkpt lat="37.19277653565425" lon="14.35860548490333"><ele>156.0</ele><time>2026-03-25T11:29:51.001Z</time></trkpt><trkpt lat="37.19254666644883" lon="14.358460760579913"><ele>156.5</ele><time>2026-03-25T11:29:52.001Z</time></trkpt><trkpt lat="37.19231950173648" lon="14.358312503773014"><ele>157.0</ele><time>2026-03-25T11:29:53.001Z</time></trkpt><trkpt lat="37.192093561637755" lon="14.358166513804282"><ele>157.0</ele><time>2026-03-25T11:29:54.001Z</time></trkpt><trkpt lat="37.19186703204528" lon="14.358021095531855"><ele>157.0</ele><time>2026-03-25T11:29:55.001Z</time></trkpt><trkpt lat="37.19164170386963" lon="14.357873641375232"><ele>156.0</ele><time>2026-03-25T11:29:56.001Z</time></trkpt><trkpt lat="37.191417443345394" lon="14.357727575303615"><ele>155.0</ele><time>2026-03-25T11:29:57.002Z</time></trkpt><trkpt lat="37.191192716241446" lon="14.357582103634895"><ele>155.0</ele><time>2026-03-25T11:29:58.002Z</time></trkpt><trkpt lat="37.1909687962193" lon="14.357438349460374"><ele>155.0</ele><time>2026-03-25T11:29:59.002Z</time></trkpt><trkpt lat="37.19074752673093" lon="14.357296951831062"><ele>154.0</ele><time>2026-03-25T11:30:00.002Z</time></trkpt><trkpt lat="37.19052156768597" lon="14.357158668549792"><ele>153.0</ele><time>2026-03-25T11:30:01.002Z</time></trkpt><trkpt lat="37.190298209447555" lon="14.35701888440829"><ele>153.0</ele><time>2026-03-25T11:30:02.002Z</time></trkpt><trkpt lat="37.190075316869475" lon="14.35687614036092"><ele>153.0</ele><time>2026-03-25T11:30:03.002Z</time></trkpt><trkpt lat="37.189856202925014" lon="14.356734763683585"><ele>151.0</ele><time>2026-03-25T11:30:04.002Z</time></trkpt><trkpt lat="37.18963602743478" lon="14.356596151042488"><ele>149.0</ele><time>2026-03-25T11:30:05.002Z</time></trkpt><trkpt lat="37.18941515874465" lon="14.356455675155026"><ele>148.5</ele><time>2026-03-25T11:30:06.002Z</time></trkpt><trkpt lat="37.18919482637908" lon="14.356312872266496"><ele>148.0</ele><time>2026-03-25T11:30:07.002Z</time></trkpt><trkpt lat="37.188973203819614" lon="14.356171492711084"><ele>148.0</ele><time>2026-03-25T11:30:08.002Z</time></trkpt><trkpt lat="37.18875116030327" lon="14.35602766336176"><ele>148.0</ele><time>2026-03-25T11:30:09.002Z</time></trkpt><trkpt lat="37.18852692483654" lon="14.355885534181501"><ele>148.0</ele><time>2026-03-25T11:30:10.002Z</time></trkpt><trkpt lat="37.18830268222998" lon="14.355742962132458"><ele>148.0</ele><time>2026-03-25T11:30:11.002Z</time></trkpt><trkpt lat="37.18807420864254" lon="14.355599159488033"><ele>146.5</ele><time>2026-03-25T11:30:12.002Z</time></trkpt><trkpt lat="37.187848701646104" lon="14.355455654824395"><ele>145.0</ele><time>2026-03-25T11:30:13Z</time></trkpt><trkpt lat="37.18762309097085" lon="14.355314124575994"><ele>145.0</ele><time>2026-03-25T11:30:14Z</time></trkpt><trkpt lat="37.1873963640252" lon="14.355175021805548"><ele>145.0</ele><time>2026-03-25T11:30:15Z</time></trkpt><trkpt lat="37.18717087371675" lon="14.355034540087829"><ele>143.5</ele><time>2026-03-25T11:30:16Z</time></trkpt><trkpt lat="37.18694790371325" lon="14.354894037723987"><ele>142.0</ele><time>2026-03-25T11:30:17Z</time></trkpt><trkpt lat="37.18672422322801" lon="14.354746316321298"><ele>143.0</ele><time>2026-03-25T11:30:18Z</time></trkpt><trkpt lat="37.18650056107105" lon="14.354605593445878"><ele>144.0</ele><time>2026-03-25T11:30:19Z</time></trkpt><trkpt lat="37.18627955862622" lon="14.354466961373205"><ele>144.0</ele><time>2026-03-25T11:30:20Z</time></trkpt><trkpt lat="37.186060982320754" lon="14.354323119710921"><ele>144.0</ele><time>2026-03-25T11:30:21Z</time></trkpt><trkpt lat="37.18585117454444" lon="14.354163892431595"><ele>143.5</ele><time>2026-03-25T11:30:22Z</time></trkpt><trkpt lat="37.18564572505246" lon="14.353998635701954"><ele>143.0</ele><time>2026-03-25T11:30:23Z</time></trkpt><trkpt lat="37.18545963414271" lon="14.353807086492726"><ele>143.0</ele><time>2026-03-25T11:30:24Z</time></trkpt><trkpt lat="37.185294380458664" lon="14.353587476591741"><ele>143.0</ele><time>2026-03-25T11:30:25Z</time></trkpt><trkpt lat="37.18514497401907" lon="14.353348733485257"><ele>143.0</ele><time>2026-03-25T11:30:26Z</time></trkpt><trkpt lat="37.18500668643402" lon="14.353101328808403"><ele>143.0</ele><time>2026-03-25T11:30:27Z</time></trkpt><trkpt lat="37.18487301657349" lon="14.352847281419116"><ele>142.0</ele><time>2026-03-25T11:30:28Z</time></trkpt><trkpt lat="37.184740147117715" lon="14.352593634401645"><ele>141.0</ele><time>2026-03-25T11:30:29Z</time></trkpt><trkpt lat="37.18459443887282" lon="14.352344250577913"><ele>139.0</ele><time>2026-03-25T11:30:30Z</time></trkpt><trkpt lat="37.18442800280374" lon="14.352119893226062"><ele>137.0</ele><time>2026-03-25T11:30:31Z</time></trkpt><trkpt lat="37.18423621875" lon="14.351922744923694"><ele>137.0</ele><time>2026-03-25T11:30:32Z</time></trkpt><trkpt lat="37.184029101816684" lon="14.35173537695257"><ele>137.0</ele><time>2026-03-25T11:30:33Z</time></trkpt><trkpt lat="37.183819124043325" lon="14.351548558091697"><ele>135.0</ele><time>2026-03-25T11:30:34Z</time></trkpt><trkpt lat="37.183618331930084" lon="14.351352717889883"><ele>133.0</ele><time>2026-03-25T11:30:35Z</time></trkpt><trkpt lat="37.18342326375482" lon="14.351151987510228"><ele>133.0</ele><time>2026-03-25T11:30:36Z</time></trkpt><trkpt lat="37.183233532606096" lon="14.350945495379605"><ele>133.0</ele><time>2026-03-25T11:30:37Z</time></trkpt><trkpt lat="37.18305483293528" lon="14.350734758829864"><ele>133.5</ele><time>2026-03-25T11:30:38Z</time></trkpt><trkpt lat="37.18289373225156" lon="14.35052006924758"><ele>134.0</ele><time>2026-03-25T11:30:39Z</time></trkpt><trkpt lat="37.18275487103746" lon="14.350304751404941"><ele>134.0</ele><time>2026-03-25T11:30:40Z</time></trkpt><trkpt lat="37.182618806285696" lon="14.35007766124691"><ele>134.0</ele><time>2026-03-25T11:30:41Z</time></trkpt><trkpt lat="37.18247985888686" lon="14.349847276820881"><ele>134.0</ele><time>2026-03-25T11:30:42Z</time></trkpt><trkpt lat="37.18233096970245" lon="14.349614056494143"><ele>134.0</ele><time>2026-03-25T11:30:43Z</time></trkpt><trkpt lat="37.182175574746104" lon="14.349377847177067"><ele>134.0</ele><time>2026-03-25T11:30:44Z</time></trkpt><trkpt lat="37.18202248179175" lon="14.349139129307929"><ele>134.0</ele><time>2026-03-25T11:30:45Z</time></trkpt><trkpt lat="37.18187210571462" lon="14.348899618545294"><ele>129.5</ele><time>2026-03-25T11:30:46Z</time></trkpt><trkpt lat="37.181722908346515" lon="14.34866025439526"><ele>125.0</ele><time>2026-03-25T11:30:47Z</time></trkpt><trkpt lat="37.181575156422284" lon="14.348426364028626"><ele>125.0</ele><time>2026-03-25T11:30:48Z</time></trkpt><trkpt lat="37.18142843562006" lon="14.348195534091278"><ele>125.0</ele><time>2026-03-25T11:30:49Z</time></trkpt><trkpt lat="37.18128222117708" lon="14.347973974768983"><ele>120.5</ele><time>2026-03-25T11:30:50Z</time></trkpt><trkpt lat="37.181126125988946" lon="14.347759635386941"><ele>116.0</ele><time>2026-03-25T11:30:51Z</time></trkpt><trkpt lat="37.18095414729902" lon="14.347547242196198"><ele>116.0</ele><time>2026-03-25T11:30:52Z</time></trkpt><trkpt lat="37.18076716573872" lon="14.347344916426243"><ele>116.0</ele><time>2026-03-25T11:30:53Z</time></trkpt><trkpt lat="37.180571327742655" lon="14.347160938873822"><ele>112.0</ele><time>2026-03-25T11:30:54Z</time></trkpt><trkpt lat="37.18036008023753" lon="14.347010889603556"><ele>108.0</ele><time>2026-03-25T11:30:55.001Z</time></trkpt><trkpt lat="37.180136302322055" lon="14.346888973468486"><ele>108.0</ele><time>2026-03-25T11:30:56.001Z</time></trkpt><trkpt lat="37.1798949490985" lon="14.346788915633725"><ele>108.0</ele><time>2026-03-25T11:30:57.001Z</time></trkpt><trkpt lat="37.179642545076106" lon="14.346692393006705"><ele>108.5</ele><time>2026-03-25T11:30:58.001Z</time></trkpt><trkpt lat="37.17938413618719" lon="14.346606322888732"><ele>109.0</ele><time>2026-03-25T11:30:59.001Z</time></trkpt><trkpt lat="37.17912598142737" lon="14.346518261834026"><ele>106.5</ele><time>2026-03-25T11:31:00.001Z</time></trkpt><trkpt lat="37.178871150293936" lon="14.34642347365682"><ele>104.0</ele><time>2026-03-25T11:31:01.001Z</time></trkpt><trkpt lat="37.17862201633997" lon="14.34632913762883"><ele>101.0</ele><time>2026-03-25T11:31:02.001Z</time></trkpt><trkpt lat="37.17838095976956" lon="14.346236699271975"><ele>98.0</ele><time>2026-03-25T11:31:03.001Z</time></trkpt><trkpt lat="37.1781480885495" lon="14.346145174374184"><ele>97.0</ele><time>2026-03-25T11:31:04.001Z</time></trkpt><trkpt lat="37.177930200770824" lon="14.346054166001345"><ele>96.0</ele><time>2026-03-25T11:31:05.001Z</time></trkpt><trkpt lat="37.17772085738074" lon="14.34595120188586"><ele>96.0</ele><time>2026-03-25T11:31:06.001Z</time></trkpt><trkpt lat="37.177511996893976" lon="14.345822818565438"><ele>96.0</ele><time>2026-03-25T11:31:07.001Z</time></trkpt><trkpt lat="37.177306119901225" lon="14.345675649712577"><ele>94.0</ele><time>2026-03-25T11:31:08.001Z</time></trkpt><trkpt lat="37.17710497257286" lon="14.345511996572917"><ele>92.0</ele><time>2026-03-25T11:31:09.001Z</time></trkpt><trkpt lat="37.17691085627883" lon="14.345334688036369"><ele>92.0</ele><time>2026-03-25T11:31:10.001Z</time></trkpt><trkpt lat="37.17671184163657" lon="14.345152354696063"><ele>92.0</ele><time>2026-03-25T11:31:11.001Z</time></trkpt><trkpt lat="37.176510345902344" lon="14.344979579975048"><ele>93.0</ele><time>2026-03-25T11:31:12.001Z</time></trkpt><trkpt lat="37.17630570644571" lon="14.34480725656509"><ele>94.0</ele><time>2026-03-25T11:31:13.001Z</time></trkpt><trkpt lat="37.17610206215373" lon="14.344639238074937"><ele>96.5</ele><time>2026-03-25T11:31:14.001Z</time></trkpt><trkpt lat="37.17590043342414" lon="14.344472222861155"><ele>99.0</ele><time>2026-03-25T11:31:15.001Z</time></trkpt><trkpt lat="37.17570734538833" lon="14.344308830854375"><ele>98.66666666666666</ele><time>2026-03-25T11:31:16.001Z</time></trkpt><trkpt lat="37.1755226394648" lon="14.344150110993613"><ele>98.33333333333333</ele><time>2026-03-25T11:31:17.001Z</time></trkpt><trkpt lat="37.175339787800986" lon="14.343995278610986"><ele>98.0</ele><time>2026-03-25T11:31:18.001Z</time></trkpt><trkpt lat="37.17516294983801" lon="14.343847851823455"><ele>98.0</ele><time>2026-03-25T11:31:19.001Z</time></trkpt><trkpt lat="37.17499685416856" lon="14.343710975997935"><ele>98.0</ele><time>2026-03-25T11:31:20.001Z</time></trkpt><trkpt lat="37.17483760810419" lon="14.343586480349943"><ele>98.0</ele><time>2026-03-25T11:31:21.001Z</time></trkpt><trkpt lat="37.17468510863717" lon="14.34347618203361"><ele>96.66666666666666</ele><time>2026-03-25T11:31:22.001Z</time></trkpt><trkpt lat="37.17453726718151" lon="14.34337916020086"><ele>95.33333333333333</ele><time>2026-03-25T11:31:23.001Z</time></trkpt><trkpt lat="37.1743900576491" lon="14.343303292721892"><ele>94.0</ele><time>2026-03-25T11:31:24.001Z</time></trkpt><trkpt lat="37.17423504533934" lon="14.34323837202272"><ele>94.0</ele><time>2026-03-25T11:31:25.001Z</time></trkpt><trkpt lat="37.17407385954214" lon="14.343179225843368"><ele>94.0</ele><time>2026-03-25T11:31:26.001Z</time></trkpt><trkpt lat="37.17391657026121" lon="14.34312579586124"><ele>94.0</ele><time>2026-03-25T11:31:27.001Z</time></trkpt><trkpt lat="37.17377326269573" lon="14.343081521279098"><ele>94.5</ele><time>2026-03-25T11:31:28.001Z</time></trkpt><trkpt lat="37.17363647259287" lon="14.343042725417678"><ele>95.0</ele><time>2026-03-25T11:31:29.001Z</time></trkpt><trkpt lat="37.17349886114176" lon="14.343001875489668"><ele>95.5</ele><time>2026-03-25T11:31:30.001Z</time></trkpt><trkpt lat="37.173360292669805" lon="14.34296045356163"><ele>96.0</ele><time>2026-03-25T11:31:31.001Z</time></trkpt><trkpt lat="37.173231662957896" lon="14.342923429248904"><ele>96.4</ele><time>2026-03-25T11:31:32.001Z</time></trkpt><trkpt lat="37.173110639216425" lon="14.342887684142298"><ele>96.8</ele><time>2026-03-25T11:31:33.001Z</time></trkpt><trkpt lat="37.17299688184154" lon="14.342853837660417"><ele>97.2</ele><time>2026-03-25T11:31:34.001Z</time></trkpt><trkpt lat="37.17289135104677" lon="14.342825528082155"><ele>97.60000000000001</ele><time>2026-03-25T11:31:35.001Z</time></trkpt><trkpt lat="37.1727979393935" lon="14.342803314388826"><ele>98.0</ele><time>2026-03-25T11:31:36.001Z</time></trkpt><trkpt lat="37.17271624235079" lon="14.342784232702913"><ele>98.0</ele><time>2026-03-25T11:31:37.001Z</time></trkpt><trkpt lat="37.17264131533438" lon="14.342769811063427"><ele>98.0</ele><time>2026-03-25T11:31:38.001Z</time></trkpt><trkpt lat="37.17257555308265" lon="14.34275874501055"><ele>98.0</ele><time>2026-03-25T11:31:39.001Z</time></trkpt><trkpt lat="37.17247295091866" lon="14.34271089983901"><ele>98.0</ele><time>2026-03-25T11:31:41.001Z</time></trkpt><trkpt lat="37.17239477649531" lon="14.34260604131143"><ele>98.0</ele><time>2026-03-25T11:31:43.001Z</time></trkpt><trkpt lat="37.17230782637529" lon="14.342506272992663"><ele>98.0</ele><time>2026-03-25T11:31:45.001Z</time></trkpt><trkpt lat="37.172199912786375" lon="14.342463916462423"><ele>98.0</ele><time>2026-03-25T11:31:47.001Z</time></trkpt><trkpt lat="37.17208148913338" lon="14.34249875055446"><ele>98.0</ele><time>2026-03-25T11:31:49.001Z</time></trkpt><trkpt lat="37.17202965839041" lon="14.342550304360511"><ele>98.0</ele><time>2026-03-25T11:31:50.001Z</time></trkpt><trkpt lat="37.171993811985196" lon="14.342615973435777"><ele>98.0</ele><time>2026-03-25T11:31:51.001Z</time></trkpt><trkpt lat="37.17197527502148" lon="14.34277345165169"><ele>97.99999999999999</ele><time>2026-03-25T11:31:53.001Z</time></trkpt><trkpt lat="37.17198875888177" lon="14.342862263158663"><ele>98.0</ele><time>2026-03-25T11:31:54.001Z</time></trkpt><trkpt lat="37.17201589147768" lon="14.342955191127839"><ele>98.0</ele><time>2026-03-25T11:31:55.001Z</time></trkpt><trkpt lat="37.17204374447205" lon="14.3430438721759"><ele>98.0</ele><time>2026-03-25T11:31:56.001Z</time></trkpt><trkpt lat="37.17206540213127" lon="14.343120866054512"><ele>97.99999999999999</ele><time>2026-03-25T11:31:57.001Z</time></trkpt><trkpt lat="37.17207582059497" lon="14.343274628525"><ele>98.0</ele><time>2026-03-25T11:31:59.002Z</time></trkpt><trkpt lat="37.17206753645674" lon="14.34335423614865"><ele>97.25</ele><time>2026-03-25T11:32:00.002Z</time></trkpt><trkpt lat="37.17204133321108" lon="14.343504520576847"><ele>96.5</ele><time>2026-03-25T11:32:02.002Z</time></trkpt><trkpt lat="37.17200812560055" lon="14.343650178883003"><ele>95.75</ele><time>2026-03-25T11:32:04.002Z</time></trkpt><trkpt lat="37.17198542871753" lon="14.343792333225663"><ele>95.0</ele><time>2026-03-25T11:32:06.002Z</time></trkpt><trkpt lat="37.171966605954744" lon="14.343930993624554"><ele>94.2</ele><time>2026-03-25T11:32:08.002Z</time></trkpt><trkpt lat="37.17194373382502" lon="14.344063709620784"><ele>93.4</ele><time>2026-03-25T11:32:10.002Z</time></trkpt><trkpt lat="37.17192878977967" lon="14.344191919832424"><ele>92.6</ele><time>2026-03-25T11:32:12.002Z</time></trkpt><trkpt lat="37.171915775686294" lon="14.344311454208285"><ele>91.8</ele><time>2026-03-25T11:32:14.002Z</time></trkpt><trkpt lat="37.1718946962167" lon="14.344467211816328"><ele>91.0</ele><time>2026-03-25T11:32:16.002Z</time></trkpt><trkpt lat="37.171884136294686" lon="14.344570205562999"><ele>91.0</ele><time>2026-03-25T11:32:17.002Z</time></trkpt><trkpt lat="37.17187500050689" lon="14.344690137955897"><ele>91.0</ele><time>2026-03-25T11:32:18Z</time></trkpt><trkpt lat="37.171861339850466" lon="14.344820147781915"><ele>91.0</ele><time>2026-03-25T11:32:19Z</time></trkpt><trkpt lat="37.17184588196171" lon="14.344958622848349"><ele>91.0</ele><time>2026-03-25T11:32:20Z</time></trkpt><trkpt lat="37.17182873943586" lon="14.34510756499395"><ele>91.0</ele><time>2026-03-25T11:32:21Z</time></trkpt><trkpt lat="37.17181302166998" lon="14.345261642411122"><ele>90.5</ele><time>2026-03-25T11:32:22Z</time></trkpt><trkpt lat="37.17179681683527" lon="14.345420220722243"><ele>90.0</ele><time>2026-03-25T11:32:23Z</time></trkpt><trkpt lat="37.17178276257196" lon="14.345583744654197"><ele>89.5</ele><time>2026-03-25T11:32:24Z</time></trkpt><trkpt lat="37.17176658473683" lon="14.34574615122417"><ele>89.0</ele><time>2026-03-25T11:32:25Z</time></trkpt><trkpt lat="37.171750698717794" lon="14.345908494201527"><ele>88.5</ele><time>2026-03-25T11:32:26Z</time></trkpt><trkpt lat="37.17173483137789" lon="14.346070565670285"><ele>88.0</ele><time>2026-03-25T11:32:27Z</time></trkpt><trkpt lat="37.17172009926238" lon="14.346225596833484"><ele>87.5</ele><time>2026-03-25T11:32:28Z</time></trkpt><trkpt lat="37.171703936665004" lon="14.346385754265128"><ele>87.0</ele><time>2026-03-25T11:32:29Z</time></trkpt><trkpt lat="37.171684434603804" lon="14.346550248791054"><ele>86.5</ele><time>2026-03-25T11:32:30Z</time></trkpt><trkpt lat="37.17166592808983" lon="14.346712733973385"><ele>86.0</ele><time>2026-03-25T11:32:31Z</time></trkpt><trkpt lat="37.17165066804702" lon="14.346870470005426"><ele>85.5</ele><time>2026-03-25T11:32:32Z</time></trkpt><trkpt lat="37.1716351727717" lon="14.34702371898627"><ele>85.0</ele><time>2026-03-25T11:32:33Z</time></trkpt><trkpt lat="37.17161860841797" lon="14.347170214974788"><ele>84.75</ele><time>2026-03-25T11:32:34Z</time></trkpt><trkpt lat="37.17159686340391" lon="14.347312953979705"><ele>84.5</ele><time>2026-03-25T11:32:35Z</time></trkpt><trkpt lat="37.17156701308257" lon="14.347451152678703"><ele>84.25</ele><time>2026-03-25T11:32:36Z</time></trkpt><trkpt lat="37.17152904182476" lon="14.347594074503789"><ele>84.0</ele><time>2026-03-25T11:32:37Z</time></trkpt><trkpt lat="37.17147912815443" lon="14.34774139778971"><ele>84.0</ele><time>2026-03-25T11:32:38Z</time></trkpt><trkpt lat="37.171421442878696" lon="14.347887054931075"><ele>84.0</ele><time>2026-03-25T11:32:39Z</time></trkpt><trkpt lat="37.17135860362587" lon="14.348032158170964"><ele>84.0</ele><time>2026-03-25T11:32:40Z</time></trkpt><trkpt lat="37.17129709603664" lon="14.348174927864488"><ele>84.0</ele><time>2026-03-25T11:32:41Z</time></trkpt><trkpt lat="37.17123842412844" lon="14.348316220323603"><ele>84.0</ele><time>2026-03-25T11:32:42Z</time></trkpt><trkpt lat="37.17117995972289" lon="14.348460090815443"><ele>84.0</ele><time>2026-03-25T11:32:43Z</time></trkpt><trkpt lat="37.17112016074619" lon="14.348603827164798"><ele>84.0</ele><time>2026-03-25T11:32:44Z</time></trkpt><trkpt lat="37.17106106698699" lon="14.348738747122336"><ele>84.0</ele><time>2026-03-25T11:32:45Z</time></trkpt><trkpt lat="37.171000266077364" lon="14.348879069794851"><ele>85.0</ele><time>2026-03-25T11:32:46Z</time></trkpt><trkpt lat="37.17093913739466" lon="14.349024941149558"><ele>86.0</ele><time>2026-03-25T11:32:47Z</time></trkpt><trkpt lat="37.17088030361773" lon="14.349171498659942"><ele>87.0</ele><time>2026-03-25T11:32:48Z</time></trkpt><trkpt lat="37.17083337830444" lon="14.3493104739077"><ele>88.0</ele><time>2026-03-25T11:32:49Z</time></trkpt><trkpt lat="37.1708069445263" lon="14.349445327656555"><ele>88.0</ele><time>2026-03-25T11:32:50Z</time></trkpt><trkpt lat="37.170797942783075" lon="14.349584800169099"><ele>88.0</ele><time>2026-03-25T11:32:51.001Z</time></trkpt><trkpt lat="37.170799003553306" lon="14.349728736424632"><ele>88.0</ele><time>2026-03-25T11:32:52.001Z</time></trkpt><trkpt lat="37.170805294240566" lon="14.349873216448389"><ele>88.0</ele><time>2026-03-25T11:32:53.001Z</time></trkpt><trkpt lat="37.170806746874476" lon="14.350013403224837"><ele>88.16666666666666</ele><time>2026-03-25T11:32:54.001Z</time></trkpt><trkpt lat="37.17080962571142" lon="14.35014215409289"><ele>88.33333333333333</ele><time>2026-03-25T11:32:55.001Z</time></trkpt><trkpt lat="37.170810130844316" lon="14.35026250379283"><ele>88.5</ele><time>2026-03-25T11:32:56.001Z</time></trkpt><trkpt lat="37.17081214640532" lon="14.350371554043667"><ele>88.66666666666667</ele><time>2026-03-25T11:32:57.001Z</time></trkpt><trkpt lat="37.17081423865933" lon="14.350472148131322"><ele>88.83333333333334</ele><time>2026-03-25T11:32:58.001Z</time></trkpt><trkpt lat="37.17081555762875" lon="14.35056320142333"><ele>89.0</ele><time>2026-03-25T11:32:59.001Z</time></trkpt><trkpt lat="37.170815251220795" lon="14.350648451851878"><ele>89.0</ele><time>2026-03-25T11:33:00.001Z</time></trkpt><trkpt lat="37.17081175307597" lon="14.350727405365085"><ele>89.0</ele><time>2026-03-25T11:33:01.001Z</time></trkpt><trkpt lat="37.170787917079345" lon="14.350864301423726"><ele>89.0</ele><time>2026-03-25T11:33:03.001Z</time></trkpt><trkpt lat="37.170678533633115" lon="14.350949578363513"><ele>89.0</ele><time>2026-03-25T11:33:05.001Z</time></trkpt><trkpt lat="37.17059640458329" lon="14.350972422245686"><ele>89.0</ele><time>2026-03-25T11:33:06.001Z</time></trkpt><trkpt lat="37.17050963227572" lon="14.351007494175466"><ele>87.80000000000001</ele><time>2026-03-25T11:33:07.001Z</time></trkpt><trkpt lat="37.17041418655349" lon="14.35104275158937"><ele>86.60000000000001</ele><time>2026-03-25T11:33:08.001Z</time></trkpt><trkpt lat="37.17031100350857" lon="14.351081351613418"><ele>85.4</ele><time>2026-03-25T11:33:09.001Z</time></trkpt><trkpt lat="37.170203574391536" lon="14.35112092838469"><ele>84.2</ele><time>2026-03-25T11:33:10.001Z</time></trkpt><trkpt lat="37.170096161317744" lon="14.351158224893048"><ele>83.0</ele><time>2026-03-25T11:33:11.001Z</time></trkpt><trkpt lat="37.1699893848426" lon="14.35119487146938"><ele>83.0</ele><time>2026-03-25T11:33:12.001Z</time></trkpt><trkpt lat="37.16988921607886" lon="14.35122898470986"><ele>83.0</ele><time>2026-03-25T11:33:13.001Z</time></trkpt><trkpt lat="37.16979464179166" lon="14.351262247843751"><ele>83.0</ele><time>2026-03-25T11:33:14.001Z</time></trkpt><trkpt lat="37.16970554047765" lon="14.351295720555392"><ele>83.0</ele><time>2026-03-25T11:33:15.001Z</time></trkpt><trkpt lat="37.169620811128524" lon="14.351331070213293"><ele>83.0</ele><time>2026-03-25T11:33:16.001Z</time></trkpt><trkpt lat="37.169540991920655" lon="14.351375153177049"><ele>82.2</ele><time>2026-03-25T11:33:17.001Z</time></trkpt><trkpt lat="37.169456853390635" lon="14.351435268075575"><ele>81.4</ele><time>2026-03-25T11:33:18.001Z</time></trkpt><trkpt lat="37.16937369653714" lon="14.351507836573388"><ele>80.60000000000001</ele><time>2026-03-25T11:33:19.001Z</time></trkpt><trkpt lat="37.16929606884202" lon="14.351595028913408"><ele>79.80000000000001</ele><time>2026-03-25T11:33:20.001Z</time></trkpt><trkpt lat="37.16922510231248" lon="14.351693253896448"><ele>79.0</ele><time>2026-03-25T11:33:21.001Z</time></trkpt><trkpt lat="37.16915566232695" lon="14.351796018059893"><ele>79.0</ele><time>2026-03-25T11:33:22.001Z</time></trkpt><trkpt lat="37.169086590605176" lon="14.351902007408462"><ele>79.0</ele><time>2026-03-25T11:33:23.001Z</time></trkpt><trkpt lat="37.169017780615754" lon="14.352008632842441"><ele>79.0</ele><time>2026-03-25T11:33:24.001Z</time></trkpt><trkpt lat="37.16894728972969" lon="14.352114780121264"><ele>79.0</ele><time>2026-03-25T11:33:25.001Z</time></trkpt><trkpt lat="37.168875830179815" lon="14.352221353436532"><ele>79.0</ele><time>2026-03-25T11:33:26.001Z</time></trkpt><trkpt lat="37.16880506902446" lon="14.352329208076807"><ele>78.4</ele><time>2026-03-25T11:33:27.001Z</time></trkpt><trkpt lat="37.168735457855576" lon="14.352436905031979"><ele>77.80000000000001</ele><time>2026-03-25T11:33:28.001Z</time></trkpt><trkpt lat="37.168666962654044" lon="14.352542542862462"><ele>77.19999999999999</ele><time>2026-03-25T11:33:29.001Z</time></trkpt><trkpt lat="37.16859973379706" lon="14.352644111213422"><ele>76.6</ele><time>2026-03-25T11:33:30.001Z</time></trkpt><trkpt lat="37.16854077992609" lon="14.352733088063621"><ele>76.0</ele><time>2026-03-25T11:33:31.001Z</time></trkpt><trkpt lat="37.16849402330788" lon="14.352800384760657"><ele>76.0</ele><time>2026-03-25T11:33:32.001Z</time></trkpt><trkpt lat="37.168434676791804" lon="14.352884492772287"><ele>76.0</ele><time>2026-03-25T11:33:34.001Z</time></trkpt><trkpt lat="37.16838151891214" lon="14.352968813976021"><ele>76.0</ele><time>2026-03-25T11:33:37.001Z</time></trkpt><trkpt lat="37.16833070479265" lon="14.353039222971955"><ele>76.0</ele><time>2026-03-25T11:33:40.001Z</time></trkpt><trkpt lat="37.168301857468336" lon="14.353111146920183"><ele>76.0</ele><time>2026-03-25T11:40:59Z</time></trkpt><trkpt lat="37.16824779156683" lon="14.353212349028023"><ele>76.0</ele><time>2026-03-25T11:41:01Z</time></trkpt><trkpt lat="37.16820510701487" lon="14.353271861400664"><ele>76.14285714285714</ele><time>2026-03-25T11:41:02Z</time></trkpt><trkpt lat="37.16816190131979" lon="14.353336914812672"><ele>76.28571428571429</ele><time>2026-03-25T11:41:03Z</time></trkpt><trkpt lat="37.168114675348754" lon="14.353405666259501"><ele>76.42857142857143</ele><time>2026-03-25T11:41:04Z</time></trkpt><trkpt lat="37.16806464138976" lon="14.35347963159769"><ele>76.57142857142857</ele><time>2026-03-25T11:41:05Z</time></trkpt><trkpt lat="37.168016420945065" lon="14.353552858331414"><ele>76.71428571428572</ele><time>2026-03-25T11:41:06Z</time></trkpt><trkpt lat="37.16796718242316" lon="14.353625352730374"><ele>76.85714285714286</ele><time>2026-03-25T11:41:07Z</time></trkpt><trkpt lat="37.167917108778454" lon="14.353698274574919"><ele>77.0</ele><time>2026-03-25T11:41:08Z</time></trkpt><trkpt lat="37.16786701508277" lon="14.353773726760943"><ele>77.0</ele><time>2026-03-25T11:41:09Z</time></trkpt><trkpt lat="37.16781730741202" lon="14.353848809077894"><ele>77.0</ele><time>2026-03-25T11:41:10Z</time></trkpt><trkpt lat="37.16776777074485" lon="14.35392451786373"><ele>77.0</ele><time>2026-03-25T11:41:11Z</time></trkpt><trkpt lat="37.16771733065049" lon="14.354000144834483"><ele>77.0</ele><time>2026-03-25T11:41:12.001Z</time></trkpt><trkpt lat="37.16766603039825" lon="14.354074813274499"><ele>77.0</ele><time>2026-03-25T11:41:13.001Z</time></trkpt><trkpt lat="37.167614492907816" lon="14.354150325934167"><ele>77.0</ele><time>2026-03-25T11:41:14.001Z</time></trkpt><trkpt lat="37.16756318203421" lon="14.354226512576796"><ele>76.83333333333334</ele><time>2026-03-25T11:41:15.001Z</time></trkpt><trkpt lat="37.167512373601106" lon="14.354302939736652"><ele>76.66666666666667</ele><time>2026-03-25T11:41:16.001Z</time></trkpt><trkpt lat="37.16746200353139" lon="14.354381060507377"><ele>76.5</ele><time>2026-03-25T11:41:17.001Z</time></trkpt><trkpt lat="37.167411186576985" lon="14.354460061535868"><ele>76.33333333333333</ele><time>2026-03-25T11:41:18.001Z</time></trkpt><trkpt lat="37.167360565157516" lon="14.354539135423458"><ele>76.16666666666666</ele><time>2026-03-25T11:41:19.001Z</time></trkpt><trkpt lat="37.16730954604175" lon="14.354618949953707"><ele>76.0</ele><time>2026-03-25T11:41:20.001Z</time></trkpt><trkpt lat="37.16725806476782" lon="14.354699006217196"><ele>76.0</ele><time>2026-03-25T11:41:21.001Z</time></trkpt><trkpt lat="37.16720501878337" lon="14.354778504330687"><ele>76.0</ele><time>2026-03-25T11:41:22.001Z</time></trkpt><trkpt lat="37.167152279764586" lon="14.354857488227909"><ele>76.0</ele><time>2026-03-25T11:41:23.001Z</time></trkpt><trkpt lat="37.167099802961054" lon="14.354936880913996"><ele>76.0</ele><time>2026-03-25T11:41:24.001Z</time></trkpt><trkpt lat="37.16704612224501" lon="14.355019079169264"><ele>76.0</ele><time>2026-03-25T11:41:25.001Z</time></trkpt><trkpt lat="37.16699222993695" lon="14.355102656021126"><ele>76.0</ele><time>2026-03-25T11:41:26.001Z</time></trkpt><trkpt lat="37.166937952610624" lon="14.355184179284617"><ele>76.0</ele><time>2026-03-25T11:41:27.001Z</time></trkpt><trkpt lat="37.16688268912801" lon="14.355266228750464"><ele>76.0</ele><time>2026-03-25T11:41:28.001Z</time></trkpt><trkpt lat="37.16682475204355" lon="14.355353520646618"><ele>76.0</ele><time>2026-03-25T11:41:29.001Z</time></trkpt><trkpt lat="37.1667628698231" lon="14.355445815086984"><ele>76.0</ele><time>2026-03-25T11:41:30.001Z</time></trkpt><trkpt lat="37.16670094726513" lon="14.35553884878563"><ele>76.0</ele><time>2026-03-25T11:41:31.001Z</time></trkpt><trkpt lat="37.16663832636527" lon="14.35563317669328"><ele>75.6</ele><time>2026-03-25T11:41:32.001Z</time></trkpt><trkpt lat="37.16657418486971" lon="14.355727225342367"><ele>75.19999999999999</ele><time>2026-03-25T11:41:33.001Z</time></trkpt><trkpt lat="37.166510158510334" lon="14.3558211750344"><ele>74.80000000000001</ele><time>2026-03-25T11:41:34.001Z</time></trkpt><trkpt lat="37.166447239285546" lon="14.35591704227364"><ele>74.4</ele><time>2026-03-25T11:41:35.001Z</time></trkpt><trkpt lat="37.166386382168625" lon="14.35600977172076"><ele>74.0</ele><time>2026-03-25T11:41:36.001Z</time></trkpt><trkpt lat="37.166328227186014" lon="14.356099044085282"><ele>74.0</ele><time>2026-03-25T11:41:37.001Z</time></trkpt><trkpt lat="37.166270915940196" lon="14.356185414951183"><ele>74.0</ele><time>2026-03-25T11:41:38.001Z</time></trkpt><trkpt lat="37.16621483690753" lon="14.356269718487079"><ele>74.0</ele><time>2026-03-25T11:41:39.001Z</time></trkpt><trkpt lat="37.166159621706754" lon="14.356351049732504"><ele>74.0</ele><time>2026-03-25T11:41:40.001Z</time></trkpt><trkpt lat="37.166104983836675" lon="14.356429720196662"><ele>74.0</ele><time>2026-03-25T11:41:41.001Z</time></trkpt><trkpt lat="37.16605189319363" lon="14.35650983160606"><ele>74.0</ele><time>2026-03-25T11:41:42.001Z</time></trkpt><trkpt lat="37.16599852077505" lon="14.356592701899567"><ele>73.83333333333334</ele><time>2026-03-25T11:41:43.001Z</time></trkpt><trkpt lat="37.16594535420398" lon="14.35667849179167"><ele>73.66666666666667</ele><time>2026-03-25T11:41:44.001Z</time></trkpt><trkpt lat="37.16588916235084" lon="14.356762215740604"><ele>73.5</ele><time>2026-03-25T11:41:45.001Z</time></trkpt><trkpt lat="37.165832609214576" lon="14.356845412380872"><ele>73.33333333333333</ele><time>2026-03-25T11:41:46.001Z</time></trkpt><trkpt lat="37.16577708482496" lon="14.35693150413991"><ele>73.16666666666666</ele><time>2026-03-25T11:41:47.001Z</time></trkpt><trkpt lat="37.16572008167009" lon="14.357017360042128"><ele>73.0</ele><time>2026-03-25T11:41:48.001Z</time></trkpt><trkpt lat="37.1656619625016" lon="14.357103808892301"><ele>73.0</ele><time>2026-03-25T11:41:49.001Z</time></trkpt><trkpt lat="37.165604455498574" lon="14.357189317192915"><ele>73.0</ele><time>2026-03-25T11:41:50.001Z</time></trkpt><trkpt lat="37.16554641162809" lon="14.35727574809197"><ele>73.0</ele><time>2026-03-25T11:41:51.001Z</time></trkpt><trkpt lat="37.16548847579688" lon="14.35736278641262"><ele>73.0</ele><time>2026-03-25T11:41:52.001Z</time></trkpt><trkpt lat="37.165430382733035" lon="14.357450578779135"><ele>73.0</ele><time>2026-03-25T11:41:53.001Z</time></trkpt><trkpt lat="37.16537263081409" lon="14.357537648153452"><ele>73.0</ele><time>2026-03-25T11:41:54.001Z</time></trkpt><trkpt lat="37.1653151595638" lon="14.357624448629771"><ele>73.0</ele><time>2026-03-25T11:41:55.001Z</time></trkpt><trkpt lat="37.16525676529503" lon="14.357711103515262"><ele>73.0</ele><time>2026-03-25T11:41:56.001Z</time></trkpt><trkpt lat="37.16520974163279" lon="14.35780742454166"><ele>73.0</ele><time>2026-03-25T11:41:57.001Z</time></trkpt><trkpt lat="37.16514044788024" lon="14.35788513164463"><ele>73.0</ele><time>2026-03-25T11:41:58.001Z</time></trkpt><trkpt lat="37.165083698582556" lon="14.357972971382498"><ele>73.0</ele><time>2026-03-25T11:41:59.001Z</time></trkpt><trkpt lat="37.16502386477939" lon="14.358064039362947"><ele>73.0</ele><time>2026-03-25T11:42:00.001Z</time></trkpt><trkpt lat="37.16496618478949" lon="14.358150046763887"><ele>73.0</ele><time>2026-03-25T11:42:01.001Z</time></trkpt><trkpt lat="37.16490902344185" lon="14.358238945701787"><ele>73.0</ele><time>2026-03-25T11:42:02.001Z</time></trkpt><trkpt lat="37.16485112341841" lon="14.358327747496993"><ele>73.0</ele><time>2026-03-25T11:42:03.001Z</time></trkpt><trkpt lat="37.16479303296827" lon="14.358416503060802"><ele>73.0</ele><time>2026-03-25T11:42:04.001Z</time></trkpt><trkpt lat="37.16473516736319" lon="14.358506646747022"><ele>73.0</ele><time>2026-03-25T11:42:05.001Z</time></trkpt><trkpt lat="37.164677931287486" lon="14.358594400036159"><ele>73.0</ele><time>2026-03-25T11:42:06.001Z</time></trkpt><trkpt lat="37.16461710359734" lon="14.358690973330978"><ele>73.0</ele><time>2026-03-25T11:42:07.001Z</time></trkpt><trkpt lat="37.16455821351551" lon="14.358772242202889"><ele>73.0</ele><time>2026-03-25T11:42:08.001Z</time></trkpt><trkpt lat="37.16449946961738" lon="14.358856548803493"><ele>72.8</ele><time>2026-03-25T11:42:09.001Z</time></trkpt><trkpt lat="37.164440380151845" lon="14.358949123804711"><ele>72.6</ele><time>2026-03-25T11:42:10.001Z</time></trkpt><trkpt lat="37.16438097262783" lon="14.359039774298198"><ele>72.4</ele><time>2026-03-25T11:42:11.001Z</time></trkpt><trkpt lat="37.164322532913616" lon="14.359131949466594"><ele>72.2</ele><time>2026-03-25T11:42:12.001Z</time></trkpt><trkpt lat="37.16426612836752" lon="14.35922444905154"><ele>72.0</ele><time>2026-03-25T11:42:13.001Z</time></trkpt><trkpt lat="37.16420810437329" lon="14.359315980928182"><ele>72.0</ele><time>2026-03-25T11:42:14.001Z</time></trkpt><trkpt lat="37.164148303032135" lon="14.359404617515036"><ele>72.0</ele><time>2026-03-25T11:42:15.001Z</time></trkpt><trkpt lat="37.16408759781094" lon="14.359491284499876"><ele>72.0</ele><time>2026-03-25T11:42:16.001Z</time></trkpt><trkpt lat="37.164026038892516" lon="14.35957824038558"><ele>72.0</ele><time>2026-03-25T11:42:17.001Z</time></trkpt><trkpt lat="37.163964798386004" lon="14.359665953485885"><ele>72.0</ele><time>2026-03-25T11:42:18.001Z</time></trkpt><trkpt lat="37.163904937132855" lon="14.359755755334165"><ele>72.2</ele><time>2026-03-25T11:42:19.001Z</time></trkpt><trkpt lat="37.163844861774805" lon="14.359846246244585"><ele>72.4</ele><time>2026-03-25T11:42:20.001Z</time></trkpt><trkpt lat="37.16378588135812" lon="14.359937534037986"><ele>72.6</ele><time>2026-03-25T11:42:21.001Z</time></trkpt><trkpt lat="37.1637263734485" lon="14.360028527377825"><ele>72.8</ele><time>2026-03-25T11:42:22.001Z</time></trkpt><trkpt lat="37.16366570426733" lon="14.360118143709665"><ele>73.0</ele><time>2026-03-25T11:42:23.001Z</time></trkpt><trkpt lat="37.163605493238066" lon="14.360207700009834"><ele>73.0</ele><time>2026-03-25T11:42:24.001Z</time></trkpt><trkpt lat="37.16354687473838" lon="14.360298522674475"><ele>73.0</ele><time>2026-03-25T11:42:25.001Z</time></trkpt><trkpt lat="37.16348854532411" lon="14.360389550628213"><ele>73.0</ele><time>2026-03-25T11:42:26.001Z</time></trkpt><trkpt lat="37.163428278439675" lon="14.36047764381133"><ele>73.0</ele><time>2026-03-25T11:42:27.001Z</time></trkpt><trkpt lat="37.16336783499118" lon="14.360565896090407"><ele>73.0</ele><time>2026-03-25T11:42:28.001Z</time></trkpt><trkpt lat="37.16330812926549" lon="14.360656003889735"><ele>73.0</ele><time>2026-03-25T11:42:29.001Z</time></trkpt><trkpt lat="37.16324927671331" lon="14.360745867737135"><ele>73.0</ele><time>2026-03-25T11:42:30.001Z</time></trkpt><trkpt lat="37.16319073768565" lon="14.360835078413647"><ele>73.0</ele><time>2026-03-25T11:42:31.001Z</time></trkpt><trkpt lat="37.163131341181355" lon="14.360923497451076"><ele>73.0</ele><time>2026-03-25T11:42:32.001Z</time></trkpt><trkpt lat="37.16307292075704" lon="14.36101237704778"><ele>73.0</ele><time>2026-03-25T11:42:33.001Z</time></trkpt><trkpt lat="37.16301465961116" lon="14.361101774866352"><ele>72.8</ele><time>2026-03-25T11:42:34.001Z</time></trkpt><trkpt lat="37.16295598336477" lon="14.361189982966184"><ele>72.6</ele><time>2026-03-25T11:42:35.001Z</time></trkpt><trkpt lat="37.16289643893391" lon="14.361277969326606"><ele>72.4</ele><time>2026-03-25T11:42:36.001Z</time></trkpt><trkpt lat="37.162837633509746" lon="14.361366390536869"><ele>72.2</ele><time>2026-03-25T11:42:37.001Z</time></trkpt><trkpt lat="37.1627790257746" lon="14.361456113793091"><ele>72.0</ele><time>2026-03-25T11:42:38.001Z</time></trkpt><trkpt lat="37.16272012691003" lon="14.361545169628227"><ele>72.0</ele><time>2026-03-25T11:42:39.002Z</time></trkpt><trkpt lat="37.162661035808675" lon="14.361634526952358"><ele>72.0</ele><time>2026-03-25T11:42:40.002Z</time></trkpt><trkpt lat="37.16260250737828" lon="14.361724412495352"><ele>72.0</ele><time>2026-03-25T11:42:41.002Z</time></trkpt><trkpt lat="37.16254375611703" lon="14.361814523146414"><ele>72.0</ele><time>2026-03-25T11:42:42.002Z</time></trkpt><trkpt lat="37.16248400608602" lon="14.36190425273359"><ele>72.0</ele><time>2026-03-25T11:42:43.002Z</time></trkpt><trkpt lat="37.162423474133526" lon="14.361993338080552"><ele>72.2</ele><time>2026-03-25T11:42:44.002Z</time></trkpt><trkpt lat="37.16236302764083" lon="14.362082813245092"><ele>72.4</ele><time>2026-03-25T11:42:45.002Z</time></trkpt><trkpt lat="37.16230336062353" lon="14.362173136261921"><ele>72.6</ele><time>2026-03-25T11:42:46.002Z</time></trkpt><trkpt lat="37.16224420036459" lon="14.362261825892434"><ele>72.8</ele><time>2026-03-25T11:42:47.002Z</time></trkpt><trkpt lat="37.16218497497621" lon="14.362349142663406"><ele>73.0</ele><time>2026-03-25T11:42:48Z</time></trkpt><trkpt lat="37.16212594816512" lon="14.362436296642866"><ele>73.0</ele><time>2026-03-25T11:42:49Z</time></trkpt><trkpt lat="37.162068970322366" lon="14.362523615373318"><ele>73.0</ele><time>2026-03-25T11:42:50Z</time></trkpt><trkpt lat="37.16201365775655" lon="14.362610127984155"><ele>73.0</ele><time>2026-03-25T11:42:51Z</time></trkpt><trkpt lat="37.16195809553271" lon="14.362696599375678"><ele>73.0</ele><time>2026-03-25T11:42:52Z</time></trkpt><trkpt lat="37.16190241877027" lon="14.3627824287221"><ele>73.0</ele><time>2026-03-25T11:42:53Z</time></trkpt><trkpt lat="37.16184711719535" lon="14.362868368454771"><ele>73.0</ele><time>2026-03-25T11:42:54Z</time></trkpt><trkpt lat="37.16179224481804" lon="14.362954247120644"><ele>73.0</ele><time>2026-03-25T11:42:55Z</time></trkpt><trkpt lat="37.161736666325055" lon="14.363039589184146"><ele>73.0</ele><time>2026-03-25T11:42:56Z</time></trkpt><trkpt lat="37.16168017235735" lon="14.363120981766306"><ele>73.0</ele><time>2026-03-25T11:42:57Z</time></trkpt><trkpt lat="37.16162382872351" lon="14.36320186682396"><ele>73.0</ele><time>2026-03-25T11:42:58Z</time></trkpt><trkpt lat="37.16156957454519" lon="14.36328346714142"><ele>73.0</ele><time>2026-03-25T11:42:59Z</time></trkpt><trkpt lat="37.16151640964349" lon="14.363366018293105"><ele>73.0</ele><time>2026-03-25T11:43:00Z</time></trkpt><trkpt lat="37.161462709094835" lon="14.363447322227351"><ele>73.0</ele><time>2026-03-25T11:43:01Z</time></trkpt><trkpt lat="37.16140735514758" lon="14.363527610626766"><ele>73.0</ele><time>2026-03-25T11:43:02Z</time></trkpt><trkpt lat="37.16135281853794" lon="14.363607813491594"><ele>73.0</ele><time>2026-03-25T11:43:03Z</time></trkpt><trkpt lat="37.16129813625484" lon="14.363688460889815"><ele>73.0</ele><time>2026-03-25T11:43:04Z</time></trkpt><trkpt lat="37.16124431905282" lon="14.36376901118605"><ele>73.0</ele><time>2026-03-25T11:43:05Z</time></trkpt><trkpt lat="37.161191412887106" lon="14.363850679620153"><ele>73.0</ele><time>2026-03-25T11:43:06Z</time></trkpt><trkpt lat="37.16113842074446" lon="14.363932462568759"><ele>73.0</ele><time>2026-03-25T11:43:07Z</time></trkpt><trkpt lat="37.1610847159876" lon="14.364013066088953"><ele>73.0</ele><time>2026-03-25T11:43:08Z</time></trkpt><trkpt lat="37.16103023610233" lon="14.36409403724378"><ele>73.0</ele><time>2026-03-25T11:43:09Z</time></trkpt><trkpt lat="37.16097606136084" lon="14.3641754134597"><ele>73.0</ele><time>2026-03-25T11:43:10Z</time></trkpt><trkpt lat="37.16092327433175" lon="14.36425906386931"><ele>73.0</ele><time>2026-03-25T11:43:11Z</time></trkpt><trkpt lat="37.16087077721502" lon="14.364343396581033"><ele>73.0</ele><time>2026-03-25T11:43:12Z</time></trkpt><trkpt lat="37.16081818968154" lon="14.364426053605792"><ele>73.0</ele><time>2026-03-25T11:43:13Z</time></trkpt><trkpt lat="37.160763616598956" lon="14.364507277211247"><ele>73.0</ele><time>2026-03-25T11:43:14Z</time></trkpt><trkpt lat="37.16070868583672" lon="14.364588722183981"><ele>73.0</ele><time>2026-03-25T11:43:15.001Z</time></trkpt><trkpt lat="37.160653116896405" lon="14.364669277297928"><ele>73.0</ele><time>2026-03-25T11:43:16.001Z</time></trkpt><trkpt lat="37.16059791007773" lon="14.364751282584054"><ele>73.0</ele><time>2026-03-25T11:43:17.001Z</time></trkpt><trkpt lat="37.16054339123339" lon="14.364834218209765"><ele>73.0</ele><time>2026-03-25T11:43:18.001Z</time></trkpt><trkpt lat="37.16048970510998" lon="14.364916393262485"><ele>72.66666666666666</ele><time>2026-03-25T11:43:19.001Z</time></trkpt><trkpt lat="37.160435078336235" lon="14.365000263314474"><ele>72.33333333333333</ele><time>2026-03-25T11:43:20.001Z</time></trkpt><trkpt lat="37.16038008472451" lon="14.365083223721982"><ele>72.0</ele><time>2026-03-25T11:43:21.001Z</time></trkpt><trkpt lat="37.160324835776066" lon="14.365165779463625"><ele>71.66666666666667</ele><time>2026-03-25T11:43:22.001Z</time></trkpt><trkpt lat="37.16026864460056" lon="14.365248516765881"><ele>71.33333333333334</ele><time>2026-03-25T11:43:23.001Z</time></trkpt><trkpt lat="37.16021358415924" lon="14.365332352160367"><ele>71.0</ele><time>2026-03-25T11:43:24.001Z</time></trkpt><trkpt lat="37.160160582371546" lon="14.365418439456642"><ele>71.0</ele><time>2026-03-25T11:43:25.001Z</time></trkpt><trkpt lat="37.160108059112964" lon="14.36550532619249"><ele>71.0</ele><time>2026-03-25T11:43:26.001Z</time></trkpt><trkpt lat="37.16005325430151" lon="14.365589496745752"><ele>71.0</ele><time>2026-03-25T11:43:27.001Z</time></trkpt><trkpt lat="37.159995528306574" lon="14.365669815045205"><ele>71.0</ele><time>2026-03-25T11:43:28.001Z</time></trkpt><trkpt lat="37.15993805747259" lon="14.36575144166629"><ele>71.0</ele><time>2026-03-25T11:43:29.001Z</time></trkpt><trkpt lat="37.159882276938" lon="14.365834235715042"><ele>71.0</ele><time>2026-03-25T11:43:30.001Z</time></trkpt><trkpt lat="37.15982715174567" lon="14.365917901196996"><ele>71.83333333333334</ele><time>2026-03-25T11:43:31.001Z</time></trkpt><trkpt lat="37.15977235133712" lon="14.366000870952208"><ele>72.66666666666667</ele><time>2026-03-25T11:43:32.001Z</time></trkpt><trkpt lat="37.15971745829595" lon="14.366083417310973"><ele>73.5</ele><time>2026-03-25T11:43:33.001Z</time></trkpt><trkpt lat="37.15966360832859" lon="14.366165885724488"><ele>74.33333333333333</ele><time>2026-03-25T11:43:34.001Z</time></trkpt><trkpt lat="37.159609959524" lon="14.366247594856427"><ele>75.16666666666666</ele><time>2026-03-25T11:43:35.001Z</time></trkpt><trkpt lat="37.15955489138745" lon="14.366329411091305"><ele>76.0</ele><time>2026-03-25T11:43:36.001Z</time></trkpt><trkpt lat="37.159498723483814" lon="14.3664170596118"><ele>76.39999999999999</ele><time>2026-03-25T11:43:37.001Z</time></trkpt><trkpt lat="37.15944193948783" lon="14.366509674227279"><ele>76.8</ele><time>2026-03-25T11:43:38.001Z</time></trkpt><trkpt lat="37.15938153753339" lon="14.36660238836673"><ele>77.19999999999999</ele><time>2026-03-25T11:43:39.001Z</time></trkpt><trkpt lat="37.1593184544482" lon="14.366696208447095"><ele>77.6</ele><time>2026-03-25T11:43:40.001Z</time></trkpt><trkpt lat="37.15925471890199" lon="14.366790401015493"><ele>78.0</ele><time>2026-03-25T11:43:41.001Z</time></trkpt><trkpt lat="37.159192171220845" lon="14.366882094869311"><ele>78.0</ele><time>2026-03-25T11:43:42.001Z</time></trkpt><trkpt lat="37.1591315503173" lon="14.366973648069951"><ele>78.0</ele><time>2026-03-25T11:43:43.001Z</time></trkpt><trkpt lat="37.15907427282301" lon="14.367064386769002"><ele>78.0</ele><time>2026-03-25T11:43:44.001Z</time></trkpt><trkpt lat="37.15901823553471" lon="14.36715063866662"><ele>78.0</ele><time>2026-03-25T11:43:45.001Z</time></trkpt><trkpt lat="37.158965375032025" lon="14.36723271155034"><ele>78.0</ele><time>2026-03-25T11:43:46.001Z</time></trkpt><trkpt lat="37.15891398844612" lon="14.367308837675678"><ele>78.0</ele><time>2026-03-25T11:43:47.001Z</time></trkpt><trkpt lat="37.15886399532743" lon="14.367381179771096"><ele>77.83333333333333</ele><time>2026-03-25T11:43:48.001Z</time></trkpt><trkpt lat="37.158812782058796" lon="14.367459668253026"><ele>77.66666666666667</ele><time>2026-03-25T11:43:49.001Z</time></trkpt><trkpt lat="37.15875979947332" lon="14.367540204374924"><ele>77.5</ele><time>2026-03-25T11:43:50.001Z</time></trkpt><trkpt lat="37.1587062310011" lon="14.367624542513084"><ele>77.33333333333334</ele><time>2026-03-25T11:43:51.001Z</time></trkpt><trkpt lat="37.15865040787686" lon="14.367711549422792"><ele>77.16666666666667</ele><time>2026-03-25T11:43:52.001Z</time></trkpt><trkpt lat="37.158595327341466" lon="14.367800963411234"><ele>77.0</ele><time>2026-03-25T11:43:53.001Z</time></trkpt><trkpt lat="37.15853673725665" lon="14.367888465090575"><ele>77.0</ele><time>2026-03-25T11:43:54.001Z</time></trkpt><trkpt lat="37.15847601669105" lon="14.36797546363642"><ele>77.0</ele><time>2026-03-25T11:43:55.001Z</time></trkpt><trkpt lat="37.15841565462525" lon="14.368061060101235"><ele>77.0</ele><time>2026-03-25T11:43:56.001Z</time></trkpt><trkpt lat="37.15835701910514" lon="14.368147573431628"><ele>77.0</ele><time>2026-03-25T11:43:57.001Z</time></trkpt><trkpt lat="37.15829842339216" lon="14.368234084354876"><ele>77.0</ele><time>2026-03-25T11:43:58.001Z</time></trkpt><trkpt lat="37.158242796546546" lon="14.368321070207223"><ele>77.5</ele><time>2026-03-25T11:43:59.001Z</time></trkpt><trkpt lat="37.15818637216218" lon="14.36840599701764"><ele>78.0</ele><time>2026-03-25T11:44:00.001Z</time></trkpt><trkpt lat="37.158131704791344" lon="14.368490045587064"><ele>78.5</ele><time>2026-03-25T11:44:01.001Z</time></trkpt><trkpt lat="37.1580768852417" lon="14.368574147870333"><ele>79.0</ele><time>2026-03-25T11:44:02.001Z</time></trkpt><trkpt lat="37.15802171524983" lon="14.368656874654194"><ele>79.5</ele><time>2026-03-25T11:44:03.001Z</time></trkpt><trkpt lat="37.15796720178827" lon="14.368737338280736"><ele>80.0</ele><time>2026-03-25T11:44:04.001Z</time></trkpt><trkpt lat="37.15791409759045" lon="14.368816192995393"><ele>80.0</ele><time>2026-03-25T11:44:05.001Z</time></trkpt><trkpt lat="37.157860005051404" lon="14.368892017981073"><ele>84.0</ele><time>2026-03-25T11:44:06.001Z</time></trkpt><trkpt lat="37.157809019172134" lon="14.368963692079774"><ele>84.0</ele><time>2026-03-25T11:44:07.001Z</time></trkpt><trkpt lat="37.157761118890434" lon="14.36903140581225"><ele>84.0</ele><time>2026-03-25T11:44:08.001Z</time></trkpt><trkpt lat="37.15771860911242" lon="14.36909592676563"><ele>84.0</ele><time>2026-03-25T11:44:09.001Z</time></trkpt><trkpt lat="37.157650631883975" lon="14.369193650648668"><ele>84.0</ele><time>2026-03-25T11:44:11.001Z</time></trkpt></trkseg></trk></gpx>